<?xml version='1.0' encoding='UTF-8'?><gpx version="1.1" creator="JPX - https://github.com/jenetics/jpx" xmlns="http://www.topografix.com/GPX/1/1"><trk><trkseg><trkpt lat="45.79457986198994" lon="9.413643609153977"><ele>212.00000000000003</ele><time>2026-04-11T12:24:42.999Z</time></trkpt><trkpt lat="45.79462013442072" lon="9.413758000732091"><ele>212.0</ele><time>2026-04-11T12:25:46Z</time></trkpt><trkpt lat="45.794653880497314" lon="9.413856945953723"><ele>212.0</ele><time>2026-04-11T12:25:48Z</time></trkpt><trkpt lat="45.79473043943182" lon="9.41383003010862"><ele>212.0</ele><time>2026-04-11T12:25:50Z</time></trkpt><trkpt lat="45.79481153179729" lon="9.413774675497795"><ele>212.00000000000003</ele><time>2026-04-11T12:25:52Z</time></trkpt><trkpt lat="45.79488786568366" lon="9.413833432368284"><ele>212.0</ele><time>2026-04-11T12:25:54.999Z</time></trkpt><trkpt lat="45.79490950287231" lon="9.413981089544249"><ele>212.00000000000003</ele><time>2026-04-11T12:25:57.001Z</time></trkpt><trkpt lat="45.794958732000254" lon="9.414094640902766"><ele>212.0</ele><time>2026-04-11T12:25:59.001Z</time></trkpt><trkpt lat="45.79507125197284" lon="9.414060300048257"><ele>212.0</ele><time>2026-04-11T12:26:01.001Z</time></trkpt><trkpt lat="45.79513115908302" lon="9.414019443264957"><ele>212.0</ele><time>2026-04-11T12:26:02.001Z</time></trkpt><trkpt lat="45.79519866624539" lon="9.413984279081417"><ele>212.00000000000003</ele><time>2026-04-11T12:26:03.001Z</time></trkpt><trkpt lat="45.79526796552776" lon="9.413952623559101"><ele>212.0</ele><time>2026-04-11T12:26:04.001Z</time></trkpt><trkpt lat="45.79533102225745" lon="9.413918286595726"><ele>212.0</ele><time>2026-04-11T12:26:05.001Z</time></trkpt><trkpt lat="45.795433334660146" lon="9.413860482541935"><ele>212.0</ele><time>2026-04-11T12:26:07.001Z</time></trkpt><trkpt lat="45.79550576219094" lon="9.41384436550156"><ele>212.0</ele><time>2026-04-11T12:26:09.001Z</time></trkpt><trkpt lat="45.79557538875148" lon="9.413957401453958"><ele>212.0</ele><time>2026-04-11T12:26:11.001Z</time></trkpt><trkpt lat="45.7956004668153" lon="9.41406230734553"><ele>212.0</ele><time>2026-04-11T12:26:12.001Z</time></trkpt><trkpt lat="45.79563670843208" lon="9.414187765444492"><ele>212.0</ele><time>2026-04-11T12:26:13.001Z</time></trkpt><trkpt lat="45.7956797823476" lon="9.414307516947089"><ele>212.0</ele><time>2026-04-11T12:26:14.001Z</time></trkpt><trkpt lat="45.795726310908606" lon="9.414437163462992"><ele>212.0</ele><time>2026-04-11T12:26:15.001Z</time></trkpt><trkpt lat="45.79576996826704" lon="9.414569825786524"><ele>212.0</ele><time>2026-04-11T12:26:16.001Z</time></trkpt><trkpt lat="45.795823779253034" lon="9.414695502184285"><ele>212.0</ele><time>2026-04-11T12:26:17.001Z</time></trkpt><trkpt lat="45.795873653259775" lon="9.414811273390708"><ele>210.8</ele><time>2026-04-11T12:26:18.001Z</time></trkpt><trkpt lat="45.795915457579554" lon="9.414926391191369"><ele>209.6</ele><time>2026-04-11T12:26:19.001Z</time></trkpt><trkpt lat="45.79594901378201" lon="9.415032413552542"><ele>208.4</ele><time>2026-04-11T12:26:20.001Z</time></trkpt><trkpt lat="45.79601229784545" lon="9.415154783762842"><ele>207.20000000000002</ele><time>2026-04-11T12:26:22Z</time></trkpt><trkpt lat="45.79605573528225" lon="9.415272503865404"><ele>206.0</ele><time>2026-04-11T12:26:30Z</time></trkpt><trkpt lat="45.79621126302216" lon="9.41519665149891"><ele>206.0</ele><time>2026-04-11T12:26:31Z</time></trkpt><trkpt lat="45.79628685403991" lon="9.415155015911077"><ele>206.0</ele><time>2026-04-11T12:26:32Z</time></trkpt><trkpt lat="45.796370157649434" lon="9.41511271602059"><ele>206.0</ele><time>2026-04-11T12:26:33Z</time></trkpt><trkpt lat="45.796460644059316" lon="9.415074628657187"><ele>206.0</ele><time>2026-04-11T12:26:34Z</time></trkpt><trkpt lat="45.796557589000784" lon="9.415040543630592"><ele>206.0</ele><time>2026-04-11T12:26:35Z</time></trkpt><trkpt lat="45.7966545474414" lon="9.414995682728357"><ele>206.0</ele><time>2026-04-11T12:26:36Z</time></trkpt><trkpt lat="45.79675688699132" lon="9.4149544352953"><ele>206.0</ele><time>2026-04-11T12:26:37Z</time></trkpt><trkpt lat="45.79686032895222" lon="9.414912989127927"><ele>206.0</ele><time>2026-04-11T12:26:38Z</time></trkpt><trkpt lat="45.79696376997012" lon="9.414869926579637"><ele>206.0</ele><time>2026-04-11T12:26:39Z</time></trkpt><trkpt lat="45.79707284677753" lon="9.41482478077879"><ele>206.0</ele><time>2026-04-11T12:26:40Z</time></trkpt><trkpt lat="45.79718089612158" lon="9.414787518843866"><ele>205.8</ele><time>2026-04-11T12:26:41Z</time></trkpt><trkpt lat="45.79728848723841" lon="9.41473732926676"><ele>205.60000000000002</ele><time>2026-04-11T12:26:42Z</time></trkpt><trkpt lat="45.79739477123887" lon="9.41469737353736"><ele>205.4</ele><time>2026-04-11T12:26:43Z</time></trkpt><trkpt lat="45.79749712997265" lon="9.4146439880146"><ele>205.2</ele><time>2026-04-11T12:26:44Z</time></trkpt><trkpt lat="45.79760534479127" lon="9.414602083530422"><ele>205.0</ele><time>2026-04-11T12:26:45Z</time></trkpt><trkpt lat="45.79771339863352" lon="9.414554201052171"><ele>205.75</ele><time>2026-04-11T12:26:46Z</time></trkpt><trkpt lat="45.79782497707298" lon="9.414531660979415"><ele>206.5</ele><time>2026-04-11T12:26:47Z</time></trkpt><trkpt lat="45.79793417991836" lon="9.414485757126089"><ele>207.25</ele><time>2026-04-11T12:26:48Z</time></trkpt><trkpt lat="45.79804126288578" lon="9.414441047330763"><ele>208.0</ele><time>2026-04-11T12:26:49Z</time></trkpt><trkpt lat="45.79815192710927" lon="9.414396244295437"><ele>208.0</ele><time>2026-04-11T12:26:50Z</time></trkpt><trkpt lat="45.798256179797455" lon="9.414357643214313"><ele>208.0</ele><time>2026-04-11T12:26:51Z</time></trkpt><trkpt lat="45.798358735359884" lon="9.41430140044097"><ele>208.0</ele><time>2026-04-11T12:26:52Z</time></trkpt><trkpt lat="45.79846965570564" lon="9.414274430330897"><ele>208.0</ele><time>2026-04-11T12:26:53Z</time></trkpt><trkpt lat="45.79858596037874" lon="9.414257557311842"><ele>208.0</ele><time>2026-04-11T12:26:54Z</time></trkpt><trkpt lat="45.7987029746898" lon="9.414229844612832"><ele>207.5</ele><time>2026-04-11T12:26:55Z</time></trkpt><trkpt lat="45.79882171445345" lon="9.414214801855273"><ele>207.0</ele><time>2026-04-11T12:26:56Z</time></trkpt><trkpt lat="45.79894532552083" lon="9.414191036820773"><ele>206.5</ele><time>2026-04-11T12:26:57Z</time></trkpt><trkpt lat="45.79906733435028" lon="9.41416418601178"><ele>206.0</ele><time>2026-04-11T12:26:58Z</time></trkpt><trkpt lat="45.799191599348184" lon="9.414121482618084"><ele>206.0</ele><time>2026-04-11T12:26:59Z</time></trkpt><trkpt lat="45.79931651981343" lon="9.414063664362518"><ele>206.0</ele><time>2026-04-11T12:27:00Z</time></trkpt><trkpt lat="45.799431536172825" lon="9.41398270275635"><ele>206.0</ele><time>2026-04-11T12:27:01Z</time></trkpt><trkpt lat="45.799544618397945" lon="9.41391033926859"><ele>206.0</ele><time>2026-04-11T12:27:02Z</time></trkpt><trkpt lat="45.7996372776306" lon="9.413839226835188"><ele>207.00000000000003</ele><time>2026-04-11T12:27:03Z</time></trkpt><trkpt lat="45.79972530719907" lon="9.413774818183628"><ele>208.0</ele><time>2026-04-11T12:27:04Z</time></trkpt><trkpt lat="45.79981682317452" lon="9.413742231702216"><ele>209.0</ele><time>2026-04-11T12:27:05Z</time></trkpt><trkpt lat="45.79988849773309" lon="9.413685967744694"><ele>210.0</ele><time>2026-04-11T12:27:06Z</time></trkpt><trkpt lat="45.799949163888556" lon="9.413640982227609"><ele>211.00000000000003</ele><time>2026-04-11T12:27:07Z</time></trkpt><trkpt lat="45.800047448371544" lon="9.413612799352471"><ele>212.0</ele><time>2026-04-11T12:27:09Z</time></trkpt><trkpt lat="45.80012576231447" lon="9.413608967846603"><ele>212.00000000000003</ele><time>2026-04-11T12:27:10Z</time></trkpt><trkpt lat="45.80019947867589" lon="9.413602605219642"><ele>212.0</ele><time>2026-04-11T12:27:11Z</time></trkpt><trkpt lat="45.80027826628522" lon="9.41359393944209"><ele>212.0</ele><time>2026-04-11T12:27:12Z</time></trkpt><trkpt lat="45.800363264606176" lon="9.413583530693288"><ele>212.0</ele><time>2026-04-11T12:27:13Z</time></trkpt><trkpt lat="45.80044066090174" lon="9.413573686728618"><ele>212.00000000000003</ele><time>2026-04-11T12:27:14Z</time></trkpt><trkpt lat="45.80051534906533" lon="9.413564136903057"><ele>212.0</ele><time>2026-04-11T12:27:15Z</time></trkpt><trkpt lat="45.8005923106087" lon="9.413553610127817"><ele>212.00000000000003</ele><time>2026-04-11T12:27:16Z</time></trkpt><trkpt lat="45.80066491272973" lon="9.413518491225412"><ele>212.0</ele><time>2026-04-11T12:27:17Z</time></trkpt><trkpt lat="45.80073485488777" lon="9.413506592604985"><ele>212.0</ele><time>2026-04-11T12:27:18Z</time></trkpt><trkpt lat="45.80080977257824" lon="9.413470515200318"><ele>212.0</ele><time>2026-04-11T12:27:19Z</time></trkpt><trkpt lat="45.800890329857936" lon="9.413428845767363"><ele>212.00000000000003</ele><time>2026-04-11T12:27:20Z</time></trkpt><trkpt lat="45.80097423861905" lon="9.413376583090711"><ele>212.0</ele><time>2026-04-11T12:27:21Z</time></trkpt><trkpt lat="45.80106667203017" lon="9.413344265530217"><ele>211.00000000000003</ele><time>2026-04-11T12:27:22Z</time></trkpt><trkpt lat="45.80115276661205" lon="9.413298051731498"><ele>210.0</ele><time>2026-04-11T12:27:23Z</time></trkpt><trkpt lat="45.80123915292507" lon="9.413255060812528"><ele>209.0</ele><time>2026-04-11T12:27:24Z</time></trkpt><trkpt lat="45.8013227824437" lon="9.413210252531691"><ele>208.0</ele><time>2026-04-11T12:27:25Z</time></trkpt><trkpt lat="45.80140666955272" lon="9.413164967650557"><ele>207.00000000000003</ele><time>2026-04-11T12:27:26Z</time></trkpt><trkpt lat="45.80148854406043" lon="9.413122823601885"><ele>206.0</ele><time>2026-04-11T12:27:27Z</time></trkpt><trkpt lat="45.801570562098995" lon="9.41308756175006"><ele>206.0</ele><time>2026-04-11T12:27:28Z</time></trkpt><trkpt lat="45.80164950084592" lon="9.413050564818674"><ele>206.0</ele><time>2026-04-11T12:27:29Z</time></trkpt><trkpt lat="45.80173443786641" lon="9.41300733567049"><ele>206.0</ele><time>2026-04-11T12:27:30Z</time></trkpt><trkpt lat="45.801820111780685" lon="9.412963326331221"><ele>206.0</ele><time>2026-04-11T12:27:31Z</time></trkpt><trkpt lat="45.80191192783" lon="9.412915207280722"><ele>206.0</ele><time>2026-04-11T12:27:32Z</time></trkpt><trkpt lat="45.80200514917989" lon="9.412858835509676"><ele>205.5</ele><time>2026-04-11T12:27:33Z</time></trkpt><trkpt lat="45.80210122269264" lon="9.412797355896089"><ele>205.0</ele><time>2026-04-11T12:27:34Z</time></trkpt><trkpt lat="45.80220702614209" lon="9.412737372109161"><ele>204.5</ele><time>2026-04-11T12:27:35Z</time></trkpt><trkpt lat="45.80231878026315" lon="9.412673669778151"><ele>204.0</ele><time>2026-04-11T12:27:36Z</time></trkpt><trkpt lat="45.80243520213586" lon="9.41260740082399"><ele>204.0</ele><time>2026-04-11T12:27:37Z</time></trkpt><trkpt lat="45.8025525099493" lon="9.412529639080116"><ele>204.0</ele><time>2026-04-11T12:27:38Z</time></trkpt><trkpt lat="45.802665437568045" lon="9.412429747872961"><ele>204.0</ele><time>2026-04-11T12:27:39Z</time></trkpt><trkpt lat="45.80276906950919" lon="9.412303043927938"><ele>204.0</ele><time>2026-04-11T12:27:40Z</time></trkpt><trkpt lat="45.802859037818685" lon="9.412155115992764"><ele>204.5</ele><time>2026-04-11T12:27:41Z</time></trkpt><trkpt lat="45.802925248742945" lon="9.411993732574143"><ele>205.0</ele><time>2026-04-11T12:27:42Z</time></trkpt><trkpt lat="45.80299909172933" lon="9.41185397500566"><ele>205.5</ele><time>2026-04-11T12:27:43Z</time></trkpt><trkpt lat="45.8030728243662" lon="9.411717389461977"><ele>206.0</ele><time>2026-04-11T12:27:44Z</time></trkpt><trkpt lat="45.80314635583042" lon="9.41158550327348"><ele>206.0</ele><time>2026-04-11T12:27:45Z</time></trkpt><trkpt lat="45.80322407019343" lon="9.411455578070635"><ele>206.0</ele><time>2026-04-11T12:27:46Z</time></trkpt><trkpt lat="45.80330327628387" lon="9.41132026213184"><ele>206.0</ele><time>2026-04-11T12:27:47Z</time></trkpt><trkpt lat="45.803381752712625" lon="9.411177425314357"><ele>206.0</ele><time>2026-04-11T12:27:48Z</time></trkpt><trkpt lat="45.803447987639764" lon="9.411004098005096"><ele>205.25</ele><time>2026-04-11T12:27:49Z</time></trkpt><trkpt lat="45.803505702853606" lon="9.41084445409751"><ele>204.5</ele><time>2026-04-11T12:27:50Z</time></trkpt><trkpt lat="45.80355545114305" lon="9.410634995449508"><ele>203.75</ele><time>2026-04-11T12:27:51Z</time></trkpt><trkpt lat="45.80360120424421" lon="9.410415340010664"><ele>203.0</ele><time>2026-04-11T12:27:51.999Z</time></trkpt><trkpt lat="45.80364243027916" lon="9.41019484827137"><ele>203.0</ele><time>2026-04-11T12:27:52.999Z</time></trkpt><trkpt lat="45.80367849152345" lon="9.409970954581873"><ele>203.0</ele><time>2026-04-11T12:27:53.999Z</time></trkpt><trkpt lat="45.803708528699566" lon="9.409749256537358"><ele>203.0</ele><time>2026-04-11T12:27:54.999Z</time></trkpt><trkpt lat="45.80374217052041" lon="9.409537628032032"><ele>204.0</ele><time>2026-04-11T12:27:55.999Z</time></trkpt><trkpt lat="45.80377378833741" lon="9.409326641561114"><ele>205.0</ele><time>2026-04-11T12:27:56.999Z</time></trkpt><trkpt lat="45.80380551053297" lon="9.409116891044567"><ele>206.0</ele><time>2026-04-11T12:27:57.999Z</time></trkpt><trkpt lat="45.80383480013592" lon="9.408907171797553"><ele>207.0</ele><time>2026-04-11T12:27:58.999Z</time></trkpt><trkpt lat="45.8038647789408" lon="9.408693409410997"><ele>207.0</ele><time>2026-04-11T12:27:59.999Z</time></trkpt><trkpt lat="45.80391109952366" lon="9.408483089192554"><ele>207.0</ele><time>2026-04-11T12:28:00.999Z</time></trkpt><trkpt lat="45.80394557745711" lon="9.408263609223425"><ele>207.0</ele><time>2026-04-11T12:28:02.001Z</time></trkpt><trkpt lat="45.803964980494996" lon="9.408039359140062"><ele>205.66666666666669</ele><time>2026-04-11T12:28:03.001Z</time></trkpt><trkpt lat="45.80400608884577" lon="9.407823726699888"><ele>204.33333333333334</ele><time>2026-04-11T12:28:04.001Z</time></trkpt><trkpt lat="45.8040392978559" lon="9.407609875932167"><ele>203.0</ele><time>2026-04-11T12:28:05.001Z</time></trkpt><trkpt lat="45.804070043366984" lon="9.407401541499958"><ele>203.0</ele><time>2026-04-11T12:28:06.001Z</time></trkpt><trkpt lat="45.80410336463764" lon="9.407197513613557"><ele>203.0</ele><time>2026-04-11T12:28:07.001Z</time></trkpt><trkpt lat="45.804136755421176" lon="9.40699589445771"><ele>203.0</ele><time>2026-04-11T12:28:08.001Z</time></trkpt><trkpt lat="45.80416904862804" lon="9.406800266868695"><ele>203.0</ele><time>2026-04-11T12:28:09.001Z</time></trkpt><trkpt lat="45.80420056520617" lon="9.406615686955856"><ele>203.0</ele><time>2026-04-11T12:28:10.001Z</time></trkpt><trkpt lat="45.80422548075895" lon="9.406441957854584"><ele>203.0</ele><time>2026-04-11T12:28:11.001Z</time></trkpt><trkpt lat="45.80424563541761" lon="9.406280301512968"><ele>203.0</ele><time>2026-04-11T12:28:12.001Z</time></trkpt><trkpt lat="45.80426451741083" lon="9.406134077003854"><ele>203.0</ele><time>2026-04-11T12:28:13.001Z</time></trkpt><trkpt lat="45.804287008293564" lon="9.406009637427317"><ele>203.0</ele><time>2026-04-11T12:28:14.001Z</time></trkpt><trkpt lat="45.80428511237304" lon="9.405901838109504"><ele>203.0</ele><time>2026-04-11T12:28:15.001Z</time></trkpt><trkpt lat="45.80429845761471" lon="9.40574710778355"><ele>203.0</ele><time>2026-04-11T12:28:17.001Z</time></trkpt><trkpt lat="45.804300923675406" lon="9.405629551696299"><ele>203.0</ele><time>2026-04-11T12:28:20.001Z</time></trkpt><trkpt lat="45.804345846590515" lon="9.405478262385673"><ele>203.0</ele><time>2026-04-11T12:28:22.001Z</time></trkpt><trkpt lat="45.804392446664224" lon="9.405382601198513"><ele>203.0</ele><time>2026-04-11T12:28:23Z</time></trkpt><trkpt lat="45.80444402066047" lon="9.405281045540855"><ele>202.4</ele><time>2026-04-11T12:28:24Z</time></trkpt><trkpt lat="45.8045055027085" lon="9.405195109189584"><ele>201.8</ele><time>2026-04-11T12:28:25Z</time></trkpt><trkpt lat="45.80457757444742" lon="9.405105000732076"><ele>201.2</ele><time>2026-04-11T12:28:26Z</time></trkpt><trkpt lat="45.804657177595466" lon="9.405012347517262"><ele>200.6</ele><time>2026-04-11T12:28:27Z</time></trkpt><trkpt lat="45.804752558246086" lon="9.4049393657107"><ele>200.0</ele><time>2026-04-11T12:28:28Z</time></trkpt><trkpt lat="45.8048430306476" lon="9.40484794046243"><ele>200.0</ele><time>2026-04-11T12:28:29Z</time></trkpt><trkpt lat="45.804936843763834" lon="9.404756588096523"><ele>200.0</ele><time>2026-04-11T12:28:30Z</time></trkpt><trkpt lat="45.805035147790804" lon="9.404659544140326"><ele>200.0</ele><time>2026-04-11T12:28:31Z</time></trkpt><trkpt lat="45.805126242070834" lon="9.404569615947109"><ele>200.0</ele><time>2026-04-11T12:28:32Z</time></trkpt><trkpt lat="45.80521929609497" lon="9.404477753126262"><ele>200.5</ele><time>2026-04-11T12:28:33Z</time></trkpt><trkpt lat="45.80531478569256" lon="9.404383485899176"><ele>201.0</ele><time>2026-04-11T12:28:34Z</time></trkpt><trkpt lat="45.80541080674962" lon="9.404288634747461"><ele>201.5</ele><time>2026-04-11T12:28:35Z</time></trkpt><trkpt lat="45.80550400771917" lon="9.404196430574054"><ele>202.0</ele><time>2026-04-11T12:28:36Z</time></trkpt><trkpt lat="45.80559267018425" lon="9.404108716381657"><ele>202.0</ele><time>2026-04-11T12:28:37Z</time></trkpt><trkpt lat="45.80567558402938" lon="9.4040266893056"><ele>202.0</ele><time>2026-04-11T12:28:38Z</time></trkpt><trkpt lat="45.80575647774836" lon="9.403946660761884"><ele>202.0</ele><time>2026-04-11T12:28:39Z</time></trkpt><trkpt lat="45.80583222356411" lon="9.40387172509607"><ele>202.0</ele><time>2026-04-11T12:28:40Z</time></trkpt><trkpt lat="45.805911042976845" lon="9.403792518761174"><ele>202.0</ele><time>2026-04-11T12:28:41Z</time></trkpt><trkpt lat="45.80599624626025" lon="9.40370710630393"><ele>202.0</ele><time>2026-04-11T12:28:42Z</time></trkpt><trkpt lat="45.806090657680876" lon="9.403612463112262"><ele>202.0</ele><time>2026-04-11T12:28:43Z</time></trkpt><trkpt lat="45.80617689632968" lon="9.403504059299578"><ele>202.0</ele><time>2026-04-11T12:28:44Z</time></trkpt><trkpt lat="45.806262866632096" lon="9.403418083434866"><ele>202.0</ele><time>2026-04-11T12:28:45Z</time></trkpt><trkpt lat="45.806347300886934" lon="9.4033576613734"><ele>202.0</ele><time>2026-04-11T12:28:46Z</time></trkpt><trkpt lat="45.80642173942607" lon="9.403284329297223"><ele>201.99999999999997</ele><time>2026-04-11T12:28:47Z</time></trkpt><trkpt lat="45.80649823372426" lon="9.403208972056092"><ele>202.0</ele><time>2026-04-11T12:28:48Z</time></trkpt><trkpt lat="45.806566704295456" lon="9.403141519372454"><ele>202.0</ele><time>2026-04-11T12:28:49Z</time></trkpt><trkpt lat="45.80662066465697" lon="9.403057844851485"><ele>202.0</ele><time>2026-04-11T12:28:50Z</time></trkpt><trkpt lat="45.80668740605342" lon="9.403019771860269"><ele>201.99999999999997</ele><time>2026-04-11T12:28:51Z</time></trkpt><trkpt lat="45.806745532487916" lon="9.402958635134011"><ele>202.0</ele><time>2026-04-11T12:28:52Z</time></trkpt><trkpt lat="45.806798756977386" lon="9.402874327564602"><ele>201.99999999999997</ele><time>2026-04-11T12:28:53Z</time></trkpt><trkpt lat="45.80687386978824" lon="9.402821871461887"><ele>202.0</ele><time>2026-04-11T12:28:54Z</time></trkpt><trkpt lat="45.80693030464704" lon="9.402733299089135"><ele>202.0</ele><time>2026-04-11T12:28:55Z</time></trkpt><trkpt lat="45.806992979365326" lon="9.402670012975799"><ele>202.0</ele><time>2026-04-11T12:28:56Z</time></trkpt><trkpt lat="45.80705173125946" lon="9.402607903924688"><ele>201.99999999999997</ele><time>2026-04-11T12:28:57Z</time></trkpt><trkpt lat="45.80711261678995" lon="9.4025488271151"><ele>202.0</ele><time>2026-04-11T12:28:58Z</time></trkpt><trkpt lat="45.807176387619336" lon="9.402487328870192"><ele>201.99999999999997</ele><time>2026-04-11T12:28:59Z</time></trkpt><trkpt lat="45.80723688586635" lon="9.402421746153399"><ele>202.0</ele><time>2026-04-11T12:29:00Z</time></trkpt><trkpt lat="45.8072906926488" lon="9.402361359087914"><ele>202.0</ele><time>2026-04-11T12:29:01Z</time></trkpt><trkpt lat="45.807386561550054" lon="9.402247133101843"><ele>202.0</ele><time>2026-04-11T12:29:03Z</time></trkpt><trkpt lat="45.80743973529787" lon="9.402186421326736"><ele>201.99999999999997</ele><time>2026-04-11T12:29:04Z</time></trkpt><trkpt lat="45.8074981349852" lon="9.40212377627876"><ele>202.0</ele><time>2026-04-11T12:29:05Z</time></trkpt><trkpt lat="45.807564304981405" lon="9.402056438011124"><ele>201.8</ele><time>2026-04-11T12:29:06Z</time></trkpt><trkpt lat="45.80763725627947" lon="9.401985645935573"><ele>201.6</ele><time>2026-04-11T12:29:07Z</time></trkpt><trkpt lat="45.80771552339109" lon="9.40191113135279"><ele>201.4</ele><time>2026-04-11T12:29:08Z</time></trkpt><trkpt lat="45.80779927162751" lon="9.401827446442024"><ele>201.20000000000002</ele><time>2026-04-11T12:29:09Z</time></trkpt><trkpt lat="45.80788863902504" lon="9.401741074580041"><ele>201.0</ele><time>2026-04-11T12:29:10Z</time></trkpt><trkpt lat="45.807981805352576" lon="9.40165234365781"><ele>201.0</ele><time>2026-04-11T12:29:11Z</time></trkpt><trkpt lat="45.808080330468854" lon="9.401565518316113"><ele>201.0</ele><time>2026-04-11T12:29:12Z</time></trkpt><trkpt lat="45.80818486941567" lon="9.401484633007675"><ele>201.0</ele><time>2026-04-11T12:29:13Z</time></trkpt><trkpt lat="45.808285333946" lon="9.401418940168636"><ele>201.0</ele><time>2026-04-11T12:29:14Z</time></trkpt><trkpt lat="45.80838261671883" lon="9.401357479154687"><ele>201.20000000000002</ele><time>2026-04-11T12:29:15Z</time></trkpt><trkpt lat="45.808480092375305" lon="9.401297959820358"><ele>201.4</ele><time>2026-04-11T12:29:16Z</time></trkpt><trkpt lat="45.808577851335976" lon="9.401241934500353"><ele>201.6</ele><time>2026-04-11T12:29:17Z</time></trkpt><trkpt lat="45.80867774889738" lon="9.401188488965756"><ele>201.8</ele><time>2026-04-11T12:29:18Z</time></trkpt><trkpt lat="45.808778711902825" lon="9.401136444511666"><ele>202.0</ele><time>2026-04-11T12:29:19Z</time></trkpt><trkpt lat="45.80888156734386" lon="9.401083061041014"><ele>201.99999999999997</ele><time>2026-04-11T12:29:20Z</time></trkpt><trkpt lat="45.80898361419456" lon="9.401030151927253"><ele>202.0</ele><time>2026-04-11T12:29:21Z</time></trkpt><trkpt lat="45.809070724361895" lon="9.400985749105592"><ele>202.0</ele><time>2026-04-11T12:29:22Z</time></trkpt><trkpt lat="45.80914657344132" lon="9.400946792276464"><ele>202.0</ele><time>2026-04-11T12:29:23Z</time></trkpt><trkpt lat="45.80921853601941" lon="9.400911046401676"><ele>201.99999999999997</ele><time>2026-04-11T12:29:24Z</time></trkpt><trkpt lat="45.80928674562083" lon="9.400877261529658"><ele>202.0</ele><time>2026-04-11T12:29:25Z</time></trkpt><trkpt lat="45.80934930200061" lon="9.400847801050734"><ele>201.99999999999997</ele><time>2026-04-11T12:29:26Z</time></trkpt><trkpt lat="45.80941158102457" lon="9.400816096527576"><ele>202.0</ele><time>2026-04-11T12:29:27Z</time></trkpt><trkpt lat="45.80947799987826" lon="9.400781799726612"><ele>202.0</ele><time>2026-04-11T12:29:28Z</time></trkpt><trkpt lat="45.80954946520782" lon="9.400744706662651"><ele>202.0</ele><time>2026-04-11T12:29:29Z</time></trkpt><trkpt lat="45.8096263684637" lon="9.40070576653384"><ele>201.99999999999997</ele><time>2026-04-11T12:29:30Z</time></trkpt><trkpt lat="45.80971099984805" lon="9.400662329876385"><ele>202.0</ele><time>2026-04-11T12:29:31Z</time></trkpt><trkpt lat="45.80980202522009" lon="9.400615631493768"><ele>202.0</ele><time>2026-04-11T12:29:32Z</time></trkpt><trkpt lat="45.8099000972888" lon="9.400567887987666"><ele>202.0</ele><time>2026-04-11T12:29:33Z</time></trkpt><trkpt lat="45.81000289219711" lon="9.40051596859581"><ele>202.0</ele><time>2026-04-11T12:29:34Z</time></trkpt><trkpt lat="45.81010984614519" lon="9.400462042990954"><ele>202.0</ele><time>2026-04-11T12:29:35Z</time></trkpt><trkpt lat="45.81021710855604" lon="9.40040921307226"><ele>202.0</ele><time>2026-04-11T12:29:36Z</time></trkpt><trkpt lat="45.81032706564427" lon="9.40035436348867"><ele>202.0</ele><time>2026-04-11T12:29:37Z</time></trkpt><trkpt lat="45.81044014378398" lon="9.400297038614887"><ele>202.0</ele><time>2026-04-11T12:29:38Z</time></trkpt><trkpt lat="45.81055446056606" lon="9.400238269457175"><ele>202.0</ele><time>2026-04-11T12:29:39Z</time></trkpt><trkpt lat="45.81066365410558" lon="9.400181770684583"><ele>202.0</ele><time>2026-04-11T12:29:40Z</time></trkpt><trkpt lat="45.810764874862855" lon="9.400129577312306"><ele>202.0</ele><time>2026-04-11T12:29:41Z</time></trkpt><trkpt lat="45.810858592895" lon="9.400080584848942"><ele>202.0</ele><time>2026-04-11T12:29:42Z</time></trkpt><trkpt lat="45.81094907785292" lon="9.400044148452453"><ele>202.0</ele><time>2026-04-11T12:29:43Z</time></trkpt><trkpt lat="45.81104036319568" lon="9.400018067554292"><ele>202.0</ele><time>2026-04-11T12:29:44Z</time></trkpt><trkpt lat="45.81113339760505" lon="9.399975817221623"><ele>202.0</ele><time>2026-04-11T12:29:45Z</time></trkpt><trkpt lat="45.811225934888505" lon="9.39992626316212"><ele>202.39999999999998</ele><time>2026-04-11T12:29:45.999Z</time></trkpt><trkpt lat="45.811319397052785" lon="9.399877557525075"><ele>202.79999999999998</ele><time>2026-04-11T12:29:46.999Z</time></trkpt><trkpt lat="45.81141448538706" lon="9.399823133515653"><ele>203.2</ele><time>2026-04-11T12:29:47.999Z</time></trkpt><trkpt lat="45.811511839633376" lon="9.39976448710206"><ele>203.6</ele><time>2026-04-11T12:29:48.999Z</time></trkpt><trkpt lat="45.81161297396006" lon="9.399711789312544"><ele>204.0</ele><time>2026-04-11T12:29:49.999Z</time></trkpt><trkpt lat="45.81171435914981" lon="9.399658925840875"><ele>204.39999999999998</ele><time>2026-04-11T12:29:50.999Z</time></trkpt><trkpt lat="45.81181516464563" lon="9.399606109121766"><ele>204.8</ele><time>2026-04-11T12:29:51.999Z</time></trkpt><trkpt lat="45.811915265468016" lon="9.399552736610332"><ele>205.2</ele><time>2026-04-11T12:29:52.999Z</time></trkpt><trkpt lat="45.812014156363276" lon="9.399502272501065"><ele>205.60000000000002</ele><time>2026-04-11T12:29:53.999Z</time></trkpt><trkpt lat="45.812109798460725" lon="9.399454438638138"><ele>206.0</ele><time>2026-04-11T12:29:54.999Z</time></trkpt><trkpt lat="45.812203584832446" lon="9.399408575383221"><ele>205.99999999999997</ele><time>2026-04-11T12:29:55.999Z</time></trkpt><trkpt lat="45.812290850973106" lon="9.399365852781196"><ele>206.0</ele><time>2026-04-11T12:29:56.999Z</time></trkpt><trkpt lat="45.81236684791631" lon="9.399332094099018"><ele>206.0</ele><time>2026-04-11T12:29:57.999Z</time></trkpt><trkpt lat="45.81243606293285" lon="9.399302812701283"><ele>206.0</ele><time>2026-04-11T12:29:58.999Z</time></trkpt><trkpt lat="45.812501100679114" lon="9.399282159801393"><ele>206.0</ele><time>2026-04-11T12:29:59.999Z</time></trkpt><trkpt lat="45.81256624561776" lon="9.399266794463824"><ele>205.99999999999997</ele><time>2026-04-11T12:30:00.999Z</time></trkpt><trkpt lat="45.81263342555456" lon="9.399252624467016"><ele>206.0</ele><time>2026-04-11T12:30:01.999Z</time></trkpt><trkpt lat="45.812699136411496" lon="9.399225313113545"><ele>206.0</ele><time>2026-04-11T12:30:02.999Z</time></trkpt><trkpt lat="45.81276240611705" lon="9.399170851663964"><ele>206.0</ele><time>2026-04-11T12:30:03.999Z</time></trkpt><trkpt lat="45.81282763911698" lon="9.399105854266608"><ele>206.0</ele><time>2026-04-11T12:30:04.999Z</time></trkpt><trkpt lat="45.812906087815335" lon="9.399050009270068"><ele>206.0</ele><time>2026-04-11T12:30:05.999Z</time></trkpt><trkpt lat="45.81300077573828" lon="9.398994875255552"><ele>206.0</ele><time>2026-04-11T12:30:07.001Z</time></trkpt><trkpt lat="45.81311627376186" lon="9.398969652709011"><ele>206.0</ele><time>2026-04-11T12:30:08.001Z</time></trkpt><trkpt lat="45.81323636164192" lon="9.398907608296001"><ele>206.0</ele><time>2026-04-11T12:30:09.001Z</time></trkpt><trkpt lat="45.81336853677035" lon="9.398838027175316"><ele>206.0</ele><time>2026-04-11T12:30:10.001Z</time></trkpt><trkpt lat="45.81350131786836" lon="9.3987459586805"><ele>206.0</ele><time>2026-04-11T12:30:11.001Z</time></trkpt><trkpt lat="45.81364569670198" lon="9.398680245796129"><ele>206.66666666666669</ele><time>2026-04-11T12:30:12.001Z</time></trkpt><trkpt lat="45.81379824395603" lon="9.398604743962194"><ele>207.33333333333331</ele><time>2026-04-11T12:30:13.001Z</time></trkpt><trkpt lat="45.81395847968567" lon="9.398523734559944"><ele>208.0</ele><time>2026-04-11T12:30:14.001Z</time></trkpt><trkpt lat="45.814128387965084" lon="9.39843949770813"><ele>208.0</ele><time>2026-04-11T12:30:15.001Z</time></trkpt><trkpt lat="45.81431109697496" lon="9.398348872888139"><ele>208.0</ele><time>2026-04-11T12:30:16.001Z</time></trkpt><trkpt lat="45.81449603469628" lon="9.39825667848048"><ele>208.0</ele><time>2026-04-11T12:30:17.001Z</time></trkpt><trkpt lat="45.81467902608159" lon="9.398162877984591"><ele>208.0</ele><time>2026-04-11T12:30:18.001Z</time></trkpt><trkpt lat="45.81486618968043" lon="9.398068165505371"><ele>208.0</ele><time>2026-04-11T12:30:19.001Z</time></trkpt><trkpt lat="45.81505500908123" lon="9.3979720838231"><ele>208.0</ele><time>2026-04-11T12:30:20.001Z</time></trkpt><trkpt lat="45.81524385571357" lon="9.397874690478627"><ele>207.33333333333331</ele><time>2026-04-11T12:30:21.001Z</time></trkpt><trkpt lat="45.815428738507634" lon="9.397778517535809"><ele>206.66666666666669</ele><time>2026-04-11T12:30:22Z</time></trkpt><trkpt lat="45.81560521214805" lon="9.397684936134409"><ele>206.0</ele><time>2026-04-11T12:30:23Z</time></trkpt><trkpt lat="45.81577638735888" lon="9.397593491691923"><ele>206.0</ele><time>2026-04-11T12:30:24Z</time></trkpt><trkpt lat="45.8159475605308" lon="9.397505826122266"><ele>206.0</ele><time>2026-04-11T12:30:25Z</time></trkpt><trkpt lat="45.816120368821" lon="9.397415222593914"><ele>206.0</ele><time>2026-04-11T12:30:26Z</time></trkpt><trkpt lat="45.81629476514913" lon="9.397321982079829"><ele>205.66666666666669</ele><time>2026-04-11T12:30:27Z</time></trkpt><trkpt lat="45.81648242491471" lon="9.397264023905903"><ele>205.33333333333331</ele><time>2026-04-11T12:30:28Z</time></trkpt><trkpt lat="45.81666312778762" lon="9.397173429103962"><ele>205.0</ele><time>2026-04-11T12:30:29Z</time></trkpt><trkpt lat="45.81684030473021" lon="9.397066930124426"><ele>204.0</ele><time>2026-04-11T12:30:30Z</time></trkpt><trkpt lat="45.8170257144808" lon="9.396982826328074"><ele>203.0</ele><time>2026-04-11T12:30:31Z</time></trkpt><trkpt lat="45.81721174698368" lon="9.396887867789676"><ele>202.0</ele><time>2026-04-11T12:30:32Z</time></trkpt><trkpt lat="45.81740198905871" lon="9.396790656477762"><ele>202.0</ele><time>2026-04-11T12:30:33Z</time></trkpt><trkpt lat="45.81759989061045" lon="9.396690667457177"><ele>202.0</ele><time>2026-04-11T12:30:34Z</time></trkpt><trkpt lat="45.817812870600946" lon="9.396582056394038"><ele>202.0</ele><time>2026-04-11T12:30:35Z</time></trkpt><trkpt lat="45.81803106269585" lon="9.396471442006174"><ele>203.0</ele><time>2026-04-11T12:30:36Z</time></trkpt><trkpt lat="45.81825114897894" lon="9.396357864472249"><ele>204.0</ele><time>2026-04-11T12:30:37Z</time></trkpt><trkpt lat="45.81846956795715" lon="9.396246517596317"><ele>204.0</ele><time>2026-04-11T12:30:38Z</time></trkpt><trkpt lat="45.81868283771115" lon="9.396139044576175"><ele>204.0</ele><time>2026-04-11T12:30:39Z</time></trkpt><trkpt lat="45.818896086537364" lon="9.396030818850521"><ele>204.0</ele><time>2026-04-11T12:30:40Z</time></trkpt><trkpt lat="45.81910653406193" lon="9.395922435136969"><ele>204.0</ele><time>2026-04-11T12:30:41Z</time></trkpt><trkpt lat="45.819316193708225" lon="9.395815473826422"><ele>204.0</ele><time>2026-04-11T12:30:42Z</time></trkpt><trkpt lat="45.819524566987056" lon="9.395707294587877"><ele>203.0</ele><time>2026-04-11T12:30:43Z</time></trkpt><trkpt lat="45.81973186062357" lon="9.395599941503018"><ele>202.0</ele><time>2026-04-11T12:30:44Z</time></trkpt><trkpt lat="45.81993901220077" lon="9.395492254753323"><ele>201.0</ele><time>2026-04-11T12:30:45Z</time></trkpt><trkpt lat="45.82014747858358" lon="9.395386298076714"><ele>202.0</ele><time>2026-04-11T12:30:46Z</time></trkpt><trkpt lat="45.82035634163297" lon="9.395281453429705"><ele>203.0</ele><time>2026-04-11T12:30:47Z</time></trkpt><trkpt lat="45.82056603142457" lon="9.395180403854685"><ele>204.0</ele><time>2026-04-11T12:30:48Z</time></trkpt><trkpt lat="45.820779939479124" lon="9.3950901879992"><ele>203.0</ele><time>2026-04-11T12:30:49Z</time></trkpt><trkpt lat="45.82100131380281" lon="9.39502309845346"><ele>202.0</ele><time>2026-04-11T12:30:50Z</time></trkpt><trkpt lat="45.82122773957592" lon="9.394972517221479"><ele>202.0</ele><time>2026-04-11T12:30:51Z</time></trkpt><trkpt lat="45.821456798617916" lon="9.394948631046159"><ele>202.0</ele><time>2026-04-11T12:30:52Z</time></trkpt><trkpt lat="45.821685984555934" lon="9.394947629314926"><ele>203.5</ele><time>2026-04-11T12:30:53Z</time></trkpt><trkpt lat="45.82191526046998" lon="9.394965759832035"><ele>205.0</ele><time>2026-04-11T12:30:54Z</time></trkpt><trkpt lat="45.822143612382405" lon="9.394997091985077"><ele>205.0</ele><time>2026-04-11T12:30:55Z</time></trkpt><trkpt lat="45.82236930447141" lon="9.395033742937223"><ele>205.0</ele><time>2026-04-11T12:30:56Z</time></trkpt><trkpt lat="45.82259451709274" lon="9.395066240748742"><ele>204.66666666666666</ele><time>2026-04-11T12:30:57Z</time></trkpt><trkpt lat="45.822819105917034" lon="9.395084303470576"><ele>204.33333333333331</ele><time>2026-04-11T12:30:58Z</time></trkpt><trkpt lat="45.823041217735764" lon="9.395081222404132"><ele>204.0</ele><time>2026-04-11T12:30:59Z</time></trkpt><trkpt lat="45.82325765727407" lon="9.39506880020092"><ele>204.0</ele><time>2026-04-11T12:31:00Z</time></trkpt><trkpt lat="45.82346199662748" lon="9.395063710146788"><ele>204.0</ele><time>2026-04-11T12:31:01Z</time></trkpt><trkpt lat="45.8236495253582" lon="9.395071689267539"><ele>204.0</ele><time>2026-04-11T12:31:02Z</time></trkpt><trkpt lat="45.823815164196" lon="9.39508813254902"><ele>204.25</ele><time>2026-04-11T12:31:03Z</time></trkpt><trkpt lat="45.82395352305398" lon="9.395110102199627"><ele>204.5</ele><time>2026-04-11T12:31:04Z</time></trkpt><trkpt lat="45.82407315934777" lon="9.395127924656045"><ele>204.75</ele><time>2026-04-11T12:31:05Z</time></trkpt><trkpt lat="45.82418302376821" lon="9.395144740044813"><ele>205.0</ele><time>2026-04-11T12:31:06Z</time></trkpt><trkpt lat="45.82429185799881" lon="9.395188862111315"><ele>205.0</ele><time>2026-04-11T12:31:07Z</time></trkpt><trkpt lat="45.8243996788573" lon="9.395214792559308"><ele>205.0</ele><time>2026-04-11T12:31:08Z</time></trkpt><trkpt lat="45.82450061649598" lon="9.395233178675502"><ele>205.0</ele><time>2026-04-11T12:31:09Z</time></trkpt><trkpt lat="45.82460499201119" lon="9.395252191015695"><ele>205.0</ele><time>2026-04-11T12:31:10Z</time></trkpt><trkpt lat="45.8247111410769" lon="9.39527152641119"><ele>205.0</ele><time>2026-04-11T12:31:11Z</time></trkpt><trkpt lat="45.8248197628314" lon="9.395291314269366"><ele>205.0</ele><time>2026-04-11T12:31:12Z</time></trkpt><trkpt lat="45.82492980125256" lon="9.395311358124342"><ele>205.0</ele><time>2026-04-11T12:31:13Z</time></trkpt><trkpt lat="45.825041400474284" lon="9.39533168630088"><ele>205.0</ele><time>2026-04-11T12:31:14Z</time></trkpt><trkpt lat="45.82514845075482" lon="9.395351185842403"><ele>205.0</ele><time>2026-04-11T12:31:15Z</time></trkpt><trkpt lat="45.8252513753292" lon="9.395369933896097"><ele>205.0</ele><time>2026-04-11T12:31:16Z</time></trkpt><trkpt lat="45.82534565058437" lon="9.395387106439536"><ele>205.2857142857143</ele><time>2026-04-11T12:31:17Z</time></trkpt><trkpt lat="45.825432926972084" lon="9.39540301991511"><ele>205.57142857142856</ele><time>2026-04-11T12:31:18Z</time></trkpt><trkpt lat="45.82550938813028" lon="9.395417318311194"><ele>205.85714285714286</ele><time>2026-04-11T12:31:19Z</time></trkpt><trkpt lat="45.82558035053191" lon="9.395430588437122"><ele>206.14285714285717</ele><time>2026-04-11T12:31:20Z</time></trkpt><trkpt lat="45.82564706366442" lon="9.395443063936144"><ele>206.42857142857144</ele><time>2026-04-11T12:31:21Z</time></trkpt><trkpt lat="45.82571490828379" lon="9.395455751025507"><ele>206.71428571428572</ele><time>2026-04-11T12:31:22Z</time></trkpt><trkpt lat="45.82578837732926" lon="9.395469489892443"><ele>207.0</ele><time>2026-04-11T12:31:23Z</time></trkpt><trkpt lat="45.825873453352834" lon="9.395485399296273"><ele>207.0</ele><time>2026-04-11T12:31:24Z</time></trkpt><trkpt lat="45.8259664976911" lon="9.395502798796803"><ele>207.0</ele><time>2026-04-11T12:31:25Z</time></trkpt><trkpt lat="45.82606750367861" lon="9.395521618220615"><ele>207.0</ele><time>2026-04-11T12:31:26Z</time></trkpt><trkpt lat="45.82617899020825" lon="9.395542442095673"><ele>207.0</ele><time>2026-04-11T12:31:27Z</time></trkpt><trkpt lat="45.826295702585206" lon="9.395540960278113"><ele>207.0</ele><time>2026-04-11T12:31:28Z</time></trkpt><trkpt lat="45.82641491975861" lon="9.395567998914386"><ele>206.5</ele><time>2026-04-11T12:31:29Z</time></trkpt><trkpt lat="45.82654179788234" lon="9.395593254242897"><ele>206.0</ele><time>2026-04-11T12:31:30Z</time></trkpt><trkpt lat="45.826676230953645" lon="9.395618701597542"><ele>205.5</ele><time>2026-04-11T12:31:31Z</time></trkpt><trkpt lat="45.82681452169867" lon="9.395645335112848"><ele>205.0</ele><time>2026-04-11T12:31:32Z</time></trkpt><trkpt lat="45.82695806996344" lon="9.395673298992456"><ele>204.66666666666666</ele><time>2026-04-11T12:31:33Z</time></trkpt><trkpt lat="45.827107962580286" lon="9.39569997827201"><ele>204.33333333333331</ele><time>2026-04-11T12:31:34Z</time></trkpt><trkpt lat="45.82726348118212" lon="9.395728970755492"><ele>204.0</ele><time>2026-04-11T12:31:35Z</time></trkpt><trkpt lat="45.827420491988" lon="9.395761440648007"><ele>204.0</ele><time>2026-04-11T12:31:36Z</time></trkpt><trkpt lat="45.82757868273033" lon="9.395791431236832"><ele>204.0</ele><time>2026-04-11T12:31:37Z</time></trkpt><trkpt lat="45.827737178427725" lon="9.39582377605554"><ele>204.0</ele><time>2026-04-11T12:31:38Z</time></trkpt><trkpt lat="45.82789760751061" lon="9.395854999349856"><ele>204.33333333333331</ele><time>2026-04-11T12:31:39Z</time></trkpt><trkpt lat="45.828056723819884" lon="9.395885515667938"><ele>204.66666666666666</ele><time>2026-04-11T12:31:40Z</time></trkpt><trkpt lat="45.828222137234626" lon="9.395900687575097"><ele>205.0</ele><time>2026-04-11T12:31:41Z</time></trkpt><trkpt lat="45.828388796834794" lon="9.395911093901555"><ele>205.0</ele><time>2026-04-11T12:31:42Z</time></trkpt><trkpt lat="45.82855812864395" lon="9.395916987799078"><ele>205.0</ele><time>2026-04-11T12:31:43Z</time></trkpt><trkpt lat="45.8287303594026" lon="9.395918372538453"><ele>205.0</ele><time>2026-04-11T12:31:43.999Z</time></trkpt><trkpt lat="45.828904221736956" lon="9.395910302671"><ele>205.0</ele><time>2026-04-11T12:31:44.999Z</time></trkpt><trkpt lat="45.82907832189075" lon="9.395892533994942"><ele>205.0</ele><time>2026-04-11T12:31:45.999Z</time></trkpt><trkpt lat="45.82925292063964" lon="9.395863302199782"><ele>205.0</ele><time>2026-04-11T12:31:46.999Z</time></trkpt><trkpt lat="45.829428467115136" lon="9.395828396084429"><ele>204.66666666666666</ele><time>2026-04-11T12:31:47.999Z</time></trkpt><trkpt lat="45.8296043388399" lon="9.395791238431242"><ele>204.33333333333331</ele><time>2026-04-11T12:31:48.999Z</time></trkpt><trkpt lat="45.829780836152445" lon="9.395754657052297"><ele>204.0</ele><time>2026-04-11T12:31:49.999Z</time></trkpt><trkpt lat="45.82995756733483" lon="9.3957174511837"><ele>204.0</ele><time>2026-04-11T12:31:50.999Z</time></trkpt><trkpt lat="45.83013603055445" lon="9.39567972131272"><ele>204.0</ele><time>2026-04-11T12:31:51.999Z</time></trkpt><trkpt lat="45.83031424429788" lon="9.39564478657549"><ele>204.0</ele><time>2026-04-11T12:31:52.999Z</time></trkpt><trkpt lat="45.83049403338736" lon="9.395609968975462"><ele>203.33333333333331</ele><time>2026-04-11T12:31:53.999Z</time></trkpt><trkpt lat="45.83067561502918" lon="9.395574939735651"><ele>202.66666666666666</ele><time>2026-04-11T12:31:54.999Z</time></trkpt><trkpt lat="45.83085891659629" lon="9.395540664818508"><ele>202.0</ele><time>2026-04-11T12:31:55.999Z</time></trkpt><trkpt lat="45.83104147678175" lon="9.395506328039614"><ele>204.0</ele><time>2026-04-11T12:31:56.999Z</time></trkpt><trkpt lat="45.831223772916914" lon="9.3954745449406"><ele>206.0</ele><time>2026-04-11T12:31:57.999Z</time></trkpt><trkpt lat="45.83140564676296" lon="9.395441893527021"><ele>208.0</ele><time>2026-04-11T12:31:58.999Z</time></trkpt><trkpt lat="45.83158719848261" lon="9.39540723249022"><ele>208.0</ele><time>2026-04-11T12:31:59.999Z</time></trkpt><trkpt lat="45.831765338616485" lon="9.395371500321962"><ele>208.0</ele><time>2026-04-11T12:32:00.999Z</time></trkpt><trkpt lat="45.83193828050276" lon="9.395328591174225"><ele>208.0</ele><time>2026-04-11T12:32:01.999Z</time></trkpt><trkpt lat="45.83210598796321" lon="9.395277499734556"><ele>207.66666666666666</ele><time>2026-04-11T12:32:02.999Z</time></trkpt><trkpt lat="45.832268596893854" lon="9.395218682124607"><ele>207.33333333333331</ele><time>2026-04-11T12:32:03.999Z</time></trkpt><trkpt lat="45.83242406133701" lon="9.395147936446085"><ele>207.0</ele><time>2026-04-11T12:32:04.999Z</time></trkpt><trkpt lat="45.832570114678596" lon="9.395069523552042"><ele>205.75</ele><time>2026-04-11T12:32:05.999Z</time></trkpt><trkpt lat="45.832703745928065" lon="9.394983444404522"><ele>204.5</ele><time>2026-04-11T12:32:06.999Z</time></trkpt><trkpt lat="45.83282742707513" lon="9.394891679744092"><ele>203.25</ele><time>2026-04-11T12:32:07.999Z</time></trkpt><trkpt lat="45.8329508997971" lon="9.394816785923926"><ele>202.0</ele><time>2026-04-11T12:32:08.999Z</time></trkpt><trkpt lat="45.83304712366653" lon="9.394697068696544"><ele>202.6</ele><time>2026-04-11T12:32:09.999Z</time></trkpt><trkpt lat="45.83314582464805" lon="9.394603247334596"><ele>203.2</ele><time>2026-04-11T12:32:10.999Z</time></trkpt><trkpt lat="45.83323728477499" lon="9.394513569940411"><ele>203.8</ele><time>2026-04-11T12:32:12Z</time></trkpt><trkpt lat="45.833319657455874" lon="9.394426709012029"><ele>204.4</ele><time>2026-04-11T12:32:13Z</time></trkpt><trkpt lat="45.8333951923241" lon="9.394343513369977"><ele>205.0</ele><time>2026-04-11T12:32:14Z</time></trkpt><trkpt lat="45.833465643262066" lon="9.394268150580604"><ele>204.57142857142858</ele><time>2026-04-11T12:32:15Z</time></trkpt><trkpt lat="45.8335317012697" lon="9.394203497428963"><ele>204.14285714285714</ele><time>2026-04-11T12:32:16Z</time></trkpt><trkpt lat="45.833586280974714" lon="9.394152277122416"><ele>203.71428571428572</ele><time>2026-04-11T12:32:17Z</time></trkpt><trkpt lat="45.83364978366598" lon="9.394100118956866"><ele>203.28571428571428</ele><time>2026-04-11T12:32:19Z</time></trkpt><trkpt lat="45.83372417526161" lon="9.394058139714579"><ele>202.85714285714283</ele><time>2026-04-11T12:32:21Z</time></trkpt><trkpt lat="45.833784168552405" lon="9.394017036301756"><ele>202.42857142857142</ele><time>2026-04-11T12:32:22Z</time></trkpt><trkpt lat="45.833845506160216" lon="9.393942000152547"><ele>202.0</ele><time>2026-04-11T12:32:23Z</time></trkpt><trkpt lat="45.8339353809406" lon="9.3938911862636"><ele>202.0</ele><time>2026-04-11T12:32:24Z</time></trkpt><trkpt lat="45.8340489681288" lon="9.393865904109719"><ele>202.0</ele><time>2026-04-11T12:32:25Z</time></trkpt><trkpt lat="45.83416752885008" lon="9.393849492864307"><ele>202.0</ele><time>2026-04-11T12:32:26Z</time></trkpt><trkpt lat="45.834293139002575" lon="9.39382745026214"><ele>202.0</ele><time>2026-04-11T12:32:27Z</time></trkpt><trkpt lat="45.83442284236198" lon="9.39380354244021"><ele>204.0</ele><time>2026-04-11T12:32:28Z</time></trkpt><trkpt lat="45.83455050129227" lon="9.393779587063857"><ele>206.0</ele><time>2026-04-11T12:32:29Z</time></trkpt><trkpt lat="45.83468047183285" lon="9.393757769336867"><ele>208.0</ele><time>2026-04-11T12:32:30Z</time></trkpt><trkpt lat="45.83481143906175" lon="9.393732929888653"><ele>210.0</ele><time>2026-04-11T12:32:31Z</time></trkpt><trkpt lat="45.834944133316384" lon="9.393714426236526"><ele>210.0</ele><time>2026-04-11T12:32:32Z</time></trkpt><trkpt lat="45.83507988983307" lon="9.393703930374036"><ele>210.0</ele><time>2026-04-11T12:32:33Z</time></trkpt><trkpt lat="45.83521704521154" lon="9.393704848498283"><ele>210.0</ele><time>2026-04-11T12:32:34Z</time></trkpt><trkpt lat="45.83534985123402" lon="9.39372400896302"><ele>210.0</ele><time>2026-04-11T12:32:35Z</time></trkpt><trkpt lat="45.83547161439308" lon="9.393765236895534"><ele>210.2</ele><time>2026-04-11T12:32:36Z</time></trkpt><trkpt lat="45.83557799721777" lon="9.393834058619962"><ele>210.4</ele><time>2026-04-11T12:32:37Z</time></trkpt><trkpt lat="45.83566362309511" lon="9.393931331467474"><ele>210.60000000000002</ele><time>2026-04-11T12:32:38Z</time></trkpt><trkpt lat="45.835737084462494" lon="9.394038218747667"><ele>210.8</ele><time>2026-04-11T12:32:39Z</time></trkpt><trkpt lat="45.8358120223258" lon="9.394128424584068"><ele>211.0</ele><time>2026-04-11T12:32:40Z</time></trkpt><trkpt lat="45.83589399843309" lon="9.394167640127355"><ele>210.4</ele><time>2026-04-11T12:32:41Z</time></trkpt><trkpt lat="45.835980771897034" lon="9.394153405151545"><ele>209.8</ele><time>2026-04-11T12:32:42Z</time></trkpt><trkpt lat="45.83607070873842" lon="9.394142255844946"><ele>209.20000000000002</ele><time>2026-04-11T12:32:43Z</time></trkpt><trkpt lat="45.83614836139847" lon="9.394212243956087"><ele>208.60000000000002</ele><time>2026-04-11T12:32:44Z</time></trkpt><trkpt lat="45.8362344916127" lon="9.394296865826409"><ele>208.0</ele><time>2026-04-11T12:32:45Z</time></trkpt><trkpt lat="45.8363284062428" lon="9.394392371619297"><ele>208.0</ele><time>2026-04-11T12:32:46Z</time></trkpt><trkpt lat="45.83643758878072" lon="9.394503403446093"><ele>208.0</ele><time>2026-04-11T12:32:47Z</time></trkpt><trkpt lat="45.83655201529465" lon="9.39462195271251"><ele>208.0</ele><time>2026-04-11T12:32:48Z</time></trkpt><trkpt lat="45.83666729360167" lon="9.394740184411596"><ele>208.0</ele><time>2026-04-11T12:32:49Z</time></trkpt><trkpt lat="45.83679323708328" lon="9.394846338968488"><ele>207.75</ele><time>2026-04-11T12:32:50Z</time></trkpt><trkpt lat="45.836912320890434" lon="9.394973014441122"><ele>207.5</ele><time>2026-04-11T12:32:51Z</time></trkpt><trkpt lat="45.83703643772029" lon="9.395092379533956"><ele>207.25</ele><time>2026-04-11T12:32:52Z</time></trkpt><trkpt lat="45.837168565740626" lon="9.395191976166855"><ele>207.0</ele><time>2026-04-11T12:32:53Z</time></trkpt><trkpt lat="45.837308070407644" lon="9.395266879490501"><ele>207.0</ele><time>2026-04-11T12:32:54Z</time></trkpt><trkpt lat="45.83745087422309" lon="9.395320931595448"><ele>207.0</ele><time>2026-04-11T12:32:55Z</time></trkpt><trkpt lat="45.837594794014315" lon="9.395348467762092"><ele>207.0</ele><time>2026-04-11T12:32:56Z</time></trkpt><trkpt lat="45.8377375792947" lon="9.395356523047118"><ele>207.0</ele><time>2026-04-11T12:32:57Z</time></trkpt><trkpt lat="45.83787673897629" lon="9.395349704798898"><ele>207.25</ele><time>2026-04-11T12:32:58Z</time></trkpt><trkpt lat="45.838010825651594" lon="9.39534216597129"><ele>207.5</ele><time>2026-04-11T12:32:59Z</time></trkpt><trkpt lat="45.83813861787996" lon="9.395336239043658"><ele>207.75</ele><time>2026-04-11T12:33:00Z</time></trkpt><trkpt lat="45.83825779733177" lon="9.39533176167403"><ele>208.0</ele><time>2026-04-11T12:33:01Z</time></trkpt><trkpt lat="45.83837099164943" lon="9.395328088330745"><ele>207.60000000000002</ele><time>2026-04-11T12:33:02Z</time></trkpt><trkpt lat="45.83848369292107" lon="9.395323849151726"><ele>207.20000000000002</ele><time>2026-04-11T12:33:03Z</time></trkpt><trkpt lat="45.83859622671031" lon="9.395317085334028"><ele>206.8</ele><time>2026-04-11T12:33:04Z</time></trkpt><trkpt lat="45.83870058498923" lon="9.395314289834335"><ele>206.4</ele><time>2026-04-11T12:33:05Z</time></trkpt><trkpt lat="45.83878640920471" lon="9.395312554121551"><ele>206.0</ele><time>2026-04-11T12:33:06Z</time></trkpt><trkpt lat="45.83885804251044" lon="9.395306927314392"><ele>206.0</ele><time>2026-04-11T12:33:07Z</time></trkpt><trkpt lat="45.83896271354091" lon="9.395300025445849"><ele>206.0</ele><time>2026-04-11T12:33:09Z</time></trkpt><trkpt lat="45.83907842044703" lon="9.395284865664287"><ele>206.0</ele><time>2026-04-11T12:33:11Z</time></trkpt><trkpt lat="45.83918615590227" lon="9.395303551604394"><ele>206.0</ele><time>2026-04-11T12:33:12Z</time></trkpt><trkpt lat="45.83935711152428" lon="9.395296160971862"><ele>205.66666666666669</ele><time>2026-04-11T12:33:13Z</time></trkpt><trkpt lat="45.83954884750785" lon="9.395261384493482"><ele>205.33333333333331</ele><time>2026-04-11T12:33:14Z</time></trkpt><trkpt lat="45.839745797004305" lon="9.39525549500484"><ele>205.0</ele><time>2026-04-11T12:33:15Z</time></trkpt><trkpt lat="45.83993865154887" lon="9.395251303608344"><ele>205.0</ele><time>2026-04-11T12:33:16Z</time></trkpt><trkpt lat="45.840126779503585" lon="9.395250141015877"><ele>205.0</ele><time>2026-04-11T12:33:17Z</time></trkpt><trkpt lat="45.840306801660425" lon="9.395265408949799"><ele>205.0</ele><time>2026-04-11T12:33:18Z</time></trkpt><trkpt lat="45.84048147235822" lon="9.395303855526524"><ele>205.0</ele><time>2026-04-11T12:33:19Z</time></trkpt><trkpt lat="45.840647288985515" lon="9.395368858436983"><ele>205.0</ele><time>2026-04-11T12:33:20Z</time></trkpt><trkpt lat="45.840804314212754" lon="9.395455385171847"><ele>205.0</ele><time>2026-04-11T12:33:21Z</time></trkpt><trkpt lat="45.84095535908654" lon="9.395554495807362"><ele>206.33333333333331</ele><time>2026-04-11T12:33:22Z</time></trkpt><trkpt lat="45.841104396006465" lon="9.395660212659797"><ele>207.66666666666669</ele><time>2026-04-11T12:33:23Z</time></trkpt><trkpt lat="45.84125069720384" lon="9.395779152296686"><ele>209.0</ele><time>2026-04-11T12:33:24Z</time></trkpt><trkpt lat="45.84139175906118" lon="9.395900333171946"><ele>209.0</ele><time>2026-04-11T12:33:25Z</time></trkpt><trkpt lat="45.84153301529928" lon="9.39601927327"><ele>209.0</ele><time>2026-04-11T12:33:26Z</time></trkpt><trkpt lat="45.84167470292324" lon="9.396137185186344"><ele>209.0</ele><time>2026-04-11T12:33:27Z</time></trkpt><trkpt lat="45.841815876882094" lon="9.396258096155664"><ele>209.33333333333334</ele><time>2026-04-11T12:33:28Z</time></trkpt><trkpt lat="45.84195700676894" lon="9.396377926098294"><ele>209.66666666666669</ele><time>2026-04-11T12:33:29Z</time></trkpt><trkpt lat="45.84209995154747" lon="9.396495448664702"><ele>210.0</ele><time>2026-04-11T12:33:30Z</time></trkpt><trkpt lat="45.8422438302697" lon="9.396613365205088"><ele>210.0</ele><time>2026-04-11T12:33:31Z</time></trkpt><trkpt lat="45.84238705251052" lon="9.396730679161015"><ele>210.0</ele><time>2026-04-11T12:33:32Z</time></trkpt><trkpt lat="45.84252911173405" lon="9.396845698634925"><ele>210.0</ele><time>2026-04-11T12:33:33Z</time></trkpt><trkpt lat="45.842675806096985" lon="9.39694194900549"><ele>209.33333333333331</ele><time>2026-04-11T12:33:34Z</time></trkpt><trkpt lat="45.84282985196945" lon="9.397009212244887"><ele>208.66666666666666</ele><time>2026-04-11T12:33:35Z</time></trkpt><trkpt lat="45.842991169852425" lon="9.397029147959227"><ele>208.0</ele><time>2026-04-11T12:33:36Z</time></trkpt><trkpt lat="45.8431510024393" lon="9.39699225092229"><ele>208.0</ele><time>2026-04-11T12:33:37Z</time></trkpt><trkpt lat="45.84330286668771" lon="9.396913194032114"><ele>208.0</ele><time>2026-04-11T12:33:37.999Z</time></trkpt><trkpt lat="45.84343965271336" lon="9.396807245944945"><ele>208.0</ele><time>2026-04-11T12:33:38.999Z</time></trkpt><trkpt lat="45.843576349183735" lon="9.396700746108287"><ele>205.33333333333331</ele><time>2026-04-11T12:33:39.999Z</time></trkpt><trkpt lat="45.843713433450404" lon="9.396598316228648"><ele>202.66666666666669</ele><time>2026-04-11T12:33:40.999Z</time></trkpt><trkpt lat="45.84384927679871" lon="9.396490818534199"><ele>200.0</ele><time>2026-04-11T12:33:41.999Z</time></trkpt><trkpt lat="45.84398158682604" lon="9.3963724451402"><ele>199.66666666666669</ele><time>2026-04-11T12:33:42.999Z</time></trkpt><trkpt lat="45.84412014688832" lon="9.396255116769613"><ele>199.33333333333331</ele><time>2026-04-11T12:33:43.999Z</time></trkpt><trkpt lat="45.84426159185344" lon="9.396144271206962"><ele>199.0</ele><time>2026-04-11T12:33:44.999Z</time></trkpt><trkpt lat="45.84441619655221" lon="9.396066603028546"><ele>199.0</ele><time>2026-04-11T12:33:45.999Z</time></trkpt><trkpt lat="45.844557590437475" lon="9.395955032021986"><ele>199.0</ele><time>2026-04-11T12:33:46.999Z</time></trkpt><trkpt lat="45.84469780755922" lon="9.395844389754854"><ele>199.0</ele><time>2026-04-11T12:33:47.999Z</time></trkpt><trkpt lat="45.844834720846194" lon="9.39573262632376"><ele>199.0</ele><time>2026-04-11T12:33:48.999Z</time></trkpt><trkpt lat="45.8449557020679" lon="9.395596869496547"><ele>199.0</ele><time>2026-04-11T12:33:49.999Z</time></trkpt><trkpt lat="45.84507292530947" lon="9.395468477674111"><ele>199.0</ele><time>2026-04-11T12:33:50.999Z</time></trkpt><trkpt lat="45.845177852588414" lon="9.395325050611719"><ele>199.0</ele><time>2026-04-11T12:33:51.999Z</time></trkpt><trkpt lat="45.84527543969129" lon="9.39517800296926"><ele>199.0</ele><time>2026-04-11T12:33:52.999Z</time></trkpt><trkpt lat="45.84536353333893" lon="9.395027779774589"><ele>199.0</ele><time>2026-04-11T12:33:53.999Z</time></trkpt><trkpt lat="45.845443062236384" lon="9.394873160370922"><ele>199.0</ele><time>2026-04-11T12:33:54.999Z</time></trkpt><trkpt lat="45.845518933254176" lon="9.394716494749693"><ele>199.0</ele><time>2026-04-11T12:33:55.999Z</time></trkpt><trkpt lat="45.84559463079869" lon="9.394564258200562"><ele>199.75</ele><time>2026-04-11T12:33:56.999Z</time></trkpt><trkpt lat="45.845669473503314" lon="9.394416230144982"><ele>200.5</ele><time>2026-04-11T12:33:57.999Z</time></trkpt><trkpt lat="45.845741850576665" lon="9.39426976480975"><ele>201.25</ele><time>2026-04-11T12:33:58.999Z</time></trkpt><trkpt lat="45.845813660441046" lon="9.394124807281534"><ele>202.0</ele><time>2026-04-11T12:33:59.999Z</time></trkpt><trkpt lat="45.84588453363376" lon="9.393980284597703"><ele>202.0</ele><time>2026-04-11T12:34:00.999Z</time></trkpt><trkpt lat="45.845956591849" lon="9.393839922557472"><ele>202.0</ele><time>2026-04-11T12:34:01.999Z</time></trkpt><trkpt lat="45.84602694557239" lon="9.393701759535476"><ele>202.0</ele><time>2026-04-11T12:34:02.999Z</time></trkpt><trkpt lat="45.846097147931744" lon="9.393565641300743"><ele>202.0</ele><time>2026-04-11T12:34:03.999Z</time></trkpt><trkpt lat="45.84616881487611" lon="9.393428428401178"><ele>202.0</ele><time>2026-04-11T12:34:04.999Z</time></trkpt><trkpt lat="45.84623959283198" lon="9.393289745601997"><ele>202.0</ele><time>2026-04-11T12:34:05.999Z</time></trkpt><trkpt lat="45.84630714191446" lon="9.393155538187925"><ele>202.0</ele><time>2026-04-11T12:34:06.999Z</time></trkpt><trkpt lat="45.846371193268475" lon="9.393028268438757"><ele>202.0</ele><time>2026-04-11T12:34:07.999Z</time></trkpt><trkpt lat="45.84643974008916" lon="9.392886589726265"><ele>202.0</ele><time>2026-04-11T12:34:08.999Z</time></trkpt><trkpt lat="45.84650566571204" lon="9.392747474033328"><ele>202.0</ele><time>2026-04-11T12:34:09.999Z</time></trkpt><trkpt lat="45.84656793643554" lon="9.392624963323149"><ele>202.0</ele><time>2026-04-11T12:34:10.999Z</time></trkpt><trkpt lat="45.84662714317601" lon="9.39251450090234"><ele>202.0</ele><time>2026-04-11T12:34:11.999Z</time></trkpt><trkpt lat="45.84668214335727" lon="9.392413641117262"><ele>202.0</ele><time>2026-04-11T12:34:12.999Z</time></trkpt><trkpt lat="45.846732429979504" lon="9.392323956295733"><ele>202.0</ele><time>2026-04-11T12:34:13.999Z</time></trkpt><trkpt lat="45.846774006805916" lon="9.392244862688107"><ele>202.0</ele><time>2026-04-11T12:34:14.999Z</time></trkpt><trkpt lat="45.846814839824496" lon="9.392172918763588"><ele>202.0</ele><time>2026-04-11T12:34:15.999Z</time></trkpt><trkpt lat="45.8468580818813" lon="9.392090434876419"><ele>202.0</ele><time>2026-04-11T12:34:16.999Z</time></trkpt><trkpt lat="45.84689729859838" lon="9.391994308905735"><ele>202.0</ele><time>2026-04-11T12:34:18Z</time></trkpt><trkpt lat="45.84693674915021" lon="9.391892200146517"><ele>202.0</ele><time>2026-04-11T12:34:19Z</time></trkpt><trkpt lat="45.846976791593974" lon="9.391795271874507"><ele>202.0</ele><time>2026-04-11T12:34:20Z</time></trkpt><trkpt lat="45.847019451313294" lon="9.391703268051607"><ele>201.99999999999997</ele><time>2026-04-11T12:34:21Z</time></trkpt><trkpt lat="45.84706324779902" lon="9.391608804297135"><ele>202.0</ele><time>2026-04-11T12:34:22Z</time></trkpt><trkpt lat="45.847106913451356" lon="9.391504417243866"><ele>202.0</ele><time>2026-04-11T12:34:23Z</time></trkpt><trkpt lat="45.84715279657883" lon="9.391394226416095"><ele>202.0</ele><time>2026-04-11T12:34:24Z</time></trkpt><trkpt lat="45.847197250731746" lon="9.391289689148584"><ele>201.99999999999997</ele><time>2026-04-11T12:34:25Z</time></trkpt><trkpt lat="45.847244514781444" lon="9.391175332657404"><ele>202.0</ele><time>2026-04-11T12:34:26Z</time></trkpt><trkpt lat="45.84729276439591" lon="9.39105612436509"><ele>201.99999999999997</ele><time>2026-04-11T12:34:27Z</time></trkpt><trkpt lat="45.84734406683378" lon="9.390934688407073"><ele>202.0</ele><time>2026-04-11T12:34:28Z</time></trkpt><trkpt lat="45.84739410488193" lon="9.39081521169643"><ele>202.0</ele><time>2026-04-11T12:34:29Z</time></trkpt><trkpt lat="45.847440193459285" lon="9.390702616298979"><ele>202.0</ele><time>2026-04-11T12:34:30Z</time></trkpt><trkpt lat="45.84748323328847" lon="9.390600143818071"><ele>201.99999999999997</ele><time>2026-04-11T12:34:31Z</time></trkpt><trkpt lat="45.84752090064457" lon="9.39050863521579"><ele>202.0</ele><time>2026-04-11T12:34:32Z</time></trkpt><trkpt lat="45.84755672690362" lon="9.39042224984921"><ele>202.6</ele><time>2026-04-11T12:34:33Z</time></trkpt><trkpt lat="45.84758974738931" lon="9.390343478776893"><ele>203.2</ele><time>2026-04-11T12:34:34Z</time></trkpt><trkpt lat="45.84764771407728" lon="9.39019723229807"><ele>203.8</ele><time>2026-04-11T12:34:36Z</time></trkpt><trkpt lat="45.8476990600012" lon="9.390056969392068"><ele>204.4</ele><time>2026-04-11T12:34:38Z</time></trkpt><trkpt lat="45.84776003314414" lon="9.389896431967225"><ele>205.0</ele><time>2026-04-11T12:34:40Z</time></trkpt><trkpt lat="45.84778934454766" lon="9.38981547977557"><ele>203.6</ele><time>2026-04-11T12:34:41Z</time></trkpt><trkpt lat="45.847835047058396" lon="9.389651289966245"><ele>202.2</ele><time>2026-04-11T12:34:43Z</time></trkpt><trkpt lat="45.84787733744776" lon="9.389484600454093"><ele>200.8</ele><time>2026-04-11T12:34:45Z</time></trkpt><trkpt lat="45.8479060991762" lon="9.389334779314767"><ele>199.4</ele><time>2026-04-11T12:34:47Z</time></trkpt><trkpt lat="45.847917895218586" lon="9.38924425957989"><ele>198.0</ele><time>2026-04-11T12:34:49Z</time></trkpt><trkpt lat="45.847937867234116" lon="9.38910454528741"><ele>198.0</ele><time>2026-04-11T12:34:52Z</time></trkpt><trkpt lat="45.84795273499561" lon="9.388993904303925"><ele>198.0</ele><time>2026-04-11T12:34:54Z</time></trkpt><trkpt lat="45.847990169729314" lon="9.388834425485982"><ele>198.0</ele><time>2026-04-11T12:34:56Z</time></trkpt><trkpt lat="45.84800013171167" lon="9.388742883629135"><ele>198.0</ele><time>2026-04-11T12:34:57Z</time></trkpt><trkpt lat="45.847999946039614" lon="9.388557760905309"><ele>198.0</ele><time>2026-04-11T12:34:59Z</time></trkpt><trkpt lat="45.847998810747036" lon="9.388444051806808"><ele>198.2</ele><time>2026-04-11T12:35:00Z</time></trkpt><trkpt lat="45.84800064529121" lon="9.388327260461482"><ele>198.4</ele><time>2026-04-11T12:35:01Z</time></trkpt><trkpt lat="45.847992900874715" lon="9.388222311007947"><ele>198.6</ele><time>2026-04-11T12:35:02Z</time></trkpt><trkpt lat="45.84798152101275" lon="9.388045721572034"><ele>198.79999999999998</ele><time>2026-04-11T12:35:04Z</time></trkpt><trkpt lat="45.847960960578426" lon="9.387912321644892"><ele>199.0</ele><time>2026-04-11T12:35:06Z</time></trkpt><trkpt lat="45.847939703110136" lon="9.387780447214789"><ele>199.16666666666666</ele><time>2026-04-11T12:35:08Z</time></trkpt><trkpt lat="45.84795991948977" lon="9.387645513834634"><ele>199.33333333333331</ele><time>2026-04-11T12:35:10Z</time></trkpt><trkpt lat="45.8479863140423" lon="9.387551632850451"><ele>199.5</ele><time>2026-04-11T12:35:12Z</time></trkpt><trkpt lat="45.848029368357054" lon="9.387444625685545"><ele>199.66666666666669</ele><time>2026-04-11T12:35:27Z</time></trkpt><trkpt lat="45.848115243076634" lon="9.38735142627905"><ele>199.83333333333334</ele><time>2026-04-11T12:35:29Z</time></trkpt><trkpt lat="45.84815179104788" lon="9.387264588419207"><ele>200.0</ele><time>2026-04-11T12:35:30Z</time></trkpt><trkpt lat="45.84815531752114" lon="9.38715671743732"><ele>200.6</ele><time>2026-04-11T12:35:31Z</time></trkpt><trkpt lat="45.84813897201399" lon="9.387040232470875"><ele>201.2</ele><time>2026-04-11T12:35:32Z</time></trkpt><trkpt lat="45.848123384953205" lon="9.386938470330387"><ele>201.8</ele><time>2026-04-11T12:35:33Z</time></trkpt><trkpt lat="45.84814799854352" lon="9.386760975348357"><ele>202.4</ele><time>2026-04-11T12:35:35Z</time></trkpt><trkpt lat="45.848205652248794" lon="9.386628057363058"><ele>203.0</ele><time>2026-04-11T12:35:36Z</time></trkpt><trkpt lat="45.848269704121336" lon="9.386509609845662"><ele>203.00000000000003</ele><time>2026-04-11T12:35:37Z</time></trkpt><trkpt lat="45.848311666416535" lon="9.386430975306599"><ele>203.0</ele><time>2026-04-11T12:35:38Z</time></trkpt><trkpt lat="45.848366067877585" lon="9.386309265607322"><ele>203.0</ele><time>2026-04-11T12:35:39.999Z</time></trkpt><trkpt lat="45.84840450539758" lon="9.386199225220402"><ele>203.0</ele><time>2026-04-11T12:35:41.999Z</time></trkpt><trkpt lat="45.84839651968939" lon="9.386080671120899"><ele>203.00000000000003</ele><time>2026-04-11T12:35:43.999Z</time></trkpt><trkpt lat="45.84831930973297" lon="9.38609477996831"><ele>203.0</ele><time>2026-04-11T12:35:45.999Z</time></trkpt><trkpt lat="45.84825639640125" lon="9.38603005941265"><ele>203.5</ele><time>2026-04-11T12:35:49.999Z</time></trkpt><trkpt lat="45.84826786198694" lon="9.385877673273892"><ele>204.0</ele><time>2026-04-11T12:35:50.999Z</time></trkpt><trkpt lat="45.84830452359197" lon="9.385682270374163"><ele>204.5</ele><time>2026-04-11T12:35:51.999Z</time></trkpt><trkpt lat="45.84835066134819" lon="9.38545368421359"><ele>205.0</ele><time>2026-04-11T12:35:52.999Z</time></trkpt><trkpt lat="45.84838317917051" lon="9.385204907710373"><ele>206.0</ele><time>2026-04-11T12:35:53.999Z</time></trkpt><trkpt lat="45.848407001321945" lon="9.384944207020531"><ele>207.0</ele><time>2026-04-11T12:35:54.999Z</time></trkpt><trkpt lat="45.84843124991501" lon="9.384640849605692"><ele>208.0</ele><time>2026-04-11T12:35:55.999Z</time></trkpt><trkpt lat="45.84847166880741" lon="9.384329884647329"><ele>206.5</ele><time>2026-04-11T12:35:56.999Z</time></trkpt><trkpt lat="45.84852406546831" lon="9.384014624387127"><ele>205.0</ele><time>2026-04-11T12:35:57.999Z</time></trkpt><trkpt lat="45.8485751140944" lon="9.383692497370827"><ele>205.0</ele><time>2026-04-11T12:35:58.999Z</time></trkpt><trkpt lat="45.848614211480715" lon="9.383361636006109"><ele>205.0</ele><time>2026-04-11T12:35:59.999Z</time></trkpt><trkpt lat="45.848651341241" lon="9.383031254985948"><ele>210.0</ele><time>2026-04-11T12:36:00.999Z</time></trkpt><trkpt lat="45.84870113652258" lon="9.382710338700434"><ele>215.0</ele><time>2026-04-11T12:36:01.999Z</time></trkpt><trkpt lat="45.848767994808206" lon="9.382397333700178"><ele>219.0</ele><time>2026-04-11T12:36:02.999Z</time></trkpt><trkpt lat="45.84884206182866" lon="9.38208885519421"><ele>223.0</ele><time>2026-04-11T12:36:03.999Z</time></trkpt><trkpt lat="45.848920433036135" lon="9.38178187444747"><ele>223.0</ele><time>2026-04-11T12:36:04.999Z</time></trkpt><trkpt lat="45.84900071932387" lon="9.381479807923363"><ele>223.0</ele><time>2026-04-11T12:36:05.999Z</time></trkpt><trkpt lat="45.84907702072222" lon="9.381178332373326"><ele>223.0</ele><time>2026-04-11T12:36:06.999Z</time></trkpt><trkpt lat="45.84915197126653" lon="9.380880090373049"><ele>220.66666666666666</ele><time>2026-04-11T12:36:07.999Z</time></trkpt><trkpt lat="45.849230673017516" lon="9.38058753323554"><ele>218.33333333333331</ele><time>2026-04-11T12:36:08.999Z</time></trkpt><trkpt lat="45.84931502790226" lon="9.380308194516326"><ele>216.0</ele><time>2026-04-11T12:36:09.999Z</time></trkpt><trkpt lat="45.84940331258206" lon="9.380036866974374"><ele>216.0</ele><time>2026-04-11T12:36:10.999Z</time></trkpt><trkpt lat="45.849485807814546" lon="9.379772641097562"><ele>216.0</ele><time>2026-04-11T12:36:11.999Z</time></trkpt><trkpt lat="45.84954997784997" lon="9.379508559720264"><ele>216.0</ele><time>2026-04-11T12:36:12.999Z</time></trkpt><trkpt lat="45.84959579424161" lon="9.379241191384839"><ele>220.33333333333331</ele><time>2026-04-11T12:36:13.999Z</time></trkpt><trkpt lat="45.84962347403967" lon="9.378970449459446"><ele>224.66666666666666</ele><time>2026-04-11T12:36:14.999Z</time></trkpt><trkpt lat="45.84963452433852" lon="9.378699100728221"><ele>229.0</ele><time>2026-04-11T12:36:15.999Z</time></trkpt><trkpt lat="45.849622998003305" lon="9.378425307695373"><ele>230.0</ele><time>2026-04-11T12:36:16.999Z</time></trkpt><trkpt lat="45.84959968289262" lon="9.378153694844599"><ele>231.0</ele><time>2026-04-11T12:36:17.999Z</time></trkpt><trkpt lat="45.84957449225248" lon="9.377879567239207"><ele>232.0</ele><time>2026-04-11T12:36:18.999Z</time></trkpt><trkpt lat="45.84955595461937" lon="9.377604739254497"><ele>232.33333333333331</ele><time>2026-04-11T12:36:19.999Z</time></trkpt><trkpt lat="45.849535900342836" lon="9.377328042624162"><ele>232.66666666666669</ele><time>2026-04-11T12:36:20.999Z</time></trkpt><trkpt lat="45.84951112347898" lon="9.377046469736964"><ele>233.0</ele><time>2026-04-11T12:36:21.999Z</time></trkpt><trkpt lat="45.84948135681455" lon="9.376764952313362"><ele>233.0</ele><time>2026-04-11T12:36:22.999Z</time></trkpt><trkpt lat="45.849444789183615" lon="9.376483931132205"><ele>233.0</ele><time>2026-04-11T12:36:24Z</time></trkpt><trkpt lat="45.84940314859718" lon="9.376204495729311"><ele>233.0</ele><time>2026-04-11T12:36:25Z</time></trkpt><trkpt lat="45.84935258145048" lon="9.37592511041807"><ele>233.66666666666669</ele><time>2026-04-11T12:36:26Z</time></trkpt><trkpt lat="45.84929250106142" lon="9.375647040423692"><ele>234.33333333333331</ele><time>2026-04-11T12:36:27Z</time></trkpt><trkpt lat="45.84922023324359" lon="9.3753700360541"><ele>235.0</ele><time>2026-04-11T12:36:28Z</time></trkpt><trkpt lat="45.84914044970068" lon="9.375095039947679"><ele>235.0</ele><time>2026-04-11T12:36:29Z</time></trkpt><trkpt lat="45.84906253369969" lon="9.374817967954112"><ele>235.0</ele><time>2026-04-11T12:36:30Z</time></trkpt><trkpt lat="45.84898446700183" lon="9.374540146652148"><ele>235.0</ele><time>2026-04-11T12:36:31Z</time></trkpt><trkpt lat="45.84890663835622" lon="9.374262474052742"><ele>235.0</ele><time>2026-04-11T12:36:32Z</time></trkpt><trkpt lat="45.848830236579246" lon="9.373985340123347"><ele>235.0</ele><time>2026-04-11T12:36:33Z</time></trkpt><trkpt lat="45.84875369046258" lon="9.373708297270811"><ele>235.0</ele><time>2026-04-11T12:36:34Z</time></trkpt><trkpt lat="45.84867752253058" lon="9.373431918764277"><ele>234.66666666666666</ele><time>2026-04-11T12:36:35Z</time></trkpt><trkpt lat="45.848602333225635" lon="9.373157425166399"><ele>234.33333333333331</ele><time>2026-04-11T12:36:36Z</time></trkpt><trkpt lat="45.84853099097902" lon="9.372896160026057"><ele>234.0</ele><time>2026-04-11T12:36:37Z</time></trkpt><trkpt lat="45.848464666873056" lon="9.37265046912754"><ele>233.0</ele><time>2026-04-11T12:36:38Z</time></trkpt><trkpt lat="45.84840184388275" lon="9.372418413970603"><ele>232.0</ele><time>2026-04-11T12:36:39Z</time></trkpt><trkpt lat="45.84834462641293" lon="9.372196831739778"><ele>231.0</ele><time>2026-04-11T12:36:40Z</time></trkpt><trkpt lat="45.84829463627364" lon="9.371985141013017"><ele>231.0</ele><time>2026-04-11T12:36:41Z</time></trkpt><trkpt lat="45.84824982460084" lon="9.37178779007101"><ele>231.0</ele><time>2026-04-11T12:36:42Z</time></trkpt><trkpt lat="45.848207327577235" lon="9.371606113253847"><ele>231.0</ele><time>2026-04-11T12:36:43Z</time></trkpt><trkpt lat="45.84816748063097" lon="9.371437841889453"><ele>231.0</ele><time>2026-04-11T12:36:44Z</time></trkpt><trkpt lat="45.84812717916541" lon="9.371286233577836"><ele>230.66666666666666</ele><time>2026-04-11T12:36:45Z</time></trkpt><trkpt lat="45.8480863505449" lon="9.371153203626195"><ele>230.33333333333331</ele><time>2026-04-11T12:36:46Z</time></trkpt><trkpt lat="45.84804488427667" lon="9.37103828142405"><ele>230.0</ele><time>2026-04-11T12:36:47Z</time></trkpt><trkpt lat="45.848012291920554" lon="9.370934289710721"><ele>229.66666666666666</ele><time>2026-04-11T12:36:48Z</time></trkpt><trkpt lat="45.848010440419685" lon="9.370832061295625"><ele>229.33333333333331</ele><time>2026-04-11T12:36:49Z</time></trkpt><trkpt lat="45.84802729661129" lon="9.370738715049294"><ele>229.0</ele><time>2026-04-11T12:36:50Z</time></trkpt><trkpt lat="45.84803885021692" lon="9.370640650536256"><ele>229.0</ele><time>2026-04-11T12:36:51Z</time></trkpt><trkpt lat="45.848020819333534" lon="9.37054480600507"><ele>228.99999999999997</ele><time>2026-04-11T12:36:52Z</time></trkpt><trkpt lat="45.847977299915264" lon="9.370439669052093"><ele>228.99999999999997</ele><time>2026-04-11T12:36:53Z</time></trkpt><trkpt lat="45.84793087921178" lon="9.370318168576077"><ele>229.0</ele><time>2026-04-11T12:36:54Z</time></trkpt><trkpt lat="45.847898222703336" lon="9.370181510587653"><ele>229.0</ele><time>2026-04-11T12:36:55Z</time></trkpt><trkpt lat="45.847839076966444" lon="9.370051953740901"><ele>228.75</ele><time>2026-04-11T12:36:56Z</time></trkpt><trkpt lat="45.84774065291364" lon="9.369939115929443"><ele>228.5</ele><time>2026-04-11T12:36:57Z</time></trkpt><trkpt lat="45.84766335974562" lon="9.369784481906606"><ele>228.25</ele><time>2026-04-11T12:36:58Z</time></trkpt><trkpt lat="45.84760031018917" lon="9.369606800368091"><ele>228.0</ele><time>2026-04-11T12:36:59Z</time></trkpt><trkpt lat="45.84753286082354" lon="9.369433662575927"><ele>228.25</ele><time>2026-04-11T12:37:00Z</time></trkpt><trkpt lat="45.847461709829226" lon="9.369265927456608"><ele>228.5</ele><time>2026-04-11T12:37:01Z</time></trkpt><trkpt lat="45.84739376045249" lon="9.369100608744539"><ele>228.75</ele><time>2026-04-11T12:37:02Z</time></trkpt><trkpt lat="45.84733088478342" lon="9.368941792515344"><ele>229.0</ele><time>2026-04-11T12:37:03Z</time></trkpt><trkpt lat="45.84727022952998" lon="9.368793892362605"><ele>229.0</ele><time>2026-04-11T12:37:04Z</time></trkpt><trkpt lat="45.84720857458568" lon="9.368657709736704"><ele>228.99999999999997</ele><time>2026-04-11T12:37:05Z</time></trkpt><trkpt lat="45.847144256232596" lon="9.368536251086269"><ele>228.99999999999997</ele><time>2026-04-11T12:37:06Z</time></trkpt><trkpt lat="45.84707748595707" lon="9.368427349335626"><ele>229.0</ele><time>2026-04-11T12:37:07Z</time></trkpt><trkpt lat="45.84701174678804" lon="9.368328061916822"><ele>229.0</ele><time>2026-04-11T12:37:08Z</time></trkpt><trkpt lat="45.84695034188104" lon="9.36823368716846"><ele>228.99999999999997</ele><time>2026-04-11T12:37:09Z</time></trkpt><trkpt lat="45.84689526342235" lon="9.36814956726033"><ele>229.0</ele><time>2026-04-11T12:37:10Z</time></trkpt><trkpt lat="45.846847870193876" lon="9.368084594927938"><ele>229.0</ele><time>2026-04-11T12:37:11Z</time></trkpt><trkpt lat="45.846769498043216" lon="9.367982583549697"><ele>229.0</ele><time>2026-04-11T12:37:13Z</time></trkpt><trkpt lat="45.8466981576699" lon="9.36790577693063"><ele>228.99999999999997</ele><time>2026-04-11T12:37:15Z</time></trkpt><trkpt lat="45.84663669389658" lon="9.36782420514109"><ele>229.0</ele><time>2026-04-11T12:37:18Z</time></trkpt><trkpt lat="45.84656682127222" lon="9.367725936962744"><ele>228.39999999999998</ele><time>2026-04-11T12:37:53.999Z</time></trkpt><trkpt lat="45.84652012213552" lon="9.367610940198508"><ele>227.79999999999998</ele><time>2026-04-11T12:37:54.999Z</time></trkpt><trkpt lat="45.846509534744364" lon="9.367476088536298"><ele>227.20000000000002</ele><time>2026-04-11T12:37:55.999Z</time></trkpt><trkpt lat="45.846523112248434" lon="9.367326362778881"><ele>226.60000000000002</ele><time>2026-04-11T12:37:56.999Z</time></trkpt><trkpt lat="45.846540321450746" lon="9.367159192970377"><ele>226.0</ele><time>2026-04-11T12:37:57.999Z</time></trkpt><trkpt lat="45.846549762403086" lon="9.36697206995945"><ele>225.25</ele><time>2026-04-11T12:37:58.999Z</time></trkpt><trkpt lat="45.846563357193304" lon="9.366780054299582"><ele>224.5</ele><time>2026-04-11T12:37:59.999Z</time></trkpt><trkpt lat="45.84657126400634" lon="9.366581224961465"><ele>223.75</ele><time>2026-04-11T12:38:00.999Z</time></trkpt><trkpt lat="45.84657353174071" lon="9.36637854137724"><ele>223.0</ele><time>2026-04-11T12:38:01.999Z</time></trkpt><trkpt lat="45.84658301232533" lon="9.366174321494658"><ele>222.25</ele><time>2026-04-11T12:38:02.999Z</time></trkpt><trkpt lat="45.84659140332323" lon="9.365965398792632"><ele>221.5</ele><time>2026-04-11T12:38:03.999Z</time></trkpt><trkpt lat="45.8465987399728" lon="9.365754279636887"><ele>220.75</ele><time>2026-04-11T12:38:04.999Z</time></trkpt><trkpt lat="45.8466039694915" lon="9.365538363387408"><ele>220.0</ele><time>2026-04-11T12:38:05.999Z</time></trkpt><trkpt lat="45.84661073043532" lon="9.365320988546905"><ele>219.0</ele><time>2026-04-11T12:38:06.999Z</time></trkpt><trkpt lat="45.846618919984614" lon="9.365101124521498"><ele>218.0</ele><time>2026-04-11T12:38:07.999Z</time></trkpt><trkpt lat="45.8466336278759" lon="9.364882734217433"><ele>217.0</ele><time>2026-04-11T12:38:08.999Z</time></trkpt><trkpt lat="45.846645796869" lon="9.364665048113855"><ele>216.5</ele><time>2026-04-11T12:38:09.999Z</time></trkpt><trkpt lat="45.846657123255135" lon="9.3644581795304"><ele>216.0</ele><time>2026-04-11T12:38:10.999Z</time></trkpt><trkpt lat="45.84666592638046" lon="9.364257262642843"><ele>215.5</ele><time>2026-04-11T12:38:11.999Z</time></trkpt><trkpt lat="45.84667536874067" lon="9.364062402248514"><ele>215.0</ele><time>2026-04-11T12:38:12.999Z</time></trkpt><trkpt lat="45.846682057581305" lon="9.363870491781896"><ele>215.5</ele><time>2026-04-11T12:38:13.999Z</time></trkpt><trkpt lat="45.846693176186676" lon="9.36368566075754"><ele>216.0</ele><time>2026-04-11T12:38:14.999Z</time></trkpt><trkpt lat="45.846702992336674" lon="9.363501323139044"><ele>216.5</ele><time>2026-04-11T12:38:15.999Z</time></trkpt><trkpt lat="45.846711278455906" lon="9.363317469718417"><ele>217.0</ele><time>2026-04-11T12:38:16.999Z</time></trkpt><trkpt lat="45.84671860893599" lon="9.363135543750436"><ele>217.2</ele><time>2026-04-11T12:38:17.999Z</time></trkpt><trkpt lat="45.84672616879312" lon="9.362959565097654"><ele>217.39999999999998</ele><time>2026-04-11T12:38:18.999Z</time></trkpt><trkpt lat="45.84673261176834" lon="9.36278926776167"><ele>217.60000000000002</ele><time>2026-04-11T12:38:19.999Z</time></trkpt><trkpt lat="45.84673668721069" lon="9.362637065664787"><ele>217.8</ele><time>2026-04-11T12:38:20.999Z</time></trkpt><trkpt lat="45.84673826596583" lon="9.362509821994623"><ele>218.0</ele><time>2026-04-11T12:38:21.999Z</time></trkpt><trkpt lat="45.846743156461486" lon="9.362410152023086"><ele>218.00000000000003</ele><time>2026-04-11T12:38:22.999Z</time></trkpt><trkpt lat="45.84673949210889" lon="9.362256952418784"><ele>218.0</ele><time>2026-04-11T12:38:24.999Z</time></trkpt><trkpt lat="45.84673972662605" lon="9.362096826785672"><ele>218.0</ele><time>2026-04-11T12:38:26.999Z</time></trkpt><trkpt lat="45.84674409572883" lon="9.361995932962115"><ele>218.0</ele><time>2026-04-11T12:38:27.999Z</time></trkpt><trkpt lat="45.846748432580185" lon="9.361897362593732"><ele>218.00000000000003</ele><time>2026-04-11T12:38:28.999Z</time></trkpt><trkpt lat="45.84675470997194" lon="9.361806096363207"><ele>218.0</ele><time>2026-04-11T12:38:30Z</time></trkpt><trkpt lat="45.84676590144914" lon="9.361662058749483"><ele>218.8</ele><time>2026-04-11T12:38:32Z</time></trkpt><trkpt lat="45.846785201960756" lon="9.361517536634814"><ele>219.60000000000002</ele><time>2026-04-11T12:38:34Z</time></trkpt><trkpt lat="45.84681215762292" lon="9.361422647454978"><ele>220.39999999999998</ele><time>2026-04-11T12:38:35Z</time></trkpt><trkpt lat="45.84694688023464" lon="9.36132026776859"><ele>221.2</ele><time>2026-04-11T12:38:37Z</time></trkpt><trkpt lat="45.84704021115841" lon="9.361331452721524"><ele>222.0</ele><time>2026-04-11T12:38:38Z</time></trkpt><trkpt lat="45.847155768494034" lon="9.361363727326445"><ele>222.0</ele><time>2026-04-11T12:38:39Z</time></trkpt><trkpt lat="45.8472665423461" lon="9.361414612353819"><ele>222.0</ele><time>2026-04-11T12:38:40Z</time></trkpt><trkpt lat="45.84738331121746" lon="9.361473852463602"><ele>222.0</ele><time>2026-04-11T12:38:41Z</time></trkpt><trkpt lat="45.84749079477182" lon="9.361530713759306"><ele>222.0</ele><time>2026-04-11T12:38:42Z</time></trkpt><trkpt lat="45.84758645705833" lon="9.361587413884306"><ele>223.0</ele><time>2026-04-11T12:38:43Z</time></trkpt><trkpt lat="45.847663253341" lon="9.36166865441208"><ele>224.0</ele><time>2026-04-11T12:38:44Z</time></trkpt><trkpt lat="45.8477181260859" lon="9.361764036586603"><ele>225.0</ele><time>2026-04-11T12:38:45Z</time></trkpt><trkpt lat="45.84778726966865" lon="9.361844404681376"><ele>226.0</ele><time>2026-04-11T12:38:46Z</time></trkpt><trkpt lat="45.84787923125226" lon="9.361895118985743"><ele>227.0</ele><time>2026-04-11T12:38:47Z</time></trkpt><trkpt lat="45.84801677717243" lon="9.3618449209806"><ele>227.0</ele><time>2026-04-11T12:38:48Z</time></trkpt><trkpt lat="45.848158143014196" lon="9.361888488385661"><ele>227.0</ele><time>2026-04-11T12:38:49Z</time></trkpt><trkpt lat="45.84829546066995" lon="9.361966239141102"><ele>227.0</ele><time>2026-04-11T12:38:50Z</time></trkpt><trkpt lat="45.84842279079119" lon="9.362035591233436"><ele>227.0</ele><time>2026-04-11T12:38:51Z</time></trkpt><trkpt lat="45.848539632140316" lon="9.362097213496435"><ele>227.0</ele><time>2026-04-11T12:38:52Z</time></trkpt><trkpt lat="45.84864973453432" lon="9.362160974697678"><ele>227.0</ele><time>2026-04-11T12:38:53Z</time></trkpt><trkpt lat="45.848739697717015" lon="9.362225082485065"><ele>227.0</ele><time>2026-04-11T12:38:54Z</time></trkpt><trkpt lat="45.84882841736057" lon="9.362287871419499"><ele>227.0</ele><time>2026-04-11T12:38:55Z</time></trkpt><trkpt lat="45.84891779833918" lon="9.36237847449861"><ele>227.0</ele><time>2026-04-11T12:38:56Z</time></trkpt><trkpt lat="45.84903363777195" lon="9.362448736921436"><ele>227.0</ele><time>2026-04-11T12:38:57Z</time></trkpt><trkpt lat="45.84915197004101" lon="9.362564539328412"><ele>227.0</ele><time>2026-04-11T12:38:58Z</time></trkpt><trkpt lat="45.849290461096494" lon="9.362682439482757"><ele>227.0</ele><time>2026-04-11T12:38:59Z</time></trkpt><trkpt lat="45.8494239741961" lon="9.362794471263292"><ele>227.0</ele><time>2026-04-11T12:39:00Z</time></trkpt><trkpt lat="45.84954843185821" lon="9.362901235008671"><ele>227.0</ele><time>2026-04-11T12:39:01Z</time></trkpt><trkpt lat="45.84966459217751" lon="9.362994680447128"><ele>227.0</ele><time>2026-04-11T12:39:02Z</time></trkpt><trkpt lat="45.84977483115368" lon="9.363076543450138"><ele>227.0</ele><time>2026-04-11T12:39:03Z</time></trkpt><trkpt lat="45.84989719265823" lon="9.363172588883083"><ele>227.0</ele><time>2026-04-11T12:39:04Z</time></trkpt><trkpt lat="45.85002554686329" lon="9.363260405288635"><ele>227.0</ele><time>2026-04-11T12:39:05Z</time></trkpt><trkpt lat="45.85015826240412" lon="9.36335282440799"><ele>227.0</ele><time>2026-04-11T12:39:06Z</time></trkpt><trkpt lat="45.85029654143259" lon="9.363446460429104"><ele>227.0</ele><time>2026-04-11T12:39:07Z</time></trkpt><trkpt lat="45.850434201217396" lon="9.363544093603126"><ele>227.0</ele><time>2026-04-11T12:39:08Z</time></trkpt><trkpt lat="45.85057081316029" lon="9.363643180559045"><ele>227.0</ele><time>2026-04-11T12:39:09Z</time></trkpt><trkpt lat="45.850711048364005" lon="9.36374797071291"><ele>227.0</ele><time>2026-04-11T12:39:10Z</time></trkpt><trkpt lat="45.85085187472013" lon="9.36384485647014"><ele>225.66666666666669</ele><time>2026-04-11T12:39:11Z</time></trkpt><trkpt lat="45.850997986796955" lon="9.36393451053612"><ele>224.33333333333331</ele><time>2026-04-11T12:39:12Z</time></trkpt><trkpt lat="45.85114199992127" lon="9.36401918364594"><ele>223.0</ele><time>2026-04-11T12:39:13Z</time></trkpt><trkpt lat="45.85128761080414" lon="9.36408911462945"><ele>223.0</ele><time>2026-04-11T12:39:14Z</time></trkpt><trkpt lat="45.85143506387506" lon="9.364150294098694"><ele>223.0</ele><time>2026-04-11T12:39:15Z</time></trkpt><trkpt lat="45.8515798852837" lon="9.364207446845036"><ele>223.0</ele><time>2026-04-11T12:39:16Z</time></trkpt><trkpt lat="45.85172073790979" lon="9.364263588578295"><ele>222.5</ele><time>2026-04-11T12:39:17Z</time></trkpt><trkpt lat="45.8518644936656" lon="9.364315813030743"><ele>222.0</ele><time>2026-04-11T12:39:18Z</time></trkpt><trkpt lat="45.85201111538744" lon="9.364368644906477"><ele>221.5</ele><time>2026-04-11T12:39:19Z</time></trkpt><trkpt lat="45.85215456397224" lon="9.364423023091314"><ele>221.0</ele><time>2026-04-11T12:39:20Z</time></trkpt><trkpt lat="45.85230073226224" lon="9.364474743289803"><ele>221.0</ele><time>2026-04-11T12:39:21Z</time></trkpt><trkpt lat="45.85244381165892" lon="9.36452643806576"><ele>221.0</ele><time>2026-04-11T12:39:22Z</time></trkpt><trkpt lat="45.85258578249116" lon="9.364578785799115"><ele>221.0</ele><time>2026-04-11T12:39:23Z</time></trkpt><trkpt lat="45.85272657386591" lon="9.364633483891756"><ele>221.0</ele><time>2026-04-11T12:39:24Z</time></trkpt><trkpt lat="45.852866757457" lon="9.364687691478101"><ele>219.75</ele><time>2026-04-11T12:39:25Z</time></trkpt><trkpt lat="45.85300710721036" lon="9.364740724289753"><ele>218.5</ele><time>2026-04-11T12:39:26Z</time></trkpt><trkpt lat="45.85314643611544" lon="9.364791161285302"><ele>217.25</ele><time>2026-04-11T12:39:27Z</time></trkpt><trkpt lat="45.85328484016333" lon="9.364843313724847"><ele>216.0</ele><time>2026-04-11T12:39:28Z</time></trkpt><trkpt lat="45.85342253009531" lon="9.364895310344703"><ele>215.5</ele><time>2026-04-11T12:39:29Z</time></trkpt><trkpt lat="45.85355822276996" lon="9.36494740178324"><ele>215.0</ele><time>2026-04-11T12:39:30Z</time></trkpt><trkpt lat="45.85369005195989" lon="9.364998436761725"><ele>214.5</ele><time>2026-04-11T12:39:31Z</time></trkpt><trkpt lat="45.85381569271882" lon="9.365045479065692"><ele>214.0</ele><time>2026-04-11T12:39:32Z</time></trkpt><trkpt lat="45.853934042709675" lon="9.365091526680526"><ele>214.0</ele><time>2026-04-11T12:39:33Z</time></trkpt><trkpt lat="45.85404825599502" lon="9.3651378524104"><ele>214.0</ele><time>2026-04-11T12:39:34Z</time></trkpt><trkpt lat="45.85415830142343" lon="9.365182239873256"><ele>214.0</ele><time>2026-04-11T12:39:35Z</time></trkpt><trkpt lat="45.85426548168633" lon="9.365220513309747"><ele>214.0</ele><time>2026-04-11T12:39:36Z</time></trkpt><trkpt lat="45.854369925864845" lon="9.36526397186208"><ele>213.79999999999998</ele><time>2026-04-11T12:39:37Z</time></trkpt><trkpt lat="45.85447133377213" lon="9.365310561575868"><ele>213.59999999999997</ele><time>2026-04-11T12:39:37.999Z</time></trkpt><trkpt lat="45.85457231290336" lon="9.365351189928534"><ele>213.4</ele><time>2026-04-11T12:39:38.999Z</time></trkpt><trkpt lat="45.85467597016468" lon="9.365390839495907"><ele>213.2</ele><time>2026-04-11T12:39:39.999Z</time></trkpt><trkpt lat="45.85477932116425" lon="9.365433083450368"><ele>213.0</ele><time>2026-04-11T12:39:40.999Z</time></trkpt><trkpt lat="45.854883440101176" lon="9.365478239399222"><ele>213.0</ele><time>2026-04-11T12:39:41.999Z</time></trkpt><trkpt lat="45.85498942884168" lon="9.365525762464152"><ele>213.0</ele><time>2026-04-11T12:39:42.999Z</time></trkpt><trkpt lat="45.8550979233054" lon="9.365573240949534"><ele>213.0</ele><time>2026-04-11T12:39:43.999Z</time></trkpt><trkpt lat="45.85521058190691" lon="9.365620121902358"><ele>213.0</ele><time>2026-04-11T12:39:44.999Z</time></trkpt><trkpt lat="45.85532563283194" lon="9.36566672126621"><ele>211.75</ele><time>2026-04-11T12:39:45.999Z</time></trkpt><trkpt lat="45.85544204381111" lon="9.365716342344534"><ele>210.5</ele><time>2026-04-11T12:39:46.999Z</time></trkpt><trkpt lat="45.85555948250289" lon="9.365764911433885"><ele>209.25</ele><time>2026-04-11T12:39:47.999Z</time></trkpt><trkpt lat="45.85567782907458" lon="9.36581468650572"><ele>208.0</ele><time>2026-04-11T12:39:48.999Z</time></trkpt><trkpt lat="45.85579619199793" lon="9.365865297964474"><ele>208.0</ele><time>2026-04-11T12:39:49.999Z</time></trkpt><trkpt lat="45.855914255740416" lon="9.365910808878075"><ele>208.0</ele><time>2026-04-11T12:39:50.999Z</time></trkpt><trkpt lat="45.85603397792406" lon="9.365946000656296"><ele>208.0</ele><time>2026-04-11T12:39:51.999Z</time></trkpt><trkpt lat="45.856153314791506" lon="9.365964843180766"><ele>208.0</ele><time>2026-04-11T12:39:52.999Z</time></trkpt><trkpt lat="45.85627316545297" lon="9.365963156198877"><ele>207.75</ele><time>2026-04-11T12:39:53.999Z</time></trkpt><trkpt lat="45.85639282670835" lon="9.365958618371607"><ele>207.5</ele><time>2026-04-11T12:39:54.999Z</time></trkpt><trkpt lat="45.85651423964126" lon="9.365954106777835"><ele>207.25</ele><time>2026-04-11T12:39:55.999Z</time></trkpt><trkpt lat="45.85664066373136" lon="9.365945814803277"><ele>207.0</ele><time>2026-04-11T12:39:56.999Z</time></trkpt><trkpt lat="45.85676470538536" lon="9.365938597375232"><ele>206.8</ele><time>2026-04-11T12:39:57.999Z</time></trkpt><trkpt lat="45.85687935119655" lon="9.365930626354967"><ele>206.6</ele><time>2026-04-11T12:39:58.999Z</time></trkpt><trkpt lat="45.85698699227776" lon="9.365923133512828"><ele>206.4</ele><time>2026-04-11T12:39:59.999Z</time></trkpt><trkpt lat="45.85708645437633" lon="9.365916623125784"><ele>206.20000000000002</ele><time>2026-04-11T12:40:00.999Z</time></trkpt><trkpt lat="45.85717966173664" lon="9.365907494137195"><ele>206.0</ele><time>2026-04-11T12:40:01.999Z</time></trkpt><trkpt lat="45.85726659022286" lon="9.365915611543388"><ele>206.0</ele><time>2026-04-11T12:40:02.999Z</time></trkpt><trkpt lat="45.857336066403555" lon="9.365967757885917"><ele>206.0</ele><time>2026-04-11T12:40:03.999Z</time></trkpt><trkpt lat="45.857381097790025" lon="9.366044893774463"><ele>206.0</ele><time>2026-04-11T12:40:04.999Z</time></trkpt><trkpt lat="45.85748101054593" lon="9.366101462301707"><ele>206.0</ele><time>2026-04-11T12:40:06.999Z</time></trkpt><trkpt lat="45.85756932019182" lon="9.366004682554339"><ele>206.0</ele><time>2026-04-11T12:40:08.999Z</time></trkpt><trkpt lat="45.85763760979133" lon="9.365887356915744"><ele>205.20000000000002</ele><time>2026-04-11T12:40:10.999Z</time></trkpt><trkpt lat="45.85773461290842" lon="9.36586342294774"><ele>204.4</ele><time>2026-04-11T12:40:12.999Z</time></trkpt><trkpt lat="45.85782719807951" lon="9.365864854373847"><ele>203.6</ele><time>2026-04-11T12:40:14.999Z</time></trkpt><trkpt lat="45.85791901638457" lon="9.365881171024153"><ele>202.8</ele><time>2026-04-11T12:40:16.999Z</time></trkpt><trkpt lat="45.857994148834884" lon="9.36597854270693"><ele>202.0</ele><time>2026-04-11T12:40:18.999Z</time></trkpt><trkpt lat="45.8580481537186" lon="9.366105911906695"><ele>201.99999999999997</ele><time>2026-04-11T12:40:20.999Z</time></trkpt><trkpt lat="45.85811851605859" lon="9.366164928919972"><ele>202.0</ele><time>2026-04-11T12:40:22.999Z</time></trkpt><trkpt lat="45.85818526781767" lon="9.366118718317546"><ele>202.0</ele><time>2026-04-11T12:40:23.999Z</time></trkpt><trkpt lat="45.85829829801813" lon="9.366018440982243"><ele>202.0</ele><time>2026-04-11T12:40:25.999Z</time></trkpt><trkpt lat="45.85835942748006" lon="9.365964530477523"><ele>201.99999999999997</ele><time>2026-04-11T12:40:26.999Z</time></trkpt><trkpt lat="45.85841785916361" lon="9.365913760990685"><ele>202.0</ele><time>2026-04-11T12:40:27.999Z</time></trkpt><trkpt lat="45.858475423504466" lon="9.365877156676188"><ele>201.66666666666666</ele><time>2026-04-11T12:40:28.999Z</time></trkpt><trkpt lat="45.85853789483372" lon="9.365846724486149"><ele>201.33333333333331</ele><time>2026-04-11T12:40:29.999Z</time></trkpt><trkpt lat="45.85861107218976" lon="9.365814747248423"><ele>201.0</ele><time>2026-04-11T12:40:30.999Z</time></trkpt><trkpt lat="45.85869521220031" lon="9.365786671358725"><ele>200.66666666666669</ele><time>2026-04-11T12:40:31.999Z</time></trkpt><trkpt lat="45.858788594035275" lon="9.365759159359826"><ele>200.33333333333334</ele><time>2026-04-11T12:40:32.999Z</time></trkpt><trkpt lat="45.858884892479225" lon="9.365731371478251"><ele>200.0</ele><time>2026-04-11T12:40:33.999Z</time></trkpt><trkpt lat="45.85898056924392" lon="9.365701686769592"><ele>200.0</ele><time>2026-04-11T12:40:34.999Z</time></trkpt><trkpt lat="45.85907623709294" lon="9.365657817079388"><ele>200.0</ele><time>2026-04-11T12:40:36Z</time></trkpt><trkpt lat="45.859176666948244" lon="9.365599086536788"><ele>200.0</ele><time>2026-04-11T12:40:37Z</time></trkpt><trkpt lat="45.859282223607" lon="9.365523032575398"><ele>200.0</ele><time>2026-04-11T12:40:38Z</time></trkpt><trkpt lat="45.85938738742201" lon="9.365417318152508"><ele>208.5</ele><time>2026-04-11T12:40:39Z</time></trkpt><trkpt lat="45.859490787693304" lon="9.365297751183478"><ele>217.0</ele><time>2026-04-11T12:40:40Z</time></trkpt><trkpt lat="45.859581942616245" lon="9.365186107275333"><ele>225.5</ele><time>2026-04-11T12:40:41Z</time></trkpt><trkpt lat="45.859681648005036" lon="9.365087979453806"><ele>234.0</ele><time>2026-04-11T12:40:42Z</time></trkpt><trkpt lat="45.859774647197625" lon="9.364981851130823"><ele>234.0</ele><time>2026-04-11T12:40:43Z</time></trkpt><trkpt lat="45.85990021556992" lon="9.36487621528685"><ele>234.0</ele><time>2026-04-11T12:40:44.078Z</time></trkpt><trkpt lat="45.86002320051546" lon="9.36486815328998"><ele>234.0</ele><time>2026-04-11T12:40:45.068Z</time></trkpt><trkpt lat="45.86013280862126" lon="9.364821518017616"><ele>234.0</ele><time>2026-04-11T12:40:46.07Z</time></trkpt><trkpt lat="45.860229968783344" lon="9.36473615947099"><ele>387.0</ele><time>2026-04-11T12:40:47.067Z</time></trkpt><trkpt lat="45.86211612800785" lon="9.363742200457372"><ele>204.0</ele><time>2026-04-11T12:40:50.999Z</time></trkpt><trkpt lat="45.87278744131178" lon="9.35736541498966"><ele>204.0</ele><time>2026-04-11T12:41:52.999Z</time></trkpt><trkpt lat="45.87296944124664" lon="9.35722124563543"><ele>204.0</ele><time>2026-04-11T12:41:53.999Z</time></trkpt><trkpt lat="45.87312681615126" lon="9.357037600281277"><ele>204.0</ele><time>2026-04-11T12:41:54.999Z</time></trkpt><trkpt lat="45.87321972901041" lon="9.356797372296304"><ele>202.5</ele><time>2026-04-11T12:41:55.999Z</time></trkpt><trkpt lat="45.87335818491643" lon="9.35654430933912"><ele>201.0</ele><time>2026-04-11T12:41:56.999Z</time></trkpt><trkpt lat="45.87343780560331" lon="9.356237212800457"><ele>204.0</ele><time>2026-04-11T12:41:57.999Z</time></trkpt><trkpt lat="45.87352014083779" lon="9.355937722698721"><ele>207.0</ele><time>2026-04-11T12:41:58.999Z</time></trkpt><trkpt lat="45.873593342073946" lon="9.355630237171432"><ele>210.5</ele><time>2026-04-11T12:41:59.999Z</time></trkpt><trkpt lat="45.873665753560886" lon="9.355328977390489"><ele>214.0</ele><time>2026-04-11T12:42:00.999Z</time></trkpt><trkpt lat="45.87372561024517" lon="9.353813281556361"><ele>249.5</ele><time>2026-04-11T12:42:04.999Z</time></trkpt><trkpt lat="45.8737737724342" lon="9.35340177949989"><ele>285.0</ele><time>2026-04-11T12:42:06.068Z</time></trkpt><trkpt lat="45.87383346736616" lon="9.353023181555553"><ele>300.5</ele><time>2026-04-11T12:42:07.049Z</time></trkpt><trkpt lat="45.873903258641974" lon="9.352635896078356"><ele>316.0</ele><time>2026-04-11T12:42:08.048Z</time></trkpt><trkpt lat="45.87398542943136" lon="9.352249366090554"><ele>334.0</ele><time>2026-04-11T12:42:09.051Z</time></trkpt><trkpt lat="45.87407657051615" lon="9.351860116982637"><ele>352.0</ele><time>2026-04-11T12:42:10.056Z</time></trkpt><trkpt lat="45.87417111471138" lon="9.35148585183806"><ele>414.0</ele><time>2026-04-11T12:42:11.034Z</time></trkpt><trkpt lat="45.87500753530771" lon="9.34926228822664"><ele>401.0</ele><time>2026-04-11T12:42:14.998Z</time></trkpt><trkpt lat="45.87526658295505" lon="9.348735796851749"><ele>388.0</ele><time>2026-04-11T12:42:15.998Z</time></trkpt><trkpt lat="45.87552563887877" lon="9.348209288655857"><ele>392.5</ele><time>2026-04-11T12:42:16.998Z</time></trkpt><trkpt lat="45.87578398036403" lon="9.347682068621952"><ele>397.0</ele><time>2026-04-11T12:42:17.998Z</time></trkpt><trkpt lat="45.87604226045518" lon="9.347154786812613"><ele>387.5</ele><time>2026-04-11T12:42:18.998Z</time></trkpt><trkpt lat="45.876300541593174" lon="9.346627502866111"><ele>378.0</ele><time>2026-04-11T12:42:19.998Z</time></trkpt><trkpt lat="45.87656055658632" lon="9.34610197297429"><ele>364.5</ele><time>2026-04-11T12:42:20.998Z</time></trkpt><trkpt lat="45.87682582860433" lon="9.345581195358362"><ele>351.0</ele><time>2026-04-11T12:42:21.998Z</time></trkpt><trkpt lat="45.87709886137221" lon="9.345070094450666"><ele>341.0</ele><time>2026-04-11T12:42:22.998Z</time></trkpt><trkpt lat="45.87737688063154" lon="9.344562842796787"><ele>331.0</ele><time>2026-04-11T12:42:23.999Z</time></trkpt><trkpt lat="45.877660165511934" lon="9.344063119861026"><ele>338.5</ele><time>2026-04-11T12:42:24.998Z</time></trkpt><trkpt lat="45.87794636390519" lon="9.343566697828717"><ele>346.0</ele><time>2026-04-11T12:42:25.997Z</time></trkpt><trkpt lat="45.8782327129059" lon="9.343070014562011"><ele>337.0</ele><time>2026-04-11T12:42:26.997Z</time></trkpt><trkpt lat="45.87851950350838" lon="9.342573856362959"><ele>328.0</ele><time>2026-04-11T12:42:27.997Z</time></trkpt><trkpt lat="45.87880729433426" lon="9.34207782617848"><ele>328.0</ele><time>2026-04-11T12:42:28.999Z</time></trkpt><trkpt lat="45.87909390866822" lon="9.34158169488471"><ele>328.0</ele><time>2026-04-11T12:42:29.998Z</time></trkpt><trkpt lat="45.87938023387416" lon="9.341085798038838"><ele>323.0</ele><time>2026-04-11T12:42:30.997Z</time></trkpt><trkpt lat="45.87966721096618" lon="9.340589472063407"><ele>318.0</ele><time>2026-04-11T12:42:31.998Z</time></trkpt><trkpt lat="45.879953774803646" lon="9.340093434809916"><ele>351.5</ele><time>2026-04-11T12:42:32.997Z</time></trkpt><trkpt lat="45.88024005623704" lon="9.339596663358002"><ele>385.0</ele><time>2026-04-11T12:42:33.997Z</time></trkpt><trkpt lat="45.88052489905895" lon="9.339098199944333"><ele>403.0</ele><time>2026-04-11T12:42:34.997Z</time></trkpt><trkpt lat="45.88080442794969" lon="9.338593199197385"><ele>421.0</ele><time>2026-04-11T12:42:35.998Z</time></trkpt><trkpt lat="45.8809228" lon="9.3383789"><ele>216.0</ele><time>2026-04-11T12:42:36.997Z</time></trkpt><trkpt lat="45.88421225107842" lon="9.330874042583002"><ele>216.0</ele><time>2026-04-11T12:43:21.998Z</time></trkpt><trkpt lat="45.88423439644405" lon="9.33060788702974"><ele>216.0</ele><time>2026-04-11T12:43:22.998Z</time></trkpt><trkpt lat="45.8842494328856" lon="9.330361562035497"><ele>216.0</ele><time>2026-04-11T12:43:23.998Z</time></trkpt><trkpt lat="45.884262371742444" lon="9.330147765772276"><ele>217.66666666666669</ele><time>2026-04-11T12:43:24.998Z</time></trkpt><trkpt lat="45.88425336732534" lon="9.329936520474044"><ele>219.33333333333334</ele><time>2026-04-11T12:43:25.998Z</time></trkpt><trkpt lat="45.884274424669115" lon="9.329723875847591"><ele>221.0</ele><time>2026-04-11T12:43:26.998Z</time></trkpt><trkpt lat="45.8842908246428" lon="9.329497046470374"><ele>213.33333333333334</ele><time>2026-04-11T12:43:28Z</time></trkpt><trkpt lat="45.88430908903906" lon="9.329252875311616"><ele>205.66666666666669</ele><time>2026-04-11T12:43:29Z</time></trkpt><trkpt lat="45.884329184874176" lon="9.328984035684108"><ele>198.0</ele><time>2026-04-11T12:43:30Z</time></trkpt><trkpt lat="45.88435154246879" lon="9.328684938317984"><ele>198.0</ele><time>2026-04-11T12:43:31Z</time></trkpt><trkpt lat="45.88437402667752" lon="9.328384146764607"><ele>198.0</ele><time>2026-04-11T12:43:32Z</time></trkpt><trkpt lat="45.88439675932609" lon="9.328080031636754"><ele>198.0</ele><time>2026-04-11T12:43:33Z</time></trkpt><trkpt lat="45.88441439060236" lon="9.32776866969668"><ele>198.33333333333331</ele><time>2026-04-11T12:43:34Z</time></trkpt><trkpt lat="45.88444730806975" lon="9.327454628151989"><ele>198.66666666666666</ele><time>2026-04-11T12:43:35Z</time></trkpt><trkpt lat="45.88448160702938" lon="9.327171543376673"><ele>199.0</ele><time>2026-04-11T12:43:36Z</time></trkpt><trkpt lat="45.88451854548542" lon="9.326914358686654"><ele>199.39999999999998</ele><time>2026-04-11T12:43:37Z</time></trkpt><trkpt lat="45.884551202222774" lon="9.32669804514319"><ele>199.8</ele><time>2026-04-11T12:43:38Z</time></trkpt><trkpt lat="45.88457571315155" lon="9.326532119958733"><ele>200.2</ele><time>2026-04-11T12:43:39Z</time></trkpt><trkpt lat="45.88459657891506" lon="9.32640002182517"><ele>200.60000000000002</ele><time>2026-04-11T12:43:40Z</time></trkpt><trkpt lat="45.88461525551778" lon="9.32628492495562"><ele>201.0</ele><time>2026-04-11T12:43:41Z</time></trkpt><trkpt lat="45.884633721642565" lon="9.326188844720775"><ele>201.0</ele><time>2026-04-11T12:43:42Z</time></trkpt><trkpt lat="45.88465797430285" lon="9.3260115685665"><ele>201.0</ele><time>2026-04-11T12:43:44Z</time></trkpt><trkpt lat="45.88466882089644" lon="9.325917349079067"><ele>201.0</ele><time>2026-04-11T12:43:45Z</time></trkpt><trkpt lat="45.88468591511705" lon="9.325808780568098"><ele>201.0</ele><time>2026-04-11T12:43:46Z</time></trkpt><trkpt lat="45.88471036114921" lon="9.325686600191274"><ele>201.0</ele><time>2026-04-11T12:43:47Z</time></trkpt><trkpt lat="45.88473950414898" lon="9.325559650642832"><ele>202.60000000000002</ele><time>2026-04-11T12:43:48Z</time></trkpt><trkpt lat="45.88477084774068" lon="9.3254285878498"><ele>204.2</ele><time>2026-04-11T12:43:49Z</time></trkpt><trkpt lat="45.88480530672617" lon="9.32529076811585"><ele>205.8</ele><time>2026-04-11T12:43:50Z</time></trkpt><trkpt lat="45.88483802891144" lon="9.325147171040825"><ele>207.39999999999998</ele><time>2026-04-11T12:43:51Z</time></trkpt><trkpt lat="45.884871564757745" lon="9.325001083101489"><ele>209.0</ele><time>2026-04-11T12:43:52Z</time></trkpt><trkpt lat="45.88490550880236" lon="9.3248522845056"><ele>207.79999999999998</ele><time>2026-04-11T12:43:53Z</time></trkpt><trkpt lat="45.8849391377396" lon="9.32470662002091"><ele>206.6</ele><time>2026-04-11T12:43:54Z</time></trkpt><trkpt lat="45.884976936639454" lon="9.324570398631478"><ele>205.4</ele><time>2026-04-11T12:43:55Z</time></trkpt><trkpt lat="45.88502320829892" lon="9.324451319291741"><ele>204.2</ele><time>2026-04-11T12:43:56Z</time></trkpt><trkpt lat="45.885073444518774" lon="9.32434851431603"><ele>203.0</ele><time>2026-04-11T12:43:57Z</time></trkpt><trkpt lat="45.8851390167013" lon="9.324256904085015"><ele>203.00000000000003</ele><time>2026-04-11T12:43:58Z</time></trkpt><trkpt lat="45.88520599890757" lon="9.324162521569427"><ele>203.0</ele><time>2026-04-11T12:43:59Z</time></trkpt><trkpt lat="45.88527697440098" lon="9.32406925206563"><ele>203.0</ele><time>2026-04-11T12:44:00Z</time></trkpt><trkpt lat="45.88534237873226" lon="9.323987129424877"><ele>203.0</ele><time>2026-04-11T12:44:01Z</time></trkpt><trkpt lat="45.88540870023212" lon="9.323919830523527"><ele>203.00000000000003</ele><time>2026-04-11T12:44:02Z</time></trkpt><trkpt lat="45.88547317030514" lon="9.323867701272837"><ele>203.0</ele><time>2026-04-11T12:44:03Z</time></trkpt><trkpt lat="45.885531681398014" lon="9.32382277414865"><ele>202.83333333333334</ele><time>2026-04-11T12:44:04Z</time></trkpt><trkpt lat="45.88564519055754" lon="9.323744200404697"><ele>202.66666666666669</ele><time>2026-04-11T12:44:06Z</time></trkpt><trkpt lat="45.88571323457808" lon="9.323698898653019"><ele>202.5</ele><time>2026-04-11T12:44:07Z</time></trkpt><trkpt lat="45.88578536643344" lon="9.32365195768019"><ele>202.33333333333331</ele><time>2026-04-11T12:44:08Z</time></trkpt><trkpt lat="45.88585969610386" lon="9.32359964807247"><ele>202.16666666666666</ele><time>2026-04-11T12:44:09Z</time></trkpt><trkpt lat="45.88593622630938" lon="9.323549914404433"><ele>202.0</ele><time>2026-04-11T12:44:10Z</time></trkpt><trkpt lat="45.886015226448926" lon="9.323495702161697"><ele>202.0</ele><time>2026-04-11T12:44:11Z</time></trkpt><trkpt lat="45.88610010026937" lon="9.323437268492949"><ele>202.0</ele><time>2026-04-11T12:44:12Z</time></trkpt><trkpt lat="45.88617384044663" lon="9.323342558633446"><ele>202.0</ele><time>2026-04-11T12:44:13Z</time></trkpt><trkpt lat="45.88623262331592" lon="9.323234472789608"><ele>202.0</ele><time>2026-04-11T12:44:14Z</time></trkpt><trkpt lat="45.88628386769168" lon="9.323105149994467"><ele>202.0</ele><time>2026-04-11T12:44:15Z</time></trkpt><trkpt lat="45.88633763474407" lon="9.322981099704457"><ele>207.2</ele><time>2026-04-11T12:44:16Z</time></trkpt><trkpt lat="45.88638773051684" lon="9.322853921801615"><ele>212.39999999999998</ele><time>2026-04-11T12:44:17Z</time></trkpt><trkpt lat="45.88643387636475" lon="9.322733966962584"><ele>217.60000000000002</ele><time>2026-04-11T12:44:18Z</time></trkpt><trkpt lat="45.88648250623672" lon="9.322619288287388"><ele>222.8</ele><time>2026-04-11T12:44:19Z</time></trkpt><trkpt lat="45.886543498998385" lon="9.322511618804727"><ele>228.0</ele><time>2026-04-11T12:44:20Z</time></trkpt><trkpt lat="45.88662925180075" lon="9.322440082432845"><ele>228.0</ele><time>2026-04-11T12:44:21Z</time></trkpt><trkpt lat="45.88675028975806" lon="9.322324414515203"><ele>228.0</ele><time>2026-04-11T12:44:22Z</time></trkpt><trkpt lat="45.88688564290991" lon="9.322146529120145"><ele>228.0</ele><time>2026-04-11T12:44:23Z</time></trkpt><trkpt lat="45.88701296753326" lon="9.32192400714571"><ele>230.66666666666669</ele><time>2026-04-11T12:44:23.999Z</time></trkpt><trkpt lat="45.88717914750765" lon="9.321735970463507"><ele>233.33333333333334</ele><time>2026-04-11T12:44:24.999Z</time></trkpt><trkpt lat="45.887352420898544" lon="9.321547844810429"><ele>236.0</ele><time>2026-04-11T12:44:25.999Z</time></trkpt><trkpt lat="45.88746669470072" lon="9.321327386800052"><ele>236.0</ele><time>2026-04-11T12:44:26.999Z</time></trkpt><trkpt lat="45.88755120178287" lon="9.3210718621881"><ele>236.0</ele><time>2026-04-11T12:44:27.999Z</time></trkpt><trkpt lat="45.887651400801026" lon="9.320831074344111"><ele>236.0</ele><time>2026-04-11T12:44:28.999Z</time></trkpt><trkpt lat="45.88776674037725" lon="9.3206176378951"><ele>233.33333333333334</ele><time>2026-04-11T12:44:29.999Z</time></trkpt><trkpt lat="45.88791016926926" lon="9.320418656962213"><ele>230.66666666666669</ele><time>2026-04-11T12:44:30.999Z</time></trkpt><trkpt lat="45.888038276160046" lon="9.320230686908344"><ele>228.0</ele><time>2026-04-11T12:44:31.999Z</time></trkpt><trkpt lat="45.888165679082135" lon="9.320062642711381"><ele>228.0</ele><time>2026-04-11T12:44:32.999Z</time></trkpt><trkpt lat="45.88832229968464" lon="9.319938950756221"><ele>228.0</ele><time>2026-04-11T12:44:33.999Z</time></trkpt><trkpt lat="45.888478926540444" lon="9.319819188320553"><ele>228.0</ele><time>2026-04-11T12:44:34.999Z</time></trkpt><trkpt lat="45.88862725643703" lon="9.319716337163944"><ele>227.33333333333331</ele><time>2026-04-11T12:44:35.999Z</time></trkpt><trkpt lat="45.888787655215694" lon="9.319668347467948"><ele>226.66666666666666</ele><time>2026-04-11T12:44:36.999Z</time></trkpt><trkpt lat="45.88894214974208" lon="9.319617108209485"><ele>226.0</ele><time>2026-04-11T12:44:37.999Z</time></trkpt><trkpt lat="45.88907674968266" lon="9.31947516179778"><ele>226.0</ele><time>2026-04-11T12:44:38.999Z</time></trkpt><trkpt lat="45.88919364285578" lon="9.319303909675769"><ele>226.0</ele><time>2026-04-11T12:44:39.999Z</time></trkpt><trkpt lat="45.88930354519119" lon="9.31915081068394"><ele>226.0</ele><time>2026-04-11T12:44:40.999Z</time></trkpt><trkpt lat="45.88941661819598" lon="9.319015162937353"><ele>223.5</ele><time>2026-04-11T12:44:41.999Z</time></trkpt><trkpt lat="45.88950092923728" lon="9.3188567988381"><ele>221.0</ele><time>2026-04-11T12:44:42.999Z</time></trkpt><trkpt lat="45.88957330474399" lon="9.318664165437513"><ele>218.5</ele><time>2026-04-11T12:44:43.999Z</time></trkpt><trkpt lat="45.889651303470686" lon="9.318500510544657"><ele>216.0</ele><time>2026-04-11T12:44:44.999Z</time></trkpt><trkpt lat="45.88973199957129" lon="9.318350037738865"><ele>216.0</ele><time>2026-04-11T12:44:45.999Z</time></trkpt><trkpt lat="45.88981031882171" lon="9.3182065015126"><ele>216.0</ele><time>2026-04-11T12:44:46.999Z</time></trkpt><trkpt lat="45.889929922237144" lon="9.318140759638059"><ele>216.0</ele><time>2026-04-11T12:44:47.999Z</time></trkpt><trkpt lat="45.890046179108644" lon="9.31804989757475"><ele>216.0</ele><time>2026-04-11T12:44:48.999Z</time></trkpt><trkpt lat="45.89016172925518" lon="9.317985251877571"><ele>216.60000000000002</ele><time>2026-04-11T12:44:49.999Z</time></trkpt><trkpt lat="45.89026395095036" lon="9.317912181117611"><ele>217.20000000000002</ele><time>2026-04-11T12:44:50.999Z</time></trkpt><trkpt lat="45.890364564152705" lon="9.317848684357154"><ele>217.79999999999998</ele><time>2026-04-11T12:44:51.999Z</time></trkpt><trkpt lat="45.89045033470342" lon="9.317782767786037"><ele>218.39999999999998</ele><time>2026-04-11T12:44:52.999Z</time></trkpt><trkpt lat="45.89052783565276" lon="9.317718321973397"><ele>219.0</ele><time>2026-04-11T12:44:53.999Z</time></trkpt><trkpt lat="45.890605785593564" lon="9.317652625477455"><ele>219.0</ele><time>2026-04-11T12:44:54.999Z</time></trkpt><trkpt lat="45.89068376268907" lon="9.317585320903312"><ele>218.99999999999997</ele><time>2026-04-11T12:44:55.999Z</time></trkpt><trkpt lat="45.89075512939505" lon="9.317496606900871"><ele>218.99999999999997</ele><time>2026-04-11T12:44:56.999Z</time></trkpt><trkpt lat="45.89080929809246" lon="9.317394349192941"><ele>219.0</ele><time>2026-04-11T12:44:57.999Z</time></trkpt><trkpt lat="45.89085522080528" lon="9.317283460943914"><ele>219.0</ele><time>2026-04-11T12:44:58.999Z</time></trkpt><trkpt lat="45.89089818048339" lon="9.317174419632803"><ele>214.79999999999998</ele><time>2026-04-11T12:44:59.999Z</time></trkpt><trkpt lat="45.890950519266084" lon="9.317062825290456"><ele>210.59999999999997</ele><time>2026-04-11T12:45:00.999Z</time></trkpt><trkpt lat="45.89100505873746" lon="9.316953776687383"><ele>206.4</ele><time>2026-04-11T12:45:01.999Z</time></trkpt><trkpt lat="45.89105357172966" lon="9.316842394343798"><ele>202.2</ele><time>2026-04-11T12:45:02.999Z</time></trkpt><trkpt lat="45.89110683139191" lon="9.316730105710445"><ele>198.0</ele><time>2026-04-11T12:45:03.999Z</time></trkpt><trkpt lat="45.891127454598845" lon="9.31658466118853"><ele>198.0</ele><time>2026-04-11T12:45:04.999Z</time></trkpt><trkpt lat="45.89114004920275" lon="9.316441353317662"><ele>198.0</ele><time>2026-04-11T12:45:05.999Z</time></trkpt><trkpt lat="45.89114219930591" lon="9.316298033503948"><ele>198.0</ele><time>2026-04-11T12:45:06.999Z</time></trkpt><trkpt lat="45.89114336395262" lon="9.316152166289683"><ele>198.0</ele><time>2026-04-11T12:45:07.999Z</time></trkpt><trkpt lat="45.89114504609467" lon="9.316006762792968"><ele>198.0</ele><time>2026-04-11T12:45:08.999Z</time></trkpt><trkpt lat="45.8911521890299" lon="9.31587019679759"><ele>198.83333333333334</ele><time>2026-04-11T12:45:09.999Z</time></trkpt><trkpt lat="45.891157306824766" lon="9.315742856968402"><ele>199.66666666666669</ele><time>2026-04-11T12:45:10.999Z</time></trkpt><trkpt lat="45.89116599194971" lon="9.315619461621779"><ele>200.5</ele><time>2026-04-11T12:45:11.999Z</time></trkpt><trkpt lat="45.891192827210965" lon="9.315498170996324"><ele>201.33333333333334</ele><time>2026-04-11T12:45:12.999Z</time></trkpt><trkpt lat="45.891236057121326" lon="9.315387183668872"><ele>202.16666666666669</ele><time>2026-04-11T12:45:13.999Z</time></trkpt><trkpt lat="45.89130387733532" lon="9.315299967067759"><ele>203.0</ele><time>2026-04-11T12:45:14.999Z</time></trkpt><trkpt lat="45.89138866591486" lon="9.315233155400906"><ele>204.50000000000003</ele><time>2026-04-11T12:45:15.999Z</time></trkpt><trkpt lat="45.89147523509058" lon="9.315208598811848"><ele>206.0</ele><time>2026-04-11T12:45:16.999Z</time></trkpt><trkpt lat="45.8915674848155" lon="9.315200795005696"><ele>207.5</ele><time>2026-04-11T12:45:17.999Z</time></trkpt><trkpt lat="45.89166036933534" lon="9.315196781425392"><ele>209.0</ele><time>2026-04-11T12:45:18.999Z</time></trkpt><trkpt lat="45.89174705273091" lon="9.315190249550751"><ele>210.50000000000003</ele><time>2026-04-11T12:45:19.999Z</time></trkpt><trkpt lat="45.89182428578654" lon="9.315180979539573"><ele>212.0</ele><time>2026-04-11T12:45:20.999Z</time></trkpt><trkpt lat="45.891899528621636" lon="9.315173793697841"><ele>212.0</ele><time>2026-04-11T12:45:21.999Z</time></trkpt><trkpt lat="45.891982870532814" lon="9.315167687574043"><ele>212.0</ele><time>2026-04-11T12:45:22.999Z</time></trkpt><trkpt lat="45.89207006560864" lon="9.315149581558279"><ele>212.0</ele><time>2026-04-11T12:45:23.999Z</time></trkpt><trkpt lat="45.892158545513006" lon="9.315114146008085"><ele>212.0</ele><time>2026-04-11T12:45:24.999Z</time></trkpt><trkpt lat="45.89225157893107" lon="9.315071837705378"><ele>212.0</ele><time>2026-04-11T12:45:25.999Z</time></trkpt><trkpt lat="45.89234015532471" lon="9.315023806800705"><ele>212.0</ele><time>2026-04-11T12:45:26.999Z</time></trkpt><trkpt lat="45.89242767308514" lon="9.314965044880156"><ele>212.0</ele><time>2026-04-11T12:45:27.999Z</time></trkpt><trkpt lat="45.89251648066721" lon="9.314898021915274"><ele>212.0</ele><time>2026-04-11T12:45:28.999Z</time></trkpt><trkpt lat="45.892607728320534" lon="9.314828894208478"><ele>212.0</ele><time>2026-04-11T12:45:29.999Z</time></trkpt><trkpt lat="45.89269786403748" lon="9.314759181538022"><ele>212.0</ele><time>2026-04-11T12:45:30.999Z</time></trkpt><trkpt lat="45.892778945897426" lon="9.314697368225469"><ele>213.8</ele><time>2026-04-11T12:45:31.999Z</time></trkpt><trkpt lat="45.89286157076924" lon="9.314641755489935"><ele>215.6</ele><time>2026-04-11T12:45:33Z</time></trkpt><trkpt lat="45.89294180923805" lon="9.314587473532594"><ele>217.40000000000003</ele><time>2026-04-11T12:45:34Z</time></trkpt><trkpt lat="45.89301233072092" lon="9.314507233072312"><ele>219.20000000000002</ele><time>2026-04-11T12:45:35Z</time></trkpt><trkpt lat="45.89307763767893" lon="9.314409106133208"><ele>221.0</ele><time>2026-04-11T12:45:36Z</time></trkpt><trkpt lat="45.89313524290501" lon="9.314296133234272"><ele>221.0</ele><time>2026-04-11T12:45:37Z</time></trkpt><trkpt lat="45.8931887988736" lon="9.31417393853608"><ele>221.00000000000003</ele><time>2026-04-11T12:45:38Z</time></trkpt><trkpt lat="45.89325381247627" lon="9.314049395658635"><ele>221.00000000000003</ele><time>2026-04-11T12:45:39Z</time></trkpt><trkpt lat="45.893333641055214" lon="9.313926705483356"><ele>221.0</ele><time>2026-04-11T12:45:40Z</time></trkpt><trkpt lat="45.89343024160952" lon="9.31381682710179"><ele>221.0</ele><time>2026-04-11T12:45:41Z</time></trkpt><trkpt lat="45.893529001803415" lon="9.31370925450686"><ele>224.25</ele><time>2026-04-11T12:45:42Z</time></trkpt><trkpt lat="45.89362719141882" lon="9.31359592075094"><ele>227.5</ele><time>2026-04-11T12:45:43Z</time></trkpt><trkpt lat="45.89373246327351" lon="9.313492850085463"><ele>230.75</ele><time>2026-04-11T12:45:44Z</time></trkpt><trkpt lat="45.89384580711242" lon="9.313398227259745"><ele>234.0</ele><time>2026-04-11T12:45:45Z</time></trkpt><trkpt lat="45.893965329101725" lon="9.313315195644037"><ele>234.0</ele><time>2026-04-11T12:45:46Z</time></trkpt><trkpt lat="45.894086345093534" lon="9.313245106268798"><ele>234.0</ele><time>2026-04-11T12:45:47Z</time></trkpt><trkpt lat="45.89420133398596" lon="9.313188635959795"><ele>234.0</ele><time>2026-04-11T12:45:48Z</time></trkpt><trkpt lat="45.89430955207485" lon="9.313143825580221"><ele>234.0</ele><time>2026-04-11T12:45:49Z</time></trkpt><trkpt lat="45.89441503781793" lon="9.313130629927112"><ele>233.6</ele><time>2026-04-11T12:45:50Z</time></trkpt><trkpt lat="45.894512649923335" lon="9.313138182211606"><ele>233.2</ele><time>2026-04-11T12:45:51Z</time></trkpt><trkpt lat="45.894604239158966" lon="9.313130993492738"><ele>232.79999999999998</ele><time>2026-04-11T12:45:52Z</time></trkpt><trkpt lat="45.894709868914376" lon="9.31308210802306"><ele>232.39999999999998</ele><time>2026-04-11T12:45:53Z</time></trkpt><trkpt lat="45.89481935041408" lon="9.312992674394957"><ele>232.0</ele><time>2026-04-11T12:45:54Z</time></trkpt><trkpt lat="45.894910255901316" lon="9.312885826181594"><ele>232.0</ele><time>2026-04-11T12:45:55Z</time></trkpt><trkpt lat="45.89502820114769" lon="9.31279660964913"><ele>232.0</ele><time>2026-04-11T12:45:56Z</time></trkpt><trkpt lat="45.895154496849585" lon="9.312661080807947"><ele>232.0</ele><time>2026-04-11T12:45:57Z</time></trkpt><trkpt lat="45.89532629420217" lon="9.312519799977801"><ele>235.5</ele><time>2026-04-11T12:45:58Z</time></trkpt><trkpt lat="45.895522365829606" lon="9.31236594499232"><ele>239.0</ele><time>2026-04-11T12:45:59Z</time></trkpt><trkpt lat="45.89572494105279" lon="9.312212535156979"><ele>221.5</ele><time>2026-04-11T12:46:00Z</time></trkpt><trkpt lat="45.89593445881891" lon="9.312050553516528"><ele>204.0</ele><time>2026-04-11T12:46:01Z</time></trkpt><trkpt lat="45.89614198973067" lon="9.311873782193144"><ele>204.0</ele><time>2026-04-11T12:46:02Z</time></trkpt><trkpt lat="45.89634507979612" lon="9.311696082042458"><ele>204.0</ele><time>2026-04-11T12:46:03Z</time></trkpt><trkpt lat="45.896530282355656" lon="9.311529693994963"><ele>208.0</ele><time>2026-04-11T12:46:04Z</time></trkpt><trkpt lat="45.89670373226184" lon="9.311374663364365"><ele>212.0</ele><time>2026-04-11T12:46:05Z</time></trkpt><trkpt lat="45.89686132140389" lon="9.311228593175125"><ele>216.0</ele><time>2026-04-11T12:46:06Z</time></trkpt><trkpt lat="45.89700334816443" lon="9.311106149561363"><ele>216.0</ele><time>2026-04-11T12:46:07Z</time></trkpt><trkpt lat="45.89712616220706" lon="9.310991620257546"><ele>216.0</ele><time>2026-04-11T12:46:08Z</time></trkpt><trkpt lat="45.897238683212834" lon="9.310901644424417"><ele>216.0</ele><time>2026-04-11T12:46:09Z</time></trkpt><trkpt lat="45.89735815339239" lon="9.310868583394006"><ele>216.0</ele><time>2026-04-11T12:46:10Z</time></trkpt><trkpt lat="45.897488464230726" lon="9.310867235092829"><ele>214.16666666666666</ele><time>2026-04-11T12:46:11Z</time></trkpt><trkpt lat="45.897594981088915" lon="9.310879924553031"><ele>212.33333333333331</ele><time>2026-04-11T12:46:12Z</time></trkpt><trkpt lat="45.89767070419406" lon="9.310890877381881"><ele>210.5</ele><time>2026-04-11T12:46:13Z</time></trkpt><trkpt lat="45.89773755596439" lon="9.310895266408505"><ele>208.66666666666666</ele><time>2026-04-11T12:46:14Z</time></trkpt><trkpt lat="45.89780250846666" lon="9.310898047757778"><ele>206.83333333333331</ele><time>2026-04-11T12:46:15Z</time></trkpt><trkpt lat="45.897872110115394" lon="9.310899400960116"><ele>205.0</ele><time>2026-04-11T12:46:16Z</time></trkpt><trkpt lat="45.8979447087704" lon="9.310887866824533"><ele>204.99999999999997</ele><time>2026-04-11T12:46:17Z</time></trkpt><trkpt lat="45.89802457813476" lon="9.310857804978278"><ele>205.0</ele><time>2026-04-11T12:46:18Z</time></trkpt><trkpt lat="45.89811101884994" lon="9.310813576931416"><ele>205.0</ele><time>2026-04-11T12:46:19Z</time></trkpt><trkpt lat="45.89819698714494" lon="9.310763731364746"><ele>205.0</ele><time>2026-04-11T12:46:20Z</time></trkpt><trkpt lat="45.89827799712888" lon="9.310700915831504"><ele>204.99999999999997</ele><time>2026-04-11T12:46:21Z</time></trkpt><trkpt lat="45.89835152655642" lon="9.310628525389378"><ele>205.0</ele><time>2026-04-11T12:46:22Z</time></trkpt><trkpt lat="45.89841155272738" lon="9.310559141375872"><ele>203.6</ele><time>2026-04-11T12:46:23Z</time></trkpt><trkpt lat="45.89847515607129" lon="9.310458009994411"><ele>202.2</ele><time>2026-04-11T12:46:24.999Z</time></trkpt><trkpt lat="45.8985199640488" lon="9.310339320332535"><ele>200.8</ele><time>2026-04-11T12:46:26.999Z</time></trkpt><trkpt lat="45.89855402065088" lon="9.31016612319598"><ele>199.4</ele><time>2026-04-11T12:46:28.999Z</time></trkpt><trkpt lat="45.89856810191566" lon="9.31006575408452"><ele>198.0</ele><time>2026-04-11T12:46:29.999Z</time></trkpt><trkpt lat="45.89858241017947" lon="9.309951313296077"><ele>198.0</ele><time>2026-04-11T12:46:30.999Z</time></trkpt><trkpt lat="45.89860274703363" lon="9.309822588061538"><ele>198.0</ele><time>2026-04-11T12:46:31.999Z</time></trkpt><trkpt lat="45.89861844788111" lon="9.309682381802126"><ele>198.0</ele><time>2026-04-11T12:46:32.999Z</time></trkpt><trkpt lat="45.89864772003535" lon="9.309532237495755"><ele>198.0</ele><time>2026-04-11T12:46:33.999Z</time></trkpt><trkpt lat="45.89867190669162" lon="9.30936014164952"><ele>198.0</ele><time>2026-04-11T12:46:34.999Z</time></trkpt><trkpt lat="45.89870642722838" lon="9.309152152484325"><ele>198.33333333333331</ele><time>2026-04-11T12:46:35.999Z</time></trkpt><trkpt lat="45.89877288660579" lon="9.308916314883454"><ele>198.66666666666666</ele><time>2026-04-11T12:46:36.999Z</time></trkpt><trkpt lat="45.89884032057524" lon="9.308652958748608"><ele>199.0</ele><time>2026-04-11T12:46:37.999Z</time></trkpt><trkpt lat="45.898929100517236" lon="9.308405394695223"><ele>201.66666666666666</ele><time>2026-04-11T12:46:38.999Z</time></trkpt><trkpt lat="45.899007123341015" lon="9.308153446832662"><ele>204.33333333333331</ele><time>2026-04-11T12:46:39.999Z</time></trkpt><trkpt lat="45.89908704320517" lon="9.307895038961291"><ele>207.0</ele><time>2026-04-11T12:46:40.999Z</time></trkpt><trkpt lat="45.89922077374535" lon="9.307667737376274"><ele>208.5</ele><time>2026-04-11T12:46:41.999Z</time></trkpt><trkpt lat="45.899360990785446" lon="9.307413520413515"><ele>210.0</ele><time>2026-04-11T12:46:42.999Z</time></trkpt><trkpt lat="45.89950740692888" lon="9.307147857072147"><ele>210.0</ele><time>2026-04-11T12:46:43.999Z</time></trkpt><trkpt lat="45.89965301334285" lon="9.306883662799834"><ele>210.0</ele><time>2026-04-11T12:46:44.999Z</time></trkpt><trkpt lat="45.89979541139661" lon="9.306628299296419"><ele>208.33333333333331</ele><time>2026-04-11T12:46:45.999Z</time></trkpt><trkpt lat="45.899945021238324" lon="9.30639311036622"><ele>206.66666666666666</ele><time>2026-04-11T12:46:46.999Z</time></trkpt><trkpt lat="45.90011509560921" lon="9.306192221090404"><ele>205.0</ele><time>2026-04-11T12:46:47.999Z</time></trkpt><trkpt lat="45.9002729353336" lon="9.30600666939702"><ele>205.0</ele><time>2026-04-11T12:46:48.999Z</time></trkpt><trkpt lat="45.900403757309846" lon="9.305821452767313"><ele>205.0</ele><time>2026-04-11T12:46:49.999Z</time></trkpt><trkpt lat="45.900544318218856" lon="9.305631410726841"><ele>205.0</ele><time>2026-04-11T12:46:50.999Z</time></trkpt><trkpt lat="45.90065301437659" lon="9.30539807603456"><ele>204.33333333333331</ele><time>2026-04-11T12:46:51.999Z</time></trkpt><trkpt lat="45.90075766979813" lon="9.305160827927784"><ele>203.66666666666669</ele><time>2026-04-11T12:46:52.999Z</time></trkpt><trkpt lat="45.900847601621265" lon="9.304917155561695"><ele>203.0</ele><time>2026-04-11T12:46:53.999Z</time></trkpt><trkpt lat="45.90096024339173" lon="9.30469021008921"><ele>203.0</ele><time>2026-04-11T12:46:54.999Z</time></trkpt><trkpt lat="45.901096230370314" lon="9.304482698335217"><ele>203.0</ele><time>2026-04-11T12:46:55.999Z</time></trkpt><trkpt lat="45.90122048474551" lon="9.304252767812603"><ele>203.0</ele><time>2026-04-11T12:46:56.999Z</time></trkpt><trkpt lat="45.90135403762338" lon="9.304042173858807"><ele>207.33333333333334</ele><time>2026-04-11T12:46:57.999Z</time></trkpt><trkpt lat="45.90147863447801" lon="9.303835806699933"><ele>211.66666666666669</ele><time>2026-04-11T12:46:58.999Z</time></trkpt><trkpt lat="45.90159520637061" lon="9.303641568892886"><ele>216.0</ele><time>2026-04-11T12:46:59.999Z</time></trkpt><trkpt lat="45.901694804342924" lon="9.30346201366905"><ele>213.0</ele><time>2026-04-11T12:47:00.999Z</time></trkpt><trkpt lat="45.90177604258866" lon="9.303298055050325"><ele>210.0</ele><time>2026-04-11T12:47:01.999Z</time></trkpt><trkpt lat="45.90183738548116" lon="9.303154586170113"><ele>207.0</ele><time>2026-04-11T12:47:02.999Z</time></trkpt><trkpt lat="45.90189550567671" lon="9.303019959031133"><ele>204.0</ele><time>2026-04-11T12:47:03.999Z</time></trkpt><trkpt lat="45.90194857639717" lon="9.302891545163842"><ele>204.0</ele><time>2026-04-11T12:47:04.999Z</time></trkpt><trkpt lat="45.902002881022106" lon="9.302766738151078"><ele>204.0</ele><time>2026-04-11T12:47:05.999Z</time></trkpt><trkpt lat="45.90205579223415" lon="9.302645430343405"><ele>204.0</ele><time>2026-04-11T12:47:06.999Z</time></trkpt><trkpt lat="45.902109886859606" lon="9.30253077761338"><ele>204.0</ele><time>2026-04-11T12:47:07.999Z</time></trkpt><trkpt lat="45.902162700886834" lon="9.302411696151546"><ele>204.0</ele><time>2026-04-11T12:47:08.999Z</time></trkpt><trkpt lat="45.90222330242093" lon="9.302291965626482"><ele>205.0</ele><time>2026-04-11T12:47:09.999Z</time></trkpt><trkpt lat="45.90228666906704" lon="9.302173610654524"><ele>206.0</ele><time>2026-04-11T12:47:10.999Z</time></trkpt><trkpt lat="45.90234519558332" lon="9.302060185417824"><ele>207.0</ele><time>2026-04-11T12:47:11.999Z</time></trkpt><trkpt lat="45.902398213626086" lon="9.301957854193693"><ele>208.0</ele><time>2026-04-11T12:47:12.999Z</time></trkpt><trkpt lat="45.90244924022101" lon="9.301862264987548"><ele>209.0</ele><time>2026-04-11T12:47:13.999Z</time></trkpt><trkpt lat="45.9025007360181" lon="9.3017710832691"><ele>209.0</ele><time>2026-04-11T12:47:14.999Z</time></trkpt><trkpt lat="45.90255240480265" lon="9.30167743969914"><ele>209.0</ele><time>2026-04-11T12:47:15.999Z</time></trkpt><trkpt lat="45.9026078964063" lon="9.301580474914296"><ele>209.0</ele><time>2026-04-11T12:47:16.999Z</time></trkpt><trkpt lat="45.90267112739831" lon="9.301488482644087"><ele>209.0</ele><time>2026-04-11T12:47:17.999Z</time></trkpt><trkpt lat="45.90274777570013" lon="9.301412225704388"><ele>209.0</ele><time>2026-04-11T12:47:18.999Z</time></trkpt><trkpt lat="45.902836646473475" lon="9.301355915521052"><ele>208.39999999999998</ele><time>2026-04-11T12:47:19.999Z</time></trkpt><trkpt lat="45.9029353949281" lon="9.301340975790426"><ele>207.8</ele><time>2026-04-11T12:47:20.999Z</time></trkpt><trkpt lat="45.90303409532069" lon="9.30128375199427"><ele>207.2</ele><time>2026-04-11T12:47:21.999Z</time></trkpt><trkpt lat="45.90313545958964" lon="9.301253362995848"><ele>206.60000000000002</ele><time>2026-04-11T12:47:22.999Z</time></trkpt><trkpt lat="45.903240416549814" lon="9.301223224169188"><ele>206.0</ele><time>2026-04-11T12:47:23.999Z</time></trkpt><trkpt lat="45.90334049587708" lon="9.301188194925773"><ele>204.8</ele><time>2026-04-11T12:47:24.999Z</time></trkpt><trkpt lat="45.903435382869496" lon="9.30115391340344"><ele>203.60000000000002</ele><time>2026-04-11T12:47:25.999Z</time></trkpt><trkpt lat="45.90352662242428" lon="9.301119375957727"><ele>202.4</ele><time>2026-04-11T12:47:26.999Z</time></trkpt><trkpt lat="45.903622841989076" lon="9.301081412580977"><ele>201.2</ele><time>2026-04-11T12:47:27.999Z</time></trkpt><trkpt lat="45.90372520883213" lon="9.301037350033138"><ele>200.0</ele><time>2026-04-11T12:47:28.999Z</time></trkpt><trkpt lat="45.903829846928375" lon="9.300975194770318"><ele>200.0</ele><time>2026-04-11T12:47:29.999Z</time></trkpt><trkpt lat="45.9039379321458" lon="9.300893073355036"><ele>200.0</ele><time>2026-04-11T12:47:30.999Z</time></trkpt><trkpt lat="45.90403130601296" lon="9.300801022529317"><ele>200.0</ele><time>2026-04-11T12:47:31.999Z</time></trkpt><trkpt lat="45.9041177697913" lon="9.300709769211243"><ele>200.0</ele><time>2026-04-11T12:47:32.999Z</time></trkpt><trkpt lat="45.90420748538725" lon="9.300613966645901"><ele>200.25</ele><time>2026-04-11T12:47:33.999Z</time></trkpt><trkpt lat="45.904299046835064" lon="9.300512608170328"><ele>200.5</ele><time>2026-04-11T12:47:34.999Z</time></trkpt><trkpt lat="45.904391823324424" lon="9.300407109842709"><ele>200.75</ele><time>2026-04-11T12:47:35.999Z</time></trkpt><trkpt lat="45.90448365446292" lon="9.300300061100948"><ele>201.0</ele><time>2026-04-11T12:47:36.999Z</time></trkpt><trkpt lat="45.90456868600845" lon="9.300197370771587"><ele>201.0</ele><time>2026-04-11T12:47:37.999Z</time></trkpt><trkpt lat="45.90465516639066" lon="9.300094757999815"><ele>201.0</ele><time>2026-04-11T12:47:39Z</time></trkpt><trkpt lat="45.90474777971148" lon="9.299996958870066"><ele>201.0</ele><time>2026-04-11T12:47:40Z</time></trkpt><trkpt lat="45.90484841373597" lon="9.299912572930785"><ele>201.0</ele><time>2026-04-11T12:47:41Z</time></trkpt><trkpt lat="45.90496666302288" lon="9.29987028638073"><ele>200.33333333333331</ele><time>2026-04-11T12:47:42Z</time></trkpt><trkpt lat="45.905113729700524" lon="9.2998166474836"><ele>199.66666666666666</ele><time>2026-04-11T12:47:43Z</time></trkpt><trkpt lat="45.90526750529679" lon="9.299741536489359"><ele>199.0</ele><time>2026-04-11T12:47:44Z</time></trkpt><trkpt lat="45.905450270952365" lon="9.299689380829658"><ele>199.33333333333331</ele><time>2026-04-11T12:47:45Z</time></trkpt><trkpt lat="45.90563397789236" lon="9.299563239493025"><ele>199.66666666666669</ele><time>2026-04-11T12:47:46Z</time></trkpt><trkpt lat="45.90581347515592" lon="9.299405303510829"><ele>200.0</ele><time>2026-04-11T12:47:47Z</time></trkpt><trkpt lat="45.90599242524594" lon="9.299235722287468"><ele>200.0</ele><time>2026-04-11T12:47:48Z</time></trkpt><trkpt lat="45.90617341193796" lon="9.299065644195968"><ele>200.0</ele><time>2026-04-11T12:47:49Z</time></trkpt><trkpt lat="45.906356291069685" lon="9.29889485555946"><ele>200.0</ele><time>2026-04-11T12:47:50Z</time></trkpt><trkpt lat="45.90653934040862" lon="9.298728887230634"><ele>200.0</ele><time>2026-04-11T12:47:51Z</time></trkpt><trkpt lat="45.906722652640205" lon="9.2985631713408"><ele>200.0</ele><time>2026-04-11T12:47:52Z</time></trkpt><trkpt lat="45.90690734509583" lon="9.29839422829031"><ele>200.0</ele><time>2026-04-11T12:47:53Z</time></trkpt><trkpt lat="45.9070930559355" lon="9.298226258657209"><ele>200.33333333333334</ele><time>2026-04-11T12:47:54Z</time></trkpt><trkpt lat="45.90727638794658" lon="9.298062324705871"><ele>200.66666666666669</ele><time>2026-04-11T12:47:55Z</time></trkpt><trkpt lat="45.907459162616725" lon="9.297898282067518"><ele>201.0</ele><time>2026-04-11T12:47:56Z</time></trkpt><trkpt lat="45.90764319814271" lon="9.297732695794279"><ele>201.0</ele><time>2026-04-11T12:47:57Z</time></trkpt><trkpt lat="45.90782626250358" lon="9.297569789378983"><ele>201.0</ele><time>2026-04-11T12:47:58Z</time></trkpt><trkpt lat="45.90801041968113" lon="9.297404977264478"><ele>201.0</ele><time>2026-04-11T12:47:59Z</time></trkpt><trkpt lat="45.908193189353256" lon="9.297236330280056"><ele>201.0</ele><time>2026-04-11T12:48:00Z</time></trkpt><trkpt lat="45.90837842160518" lon="9.297065770174038"><ele>201.0</ele><time>2026-04-11T12:48:01Z</time></trkpt><trkpt lat="45.908564811583084" lon="9.29689384498399"><ele>201.0</ele><time>2026-04-11T12:48:02Z</time></trkpt><trkpt lat="45.908749266826995" lon="9.296725799074624"><ele>201.0</ele><time>2026-04-11T12:48:03Z</time></trkpt><trkpt lat="45.90892515369837" lon="9.296571737164752"><ele>201.0</ele><time>2026-04-11T12:48:04Z</time></trkpt><trkpt lat="45.90908427276974" lon="9.296416612835111"><ele>201.0</ele><time>2026-04-11T12:48:05Z</time></trkpt><trkpt lat="45.90922025057499" lon="9.29622650030137"><ele>200.33333333333331</ele><time>2026-04-11T12:48:06Z</time></trkpt><trkpt lat="45.909332836356576" lon="9.29599136624885"><ele>199.66666666666666</ele><time>2026-04-11T12:48:07Z</time></trkpt><trkpt lat="45.909442710192046" lon="9.295745005516375"><ele>199.0</ele><time>2026-04-11T12:48:08Z</time></trkpt><trkpt lat="45.90954232252037" lon="9.295489128429715"><ele>200.33333333333331</ele><time>2026-04-11T12:48:09Z</time></trkpt><trkpt lat="45.909645030217135" lon="9.295243223418762"><ele>201.66666666666669</ele><time>2026-04-11T12:48:10Z</time></trkpt><trkpt lat="45.90975608172266" lon="9.295009136354988"><ele>203.0</ele><time>2026-04-11T12:48:11Z</time></trkpt><trkpt lat="45.90988069689945" lon="9.294798530212589"><ele>203.66666666666669</ele><time>2026-04-11T12:48:12Z</time></trkpt><trkpt lat="45.91002943586205" lon="9.294613843348268"><ele>204.33333333333331</ele><time>2026-04-11T12:48:13Z</time></trkpt><trkpt lat="45.910189713600694" lon="9.294468145473708"><ele>205.0</ele><time>2026-04-11T12:48:14Z</time></trkpt><trkpt lat="45.910356898930615" lon="9.294344138977213"><ele>205.0</ele><time>2026-04-11T12:48:15Z</time></trkpt><trkpt lat="45.91051963285838" lon="9.294233425849136"><ele>205.0</ele><time>2026-04-11T12:48:16Z</time></trkpt><trkpt lat="45.910686393726316" lon="9.29413723774523"><ele>205.0</ele><time>2026-04-11T12:48:17Z</time></trkpt><trkpt lat="45.91085742734199" lon="9.294072967792456"><ele>204.33333333333331</ele><time>2026-04-11T12:48:18Z</time></trkpt><trkpt lat="45.91101980982647" lon="9.294020996024697"><ele>203.66666666666669</ele><time>2026-04-11T12:48:19Z</time></trkpt><trkpt lat="45.911171680026776" lon="9.293971378153932"><ele>203.0</ele><time>2026-04-11T12:48:20Z</time></trkpt><trkpt lat="45.911321027366085" lon="9.293945598533243"><ele>203.0</ele><time>2026-04-11T12:48:21Z</time></trkpt><trkpt lat="45.911471558052355" lon="9.293936777990107"><ele>203.0</ele><time>2026-04-11T12:48:22Z</time></trkpt><trkpt lat="45.91161642947736" lon="9.293930426760062"><ele>203.0</ele><time>2026-04-11T12:48:23Z</time></trkpt><trkpt lat="45.91174722382465" lon="9.293912990211952"><ele>203.0</ele><time>2026-04-11T12:48:24Z</time></trkpt><trkpt lat="45.911866416208525" lon="9.293899622856589"><ele>204.0</ele><time>2026-04-11T12:48:25Z</time></trkpt><trkpt lat="45.911979124909905" lon="9.293906616183497"><ele>205.0</ele><time>2026-04-11T12:48:26Z</time></trkpt><trkpt lat="45.91207587602962" lon="9.293898419552804"><ele>206.0</ele><time>2026-04-11T12:48:26.999Z</time></trkpt><trkpt lat="45.912160150031056" lon="9.293749768090695"><ele>207.0</ele><time>2026-04-11T12:48:27.999Z</time></trkpt><trkpt lat="45.912241283007546" lon="9.293696695450954"><ele>208.0</ele><time>2026-04-11T12:48:28.999Z</time></trkpt><trkpt lat="45.91232563543019" lon="9.293643772833093"><ele>208.0</ele><time>2026-04-11T12:48:29.999Z</time></trkpt><trkpt lat="45.91241452814329" lon="9.293587091230645"><ele>208.0</ele><time>2026-04-11T12:48:30.999Z</time></trkpt><trkpt lat="45.912506537897706" lon="9.293529983158356"><ele>208.0</ele><time>2026-04-11T12:48:31.999Z</time></trkpt><trkpt lat="45.912601663679865" lon="9.293472838784746"><ele>208.0</ele><time>2026-04-11T12:48:32.999Z</time></trkpt><trkpt lat="45.91269803498682" lon="9.293414802865705"><ele>208.0</ele><time>2026-04-11T12:48:33.999Z</time></trkpt><trkpt lat="45.912795093124934" lon="9.293351799493225"><ele>208.75</ele><time>2026-04-11T12:48:34.999Z</time></trkpt><trkpt lat="45.91289915175555" lon="9.293289475148368"><ele>209.5</ele><time>2026-04-11T12:48:35.999Z</time></trkpt><trkpt lat="45.91302711470962" lon="9.29321594095869"><ele>210.25</ele><time>2026-04-11T12:48:36.999Z</time></trkpt><trkpt lat="45.91317670228148" lon="9.293137855154948"><ele>211.0</ele><time>2026-04-11T12:48:37.999Z</time></trkpt><trkpt lat="45.91333086547368" lon="9.29307651311015"><ele>209.33333333333331</ele><time>2026-04-11T12:48:38.999Z</time></trkpt><trkpt lat="45.91349247513276" lon="9.293023563059146"><ele>207.66666666666669</ele><time>2026-04-11T12:48:39.999Z</time></trkpt><trkpt lat="45.913659744591776" lon="9.292976928739428"><ele>206.0</ele><time>2026-04-11T12:48:40.999Z</time></trkpt><trkpt lat="45.91382981208117" lon="9.292942513155602"><ele>206.0</ele><time>2026-04-11T12:48:41.999Z</time></trkpt><trkpt lat="45.91400184032688" lon="9.292930496302102"><ele>206.0</ele><time>2026-04-11T12:48:42.999Z</time></trkpt><trkpt lat="45.91418008713041" lon="9.292953682998533"><ele>206.0</ele><time>2026-04-11T12:48:43.999Z</time></trkpt><trkpt lat="45.91435721976338" lon="9.29298843257824"><ele>205.66666666666669</ele><time>2026-04-11T12:48:44.999Z</time></trkpt><trkpt lat="45.9145346865615" lon="9.29301471423276"><ele>205.33333333333331</ele><time>2026-04-11T12:48:45.999Z</time></trkpt><trkpt lat="45.914711867036196" lon="9.293034071962525"><ele>205.0</ele><time>2026-04-11T12:48:46.999Z</time></trkpt><trkpt lat="45.91488720014494" lon="9.293011551970462"><ele>205.0</ele><time>2026-04-11T12:48:47.999Z</time></trkpt><trkpt lat="45.91505838668926" lon="9.292946192911892"><ele>205.0</ele><time>2026-04-11T12:48:48.999Z</time></trkpt><trkpt lat="45.915224768409175" lon="9.292855759473783"><ele>205.0</ele><time>2026-04-11T12:48:49.999Z</time></trkpt><trkpt lat="45.91539204393452" lon="9.292760073437938"><ele>204.0</ele><time>2026-04-11T12:48:50.999Z</time></trkpt><trkpt lat="45.915557987356316" lon="9.29266320814988"><ele>203.0</ele><time>2026-04-11T12:48:51.999Z</time></trkpt><trkpt lat="45.91572070302723" lon="9.292552542349112"><ele>202.0</ele><time>2026-04-11T12:48:52.999Z</time></trkpt><trkpt lat="45.915882536579225" lon="9.292419593743142"><ele>201.0</ele><time>2026-04-11T12:48:53.999Z</time></trkpt><trkpt lat="45.91604310669946" lon="9.292288600954116"><ele>200.0</ele><time>2026-04-11T12:48:54.999Z</time></trkpt><trkpt lat="45.916196314017455" lon="9.29216151656241"><ele>199.0</ele><time>2026-04-11T12:48:55.999Z</time></trkpt><trkpt lat="45.916349935165016" lon="9.292031665932315"><ele>199.0</ele><time>2026-04-11T12:48:56.999Z</time></trkpt><trkpt lat="45.916504594110854" lon="9.291901474833947"><ele>199.0</ele><time>2026-04-11T12:48:57.999Z</time></trkpt><trkpt lat="45.91665786344644" lon="9.29177106583093"><ele>199.0</ele><time>2026-04-11T12:48:58.999Z</time></trkpt><trkpt lat="45.91679577960414" lon="9.291628625506934"><ele>199.0</ele><time>2026-04-11T12:48:59.999Z</time></trkpt><trkpt lat="45.916925520114" lon="9.291499513587587"><ele>199.0</ele><time>2026-04-11T12:49:00.999Z</time></trkpt><trkpt lat="45.917041010075465" lon="9.291365762467134"><ele>199.0</ele><time>2026-04-11T12:49:01.999Z</time></trkpt><trkpt lat="45.91713886659352" lon="9.29123415451157"><ele>199.0</ele><time>2026-04-11T12:49:02.999Z</time></trkpt><trkpt lat="45.91721107762885" lon="9.29111059425292"><ele>200.6</ele><time>2026-04-11T12:49:03.999Z</time></trkpt><trkpt lat="45.91727409999706" lon="9.290989169388219"><ele>202.2</ele><time>2026-04-11T12:49:04.999Z</time></trkpt><trkpt lat="45.91733871357271" lon="9.290869410296088"><ele>203.79999999999998</ele><time>2026-04-11T12:49:05.999Z</time></trkpt><trkpt lat="45.91740943927424" lon="9.290740585973534"><ele>205.39999999999998</ele><time>2026-04-11T12:49:06.999Z</time></trkpt><trkpt lat="45.917483014942896" lon="9.290611980096136"><ele>207.0</ele><time>2026-04-11T12:49:07.999Z</time></trkpt><trkpt lat="45.917560926248875" lon="9.290495674249705"><ele>206.39999999999998</ele><time>2026-04-11T12:49:08.999Z</time></trkpt><trkpt lat="45.91764110243446" lon="9.290397239588973"><ele>205.79999999999998</ele><time>2026-04-11T12:49:09.999Z</time></trkpt><trkpt lat="45.91772412515613" lon="9.290304290154301"><ele>205.2</ele><time>2026-04-11T12:49:10.999Z</time></trkpt><trkpt lat="45.91781339681749" lon="9.290212521466824"><ele>204.6</ele><time>2026-04-11T12:49:11.999Z</time></trkpt><trkpt lat="45.917909930274604" lon="9.290130583758103"><ele>204.0</ele><time>2026-04-11T12:49:12.999Z</time></trkpt><trkpt lat="45.91801430434934" lon="9.290062532554948"><ele>204.0</ele><time>2026-04-11T12:49:13.999Z</time></trkpt><trkpt lat="45.9181276741157" lon="9.290004374423372"><ele>204.0</ele><time>2026-04-11T12:49:14.999Z</time></trkpt><trkpt lat="45.91823474084391" lon="9.289934999542673"><ele>204.0</ele><time>2026-04-11T12:49:15.999Z</time></trkpt><trkpt lat="45.918335496576745" lon="9.28983341051134"><ele>204.0</ele><time>2026-04-11T12:49:16.999Z</time></trkpt><trkpt lat="45.91843337215997" lon="9.289715835391233"><ele>206.0</ele><time>2026-04-11T12:49:17.999Z</time></trkpt><trkpt lat="45.91853071219645" lon="9.289606550526788"><ele>208.0</ele><time>2026-04-11T12:49:18.999Z</time></trkpt><trkpt lat="45.91864119091424" lon="9.289522272349434"><ele>210.0</ele><time>2026-04-11T12:49:19.999Z</time></trkpt><trkpt lat="45.918761486143445" lon="9.289459094738614"><ele>212.0</ele><time>2026-04-11T12:49:20.999Z</time></trkpt><trkpt lat="45.91889041500116" lon="9.289405841786891"><ele>212.0</ele><time>2026-04-11T12:49:21.999Z</time></trkpt><trkpt lat="45.919021427267445" lon="9.289358303104743"><ele>212.0</ele><time>2026-04-11T12:49:22.999Z</time></trkpt><trkpt lat="45.91916526741614" lon="9.289302613310308"><ele>212.0</ele><time>2026-04-11T12:49:23.999Z</time></trkpt><trkpt lat="45.919312855628505" lon="9.289295015124209"><ele>212.0</ele><time>2026-04-11T12:49:24.999Z</time></trkpt><trkpt lat="45.91945065538834" lon="9.289257025146627"><ele>211.5</ele><time>2026-04-11T12:49:25.999Z</time></trkpt><trkpt lat="45.919576741399204" lon="9.28921326961103"><ele>211.0</ele><time>2026-04-11T12:49:26.999Z</time></trkpt><trkpt lat="45.919695365559534" lon="9.289186989590556"><ele>210.5</ele><time>2026-04-11T12:49:27.999Z</time></trkpt><trkpt lat="45.91980287231261" lon="9.289151833596344"><ele>210.0</ele><time>2026-04-11T12:49:28.999Z</time></trkpt><trkpt lat="45.91990600824588" lon="9.289123879042537"><ele>210.0</ele><time>2026-04-11T12:49:29.999Z</time></trkpt><trkpt lat="45.920009457493926" lon="9.289091988867364"><ele>210.0</ele><time>2026-04-11T12:49:30.999Z</time></trkpt><trkpt lat="45.920113952310736" lon="9.289042414035194"><ele>210.0</ele><time>2026-04-11T12:49:31.999Z</time></trkpt><trkpt lat="45.92021300840266" lon="9.288969357120191"><ele>210.0</ele><time>2026-04-11T12:49:32.999Z</time></trkpt><trkpt lat="45.92030948018419" lon="9.288881734732465"><ele>210.0</ele><time>2026-04-11T12:49:33.999Z</time></trkpt><trkpt lat="45.92040356212684" lon="9.288787601473722"><ele>211.75</ele><time>2026-04-11T12:49:34.999Z</time></trkpt><trkpt lat="45.920502157087306" lon="9.28869818156082"><ele>213.5</ele><time>2026-04-11T12:49:35.999Z</time></trkpt><trkpt lat="45.92060082025739" lon="9.288608689047827"><ele>215.25</ele><time>2026-04-11T12:49:36.999Z</time></trkpt><trkpt lat="45.9206994835776" lon="9.288519195719225"><ele>217.0</ele><time>2026-04-11T12:49:37.999Z</time></trkpt><trkpt lat="45.920796073490585" lon="9.288427066378704"><ele>217.0</ele><time>2026-04-11T12:49:38.999Z</time></trkpt><trkpt lat="45.9208915727767" lon="9.288339985177906"><ele>217.0</ele><time>2026-04-11T12:49:39.999Z</time></trkpt><trkpt lat="45.92098705572336" lon="9.28825520960703"><ele>217.0</ele><time>2026-04-11T12:49:40.999Z</time></trkpt><trkpt lat="45.92107993772946" lon="9.288165496241215"><ele>217.0</ele><time>2026-04-11T12:49:41.999Z</time></trkpt><trkpt lat="45.92117322016201" lon="9.288078577834883"><ele>217.0</ele><time>2026-04-11T12:49:42.999Z</time></trkpt><trkpt lat="45.92127072910016" lon="9.28800035613062"><ele>221.25</ele><time>2026-04-11T12:49:43.999Z</time></trkpt><trkpt lat="45.92137433733641" lon="9.287934467516376"><ele>225.5</ele><time>2026-04-11T12:49:45Z</time></trkpt><trkpt lat="45.92148216847947" lon="9.287875281174381"><ele>229.75</ele><time>2026-04-11T12:49:46Z</time></trkpt><trkpt lat="45.921591106186554" lon="9.28781994326796"><ele>234.0</ele><time>2026-04-11T12:49:47Z</time></trkpt><trkpt lat="45.921698252688536" lon="9.287769133516196"><ele>232.2</ele><time>2026-04-11T12:49:48Z</time></trkpt><trkpt lat="45.921804521398165" lon="9.287720603052167"><ele>230.39999999999998</ele><time>2026-04-11T12:49:49Z</time></trkpt><trkpt lat="45.92191061601873" lon="9.287671732630212"><ele>228.6</ele><time>2026-04-11T12:49:50Z</time></trkpt><trkpt lat="45.922012414290506" lon="9.287631492780063"><ele>226.8</ele><time>2026-04-11T12:49:51Z</time></trkpt><trkpt lat="45.92211074740312" lon="9.287606881264004"><ele>225.0</ele><time>2026-04-11T12:49:52Z</time></trkpt><trkpt lat="45.9222100199255" lon="9.28758747752762"><ele>225.0</ele><time>2026-04-11T12:49:53Z</time></trkpt><trkpt lat="45.922314020413346" lon="9.28758074706808"><ele>225.0</ele><time>2026-04-11T12:49:54Z</time></trkpt><trkpt lat="45.92241185473554" lon="9.28758622716728"><ele>225.0</ele><time>2026-04-11T12:49:55Z</time></trkpt><trkpt lat="45.922506038013665" lon="9.2875919298"><ele>225.0</ele><time>2026-04-11T12:49:56Z</time></trkpt><trkpt lat="45.922601143584636" lon="9.287599529597287"><ele>225.0</ele><time>2026-04-11T12:49:57Z</time></trkpt><trkpt lat="45.92269932320439" lon="9.287587803266494"><ele>222.5</ele><time>2026-04-11T12:49:58Z</time></trkpt><trkpt lat="45.922793833900435" lon="9.287548821472516"><ele>220.0</ele><time>2026-04-11T12:49:59Z</time></trkpt><trkpt lat="45.922886308784655" lon="9.287502462895967"><ele>217.5</ele><time>2026-04-11T12:50:00Z</time></trkpt><trkpt lat="45.922970686129" lon="9.287460344583904"><ele>215.0</ele><time>2026-04-11T12:50:01Z</time></trkpt><trkpt lat="45.923047707705265" lon="9.287418282993679"><ele>212.5</ele><time>2026-04-11T12:50:02Z</time></trkpt><trkpt lat="45.923113850563944" lon="9.28736310927126"><ele>210.0</ele><time>2026-04-11T12:50:03Z</time></trkpt><trkpt lat="45.92317182855523" lon="9.28730809677867"><ele>209.4</ele><time>2026-04-11T12:50:04Z</time></trkpt><trkpt lat="45.923261679086885" lon="9.287217714966687"><ele>208.8</ele><time>2026-04-11T12:50:06Z</time></trkpt><trkpt lat="45.923339146765585" lon="9.28714518442355"><ele>208.2</ele><time>2026-04-11T12:50:08Z</time></trkpt><trkpt lat="45.92343463737087" lon="9.287052265518417"><ele>207.6</ele><time>2026-04-11T12:50:10Z</time></trkpt><trkpt lat="45.923491425669205" lon="9.286998847136864"><ele>207.0</ele><time>2026-04-11T12:50:11Z</time></trkpt><trkpt lat="45.923548630548254" lon="9.286939719357347"><ele>207.0</ele><time>2026-04-11T12:50:12Z</time></trkpt><trkpt lat="45.92360897527903" lon="9.286874224754422"><ele>207.0</ele><time>2026-04-11T12:50:13Z</time></trkpt><trkpt lat="45.92367614597963" lon="9.286802951769076"><ele>207.0</ele><time>2026-04-11T12:50:14Z</time></trkpt><trkpt lat="45.92375114673769" lon="9.286718191085741"><ele>207.0</ele><time>2026-04-11T12:50:15Z</time></trkpt><trkpt lat="45.92383936396538" lon="9.28665983886649"><ele>207.0</ele><time>2026-04-11T12:50:16Z</time></trkpt><trkpt lat="45.923931032821685" lon="9.286583406211335"><ele>207.0</ele><time>2026-04-11T12:50:17Z</time></trkpt><trkpt lat="45.924034019802065" lon="9.286516175422646"><ele>207.0</ele><time>2026-04-11T12:50:18Z</time></trkpt><trkpt lat="45.92415541879426" lon="9.286441044861302"><ele>207.0</ele><time>2026-04-11T12:50:19Z</time></trkpt><trkpt lat="45.92429273016701" lon="9.286353302263382"><ele>207.0</ele><time>2026-04-11T12:50:20Z</time></trkpt><trkpt lat="45.92442963181099" lon="9.286244541502356"><ele>208.0</ele><time>2026-04-11T12:50:21Z</time></trkpt><trkpt lat="45.92457780792165" lon="9.286166262444045"><ele>209.0</ele><time>2026-04-11T12:50:22Z</time></trkpt><trkpt lat="45.9247118799924" lon="9.28607439735402"><ele>210.0</ele><time>2026-04-11T12:50:23Z</time></trkpt><trkpt lat="45.92482929289287" lon="9.285981580003371"><ele>211.0</ele><time>2026-04-11T12:50:24Z</time></trkpt><trkpt lat="45.924934716428126" lon="9.285887577181601"><ele>211.0</ele><time>2026-04-11T12:50:25Z</time></trkpt><trkpt lat="45.92503149096135" lon="9.285788137715489"><ele>211.0</ele><time>2026-04-11T12:50:26Z</time></trkpt><trkpt lat="45.92512090751198" lon="9.285679147614337"><ele>211.0</ele><time>2026-04-11T12:50:27Z</time></trkpt><trkpt lat="45.925210246677146" lon="9.285568773094395"><ele>211.0</ele><time>2026-04-11T12:50:27.999Z</time></trkpt><trkpt lat="45.92530925658059" lon="9.285467812370154"><ele>212.25</ele><time>2026-04-11T12:50:28.999Z</time></trkpt><trkpt lat="45.92542204677535" lon="9.285387184294626"><ele>213.5</ele><time>2026-04-11T12:50:29.999Z</time></trkpt><trkpt lat="45.925544394771265" lon="9.285323744799552"><ele>214.75</ele><time>2026-04-11T12:50:30.999Z</time></trkpt><trkpt lat="45.92566748210944" lon="9.285274120984612"><ele>216.0</ele><time>2026-04-11T12:50:31.999Z</time></trkpt><trkpt lat="45.92578964586586" lon="9.28523961172757"><ele>214.75</ele><time>2026-04-11T12:50:32.999Z</time></trkpt><trkpt lat="45.92591636682745" lon="9.285224058083983"><ele>213.5</ele><time>2026-04-11T12:50:33.999Z</time></trkpt><trkpt lat="45.9260449570031" lon="9.285241662117256"><ele>212.25</ele><time>2026-04-11T12:50:34.999Z</time></trkpt><trkpt lat="45.92617429062022" lon="9.285266858360195"><ele>211.0</ele><time>2026-04-11T12:50:35.999Z</time></trkpt><trkpt lat="45.92630449334727" lon="9.285291338074325"><ele>211.0</ele><time>2026-04-11T12:50:36.999Z</time></trkpt><trkpt lat="45.9264352615027" lon="9.285315432107806"><ele>211.0</ele><time>2026-04-11T12:50:37.999Z</time></trkpt><trkpt lat="45.92656525179319" lon="9.285339829444974"><ele>211.0</ele><time>2026-04-11T12:50:38.999Z</time></trkpt><trkpt lat="45.9266968442277" lon="9.285362988622783"><ele>211.0</ele><time>2026-04-11T12:50:39.999Z</time></trkpt><trkpt lat="45.926828859934474" lon="9.285383408151818"><ele>212.0</ele><time>2026-04-11T12:50:40.999Z</time></trkpt><trkpt lat="45.926960456503046" lon="9.28540455060357"><ele>213.0</ele><time>2026-04-11T12:50:41.999Z</time></trkpt><trkpt lat="45.927091370780275" lon="9.285426771075503"><ele>214.0</ele><time>2026-04-11T12:50:42.999Z</time></trkpt><trkpt lat="45.92722285156953" lon="9.285447654975947"><ele>215.0</ele><time>2026-04-11T12:50:43.999Z</time></trkpt><trkpt lat="45.92735399118263" lon="9.285463286394268"><ele>215.0</ele><time>2026-04-11T12:50:44.999Z</time></trkpt><trkpt lat="45.92748453351112" lon="9.285467227208407"><ele>215.0</ele><time>2026-04-11T12:50:45.999Z</time></trkpt><trkpt lat="45.92760735685787" lon="9.285456254187302"><ele>215.0</ele><time>2026-04-11T12:50:46.999Z</time></trkpt><trkpt lat="45.927723277248205" lon="9.285429071519927"><ele>215.0</ele><time>2026-04-11T12:50:47.999Z</time></trkpt><trkpt lat="45.92783899883894" lon="9.285389729037346"><ele>214.0</ele><time>2026-04-11T12:50:48.999Z</time></trkpt><trkpt lat="45.927953508971974" lon="9.285332649586623"><ele>213.0</ele><time>2026-04-11T12:50:49.999Z</time></trkpt><trkpt lat="45.928062380368935" lon="9.285259646995204"><ele>212.0</ele><time>2026-04-11T12:50:50.999Z</time></trkpt><trkpt lat="45.92816747545113" lon="9.28518102067139"><ele>211.0</ele><time>2026-04-11T12:50:51.999Z</time></trkpt><trkpt lat="45.92826857951615" lon="9.285102098025641"><ele>211.0</ele><time>2026-04-11T12:50:52.999Z</time></trkpt><trkpt lat="45.92837262589759" lon="9.285018713360943"><ele>211.0</ele><time>2026-04-11T12:50:53.999Z</time></trkpt><trkpt lat="45.92846811638896" lon="9.284932344617497"><ele>211.0</ele><time>2026-04-11T12:50:54.999Z</time></trkpt><trkpt lat="45.92855713896838" lon="9.28484930890417"><ele>211.0</ele><time>2026-04-11T12:50:55.999Z</time></trkpt><trkpt lat="45.92864618248065" lon="9.284775264344736"><ele>211.0</ele><time>2026-04-11T12:50:56.999Z</time></trkpt><trkpt lat="45.928747620900694" lon="9.284717613999208"><ele>212.0</ele><time>2026-04-11T12:50:57.999Z</time></trkpt><trkpt lat="45.92885779667264" lon="9.284682746768231"><ele>213.0</ele><time>2026-04-11T12:50:58.999Z</time></trkpt><trkpt lat="45.9289766466107" lon="9.28465949814444"><ele>214.0</ele><time>2026-04-11T12:50:59.999Z</time></trkpt><trkpt lat="45.9290964406194" lon="9.284642255570851"><ele>215.0</ele><time>2026-04-11T12:51:00.999Z</time></trkpt><trkpt lat="45.92921457143591" lon="9.28462995332298"><ele>214.5</ele><time>2026-04-11T12:51:01.999Z</time></trkpt><trkpt lat="45.929331536303" lon="9.284618972783605"><ele>214.0</ele><time>2026-04-11T12:51:02.999Z</time></trkpt><trkpt lat="45.92944567651703" lon="9.284609254782776"><ele>213.5</ele><time>2026-04-11T12:51:03.999Z</time></trkpt><trkpt lat="45.929562921530476" lon="9.284599733283935"><ele>213.0</ele><time>2026-04-11T12:51:04.999Z</time></trkpt><trkpt lat="45.92968103859668" lon="9.284589806654886"><ele>213.0</ele><time>2026-04-11T12:51:05.999Z</time></trkpt><trkpt lat="45.92980056929128" lon="9.284581483693852"><ele>213.0</ele><time>2026-04-11T12:51:06.999Z</time></trkpt><trkpt lat="45.9299193552544" lon="9.284568872094578"><ele>213.0</ele><time>2026-04-11T12:51:07.999Z</time></trkpt><trkpt lat="45.93003811229383" lon="9.284541695377538"><ele>213.0</ele><time>2026-04-11T12:51:08.999Z</time></trkpt><trkpt lat="45.9301518858816" lon="9.284489909336783"><ele>212.75</ele><time>2026-04-11T12:51:09.999Z</time></trkpt><trkpt lat="45.930261745923886" lon="9.284411187887288"><ele>212.5</ele><time>2026-04-11T12:51:10.999Z</time></trkpt><trkpt lat="45.93037308808141" lon="9.284319321530752"><ele>212.25</ele><time>2026-04-11T12:51:11.999Z</time></trkpt><trkpt lat="45.930501637598674" lon="9.284246334482987"><ele>212.0</ele><time>2026-04-11T12:51:12.999Z</time></trkpt><trkpt lat="45.93062069230616" lon="9.284126433779836"><ele>212.0</ele><time>2026-04-11T12:51:13.999Z</time></trkpt><trkpt lat="45.93073855977056" lon="9.284053937012462"><ele>212.0</ele><time>2026-04-11T12:51:14.999Z</time></trkpt><trkpt lat="45.93082148692912" lon="9.28400281942037"><ele>212.0</ele><time>2026-04-11T12:51:15.999Z</time></trkpt><trkpt lat="45.93093158778391" lon="9.283938902776054"><ele>212.0</ele><time>2026-04-11T12:51:17.999Z</time></trkpt><trkpt lat="45.93106010114113" lon="9.283877862749504"><ele>213.50000000000003</ele><time>2026-04-11T12:51:19.999Z</time></trkpt><trkpt lat="45.93113854319374" lon="9.283850102650888"><ele>215.0</ele><time>2026-04-11T12:51:20.999Z</time></trkpt><trkpt lat="45.93122299405403" lon="9.283825163411066"><ele>216.5</ele><time>2026-04-11T12:51:21.999Z</time></trkpt><trkpt lat="45.93130170632238" lon="9.283802322156324"><ele>218.0</ele><time>2026-04-11T12:51:22.999Z</time></trkpt><trkpt lat="45.931380277351934" lon="9.283773429266805"><ele>219.50000000000003</ele><time>2026-04-11T12:51:23.999Z</time></trkpt><trkpt lat="45.93146023662043" lon="9.283740036146853"><ele>221.0</ele><time>2026-04-11T12:51:24.999Z</time></trkpt><trkpt lat="45.93154339736251" lon="9.28371751422657"><ele>221.00000000000003</ele><time>2026-04-11T12:51:25.999Z</time></trkpt><trkpt lat="45.931620397358884" lon="9.28370557095781"><ele>221.0</ele><time>2026-04-11T12:51:26.999Z</time></trkpt><trkpt lat="45.93169778509607" lon="9.283705516529118"><ele>221.0</ele><time>2026-04-11T12:51:27.999Z</time></trkpt><trkpt lat="45.93177821990633" lon="9.283712483407243"><ele>221.0</ele><time>2026-04-11T12:51:28.999Z</time></trkpt><trkpt lat="45.93187069570863" lon="9.28373299766619"><ele>221.00000000000003</ele><time>2026-04-11T12:51:29.999Z</time></trkpt><trkpt lat="45.931976831584706" lon="9.283763753882075"><ele>221.0</ele><time>2026-04-11T12:51:30.999Z</time></trkpt><trkpt lat="45.93208693905942" lon="9.283794438153253"><ele>220.25</ele><time>2026-04-11T12:51:31.999Z</time></trkpt><trkpt lat="45.932204700577195" lon="9.283821814910764"><ele>219.5</ele><time>2026-04-11T12:51:32.999Z</time></trkpt><trkpt lat="45.93231706097356" lon="9.283843851479382"><ele>218.75</ele><time>2026-04-11T12:51:33.999Z</time></trkpt><trkpt lat="45.93243058875719" lon="9.283860027137033"><ele>218.0</ele><time>2026-04-11T12:51:34.999Z</time></trkpt><trkpt lat="45.93256108958376" lon="9.283880913326998"><ele>216.5</ele><time>2026-04-11T12:51:35.999Z</time></trkpt><trkpt lat="45.93270139284089" lon="9.283858903393373"><ele>215.0</ele><time>2026-04-11T12:51:36.999Z</time></trkpt><trkpt lat="45.93283562972466" lon="9.28383565778317"><ele>213.5</ele><time>2026-04-11T12:51:37.999Z</time></trkpt><trkpt lat="45.93296655804918" lon="9.283812949302353"><ele>212.0</ele><time>2026-04-11T12:51:38.999Z</time></trkpt><trkpt lat="45.933095439929915" lon="9.283766503713348"><ele>212.0</ele><time>2026-04-11T12:51:39.999Z</time></trkpt><trkpt lat="45.933219057702594" lon="9.283751482667714"><ele>212.0</ele><time>2026-04-11T12:51:40.999Z</time></trkpt><trkpt lat="45.93332898819093" lon="9.283728396736066"><ele>212.0</ele><time>2026-04-11T12:51:41.999Z</time></trkpt><trkpt lat="45.93344285855123" lon="9.283702645245405"><ele>212.0</ele><time>2026-04-11T12:51:42.999Z</time></trkpt><trkpt lat="45.9335571436674" lon="9.283663643966872"><ele>210.0</ele><time>2026-04-11T12:51:43.999Z</time></trkpt><trkpt lat="45.9336779402964" lon="9.283624313099237"><ele>208.0</ele><time>2026-04-11T12:51:44.999Z</time></trkpt><trkpt lat="45.933785593543405" lon="9.28352117272649"><ele>206.0</ele><time>2026-04-11T12:51:45.999Z</time></trkpt><trkpt lat="45.9338889480732" lon="9.283392933339126"><ele>204.0</ele><time>2026-04-11T12:51:46.999Z</time></trkpt><trkpt lat="45.93399509887627" lon="9.283260837975208"><ele>204.0</ele><time>2026-04-11T12:51:47.999Z</time></trkpt><trkpt lat="45.9341028410913" lon="9.283137686799032"><ele>204.0</ele><time>2026-04-11T12:51:48.999Z</time></trkpt><trkpt lat="45.93420724980012" lon="9.283030576518188"><ele>204.0</ele><time>2026-04-11T12:51:50Z</time></trkpt><trkpt lat="45.934308081977164" lon="9.282934577250979"><ele>204.0</ele><time>2026-04-11T12:51:51Z</time></trkpt><trkpt lat="45.934400053306916" lon="9.282835252585741"><ele>206.0</ele><time>2026-04-11T12:51:52Z</time></trkpt><trkpt lat="45.934498863862636" lon="9.282759901514224"><ele>208.0</ele><time>2026-04-11T12:51:53Z</time></trkpt><trkpt lat="45.934606494047415" lon="9.282684169474472"><ele>210.0</ele><time>2026-04-11T12:51:54Z</time></trkpt><trkpt lat="45.93472846039333" lon="9.282615325778401"><ele>212.0</ele><time>2026-04-11T12:51:55Z</time></trkpt><trkpt lat="45.934863786032565" lon="9.282567156231785"><ele>212.0</ele><time>2026-04-11T12:51:56Z</time></trkpt><trkpt lat="45.934999774773104" lon="9.282531180758788"><ele>212.0</ele><time>2026-04-11T12:51:57Z</time></trkpt><trkpt lat="45.93513000632301" lon="9.282497583650445"><ele>212.0</ele><time>2026-04-11T12:51:58Z</time></trkpt><trkpt lat="45.93525293158309" lon="9.282463534604666"><ele>212.0</ele><time>2026-04-11T12:51:59Z</time></trkpt><trkpt lat="45.9353678996982" lon="9.282432927021143"><ele>211.0</ele><time>2026-04-11T12:52:00Z</time></trkpt><trkpt lat="45.93547930226055" lon="9.282412738475305"><ele>210.0</ele><time>2026-04-11T12:52:01Z</time></trkpt><trkpt lat="45.935598234898904" lon="9.282413499707014"><ele>209.0</ele><time>2026-04-11T12:52:02Z</time></trkpt><trkpt lat="45.935721397335044" lon="9.282430951721338"><ele>208.0</ele><time>2026-04-11T12:52:03Z</time></trkpt><trkpt lat="45.93584261132962" lon="9.28245488194191"><ele>209.5</ele><time>2026-04-11T12:52:04Z</time></trkpt><trkpt lat="45.93596182592837" lon="9.282474052027588"><ele>211.0</ele><time>2026-04-11T12:52:05Z</time></trkpt><trkpt lat="45.93608273019474" lon="9.28247672022663"><ele>212.5</ele><time>2026-04-11T12:52:06Z</time></trkpt><trkpt lat="45.936207009911385" lon="9.282438682138013"><ele>214.0</ele><time>2026-04-11T12:52:07Z</time></trkpt><trkpt lat="45.93632541306314" lon="9.28238374213841"><ele>214.0</ele><time>2026-04-11T12:52:08Z</time></trkpt><trkpt lat="45.936448130205086" lon="9.282328286388505"><ele>214.0</ele><time>2026-04-11T12:52:09Z</time></trkpt><trkpt lat="45.93657900856327" lon="9.282296289468214"><ele>214.0</ele><time>2026-04-11T12:52:10Z</time></trkpt><trkpt lat="45.93670989180094" lon="9.282287447224919"><ele>214.0</ele><time>2026-04-11T12:52:11Z</time></trkpt><trkpt lat="45.93683549575831" lon="9.282324012440746"><ele>216.39999999999998</ele><time>2026-04-11T12:52:12Z</time></trkpt><trkpt lat="45.93695370977007" lon="9.282319644134445"><ele>218.79999999999998</ele><time>2026-04-11T12:52:13Z</time></trkpt><trkpt lat="45.93704159691566" lon="9.282318430585002"><ele>221.20000000000002</ele><time>2026-04-11T12:52:14Z</time></trkpt><trkpt lat="45.93713265967938" lon="9.282302126011805"><ele>223.60000000000002</ele><time>2026-04-11T12:52:16Z</time></trkpt><trkpt lat="45.937241116405225" lon="9.282321771197278"><ele>226.0</ele><time>2026-04-11T12:52:18Z</time></trkpt><trkpt lat="45.93732982248067" lon="9.282329532616531"><ele>225.99999999999997</ele><time>2026-04-11T12:52:19Z</time></trkpt><trkpt lat="45.9374147215421" lon="9.282329104752407"><ele>226.0</ele><time>2026-04-11T12:52:20Z</time></trkpt><trkpt lat="45.93748391644232" lon="9.282344145635752"><ele>226.0</ele><time>2026-04-11T12:52:21Z</time></trkpt><trkpt lat="45.93755160594592" lon="9.282363527865222"><ele>226.0</ele><time>2026-04-11T12:52:23Z</time></trkpt><trkpt lat="45.937617592461514" lon="9.282392070591683"><ele>225.99999999999997</ele><time>2026-04-11T12:52:25.999Z</time></trkpt><trkpt lat="45.93770033957653" lon="9.282403778379004"><ele>226.0</ele><time>2026-04-11T12:52:27.999Z</time></trkpt><trkpt lat="45.93778960133268" lon="9.282422167183942"><ele>224.8</ele><time>2026-04-11T12:52:29.999Z</time></trkpt><trkpt lat="45.93789164603344" lon="9.282431990156967"><ele>223.60000000000002</ele><time>2026-04-11T12:52:31.999Z</time></trkpt><trkpt lat="45.938016089003355" lon="9.282438174700623"><ele>222.4</ele><time>2026-04-11T12:52:33.999Z</time></trkpt><trkpt lat="45.93813165326598" lon="9.282442680005618"><ele>221.2</ele><time>2026-04-11T12:52:35.999Z</time></trkpt><trkpt lat="45.93820431103517" lon="9.282427557100176"><ele>220.0</ele><time>2026-04-11T12:52:36.999Z</time></trkpt><trkpt lat="45.938298893612085" lon="9.282393019063578"><ele>214.5</ele><time>2026-04-11T12:52:37.999Z</time></trkpt><trkpt lat="45.93839322160001" lon="9.282321564678403"><ele>209.0</ele><time>2026-04-11T12:52:38.999Z</time></trkpt><trkpt lat="45.93849707797179" lon="9.282236554313092"><ele>203.5</ele><time>2026-04-11T12:52:39.999Z</time></trkpt><trkpt lat="45.93861534128877" lon="9.282194882811496"><ele>198.0</ele><time>2026-04-11T12:52:40.999Z</time></trkpt><trkpt lat="45.938742972602626" lon="9.282189736806105"><ele>208.25</ele><time>2026-04-11T12:52:41.999Z</time></trkpt><trkpt lat="45.93887312597714" lon="9.282243752944385"><ele>218.5</ele><time>2026-04-11T12:52:42.999Z</time></trkpt><trkpt lat="45.93901761947302" lon="9.282237366073499"><ele>228.75</ele><time>2026-04-11T12:52:43.999Z</time></trkpt><trkpt lat="45.93915748787451" lon="9.282247074431911"><ele>239.0</ele><time>2026-04-11T12:52:44.999Z</time></trkpt><trkpt lat="45.93931258899763" lon="9.282230244274265"><ele>239.0</ele><time>2026-04-11T12:52:45.999Z</time></trkpt><trkpt lat="45.93945868831748" lon="9.282217863336047"><ele>239.0</ele><time>2026-04-11T12:52:46.999Z</time></trkpt><trkpt lat="45.9396017944958" lon="9.282193479413536"><ele>239.0</ele><time>2026-04-11T12:52:47.999Z</time></trkpt><trkpt lat="45.939726870804535" lon="9.282192628374963"><ele>239.0</ele><time>2026-04-11T12:52:48.999Z</time></trkpt><trkpt lat="45.93984198209254" lon="9.282188162343134"><ele>239.0</ele><time>2026-04-11T12:52:49.999Z</time></trkpt><trkpt lat="45.939945341038275" lon="9.282182425166788"><ele>239.0</ele><time>2026-04-11T12:52:50.999Z</time></trkpt><trkpt lat="45.94005532526826" lon="9.28217199736092"><ele>239.0</ele><time>2026-04-11T12:52:51.999Z</time></trkpt><trkpt lat="45.94017040215795" lon="9.28216694976304"><ele>239.0</ele><time>2026-04-11T12:52:52.999Z</time></trkpt><trkpt lat="45.94029389274607" lon="9.282145103616973"><ele>237.5</ele><time>2026-04-11T12:52:53.999Z</time></trkpt><trkpt lat="45.94041011869125" lon="9.282088747556253"><ele>236.0</ele><time>2026-04-11T12:52:54.999Z</time></trkpt><trkpt lat="45.940520683047794" lon="9.282023488201938"><ele>234.5</ele><time>2026-04-11T12:52:55.999Z</time></trkpt><trkpt lat="45.940628283510755" lon="9.281956893566257"><ele>233.0</ele><time>2026-04-11T12:52:56.999Z</time></trkpt><trkpt lat="45.94073235681853" lon="9.281900937798069"><ele>233.0</ele><time>2026-04-11T12:52:57.999Z</time></trkpt><trkpt lat="45.94083236481717" lon="9.281836190103196"><ele>233.0</ele><time>2026-04-11T12:52:58.999Z</time></trkpt><trkpt lat="45.94093848921418" lon="9.281765389816208"><ele>233.0</ele><time>2026-04-11T12:52:59.999Z</time></trkpt><trkpt lat="45.94103258001025" lon="9.281657725557444"><ele>233.0</ele><time>2026-04-11T12:53:00.999Z</time></trkpt><trkpt lat="45.94113699678898" lon="9.281547583189546"><ele>232.0</ele><time>2026-04-11T12:53:01.999Z</time></trkpt><trkpt lat="45.94124160417602" lon="9.281429721228449"><ele>231.0</ele><time>2026-04-11T12:53:02.999Z</time></trkpt><trkpt lat="45.94135156117921" lon="9.281323300984603"><ele>230.0</ele><time>2026-04-11T12:53:03.999Z</time></trkpt><trkpt lat="45.94145863405293" lon="9.281223828650994"><ele>229.0</ele><time>2026-04-11T12:53:04.999Z</time></trkpt><trkpt lat="45.941562479601146" lon="9.281131936993765"><ele>229.0</ele><time>2026-04-11T12:53:05.999Z</time></trkpt><trkpt lat="45.941661803751096" lon="9.28104029489126"><ele>229.0</ele><time>2026-04-11T12:53:06.999Z</time></trkpt><trkpt lat="45.94176188199179" lon="9.280943203440096"><ele>229.0</ele><time>2026-04-11T12:53:07.999Z</time></trkpt><trkpt lat="45.941862670591604" lon="9.280849016855932"><ele>229.0</ele><time>2026-04-11T12:53:08.999Z</time></trkpt><trkpt lat="45.941966816836015" lon="9.280753207876453"><ele>230.39999999999998</ele><time>2026-04-11T12:53:09.999Z</time></trkpt><trkpt lat="45.94206888267083" lon="9.280657569018603"><ele>231.79999999999998</ele><time>2026-04-11T12:53:10.999Z</time></trkpt><trkpt lat="45.94216498984172" lon="9.280573151962527"><ele>233.20000000000002</ele><time>2026-04-11T12:53:11.999Z</time></trkpt><trkpt lat="45.94225311378995" lon="9.280495649903798"><ele>234.60000000000002</ele><time>2026-04-11T12:53:12.999Z</time></trkpt><trkpt lat="45.94233802465785" lon="9.280424275241149"><ele>236.0</ele><time>2026-04-11T12:53:13.999Z</time></trkpt><trkpt lat="45.94242498705346" lon="9.280362106148665"><ele>236.0</ele><time>2026-04-11T12:53:14.999Z</time></trkpt><trkpt lat="45.94252435190942" lon="9.280307134986899"><ele>236.00000000000003</ele><time>2026-04-11T12:53:15.999Z</time></trkpt><trkpt lat="45.942629726239346" lon="9.280270965836925"><ele>236.00000000000003</ele><time>2026-04-11T12:53:16.999Z</time></trkpt><trkpt lat="45.94273524338791" lon="9.28024442374829"><ele>236.0</ele><time>2026-04-11T12:53:17.999Z</time></trkpt><trkpt lat="45.942833522396256" lon="9.280196123787546"><ele>236.0</ele><time>2026-04-11T12:53:18.999Z</time></trkpt><trkpt lat="45.942925410215075" lon="9.280120681997966"><ele>236.8</ele><time>2026-04-11T12:53:19.999Z</time></trkpt><trkpt lat="45.943003875711206" lon="9.280030547823623"><ele>237.60000000000002</ele><time>2026-04-11T12:53:20.999Z</time></trkpt><trkpt lat="45.943070208247185" lon="9.279922781089462"><ele>238.4</ele><time>2026-04-11T12:53:21.999Z</time></trkpt><trkpt lat="45.94312613621301" lon="9.279809190353042"><ele>239.2</ele><time>2026-04-11T12:53:22.999Z</time></trkpt><trkpt lat="45.94319542367224" lon="9.279714870304451"><ele>240.0</ele><time>2026-04-11T12:53:23.999Z</time></trkpt><trkpt lat="45.94324521635325" lon="9.279598522613421"><ele>240.0</ele><time>2026-04-11T12:53:24.999Z</time></trkpt><trkpt lat="45.943309434223245" lon="9.279520022549983"><ele>240.0</ele><time>2026-04-11T12:53:25.999Z</time></trkpt><trkpt lat="45.943378906693795" lon="9.279448186037548"><ele>240.0</ele><time>2026-04-11T12:53:26.999Z</time></trkpt><trkpt lat="45.94345481125034" lon="9.279374638299567"><ele>240.0</ele><time>2026-04-11T12:53:27.999Z</time></trkpt><trkpt lat="45.94353614633471" lon="9.279299575733846"><ele>240.0</ele><time>2026-04-11T12:53:28.999Z</time></trkpt><trkpt lat="45.94362067410876" lon="9.279223223325548"><ele>240.0</ele><time>2026-04-11T12:53:29.999Z</time></trkpt><trkpt lat="45.943703201555465" lon="9.279147546099406"><ele>240.0</ele><time>2026-04-11T12:53:30.999Z</time></trkpt><trkpt lat="45.9437837088553" lon="9.279083549412695"><ele>240.0</ele><time>2026-04-11T12:53:31.999Z</time></trkpt><trkpt lat="45.94386548503799" lon="9.279050393381773"><ele>240.0</ele><time>2026-04-11T12:53:32.999Z</time></trkpt><trkpt lat="45.94395193566164" lon="9.279032524845997"><ele>240.0</ele><time>2026-04-11T12:53:33.999Z</time></trkpt><trkpt lat="45.94405114190215" lon="9.279024584995486"><ele>240.0</ele><time>2026-04-11T12:53:34.999Z</time></trkpt><trkpt lat="45.944159442319595" lon="9.279010571865307"><ele>240.0</ele><time>2026-04-11T12:53:35.999Z</time></trkpt><trkpt lat="45.94427145740833" lon="9.278995044441432"><ele>240.0</ele><time>2026-04-11T12:53:36.999Z</time></trkpt><trkpt lat="45.944381660022124" lon="9.27897881201233"><ele>240.0</ele><time>2026-04-11T12:53:37.999Z</time></trkpt><trkpt lat="45.94448798522347" lon="9.278961049213066"><ele>240.0</ele><time>2026-04-11T12:53:38.999Z</time></trkpt><trkpt lat="45.944590038212795" lon="9.278949157172839"><ele>239.2</ele><time>2026-04-11T12:53:39.999Z</time></trkpt><trkpt lat="45.944697642052695" lon="9.2789325569613"><ele>238.4</ele><time>2026-04-11T12:53:40.999Z</time></trkpt><trkpt lat="45.94480144581637" lon="9.278917620838218"><ele>237.60000000000002</ele><time>2026-04-11T12:53:41.999Z</time></trkpt><trkpt lat="45.944902155332564" lon="9.278899883862545"><ele>236.8</ele><time>2026-04-11T12:53:42.999Z</time></trkpt><trkpt lat="45.94500747081017" lon="9.278884426559006"><ele>236.0</ele><time>2026-04-11T12:53:43.999Z</time></trkpt><trkpt lat="45.945132511055334" lon="9.27886117709338"><ele>236.0</ele><time>2026-04-11T12:53:44.999Z</time></trkpt><trkpt lat="45.94525098902943" lon="9.278846427688556"><ele>236.00000000000003</ele><time>2026-04-11T12:53:45.999Z</time></trkpt><trkpt lat="45.945351262453805" lon="9.278791917788954"><ele>236.00000000000003</ele><time>2026-04-11T12:53:46.999Z</time></trkpt><trkpt lat="45.94544476573091" lon="9.278733927763408"><ele>236.0</ele><time>2026-04-11T12:53:47.999Z</time></trkpt><trkpt lat="45.94553457161137" lon="9.278673584644388"><ele>236.0</ele><time>2026-04-11T12:53:48.999Z</time></trkpt><trkpt lat="45.94562647408736" lon="9.278634854365507"><ele>236.0</ele><time>2026-04-11T12:53:49.998Z</time></trkpt><trkpt lat="45.94572357579679" lon="9.278606514216882"><ele>236.00000000000003</ele><time>2026-04-11T12:53:50.998Z</time></trkpt><trkpt lat="45.9458197744441" lon="9.278605689119573"><ele>236.00000000000003</ele><time>2026-04-11T12:53:51.998Z</time></trkpt><trkpt lat="45.94590922407652" lon="9.278593418280234"><ele>236.0</ele><time>2026-04-11T12:53:52.998Z</time></trkpt><trkpt lat="45.94599850198018" lon="9.278581322433167"><ele>236.0</ele><time>2026-04-11T12:53:53.998Z</time></trkpt><trkpt lat="45.9460824581438" lon="9.278558998570311"><ele>235.50000000000003</ele><time>2026-04-11T12:53:54.998Z</time></trkpt><trkpt lat="45.946161251234926" lon="9.278526250258434"><ele>235.0</ele><time>2026-04-11T12:53:56Z</time></trkpt><trkpt lat="45.946237007285454" lon="9.278491789010275"><ele>234.5</ele><time>2026-04-11T12:53:57Z</time></trkpt><trkpt lat="45.94631412934585" lon="9.278457089188814"><ele>234.0</ele><time>2026-04-11T12:53:58Z</time></trkpt><trkpt lat="45.9463937692702" lon="9.278427370059022"><ele>233.50000000000003</ele><time>2026-04-11T12:53:59Z</time></trkpt><trkpt lat="45.946477799471815" lon="9.2784032822543"><ele>233.0</ele><time>2026-04-11T12:54:00Z</time></trkpt><trkpt lat="45.94656102210964" lon="9.27837913722984"><ele>233.00000000000003</ele><time>2026-04-11T12:54:01Z</time></trkpt><trkpt lat="45.94663808034041" lon="9.278335302453463"><ele>233.0</ele><time>2026-04-11T12:54:02Z</time></trkpt><trkpt lat="45.946695869157004" lon="9.278267612561777"><ele>233.0</ele><time>2026-04-11T12:54:03Z</time></trkpt><trkpt lat="45.94674688107747" lon="9.278184866574218"><ele>233.0</ele><time>2026-04-11T12:54:04Z</time></trkpt><trkpt lat="45.94679803014688" lon="9.27809845385757"><ele>233.00000000000003</ele><time>2026-04-11T12:54:05Z</time></trkpt><trkpt lat="45.94685227262098" lon="9.278021022042708"><ele>233.0</ele><time>2026-04-11T12:54:06Z</time></trkpt><trkpt lat="45.94691325720848" lon="9.277956957032524"><ele>236.28571428571428</ele><time>2026-04-11T12:54:07Z</time></trkpt><trkpt lat="45.94697797915467" lon="9.277915288397491"><ele>239.57142857142856</ele><time>2026-04-11T12:54:08Z</time></trkpt><trkpt lat="45.947046516454705" lon="9.277894358654153"><ele>242.85714285714283</ele><time>2026-04-11T12:54:09Z</time></trkpt><trkpt lat="45.94711594322847" lon="9.277885045740282"><ele>246.14285714285714</ele><time>2026-04-11T12:54:10Z</time></trkpt><trkpt lat="45.94718959938496" lon="9.277880723426387"><ele>249.4285714285714</ele><time>2026-04-11T12:54:11Z</time></trkpt><trkpt lat="45.947263097926644" lon="9.277883472925494"><ele>252.7142857142857</ele><time>2026-04-11T12:54:12Z</time></trkpt><trkpt lat="45.947336576018294" lon="9.277885264092923"><ele>256.0</ele><time>2026-04-11T12:54:13Z</time></trkpt><trkpt lat="45.94741040110145" lon="9.277880006835328"><ele>255.99999999999997</ele><time>2026-04-11T12:54:14Z</time></trkpt><trkpt lat="45.94749335517076" lon="9.277879425528253"><ele>256.0</ele><time>2026-04-11T12:54:15Z</time></trkpt><trkpt lat="45.94758381420661" lon="9.27789033447733"><ele>256.0</ele><time>2026-04-11T12:54:16Z</time></trkpt><trkpt lat="45.94767266433644" lon="9.277886635589757"><ele>256.0</ele><time>2026-04-11T12:54:17Z</time></trkpt><trkpt lat="45.94775819243281" lon="9.27784955067087"><ele>255.99999999999997</ele><time>2026-04-11T12:54:18Z</time></trkpt><trkpt lat="45.94784439581131" lon="9.27781400962879"><ele>256.0</ele><time>2026-04-11T12:54:19Z</time></trkpt><trkpt lat="45.94793112017745" lon="9.277780391590843"><ele>251.20000000000002</ele><time>2026-04-11T12:54:20Z</time></trkpt><trkpt lat="45.9480135167974" lon="9.277720729442217"><ele>246.40000000000003</ele><time>2026-04-11T12:54:21Z</time></trkpt><trkpt lat="45.94809383632284" lon="9.27764258335544"><ele>241.6</ele><time>2026-04-11T12:54:22Z</time></trkpt><trkpt lat="45.94817340965951" lon="9.277575223345202"><ele>236.8</ele><time>2026-04-11T12:54:23Z</time></trkpt><trkpt lat="45.94826100582081" lon="9.277547829161032"><ele>232.0</ele><time>2026-04-11T12:54:24Z</time></trkpt><trkpt lat="45.94834917213556" lon="9.277553274131026"><ele>229.6</ele><time>2026-04-11T12:54:25Z</time></trkpt><trkpt lat="45.948441061069715" lon="9.277572206884393"><ele>227.2</ele><time>2026-04-11T12:54:26Z</time></trkpt><trkpt lat="45.94853689387364" lon="9.277587788076524"><ele>224.8</ele><time>2026-04-11T12:54:27Z</time></trkpt><trkpt lat="45.948630349798776" lon="9.277604396944552"><ele>222.4</ele><time>2026-04-11T12:54:28Z</time></trkpt><trkpt lat="45.94872846510499" lon="9.27761963675601"><ele>220.0</ele><time>2026-04-11T12:54:29Z</time></trkpt><trkpt lat="45.9488326732824" lon="9.277607948512605"><ele>220.0</ele><time>2026-04-11T12:54:29.999Z</time></trkpt><trkpt lat="45.948937415095315" lon="9.277588583443679"><ele>220.0</ele><time>2026-04-11T12:54:30.999Z</time></trkpt><trkpt lat="45.949041640089035" lon="9.277554199412121"><ele>220.0</ele><time>2026-04-11T12:54:31.999Z</time></trkpt><trkpt lat="45.94914518066956" lon="9.27749608637222"><ele>220.0</ele><time>2026-04-11T12:54:32.999Z</time></trkpt><trkpt lat="45.94924724442782" lon="9.277426771986994"><ele>220.0</ele><time>2026-04-11T12:54:33.999Z</time></trkpt><trkpt lat="45.94934324988792" lon="9.277354886220342"><ele>217.0</ele><time>2026-04-11T12:54:34.999Z</time></trkpt><trkpt lat="45.94943425642523" lon="9.277288491595753"><ele>214.0</ele><time>2026-04-11T12:54:35.999Z</time></trkpt><trkpt lat="45.94952198912485" lon="9.277233242446234"><ele>211.0</ele><time>2026-04-11T12:54:36.999Z</time></trkpt><trkpt lat="45.949612558125466" lon="9.277183941237855"><ele>208.0</ele><time>2026-04-11T12:54:37.999Z</time></trkpt><trkpt lat="45.949710030479274" lon="9.277155667993526"><ele>205.0</ele><time>2026-04-11T12:54:38.999Z</time></trkpt><trkpt lat="45.94981096544866" lon="9.277131760155404"><ele>208.4</ele><time>2026-04-11T12:54:39.999Z</time></trkpt><trkpt lat="45.94991413305102" lon="9.277106593156876"><ele>211.8</ele><time>2026-04-11T12:54:40.999Z</time></trkpt><trkpt lat="45.950019255559965" lon="9.27708776083384"><ele>215.2</ele><time>2026-04-11T12:54:41.999Z</time></trkpt><trkpt lat="45.95011867044929" lon="9.277070182890359"><ele>218.6</ele><time>2026-04-11T12:54:42.999Z</time></trkpt><trkpt lat="45.95021886052282" lon="9.277048043395654"><ele>222.0</ele><time>2026-04-11T12:54:43.999Z</time></trkpt><trkpt lat="45.95031908906291" lon="9.277027292742833"><ele>222.0</ele><time>2026-04-11T12:54:44.999Z</time></trkpt><trkpt lat="45.950423573380895" lon="9.276999552995173"><ele>222.0</ele><time>2026-04-11T12:54:45.999Z</time></trkpt><trkpt lat="45.950526072297635" lon="9.276947760555931"><ele>222.0</ele><time>2026-04-11T12:54:46.999Z</time></trkpt><trkpt lat="45.95062537359991" lon="9.276880276192824"><ele>222.0</ele><time>2026-04-11T12:54:47.999Z</time></trkpt><trkpt lat="45.95071707831148" lon="9.27681271551064"><ele>222.0</ele><time>2026-04-11T12:54:48.999Z</time></trkpt><trkpt lat="45.950804887865324" lon="9.276751634456675"><ele>223.39999999999998</ele><time>2026-04-11T12:54:49.999Z</time></trkpt><trkpt lat="45.950887958004486" lon="9.27668227187148"><ele>224.79999999999998</ele><time>2026-04-11T12:54:50.999Z</time></trkpt><trkpt lat="45.95096943457361" lon="9.276605435388657"><ele>226.2</ele><time>2026-04-11T12:54:51.999Z</time></trkpt><trkpt lat="45.95105302856363" lon="9.276540359003747"><ele>227.6</ele><time>2026-04-11T12:54:52.999Z</time></trkpt><trkpt lat="45.951137792640395" lon="9.276475728287155"><ele>229.0</ele><time>2026-04-11T12:54:53.999Z</time></trkpt><trkpt lat="45.951237885440854" lon="9.27643019420074"><ele>229.0</ele><time>2026-04-11T12:54:54.999Z</time></trkpt><trkpt lat="45.95134597694128" lon="9.276385926857078"><ele>228.99999999999997</ele><time>2026-04-11T12:54:55.999Z</time></trkpt><trkpt lat="45.951453136695726" lon="9.276333828289562"><ele>228.99999999999997</ele><time>2026-04-11T12:54:56.999Z</time></trkpt><trkpt lat="45.95155503117387" lon="9.27627782283382"><ele>229.0</ele><time>2026-04-11T12:54:57.999Z</time></trkpt><trkpt lat="45.951659858407076" lon="9.276231887689159"><ele>229.0</ele><time>2026-04-11T12:54:58.999Z</time></trkpt><trkpt lat="45.95176401085799" lon="9.27616215387955"><ele>224.25</ele><time>2026-04-11T12:54:59.999Z</time></trkpt><trkpt lat="45.951892491210295" lon="9.276070637288608"><ele>219.5</ele><time>2026-04-11T12:55:00.999Z</time></trkpt><trkpt lat="45.952031975864756" lon="9.275998274975912"><ele>214.75</ele><time>2026-04-11T12:55:01.999Z</time></trkpt><trkpt lat="45.952152133069994" lon="9.275926326391339"><ele>210.0</ele><time>2026-04-11T12:55:02.999Z</time></trkpt><trkpt lat="45.95225937527721" lon="9.275864473764727"><ele>210.0</ele><time>2026-04-11T12:55:03.999Z</time></trkpt><trkpt lat="45.95234911959519" lon="9.275791826950815"><ele>210.0</ele><time>2026-04-11T12:55:04.999Z</time></trkpt><trkpt lat="45.95243236053089" lon="9.27571828762309"><ele>210.0</ele><time>2026-04-11T12:55:05.999Z</time></trkpt><trkpt lat="45.95251449133193" lon="9.275648035330667"><ele>210.0</ele><time>2026-04-11T12:55:06.999Z</time></trkpt><trkpt lat="45.95260864913692" lon="9.275596947152305"><ele>210.0</ele><time>2026-04-11T12:55:07.999Z</time></trkpt><trkpt lat="45.95270973989637" lon="9.275564937471145"><ele>212.75</ele><time>2026-04-11T12:55:08.999Z</time></trkpt><trkpt lat="45.95281757843589" lon="9.275570423364252"><ele>215.5</ele><time>2026-04-11T12:55:09.999Z</time></trkpt><trkpt lat="45.952941231511154" lon="9.275532771009791"><ele>218.25</ele><time>2026-04-11T12:55:10.999Z</time></trkpt><trkpt lat="45.953074338866564" lon="9.275474781192528"><ele>221.0</ele><time>2026-04-11T12:55:11.999Z</time></trkpt><trkpt lat="45.953220413793964" lon="9.27540086071172"><ele>221.0</ele><time>2026-04-11T12:55:12.999Z</time></trkpt><trkpt lat="45.95336231429346" lon="9.275322529658208"><ele>221.0</ele><time>2026-04-11T12:55:13.999Z</time></trkpt><trkpt lat="45.9534865871729" lon="9.275238712980384"><ele>221.0</ele><time>2026-04-11T12:55:14.999Z</time></trkpt><trkpt lat="45.95360609449464" lon="9.27518515391405"><ele>221.0</ele><time>2026-04-11T12:55:15.999Z</time></trkpt><trkpt lat="45.95372592125909" lon="9.27513130111051"><ele>219.75</ele><time>2026-04-11T12:55:16.999Z</time></trkpt><trkpt lat="45.95384825162839" lon="9.275073256354625"><ele>218.5</ele><time>2026-04-11T12:55:17.999Z</time></trkpt><trkpt lat="45.953971015193275" lon="9.275009464121888"><ele>217.25</ele><time>2026-04-11T12:55:18.999Z</time></trkpt><trkpt lat="45.95408973588136" lon="9.27493635407126"><ele>216.0</ele><time>2026-04-11T12:55:19.999Z</time></trkpt><trkpt lat="45.95420377735573" lon="9.274849447899447"><ele>215.5</ele><time>2026-04-11T12:55:20.999Z</time></trkpt><trkpt lat="45.95430903401635" lon="9.274745986974644"><ele>215.0</ele><time>2026-04-11T12:55:21.999Z</time></trkpt><trkpt lat="45.954408748621084" lon="9.274634428418576"><ele>214.5</ele><time>2026-04-11T12:55:22.999Z</time></trkpt><trkpt lat="45.95450832569245" lon="9.274510353759686"><ele>214.0</ele><time>2026-04-11T12:55:23.999Z</time></trkpt><trkpt lat="45.95460063471896" lon="9.274381146659909"><ele>214.0</ele><time>2026-04-11T12:55:24.999Z</time></trkpt><trkpt lat="45.954692684598925" lon="9.27423373552387"><ele>214.0</ele><time>2026-04-11T12:55:25.999Z</time></trkpt><trkpt lat="45.95478660415522" lon="9.274057051877955"><ele>214.0</ele><time>2026-04-11T12:55:26.999Z</time></trkpt><trkpt lat="45.95488816767786" lon="9.273833004741025"><ele>211.33333333333331</ele><time>2026-04-11T12:55:27.999Z</time></trkpt><trkpt lat="45.95501217202049" lon="9.273591758421885"><ele>208.66666666666669</ele><time>2026-04-11T12:55:28.999Z</time></trkpt><trkpt lat="45.9551381512969" lon="9.273349565869513"><ele>206.0</ele><time>2026-04-11T12:55:29.999Z</time></trkpt><trkpt lat="45.95525154478238" lon="9.273105803929484"><ele>208.33333333333334</ele><time>2026-04-11T12:55:30.999Z</time></trkpt><trkpt lat="45.9553554717537" lon="9.27287657586491"><ele>210.66666666666669</ele><time>2026-04-11T12:55:31.999Z</time></trkpt><trkpt lat="45.95545184685774" lon="9.27266564029669"><ele>213.0</ele><time>2026-04-11T12:55:32.999Z</time></trkpt><trkpt lat="45.955539995158546" lon="9.272465026252084"><ele>215.66666666666669</ele><time>2026-04-11T12:55:33.999Z</time></trkpt><trkpt lat="45.95560887988873" lon="9.272252217044601"><ele>218.33333333333334</ele><time>2026-04-11T12:55:34.999Z</time></trkpt><trkpt lat="45.95562563096327" lon="9.272007284269634"><ele>221.0</ele><time>2026-04-11T12:55:35.999Z</time></trkpt><trkpt lat="45.95563535404787" lon="9.27174184257044"><ele>221.0</ele><time>2026-04-11T12:55:36.999Z</time></trkpt><trkpt lat="45.95569507065787" lon="9.271510213267304"><ele>221.0</ele><time>2026-04-11T12:55:37.999Z</time></trkpt><trkpt lat="45.955792414329295" lon="9.271327701665612"><ele>221.0</ele><time>2026-04-11T12:55:38.999Z</time></trkpt><trkpt lat="45.95592475610906" lon="9.27116625224037"><ele>222.0</ele><time>2026-04-11T12:55:39.999Z</time></trkpt><trkpt lat="45.95608171935351" lon="9.270995060533991"><ele>223.0</ele><time>2026-04-11T12:55:40.999Z</time></trkpt><trkpt lat="45.95622789056809" lon="9.270792744398369"><ele>224.0</ele><time>2026-04-11T12:55:41.999Z</time></trkpt><trkpt lat="45.95633634240718" lon="9.270579657676963"><ele>229.66666666666669</ele><time>2026-04-11T12:55:42.999Z</time></trkpt><trkpt lat="45.956412174670085" lon="9.270363435067543"><ele>235.33333333333331</ele><time>2026-04-11T12:55:43.999Z</time></trkpt><trkpt lat="45.95647695718395" lon="9.270166889359901"><ele>241.0</ele><time>2026-04-11T12:55:44.999Z</time></trkpt><trkpt lat="45.95655959698402" lon="9.270004909722854"><ele>241.0</ele><time>2026-04-11T12:55:45.999Z</time></trkpt><trkpt lat="45.95668734345644" lon="9.269898169616821"><ele>241.0</ele><time>2026-04-11T12:55:46.999Z</time></trkpt><trkpt lat="45.95684520743345" lon="9.2698666401007"><ele>241.0</ele><time>2026-04-11T12:55:47.999Z</time></trkpt><trkpt lat="45.95702324665124" lon="9.269872592893412"><ele>237.66666666666666</ele><time>2026-04-11T12:55:48.999Z</time></trkpt><trkpt lat="45.95720433371095" lon="9.269854842527764"><ele>234.33333333333331</ele><time>2026-04-11T12:55:49.999Z</time></trkpt><trkpt lat="45.95737956310098" lon="9.269809087871355"><ele>231.0</ele><time>2026-04-11T12:55:50.999Z</time></trkpt><trkpt lat="45.9575619121599" lon="9.269776542291591"><ele>235.33333333333331</ele><time>2026-04-11T12:55:51.999Z</time></trkpt><trkpt lat="45.95773996939616" lon="9.269755239526159"><ele>239.66666666666666</ele><time>2026-04-11T12:55:52.999Z</time></trkpt><trkpt lat="45.95790967991757" lon="9.269743827629132"><ele>244.0</ele><time>2026-04-11T12:55:53.998Z</time></trkpt><trkpt lat="45.95807597322435" lon="9.269719899618794"><ele>244.0</ele><time>2026-04-11T12:55:54.998Z</time></trkpt><trkpt lat="45.95824381010794" lon="9.269665779025699"><ele>244.0</ele><time>2026-04-11T12:55:55.998Z</time></trkpt><trkpt lat="45.95840460885468" lon="9.26955925813029"><ele>244.0</ele><time>2026-04-11T12:55:56.998Z</time></trkpt><trkpt lat="45.958560774995675" lon="9.269401651196704"><ele>239.0</ele><time>2026-04-11T12:55:57.998Z</time></trkpt><trkpt lat="45.95870689842127" lon="9.269220561013796"><ele>234.0</ele><time>2026-04-11T12:55:58.998Z</time></trkpt><trkpt lat="45.95887283974946" lon="9.269067243326894"><ele>229.0</ele><time>2026-04-11T12:55:59.998Z</time></trkpt><trkpt lat="45.959033933350945" lon="9.268964200829586"><ele>234.33333333333331</ele><time>2026-04-11T12:56:00.998Z</time></trkpt><trkpt lat="45.959181456221714" lon="9.2688345559374"><ele>239.66666666666669</ele><time>2026-04-11T12:56:02Z</time></trkpt><trkpt lat="45.95928284350342" lon="9.26868389827566"><ele>245.0</ele><time>2026-04-11T12:56:03Z</time></trkpt><trkpt lat="45.95934526179894" lon="9.268486198286144"><ele>238.5</ele><time>2026-04-11T12:56:04Z</time></trkpt><trkpt lat="45.9593873727439" lon="9.268276157977656"><ele>232.0</ele><time>2026-04-11T12:56:05Z</time></trkpt><trkpt lat="45.959416677909694" lon="9.268083735248515"><ele>225.5</ele><time>2026-04-11T12:56:06Z</time></trkpt><trkpt lat="45.95948994291916" lon="9.26791659409796"><ele>219.0</ele><time>2026-04-11T12:56:07Z</time></trkpt><trkpt lat="45.95959588426112" lon="9.267792841816371"><ele>219.0</ele><time>2026-04-11T12:56:08Z</time></trkpt><trkpt lat="45.95967750899544" lon="9.267738233338752"><ele>219.0</ele><time>2026-04-11T12:56:09Z</time></trkpt><trkpt lat="45.95971337548253" lon="9.26765851510728"><ele>219.0</ele><time>2026-04-11T12:56:10Z</time></trkpt><trkpt lat="45.9597441927395" lon="9.267563055242562"><ele>219.0</ele><time>2026-04-11T12:56:11Z</time></trkpt><trkpt lat="45.95978249427225" lon="9.267452248550727"><ele>219.0</ele><time>2026-04-11T12:56:12Z</time></trkpt><trkpt lat="45.9598220873909" lon="9.267352852014664"><ele>219.0</ele><time>2026-04-11T12:56:13Z</time></trkpt><trkpt lat="45.95986004805467" lon="9.26725732924039"><ele>220.33333333333334</ele><time>2026-04-11T12:56:14Z</time></trkpt><trkpt lat="45.95988808272451" lon="9.267153572004204"><ele>221.66666666666669</ele><time>2026-04-11T12:56:15Z</time></trkpt><trkpt lat="45.95990221139817" lon="9.267042692251593"><ele>223.0</ele><time>2026-04-11T12:56:16Z</time></trkpt><trkpt lat="45.95990774575852" lon="9.26692941410477"><ele>224.33333333333334</ele><time>2026-04-11T12:56:17Z</time></trkpt><trkpt lat="45.95990641713841" lon="9.266814379483671"><ele>225.66666666666669</ele><time>2026-04-11T12:56:18Z</time></trkpt><trkpt lat="45.95990665914464" lon="9.266703866839922"><ele>227.0</ele><time>2026-04-11T12:56:19Z</time></trkpt><trkpt lat="45.9599028578664" lon="9.266599526417796"><ele>227.00000000000003</ele><time>2026-04-11T12:56:20Z</time></trkpt><trkpt lat="45.95990067414751" lon="9.266500659941252"><ele>227.0</ele><time>2026-04-11T12:56:21Z</time></trkpt><trkpt lat="45.95990523167203" lon="9.266397869754401"><ele>227.0</ele><time>2026-04-11T12:56:22Z</time></trkpt><trkpt lat="45.95993011342677" lon="9.26629165877293"><ele>227.0</ele><time>2026-04-11T12:56:23Z</time></trkpt><trkpt lat="45.959984702828066" lon="9.266200173429379"><ele>227.00000000000003</ele><time>2026-04-11T12:56:24Z</time></trkpt><trkpt lat="45.96005685295568" lon="9.26615508884062"><ele>227.0</ele><time>2026-04-11T12:56:25Z</time></trkpt><trkpt lat="45.96013370221781" lon="9.26615011313225"><ele>227.00000000000003</ele><time>2026-04-11T12:56:26Z</time></trkpt><trkpt lat="45.96021752752508" lon="9.266156148484104"><ele>227.0</ele><time>2026-04-11T12:56:27Z</time></trkpt><trkpt lat="45.96029869721926" lon="9.266161722336498"><ele>227.0</ele><time>2026-04-11T12:56:28Z</time></trkpt><trkpt lat="45.960374271902246" lon="9.266166633012848"><ele>227.0</ele><time>2026-04-11T12:56:29Z</time></trkpt><trkpt lat="45.9604555807778" lon="9.266162820887"><ele>227.00000000000003</ele><time>2026-04-11T12:56:30Z</time></trkpt><trkpt lat="45.96053589021635" lon="9.266144866168837"><ele>227.0</ele><time>2026-04-11T12:56:31Z</time></trkpt><trkpt lat="45.96062325578068" lon="9.266113951997763"><ele>227.0</ele><time>2026-04-11T12:56:31.999Z</time></trkpt><trkpt lat="45.960719599812755" lon="9.266068853811683"><ele>227.0</ele><time>2026-04-11T12:56:32.999Z</time></trkpt><trkpt lat="45.960817310561794" lon="9.266026696413794"><ele>227.0</ele><time>2026-04-11T12:56:33.999Z</time></trkpt><trkpt lat="45.96091511734109" lon="9.265982026923407"><ele>227.0</ele><time>2026-04-11T12:56:34.999Z</time></trkpt><trkpt lat="45.96101779089516" lon="9.265938014059344"><ele>227.0</ele><time>2026-04-11T12:56:35.999Z</time></trkpt><trkpt lat="45.96112194583115" lon="9.265894249655"><ele>225.0</ele><time>2026-04-11T12:56:36.999Z</time></trkpt><trkpt lat="45.961225845857996" lon="9.265843537680189"><ele>223.0</ele><time>2026-04-11T12:56:37.999Z</time></trkpt><trkpt lat="45.96133144566987" lon="9.265791045458666"><ele>221.0</ele><time>2026-04-11T12:56:38.999Z</time></trkpt><trkpt lat="45.96144108055333" lon="9.265749463092085"><ele>219.0</ele><time>2026-04-11T12:56:39.999Z</time></trkpt><trkpt lat="45.96156419307062" lon="9.265732612926747"><ele>219.0</ele><time>2026-04-11T12:56:40.999Z</time></trkpt><trkpt lat="45.96169754339617" lon="9.26576713347666"><ele>219.0</ele><time>2026-04-11T12:56:41.999Z</time></trkpt><trkpt lat="45.96182192475459" lon="9.265815563941429"><ele>219.0</ele><time>2026-04-11T12:56:42.999Z</time></trkpt><trkpt lat="45.96193342568271" lon="9.265849180029972"><ele>219.0</ele><time>2026-04-11T12:56:43.999Z</time></trkpt><trkpt lat="45.96203536011294" lon="9.265840612946256"><ele>220.2</ele><time>2026-04-11T12:56:44.999Z</time></trkpt><trkpt lat="45.962126658113846" lon="9.265784435761347"><ele>221.39999999999998</ele><time>2026-04-11T12:56:45.999Z</time></trkpt><trkpt lat="45.96222260901125" lon="9.265706549575153"><ele>222.6</ele><time>2026-04-11T12:56:46.999Z</time></trkpt><trkpt lat="45.96231661107425" lon="9.265649128402782"><ele>223.8</ele><time>2026-04-11T12:56:47.999Z</time></trkpt><trkpt lat="45.96242810774032" lon="9.265623706811418"><ele>225.0</ele><time>2026-04-11T12:56:48.999Z</time></trkpt><trkpt lat="45.96254955098924" lon="9.26565184592651"><ele>225.66666666666669</ele><time>2026-04-11T12:56:49.999Z</time></trkpt><trkpt lat="45.96268971674355" lon="9.265675761484955"><ele>226.33333333333334</ele><time>2026-04-11T12:56:50.999Z</time></trkpt><trkpt lat="45.96285252699387" lon="9.265696987777849"><ele>227.0</ele><time>2026-04-11T12:56:51.999Z</time></trkpt><trkpt lat="45.9630020584925" lon="9.2657179609799"><ele>227.0</ele><time>2026-04-11T12:56:52.999Z</time></trkpt><trkpt lat="45.96315925846157" lon="9.265740746211405"><ele>227.0</ele><time>2026-04-11T12:56:53.999Z</time></trkpt><trkpt lat="45.96331654089842" lon="9.265763965918131"><ele>227.0</ele><time>2026-04-11T12:56:54.999Z</time></trkpt><trkpt lat="45.963474982591386" lon="9.265787837449654"><ele>231.25</ele><time>2026-04-11T12:56:55.999Z</time></trkpt><trkpt lat="45.963634713957255" lon="9.265813850189886"><ele>235.5</ele><time>2026-04-11T12:56:56.999Z</time></trkpt><trkpt lat="45.96376065114642" lon="9.265835283473894"><ele>239.75</ele><time>2026-04-11T12:56:57.999Z</time></trkpt><trkpt lat="45.963869147469026" lon="9.26588015587369"><ele>244.0</ele><time>2026-04-11T12:56:58.999Z</time></trkpt><trkpt lat="45.96397893099509" lon="9.265918509818256"><ele>244.0</ele><time>2026-04-11T12:56:59.999Z</time></trkpt><trkpt lat="45.96408294912059" lon="9.265956529171287"><ele>243.99999999999997</ele><time>2026-04-11T12:57:00.999Z</time></trkpt><trkpt lat="45.9641867520024" lon="9.265993033237198"><ele>243.99999999999997</ele><time>2026-04-11T12:57:01.999Z</time></trkpt><trkpt lat="45.96429388010089" lon="9.266032461716419"><ele>244.0</ele><time>2026-04-11T12:57:02.999Z</time></trkpt><trkpt lat="45.964395027952285" lon="9.266071069447838"><ele>244.0</ele><time>2026-04-11T12:57:03.999Z</time></trkpt><trkpt lat="45.964492686754426" lon="9.266105987320763"><ele>249.0</ele><time>2026-04-11T12:57:04.999Z</time></trkpt><trkpt lat="45.96458941709506" lon="9.266142651976503"><ele>253.99999999999997</ele><time>2026-04-11T12:57:05.999Z</time></trkpt><trkpt lat="45.96468208604041" lon="9.266180065981308"><ele>259.0</ele><time>2026-04-11T12:57:06.999Z</time></trkpt><trkpt lat="45.9647695956403" lon="9.266210913732758"><ele>264.0</ele><time>2026-04-11T12:57:07.999Z</time></trkpt><trkpt lat="45.964859818566254" lon="9.266240953933945"><ele>269.0</ele><time>2026-04-11T12:57:08.999Z</time></trkpt><trkpt lat="45.964950555547276" lon="9.266275343129207"><ele>266.83333333333337</ele><time>2026-04-11T12:57:09.999Z</time></trkpt><trkpt lat="45.965031208185394" lon="9.266333606289496"><ele>264.6666666666667</ele><time>2026-04-11T12:57:10.999Z</time></trkpt><trkpt lat="45.965088013270154" lon="9.266424066371886"><ele>262.5</ele><time>2026-04-11T12:57:11.999Z</time></trkpt><trkpt lat="45.96510656393989" lon="9.2665511122687"><ele>260.3333333333333</ele><time>2026-04-11T12:57:12.999Z</time></trkpt><trkpt lat="45.965164945847086" lon="9.266651468543344"><ele>258.16666666666663</ele><time>2026-04-11T12:57:13.999Z</time></trkpt><trkpt lat="45.96521361191361" lon="9.266731084531498"><ele>256.0</ele><time>2026-04-11T12:57:14.999Z</time></trkpt><trkpt lat="45.965278329500265" lon="9.266797531217485"><ele>255.99999999999997</ele><time>2026-04-11T12:57:15.999Z</time></trkpt><trkpt lat="45.96535077069085" lon="9.266836150348318"><ele>256.0</ele><time>2026-04-11T12:57:16.999Z</time></trkpt><trkpt lat="45.96542511438314" lon="9.26684433684014"><ele>256.0</ele><time>2026-04-11T12:57:17.999Z</time></trkpt><trkpt lat="45.965501065282304" lon="9.26682823225496"><ele>256.0</ele><time>2026-04-11T12:57:18.999Z</time></trkpt><trkpt lat="45.96558176321942" lon="9.266804099201044"><ele>255.99999999999997</ele><time>2026-04-11T12:57:19.999Z</time></trkpt><trkpt lat="45.96567097874908" lon="9.266799420389223"><ele>256.0</ele><time>2026-04-11T12:57:20.999Z</time></trkpt><trkpt lat="45.96576590273842" lon="9.266825311783792"><ele>256.0</ele><time>2026-04-11T12:57:21.999Z</time></trkpt><trkpt lat="45.96586018733685" lon="9.266871008959734"><ele>256.0</ele><time>2026-04-11T12:57:22.999Z</time></trkpt><trkpt lat="45.96595223225651" lon="9.26691551097912"><ele>256.0</ele><time>2026-04-11T12:57:23.999Z</time></trkpt><trkpt lat="45.966040338048096" lon="9.266959966226763"><ele>256.0</ele><time>2026-04-11T12:57:24.999Z</time></trkpt><trkpt lat="45.96612507407541" lon="9.267003432316786"><ele>256.0</ele><time>2026-04-11T12:57:25.999Z</time></trkpt><trkpt lat="45.96621010339204" lon="9.267045671554524"><ele>253.83333333333331</ele><time>2026-04-11T12:57:26.999Z</time></trkpt><trkpt lat="45.966291980697505" lon="9.267092104422408"><ele>251.66666666666666</ele><time>2026-04-11T12:57:27.999Z</time></trkpt><trkpt lat="45.966371390908456" lon="9.267143915491776"><ele>249.5</ele><time>2026-04-11T12:57:28.999Z</time></trkpt><trkpt lat="45.96645188688987" lon="9.267199533710322"><ele>247.33333333333331</ele><time>2026-04-11T12:57:29.999Z</time></trkpt><trkpt lat="45.96653053205465" lon="9.267264557429968"><ele>245.16666666666666</ele><time>2026-04-11T12:57:30.999Z</time></trkpt><trkpt lat="45.966604542130575" lon="9.267323975453632"><ele>243.0</ele><time>2026-04-11T12:57:31.999Z</time></trkpt><trkpt lat="45.96667379619548" lon="9.267369567223655"><ele>243.57142857142856</ele><time>2026-04-11T12:57:32.999Z</time></trkpt><trkpt lat="45.96674965805349" lon="9.26738075123676"><ele>244.14285714285717</ele><time>2026-04-11T12:57:33.999Z</time></trkpt><trkpt lat="45.96683192824924" lon="9.267368943535319"><ele>244.71428571428572</ele><time>2026-04-11T12:57:34.999Z</time></trkpt><trkpt lat="45.96690704712883" lon="9.26736057462834"><ele>245.28571428571428</ele><time>2026-04-11T12:57:35.999Z</time></trkpt><trkpt lat="45.96697808911367" lon="9.267376207567306"><ele>245.85714285714283</ele><time>2026-04-11T12:57:36.999Z</time></trkpt><trkpt lat="45.967042040579" lon="9.267419151067857"><ele>246.42857142857144</ele><time>2026-04-11T12:57:37.999Z</time></trkpt><trkpt lat="45.96710565553586" lon="9.267463375184304"><ele>247.0</ele><time>2026-04-11T12:57:38.999Z</time></trkpt><trkpt lat="45.967176800334485" lon="9.267497612819414"><ele>246.99999999999997</ele><time>2026-04-11T12:57:39.999Z</time></trkpt><trkpt lat="45.96725821361838" lon="9.2675071095348"><ele>247.0</ele><time>2026-04-11T12:57:40.999Z</time></trkpt><trkpt lat="45.96734827183643" lon="9.267483977176411"><ele>247.0</ele><time>2026-04-11T12:57:41.999Z</time></trkpt><trkpt lat="45.96743746557726" lon="9.26744185634747"><ele>247.0</ele><time>2026-04-11T12:57:42.999Z</time></trkpt><trkpt lat="45.9675200392932" lon="9.267394115121748"><ele>246.99999999999997</ele><time>2026-04-11T12:57:43.999Z</time></trkpt><trkpt lat="45.96759662753772" lon="9.267352382335654"><ele>247.0</ele><time>2026-04-11T12:57:44.999Z</time></trkpt><trkpt lat="45.96767415467689" lon="9.267314712109682"><ele>248.33333333333331</ele><time>2026-04-11T12:57:45.999Z</time></trkpt><trkpt lat="45.96775215369727" lon="9.267276713419271"><ele>249.66666666666666</ele><time>2026-04-11T12:57:46.999Z</time></trkpt><trkpt lat="45.967829677055825" lon="9.267237230044755"><ele>251.0</ele><time>2026-04-11T12:57:47.999Z</time></trkpt><trkpt lat="45.96790618390592" lon="9.267202583715678"><ele>252.33333333333331</ele><time>2026-04-11T12:57:48.999Z</time></trkpt><trkpt lat="45.96798011424949" lon="9.267170873612685"><ele>253.66666666666666</ele><time>2026-04-11T12:57:49.999Z</time></trkpt><trkpt lat="45.96804634852111" lon="9.267140720099315"><ele>255.0</ele><time>2026-04-11T12:57:50.999Z</time></trkpt><trkpt lat="45.96810724364908" lon="9.267104745821667"><ele>255.0</ele><time>2026-04-11T12:57:51.999Z</time></trkpt><trkpt lat="45.968167564531754" lon="9.267056509712582"><ele>255.00000000000003</ele><time>2026-04-11T12:57:52.999Z</time></trkpt><trkpt lat="45.96821621109459" lon="9.26698168335761"><ele>255.0</ele><time>2026-04-11T12:57:53.998Z</time></trkpt><trkpt lat="45.96824428726635" lon="9.266882969344742"><ele>255.0</ele><time>2026-04-11T12:57:54.998Z</time></trkpt><trkpt lat="45.96825588108973" lon="9.266774704879063"><ele>255.00000000000003</ele><time>2026-04-11T12:57:55.998Z</time></trkpt><trkpt lat="45.96826432408128" lon="9.266660304222588"><ele>255.0</ele><time>2026-04-11T12:57:56.998Z</time></trkpt><trkpt lat="45.96827379528575" lon="9.266550124542867"><ele>255.0</ele><time>2026-04-11T12:57:57.998Z</time></trkpt><trkpt lat="45.968292624333145" lon="9.266447181132717"><ele>257.0</ele><time>2026-04-11T12:57:58.998Z</time></trkpt><trkpt lat="45.96833041330735" lon="9.266362174642145"><ele>259.0</ele><time>2026-04-11T12:57:59.998Z</time></trkpt><trkpt lat="45.96838186669297" lon="9.266297426049613"><ele>261.0</ele><time>2026-04-11T12:58:00.998Z</time></trkpt><trkpt lat="45.96844406212668" lon="9.266247429653912"><ele>263.0</ele><time>2026-04-11T12:58:01.998Z</time></trkpt><trkpt lat="45.968516115149114" lon="9.26622408419396"><ele>265.0</ele><time>2026-04-11T12:58:02.998Z</time></trkpt><trkpt lat="45.96859342489539" lon="9.266228592367744"><ele>267.0</ele><time>2026-04-11T12:58:03.998Z</time></trkpt><trkpt lat="45.9686714911929" lon="9.26626083049117"><ele>269.0</ele><time>2026-04-11T12:58:04.998Z</time></trkpt><trkpt lat="45.96875111087425" lon="9.266305338127953"><ele>269.0</ele><time>2026-04-11T12:58:05.998Z</time></trkpt><trkpt lat="45.96883436645159" lon="9.266353589053649"><ele>269.0</ele><time>2026-04-11T12:58:06.998Z</time></trkpt><trkpt lat="45.96891923617745" lon="9.266400056845825"><ele>269.0</ele><time>2026-04-11T12:58:08Z</time></trkpt><trkpt lat="45.96900749036397" lon="9.266434128076542"><ele>269.0</ele><time>2026-04-11T12:58:09Z</time></trkpt><trkpt lat="45.96909858425654" lon="9.266431095306485"><ele>269.0</ele><time>2026-04-11T12:58:10Z</time></trkpt><trkpt lat="45.969183086394324" lon="9.266402098367214"><ele>268.6666666666667</ele><time>2026-04-11T12:58:11Z</time></trkpt><trkpt lat="45.96925973325705" lon="9.266349188246306"><ele>268.33333333333337</ele><time>2026-04-11T12:58:12Z</time></trkpt><trkpt lat="45.969325348835575" lon="9.266274662548236"><ele>268.0</ele><time>2026-04-11T12:58:13Z</time></trkpt><trkpt lat="45.96938496252439" lon="9.266188878977669"><ele>267.6666666666667</ele><time>2026-04-11T12:58:14Z</time></trkpt><trkpt lat="45.9694464725046" lon="9.266103668644218"><ele>267.3333333333333</ele><time>2026-04-11T12:58:15Z</time></trkpt><trkpt lat="45.969523254851985" lon="9.26604502684456"><ele>267.0</ele><time>2026-04-11T12:58:16Z</time></trkpt><trkpt lat="45.969608505957055" lon="9.26601908819145"><ele>267.0</ele><time>2026-04-11T12:58:17Z</time></trkpt><trkpt lat="45.96970353917115" lon="9.266015785327792"><ele>267.0</ele><time>2026-04-11T12:58:18Z</time></trkpt><trkpt lat="45.96981353791473" lon="9.266027253857061"><ele>267.0</ele><time>2026-04-11T12:58:19Z</time></trkpt><trkpt lat="45.96993200187242" lon="9.266040350646284"><ele>267.0</ele><time>2026-04-11T12:58:20Z</time></trkpt><trkpt lat="45.97004418975466" lon="9.266063366989846"><ele>267.0</ele><time>2026-04-11T12:58:21Z</time></trkpt><trkpt lat="45.97015212175381" lon="9.266073752376881"><ele>266.8571428571429</ele><time>2026-04-11T12:58:22Z</time></trkpt><trkpt lat="45.970245409480206" lon="9.26605519559092"><ele>266.7142857142857</ele><time>2026-04-11T12:58:23Z</time></trkpt><trkpt lat="45.97032585139259" lon="9.266032225328553"><ele>266.57142857142856</ele><time>2026-04-11T12:58:24Z</time></trkpt><trkpt lat="45.97039265616754" lon="9.266004897551989"><ele>266.42857142857144</ele><time>2026-04-11T12:58:25Z</time></trkpt><trkpt lat="45.970450957486925" lon="9.265969691216316"><ele>266.2857142857143</ele><time>2026-04-11T12:58:26Z</time></trkpt><trkpt lat="45.970500384572105" lon="9.265904594727127"><ele>266.14285714285717</ele><time>2026-04-11T12:58:27Z</time></trkpt><trkpt lat="45.970541244183124" lon="9.265822347729793"><ele>266.0</ele><time>2026-04-11T12:58:28Z</time></trkpt><trkpt lat="45.97057329112189" lon="9.265725388193317"><ele>266.0</ele><time>2026-04-11T12:58:29Z</time></trkpt><trkpt lat="45.97060003529225" lon="9.26562388010024"><ele>266.0</ele><time>2026-04-11T12:58:30Z</time></trkpt><trkpt lat="45.97062747059413" lon="9.26552534625071"><ele>266.0</ele><time>2026-04-11T12:58:31Z</time></trkpt><trkpt lat="45.97066242084278" lon="9.265431863398629"><ele>266.0</ele><time>2026-04-11T12:58:32Z</time></trkpt><trkpt lat="45.97071304475488" lon="9.265346222493706"><ele>266.0</ele><time>2026-04-11T12:58:32.999Z</time></trkpt><trkpt lat="45.970782025567836" lon="9.265288603353923"><ele>266.0</ele><time>2026-04-11T12:58:33.999Z</time></trkpt><trkpt lat="45.97085900358062" lon="9.265257583205054"><ele>269.1666666666667</ele><time>2026-04-11T12:58:34.999Z</time></trkpt><trkpt lat="45.97093633743634" lon="9.265250783139926"><ele>272.33333333333337</ele><time>2026-04-11T12:58:35.999Z</time></trkpt><trkpt lat="45.97100409007378" lon="9.265254329046401"><ele>275.5</ele><time>2026-04-11T12:58:36.999Z</time></trkpt><trkpt lat="45.97106944511833" lon="9.265261641840231"><ele>278.6666666666667</ele><time>2026-04-11T12:58:37.999Z</time></trkpt><trkpt lat="45.971144077605736" lon="9.265268682113602"><ele>281.8333333333333</ele><time>2026-04-11T12:58:38.999Z</time></trkpt><trkpt lat="45.97122345133241" lon="9.265262582538128"><ele>285.0</ele><time>2026-04-11T12:58:39.999Z</time></trkpt><trkpt lat="45.97130627943293" lon="9.265234934702463"><ele>285.0</ele><time>2026-04-11T12:58:40.999Z</time></trkpt><trkpt lat="45.97137533463274" lon="9.265162653706527"><ele>285.0</ele><time>2026-04-11T12:58:41.999Z</time></trkpt><trkpt lat="45.97143435722097" lon="9.265061508314481"><ele>285.0</ele><time>2026-04-11T12:58:42.999Z</time></trkpt><trkpt lat="45.97147457462319" lon="9.264955438944048"><ele>285.0</ele><time>2026-04-11T12:58:43.999Z</time></trkpt><trkpt lat="45.97151017578268" lon="9.264849612492313"><ele>285.0</ele><time>2026-04-11T12:58:44.999Z</time></trkpt><trkpt lat="45.97154138129127" lon="9.264740527132103"><ele>285.0</ele><time>2026-04-11T12:58:45.999Z</time></trkpt><trkpt lat="45.97157243752231" lon="9.264633327908362"><ele>285.1666666666667</ele><time>2026-04-11T12:58:46.999Z</time></trkpt><trkpt lat="45.97160691070154" lon="9.26452660607649"><ele>285.3333333333333</ele><time>2026-04-11T12:58:47.999Z</time></trkpt><trkpt lat="45.971640471288794" lon="9.264425551413177"><ele>285.5</ele><time>2026-04-11T12:58:48.999Z</time></trkpt><trkpt lat="45.97167090127661" lon="9.264327350942644"><ele>285.66666666666663</ele><time>2026-04-11T12:58:49.999Z</time></trkpt><trkpt lat="45.97170846048964" lon="9.264222143317054"><ele>285.8333333333333</ele><time>2026-04-11T12:58:50.999Z</time></trkpt><trkpt lat="45.97175502677048" lon="9.264119642577874"><ele>286.0</ele><time>2026-04-11T12:58:51.999Z</time></trkpt><trkpt lat="45.971818614846754" lon="9.264029904133528"><ele>286.2</ele><time>2026-04-11T12:58:52.999Z</time></trkpt><trkpt lat="45.97188634711211" lon="9.263937080150416"><ele>286.40000000000003</ele><time>2026-04-11T12:58:53.999Z</time></trkpt><trkpt lat="45.97195069281151" lon="9.263842862188481"><ele>286.6</ele><time>2026-04-11T12:58:54.999Z</time></trkpt><trkpt lat="45.972009311526264" lon="9.263748322636072"><ele>286.8</ele><time>2026-04-11T12:58:55.999Z</time></trkpt><trkpt lat="45.97206867824371" lon="9.26365173142124"><ele>287.0</ele><time>2026-04-11T12:58:56.999Z</time></trkpt><trkpt lat="45.97212575046383" lon="9.26355279918865"><ele>287.0</ele><time>2026-04-11T12:58:57.999Z</time></trkpt><trkpt lat="45.972184767175676" lon="9.263449541439455"><ele>287.0</ele><time>2026-04-11T12:58:58.999Z</time></trkpt><trkpt lat="45.97224144930694" lon="9.263346162126608"><ele>287.0</ele><time>2026-04-11T12:58:59.999Z</time></trkpt><trkpt lat="45.97229853729007" lon="9.263239316522741"><ele>287.0</ele><time>2026-04-11T12:59:00.999Z</time></trkpt><trkpt lat="45.972353795745875" lon="9.263139134916099"><ele>287.0</ele><time>2026-04-11T12:59:01.999Z</time></trkpt><trkpt lat="45.9724067498683" lon="9.263039738711067"><ele>286.83333333333337</ele><time>2026-04-11T12:59:02.999Z</time></trkpt><trkpt lat="45.97245835614125" lon="9.262942150030717"><ele>286.6666666666667</ele><time>2026-04-11T12:59:03.999Z</time></trkpt><trkpt lat="45.9725092814182" lon="9.262844405566822"><ele>286.5</ele><time>2026-04-11T12:59:04.999Z</time></trkpt><trkpt lat="45.97255211010782" lon="9.262743509551253"><ele>286.3333333333333</ele><time>2026-04-11T12:59:05.999Z</time></trkpt><trkpt lat="45.97258319760312" lon="9.262636655772399"><ele>286.16666666666663</ele><time>2026-04-11T12:59:06.999Z</time></trkpt><trkpt lat="45.97259501992877" lon="9.262531670757562"><ele>286.0</ele><time>2026-04-11T12:59:07.999Z</time></trkpt><trkpt lat="45.972598170934084" lon="9.262422776105254"><ele>284.16666666666663</ele><time>2026-04-11T12:59:08.999Z</time></trkpt><trkpt lat="45.972597967830794" lon="9.262310118963262"><ele>282.3333333333333</ele><time>2026-04-11T12:59:09.999Z</time></trkpt><trkpt lat="45.97259662349294" lon="9.262193726944652"><ele>280.5</ele><time>2026-04-11T12:59:10.999Z</time></trkpt><trkpt lat="45.97259362040661" lon="9.26207647902429"><ele>278.6666666666667</ele><time>2026-04-11T12:59:11.999Z</time></trkpt><trkpt lat="45.97258923113206" lon="9.26196720108845"><ele>276.83333333333337</ele><time>2026-04-11T12:59:12.999Z</time></trkpt><trkpt lat="45.97258710092056" lon="9.261861365963286"><ele>275.0</ele><time>2026-04-11T12:59:13.999Z</time></trkpt><trkpt lat="45.972585225773486" lon="9.261762473687481"><ele>274.1666666666667</ele><time>2026-04-11T12:59:14.999Z</time></trkpt><trkpt lat="45.972586068046255" lon="9.26166248022681"><ele>273.33333333333337</ele><time>2026-04-11T12:59:15.999Z</time></trkpt><trkpt lat="45.97259965853933" lon="9.261557425675864"><ele>272.5</ele><time>2026-04-11T12:59:16.999Z</time></trkpt><trkpt lat="45.972640932414755" lon="9.261447439084979"><ele>271.6666666666667</ele><time>2026-04-11T12:59:17.999Z</time></trkpt><trkpt lat="45.972690372170604" lon="9.261344638639775"><ele>270.8333333333333</ele><time>2026-04-11T12:59:18.999Z</time></trkpt><trkpt lat="45.97272443892927" lon="9.261237835018141"><ele>270.0</ele><time>2026-04-11T12:59:19.999Z</time></trkpt><trkpt lat="45.97274279149592" lon="9.261132122406169"><ele>270.0</ele><time>2026-04-11T12:59:20.999Z</time></trkpt><trkpt lat="45.97275903080877" lon="9.261033792283904"><ele>270.0</ele><time>2026-04-11T12:59:21.999Z</time></trkpt><trkpt lat="45.97277364937252" lon="9.260938720977832"><ele>270.0</ele><time>2026-04-11T12:59:22.999Z</time></trkpt><trkpt lat="45.97277925462749" lon="9.260847167652"><ele>270.0</ele><time>2026-04-11T12:59:23.999Z</time></trkpt><trkpt lat="45.97272102066326" lon="9.260726446237648"><ele>270.0</ele><time>2026-04-11T12:59:25.999Z</time></trkpt><trkpt lat="45.97265859858533" lon="9.260697103118142"><ele>270.0</ele><time>2026-04-11T12:59:29.999Z</time></trkpt><trkpt lat="45.972588954197974" lon="9.26066257685366"><ele>270.0</ele><time>2026-04-11T12:59:32.999Z</time></trkpt><trkpt lat="45.972553405209915" lon="9.260586507454631"><ele>270.0</ele><time>2026-04-11T12:59:34.999Z</time></trkpt><trkpt lat="45.97264822028406" lon="9.26048016912229"><ele>270.0</ele><time>2026-04-11T12:59:36.999Z</time></trkpt><trkpt lat="45.97272097707642" lon="9.260509460512363"><ele>270.0</ele><time>2026-04-11T12:59:37.999Z</time></trkpt><trkpt lat="45.972787991277116" lon="9.260599027291628"><ele>270.0</ele><time>2026-04-11T12:59:38.999Z</time></trkpt><trkpt lat="45.97285463657234" lon="9.260670104554345"><ele>270.0</ele><time>2026-04-11T12:59:39.999Z</time></trkpt><trkpt lat="45.97291218684081" lon="9.260760971337113"><ele>270.0</ele><time>2026-04-11T12:59:40.999Z</time></trkpt><trkpt lat="45.9729744328543" lon="9.26085615289764"><ele>270.0</ele><time>2026-04-11T12:59:41.999Z</time></trkpt><trkpt lat="45.97303704604761" lon="9.26095577134972"><ele>270.0</ele><time>2026-04-11T12:59:42.999Z</time></trkpt><trkpt lat="45.97311684367941" lon="9.26102308752134"><ele>270.0</ele><time>2026-04-11T12:59:43.999Z</time></trkpt><trkpt lat="45.97320119007673" lon="9.261098271765588"><ele>270.0</ele><time>2026-04-11T12:59:44.999Z</time></trkpt><trkpt lat="45.9732849366745" lon="9.261152319009916"><ele>266.6</ele><time>2026-04-11T12:59:45.999Z</time></trkpt><trkpt lat="45.97339158961727" lon="9.26117540301961"><ele>263.2</ele><time>2026-04-11T12:59:46.999Z</time></trkpt><trkpt lat="45.9734988527894" lon="9.261164982345086"><ele>259.8</ele><time>2026-04-11T12:59:47.999Z</time></trkpt><trkpt lat="45.97360279911137" lon="9.261109743516627"><ele>256.4</ele><time>2026-04-11T12:59:48.999Z</time></trkpt><trkpt lat="45.97369999163146" lon="9.26101876867662"><ele>253.0</ele><time>2026-04-11T12:59:49.999Z</time></trkpt><trkpt lat="45.973783930182435" lon="9.260889042608708"><ele>253.0</ele><time>2026-04-11T12:59:50.999Z</time></trkpt><trkpt lat="45.973840341919775" lon="9.26072945238578"><ele>253.0</ele><time>2026-04-11T12:59:51.999Z</time></trkpt><trkpt lat="45.97387760937865" lon="9.260571810157586"><ele>253.0</ele><time>2026-04-11T12:59:52.999Z</time></trkpt><trkpt lat="45.97391638041944" lon="9.260427360201897"><ele>253.0</ele><time>2026-04-11T12:59:53.999Z</time></trkpt><trkpt lat="45.97395097848196" lon="9.260295149867494"><ele>253.0</ele><time>2026-04-11T12:59:54.998Z</time></trkpt><trkpt lat="45.973982939276404" lon="9.260180692086397"><ele>254.83333333333331</ele><time>2026-04-11T12:59:55.998Z</time></trkpt><trkpt lat="45.974042894015305" lon="9.260031828452727"><ele>256.66666666666663</ele><time>2026-04-11T12:59:57.998Z</time></trkpt><trkpt lat="45.97414952680989" lon="9.260028580681857"><ele>258.5</ele><time>2026-04-11T12:59:59.998Z</time></trkpt><trkpt lat="45.97419058577621" lon="9.260102279363387"><ele>260.3333333333333</ele><time>2026-04-11T13:00:00.998Z</time></trkpt><trkpt lat="45.97419889498679" lon="9.260195853407481"><ele>262.1666666666667</ele><time>2026-04-11T13:00:01.998Z</time></trkpt><trkpt lat="45.97415534615911" lon="9.260286682800157"><ele>264.0</ele><time>2026-04-11T13:00:02.998Z</time></trkpt><trkpt lat="45.974109380126905" lon="9.260381663125388"><ele>264.0</ele><time>2026-04-11T13:00:03.998Z</time></trkpt><trkpt lat="45.974077699463045" lon="9.26050763338019"><ele>264.0</ele><time>2026-04-11T13:00:04.998Z</time></trkpt><trkpt lat="45.974035189411346" lon="9.260629568730925"><ele>264.0</ele><time>2026-04-11T13:00:05.998Z</time></trkpt><trkpt lat="45.97399579168863" lon="9.260751926928053"><ele>264.0</ele><time>2026-04-11T13:00:06.998Z</time></trkpt><trkpt lat="45.97396052500507" lon="9.260865198239523"><ele>264.0</ele><time>2026-04-11T13:00:07.998Z</time></trkpt><trkpt lat="45.97394390689093" lon="9.260982490096723"><ele>262.1666666666667</ele><time>2026-04-11T13:00:08.998Z</time></trkpt><trkpt lat="45.973955733196135" lon="9.261088625369874"><ele>260.3333333333333</ele><time>2026-04-11T13:00:09.998Z</time></trkpt><trkpt lat="45.97399257481438" lon="9.261179038992491"><ele>258.5</ele><time>2026-04-11T13:00:10.998Z</time></trkpt><trkpt lat="45.97404413360482" lon="9.261257283253581"><ele>256.66666666666663</ele><time>2026-04-11T13:00:11.998Z</time></trkpt><trkpt lat="45.97411222612748" lon="9.261319280849268"><ele>254.83333333333331</ele><time>2026-04-11T13:00:13Z</time></trkpt><trkpt lat="45.97419934311929" lon="9.261346702670457"><ele>253.0</ele><time>2026-04-11T13:00:14Z</time></trkpt><trkpt lat="45.974293944134715" lon="9.261326894462385"><ele>251.2</ele><time>2026-04-11T13:00:15Z</time></trkpt><trkpt lat="45.974388941968776" lon="9.261323531650422"><ele>249.4</ele><time>2026-04-11T13:00:16Z</time></trkpt><trkpt lat="45.97448546677049" lon="9.261340969442047"><ele>247.59999999999997</ele><time>2026-04-11T13:00:17Z</time></trkpt><trkpt lat="45.974572783946684" lon="9.261379029283239"><ele>245.79999999999998</ele><time>2026-04-11T13:00:18Z</time></trkpt><trkpt lat="45.97465598365243" lon="9.261424873335319"><ele>244.0</ele><time>2026-04-11T13:00:19Z</time></trkpt><trkpt lat="45.974731492271175" lon="9.261485087775755"><ele>243.99999999999997</ele><time>2026-04-11T13:00:20Z</time></trkpt><trkpt lat="45.97480053567863" lon="9.261551229114314"><ele>244.0</ele><time>2026-04-11T13:00:21Z</time></trkpt><trkpt lat="45.97486357150786" lon="9.261623468647619"><ele>244.0</ele><time>2026-04-11T13:00:22Z</time></trkpt><trkpt lat="45.97492330440751" lon="9.261700037903775"><ele>244.0</ele><time>2026-04-11T13:00:23Z</time></trkpt><trkpt lat="45.97498787452237" lon="9.261787841127182"><ele>243.99999999999997</ele><time>2026-04-11T13:00:24Z</time></trkpt><trkpt lat="45.975062681175544" lon="9.261885075593698"><ele>244.0</ele><time>2026-04-11T13:00:25Z</time></trkpt><trkpt lat="45.975143534071876" lon="9.261984047069964"><ele>241.25</ele><time>2026-04-11T13:00:26Z</time></trkpt><trkpt lat="45.97523279738369" lon="9.262074970245859"><ele>238.5</ele><time>2026-04-11T13:00:27Z</time></trkpt><trkpt lat="45.975332558820426" lon="9.262149554530513"><ele>235.75</ele><time>2026-04-11T13:00:28Z</time></trkpt><trkpt lat="45.97544707707583" lon="9.262192273184555"><ele>233.0</ele><time>2026-04-11T13:00:29Z</time></trkpt><trkpt lat="45.97557944557342" lon="9.262210734849997"><ele>233.0</ele><time>2026-04-11T13:00:30Z</time></trkpt><trkpt lat="45.97572041354842" lon="9.262253783421496"><ele>233.0</ele><time>2026-04-11T13:00:31Z</time></trkpt><trkpt lat="45.975872403039986" lon="9.262283262241398"><ele>233.0</ele><time>2026-04-11T13:00:32Z</time></trkpt><trkpt lat="45.97602698432025" lon="9.262313273088456"><ele>233.33333333333334</ele><time>2026-04-11T13:00:32.999Z</time></trkpt><trkpt lat="45.97618333899575" lon="9.262346401531746"><ele>233.66666666666669</ele><time>2026-04-11T13:00:33.999Z</time></trkpt><trkpt lat="45.97633883264405" lon="9.262380157467181"><ele>234.0</ele><time>2026-04-11T13:00:34.999Z</time></trkpt><trkpt lat="45.97649303930977" lon="9.262392889080651"><ele>234.0</ele><time>2026-04-11T13:00:35.999Z</time></trkpt><trkpt lat="45.976641200726746" lon="9.262426589661722"><ele>234.0</ele><time>2026-04-11T13:00:36.999Z</time></trkpt><trkpt lat="45.97677975303263" lon="9.262458976207094"><ele>234.0</ele><time>2026-04-11T13:00:37.999Z</time></trkpt><trkpt lat="45.97690581043343" lon="9.262491639370777"><ele>234.0</ele><time>2026-04-11T13:00:38.999Z</time></trkpt><trkpt lat="45.97701773978049" lon="9.262522928403325"><ele>234.2</ele><time>2026-04-11T13:00:39.999Z</time></trkpt><trkpt lat="45.97711667629955" lon="9.262549258499543"><ele>234.39999999999998</ele><time>2026-04-11T13:00:40.999Z</time></trkpt><trkpt lat="45.977201480905215" lon="9.262573313019193"><ele>234.6</ele><time>2026-04-11T13:00:41.999Z</time></trkpt><trkpt lat="45.97727867818819" lon="9.26257194338615"><ele>234.8</ele><time>2026-04-11T13:00:42.999Z</time></trkpt><trkpt lat="45.97736105379512" lon="9.262419284832548"><ele>235.0</ele><time>2026-04-11T13:00:44.999Z</time></trkpt><trkpt lat="45.97735298799222" lon="9.262311180314029"><ele>235.42857142857142</ele><time>2026-04-11T13:00:45.999Z</time></trkpt><trkpt lat="45.97733055195993" lon="9.262211391640761"><ele>235.85714285714283</ele><time>2026-04-11T13:00:46.999Z</time></trkpt><trkpt lat="45.97732243900227" lon="9.26211347691211"><ele>236.28571428571428</ele><time>2026-04-11T13:00:47.999Z</time></trkpt><trkpt lat="45.97732550294293" lon="9.262018633450069"><ele>236.71428571428572</ele><time>2026-04-11T13:00:48.999Z</time></trkpt><trkpt lat="45.977323521293975" lon="9.261922653032345"><ele>237.14285714285714</ele><time>2026-04-11T13:00:49.999Z</time></trkpt><trkpt lat="45.97731782254774" lon="9.261820021442134"><ele>237.57142857142856</ele><time>2026-04-11T13:00:50.999Z</time></trkpt><trkpt lat="45.97731507015416" lon="9.26171348703627"><ele>238.0</ele><time>2026-04-11T13:00:51.999Z</time></trkpt><trkpt lat="45.977312605788114" lon="9.261597554096081"><ele>238.0</ele><time>2026-04-11T13:00:52.999Z</time></trkpt><trkpt lat="45.977313565744275" lon="9.261468357066267"><ele>238.0</ele><time>2026-04-11T13:00:53.999Z</time></trkpt><trkpt lat="45.9773242656894" lon="9.261332706842609"><ele>238.0</ele><time>2026-04-11T13:00:54.999Z</time></trkpt><trkpt lat="45.97734543603637" lon="9.261196933635366"><ele>238.0</ele><time>2026-04-11T13:00:55.999Z</time></trkpt><trkpt lat="45.97737133767828" lon="9.261069871438927"><ele>238.0</ele><time>2026-04-11T13:00:56.999Z</time></trkpt><trkpt lat="45.97740372107255" lon="9.2609474654456"><ele>238.49999999999997</ele><time>2026-04-11T13:00:57.999Z</time></trkpt><trkpt lat="45.97742993870377" lon="9.260829713996621"><ele>239.0</ele><time>2026-04-11T13:00:58.999Z</time></trkpt><trkpt lat="45.97745086552888" lon="9.260714411819315"><ele>239.5</ele><time>2026-04-11T13:00:59.999Z</time></trkpt><trkpt lat="45.97747596912939" lon="9.260609211145756"><ele>240.0</ele><time>2026-04-11T13:01:00.999Z</time></trkpt><trkpt lat="45.97751235901696" lon="9.260519293394049"><ele>240.49999999999997</ele><time>2026-04-11T13:01:01.999Z</time></trkpt><trkpt lat="45.9775609152192" lon="9.260436436582408"><ele>241.0</ele><time>2026-04-11T13:01:02.999Z</time></trkpt><trkpt lat="45.97762104596566" lon="9.260351084122576"><ele>243.5</ele><time>2026-04-11T13:01:03.999Z</time></trkpt><trkpt lat="45.97770929145555" lon="9.260273843721153"><ele>246.0</ele><time>2026-04-11T13:01:04.999Z</time></trkpt><trkpt lat="45.977798524517944" lon="9.260160274944804"><ele>248.5</ele><time>2026-04-11T13:01:05.999Z</time></trkpt><trkpt lat="45.977881748393415" lon="9.260022650874612"><ele>251.0</ele><time>2026-04-11T13:01:06.999Z</time></trkpt><trkpt lat="45.97797576103691" lon="9.25988072347399"><ele>250.33333333333334</ele><time>2026-04-11T13:01:07.999Z</time></trkpt><trkpt lat="45.9780529867151" lon="9.259687572190181"><ele>249.66666666666669</ele><time>2026-04-11T13:01:08.999Z</time></trkpt><trkpt lat="45.97810693800458" lon="9.259477854390214"><ele>249.0</ele><time>2026-04-11T13:01:09.999Z</time></trkpt><trkpt lat="45.978152519267766" lon="9.259255892803976"><ele>249.0</ele><time>2026-04-11T13:01:10.999Z</time></trkpt><trkpt lat="45.97819962254586" lon="9.259032872877937"><ele>249.0</ele><time>2026-04-11T13:01:11.999Z</time></trkpt><trkpt lat="45.97825529032391" lon="9.258816343271679"><ele>249.0</ele><time>2026-04-11T13:01:12.999Z</time></trkpt><trkpt lat="45.9783126427629" lon="9.258617790830964"><ele>250.5</ele><time>2026-04-11T13:01:13.999Z</time></trkpt><trkpt lat="45.97836233531499" lon="9.258432795419543"><ele>252.0</ele><time>2026-04-11T13:01:14.999Z</time></trkpt><trkpt lat="45.97840549310007" lon="9.258268002775534"><ele>253.5</ele><time>2026-04-11T13:01:15.999Z</time></trkpt><trkpt lat="45.97844504601324" lon="9.258118828652076"><ele>255.0</ele><time>2026-04-11T13:01:16.999Z</time></trkpt><trkpt lat="45.978472354246186" lon="9.257975891424318"><ele>255.0</ele><time>2026-04-11T13:01:17.999Z</time></trkpt><trkpt lat="45.97849420149961" lon="9.257845126043833"><ele>255.0</ele><time>2026-04-11T13:01:18.999Z</time></trkpt><trkpt lat="45.97851571042655" lon="9.257719299752518"><ele>255.0</ele><time>2026-04-11T13:01:19.999Z</time></trkpt><trkpt lat="45.978536525159384" lon="9.257601835533045"><ele>255.0</ele><time>2026-04-11T13:01:20.999Z</time></trkpt><trkpt lat="45.97855605841363" lon="9.257494513172688"><ele>255.0</ele><time>2026-04-11T13:01:21.999Z</time></trkpt><trkpt lat="45.97857444722581" lon="9.257395327276381"><ele>255.0</ele><time>2026-04-11T13:01:22.999Z</time></trkpt><trkpt lat="45.978591599139335" lon="9.257298836475059"><ele>254.71428571428572</ele><time>2026-04-11T13:01:23.999Z</time></trkpt><trkpt lat="45.97860678904465" lon="9.257199914255658"><ele>254.42857142857144</ele><time>2026-04-11T13:01:24.999Z</time></trkpt><trkpt lat="45.97861964737126" lon="9.257100436789774"><ele>254.14285714285717</ele><time>2026-04-11T13:01:25.999Z</time></trkpt><trkpt lat="45.978638943092086" lon="9.257001132306007"><ele>253.8571428571429</ele><time>2026-04-11T13:01:26.999Z</time></trkpt><trkpt lat="45.97865813184051" lon="9.256903056262857"><ele>253.57142857142858</ele><time>2026-04-11T13:01:27.999Z</time></trkpt><trkpt lat="45.97867590773012" lon="9.256803105266652"><ele>253.28571428571433</ele><time>2026-04-11T13:01:28.999Z</time></trkpt><trkpt lat="45.978688469000595" lon="9.256695009770853"><ele>253.00000000000003</ele><time>2026-04-11T13:01:29.999Z</time></trkpt><trkpt lat="45.978701401378075" lon="9.25657689292676"><ele>252.33333333333331</ele><time>2026-04-11T13:01:30.999Z</time></trkpt><trkpt lat="45.978716339858224" lon="9.256451826314704"><ele>251.66666666666666</ele><time>2026-04-11T13:01:31.999Z</time></trkpt><trkpt lat="45.97872123785158" lon="9.256321733866255"><ele>251.0</ele><time>2026-04-11T13:01:32.999Z</time></trkpt><trkpt lat="45.978728722739696" lon="9.256202787130897"><ele>250.33333333333331</ele><time>2026-04-11T13:01:33.999Z</time></trkpt><trkpt lat="45.97873448744449" lon="9.256089470212432"><ele>249.66666666666666</ele><time>2026-04-11T13:01:34.999Z</time></trkpt><trkpt lat="45.97874354116875" lon="9.25597796479709"><ele>249.0</ele><time>2026-04-11T13:01:35.999Z</time></trkpt><trkpt lat="45.978756374954834" lon="9.255864615049015"><ele>249.0</ele><time>2026-04-11T13:01:36.999Z</time></trkpt><trkpt lat="45.97877480674171" lon="9.255759025778717"><ele>249.0</ele><time>2026-04-11T13:01:37.999Z</time></trkpt><trkpt lat="45.97879212430368" lon="9.2556322905491"><ele>249.0</ele><time>2026-04-11T13:01:39.999Z</time></trkpt><trkpt lat="45.97880914324701" lon="9.255500631042798"><ele>249.0</ele><time>2026-04-11T13:01:43.999Z</time></trkpt><trkpt lat="45.97882348728598" lon="9.255394397864835"><ele>249.0</ele><time>2026-04-11T13:01:45.999Z</time></trkpt><trkpt lat="45.97884870318533" lon="9.25523390496843"><ele>249.0</ele><time>2026-04-11T13:01:47.999Z</time></trkpt><trkpt lat="45.97888187816188" lon="9.255073773794791"><ele>247.2</ele><time>2026-04-11T13:01:49.999Z</time></trkpt><trkpt lat="45.9789298900132" lon="9.254922414183453"><ele>245.39999999999998</ele><time>2026-04-11T13:01:51.999Z</time></trkpt><trkpt lat="45.97900032115633" lon="9.254787873813957"><ele>243.6</ele><time>2026-04-11T13:01:53.999Z</time></trkpt><trkpt lat="45.9790853763421" lon="9.254672912770749"><ele>241.8</ele><time>2026-04-11T13:01:55.998Z</time></trkpt><trkpt lat="45.97913690429397" lon="9.254619588287644"><ele>240.0</ele><time>2026-04-11T13:01:56.998Z</time></trkpt><trkpt lat="45.97922911991964" lon="9.25454119765471"><ele>235.4</ele><time>2026-04-11T13:01:58.998Z</time></trkpt><trkpt lat="45.97929476837846" lon="9.254496354954199"><ele>230.8</ele><time>2026-04-11T13:02:00.998Z</time></trkpt><trkpt lat="45.97937345931169" lon="9.254455682293582"><ele>226.2</ele><time>2026-04-11T13:02:02.998Z</time></trkpt><trkpt lat="45.9794914799334" lon="9.254417153557046"><ele>221.6</ele><time>2026-04-11T13:02:04.998Z</time></trkpt><trkpt lat="45.97960489411745" lon="9.25444594927275"><ele>217.0</ele><time>2026-04-11T13:02:06.998Z</time></trkpt><trkpt lat="45.97971714923725" lon="9.25450339810533"><ele>217.0</ele><time>2026-04-11T13:02:08.998Z</time></trkpt><trkpt lat="45.9798153365376" lon="9.254546311407676"><ele>217.0</ele><time>2026-04-11T13:02:10.998Z</time></trkpt><trkpt lat="45.979912840438175" lon="9.254592959693781"><ele>217.0</ele><time>2026-04-11T13:02:12.998Z</time></trkpt><trkpt lat="45.98001722522659" lon="9.254632614099345"><ele>217.0</ele><time>2026-04-11T13:02:14.998Z</time></trkpt><trkpt lat="45.98012878215068" lon="9.254682366663168"><ele>217.0</ele><time>2026-04-11T13:02:16.998Z</time></trkpt><trkpt lat="45.98023104211643" lon="9.25475280737613"><ele>219.6</ele><time>2026-04-11T13:02:19Z</time></trkpt><trkpt lat="45.98033070779402" lon="9.254825695260413"><ele>222.2</ele><time>2026-04-11T13:02:21Z</time></trkpt><trkpt lat="45.980430360059906" lon="9.25490394240283"><ele>224.8</ele><time>2026-04-11T13:02:23Z</time></trkpt><trkpt lat="45.980536261006066" lon="9.254968525567726"><ele>227.4</ele><time>2026-04-11T13:02:25Z</time></trkpt><trkpt lat="45.98059133785773" lon="9.255016039321568"><ele>230.0</ele><time>2026-04-11T13:02:26Z</time></trkpt><trkpt lat="45.98070417448988" lon="9.255094108934557"><ele>230.00000000000003</ele><time>2026-04-11T13:02:28Z</time></trkpt><trkpt lat="45.98076585807091" lon="9.255137363884353"><ele>230.0</ele><time>2026-04-11T13:02:29Z</time></trkpt><trkpt lat="45.98082522781605" lon="9.255184720193661"><ele>230.0</ele><time>2026-04-11T13:02:30Z</time></trkpt><trkpt lat="45.98089040865122" lon="9.255229635453126"><ele>230.0</ele><time>2026-04-11T13:02:31Z</time></trkpt><trkpt lat="45.98098267231754" lon="9.255296513673867"><ele>230.00000000000003</ele><time>2026-04-11T13:02:33Z</time></trkpt><trkpt lat="45.98106747226976" lon="9.255349503262654"><ele>230.0</ele><time>2026-04-11T13:02:34.999Z</time></trkpt><trkpt lat="45.98115365796942" lon="9.255410341579166"><ele>230.00000000000003</ele><time>2026-04-11T13:02:36.999Z</time></trkpt><trkpt lat="45.9812570515629" lon="9.255482224687437"><ele>230.0</ele><time>2026-04-11T13:02:38.999Z</time></trkpt><trkpt lat="45.98131344519512" lon="9.255525246979325"><ele>230.0</ele><time>2026-04-11T13:02:39.999Z</time></trkpt><trkpt lat="45.98137322791008" lon="9.255566505644078"><ele>230.0</ele><time>2026-04-11T13:02:40.999Z</time></trkpt><trkpt lat="45.981435067846164" lon="9.255612581361325"><ele>230.00000000000003</ele><time>2026-04-11T13:02:41.999Z</time></trkpt><trkpt lat="45.981493110039516" lon="9.255668609102667"><ele>230.0</ele><time>2026-04-11T13:02:42.999Z</time></trkpt><trkpt lat="45.98154467183749" lon="9.255729480613947"><ele>230.00000000000003</ele><time>2026-04-11T13:02:43.999Z</time></trkpt><trkpt lat="45.98159358833708" lon="9.255794170421142"><ele>230.0</ele><time>2026-04-11T13:02:44.999Z</time></trkpt><trkpt lat="45.981645318570024" lon="9.255863874837024"><ele>230.0</ele><time>2026-04-11T13:02:45.999Z</time></trkpt><trkpt lat="45.981707528162865" lon="9.255938344240615"><ele>230.0</ele><time>2026-04-11T13:02:46.999Z</time></trkpt><trkpt lat="45.981774143039026" lon="9.25601680142764"><ele>230.00000000000003</ele><time>2026-04-11T13:02:47.999Z</time></trkpt><trkpt lat="45.981839976597335" lon="9.256081055232517"><ele>230.0</ele><time>2026-04-11T13:02:48.999Z</time></trkpt><trkpt lat="45.98190763553073" lon="9.256140449046926"><ele>225.33333333333334</ele><time>2026-04-11T13:02:49.999Z</time></trkpt><trkpt lat="45.98197991279727" lon="9.256191550871387"><ele>220.66666666666669</ele><time>2026-04-11T13:02:50.999Z</time></trkpt><trkpt lat="45.9820541806892" lon="9.256231772010695"><ele>216.0</ele><time>2026-04-11T13:02:51.999Z</time></trkpt><trkpt lat="45.9821356341852" lon="9.256261196062177"><ele>211.33333333333331</ele><time>2026-04-11T13:02:52.999Z</time></trkpt><trkpt lat="45.982214601480116" lon="9.25628035270581"><ele>206.66666666666666</ele><time>2026-04-11T13:02:53.999Z</time></trkpt><trkpt lat="45.98232484732923" lon="9.25631696016224"><ele>202.0</ele><time>2026-04-11T13:02:55.999Z</time></trkpt><trkpt lat="45.982410669998806" lon="9.256357936648657"><ele>201.99999999999997</ele><time>2026-04-11T13:02:57.999Z</time></trkpt><trkpt lat="45.98248746254898" lon="9.25636983419256"><ele>202.0</ele><time>2026-04-11T13:03:00.999Z</time></trkpt><trkpt lat="45.982547820361454" lon="9.256425737659352"><ele>202.0</ele><time>2026-04-11T13:03:02.999Z</time></trkpt><trkpt lat="45.98261793739396" lon="9.256504957686676"><ele>202.0</ele><time>2026-04-11T13:03:05.999Z</time></trkpt><trkpt lat="45.982684629191155" lon="9.256560178284186"><ele>201.99999999999997</ele><time>2026-04-11T13:03:07.999Z</time></trkpt><trkpt lat="45.98274588526723" lon="9.256631914832651"><ele>202.0</ele><time>2026-04-11T13:03:09.999Z</time></trkpt><trkpt lat="45.982810902847895" lon="9.256720543312708"><ele>201.6</ele><time>2026-04-11T13:03:11.999Z</time></trkpt><trkpt lat="45.98287589011133" lon="9.256819005921965"><ele>201.2</ele><time>2026-04-11T13:03:13.999Z</time></trkpt><trkpt lat="45.98295233591894" lon="9.256927119706056"><ele>200.8</ele><time>2026-04-11T13:03:15.999Z</time></trkpt><trkpt lat="45.98303448828708" lon="9.257039644693188"><ele>200.4</ele><time>2026-04-11T13:03:17.999Z</time></trkpt><trkpt lat="45.98308141079261" lon="9.257105506877608"><ele>200.0</ele><time>2026-04-11T13:03:18.999Z</time></trkpt><trkpt lat="45.98316738624647" lon="9.257230524599533"><ele>200.16666666666669</ele><time>2026-04-11T13:03:20.999Z</time></trkpt><trkpt lat="45.98325336541741" lon="9.257356595282172"><ele>200.33333333333334</ele><time>2026-04-11T13:03:23Z</time></trkpt><trkpt lat="45.98329821426945" lon="9.257421739010663"><ele>200.5</ele><time>2026-04-11T13:03:24Z</time></trkpt><trkpt lat="45.98334783416245" lon="9.25749386078945"><ele>200.66666666666669</ele><time>2026-04-11T13:03:25Z</time></trkpt><trkpt lat="45.983400788710924" lon="9.257570277104412"><ele>200.83333333333334</ele><time>2026-04-11T13:03:26Z</time></trkpt><trkpt lat="45.983453565096404" lon="9.257651216484021"><ele>201.0</ele><time>2026-04-11T13:03:27Z</time></trkpt><trkpt lat="45.98350805908683" lon="9.257731965306707"><ele>201.0</ele><time>2026-04-11T13:03:28Z</time></trkpt><trkpt lat="45.98356273346056" lon="9.25781364277737"><ele>201.0</ele><time>2026-04-11T13:03:29Z</time></trkpt><trkpt lat="45.983619063608444" lon="9.257895825796446"><ele>201.0</ele><time>2026-04-11T13:03:30Z</time></trkpt><trkpt lat="45.98367399458941" lon="9.257977179518845"><ele>201.0</ele><time>2026-04-11T13:03:31Z</time></trkpt><trkpt lat="45.98373136105401" lon="9.258051149769564"><ele>201.0</ele><time>2026-04-11T13:03:32Z</time></trkpt><trkpt lat="45.9837964572054" lon="9.258110002932671"><ele>201.0</ele><time>2026-04-11T13:03:33Z</time></trkpt><trkpt lat="45.98386036795796" lon="9.258163864919954"><ele>200.85714285714286</ele><time>2026-04-11T13:03:34Z</time></trkpt><trkpt lat="45.983932047311484" lon="9.258197212401306"><ele>200.71428571428572</ele><time>2026-04-11T13:03:35Z</time></trkpt><trkpt lat="45.98400014453775" lon="9.258233347809425"><ele>200.57142857142858</ele><time>2026-04-11T13:03:36Z</time></trkpt><trkpt lat="45.98407155537529" lon="9.258268293544738"><ele>200.42857142857144</ele><time>2026-04-11T13:03:37Z</time></trkpt><trkpt lat="45.98414113404095" lon="9.25829965255036"><ele>200.28571428571428</ele><time>2026-04-11T13:03:38Z</time></trkpt><trkpt lat="45.98421238786796" lon="9.258333451720599"><ele>200.14285714285717</ele><time>2026-04-11T13:03:39Z</time></trkpt><trkpt lat="45.984281199285725" lon="9.2583711412022"><ele>200.0</ele><time>2026-04-11T13:03:40Z</time></trkpt><trkpt lat="45.98435017448451" lon="9.258411677688565"><ele>200.00000000000003</ele><time>2026-04-11T13:03:41Z</time></trkpt><trkpt lat="45.984414910544544" lon="9.258459828767103"><ele>200.0</ele><time>2026-04-11T13:03:42Z</time></trkpt><trkpt lat="45.98447892933031" lon="9.258517155084128"><ele>200.0</ele><time>2026-04-11T13:03:43Z</time></trkpt><trkpt lat="45.98454748118584" lon="9.258603022062305"><ele>200.0</ele><time>2026-04-11T13:03:44Z</time></trkpt><trkpt lat="45.98461719090565" lon="9.258699633435631"><ele>200.00000000000003</ele><time>2026-04-11T13:03:45Z</time></trkpt><trkpt lat="45.984686995416716" lon="9.258809973670038"><ele>200.0</ele><time>2026-04-11T13:03:46Z</time></trkpt><trkpt lat="45.98476048507709" lon="9.258920869541678"><ele>199.8</ele><time>2026-04-11T13:03:47Z</time></trkpt><trkpt lat="45.98483847094743" lon="9.259034069581599"><ele>199.6</ele><time>2026-04-11T13:03:48Z</time></trkpt><trkpt lat="45.984913639039036" lon="9.259142491053543"><ele>199.39999999999998</ele><time>2026-04-11T13:03:48.999Z</time></trkpt><trkpt lat="45.98498353914638" lon="9.25924859817621"><ele>199.2</ele><time>2026-04-11T13:03:49.999Z</time></trkpt><trkpt lat="45.9850489823878" lon="9.259343833899646"><ele>199.0</ele><time>2026-04-11T13:03:50.999Z</time></trkpt><trkpt lat="45.98510789650374" lon="9.259426398081363"><ele>198.99999999999997</ele><time>2026-04-11T13:03:51.999Z</time></trkpt><trkpt lat="45.98516334832967" lon="9.259499351869813"><ele>199.0</ele><time>2026-04-11T13:03:52.999Z</time></trkpt><trkpt lat="45.98521359558854" lon="9.25956878179744"><ele>199.0</ele><time>2026-04-11T13:03:53.999Z</time></trkpt><trkpt lat="45.985293090834936" lon="9.259681759144675"><ele>199.0</ele><time>2026-04-11T13:03:55.999Z</time></trkpt><trkpt lat="45.98535198852395" lon="9.259775984713285"><ele>198.99999999999997</ele><time>2026-04-11T13:03:57.999Z</time></trkpt><trkpt lat="45.98537704425061" lon="9.259875192603864"><ele>199.0</ele><time>2026-04-11T13:03:59.999Z</time></trkpt><trkpt lat="45.98534543682127" lon="9.260018548370924"><ele>199.2</ele><time>2026-04-11T13:04:01.999Z</time></trkpt><trkpt lat="45.98528505502585" lon="9.260112597508607"><ele>199.39999999999998</ele><time>2026-04-11T13:04:03.999Z</time></trkpt><trkpt lat="45.98521822598824" lon="9.260186412476234"><ele>199.6</ele><time>2026-04-11T13:04:05.999Z</time></trkpt><trkpt lat="45.985218890471586" lon="9.260343950471745"><ele>199.8</ele><time>2026-04-11T13:04:07.999Z</time></trkpt><trkpt lat="45.98528935825897" lon="9.260439401225602"><ele>200.0</ele><time>2026-04-11T13:04:08.999Z</time></trkpt><trkpt lat="45.985317957438646" lon="9.260595853656787"><ele>200.0</ele><time>2026-04-11T13:04:10.999Z</time></trkpt><trkpt lat="45.985274164456165" lon="9.260662725082788"><ele>200.0</ele><time>2026-04-11T13:04:11.999Z</time></trkpt><trkpt lat="45.98513931450474" lon="9.260616256233119"><ele>200.0</ele><time>2026-04-11T13:04:13.999Z</time></trkpt><trkpt lat="45.98505719208016" lon="9.260538118079365"><ele>200.0</ele><time>2026-04-11T13:04:14.999Z</time></trkpt><trkpt lat="45.98495060237144" lon="9.26046585450301"><ele>200.0</ele><time>2026-04-11T13:04:15.999Z</time></trkpt><trkpt lat="45.98482209388235" lon="9.260358400484572"><ele>202.00000000000003</ele><time>2026-04-11T13:04:16.999Z</time></trkpt><trkpt lat="45.984735841179734" lon="9.260260106952076"><ele>204.0</ele><time>2026-04-11T13:04:17.999Z</time></trkpt><trkpt lat="45.984681349265955" lon="9.260170354839998"><ele>206.0</ele><time>2026-04-11T13:04:18.999Z</time></trkpt><trkpt lat="45.984615011035" lon="9.260100347173205"><ele>208.0</ele><time>2026-04-11T13:04:19.999Z</time></trkpt><trkpt lat="45.98456875956328" lon="9.260034358107553"><ele>210.00000000000003</ele><time>2026-04-11T13:04:20.999Z</time></trkpt><trkpt lat="45.984530462155355" lon="9.259960059575782"><ele>212.0</ele><time>2026-04-11T13:04:21.999Z</time></trkpt><trkpt lat="45.984437257840746" lon="9.259895648071854"><ele>212.0</ele><time>2026-04-11T13:04:23.999Z</time></trkpt><trkpt lat="45.98434361079543" lon="9.259940493358824"><ele>212.0</ele><time>2026-04-11T13:04:26Z</time></trkpt><trkpt lat="45.98432677781348" lon="9.260054961820753"><ele>212.0</ele><time>2026-04-11T13:04:27Z</time></trkpt><trkpt lat="45.98432348102698" lon="9.260153372981232"><ele>212.0</ele><time>2026-04-11T13:04:28Z</time></trkpt><trkpt lat="45.98431789039792" lon="9.260348573400309"><ele>212.0</ele><time>2026-04-11T13:04:30Z</time></trkpt><trkpt lat="45.98433116056649" lon="9.260475948426308"><ele>213.39999999999998</ele><time>2026-04-11T13:04:31Z</time></trkpt><trkpt lat="45.98435741464758" lon="9.260623924140251"><ele>214.79999999999998</ele><time>2026-04-11T13:04:32Z</time></trkpt><trkpt lat="45.98438155628359" lon="9.260773451497261"><ele>216.2</ele><time>2026-04-11T13:04:33Z</time></trkpt><trkpt lat="45.98441400308695" lon="9.260928142258175"><ele>217.6</ele><time>2026-04-11T13:04:34Z</time></trkpt><trkpt lat="45.98445264724028" lon="9.261067418544922"><ele>219.0</ele><time>2026-04-11T13:04:35Z</time></trkpt><trkpt lat="45.98450638855794" lon="9.261203260514156"><ele>219.0</ele><time>2026-04-11T13:04:36Z</time></trkpt><trkpt lat="45.98456406367278" lon="9.261317848250156"><ele>219.0</ele><time>2026-04-11T13:04:37Z</time></trkpt><trkpt lat="45.98461971218952" lon="9.261410596485085"><ele>219.0</ele><time>2026-04-11T13:04:38Z</time></trkpt><trkpt lat="45.984677363697635" lon="9.261489837298047"><ele>219.0</ele><time>2026-04-11T13:04:39Z</time></trkpt><trkpt lat="45.98473483542921" lon="9.2615618832036"><ele>219.0</ele><time>2026-04-11T13:04:40Z</time></trkpt><trkpt lat="45.98480701248694" lon="9.261623641795623"><ele>219.0</ele><time>2026-04-11T13:04:41Z</time></trkpt><trkpt lat="45.98487845633731" lon="9.26167571645238"><ele>219.5</ele><time>2026-04-11T13:04:42Z</time></trkpt><trkpt lat="45.98494254033045" lon="9.261725977131135"><ele>220.0</ele><time>2026-04-11T13:04:43Z</time></trkpt><trkpt lat="45.985000606585025" lon="9.261769499055065"><ele>220.5</ele><time>2026-04-11T13:04:44Z</time></trkpt><trkpt lat="45.985100923616706" lon="9.261841266323941"><ele>221.0</ele><time>2026-04-11T13:04:46Z</time></trkpt><trkpt lat="45.98519402537387" lon="9.261934452578581"><ele>221.5</ele><time>2026-04-11T13:04:48Z</time></trkpt><trkpt lat="45.98520487438786" lon="9.262036635649137"><ele>222.0</ele><time>2026-04-11T13:04:50Z</time></trkpt><trkpt lat="45.98518153223807" lon="9.262186625956721"><ele>222.0</ele><time>2026-04-11T13:04:53Z</time></trkpt><trkpt lat="45.98513295922535" lon="9.262275628291217"><ele>222.0</ele><time>2026-04-11T13:04:55Z</time></trkpt><trkpt lat="45.985002036340745" lon="9.262183390475862"><ele>222.0</ele><time>2026-04-11T13:04:56Z</time></trkpt><trkpt lat="45.984916338806094" lon="9.262106441419125"><ele>222.0</ele><time>2026-04-11T13:04:57Z</time></trkpt><trkpt lat="45.98482328775068" lon="9.262052039301924"><ele>222.0</ele><time>2026-04-11T13:04:58Z</time></trkpt><trkpt lat="45.98471111530168" lon="9.261992359395384"><ele>223.6</ele><time>2026-04-11T13:04:59Z</time></trkpt><trkpt lat="45.98460383959126" lon="9.261930877925645"><ele>225.2</ele><time>2026-04-11T13:05:00Z</time></trkpt><trkpt lat="45.984518079328474" lon="9.261875515613742"><ele>226.8</ele><time>2026-04-11T13:05:01Z</time></trkpt><trkpt lat="45.984445298815984" lon="9.261812754160518"><ele>228.4</ele><time>2026-04-11T13:05:02Z</time></trkpt><trkpt lat="45.984371056132375" lon="9.261730888721054"><ele>230.0</ele><time>2026-04-11T13:05:03Z</time></trkpt><trkpt lat="45.984298428311284" lon="9.261644007809616"><ele>230.0</ele><time>2026-04-11T13:05:04Z</time></trkpt><trkpt lat="45.984229019585406" lon="9.261582747120869"><ele>230.0</ele><time>2026-04-11T13:05:05Z</time></trkpt><trkpt lat="45.98415459458089" lon="9.261562532081811"><ele>230.0</ele><time>2026-04-11T13:05:06Z</time></trkpt><trkpt lat="45.984061086428014" lon="9.261567327934996"><ele>230.0</ele><time>2026-04-11T13:05:07Z</time></trkpt><trkpt lat="45.983961112632166" lon="9.261578288170808"><ele>230.0</ele><time>2026-04-11T13:05:08Z</time></trkpt><trkpt lat="45.983858901670494" lon="9.261604674825103"><ele>232.2</ele><time>2026-04-11T13:05:09Z</time></trkpt><trkpt lat="45.98376093906001" lon="9.261651282610087"><ele>234.4</ele><time>2026-04-11T13:05:10Z</time></trkpt><trkpt lat="45.983669970385975" lon="9.261692192383048"><ele>236.60000000000002</ele><time>2026-04-11T13:05:11Z</time></trkpt><trkpt lat="45.98358273410577" lon="9.26171232900026"><ele>238.8</ele><time>2026-04-11T13:05:12Z</time></trkpt><trkpt lat="45.98349511383401" lon="9.261719957770325"><ele>241.0</ele><time>2026-04-11T13:05:13Z</time></trkpt><trkpt lat="45.98340373723481" lon="9.261715550351452"><ele>241.33333333333331</ele><time>2026-04-11T13:05:14Z</time></trkpt><trkpt lat="45.98330939197578" lon="9.2616941902924"><ele>241.66666666666666</ele><time>2026-04-11T13:05:15Z</time></trkpt><trkpt lat="45.98322540608132" lon="9.26165129152999"><ele>242.0</ele><time>2026-04-11T13:05:16Z</time></trkpt><trkpt lat="45.98314959118353" lon="9.261609608304658"><ele>242.33333333333331</ele><time>2026-04-11T13:05:17Z</time></trkpt><trkpt lat="45.98307511613761" lon="9.261581645956943"><ele>242.66666666666666</ele><time>2026-04-11T13:05:18Z</time></trkpt><trkpt lat="45.983001104030755" lon="9.261558214032913"><ele>243.0</ele><time>2026-04-11T13:05:19Z</time></trkpt><trkpt lat="45.98293143384556" lon="9.261537006321282"><ele>243.0</ele><time>2026-04-11T13:05:20Z</time></trkpt><trkpt lat="45.98285991639933" lon="9.261518828036435"><ele>243.0</ele><time>2026-04-11T13:05:21Z</time></trkpt><trkpt lat="45.98278182862125" lon="9.261506532017318"><ele>243.0</ele><time>2026-04-11T13:05:22Z</time></trkpt><trkpt lat="45.98269699538202" lon="9.261500143031098"><ele>243.0</ele><time>2026-04-11T13:05:23Z</time></trkpt><trkpt lat="45.98262424722709" lon="9.261498761447656"><ele>243.0</ele><time>2026-04-11T13:05:24Z</time></trkpt><trkpt lat="45.98255384178909" lon="9.26150134011592"><ele>243.0</ele><time>2026-04-11T13:05:25Z</time></trkpt><trkpt lat="45.98247737884022" lon="9.261501400511639"><ele>242.85714285714283</ele><time>2026-04-11T13:05:26Z</time></trkpt><trkpt lat="45.98240702316116" lon="9.261497825629268"><ele>242.71428571428572</ele><time>2026-04-11T13:05:27Z</time></trkpt><trkpt lat="45.9823374889971" lon="9.261497355070928"><ele>242.57142857142856</ele><time>2026-04-11T13:05:28Z</time></trkpt><trkpt lat="45.98226290008788" lon="9.261498006162936"><ele>242.42857142857142</ele><time>2026-04-11T13:05:29Z</time></trkpt><trkpt lat="45.98218577378142" lon="9.26149282489077"><ele>242.28571428571428</ele><time>2026-04-11T13:05:30Z</time></trkpt><trkpt lat="45.98210728591138" lon="9.261493453905262"><ele>242.14285714285714</ele><time>2026-04-11T13:05:31Z</time></trkpt><trkpt lat="45.98202854628882" lon="9.26148903698008"><ele>242.0</ele><time>2026-04-11T13:05:32Z</time></trkpt><trkpt lat="45.98195250454355" lon="9.261468108531009"><ele>242.7142857142857</ele><time>2026-04-11T13:05:33Z</time></trkpt><trkpt lat="45.98188359932097" lon="9.261436229393198"><ele>243.4285714285714</ele><time>2026-04-11T13:05:34Z</time></trkpt><trkpt lat="45.98181782807044" lon="9.261391952457467"><ele>244.14285714285714</ele><time>2026-04-11T13:05:35Z</time></trkpt><trkpt lat="45.98175238455174" lon="9.261339027653731"><ele>244.85714285714283</ele><time>2026-04-11T13:05:36Z</time></trkpt><trkpt lat="45.98168991985249" lon="9.26128476917411"><ele>245.57142857142856</ele><time>2026-04-11T13:05:37Z</time></trkpt><trkpt lat="45.98162565475856" lon="9.261239190875772"><ele>246.28571428571428</ele><time>2026-04-11T13:05:38Z</time></trkpt><trkpt lat="45.98155116940888" lon="9.261223893328614"><ele>247.0</ele><time>2026-04-11T13:05:39Z</time></trkpt><trkpt lat="45.98147329265889" lon="9.261241654621273"><ele>247.0</ele><time>2026-04-11T13:05:40Z</time></trkpt><trkpt lat="45.98138907832615" lon="9.26130481238739"><ele>247.0</ele><time>2026-04-11T13:05:41Z</time></trkpt><trkpt lat="45.98129690624056" lon="9.261372751733989"><ele>247.0</ele><time>2026-04-11T13:05:42Z</time></trkpt><trkpt lat="45.98119475541436" lon="9.261435117398493"><ele>247.0</ele><time>2026-04-11T13:05:43Z</time></trkpt><trkpt lat="45.98108815666142" lon="9.261492804677957"><ele>247.0</ele><time>2026-04-11T13:05:44Z</time></trkpt><trkpt lat="45.98097856322143" lon="9.261541728863332"><ele>246.0</ele><time>2026-04-11T13:05:45Z</time></trkpt><trkpt lat="45.98086982535822" lon="9.261589453147032"><ele>245.0</ele><time>2026-04-11T13:05:46Z</time></trkpt><trkpt lat="45.98075368101525" lon="9.261648370118245"><ele>244.0</ele><time>2026-04-11T13:05:47Z</time></trkpt><trkpt lat="45.98063402929928" lon="9.261706589083783"><ele>243.0</ele><time>2026-04-11T13:05:48Z</time></trkpt><trkpt lat="45.980510829997264" lon="9.261753396059888"><ele>243.0</ele><time>2026-04-11T13:05:49Z</time></trkpt><trkpt lat="45.98040438328437" lon="9.261805024231297"><ele>243.0</ele><time>2026-04-11T13:05:50Z</time></trkpt><trkpt lat="45.98029626597098" lon="9.261873254087025"><ele>243.0</ele><time>2026-04-11T13:05:51Z</time></trkpt><trkpt lat="45.98019665035757" lon="9.261946586927541"><ele>243.0</ele><time>2026-04-11T13:05:52Z</time></trkpt><trkpt lat="45.98009025909671" lon="9.262043693401168"><ele>241.75</ele><time>2026-04-11T13:05:53Z</time></trkpt><trkpt lat="45.97997757771574" lon="9.262142014264652"><ele>240.5</ele><time>2026-04-11T13:05:54Z</time></trkpt><trkpt lat="45.97985523506284" lon="9.26224316586411"><ele>239.25</ele><time>2026-04-11T13:05:55Z</time></trkpt><trkpt lat="45.979726198539836" lon="9.262353489999263"><ele>238.0</ele><time>2026-04-11T13:05:56Z</time></trkpt><trkpt lat="45.97960423937261" lon="9.262449198207278"><ele>238.0</ele><time>2026-04-11T13:05:57Z</time></trkpt><trkpt lat="45.979486109929084" lon="9.262534995196512"><ele>238.0</ele><time>2026-04-11T13:05:58Z</time></trkpt><trkpt lat="45.9793737081781" lon="9.262619048719007"><ele>238.0</ele><time>2026-04-11T13:05:58.999Z</time></trkpt><trkpt lat="45.97928198575911" lon="9.262683322740042"><ele>238.0</ele><time>2026-04-11T13:05:59.999Z</time></trkpt><trkpt lat="45.979194598173926" lon="9.262738866972809"><ele>239.2</ele><time>2026-04-11T13:06:00.999Z</time></trkpt><trkpt lat="45.97910584512734" lon="9.262790642413533"><ele>240.4</ele><time>2026-04-11T13:06:01.999Z</time></trkpt><trkpt lat="45.97901800520637" lon="9.262826139909624"><ele>241.59999999999997</ele><time>2026-04-11T13:06:02.999Z</time></trkpt><trkpt lat="45.9789271132171" lon="9.2628394326674"><ele>242.79999999999998</ele><time>2026-04-11T13:06:03.999Z</time></trkpt><trkpt lat="45.978823898443295" lon="9.262828357312523"><ele>244.0</ele><time>2026-04-11T13:06:04.999Z</time></trkpt><trkpt lat="45.97871687337921" lon="9.26280774137267"><ele>244.0</ele><time>2026-04-11T13:06:05.999Z</time></trkpt><trkpt lat="45.97860042147569" lon="9.262785371559328"><ele>244.0</ele><time>2026-04-11T13:06:06.999Z</time></trkpt><trkpt lat="45.978481134796" lon="9.26275796436816"><ele>244.0</ele><time>2026-04-11T13:06:07.999Z</time></trkpt><trkpt lat="45.978358339860485" lon="9.26272711667903"><ele>244.0</ele><time>2026-04-11T13:06:08.999Z</time></trkpt><trkpt lat="45.97823198194305" lon="9.262695423820835"><ele>243.2</ele><time>2026-04-11T13:06:09.999Z</time></trkpt><trkpt lat="45.9781175292584" lon="9.262673776246023"><ele>242.39999999999998</ele><time>2026-04-11T13:06:10.999Z</time></trkpt><trkpt lat="45.97800869685018" lon="9.26265581348814"><ele>241.6</ele><time>2026-04-11T13:06:11.999Z</time></trkpt><trkpt lat="45.97789895501619" lon="9.262634571815113"><ele>240.8</ele><time>2026-04-11T13:06:12.999Z</time></trkpt><trkpt lat="45.97779229822943" lon="9.262608751403036"><ele>240.0</ele><time>2026-04-11T13:06:13.999Z</time></trkpt><trkpt lat="45.977694376230225" lon="9.262588716526368"><ele>240.0</ele><time>2026-04-11T13:06:14.999Z</time></trkpt><trkpt lat="45.977604531978464" lon="9.26257167956921"><ele>240.0</ele><time>2026-04-11T13:06:15.999Z</time></trkpt><trkpt lat="45.97751289257919" lon="9.262540683624321"><ele>240.0</ele><time>2026-04-11T13:06:16.999Z</time></trkpt><trkpt lat="45.977411363584665" lon="9.262512584242645"><ele>240.0</ele><time>2026-04-11T13:06:17.999Z</time></trkpt><trkpt lat="45.97729958526139" lon="9.262491993495047"><ele>240.0</ele><time>2026-04-11T13:06:18.999Z</time></trkpt><trkpt lat="45.97716557941891" lon="9.262477522931826"><ele>238.33333333333331</ele><time>2026-04-11T13:06:19.999Z</time></trkpt><trkpt lat="45.97700645998937" lon="9.262444823168817"><ele>236.66666666666666</ele><time>2026-04-11T13:06:20.999Z</time></trkpt><trkpt lat="45.976850163890795" lon="9.262405454903435"><ele>235.0</ele><time>2026-04-11T13:06:21.999Z</time></trkpt><trkpt lat="45.97668885553588" lon="9.262374305412706"><ele>234.66666666666666</ele><time>2026-04-11T13:06:22.999Z</time></trkpt><trkpt lat="45.9765286828252" lon="9.262335762319072"><ele>234.33333333333331</ele><time>2026-04-11T13:06:23.999Z</time></trkpt><trkpt lat="45.97636709036128" lon="9.262300922241188"><ele>234.0</ele><time>2026-04-11T13:06:24.999Z</time></trkpt><trkpt lat="45.976210967257835" lon="9.262270090318092"><ele>234.0</ele><time>2026-04-11T13:06:25.999Z</time></trkpt><trkpt lat="45.97606748777424" lon="9.262236468477962"><ele>234.0</ele><time>2026-04-11T13:06:26.999Z</time></trkpt><trkpt lat="45.975919118666056" lon="9.262209292247466"><ele>234.0</ele><time>2026-04-11T13:06:27.999Z</time></trkpt><trkpt lat="45.97577088201324" lon="9.262189665829933"><ele>234.0</ele><time>2026-04-11T13:06:28.999Z</time></trkpt><trkpt lat="45.97562029141908" lon="9.262170394465949"><ele>233.75</ele><time>2026-04-11T13:06:30Z</time></trkpt><trkpt lat="45.97547979285345" lon="9.26214339897356"><ele>233.5</ele><time>2026-04-11T13:06:31Z</time></trkpt><trkpt lat="45.97534950093341" lon="9.262099241528897"><ele>233.25</ele><time>2026-04-11T13:06:32Z</time></trkpt><trkpt lat="45.97523431125073" lon="9.262010466337232"><ele>233.0</ele><time>2026-04-11T13:06:33Z</time></trkpt><trkpt lat="45.975133080871615" lon="9.261875797466093"><ele>233.0</ele><time>2026-04-11T13:06:34Z</time></trkpt><trkpt lat="45.97503111026309" lon="9.261728137389992"><ele>233.0</ele><time>2026-04-11T13:06:35Z</time></trkpt><trkpt lat="45.974925359909804" lon="9.261588741099585"><ele>233.0</ele><time>2026-04-11T13:06:36Z</time></trkpt><trkpt lat="45.974812800225635" lon="9.261469428484329"><ele>233.0</ele><time>2026-04-11T13:06:37Z</time></trkpt><trkpt lat="45.97468784276144" lon="9.261374042180034"><ele>235.0</ele><time>2026-04-11T13:06:38Z</time></trkpt><trkpt lat="45.974553597271075" lon="9.261307680921579"><ele>237.0</ele><time>2026-04-11T13:06:39Z</time></trkpt><trkpt lat="45.97441825673934" lon="9.261275593656723"><ele>239.0</ele><time>2026-04-11T13:06:40Z</time></trkpt><trkpt lat="45.97428749535158" lon="9.261274819934409"><ele>241.0</ele><time>2026-04-11T13:06:41Z</time></trkpt><trkpt lat="45.9741699811201" lon="9.261268251682154"><ele>243.4</ele><time>2026-04-11T13:06:42Z</time></trkpt><trkpt lat="45.97407009493413" lon="9.261212120523727"><ele>245.8</ele><time>2026-04-11T13:06:43Z</time></trkpt><trkpt lat="45.97399669679345" lon="9.261103058406455"><ele>248.20000000000002</ele><time>2026-04-11T13:06:44Z</time></trkpt><trkpt lat="45.9739781355508" lon="9.260960232388369"><ele>250.60000000000002</ele><time>2026-04-11T13:06:45Z</time></trkpt><trkpt lat="45.97400018097506" lon="9.26081179735448"><ele>253.0</ele><time>2026-04-11T13:06:46Z</time></trkpt><trkpt lat="45.974059893762124" lon="9.260666270364323"><ele>255.2</ele><time>2026-04-11T13:06:47Z</time></trkpt><trkpt lat="45.97412240663047" lon="9.260512330970451"><ele>257.4</ele><time>2026-04-11T13:06:48Z</time></trkpt><trkpt lat="45.97417438482211" lon="9.26036227242256"><ele>259.59999999999997</ele><time>2026-04-11T13:06:49Z</time></trkpt><trkpt lat="45.974221219898126" lon="9.260240015851684"><ele>261.8</ele><time>2026-04-11T13:06:50Z</time></trkpt><trkpt lat="45.974242311970855" lon="9.260132401869738"><ele>264.0</ele><time>2026-04-11T13:06:51Z</time></trkpt><trkpt lat="45.97421452843967" lon="9.260029530932137"><ele>264.0</ele><time>2026-04-11T13:06:52Z</time></trkpt><trkpt lat="45.974149516349144" lon="9.259962406853603"><ele>264.0</ele><time>2026-04-11T13:06:53Z</time></trkpt><trkpt lat="45.97406835386671" lon="9.259962396400992"><ele>264.0</ele><time>2026-04-11T13:06:54Z</time></trkpt><trkpt lat="45.974006142320434" lon="9.260036873530488"><ele>264.0</ele><time>2026-04-11T13:06:55Z</time></trkpt><trkpt lat="45.973975734399176" lon="9.260161078612233"><ele>264.0</ele><time>2026-04-11T13:06:56Z</time></trkpt><trkpt lat="45.97392282221256" lon="9.260276593618036"><ele>264.0</ele><time>2026-04-11T13:06:57Z</time></trkpt><trkpt lat="45.973920193266146" lon="9.2604473855266"><ele>261.25</ele><time>2026-04-11T13:06:58Z</time></trkpt><trkpt lat="45.973865690410065" lon="9.260631386239345"><ele>258.5</ele><time>2026-04-11T13:06:59Z</time></trkpt><trkpt lat="45.97379769514136" lon="9.260806245087982"><ele>255.75</ele><time>2026-04-11T13:07:00Z</time></trkpt><trkpt lat="45.97370645892453" lon="9.260951978023076"><ele>253.0</ele><time>2026-04-11T13:07:01Z</time></trkpt><trkpt lat="45.9736053434481" lon="9.261057387227458"><ele>253.0</ele><time>2026-04-11T13:07:02Z</time></trkpt><trkpt lat="45.973482943901864" lon="9.261116810079162"><ele>253.0</ele><time>2026-04-11T13:07:03Z</time></trkpt><trkpt lat="45.973359368760356" lon="9.261124936342123"><ele>253.0</ele><time>2026-04-11T13:07:04Z</time></trkpt><trkpt lat="45.97323939076588" lon="9.261061869889732"><ele>253.0</ele><time>2026-04-11T13:07:05Z</time></trkpt><trkpt lat="45.97313302942499" lon="9.260964623163"><ele>257.25</ele><time>2026-04-11T13:07:06Z</time></trkpt><trkpt lat="45.973036814712" lon="9.260839653266633"><ele>261.5</ele><time>2026-04-11T13:07:07Z</time></trkpt><trkpt lat="45.9729451066548" lon="9.260708437691358"><ele>265.75</ele><time>2026-04-11T13:07:08Z</time></trkpt><trkpt lat="45.972855299960464" lon="9.260602098311047"><ele>270.0</ele><time>2026-04-11T13:07:09Z</time></trkpt><trkpt lat="45.97276677912072" lon="9.260529713988205"><ele>272.25</ele><time>2026-04-11T13:07:10Z</time></trkpt><trkpt lat="45.97267976590209" lon="9.260450935518852"><ele>274.5</ele><time>2026-04-11T13:07:11Z</time></trkpt><trkpt lat="45.97258757073879" lon="9.260362869893958"><ele>276.75</ele><time>2026-04-11T13:07:12Z</time></trkpt><trkpt lat="45.97247737316638" lon="9.260269734853301"><ele>279.0</ele><time>2026-04-11T13:07:13Z</time></trkpt><trkpt lat="45.97238971356736" lon="9.260150458167436"><ele>280.5</ele><time>2026-04-11T13:07:14Z</time></trkpt><trkpt lat="45.97231812942575" lon="9.25998580480154"><ele>282.0</ele><time>2026-04-11T13:07:15Z</time></trkpt><trkpt lat="45.972248602022624" lon="9.259804327218927"><ele>283.5</ele><time>2026-04-11T13:07:16Z</time></trkpt><trkpt lat="45.97217149653682" lon="9.259612070420436"><ele>285.0</ele><time>2026-04-11T13:07:17Z</time></trkpt><trkpt lat="45.9720805550265" lon="9.259420007433354"><ele>285.6666666666667</ele><time>2026-04-11T13:07:18Z</time></trkpt><trkpt lat="45.97196978947795" lon="9.259245050627511"><ele>286.33333333333337</ele><time>2026-04-11T13:07:19Z</time></trkpt><trkpt lat="45.97184165853924" lon="9.259087997455028"><ele>287.0</ele><time>2026-04-11T13:07:20Z</time></trkpt><trkpt lat="45.97171561055284" lon="9.258922662519858"><ele>290.33333333333337</ele><time>2026-04-11T13:07:21Z</time></trkpt><trkpt lat="45.97159603556211" lon="9.258757603559975"><ele>293.6666666666667</ele><time>2026-04-11T13:07:22Z</time></trkpt><trkpt lat="45.97147797554948" lon="9.25860909817166"><ele>297.0</ele><time>2026-04-11T13:07:23Z</time></trkpt><trkpt lat="45.971348877767475" lon="9.258497198133167"><ele>297.0</ele><time>2026-04-11T13:07:24Z</time></trkpt><trkpt lat="45.9711971383017" lon="9.258467016265172"><ele>297.0</ele><time>2026-04-11T13:07:25Z</time></trkpt><trkpt lat="45.971058316768925" lon="9.258482565850127"><ele>297.0</ele><time>2026-04-11T13:07:26Z</time></trkpt><trkpt lat="45.970942725232874" lon="9.258505408501549"><ele>297.0</ele><time>2026-04-11T13:07:27Z</time></trkpt><trkpt lat="45.970849722502535" lon="9.25851568959093"><ele>298.8</ele><time>2026-04-11T13:07:28Z</time></trkpt><trkpt lat="45.97077179263094" lon="9.258516293887888"><ele>300.6</ele><time>2026-04-11T13:07:29Z</time></trkpt><trkpt lat="45.97068718165368" lon="9.258526113170777"><ele>302.40000000000003</ele><time>2026-04-11T13:07:31Z</time></trkpt><trkpt lat="45.97058214959797" lon="9.258542309835208"><ele>304.2</ele><time>2026-04-11T13:07:46Z</time></trkpt><trkpt lat="45.9704908930763" lon="9.258537908885607"><ele>306.0</ele><time>2026-04-11T13:07:47Z</time></trkpt><trkpt lat="45.970398333875025" lon="9.258505413276591"><ele>306.0</ele><time>2026-04-11T13:07:48Z</time></trkpt><trkpt lat="45.970302803389295" lon="9.258426503220806"><ele>306.0</ele><time>2026-04-11T13:07:49Z</time></trkpt><trkpt lat="45.9702215148117" lon="9.258289956857066"><ele>306.0</ele><time>2026-04-11T13:07:50Z</time></trkpt><trkpt lat="45.970171554998295" lon="9.258105012532873"><ele>306.0</ele><time>2026-04-11T13:07:51Z</time></trkpt><trkpt lat="45.970130600892816" lon="9.257914692616461"><ele>306.5</ele><time>2026-04-11T13:07:52Z</time></trkpt><trkpt lat="45.97012691707683" lon="9.257719768711953"><ele>307.0</ele><time>2026-04-11T13:07:53Z</time></trkpt><trkpt lat="45.970166123706065" lon="9.25752752475549"><ele>307.5</ele><time>2026-04-11T13:07:54Z</time></trkpt><trkpt lat="45.97021641049046" lon="9.257325872544675"><ele>308.0</ele><time>2026-04-11T13:07:55Z</time></trkpt><trkpt lat="45.97025400865539" lon="9.25712614582491"><ele>308.33333333333337</ele><time>2026-04-11T13:07:56Z</time></trkpt><trkpt lat="45.97028815582138" lon="9.256916034948011"><ele>308.6666666666667</ele><time>2026-04-11T13:07:57Z</time></trkpt><trkpt lat="45.9703243725927" lon="9.25669990610912"><ele>309.0</ele><time>2026-04-11T13:07:57.999Z</time></trkpt><trkpt lat="45.97035909581786" lon="9.256482754174575"><ele>310.6666666666667</ele><time>2026-04-11T13:07:58.999Z</time></trkpt><trkpt lat="45.97038641407038" lon="9.256266816210186"><ele>312.33333333333337</ele><time>2026-04-11T13:07:59.999Z</time></trkpt><trkpt lat="45.97037484957914" lon="9.256047210590495"><ele>314.0</ele><time>2026-04-11T13:08:00.999Z</time></trkpt><trkpt lat="45.97032020787032" lon="9.25583919978131"><ele>314.0</ele><time>2026-04-11T13:08:01.999Z</time></trkpt><trkpt lat="45.970235861370156" lon="9.255645726532457"><ele>314.0</ele><time>2026-04-11T13:08:02.999Z</time></trkpt><trkpt lat="45.97011799278094" lon="9.255477698074793"><ele>314.0</ele><time>2026-04-11T13:08:03.999Z</time></trkpt><trkpt lat="45.96997485330226" lon="9.255334288767102"><ele>318.33333333333337</ele><time>2026-04-11T13:08:04.999Z</time></trkpt><trkpt lat="45.96982948891144" lon="9.25520094482154"><ele>322.6666666666667</ele><time>2026-04-11T13:08:05.999Z</time></trkpt><trkpt lat="45.96969687253628" lon="9.255072770348448"><ele>327.0</ele><time>2026-04-11T13:08:06.999Z</time></trkpt><trkpt lat="45.969572886286414" lon="9.254977735033442"><ele>327.0</ele><time>2026-04-11T13:08:07.999Z</time></trkpt><trkpt lat="45.96943366199911" lon="9.254946827336537"><ele>327.0</ele><time>2026-04-11T13:08:08.999Z</time></trkpt><trkpt lat="45.96929688741998" lon="9.254972659166446"><ele>327.0</ele><time>2026-04-11T13:08:09.999Z</time></trkpt><trkpt lat="45.969173289192526" lon="9.255022083089615"><ele>327.0</ele><time>2026-04-11T13:08:10.999Z</time></trkpt><trkpt lat="45.969076920455784" lon="9.25504316390534"><ele>328.6</ele><time>2026-04-11T13:08:11.999Z</time></trkpt><trkpt lat="45.96900163439954" lon="9.255004700964257"><ele>330.20000000000005</ele><time>2026-04-11T13:08:12.999Z</time></trkpt><trkpt lat="45.96896341950251" lon="9.254890700907927"><ele>331.8</ele><time>2026-04-11T13:08:13.999Z</time></trkpt><trkpt lat="45.96897277802824" lon="9.254751610497628"><ele>333.4</ele><time>2026-04-11T13:08:14.999Z</time></trkpt><trkpt lat="45.9690072316803" lon="9.254597073237871"><ele>335.0</ele><time>2026-04-11T13:08:15.999Z</time></trkpt><trkpt lat="45.969023540471795" lon="9.254433758177166"><ele>335.5</ele><time>2026-04-11T13:08:16.999Z</time></trkpt><trkpt lat="45.96900513051979" lon="9.254266635810938"><ele>336.0</ele><time>2026-04-11T13:08:17.999Z</time></trkpt><trkpt lat="45.96896217204818" lon="9.254094019113362"><ele>336.5</ele><time>2026-04-11T13:08:18.999Z</time></trkpt><trkpt lat="45.96887457170655" lon="9.253936283795298"><ele>337.0</ele><time>2026-04-11T13:08:19.999Z</time></trkpt><trkpt lat="45.96875632862005" lon="9.253807440584527"><ele>334.25</ele><time>2026-04-11T13:08:20.999Z</time></trkpt><trkpt lat="45.96861219161623" lon="9.253734828481832"><ele>331.5</ele><time>2026-04-11T13:08:21.999Z</time></trkpt><trkpt lat="45.96845797038932" lon="9.253711334302347"><ele>328.75</ele><time>2026-04-11T13:08:22.999Z</time></trkpt><trkpt lat="45.96832706047376" lon="9.253660303766724"><ele>326.0</ele><time>2026-04-11T13:08:23.999Z</time></trkpt><trkpt lat="45.96822177578155" lon="9.253530134821801"><ele>332.33333333333337</ele><time>2026-04-11T13:08:24.999Z</time></trkpt><trkpt lat="45.96809553671674" lon="9.253360721057804"><ele>338.6666666666667</ele><time>2026-04-11T13:08:25.999Z</time></trkpt><trkpt lat="45.96796854648245" lon="9.253234713916957"><ele>345.0</ele><time>2026-04-11T13:08:26.999Z</time></trkpt><trkpt lat="45.96782328427923" lon="9.253120253166413"><ele>345.0</ele><time>2026-04-11T13:08:27.999Z</time></trkpt><trkpt lat="45.96770116338515" lon="9.252998958831073"><ele>345.0</ele><time>2026-04-11T13:08:28.999Z</time></trkpt><trkpt lat="45.96760110519803" lon="9.25284729768065"><ele>345.0</ele><time>2026-04-11T13:08:29.999Z</time></trkpt><trkpt lat="45.967523739690535" lon="9.252729339655497"><ele>345.0</ele><time>2026-04-11T13:08:30.999Z</time></trkpt><trkpt lat="45.96744747062866" lon="9.252666285072157"><ele>350.2</ele><time>2026-04-11T13:08:31.999Z</time></trkpt><trkpt lat="45.96736042451202" lon="9.252645331107937"><ele>355.4</ele><time>2026-04-11T13:08:32.999Z</time></trkpt><trkpt lat="45.96725242769231" lon="9.252653906243044"><ele>360.6</ele><time>2026-04-11T13:08:33.999Z</time></trkpt><trkpt lat="45.96713586914631" lon="9.252672522836159"><ele>365.8</ele><time>2026-04-11T13:08:34.999Z</time></trkpt><trkpt lat="45.96701275716986" lon="9.25272363443667"><ele>371.0</ele><time>2026-04-11T13:08:36Z</time></trkpt><trkpt lat="45.96688279919358" lon="9.252772313363971"><ele>371.0</ele><time>2026-04-11T13:08:37Z</time></trkpt><trkpt lat="45.96674997776769" lon="9.252844414590362"><ele>371.0</ele><time>2026-04-11T13:08:38Z</time></trkpt><trkpt lat="45.96660277100577" lon="9.252908513942685"><ele>371.0</ele><time>2026-04-11T13:08:39Z</time></trkpt><trkpt lat="45.96644083845798" lon="9.25293138247186"><ele>372.75</ele><time>2026-04-11T13:08:40Z</time></trkpt><trkpt lat="45.966276083190515" lon="9.252930144338618"><ele>374.5</ele><time>2026-04-11T13:08:41Z</time></trkpt><trkpt lat="45.96612299673884" lon="9.252912363485727"><ele>376.25</ele><time>2026-04-11T13:08:42Z</time></trkpt><trkpt lat="45.965992288638326" lon="9.25289913031911"><ele>378.0</ele><time>2026-04-11T13:08:43Z</time></trkpt><trkpt lat="45.965894660797" lon="9.252892665669501"><ele>380.2</ele><time>2026-04-11T13:08:44Z</time></trkpt><trkpt lat="45.96582918603255" lon="9.252893178150893"><ele>382.4</ele><time>2026-04-11T13:08:45Z</time></trkpt><trkpt lat="45.96578149592644" lon="9.253038498208598"><ele>384.59999999999997</ele><time>2026-04-11T13:08:47Z</time></trkpt><trkpt lat="45.96582739784789" lon="9.253135686360487"><ele>386.79999999999995</ele><time>2026-04-11T13:08:48Z</time></trkpt><trkpt lat="45.96591582481238" lon="9.25316990117748"><ele>389.0</ele><time>2026-04-11T13:08:49Z</time></trkpt><trkpt lat="45.966020147022455" lon="9.253128045280647"><ele>389.0</ele><time>2026-04-11T13:08:50Z</time></trkpt><trkpt lat="45.96610572292508" lon="9.253106000705058"><ele>389.0</ele><time>2026-04-11T13:08:51Z</time></trkpt><trkpt lat="45.96617900120915" lon="9.253165300967705"><ele>389.0</ele><time>2026-04-11T13:08:52Z</time></trkpt><trkpt lat="45.96622125128912" lon="9.25330219029799"><ele>389.0</ele><time>2026-04-11T13:08:53Z</time></trkpt><trkpt lat="45.966229170666665" lon="9.253457907998227"><ele>389.0</ele><time>2026-04-11T13:08:54Z</time></trkpt><trkpt lat="45.96620766674591" lon="9.253636638110445"><ele>389.0</ele><time>2026-04-11T13:08:55Z</time></trkpt><trkpt lat="45.96622571666733" lon="9.25382540570806"><ele>389.0</ele><time>2026-04-11T13:08:56Z</time></trkpt><trkpt lat="45.96625199922584" lon="9.254001275537716"><ele>389.0</ele><time>2026-04-11T13:08:57Z</time></trkpt><trkpt lat="45.96624049885534" lon="9.254150226499846"><ele>389.0</ele><time>2026-04-11T13:08:58Z</time></trkpt><trkpt lat="45.966179788283576" lon="9.254283385044872"><ele>392.25</ele><time>2026-04-11T13:08:59Z</time></trkpt><trkpt lat="45.96605932304021" lon="9.254395526311514"><ele>395.5</ele><time>2026-04-11T13:09:00Z</time></trkpt><trkpt lat="45.96597480434017" lon="9.254517821436215"><ele>398.75</ele><time>2026-04-11T13:09:01Z</time></trkpt><trkpt lat="45.965936427359466" lon="9.254632958755394"><ele>402.0</ele><time>2026-04-11T13:09:02Z</time></trkpt><trkpt lat="45.96596639606917" lon="9.254789108742834"><ele>402.0</ele><time>2026-04-11T13:09:03Z</time></trkpt><trkpt lat="45.966019428447886" lon="9.254915851786297"><ele>402.0</ele><time>2026-04-11T13:09:04Z</time></trkpt><trkpt lat="45.966082594111434" lon="9.255013632625282"><ele>402.0</ele><time>2026-04-11T13:09:05Z</time></trkpt><trkpt lat="45.96608181303561" lon="9.25514782346353"><ele>402.0</ele><time>2026-04-11T13:09:07Z</time></trkpt><trkpt lat="45.96600978929539" lon="9.255298996756158"><ele>402.0</ele><time>2026-04-11T13:09:09Z</time></trkpt><trkpt lat="45.96581718695206" lon="9.25489894554097"><ele>404.20000000000005</ele><time>2026-04-11T13:09:12Z</time></trkpt><trkpt lat="45.96583720849942" lon="9.254714358597933"><ele>406.4</ele><time>2026-04-11T13:09:13Z</time></trkpt><trkpt lat="45.965827162103736" lon="9.254532277057423"><ele>408.6</ele><time>2026-04-11T13:09:14Z</time></trkpt><trkpt lat="45.96580268224722" lon="9.254404751144428"><ele>410.79999999999995</ele><time>2026-04-11T13:09:15Z</time></trkpt><trkpt lat="45.96577127950735" lon="9.254306334217295"><ele>413.0</ele><time>2026-04-11T13:09:16Z</time></trkpt><trkpt lat="45.965695394374" lon="9.25421833688273"><ele>413.0</ele><time>2026-04-11T13:09:17Z</time></trkpt><trkpt lat="45.96559965984498" lon="9.254150761678384"><ele>413.0</ele><time>2026-04-11T13:09:18Z</time></trkpt><trkpt lat="45.965530600126854" lon="9.254089561613078"><ele>413.0</ele><time>2026-04-11T13:09:19Z</time></trkpt><trkpt lat="45.9654536652019" lon="9.254089500531474"><ele>413.0</ele><time>2026-04-11T13:09:21Z</time></trkpt><trkpt lat="45.965541646075906" lon="9.254527375535206"><ele>413.0</ele><time>2026-04-11T13:09:23Z</time></trkpt><trkpt lat="45.96563550573774" lon="9.25471382926575"><ele>413.0</ele><time>2026-04-11T13:09:24Z</time></trkpt><trkpt lat="45.96573408012445" lon="9.25488346344897"><ele>413.0</ele><time>2026-04-11T13:09:25Z</time></trkpt><trkpt lat="45.96583089622087" lon="9.255006666994035"><ele>413.0</ele><time>2026-04-11T13:09:26Z</time></trkpt><trkpt lat="45.96585841062752" lon="9.25509814391154"><ele>415.0</ele><time>2026-04-11T13:09:27Z</time></trkpt><trkpt lat="45.965847598516994" lon="9.255215383291542"><ele>417.0</ele><time>2026-04-11T13:09:28Z</time></trkpt><trkpt lat="45.96569396367823" lon="9.255096628208177"><ele>419.0</ele><time>2026-04-11T13:09:29Z</time></trkpt><trkpt lat="45.965592116021504" lon="9.255045282692542"><ele>421.0</ele><time>2026-04-11T13:09:31Z</time></trkpt><trkpt lat="45.96551086961993" lon="9.254978365830487"><ele>421.0</ele><time>2026-04-11T13:09:32Z</time></trkpt><trkpt lat="45.96542469628016" lon="9.25485876834928"><ele>421.0</ele><time>2026-04-11T13:09:33Z</time></trkpt><trkpt lat="45.96535751250492" lon="9.254699915993454"><ele>421.0</ele><time>2026-04-11T13:09:34Z</time></trkpt><trkpt lat="45.965280784744074" lon="9.254477690307672"><ele>421.0</ele><time>2026-04-11T13:09:35Z</time></trkpt><trkpt lat="45.96516924893371" lon="9.25432487257814"><ele>418.33333333333337</ele><time>2026-04-11T13:09:36Z</time></trkpt><trkpt lat="45.96503899599216" lon="9.25422339031612"><ele>415.66666666666663</ele><time>2026-04-11T13:09:37Z</time></trkpt><trkpt lat="45.964900616299985" lon="9.25411467348618"><ele>413.0</ele><time>2026-04-11T13:09:38Z</time></trkpt><trkpt lat="45.96475139222049" lon="9.253969547343322"><ele>418.66666666666663</ele><time>2026-04-11T13:09:39Z</time></trkpt><trkpt lat="45.964591945506726" lon="9.25390247396711"><ele>424.33333333333337</ele><time>2026-04-11T13:09:40Z</time></trkpt><trkpt lat="45.96441678491212" lon="9.253873859664363"><ele>430.0</ele><time>2026-04-11T13:09:41Z</time></trkpt><trkpt lat="45.964226490214294" lon="9.253741756629124"><ele>436.5</ele><time>2026-04-11T13:09:42Z</time></trkpt><trkpt lat="45.96409584741109" lon="9.253579686857034"><ele>443.0</ele><time>2026-04-11T13:09:43Z</time></trkpt><trkpt lat="45.964033394618255" lon="9.253395073623166"><ele>449.5</ele><time>2026-04-11T13:09:44Z</time></trkpt><trkpt lat="45.964002441689914" lon="9.253215822733761"><ele>456.0</ele><time>2026-04-11T13:09:45Z</time></trkpt><trkpt lat="45.963932773054566" lon="9.253130974787176"><ele>455.0</ele><time>2026-04-11T13:09:46Z</time></trkpt><trkpt lat="45.96387909203222" lon="9.253074393490502"><ele>454.0</ele><time>2026-04-11T13:09:47Z</time></trkpt><trkpt lat="45.96379750244421" lon="9.253048372298682"><ele>453.0</ele><time>2026-04-11T13:09:48Z</time></trkpt><trkpt lat="45.96368478353808" lon="9.25306398142022"><ele>452.0</ele><time>2026-04-11T13:09:49Z</time></trkpt><trkpt lat="45.96354046437932" lon="9.253011470817757"><ele>451.0</ele><time>2026-04-11T13:09:50Z</time></trkpt><trkpt lat="45.96345653345703" lon="9.25288371898317"><ele>451.0</ele><time>2026-04-11T13:09:51Z</time></trkpt><trkpt lat="45.96338875488004" lon="9.25286670663237"><ele>451.0</ele><time>2026-04-11T13:09:52Z</time></trkpt><trkpt lat="45.96334653447067" lon="9.252734117738015"><ele>451.0</ele><time>2026-04-11T13:09:53Z</time></trkpt><trkpt lat="45.96360126377058" lon="9.252581897415823"><ele>451.0</ele><time>2026-04-11T13:09:54Z</time></trkpt><trkpt lat="45.96363636157036" lon="9.252465416711383"><ele>451.0</ele><time>2026-04-11T13:09:55Z</time></trkpt><trkpt lat="45.963665279401184" lon="9.25235108635315"><ele>451.0</ele><time>2026-04-11T13:09:56Z</time></trkpt><trkpt lat="45.96360755079787" lon="9.252253074737652"><ele>451.0</ele><time>2026-04-11T13:09:58Z</time></trkpt><trkpt lat="45.96352359687598" lon="9.252235982478066"><ele>451.0</ele><time>2026-04-11T13:09:58.999Z</time></trkpt><trkpt lat="45.963421733338436" lon="9.252233562564152"><ele>451.0</ele><time>2026-04-11T13:09:59.999Z</time></trkpt><trkpt lat="45.963327448824366" lon="9.252144799984995"><ele>456.0</ele><time>2026-04-11T13:10:00.999Z</time></trkpt><trkpt lat="45.963234741929874" lon="9.251992314953151"><ele>461.0</ele><time>2026-04-11T13:10:01.999Z</time></trkpt><trkpt lat="45.963138175825506" lon="9.251856128751943"><ele>466.0</ele><time>2026-04-11T13:10:02.999Z</time></trkpt><trkpt lat="45.96303960698259" lon="9.25172639059004"><ele>471.0</ele><time>2026-04-11T13:10:03.999Z</time></trkpt><trkpt lat="45.96295855740762" lon="9.25150595850922"><ele>471.6</ele><time>2026-04-11T13:10:04.999Z</time></trkpt><trkpt lat="45.962912793041326" lon="9.251316586478595"><ele>472.20000000000005</ele><time>2026-04-11T13:10:05.999Z</time></trkpt><trkpt lat="45.96288229930391" lon="9.251192907774854"><ele>472.79999999999995</ele><time>2026-04-11T13:10:06.999Z</time></trkpt><trkpt lat="45.96284307290333" lon="9.251063206087618"><ele>473.4</ele><time>2026-04-11T13:10:07.999Z</time></trkpt><trkpt lat="45.96278210477692" lon="9.250985842021972"><ele>474.0</ele><time>2026-04-11T13:10:08.999Z</time></trkpt><trkpt lat="45.96266569001959" lon="9.25096987269978"><ele>474.0</ele><time>2026-04-11T13:10:10.999Z</time></trkpt><trkpt lat="45.96259690834793" lon="9.251155263735997"><ele>474.0</ele><time>2026-04-11T13:10:12.999Z</time></trkpt><trkpt lat="45.96267311849991" lon="9.251470479482878"><ele>474.0</ele><time>2026-04-11T13:10:13.999Z</time></trkpt><trkpt lat="45.96272163108248" lon="9.251617661168597"><ele>474.0</ele><time>2026-04-11T13:10:14.999Z</time></trkpt><trkpt lat="45.96268990048857" lon="9.25185122622051"><ele>474.0</ele><time>2026-04-11T13:10:15.999Z</time></trkpt><trkpt lat="45.96271045934314" lon="9.252144826319881"><ele>474.0</ele><time>2026-04-11T13:10:16.999Z</time></trkpt><trkpt lat="45.9627633095216" lon="9.252375925034308"><ele>474.0</ele><time>2026-04-11T13:10:17.999Z</time></trkpt><trkpt lat="45.96282242890883" lon="9.252551056430852"><ele>474.0</ele><time>2026-04-11T13:10:18.999Z</time></trkpt><trkpt lat="45.96286356795709" lon="9.252671103643516"><ele>474.0</ele><time>2026-04-11T13:10:19.999Z</time></trkpt><trkpt lat="45.96289712519277" lon="9.252765403116271"><ele>474.0</ele><time>2026-04-11T13:10:20.999Z</time></trkpt><trkpt lat="45.96278146943025" lon="9.25279229998518"><ele>474.0</ele><time>2026-04-11T13:10:22.999Z</time></trkpt><trkpt lat="45.96274696098666" lon="9.252687293552652"><ele>474.0</ele><time>2026-04-11T13:10:23.999Z</time></trkpt><trkpt lat="45.962730460222424" lon="9.25257158649719"><ele>474.0</ele><time>2026-04-11T13:10:24.999Z</time></trkpt><trkpt lat="45.9626879182125" lon="9.252461039151848"><ele>474.0</ele><time>2026-04-11T13:10:25.999Z</time></trkpt><trkpt lat="45.962642556713746" lon="9.25235835749425"><ele>474.0</ele><time>2026-04-11T13:10:26.999Z</time></trkpt><trkpt lat="45.96251500427167" lon="9.252135312437524"><ele>483.33333333333337</ele><time>2026-04-11T13:10:27.999Z</time></trkpt><trkpt lat="45.962453206935784" lon="9.251947923860804"><ele>492.6666666666667</ele><time>2026-04-11T13:10:28.999Z</time></trkpt><trkpt lat="45.962388196257045" lon="9.251689822949078"><ele>502.0</ele><time>2026-04-11T13:10:29.999Z</time></trkpt><trkpt lat="45.962317780532" lon="9.251474450421812"><ele>502.6666666666667</ele><time>2026-04-11T13:10:30.999Z</time></trkpt><trkpt lat="45.96229983979558" lon="9.251259242186835"><ele>503.33333333333337</ele><time>2026-04-11T13:10:31.999Z</time></trkpt><trkpt lat="45.96236400684804" lon="9.25103501640363"><ele>504.0</ele><time>2026-04-11T13:10:32.999Z</time></trkpt><trkpt lat="45.962359865794205" lon="9.250815417779442"><ele>500.0</ele><time>2026-04-11T13:10:33.999Z</time></trkpt><trkpt lat="45.96233536696774" lon="9.250600593093685"><ele>496.0</ele><time>2026-04-11T13:10:34.999Z</time></trkpt><trkpt lat="45.96226380509328" lon="9.25039545267213"><ele>492.0</ele><time>2026-04-11T13:10:35.999Z</time></trkpt><trkpt lat="45.962134932028825" lon="9.25020684072112"><ele>492.0</ele><time>2026-04-11T13:10:36.999Z</time></trkpt><trkpt lat="45.96198304612911" lon="9.250081787862394"><ele>492.0</ele><time>2026-04-11T13:10:37.999Z</time></trkpt><trkpt lat="45.96184948573986" lon="9.249971100055419"><ele>492.0</ele><time>2026-04-11T13:10:38.999Z</time></trkpt><trkpt lat="45.96166423364805" lon="9.249877348615028"><ele>492.0</ele><time>2026-04-11T13:10:39.999Z</time></trkpt><trkpt lat="45.96144951022957" lon="9.249791765221401"><ele>492.0</ele><time>2026-04-11T13:10:40.999Z</time></trkpt><trkpt lat="45.9612385029746" lon="9.249724875265034"><ele>492.0</ele><time>2026-04-11T13:10:42Z</time></trkpt><trkpt lat="45.961035297015705" lon="9.249665631520148"><ele>498.66666666666663</ele><time>2026-04-11T13:10:43Z</time></trkpt><trkpt lat="45.96082074303079" lon="9.24966750454443"><ele>505.3333333333333</ele><time>2026-04-11T13:10:44Z</time></trkpt><trkpt lat="45.9606053369684" lon="9.249681014869925"><ele>512.0</ele><time>2026-04-11T13:10:45Z</time></trkpt><trkpt lat="45.96039350301513" lon="9.249712880259565"><ele>512.0</ele><time>2026-04-11T13:10:46Z</time></trkpt><trkpt lat="45.96019819513801" lon="9.2497767886107"><ele>512.0</ele><time>2026-04-11T13:10:47Z</time></trkpt><trkpt lat="45.96001007780952" lon="9.249857743222902"><ele>512.0</ele><time>2026-04-11T13:10:48Z</time></trkpt><trkpt lat="45.95982638865057" lon="9.249966586100266"><ele>521.3333333333333</ele><time>2026-04-11T13:10:49Z</time></trkpt><trkpt lat="45.959640944667896" lon="9.250137968232087"><ele>530.6666666666666</ele><time>2026-04-11T13:10:50Z</time></trkpt><trkpt lat="45.9594613347914" lon="9.250313764735287"><ele>540.0</ele><time>2026-04-11T13:10:51Z</time></trkpt><trkpt lat="45.959290099949015" lon="9.250549250048925"><ele>545.5</ele><time>2026-04-11T13:10:52Z</time></trkpt><trkpt lat="45.95913729251874" lon="9.250828568833308"><ele>551.0</ele><time>2026-04-11T13:10:53Z</time></trkpt><trkpt lat="45.95898399342082" lon="9.251137056638603"><ele>551.0</ele><time>2026-04-11T13:10:54Z</time></trkpt><trkpt lat="45.95882732128" lon="9.251418046443655"><ele>551.0</ele><time>2026-04-11T13:10:55Z</time></trkpt><trkpt lat="45.958665915738976" lon="9.251665017653387"><ele>556.3333333333333</ele><time>2026-04-11T13:10:56Z</time></trkpt><trkpt lat="45.95852594980263" lon="9.251817498935559"><ele>561.6666666666666</ele><time>2026-04-11T13:10:57Z</time></trkpt><trkpt lat="45.95835787112287" lon="9.251917198796416"><ele>567.0</ele><time>2026-04-11T13:10:58Z</time></trkpt><trkpt lat="45.95819288355484" lon="9.251960133059848"><ele>567.0</ele><time>2026-04-11T13:10:59Z</time></trkpt><trkpt lat="45.958039450542664" lon="9.252013735603335"><ele>567.0</ele><time>2026-04-11T13:11:00Z</time></trkpt><trkpt lat="45.95791693177506" lon="9.252100138126051"><ele>567.0</ele><time>2026-04-11T13:11:01Z</time></trkpt><trkpt lat="45.957824113549115" lon="9.25220583781994"><ele>567.0</ele><time>2026-04-11T13:11:02Z</time></trkpt><trkpt lat="45.957742063096426" lon="9.252303030219727"><ele>570.0</ele><time>2026-04-11T13:11:03Z</time></trkpt><trkpt lat="45.95765285577321" lon="9.25236412576453"><ele>573.0</ele><time>2026-04-11T13:11:04Z</time></trkpt><trkpt lat="45.95754703958286" lon="9.252345740057534"><ele>576.0</ele><time>2026-04-11T13:11:05Z</time></trkpt><trkpt lat="45.95745956100569" lon="9.252233376091246"><ele>579.0</ele><time>2026-04-11T13:11:06Z</time></trkpt><trkpt lat="45.95741104836116" lon="9.252051402745177"><ele>579.0</ele><time>2026-04-11T13:11:07Z</time></trkpt><trkpt lat="45.95747682720333" lon="9.25183579990349"><ele>579.0</ele><time>2026-04-11T13:11:08Z</time></trkpt><trkpt lat="45.95746156078057" lon="9.251679397213548"><ele>579.0</ele><time>2026-04-11T13:11:09Z</time></trkpt><trkpt lat="45.95741493781015" lon="9.2515056962224"><ele>579.0</ele><time>2026-04-11T13:11:10Z</time></trkpt><trkpt lat="45.95734734092516" lon="9.251330717747324"><ele>578.75</ele><time>2026-04-11T13:11:11Z</time></trkpt><trkpt lat="45.9573377425713" lon="9.251118634287755"><ele>578.5</ele><time>2026-04-11T13:11:12Z</time></trkpt><trkpt lat="45.95733209056162" lon="9.25089282462802"><ele>578.25</ele><time>2026-04-11T13:11:13Z</time></trkpt><trkpt lat="45.95733242957161" lon="9.250705702181797"><ele>578.0</ele><time>2026-04-11T13:11:14Z</time></trkpt><trkpt lat="45.95732410127067" lon="9.250571563172588"><ele>578.0</ele><time>2026-04-11T13:11:15Z</time></trkpt><trkpt lat="45.95728635228799" lon="9.25047369934593"><ele>578.0</ele><time>2026-04-11T13:11:16Z</time></trkpt><trkpt lat="45.95722586121518" lon="9.250437281515259"><ele>578.0</ele><time>2026-04-11T13:11:17Z</time></trkpt><trkpt lat="45.95714489742987" lon="9.250486332363439"><ele>578.0</ele><time>2026-04-11T13:11:18Z</time></trkpt><trkpt lat="45.95708944676475" lon="9.250593971538239"><ele>578.0</ele><time>2026-04-11T13:11:19Z</time></trkpt><trkpt lat="45.95707469996476" lon="9.250774520030983"><ele>578.0</ele><time>2026-04-11T13:11:20Z</time></trkpt><trkpt lat="45.957056428829695" lon="9.250944746752463"><ele>578.0</ele><time>2026-04-11T13:11:21Z</time></trkpt><trkpt lat="45.957020296717836" lon="9.251110504501355"><ele>578.0</ele><time>2026-04-11T13:11:22Z</time></trkpt><trkpt lat="45.95698227646477" lon="9.251276822189636"><ele>578.0</ele><time>2026-04-11T13:11:23Z</time></trkpt><trkpt lat="45.9569362171919" lon="9.251436659469531"><ele>578.25</ele><time>2026-04-11T13:11:24Z</time></trkpt><trkpt lat="45.956910072969656" lon="9.251637072530208"><ele>578.5</ele><time>2026-04-11T13:11:25Z</time></trkpt><trkpt lat="45.95687600845949" lon="9.25182148574529"><ele>578.75</ele><time>2026-04-11T13:11:26Z</time></trkpt><trkpt lat="45.956818193345605" lon="9.251990892094158"><ele>579.0</ele><time>2026-04-11T13:11:27Z</time></trkpt><trkpt lat="45.95672186065524" lon="9.252132077009078"><ele>582.75</ele><time>2026-04-11T13:11:28Z</time></trkpt><trkpt lat="45.95661782964552" lon="9.252262243345825"><ele>586.5</ele><time>2026-04-11T13:11:29Z</time></trkpt><trkpt lat="45.95654416221855" lon="9.252430051670041"><ele>590.25</ele><time>2026-04-11T13:11:30Z</time></trkpt><trkpt lat="45.9564773406624" lon="9.252608076826142"><ele>594.0</ele><time>2026-04-11T13:11:31Z</time></trkpt><trkpt lat="45.9563665421356" lon="9.252740986257406"><ele>594.0</ele><time>2026-04-11T13:11:32Z</time></trkpt><trkpt lat="45.956235311827896" lon="9.252855971817993"><ele>594.0</ele><time>2026-04-11T13:11:33Z</time></trkpt><trkpt lat="45.956108725078145" lon="9.252977046401686"><ele>594.0</ele><time>2026-04-11T13:11:34Z</time></trkpt><trkpt lat="45.95600466932786" lon="9.253132881424326"><ele>593.25</ele><time>2026-04-11T13:11:35Z</time></trkpt><trkpt lat="45.95593777403746" lon="9.25332675986061"><ele>592.5</ele><time>2026-04-11T13:11:36Z</time></trkpt><trkpt lat="45.95590968132105" lon="9.253542330493879"><ele>591.75</ele><time>2026-04-11T13:11:37Z</time></trkpt><trkpt lat="45.95590182803834" lon="9.253741903754587"><ele>591.0</ele><time>2026-04-11T13:11:38Z</time></trkpt><trkpt lat="45.95586992827821" lon="9.253921672586458"><ele>595.75</ele><time>2026-04-11T13:11:39Z</time></trkpt><trkpt lat="45.955774881607596" lon="9.254054441132457"><ele>600.5</ele><time>2026-04-11T13:11:40Z</time></trkpt><trkpt lat="45.9556457894302" lon="9.254154045368645"><ele>605.25</ele><time>2026-04-11T13:11:41Z</time></trkpt><trkpt lat="45.95554249079441" lon="9.254291280272"><ele>610.0</ele><time>2026-04-11T13:11:42Z</time></trkpt><trkpt lat="45.95545993222918" lon="9.254458924207997"><ele>610.0</ele><time>2026-04-11T13:11:43Z</time></trkpt><trkpt lat="45.95537772939799" lon="9.254622440616872"><ele>610.0</ele><time>2026-04-11T13:11:44Z</time></trkpt><trkpt lat="45.955289381927614" lon="9.25477253593944"><ele>610.0</ele><time>2026-04-11T13:11:45Z</time></trkpt><trkpt lat="45.95521185988593" lon="9.254964040868646"><ele>610.0</ele><time>2026-04-11T13:11:46Z</time></trkpt><trkpt lat="45.955154434363784" lon="9.255156628324709"><ele>610.0</ele><time>2026-04-11T13:11:47Z</time></trkpt><trkpt lat="45.95509544382711" lon="9.25534980158057"><ele>610.0</ele><time>2026-04-11T13:11:48Z</time></trkpt><trkpt lat="45.95502987373475" lon="9.255527540621312"><ele>610.0</ele><time>2026-04-11T13:11:49Z</time></trkpt><trkpt lat="45.95497412408373" lon="9.255701327714451"><ele>610.0</ele><time>2026-04-11T13:11:50Z</time></trkpt><trkpt lat="45.95491450869835" lon="9.255860356573692"><ele>615.5</ele><time>2026-04-11T13:11:51Z</time></trkpt><trkpt lat="45.954832361458635" lon="9.25600121202273"><ele>621.0</ele><time>2026-04-11T13:11:52Z</time></trkpt><trkpt lat="45.954735758172326" lon="9.256127408869178"><ele>626.5</ele><time>2026-04-11T13:11:53Z</time></trkpt><trkpt lat="45.95463720885509" lon="9.25625772167943"><ele>632.0</ele><time>2026-04-11T13:11:54Z</time></trkpt><trkpt lat="45.95453567720798" lon="9.256394219198697"><ele>632.5</ele><time>2026-04-11T13:11:55Z</time></trkpt><trkpt lat="45.954439073988624" lon="9.256530556329572"><ele>633.0</ele><time>2026-04-11T13:11:56Z</time></trkpt><trkpt lat="45.95434437864387" lon="9.256667292447013"><ele>633.5</ele><time>2026-04-11T13:11:57Z</time></trkpt><trkpt lat="45.95424263167456" lon="9.256801147798775"><ele>634.0</ele><time>2026-04-11T13:11:58Z</time></trkpt><trkpt lat="45.95414228141161" lon="9.25693304893535"><ele>634.0</ele><time>2026-04-11T13:11:59Z</time></trkpt><trkpt lat="45.95404537116662" lon="9.257058535825909"><ele>634.0</ele><time>2026-04-11T13:12:00Z</time></trkpt><trkpt lat="45.95394038088006" lon="9.257158468698478"><ele>634.0</ele><time>2026-04-11T13:12:00.999Z</time></trkpt><trkpt lat="45.95381446836705" lon="9.257209376672458"><ele>634.0</ele><time>2026-04-11T13:12:01.999Z</time></trkpt><trkpt lat="45.95367252692676" lon="9.25720421684143"><ele>634.0</ele><time>2026-04-11T13:12:02.999Z</time></trkpt><trkpt lat="45.95352497183579" lon="9.257197292278239"><ele>634.0</ele><time>2026-04-11T13:12:03.999Z</time></trkpt><trkpt lat="45.95337049457639" lon="9.25718020562613"><ele>634.0</ele><time>2026-04-11T13:12:04.999Z</time></trkpt><trkpt lat="45.95320544028006" lon="9.257177726538208"><ele>638.0</ele><time>2026-04-11T13:12:05.999Z</time></trkpt><trkpt lat="45.95303644553443" lon="9.25718535986765"><ele>642.0</ele><time>2026-04-11T13:12:06.999Z</time></trkpt><trkpt lat="45.95287007686635" lon="9.25719325656246"><ele>646.0</ele><time>2026-04-11T13:12:07.999Z</time></trkpt><trkpt lat="45.95270298042746" lon="9.257203316148608"><ele>645.6666666666667</ele><time>2026-04-11T13:12:08.999Z</time></trkpt><trkpt lat="45.95253256386115" lon="9.257228850185086"><ele>645.3333333333334</ele><time>2026-04-11T13:12:09.999Z</time></trkpt><trkpt lat="45.95236680869571" lon="9.257256545939509"><ele>645.0</ele><time>2026-04-11T13:12:10.999Z</time></trkpt><trkpt lat="45.95220327336527" lon="9.257283753221483"><ele>644.0</ele><time>2026-04-11T13:12:11.999Z</time></trkpt><trkpt lat="45.952037415077015" lon="9.257311620307359"><ele>643.0</ele><time>2026-04-11T13:12:12.999Z</time></trkpt><trkpt lat="45.95187590141136" lon="9.257333378845422"><ele>642.0</ele><time>2026-04-11T13:12:13.999Z</time></trkpt><trkpt lat="45.95172245395516" lon="9.257355120959616"><ele>642.25</ele><time>2026-04-11T13:12:14.999Z</time></trkpt><trkpt lat="45.9515776336221" lon="9.257378274391412"><ele>642.5</ele><time>2026-04-11T13:12:15.999Z</time></trkpt><trkpt lat="45.95144537154154" lon="9.257401011977322"><ele>642.75</ele><time>2026-04-11T13:12:16.999Z</time></trkpt><trkpt lat="45.95132495965519" lon="9.25742703454973"><ele>643.0</ele><time>2026-04-11T13:12:17.999Z</time></trkpt><trkpt lat="45.951226234760696" lon="9.257480753309247"><ele>643.0</ele><time>2026-04-11T13:12:18.999Z</time></trkpt><trkpt lat="45.95114753187944" lon="9.257582778207507"><ele>643.0</ele><time>2026-04-11T13:12:19.999Z</time></trkpt><trkpt lat="45.95110821626278" lon="9.257747217057817"><ele>643.0</ele><time>2026-04-11T13:12:20.999Z</time></trkpt><trkpt lat="45.95106129105803" lon="9.257900380164811"><ele>643.0</ele><time>2026-04-11T13:12:21.999Z</time></trkpt><trkpt lat="45.95102614449288" lon="9.258055720005093"><ele>643.75</ele><time>2026-04-11T13:12:22.999Z</time></trkpt><trkpt lat="45.95099151692239" lon="9.258205082657351"><ele>644.5</ele><time>2026-04-11T13:12:23.999Z</time></trkpt><trkpt lat="45.95094613492105" lon="9.258346501648049"><ele>645.25</ele><time>2026-04-11T13:12:24.999Z</time></trkpt><trkpt lat="45.95087574039864" lon="9.258486167647302"><ele>646.0</ele><time>2026-04-11T13:12:25.999Z</time></trkpt><trkpt lat="45.950788511595015" lon="9.258628573495324"><ele>646.0</ele><time>2026-04-11T13:12:26.999Z</time></trkpt><trkpt lat="45.95069989218314" lon="9.258777980855205"><ele>646.0</ele><time>2026-04-11T13:12:27.999Z</time></trkpt><trkpt lat="45.95062455468883" lon="9.258932806824422"><ele>646.0</ele><time>2026-04-11T13:12:28.999Z</time></trkpt><trkpt lat="45.95053771719083" lon="9.259072991562357"><ele>646.0</ele><time>2026-04-11T13:12:29.999Z</time></trkpt><trkpt lat="45.950434777445466" lon="9.259191141695908"><ele>646.0</ele><time>2026-04-11T13:12:30.999Z</time></trkpt><trkpt lat="45.95032485058402" lon="9.259309343807818"><ele>646.0</ele><time>2026-04-11T13:12:31.999Z</time></trkpt><trkpt lat="45.9502143272063" lon="9.259418894048359"><ele>646.0</ele><time>2026-04-11T13:12:32.999Z</time></trkpt><trkpt lat="45.95011052998824" lon="9.259534899226173"><ele>646.0</ele><time>2026-04-11T13:12:33.999Z</time></trkpt><trkpt lat="45.95000287713721" lon="9.259641457014816"><ele>646.0</ele><time>2026-04-11T13:12:34.999Z</time></trkpt><trkpt lat="45.949894166801776" lon="9.259738259191476"><ele>646.0</ele><time>2026-04-11T13:12:35.999Z</time></trkpt><trkpt lat="45.94977527067902" lon="9.259804785556316"><ele>646.0</ele><time>2026-04-11T13:12:36.999Z</time></trkpt><trkpt lat="45.94964538597972" lon="9.259846008802391"><ele>646.0</ele><time>2026-04-11T13:12:37.999Z</time></trkpt><trkpt lat="45.949517885894274" lon="9.259871176045998"><ele>645.75</ele><time>2026-04-11T13:12:38.999Z</time></trkpt><trkpt lat="45.949387029635446" lon="9.259882217841918"><ele>645.5</ele><time>2026-04-11T13:12:39.999Z</time></trkpt><trkpt lat="45.94925583412618" lon="9.259896703882596"><ele>645.25</ele><time>2026-04-11T13:12:40.999Z</time></trkpt><trkpt lat="45.94912793349084" lon="9.259932184958567"><ele>645.0</ele><time>2026-04-11T13:12:41.999Z</time></trkpt><trkpt lat="45.949008801087516" lon="9.260008998385462"><ele>645.5</ele><time>2026-04-11T13:12:42.999Z</time></trkpt><trkpt lat="45.948897186188866" lon="9.260110605424448"><ele>646.0</ele><time>2026-04-11T13:12:43.999Z</time></trkpt><trkpt lat="45.948813148094594" lon="9.260236638697105"><ele>646.5</ele><time>2026-04-11T13:12:44.999Z</time></trkpt><trkpt lat="45.94873714340044" lon="9.260362727055384"><ele>647.0</ele><time>2026-04-11T13:12:45.999Z</time></trkpt><trkpt lat="45.94871266270109" lon="9.260564373117207"><ele>645.0</ele><time>2026-04-11T13:12:46.999Z</time></trkpt><trkpt lat="45.94869672337477" lon="9.260738679669304"><ele>643.0</ele><time>2026-04-11T13:12:48Z</time></trkpt><trkpt lat="45.94868165605386" lon="9.260915627041522"><ele>641.0</ele><time>2026-04-11T13:12:49Z</time></trkpt><trkpt lat="45.94866498706098" lon="9.261083895480244"><ele>639.0</ele><time>2026-04-11T13:12:50Z</time></trkpt><trkpt lat="45.94863764277181" lon="9.261243151761834"><ele>639.0</ele><time>2026-04-11T13:12:51Z</time></trkpt><trkpt lat="45.94858211717496" lon="9.261432142031907"><ele>639.0</ele><time>2026-04-11T13:12:52Z</time></trkpt><trkpt lat="45.94851810677887" lon="9.261625777655446"><ele>639.0</ele><time>2026-04-11T13:12:53Z</time></trkpt><trkpt lat="45.94845360028553" lon="9.261820023375881"><ele>639.0</ele><time>2026-04-11T13:12:54Z</time></trkpt><trkpt lat="45.94838819240587" lon="9.262017478380017"><ele>638.6666666666666</ele><time>2026-04-11T13:12:55Z</time></trkpt><trkpt lat="45.94831839112" lon="9.26223537317049"><ele>638.3333333333333</ele><time>2026-04-11T13:12:56Z</time></trkpt><trkpt lat="45.948253423841585" lon="9.262477821153691"><ele>638.0</ele><time>2026-04-11T13:12:57Z</time></trkpt><trkpt lat="45.94819309506587" lon="9.262743433959699"><ele>638.0</ele><time>2026-04-11T13:12:58Z</time></trkpt><trkpt lat="45.94813214029344" lon="9.263028688304603"><ele>638.0</ele><time>2026-04-11T13:12:59Z</time></trkpt><trkpt lat="45.94807141051528" lon="9.263309542043247"><ele>638.0</ele><time>2026-04-11T13:13:00Z</time></trkpt><trkpt lat="45.94803176139883" lon="9.26359227252187"><ele>636.0</ele><time>2026-04-11T13:13:01Z</time></trkpt><trkpt lat="45.94788773311505" lon="9.263832476312624"><ele>634.0</ele><time>2026-04-11T13:13:02Z</time></trkpt><trkpt lat="45.94773375544879" lon="9.264058300463075"><ele>632.0</ele><time>2026-04-11T13:13:03Z</time></trkpt><trkpt lat="45.94759766975277" lon="9.264297443080382"><ele>636.0</ele><time>2026-04-11T13:13:04Z</time></trkpt><trkpt lat="45.94745249380444" lon="9.264495404552992"><ele>640.0</ele><time>2026-04-11T13:13:05Z</time></trkpt><trkpt lat="45.947378354327526" lon="9.264757060777695"><ele>644.0</ele><time>2026-04-11T13:13:06Z</time></trkpt><trkpt lat="45.947318225405844" lon="9.265015790919163"><ele>644.0</ele><time>2026-04-11T13:13:07Z</time></trkpt><trkpt lat="45.94725827683075" lon="9.265267277360934"><ele>644.0</ele><time>2026-04-11T13:13:08Z</time></trkpt><trkpt lat="45.94717709217523" lon="9.265502789976022"><ele>644.0</ele><time>2026-04-11T13:13:09Z</time></trkpt><trkpt lat="45.94707045419582" lon="9.26570902148753"><ele>641.0</ele><time>2026-04-11T13:13:10Z</time></trkpt><trkpt lat="45.94694983729065" lon="9.265925572839665"><ele>638.0</ele><time>2026-04-11T13:13:11Z</time></trkpt><trkpt lat="45.94682740255795" lon="9.266144334517477"><ele>635.0</ele><time>2026-04-11T13:13:12Z</time></trkpt><trkpt lat="45.94670938139912" lon="9.266353539668273"><ele>640.6666666666666</ele><time>2026-04-11T13:13:13Z</time></trkpt><trkpt lat="45.94659139320297" lon="9.266551830319997"><ele>646.3333333333334</ele><time>2026-04-11T13:13:14Z</time></trkpt><trkpt lat="45.94645453429042" lon="9.266716876418544"><ele>652.0</ele><time>2026-04-11T13:13:15Z</time></trkpt><trkpt lat="45.94629379951823" lon="9.26684927214077"><ele>652.0</ele><time>2026-04-11T13:13:16Z</time></trkpt><trkpt lat="45.946130498100544" lon="9.266981145424788"><ele>652.0</ele><time>2026-04-11T13:13:17Z</time></trkpt><trkpt lat="45.94600407703189" lon="9.267202911530058"><ele>652.0</ele><time>2026-04-11T13:13:18Z</time></trkpt><trkpt lat="45.94587832206283" lon="9.267420966320406"><ele>653.6666666666667</ele><time>2026-04-11T13:13:19Z</time></trkpt><trkpt lat="45.94576836235794" lon="9.26766331931073"><ele>655.3333333333334</ele><time>2026-04-11T13:13:20Z</time></trkpt><trkpt lat="45.94566215033267" lon="9.26795529076205"><ele>657.0</ele><time>2026-04-11T13:13:21Z</time></trkpt><trkpt lat="45.94549609114901" lon="9.268223072533198"><ele>650.0</ele><time>2026-04-11T13:13:22Z</time></trkpt><trkpt lat="45.94537749745448" lon="9.268526944640115"><ele>643.0</ele><time>2026-04-11T13:13:23Z</time></trkpt><trkpt lat="45.94526462381361" lon="9.26881616024446"><ele>640.6666666666667</ele><time>2026-04-11T13:13:24Z</time></trkpt><trkpt lat="45.94516065981242" lon="9.269082546739495"><ele>638.3333333333334</ele><time>2026-04-11T13:13:25Z</time></trkpt><trkpt lat="45.945062334849425" lon="9.26931884329231"><ele>636.0</ele><time>2026-04-11T13:13:26Z</time></trkpt><trkpt lat="45.944946658162955" lon="9.269530399993176"><ele>641.0</ele><time>2026-04-11T13:13:27Z</time></trkpt><trkpt lat="45.94480842980154" lon="9.269719255740714"><ele>646.0</ele><time>2026-04-11T13:13:28Z</time></trkpt><trkpt lat="45.94465870568512" lon="9.26991399927687"><ele>651.0</ele><time>2026-04-11T13:13:29Z</time></trkpt><trkpt lat="45.94452236036279" lon="9.270091341153718"><ele>651.0</ele><time>2026-04-11T13:13:30Z</time></trkpt><trkpt lat="45.94440105670145" lon="9.27024911871621"><ele>651.0</ele><time>2026-04-11T13:13:31Z</time></trkpt><trkpt lat="45.94428387243786" lon="9.27040153819959"><ele>651.0</ele><time>2026-04-11T13:13:32Z</time></trkpt><trkpt lat="45.94417155462666" lon="9.270543157197592"><ele>650.75</ele><time>2026-04-11T13:13:33Z</time></trkpt><trkpt lat="45.94406421951345" lon="9.270670252253014"><ele>650.5</ele><time>2026-04-11T13:13:34Z</time></trkpt><trkpt lat="45.943948682031504" lon="9.270773101895758"><ele>650.25</ele><time>2026-04-11T13:13:35Z</time></trkpt><trkpt lat="45.94381983417004" lon="9.270844028838692"><ele>650.0</ele><time>2026-04-11T13:13:36Z</time></trkpt><trkpt lat="45.94367190192082" lon="9.270884163485897"><ele>650.0</ele><time>2026-04-11T13:13:37Z</time></trkpt><trkpt lat="45.9435119827421" lon="9.270886798550906"><ele>650.0</ele><time>2026-04-11T13:13:38Z</time></trkpt><trkpt lat="45.94334069516609" lon="9.270884566602554"><ele>650.0</ele><time>2026-04-11T13:13:39Z</time></trkpt><trkpt lat="45.94316975188682" lon="9.270876996685681"><ele>652.3333333333333</ele><time>2026-04-11T13:13:40Z</time></trkpt><trkpt lat="45.94300404488032" lon="9.27095589761531"><ele>654.6666666666666</ele><time>2026-04-11T13:13:41Z</time></trkpt><trkpt lat="45.942858576215066" lon="9.271120346501839"><ele>657.0</ele><time>2026-04-11T13:13:42Z</time></trkpt><trkpt lat="45.942690109821875" lon="9.271267357441515"><ele>653.6666666666666</ele><time>2026-04-11T13:13:43Z</time></trkpt><trkpt lat="45.942535171235654" lon="9.271449115053626"><ele>650.3333333333333</ele><time>2026-04-11T13:13:44Z</time></trkpt><trkpt lat="45.942380077408075" lon="9.271628960421145"><ele>647.0</ele><time>2026-04-11T13:13:45Z</time></trkpt><trkpt lat="45.94222048988687" lon="9.271790617133433"><ele>647.0</ele><time>2026-04-11T13:13:46Z</time></trkpt><trkpt lat="45.94204954218967" lon="9.27191332219795"><ele>647.0</ele><time>2026-04-11T13:13:47Z</time></trkpt><trkpt lat="45.94187386576722" lon="9.271987738989512"><ele>647.0</ele><time>2026-04-11T13:13:48Z</time></trkpt><trkpt lat="45.94168371401179" lon="9.272046570859866"><ele>651.0</ele><time>2026-04-11T13:13:49Z</time></trkpt><trkpt lat="45.94148984222149" lon="9.272103219116943"><ele>655.0</ele><time>2026-04-11T13:13:50Z</time></trkpt><trkpt lat="45.94129730094683" lon="9.272155340560865"><ele>659.0</ele><time>2026-04-11T13:13:51Z</time></trkpt><trkpt lat="45.941106332486015" lon="9.272208579180601"><ele>659.0</ele><time>2026-04-11T13:13:52Z</time></trkpt><trkpt lat="45.940916921117015" lon="9.272262802928553"><ele>659.0</ele><time>2026-04-11T13:13:53Z</time></trkpt><trkpt lat="45.94073622785333" lon="9.272315893214481"><ele>659.0</ele><time>2026-04-11T13:13:54Z</time></trkpt><trkpt lat="45.94055346270541" lon="9.272369592251932"><ele>654.6666666666666</ele><time>2026-04-11T13:13:55Z</time></trkpt><trkpt lat="45.940372917433386" lon="9.272422621340077"><ele>650.3333333333334</ele><time>2026-04-11T13:13:56Z</time></trkpt><trkpt lat="45.94019671906098" lon="9.272474782597273"><ele>646.0</ele><time>2026-04-11T13:13:57Z</time></trkpt><trkpt lat="45.940027400192655" lon="9.272525064220304"><ele>646.0</ele><time>2026-04-11T13:13:58Z</time></trkpt><trkpt lat="45.93986559058552" lon="9.272577621960998"><ele>646.0</ele><time>2026-04-11T13:13:59Z</time></trkpt><trkpt lat="45.93971155395585" lon="9.272656810888407"><ele>646.0</ele><time>2026-04-11T13:14:00Z</time></trkpt><trkpt lat="45.93957202954024" lon="9.27273727195331"><ele>646.0</ele><time>2026-04-11T13:14:01Z</time></trkpt><trkpt lat="45.93943905408952" lon="9.272806387033144"><ele>646.0</ele><time>2026-04-11T13:14:02Z</time></trkpt><trkpt lat="45.93931248658043" lon="9.27284279737185"><ele>646.0</ele><time>2026-04-11T13:14:03Z</time></trkpt><trkpt lat="45.93919122372769" lon="9.27287848062822"><ele>646.0</ele><time>2026-04-11T13:14:04Z</time></trkpt><trkpt lat="45.93907855660781" lon="9.272882188354657"><ele>644.75</ele><time>2026-04-11T13:14:04.999Z</time></trkpt><trkpt lat="45.938970469162854" lon="9.272891938256642"><ele>643.5</ele><time>2026-04-11T13:14:05.999Z</time></trkpt><trkpt lat="45.938862956204865" lon="9.272884482263354"><ele>642.25</ele><time>2026-04-11T13:14:06.999Z</time></trkpt><trkpt lat="45.93875241919419" lon="9.27283918636635"><ele>641.0</ele><time>2026-04-11T13:14:07.999Z</time></trkpt><trkpt lat="45.938650652585416" lon="9.272748243092288"><ele>641.0</ele><time>2026-04-11T13:14:08.999Z</time></trkpt><trkpt lat="45.93857194425915" lon="9.272609740417762"><ele>641.0</ele><time>2026-04-11T13:14:09.999Z</time></trkpt><trkpt lat="45.93850792001955" lon="9.272438417253856"><ele>641.0</ele><time>2026-04-11T13:14:10.999Z</time></trkpt><trkpt lat="45.93843256927485" lon="9.272260141837414"><ele>641.0</ele><time>2026-04-11T13:14:11.999Z</time></trkpt><trkpt lat="45.9383417871613" lon="9.272094810609248"><ele>641.0</ele><time>2026-04-11T13:14:12.999Z</time></trkpt><trkpt lat="45.93824743775983" lon="9.27194966377309"><ele>641.0</ele><time>2026-04-11T13:14:13.999Z</time></trkpt><trkpt lat="45.93813608442518" lon="9.271855950864223"><ele>641.0</ele><time>2026-04-11T13:14:14.999Z</time></trkpt><trkpt lat="45.93801011352015" lon="9.27181366894233"><ele>641.0</ele><time>2026-04-11T13:14:15.999Z</time></trkpt><trkpt lat="45.937882448142055" lon="9.271770099979229"><ele>641.0</ele><time>2026-04-11T13:14:16.999Z</time></trkpt><trkpt lat="45.93776242334691" lon="9.271690594087268"><ele>641.0</ele><time>2026-04-11T13:14:17.999Z</time></trkpt><trkpt lat="45.9376455771017" lon="9.2715915036328"><ele>641.0</ele><time>2026-04-11T13:14:18.999Z</time></trkpt><trkpt lat="45.93752903026134" lon="9.2715008279381"><ele>641.0</ele><time>2026-04-11T13:14:19.999Z</time></trkpt><trkpt lat="45.937414004304905" lon="9.271418058321924"><ele>641.75</ele><time>2026-04-11T13:14:20.999Z</time></trkpt><trkpt lat="45.93730006761848" lon="9.27134539406674"><ele>642.5</ele><time>2026-04-11T13:14:21.999Z</time></trkpt><trkpt lat="45.9371898710402" lon="9.271281199797196"><ele>643.25</ele><time>2026-04-11T13:14:22.999Z</time></trkpt><trkpt lat="45.9370803225951" lon="9.271230637161755"><ele>644.0</ele><time>2026-04-11T13:14:23.999Z</time></trkpt><trkpt lat="45.93697597090738" lon="9.271180806634558"><ele>644.0</ele><time>2026-04-11T13:14:24.999Z</time></trkpt><trkpt lat="45.936871755802024" lon="9.271135929674813"><ele>644.0</ele><time>2026-04-11T13:14:25.999Z</time></trkpt><trkpt lat="45.93676845896011" lon="9.271113744748071"><ele>644.0</ele><time>2026-04-11T13:14:26.999Z</time></trkpt><trkpt lat="45.93666768478306" lon="9.27110419685738"><ele>644.0</ele><time>2026-04-11T13:14:27.999Z</time></trkpt><trkpt lat="45.93657030577747" lon="9.271107623717182"><ele>644.0</ele><time>2026-04-11T13:14:28.999Z</time></trkpt><trkpt lat="45.93647521864994" lon="9.271113614318393"><ele>642.6</ele><time>2026-04-11T13:14:29.999Z</time></trkpt><trkpt lat="45.93638008645736" lon="9.271108953160908"><ele>641.2</ele><time>2026-04-11T13:14:30.999Z</time></trkpt><trkpt lat="45.93627517496858" lon="9.271094363807153"><ele>639.8000000000001</ele><time>2026-04-11T13:14:31.999Z</time></trkpt><trkpt lat="45.936167023752276" lon="9.271074647218644"><ele>638.4000000000001</ele><time>2026-04-11T13:14:32.999Z</time></trkpt><trkpt lat="45.936054994804294" lon="9.271064535379919"><ele>637.0</ele><time>2026-04-11T13:14:33.999Z</time></trkpt><trkpt lat="45.935944267763226" lon="9.271053234595565"><ele>636.0</ele><time>2026-04-11T13:14:34.999Z</time></trkpt><trkpt lat="45.93583876082173" lon="9.27102926892845"><ele>635.0</ele><time>2026-04-11T13:14:35.999Z</time></trkpt><trkpt lat="45.93574224977859" lon="9.270975272355646"><ele>634.0</ele><time>2026-04-11T13:14:36.999Z</time></trkpt><trkpt lat="45.93565096073115" lon="9.27089659615003"><ele>633.0</ele><time>2026-04-11T13:14:37.999Z</time></trkpt><trkpt lat="45.93556677254835" lon="9.270804679632855"><ele>632.0</ele><time>2026-04-11T13:14:38.999Z</time></trkpt><trkpt lat="45.93547926339645" lon="9.270712284103164"><ele>632.0</ele><time>2026-04-11T13:14:39.999Z</time></trkpt><trkpt lat="45.93538592048904" lon="9.270631982443932"><ele>632.0</ele><time>2026-04-11T13:14:40.999Z</time></trkpt><trkpt lat="45.93527624215998" lon="9.270565986144431"><ele>632.0</ele><time>2026-04-11T13:14:41.999Z</time></trkpt><trkpt lat="45.93516760456081" lon="9.270512068022041"><ele>632.0</ele><time>2026-04-11T13:14:42.999Z</time></trkpt><trkpt lat="45.935066731797264" lon="9.270453031314808"><ele>631.5</ele><time>2026-04-11T13:14:43.999Z</time></trkpt><trkpt lat="45.93497277661771" lon="9.270401628820585"><ele>631.0</ele><time>2026-04-11T13:14:44.999Z</time></trkpt><trkpt lat="45.93487620194221" lon="9.270348929778757"><ele>630.5</ele><time>2026-04-11T13:14:45.999Z</time></trkpt><trkpt lat="45.93479445414907" lon="9.270304665303648"><ele>630.0</ele><time>2026-04-11T13:14:46.999Z</time></trkpt><trkpt lat="45.93472551942354" lon="9.270257531370342"><ele>629.5</ele><time>2026-04-11T13:14:47.999Z</time></trkpt><trkpt lat="45.93466203472397" lon="9.270189942800148"><ele>629.0</ele><time>2026-04-11T13:14:48.999Z</time></trkpt><trkpt lat="45.93460154147708" lon="9.270107809059775"><ele>629.0</ele><time>2026-04-11T13:14:49.999Z</time></trkpt><trkpt lat="45.93455959853173" lon="9.269998399871751"><ele>629.0</ele><time>2026-04-11T13:14:50.999Z</time></trkpt><trkpt lat="45.93453559596089" lon="9.26987247276864"><ele>629.0</ele><time>2026-04-11T13:14:51.999Z</time></trkpt><trkpt lat="45.93454106065713" lon="9.269732208211234"><ele>629.0</ele><time>2026-04-11T13:14:52.999Z</time></trkpt><trkpt lat="45.93456110461571" lon="9.269586686144692"><ele>629.0</ele><time>2026-04-11T13:14:54Z</time></trkpt><trkpt lat="45.93456516144827" lon="9.269440378074655"><ele>631.0</ele><time>2026-04-11T13:14:55Z</time></trkpt><trkpt lat="45.934557478242795" lon="9.269277841346858"><ele>633.0</ele><time>2026-04-11T13:14:56Z</time></trkpt><trkpt lat="45.93453062426519" lon="9.269113011705958"><ele>635.0</ele><time>2026-04-11T13:14:57Z</time></trkpt><trkpt lat="45.934479805313664" lon="9.268947689785959"><ele>637.0</ele><time>2026-04-11T13:14:58Z</time></trkpt><trkpt lat="45.93440633243358" lon="9.268797691361828"><ele>636.5</ele><time>2026-04-11T13:14:59Z</time></trkpt><trkpt lat="45.934309717561064" lon="9.268673322029862"><ele>636.0</ele><time>2026-04-11T13:15:00Z</time></trkpt><trkpt lat="45.93419630772135" lon="9.26858202616476"><ele>635.5</ele><time>2026-04-11T13:15:01Z</time></trkpt><trkpt lat="45.93407932156005" lon="9.268519678085095"><ele>635.0</ele><time>2026-04-11T13:15:02Z</time></trkpt><trkpt lat="45.93396162532658" lon="9.268500804565004"><ele>635.0</ele><time>2026-04-11T13:15:03Z</time></trkpt><trkpt lat="45.93384071881164" lon="9.268512085937969"><ele>635.0</ele><time>2026-04-11T13:15:04Z</time></trkpt><trkpt lat="45.933722684753434" lon="9.268546807215666"><ele>635.0</ele><time>2026-04-11T13:15:05Z</time></trkpt><trkpt lat="45.93360263553794" lon="9.268593671454378"><ele>635.0</ele><time>2026-04-11T13:15:06Z</time></trkpt><trkpt lat="45.93348596416087" lon="9.268640073297286"><ele>635.0</ele><time>2026-04-11T13:15:07Z</time></trkpt><trkpt lat="45.93337217431493" lon="9.268703167411932"><ele>635.0</ele><time>2026-04-11T13:15:08Z</time></trkpt><trkpt lat="45.933268259305734" lon="9.268798529763943"><ele>635.0</ele><time>2026-04-11T13:15:09Z</time></trkpt><trkpt lat="45.933172879890634" lon="9.26891034119393"><ele>635.0</ele><time>2026-04-11T13:15:10Z</time></trkpt><trkpt lat="45.93310115599677" lon="9.269045073690965"><ele>630.2</ele><time>2026-04-11T13:15:11Z</time></trkpt><trkpt lat="45.93304056467144" lon="9.269163371086258"><ele>625.4</ele><time>2026-04-11T13:15:12Z</time></trkpt><trkpt lat="45.93297566743731" lon="9.269278271928854"><ele>620.6</ele><time>2026-04-11T13:15:13Z</time></trkpt><trkpt lat="45.93290438339821" lon="9.269371316839848"><ele>615.8</ele><time>2026-04-11T13:15:14Z</time></trkpt><trkpt lat="45.93280906010898" lon="9.269413801171018"><ele>611.0</ele><time>2026-04-11T13:15:15Z</time></trkpt><trkpt lat="45.932710666871614" lon="9.26941571729579"><ele>611.0</ele><time>2026-04-11T13:15:16Z</time></trkpt><trkpt lat="45.932607733875315" lon="9.269378587961505"><ele>611.0</ele><time>2026-04-11T13:15:17Z</time></trkpt><trkpt lat="45.93250817919688" lon="9.269343925952185"><ele>611.0</ele><time>2026-04-11T13:15:18Z</time></trkpt><trkpt lat="45.93240773584223" lon="9.269321428670107"><ele>611.0</ele><time>2026-04-11T13:15:19Z</time></trkpt><trkpt lat="45.932304418527146" lon="9.269316292365284"><ele>611.0</ele><time>2026-04-11T13:15:20Z</time></trkpt><trkpt lat="45.93220411659837" lon="9.269337731457151"><ele>614.8</ele><time>2026-04-11T13:15:21Z</time></trkpt><trkpt lat="45.93210748794122" lon="9.2693819039251"><ele>618.6</ele><time>2026-04-11T13:15:22Z</time></trkpt><trkpt lat="45.932021470399924" lon="9.26944284159019"><ele>622.4</ele><time>2026-04-11T13:15:23Z</time></trkpt><trkpt lat="45.93193205844282" lon="9.269495710590885"><ele>626.2</ele><time>2026-04-11T13:15:24Z</time></trkpt><trkpt lat="45.931856679764365" lon="9.269582538839062"><ele>630.0</ele><time>2026-04-11T13:15:25Z</time></trkpt><trkpt lat="45.931784459497436" lon="9.269676805049645"><ele>628.8</ele><time>2026-04-11T13:15:26Z</time></trkpt><trkpt lat="45.93171247631412" lon="9.269765337692412"><ele>627.6</ele><time>2026-04-11T13:15:27Z</time></trkpt><trkpt lat="45.93162923466765" lon="9.269840189542727"><ele>626.4</ele><time>2026-04-11T13:15:28Z</time></trkpt><trkpt lat="45.93153318353544" lon="9.269867327807859"><ele>625.2</ele><time>2026-04-11T13:15:29Z</time></trkpt><trkpt lat="45.931430779074994" lon="9.269862930508328"><ele>624.0</ele><time>2026-04-11T13:15:30Z</time></trkpt><trkpt lat="45.93132562701521" lon="9.269834330968719"><ele>624.0</ele><time>2026-04-11T13:15:31Z</time></trkpt><trkpt lat="45.93121480639383" lon="9.269809037280323"><ele>624.0</ele><time>2026-04-11T13:15:32Z</time></trkpt><trkpt lat="45.931100879815425" lon="9.26978317794355"><ele>624.0</ele><time>2026-04-11T13:15:33Z</time></trkpt><trkpt lat="45.93098495842587" lon="9.269745111062587"><ele>624.0</ele><time>2026-04-11T13:15:34Z</time></trkpt><trkpt lat="45.93087202049012" lon="9.269675355463908"><ele>630.5</ele><time>2026-04-11T13:15:35Z</time></trkpt><trkpt lat="45.930772055375805" lon="9.269571159752369"><ele>637.0</ele><time>2026-04-11T13:15:36Z</time></trkpt><trkpt lat="45.930675410760514" lon="9.269468845278235"><ele>643.5</ele><time>2026-04-11T13:15:37Z</time></trkpt><trkpt lat="45.93056400551548" lon="9.269398764845167"><ele>650.0</ele><time>2026-04-11T13:15:38Z</time></trkpt><trkpt lat="45.930436556155456" lon="9.26936679134419"><ele>650.0</ele><time>2026-04-11T13:15:39Z</time></trkpt><trkpt lat="45.93030380832134" lon="9.269359583682172"><ele>650.0</ele><time>2026-04-11T13:15:40Z</time></trkpt><trkpt lat="45.93017129972069" lon="9.26934692108303"><ele>650.0</ele><time>2026-04-11T13:15:41Z</time></trkpt><trkpt lat="45.930044014667814" lon="9.269330644194955"><ele>650.0</ele><time>2026-04-11T13:15:42Z</time></trkpt><trkpt lat="45.92992642101217" lon="9.269313330727005"><ele>651.8</ele><time>2026-04-11T13:15:43Z</time></trkpt><trkpt lat="45.929813555557686" lon="9.269285613015267"><ele>653.6</ele><time>2026-04-11T13:15:44Z</time></trkpt><trkpt lat="45.92970443854649" lon="9.269258349441166"><ele>655.4000000000001</ele><time>2026-04-11T13:15:45Z</time></trkpt><trkpt lat="45.9296049039765" lon="9.269224004269525"><ele>657.2</ele><time>2026-04-11T13:15:46Z</time></trkpt><trkpt lat="45.9295169814145" lon="9.269162044483751"><ele>659.0</ele><time>2026-04-11T13:15:47Z</time></trkpt><trkpt lat="45.929442588037034" lon="9.269071623658432"><ele>659.0</ele><time>2026-04-11T13:15:48Z</time></trkpt><trkpt lat="45.92938236900977" lon="9.26897407959919"><ele>659.0</ele><time>2026-04-11T13:15:49Z</time></trkpt><trkpt lat="45.9293281952334" lon="9.268868517075802"><ele>659.0</ele><time>2026-04-11T13:15:50Z</time></trkpt><trkpt lat="45.92927697552948" lon="9.26876110235126"><ele>659.0</ele><time>2026-04-11T13:15:51Z</time></trkpt><trkpt lat="45.929226680420456" lon="9.268677194521603"><ele>659.0</ele><time>2026-04-11T13:15:52Z</time></trkpt><trkpt lat="45.929167486121514" lon="9.268615479783671"><ele>659.0</ele><time>2026-04-11T13:15:53Z</time></trkpt><trkpt lat="45.92909507868301" lon="9.268608941969978"><ele>659.0</ele><time>2026-04-11T13:15:54Z</time></trkpt><trkpt lat="45.9290434071904" lon="9.26867253891892"><ele>659.0</ele><time>2026-04-11T13:15:55Z</time></trkpt><trkpt lat="45.929004919497324" lon="9.268771210949161"><ele>659.0</ele><time>2026-04-11T13:15:56Z</time></trkpt><trkpt lat="45.92900619129499" lon="9.268904421282423"><ele>659.0</ele><time>2026-04-11T13:15:57Z</time></trkpt><trkpt lat="45.92901671403724" lon="9.269030336219707"><ele>659.0</ele><time>2026-04-11T13:15:58Z</time></trkpt><trkpt lat="45.929020219627944" lon="9.269125359067196"><ele>659.0</ele><time>2026-04-11T13:15:59Z</time></trkpt><trkpt lat="45.92898167173382" lon="9.269252956711298"><ele>659.0</ele><time>2026-04-11T13:16:01Z</time></trkpt><trkpt lat="45.92891235366585" lon="9.269234629274289"><ele>659.0</ele><time>2026-04-11T13:16:02Z</time></trkpt><trkpt lat="45.92882676661752" lon="9.269172654362336"><ele>659.0</ele><time>2026-04-11T13:16:03Z</time></trkpt><trkpt lat="45.928700568301934" lon="9.269113616331847"><ele>659.0</ele><time>2026-04-11T13:16:04Z</time></trkpt><trkpt lat="45.92854736539392" lon="9.269000609488456"><ele>663.2</ele><time>2026-04-11T13:16:04.999Z</time></trkpt><trkpt lat="45.92840963718173" lon="9.268939363385808"><ele>667.4000000000001</ele><time>2026-04-11T13:16:05.999Z</time></trkpt><trkpt lat="45.928328478763305" lon="9.268882965350436"><ele>671.6</ele><time>2026-04-11T13:16:06.999Z</time></trkpt><trkpt lat="45.928295056161055" lon="9.268786310942373"><ele>675.8</ele><time>2026-04-11T13:16:07.999Z</time></trkpt><trkpt lat="45.92831614582046" lon="9.268672004411103"><ele>680.0</ele><time>2026-04-11T13:16:08.999Z</time></trkpt><trkpt lat="45.928406119635426" lon="9.268621401209138"><ele>680.0</ele><time>2026-04-11T13:16:09.999Z</time></trkpt><trkpt lat="45.928509415363855" lon="9.268539731069042"><ele>680.0</ele><time>2026-04-11T13:16:10.999Z</time></trkpt><trkpt lat="45.92864759849158" lon="9.268477819270938"><ele>680.0</ele><time>2026-04-11T13:16:11.999Z</time></trkpt><trkpt lat="45.92875082944715" lon="9.268401565032761"><ele>680.0</ele><time>2026-04-11T13:16:12.999Z</time></trkpt><trkpt lat="45.9288074614837" lon="9.268347177718203"><ele>680.0</ele><time>2026-04-11T13:16:13.999Z</time></trkpt><trkpt lat="45.92877249458896" lon="9.268166059268266"><ele>680.0</ele><time>2026-04-11T13:16:15.999Z</time></trkpt><trkpt lat="45.92868456173085" lon="9.268112250091745"><ele>680.0</ele><time>2026-04-11T13:16:16.999Z</time></trkpt><trkpt lat="45.92855928080249" lon="9.268152087957636"><ele>680.0</ele><time>2026-04-11T13:16:17.999Z</time></trkpt><trkpt lat="45.9284201902268" lon="9.268254419123046"><ele>680.0</ele><time>2026-04-11T13:16:18.999Z</time></trkpt><trkpt lat="45.92826350621731" lon="9.268368352597625"><ele>682.6666666666666</ele><time>2026-04-11T13:16:19.999Z</time></trkpt><trkpt lat="45.92811044743436" lon="9.268501263668137"><ele>685.3333333333334</ele><time>2026-04-11T13:16:20.999Z</time></trkpt><trkpt lat="45.9279718279963" lon="9.268667163505537"><ele>688.0</ele><time>2026-04-11T13:16:21.999Z</time></trkpt><trkpt lat="45.927851794146044" lon="9.268803480137743"><ele>688.0</ele><time>2026-04-11T13:16:22.999Z</time></trkpt><trkpt lat="45.92775786759307" lon="9.268903804063592"><ele>688.0</ele><time>2026-04-11T13:16:23.999Z</time></trkpt><trkpt lat="45.927677846345915" lon="9.26898888737242"><ele>688.0</ele><time>2026-04-11T13:16:24.999Z</time></trkpt><trkpt lat="45.927622775196376" lon="9.269058412326643"><ele>688.0</ele><time>2026-04-11T13:16:25.999Z</time></trkpt><trkpt lat="45.92751764935927" lon="9.268998286377846"><ele>688.0</ele><time>2026-04-11T13:16:27.999Z</time></trkpt><trkpt lat="45.9275256282027" lon="9.268881880596364"><ele>688.0</ele><time>2026-04-11T13:16:28.999Z</time></trkpt><trkpt lat="45.927591958555105" lon="9.268791277791522"><ele>688.0</ele><time>2026-04-11T13:16:29.999Z</time></trkpt><trkpt lat="45.927702471584965" lon="9.268722474735732"><ele>688.0</ele><time>2026-04-11T13:16:30.999Z</time></trkpt><trkpt lat="45.92783397674843" lon="9.268646803513455"><ele>688.0</ele><time>2026-04-11T13:16:31.999Z</time></trkpt><trkpt lat="45.92791504411848" lon="9.268573131715739"><ele>688.0</ele><time>2026-04-11T13:16:32.999Z</time></trkpt><trkpt lat="45.92794757237617" lon="9.268482532865693"><ele>688.0</ele><time>2026-04-11T13:16:33.999Z</time></trkpt><trkpt lat="45.9279121727398" lon="9.26838213871473"><ele>688.0</ele><time>2026-04-11T13:16:34.999Z</time></trkpt><trkpt lat="45.927833910677236" lon="9.268308589229644"><ele>688.0</ele><time>2026-04-11T13:16:35.999Z</time></trkpt><trkpt lat="45.927744446270985" lon="9.26832599340345"><ele>688.0</ele><time>2026-04-11T13:16:36.999Z</time></trkpt><trkpt lat="45.92764673345964" lon="9.268399351121968"><ele>688.0</ele><time>2026-04-11T13:16:37.999Z</time></trkpt><trkpt lat="45.927525238541406" lon="9.26846111554654"><ele>691.3333333333334</ele><time>2026-04-11T13:16:38.999Z</time></trkpt><trkpt lat="45.927404888492866" lon="9.2685215306049"><ele>694.6666666666667</ele><time>2026-04-11T13:16:39.999Z</time></trkpt><trkpt lat="45.92732215513725" lon="9.268550233233842"><ele>698.0</ele><time>2026-04-11T13:16:40.999Z</time></trkpt><trkpt lat="45.92725880622077" lon="9.268538858175823"><ele>701.3333333333334</ele><time>2026-04-11T13:16:41.999Z</time></trkpt><trkpt lat="45.92723243128334" lon="9.268435575228038"><ele>704.6666666666666</ele><time>2026-04-11T13:16:42.999Z</time></trkpt><trkpt lat="45.92725994325322" lon="9.268340608414714"><ele>708.0</ele><time>2026-04-11T13:16:43.999Z</time></trkpt><trkpt lat="45.927331061398846" lon="9.268286361096287"><ele>708.0</ele><time>2026-04-11T13:16:44.999Z</time></trkpt><trkpt lat="45.92744842877477" lon="9.268243416475723"><ele>708.0</ele><time>2026-04-11T13:16:45.999Z</time></trkpt><trkpt lat="45.927595933013635" lon="9.268177245391092"><ele>708.0</ele><time>2026-04-11T13:16:46.999Z</time></trkpt><trkpt lat="45.927738333849504" lon="9.268089133944946"><ele>708.0</ele><time>2026-04-11T13:16:47.999Z</time></trkpt><trkpt lat="45.92782745036172" lon="9.268037681395423"><ele>708.6666666666666</ele><time>2026-04-11T13:16:48.999Z</time></trkpt><trkpt lat="45.927897583278934" lon="9.267977882660285"><ele>709.3333333333334</ele><time>2026-04-11T13:16:49.999Z</time></trkpt><trkpt lat="45.92792815192184" lon="9.267889580492644"><ele>710.0</ele><time>2026-04-11T13:16:50.999Z</time></trkpt><trkpt lat="45.927915403644526" lon="9.267792104351276"><ele>710.6666666666667</ele><time>2026-04-11T13:16:51.999Z</time></trkpt><trkpt lat="45.927847068626086" lon="9.267710510829351"><ele>711.3333333333334</ele><time>2026-04-11T13:16:52.999Z</time></trkpt><trkpt lat="45.92776204624795" lon="9.267649183045066"><ele>712.0</ele><time>2026-04-11T13:16:53.999Z</time></trkpt><trkpt lat="45.927563614573394" lon="9.267609781914295"><ele>717.0</ele><time>2026-04-11T13:16:54.999Z</time></trkpt><trkpt lat="45.927395635906414" lon="9.267566190524812"><ele>722.0</ele><time>2026-04-11T13:16:55.999Z</time></trkpt><trkpt lat="45.92720925441825" lon="9.267553871597444"><ele>727.0</ele><time>2026-04-11T13:16:56.999Z</time></trkpt><trkpt lat="45.92700856434344" lon="9.267549565103842"><ele>727.0</ele><time>2026-04-11T13:16:57.999Z</time></trkpt><trkpt lat="45.92680668484904" lon="9.26758966632064"><ele>727.0</ele><time>2026-04-11T13:16:58.999Z</time></trkpt><trkpt lat="45.92661088145414" lon="9.267667048605599"><ele>727.0</ele><time>2026-04-11T13:17:00Z</time></trkpt><trkpt lat="45.92640906559295" lon="9.267744643105155"><ele>732.0</ele><time>2026-04-11T13:17:01Z</time></trkpt><trkpt lat="45.9262048925299" lon="9.267802586651557"><ele>737.0</ele><time>2026-04-11T13:17:02Z</time></trkpt><trkpt lat="45.92600267316543" lon="9.26785632174605"><ele>742.0</ele><time>2026-04-11T13:17:03Z</time></trkpt><trkpt lat="45.925811279565075" lon="9.26791219603367"><ele>744.6666666666667</ele><time>2026-04-11T13:17:04Z</time></trkpt><trkpt lat="45.92563143833292" lon="9.267972642546315"><ele>747.3333333333334</ele><time>2026-04-11T13:17:05Z</time></trkpt><trkpt lat="45.925464958810394" lon="9.268010780618983"><ele>750.0</ele><time>2026-04-11T13:17:06Z</time></trkpt><trkpt lat="45.92530167225995" lon="9.268001751536428"><ele>750.0</ele><time>2026-04-11T13:17:07Z</time></trkpt><trkpt lat="45.92514463676404" lon="9.267948494465392"><ele>750.0</ele><time>2026-04-11T13:17:08Z</time></trkpt><trkpt lat="45.92500080798631" lon="9.267874681952662"><ele>750.0</ele><time>2026-04-11T13:17:09Z</time></trkpt><trkpt lat="45.92487329116385" lon="9.267807686813724"><ele>752.8</ele><time>2026-04-11T13:17:10Z</time></trkpt><trkpt lat="45.924761440596164" lon="9.267758283638395"><ele>755.6</ele><time>2026-04-11T13:17:11Z</time></trkpt><trkpt lat="45.924660567535696" lon="9.267718366023834"><ele>758.4000000000001</ele><time>2026-04-11T13:17:12Z</time></trkpt><trkpt lat="45.92455478249144" lon="9.267675738937664"><ele>761.2</ele><time>2026-04-11T13:17:13Z</time></trkpt><trkpt lat="45.92445362760302" lon="9.2676312340925"><ele>764.0</ele><time>2026-04-11T13:17:14Z</time></trkpt><trkpt lat="45.92436098228377" lon="9.26759179571409"><ele>764.0</ele><time>2026-04-11T13:17:15Z</time></trkpt><trkpt lat="45.924272254222394" lon="9.267553955503407"><ele>764.0</ele><time>2026-04-11T13:17:16Z</time></trkpt><trkpt lat="45.92418380108985" lon="9.267507888768963"><ele>764.0</ele><time>2026-04-11T13:17:17Z</time></trkpt><trkpt lat="45.92410143385483" lon="9.267453337968734"><ele>764.0</ele><time>2026-04-11T13:17:18Z</time></trkpt><trkpt lat="45.924030367974225" lon="9.267397640562196"><ele>764.0</ele><time>2026-04-11T13:17:19Z</time></trkpt><trkpt lat="45.92397003661181" lon="9.267349009991776"><ele>764.0</ele><time>2026-04-11T13:17:20Z</time></trkpt><trkpt lat="45.9238648866557" lon="9.267258474476655"><ele>764.2857142857143</ele><time>2026-04-11T13:17:22Z</time></trkpt><trkpt lat="45.92381172788744" lon="9.26720970975427"><ele>764.5714285714286</ele><time>2026-04-11T13:17:23Z</time></trkpt><trkpt lat="45.92375594607763" lon="9.26716051342688"><ele>764.8571428571429</ele><time>2026-04-11T13:17:24Z</time></trkpt><trkpt lat="45.92369531194692" lon="9.267110658512733"><ele>765.1428571428571</ele><time>2026-04-11T13:17:25Z</time></trkpt><trkpt lat="45.92363000202944" lon="9.267058454139175"><ele>765.4285714285713</ele><time>2026-04-11T13:17:26Z</time></trkpt><trkpt lat="45.92355781712926" lon="9.266999410448618"><ele>765.7142857142857</ele><time>2026-04-11T13:17:27Z</time></trkpt><trkpt lat="45.92348080037651" lon="9.266928918650567"><ele>766.0</ele><time>2026-04-11T13:17:28Z</time></trkpt><trkpt lat="45.92340205468739" lon="9.266845273255754"><ele>766.0</ele><time>2026-04-11T13:17:29Z</time></trkpt><trkpt lat="45.92331866658324" lon="9.26673947561243"><ele>766.0</ele><time>2026-04-11T13:17:30Z</time></trkpt><trkpt lat="45.92324331943352" lon="9.266600619067297"><ele>766.0</ele><time>2026-04-11T13:17:31Z</time></trkpt><trkpt lat="45.92318578928788" lon="9.266435181806093"><ele>766.0</ele><time>2026-04-11T13:17:32Z</time></trkpt><trkpt lat="45.92315466447121" lon="9.266248791832364"><ele>766.0</ele><time>2026-04-11T13:17:33Z</time></trkpt><trkpt lat="45.92313684806415" lon="9.266052162474065"><ele>766.0</ele><time>2026-04-11T13:17:34Z</time></trkpt><trkpt lat="45.92312421413369" lon="9.265840086667671"><ele>766.0</ele><time>2026-04-11T13:17:35Z</time></trkpt><trkpt lat="45.92310653973884" lon="9.265613947967768"><ele>766.0</ele><time>2026-04-11T13:17:36Z</time></trkpt><trkpt lat="45.923084312053106" lon="9.26535526263576"><ele>766.0</ele><time>2026-04-11T13:17:37Z</time></trkpt><trkpt lat="45.923059167122716" lon="9.265084214615259"><ele>766.0</ele><time>2026-04-11T13:17:38Z</time></trkpt><trkpt lat="45.92303453875359" lon="9.264812087148389"><ele>766.0</ele><time>2026-04-11T13:17:39Z</time></trkpt><trkpt lat="45.923010802978396" lon="9.264553847320164"><ele>766.0</ele><time>2026-04-11T13:17:40Z</time></trkpt><trkpt lat="45.92298121075479" lon="9.264303689754534"><ele>766.0</ele><time>2026-04-11T13:17:41Z</time></trkpt><trkpt lat="45.922949254745895" lon="9.264067307624687"><ele>766.0</ele><time>2026-04-11T13:17:42Z</time></trkpt><trkpt lat="45.92291794484508" lon="9.263837229403908"><ele>766.0</ele><time>2026-04-11T13:17:43Z</time></trkpt><trkpt lat="45.922881631339756" lon="9.263614321119103"><ele>766.0</ele><time>2026-04-11T13:17:44Z</time></trkpt><trkpt lat="45.92282308784041" lon="9.263401249718228"><ele>766.0</ele><time>2026-04-11T13:17:45Z</time></trkpt><trkpt lat="45.92273836155767" lon="9.263201557436355"><ele>766.6666666666667</ele><time>2026-04-11T13:17:46Z</time></trkpt><trkpt lat="45.922636394676296" lon="9.263007871957496"><ele>767.3333333333334</ele><time>2026-04-11T13:17:47Z</time></trkpt><trkpt lat="45.92251963151649" lon="9.2628331238798"><ele>768.0</ele><time>2026-04-11T13:17:48Z</time></trkpt><trkpt lat="45.92239956365069" lon="9.262691299576725"><ele>765.0</ele><time>2026-04-11T13:17:49Z</time></trkpt><trkpt lat="45.922280322194" lon="9.262583526288836"><ele>762.0</ele><time>2026-04-11T13:17:50Z</time></trkpt><trkpt lat="45.922168181200554" lon="9.262499872496576"><ele>759.0</ele><time>2026-04-11T13:17:51Z</time></trkpt><trkpt lat="45.92206540184174" lon="9.262434230238497"><ele>756.0</ele><time>2026-04-11T13:17:52Z</time></trkpt><trkpt lat="45.92197297230363" lon="9.262385022466797"><ele>756.0</ele><time>2026-04-11T13:17:53Z</time></trkpt><trkpt lat="45.92188693332135" lon="9.26234842655688"><ele>756.0</ele><time>2026-04-11T13:17:54Z</time></trkpt><trkpt lat="45.92180069995105" lon="9.262322253165264"><ele>756.0</ele><time>2026-04-11T13:17:55Z</time></trkpt><trkpt lat="45.921709922288464" lon="9.262296708440307"><ele>756.0</ele><time>2026-04-11T13:17:56Z</time></trkpt><trkpt lat="45.92162072083146" lon="9.262270578556949"><ele>756.0</ele><time>2026-04-11T13:17:57Z</time></trkpt><trkpt lat="45.92153013086935" lon="9.262243143702348"><ele>756.8</ele><time>2026-04-11T13:17:58Z</time></trkpt><trkpt lat="45.92143545710075" lon="9.262219847896908"><ele>757.5999999999999</ele><time>2026-04-11T13:17:59Z</time></trkpt><trkpt lat="45.92135708232868" lon="9.262181826512151"><ele>758.4</ele><time>2026-04-11T13:18:00Z</time></trkpt><trkpt lat="45.92129240597255" lon="9.26214336791639"><ele>759.2</ele><time>2026-04-11T13:18:01Z</time></trkpt><trkpt lat="45.92118269759643" lon="9.262093071608597"><ele>760.0</ele><time>2026-04-11T13:18:03Z</time></trkpt><trkpt lat="45.921075452857984" lon="9.262026195512611"><ele>760.0</ele><time>2026-04-11T13:18:05Z</time></trkpt><trkpt lat="45.921014010291735" lon="9.261987587780235"><ele>760.0</ele><time>2026-04-11T13:18:05.999Z</time></trkpt><trkpt lat="45.92094664380933" lon="9.261942849580997"><ele>760.0</ele><time>2026-04-11T13:18:06.999Z</time></trkpt><trkpt lat="45.92087526666046" lon="9.261894596854184"><ele>760.0</ele><time>2026-04-11T13:18:07.999Z</time></trkpt><trkpt lat="45.92080151598334" lon="9.261845433869784"><ele>760.0</ele><time>2026-04-11T13:18:08.999Z</time></trkpt><trkpt lat="45.92073004012933" lon="9.26179545164059"><ele>760.0</ele><time>2026-04-11T13:18:09.999Z</time></trkpt><trkpt lat="45.92065880267006" lon="9.261743729286495"><ele>758.8333333333334</ele><time>2026-04-11T13:18:10.999Z</time></trkpt><trkpt lat="45.92058520456947" lon="9.261690729497541"><ele>757.6666666666667</ele><time>2026-04-11T13:18:11.999Z</time></trkpt><trkpt lat="45.92051130281783" lon="9.261635627228735"><ele>756.5</ele><time>2026-04-11T13:18:12.999Z</time></trkpt><trkpt lat="45.92043944524267" lon="9.261586005505656"><ele>755.3333333333334</ele><time>2026-04-11T13:18:13.999Z</time></trkpt><trkpt lat="45.9203698214042" lon="9.261551797835153"><ele>754.1666666666666</ele><time>2026-04-11T13:18:14.999Z</time></trkpt><trkpt lat="45.92030304478409" lon="9.261535847397301"><ele>753.0</ele><time>2026-04-11T13:18:15.999Z</time></trkpt><trkpt lat="45.920235294530414" lon="9.26153466170497"><ele>753.0</ele><time>2026-04-11T13:18:16.999Z</time></trkpt><trkpt lat="45.920171592284944" lon="9.261551397344334"><ele>753.0</ele><time>2026-04-11T13:18:17.999Z</time></trkpt><trkpt lat="45.9201086972329" lon="9.261567564030896"><ele>753.0</ele><time>2026-04-11T13:18:18.999Z</time></trkpt><trkpt lat="45.92003971084329" lon="9.261579608471518"><ele>753.0</ele><time>2026-04-11T13:18:19.999Z</time></trkpt><trkpt lat="45.91995724844327" lon="9.261590231250478"><ele>753.0</ele><time>2026-04-11T13:18:20.999Z</time></trkpt><trkpt lat="45.91986671484877" lon="9.261593194510663"><ele>753.0</ele><time>2026-04-11T13:18:21.999Z</time></trkpt><trkpt lat="45.9197672089226" lon="9.26159671345002"><ele>750.75</ele><time>2026-04-11T13:18:22.999Z</time></trkpt><trkpt lat="45.91966035292649" lon="9.261600682458456"><ele>748.5</ele><time>2026-04-11T13:18:23.999Z</time></trkpt><trkpt lat="45.919547074286946" lon="9.261597386481956"><ele>746.25</ele><time>2026-04-11T13:18:24.999Z</time></trkpt><trkpt lat="45.91942974645885" lon="9.261577553733138"><ele>744.0</ele><time>2026-04-11T13:18:25.999Z</time></trkpt><trkpt lat="45.91930245778474" lon="9.261553041195521"><ele>743.25</ele><time>2026-04-11T13:18:26.999Z</time></trkpt><trkpt lat="45.91917086289034" lon="9.261527287273575"><ele>742.5</ele><time>2026-04-11T13:18:27.999Z</time></trkpt><trkpt lat="45.91903226095006" lon="9.26150103110213"><ele>741.75</ele><time>2026-04-11T13:18:28.999Z</time></trkpt><trkpt lat="45.918887280144695" lon="9.261476614692066"><ele>741.0</ele><time>2026-04-11T13:18:29.999Z</time></trkpt><trkpt lat="45.91873970282854" lon="9.261449979509845"><ele>742.75</ele><time>2026-04-11T13:18:30.999Z</time></trkpt><trkpt lat="45.91859418367217" lon="9.26142150923066"><ele>744.5</ele><time>2026-04-11T13:18:31.999Z</time></trkpt><trkpt lat="45.91844690662919" lon="9.261389218672267"><ele>746.25</ele><time>2026-04-11T13:18:32.999Z</time></trkpt><trkpt lat="45.918297692057955" lon="9.261358218110846"><ele>748.0</ele><time>2026-04-11T13:18:33.999Z</time></trkpt><trkpt lat="45.918150659002706" lon="9.261324288541125"><ele>748.0</ele><time>2026-04-11T13:18:34.999Z</time></trkpt><trkpt lat="45.918002192035814" lon="9.261293674391972"><ele>748.0</ele><time>2026-04-11T13:18:35.999Z</time></trkpt><trkpt lat="45.91785386901637" lon="9.261261319352116"><ele>748.0</ele><time>2026-04-11T13:18:36.999Z</time></trkpt><trkpt lat="45.91770438251358" lon="9.261230421092469"><ele>746.5</ele><time>2026-04-11T13:18:37.999Z</time></trkpt><trkpt lat="45.91755542833649" lon="9.261199707940095"><ele>745.0</ele><time>2026-04-11T13:18:38.999Z</time></trkpt><trkpt lat="45.9174117532655" lon="9.261167753796686"><ele>743.5</ele><time>2026-04-11T13:18:39.999Z</time></trkpt><trkpt lat="45.91726812238542" lon="9.261128710614615"><ele>742.0</ele><time>2026-04-11T13:18:40.999Z</time></trkpt><trkpt lat="45.91712888292868" lon="9.261074391282893"><ele>742.0</ele><time>2026-04-11T13:18:41.999Z</time></trkpt><trkpt lat="45.91698969990373" lon="9.260997716901143"><ele>742.0</ele><time>2026-04-11T13:18:42.999Z</time></trkpt><trkpt lat="45.91684868271409" lon="9.260910664313691"><ele>742.0</ele><time>2026-04-11T13:18:43.999Z</time></trkpt><trkpt lat="45.91670866458266" lon="9.260815840008254"><ele>743.0</ele><time>2026-04-11T13:18:44.999Z</time></trkpt><trkpt lat="45.91657214566156" lon="9.26072580176497"><ele>744.0</ele><time>2026-04-11T13:18:45.999Z</time></trkpt><trkpt lat="45.9164343142722" lon="9.260636687309928"><ele>745.0</ele><time>2026-04-11T13:18:46.999Z</time></trkpt><trkpt lat="45.91629944705282" lon="9.260550599398531"><ele>746.0</ele><time>2026-04-11T13:18:47.999Z</time></trkpt><trkpt lat="45.916167696724145" lon="9.260468047942206"><ele>746.0</ele><time>2026-04-11T13:18:48.999Z</time></trkpt><trkpt lat="45.91602238788343" lon="9.26040951876843"><ele>746.0</ele><time>2026-04-11T13:18:49.999Z</time></trkpt><trkpt lat="45.91583399336999" lon="9.260387337580543"><ele>746.0</ele><time>2026-04-11T13:18:50.999Z</time></trkpt><trkpt lat="45.91563272199794" lon="9.2603439524383"><ele>741.0</ele><time>2026-04-11T13:18:51.999Z</time></trkpt><trkpt lat="45.91543123574765" lon="9.260299740182981"><ele>736.0</ele><time>2026-04-11T13:18:52.999Z</time></trkpt><trkpt lat="45.91523826677321" lon="9.260271745026255"><ele>731.0</ele><time>2026-04-11T13:18:53.999Z</time></trkpt><trkpt lat="45.91504481246973" lon="9.260247812675674"><ele>727.0</ele><time>2026-04-11T13:18:54.999Z</time></trkpt><trkpt lat="45.914852048628525" lon="9.260224437083444"><ele>723.0</ele><time>2026-04-11T13:18:55.999Z</time></trkpt><trkpt lat="45.9146670026308" lon="9.26018807398385"><ele>719.0</ele><time>2026-04-11T13:18:56.999Z</time></trkpt><trkpt lat="45.9144848333915" lon="9.260134361188925"><ele>719.0</ele><time>2026-04-11T13:18:57.999Z</time></trkpt><trkpt lat="45.91430888592584" lon="9.260057380419433"><ele>719.0</ele><time>2026-04-11T13:18:58.999Z</time></trkpt><trkpt lat="45.914139504218106" lon="9.259967735267963"><ele>719.0</ele><time>2026-04-11T13:18:59.999Z</time></trkpt><trkpt lat="45.91397278221728" lon="9.259886210035042"><ele>714.0</ele><time>2026-04-11T13:19:00.999Z</time></trkpt><trkpt lat="45.913800494381995" lon="9.259826616010765"><ele>709.0</ele><time>2026-04-11T13:19:01.999Z</time></trkpt><trkpt lat="45.913622822034895" lon="9.259803254609954"><ele>704.0</ele><time>2026-04-11T13:19:02.999Z</time></trkpt><trkpt lat="45.91344860019548" lon="9.259843831152232"><ele>701.3333333333333</ele><time>2026-04-11T13:19:03.999Z</time></trkpt><trkpt lat="45.91329607758547" lon="9.259931305728712"><ele>698.6666666666666</ele><time>2026-04-11T13:19:05Z</time></trkpt><trkpt lat="45.91316474744543" lon="9.260051843145085"><ele>696.0</ele><time>2026-04-11T13:19:06Z</time></trkpt><trkpt lat="45.91305360382154" lon="9.260188836405947"><ele>696.0</ele><time>2026-04-11T13:19:07Z</time></trkpt><trkpt lat="45.91293454329771" lon="9.260286861840509"><ele>696.0</ele><time>2026-04-11T13:19:08Z</time></trkpt><trkpt lat="45.91282580600658" lon="9.260404307115378"><ele>696.0</ele><time>2026-04-11T13:19:09Z</time></trkpt><trkpt lat="45.91269524716684" lon="9.260545321339347"><ele>696.0</ele><time>2026-04-11T13:19:10Z</time></trkpt><trkpt lat="45.91254820339919" lon="9.260704140818476"><ele>697.3333333333334</ele><time>2026-04-11T13:19:11Z</time></trkpt><trkpt lat="45.912387749146504" lon="9.260891891088164"><ele>698.6666666666667</ele><time>2026-04-11T13:19:12Z</time></trkpt><trkpt lat="45.912236522641905" lon="9.261136856097776"><ele>700.0</ele><time>2026-04-11T13:19:13Z</time></trkpt><trkpt lat="45.91211472645967" lon="9.261423452741063"><ele>694.3333333333334</ele><time>2026-04-11T13:19:14Z</time></trkpt><trkpt lat="45.9120168874306" lon="9.261687909242958"><ele>688.6666666666666</ele><time>2026-04-11T13:19:15Z</time></trkpt><trkpt lat="45.911929416576655" lon="9.26193254716219"><ele>683.0</ele><time>2026-04-11T13:19:16Z</time></trkpt><trkpt lat="45.911838032044265" lon="9.26216015693387"><ele>681.3333333333333</ele><time>2026-04-11T13:19:17Z</time></trkpt><trkpt lat="45.911727209732575" lon="9.2623653477672"><ele>679.6666666666666</ele><time>2026-04-11T13:19:18Z</time></trkpt><trkpt lat="45.91156087881853" lon="9.262501664827655"><ele>678.0</ele><time>2026-04-11T13:19:19Z</time></trkpt><trkpt lat="45.91137563572472" lon="9.262598888718916"><ele>678.0</ele><time>2026-04-11T13:19:20Z</time></trkpt><trkpt lat="45.91117458450309" lon="9.262644307755668"><ele>678.0</ele><time>2026-04-11T13:19:21Z</time></trkpt><trkpt lat="45.91096555931044" lon="9.26261618982693"><ele>678.0</ele><time>2026-04-11T13:19:22Z</time></trkpt><trkpt lat="45.91073961988463" lon="9.262571952044889"><ele>678.5</ele><time>2026-04-11T13:19:23Z</time></trkpt><trkpt lat="45.910506790674624" lon="9.262541311851642"><ele>679.0</ele><time>2026-04-11T13:19:24Z</time></trkpt><trkpt lat="45.9102677587398" lon="9.262537795364278"><ele>677.0</ele><time>2026-04-11T13:19:25Z</time></trkpt><trkpt lat="45.910025538365254" lon="9.262564327733271"><ele>675.0</ele><time>2026-04-11T13:19:26Z</time></trkpt><trkpt lat="45.90978687346966" lon="9.262659045051487"><ele>675.0</ele><time>2026-04-11T13:19:27Z</time></trkpt><trkpt lat="45.90955425959724" lon="9.262779894125833"><ele>675.0</ele><time>2026-04-11T13:19:28Z</time></trkpt><trkpt lat="45.90933456790233" lon="9.26290008139718"><ele>676.0</ele><time>2026-04-11T13:19:29Z</time></trkpt><trkpt lat="45.90912920300058" lon="9.263013134491054"><ele>677.0</ele><time>2026-04-11T13:19:30Z</time></trkpt><trkpt lat="45.90893915209775" lon="9.263107792752711"><ele>678.0</ele><time>2026-04-11T13:19:31Z</time></trkpt><trkpt lat="45.908756322661006" lon="9.263221174489388"><ele>671.0</ele><time>2026-04-11T13:19:32Z</time></trkpt><trkpt lat="45.908584429474125" lon="9.263316078309675"><ele>664.0</ele><time>2026-04-11T13:19:33Z</time></trkpt><trkpt lat="45.90841859345459" lon="9.263407428032846"><ele>657.0</ele><time>2026-04-11T13:19:34Z</time></trkpt><trkpt lat="45.908251144377594" lon="9.263473432791136"><ele>657.0</ele><time>2026-04-11T13:19:35Z</time></trkpt><trkpt lat="45.908095241380586" lon="9.263557686823383"><ele>657.0</ele><time>2026-04-11T13:19:36Z</time></trkpt><trkpt lat="45.90794773050043" lon="9.263638224435558"><ele>657.0</ele><time>2026-04-11T13:19:37Z</time></trkpt><trkpt lat="45.90779979543037" lon="9.26372422707207"><ele>657.0</ele><time>2026-04-11T13:19:38Z</time></trkpt><trkpt lat="45.907650699442826" lon="9.263829064687593"><ele>657.0</ele><time>2026-04-11T13:19:39Z</time></trkpt><trkpt lat="45.90750057150899" lon="9.263960313666157"><ele>657.0</ele><time>2026-04-11T13:19:40Z</time></trkpt><trkpt lat="45.90735337557229" lon="9.264102787235378"><ele>647.3333333333334</ele><time>2026-04-11T13:19:41Z</time></trkpt><trkpt lat="45.90721340917302" lon="9.264245137398142"><ele>637.6666666666667</ele><time>2026-04-11T13:19:42Z</time></trkpt><trkpt lat="45.90708011134823" lon="9.264384521293636"><ele>628.0</ele><time>2026-04-11T13:19:43Z</time></trkpt><trkpt lat="45.906955323202176" lon="9.264517176080325"><ele>628.0</ele><time>2026-04-11T13:19:44Z</time></trkpt><trkpt lat="45.90685594557062" lon="9.264671806755095"><ele>628.0</ele><time>2026-04-11T13:19:45Z</time></trkpt><trkpt lat="45.90674248875768" lon="9.264788509411094"><ele>628.0</ele><time>2026-04-11T13:19:46Z</time></trkpt><trkpt lat="45.906634541974114" lon="9.264902874266884"><ele>628.0</ele><time>2026-04-11T13:19:47Z</time></trkpt><trkpt lat="45.90653119010685" lon="9.265014967761962"><ele>626.1999999999999</ele><time>2026-04-11T13:19:48Z</time></trkpt><trkpt lat="45.906445264770724" lon="9.265103318426636"><ele>624.4</ele><time>2026-04-11T13:19:49Z</time></trkpt><trkpt lat="45.90635488132447" lon="9.265184748992732"><ele>622.5999999999999</ele><time>2026-04-11T13:19:50Z</time></trkpt><trkpt lat="45.90625540602271" lon="9.265278581793012"><ele>620.8</ele><time>2026-04-11T13:19:51Z</time></trkpt><trkpt lat="45.906157569058806" lon="9.26536865864667"><ele>619.0</ele><time>2026-04-11T13:19:52Z</time></trkpt><trkpt lat="45.90607443432061" lon="9.265445616393734"><ele>619.0</ele><time>2026-04-11T13:19:53Z</time></trkpt><trkpt lat="45.90601839531566" lon="9.265495754809885"><ele>619.0</ele><time>2026-04-11T13:19:54Z</time></trkpt><trkpt lat="45.905926973742986" lon="9.265590916599674"><ele>619.0</ele><time>2026-04-11T13:19:56Z</time></trkpt><trkpt lat="45.90586209849643" lon="9.265637077752956"><ele>619.0</ele><time>2026-04-11T13:19:59Z</time></trkpt><trkpt lat="45.90578420505363" lon="9.265737383055887"><ele>619.0</ele><time>2026-04-11T13:20:01Z</time></trkpt><trkpt lat="45.905688855739406" lon="9.26579465788197"><ele>617.3333333333334</ele><time>2026-04-11T13:20:02Z</time></trkpt><trkpt lat="45.90556674548595" lon="9.265874128399567"><ele>615.6666666666666</ele><time>2026-04-11T13:20:03Z</time></trkpt><trkpt lat="45.90543265316853" lon="9.265973716703993"><ele>614.0</ele><time>2026-04-11T13:20:04Z</time></trkpt><trkpt lat="45.90528552678977" lon="9.266079772167947"><ele>614.0</ele><time>2026-04-11T13:20:04.999Z</time></trkpt><trkpt lat="45.90513570169558" lon="9.266183278292738"><ele>614.0</ele><time>2026-04-11T13:20:05.999Z</time></trkpt><trkpt lat="45.90498450842252" lon="9.266297476324882"><ele>614.0</ele><time>2026-04-11T13:20:06.999Z</time></trkpt><trkpt lat="45.90482344016388" lon="9.266390912493396"><ele>612.3333333333333</ele><time>2026-04-11T13:20:07.999Z</time></trkpt><trkpt lat="45.90467654432644" lon="9.26651874966489"><ele>610.6666666666666</ele><time>2026-04-11T13:20:08.999Z</time></trkpt><trkpt lat="45.90451425222554" lon="9.266560324156542"><ele>609.0</ele><time>2026-04-11T13:20:09.999Z</time></trkpt><trkpt lat="45.90435552154553" lon="9.266534374263847"><ele>611.6666666666666</ele><time>2026-04-11T13:20:10.999Z</time></trkpt><trkpt lat="45.904203135985625" lon="9.266434191090434"><ele>614.3333333333333</ele><time>2026-04-11T13:20:11.999Z</time></trkpt><trkpt lat="45.90406593872862" lon="9.266296938718384"><ele>617.0</ele><time>2026-04-11T13:20:12.999Z</time></trkpt><trkpt lat="45.90393108703582" lon="9.266150877259951"><ele>617.0</ele><time>2026-04-11T13:20:13.999Z</time></trkpt><trkpt lat="45.90379172458598" lon="9.266011585233022"><ele>617.0</ele><time>2026-04-11T13:20:14.999Z</time></trkpt><trkpt lat="45.90364189622681" lon="9.265896504597462"><ele>617.0</ele><time>2026-04-11T13:20:15.999Z</time></trkpt><trkpt lat="45.90348200557443" lon="9.265811809394005"><ele>616.6666666666666</ele><time>2026-04-11T13:20:16.999Z</time></trkpt><trkpt lat="45.90332110449834" lon="9.265737535237557"><ele>616.3333333333334</ele><time>2026-04-11T13:20:17.999Z</time></trkpt><trkpt lat="45.903176607854355" lon="9.265640707681426"><ele>616.0</ele><time>2026-04-11T13:20:18.999Z</time></trkpt><trkpt lat="45.90304071584109" lon="9.265548255567328"><ele>616.25</ele><time>2026-04-11T13:20:19.999Z</time></trkpt><trkpt lat="45.90290338848878" lon="9.265493839129961"><ele>616.5</ele><time>2026-04-11T13:20:20.999Z</time></trkpt><trkpt lat="45.90276754332868" lon="9.265470362842231"><ele>616.75</ele><time>2026-04-11T13:20:21.999Z</time></trkpt><trkpt lat="45.902639796299965" lon="9.265445091129934"><ele>617.0</ele><time>2026-04-11T13:20:22.999Z</time></trkpt><trkpt lat="45.90251988830654" lon="9.265399963988614"><ele>617.0</ele><time>2026-04-11T13:20:23.999Z</time></trkpt><trkpt lat="45.90241048724804" lon="9.265331587312662"><ele>617.0</ele><time>2026-04-11T13:20:24.999Z</time></trkpt><trkpt lat="45.90230654204987" lon="9.26524600115799"><ele>617.0</ele><time>2026-04-11T13:20:25.999Z</time></trkpt><trkpt lat="45.90219577108659" lon="9.265130932660501"><ele>617.0</ele><time>2026-04-11T13:20:26.999Z</time></trkpt><trkpt lat="45.902088021253064" lon="9.264989016580301"><ele>617.0</ele><time>2026-04-11T13:20:27.999Z</time></trkpt><trkpt lat="45.90198157266482" lon="9.26482672764501"><ele>617.0</ele><time>2026-04-11T13:20:28.999Z</time></trkpt><trkpt lat="45.90187420741198" lon="9.264668169920386"><ele>617.0</ele><time>2026-04-11T13:20:29.999Z</time></trkpt><trkpt lat="45.901766381492074" lon="9.26452830577456"><ele>616.75</ele><time>2026-04-11T13:20:30.999Z</time></trkpt><trkpt lat="45.901654981233854" lon="9.264416143239403"><ele>616.5</ele><time>2026-04-11T13:20:31.999Z</time></trkpt><trkpt lat="45.901541108138055" lon="9.264330316728053"><ele>616.25</ele><time>2026-04-11T13:20:32.999Z</time></trkpt><trkpt lat="45.90144098400964" lon="9.26424876204211"><ele>616.0</ele><time>2026-04-11T13:20:33.999Z</time></trkpt><trkpt lat="45.90134762713816" lon="9.264172597578975"><ele>616.0</ele><time>2026-04-11T13:20:34.999Z</time></trkpt><trkpt lat="45.901257391721764" lon="9.264105071156717"><ele>616.0</ele><time>2026-04-11T13:20:35.999Z</time></trkpt><trkpt lat="45.90116338811678" lon="9.264043067388116"><ele>616.0</ele><time>2026-04-11T13:20:36.999Z</time></trkpt><trkpt lat="45.90105738821704" lon="9.263995678597132"><ele>616.0</ele><time>2026-04-11T13:20:37.999Z</time></trkpt><trkpt lat="45.900936562260114" lon="9.263978968648715"><ele>616.0</ele><time>2026-04-11T13:20:38.999Z</time></trkpt><trkpt lat="45.90080714042157" lon="9.26398077227968"><ele>613.25</ele><time>2026-04-11T13:20:39.999Z</time></trkpt><trkpt lat="45.90066744594357" lon="9.263995417373911"><ele>610.5</ele><time>2026-04-11T13:20:40.999Z</time></trkpt><trkpt lat="45.900519263038156" lon="9.264010774939514"><ele>607.75</ele><time>2026-04-11T13:20:41.999Z</time></trkpt><trkpt lat="45.90037221954944" lon="9.264024670159806"><ele>605.0</ele><time>2026-04-11T13:20:42.999Z</time></trkpt><trkpt lat="45.90025454264643" lon="9.264028685783332"><ele>605.0</ele><time>2026-04-11T13:20:43.999Z</time></trkpt><trkpt lat="45.90014285663119" lon="9.264030521980784"><ele>605.0</ele><time>2026-04-11T13:20:44.999Z</time></trkpt><trkpt lat="45.900034839255355" lon="9.264036797215002"><ele>605.0</ele><time>2026-04-11T13:20:45.999Z</time></trkpt><trkpt lat="45.89992892826438" lon="9.264046370357518"><ele>605.0</ele><time>2026-04-11T13:20:46.999Z</time></trkpt><trkpt lat="45.89981790975773" lon="9.264058429594508"><ele>605.0</ele><time>2026-04-11T13:20:47.999Z</time></trkpt><trkpt lat="45.89970245785564" lon="9.26407184599206"><ele>605.0</ele><time>2026-04-11T13:20:48.999Z</time></trkpt><trkpt lat="45.899584420333106" lon="9.264081958219"><ele>605.0</ele><time>2026-04-11T13:20:49.999Z</time></trkpt><trkpt lat="45.89946524729673" lon="9.264091952648828"><ele>605.0</ele><time>2026-04-11T13:20:50.999Z</time></trkpt><trkpt lat="45.89934662822123" lon="9.264089057247892"><ele>605.0</ele><time>2026-04-11T13:20:51.999Z</time></trkpt><trkpt lat="45.899229906905056" lon="9.264075407381505"><ele>603.5</ele><time>2026-04-11T13:20:52.999Z</time></trkpt><trkpt lat="45.899107895096186" lon="9.264047084301462"><ele>602.0</ele><time>2026-04-11T13:20:53.999Z</time></trkpt><trkpt lat="45.89898539545438" lon="9.263997165652661"><ele>600.5</ele><time>2026-04-11T13:20:54.999Z</time></trkpt><trkpt lat="45.898864124014835" lon="9.26391608010671"><ele>599.0</ele><time>2026-04-11T13:20:55.999Z</time></trkpt><trkpt lat="45.89874743221611" lon="9.263810587430521"><ele>600.25</ele><time>2026-04-11T13:20:56.999Z</time></trkpt><trkpt lat="45.89862830774047" lon="9.263695833987256"><ele>601.5</ele><time>2026-04-11T13:20:57.999Z</time></trkpt><trkpt lat="45.898505041010274" lon="9.263572710233461"><ele>602.75</ele><time>2026-04-11T13:20:58.999Z</time></trkpt><trkpt lat="45.89837746787763" lon="9.263448054786846"><ele>604.0</ele><time>2026-04-11T13:20:59.999Z</time></trkpt><trkpt lat="45.8982502672466" lon="9.263331441123098"><ele>604.0</ele><time>2026-04-11T13:21:00.999Z</time></trkpt><trkpt lat="45.89812500552863" lon="9.263230651108362"><ele>604.0</ele><time>2026-04-11T13:21:01.999Z</time></trkpt><trkpt lat="45.897996158771136" lon="9.263157679102985"><ele>604.0</ele><time>2026-04-11T13:21:02.999Z</time></trkpt><trkpt lat="45.89785828366822" lon="9.263104417555677"><ele>604.0</ele><time>2026-04-11T13:21:03.999Z</time></trkpt><trkpt lat="45.89770405158753" lon="9.26306294111586"><ele>609.3333333333334</ele><time>2026-04-11T13:21:04.999Z</time></trkpt><trkpt lat="45.89753889128921" lon="9.263009938991013"><ele>614.6666666666666</ele><time>2026-04-11T13:21:05.999Z</time></trkpt><trkpt lat="45.897359313248586" lon="9.262926754737439"><ele>620.0</ele><time>2026-04-11T13:21:06.999Z</time></trkpt><trkpt lat="45.89716511063217" lon="9.26279606747069"><ele>620.0</ele><time>2026-04-11T13:21:07.999Z</time></trkpt><trkpt lat="45.896966605430606" lon="9.262684149392866"><ele>620.0</ele><time>2026-04-11T13:21:08.999Z</time></trkpt><trkpt lat="45.89679742721584" lon="9.262604141741743"><ele>620.0</ele><time>2026-04-11T13:21:09.999Z</time></trkpt><trkpt lat="45.89664860341674" lon="9.262538775550256"><ele>624.0</ele><time>2026-04-11T13:21:11Z</time></trkpt><trkpt lat="45.89651069251296" lon="9.262472311635564"><ele>628.0</ele><time>2026-04-11T13:21:12Z</time></trkpt><trkpt lat="45.89638165547826" lon="9.262391134936488"><ele>632.0</ele><time>2026-04-11T13:21:13Z</time></trkpt><trkpt lat="45.89626212339989" lon="9.262292841433728"><ele>636.0</ele><time>2026-04-11T13:21:14Z</time></trkpt><trkpt lat="45.89614668732432" lon="9.262171484806611"><ele>636.0</ele><time>2026-04-11T13:21:15Z</time></trkpt><trkpt lat="45.896027623928994" lon="9.262042581232503"><ele>636.0</ele><time>2026-04-11T13:21:16Z</time></trkpt><trkpt lat="45.895897477924635" lon="9.26192006713388"><ele>636.0</ele><time>2026-04-11T13:21:17Z</time></trkpt><trkpt lat="45.89572701555385" lon="9.261827132223688"><ele>625.3333333333334</ele><time>2026-04-11T13:21:18Z</time></trkpt><trkpt lat="45.895533267355084" lon="9.261740349829779"><ele>614.6666666666667</ele><time>2026-04-11T13:21:19Z</time></trkpt><trkpt lat="45.895340812707516" lon="9.261649066196172"><ele>604.0</ele><time>2026-04-11T13:21:20Z</time></trkpt><trkpt lat="45.89514578616838" lon="9.26156609296393"><ele>598.6666666666667</ele><time>2026-04-11T13:21:21Z</time></trkpt><trkpt lat="45.89494898344903" lon="9.261486285933563"><ele>593.3333333333334</ele><time>2026-04-11T13:21:22Z</time></trkpt><trkpt lat="45.89475007514895" lon="9.261416337560625"><ele>588.0</ele><time>2026-04-11T13:21:23Z</time></trkpt><trkpt lat="45.894547887064554" lon="9.26138248611783"><ele>594.0</ele><time>2026-04-11T13:21:24Z</time></trkpt><trkpt lat="45.894337828480495" lon="9.261371329671247"><ele>600.0</ele><time>2026-04-11T13:21:25Z</time></trkpt><trkpt lat="45.89412824715233" lon="9.261361637810044"><ele>606.0</ele><time>2026-04-11T13:21:26Z</time></trkpt><trkpt lat="45.89392201501977" lon="9.26134766266716"><ele>606.0</ele><time>2026-04-11T13:21:27Z</time></trkpt><trkpt lat="45.89372008584655" lon="9.261336549260301"><ele>606.0</ele><time>2026-04-11T13:21:28Z</time></trkpt><trkpt lat="45.89352156651413" lon="9.261316066746952"><ele>606.0</ele><time>2026-04-11T13:21:29Z</time></trkpt><trkpt lat="45.89332282772277" lon="9.26127495352425"><ele>599.0</ele><time>2026-04-11T13:21:30Z</time></trkpt><trkpt lat="45.89312271100509" lon="9.261202142468951"><ele>592.0</ele><time>2026-04-11T13:21:31Z</time></trkpt><trkpt lat="45.89291942695375" lon="9.26111946140568"><ele>585.0</ele><time>2026-04-11T13:21:32Z</time></trkpt><trkpt lat="45.89271097794642" lon="9.261034744561453"><ele>581.6666666666666</ele><time>2026-04-11T13:21:33Z</time></trkpt><trkpt lat="45.892500315718266" lon="9.260947361554358"><ele>578.3333333333333</ele><time>2026-04-11T13:21:34Z</time></trkpt><trkpt lat="45.892286941641274" lon="9.260861125521911"><ele>575.0</ele><time>2026-04-11T13:21:35Z</time></trkpt><trkpt lat="45.89207130099626" lon="9.260777291716629"><ele>575.0</ele><time>2026-04-11T13:21:36Z</time></trkpt><trkpt lat="45.891853096990594" lon="9.26068952067842"><ele>575.0</ele><time>2026-04-11T13:21:37Z</time></trkpt><trkpt lat="45.89163470100408" lon="9.260601284733703"><ele>576.0</ele><time>2026-04-11T13:21:38Z</time></trkpt><trkpt lat="45.891412480736236" lon="9.260522996713952"><ele>577.0</ele><time>2026-04-11T13:21:39Z</time></trkpt><trkpt lat="45.891180962392504" lon="9.260487693641519"><ele>577.0</ele><time>2026-04-11T13:21:40Z</time></trkpt><trkpt lat="45.89093786325352" lon="9.260480901290677"><ele>577.0</ele><time>2026-04-11T13:21:41Z</time></trkpt><trkpt lat="45.89068931117108" lon="9.26047983065351"><ele>573.5</ele><time>2026-04-11T13:21:42Z</time></trkpt><trkpt lat="45.89044279988666" lon="9.260474287836786"><ele>570.0</ele><time>2026-04-11T13:21:43Z</time></trkpt><trkpt lat="45.89020810182002" lon="9.260460197317935"><ele>568.0</ele><time>2026-04-11T13:21:44Z</time></trkpt><trkpt lat="45.88997746261639" lon="9.260444264529486"><ele>566.0</ele><time>2026-04-11T13:21:45Z</time></trkpt><trkpt lat="45.889749636802904" lon="9.260444650214897"><ele>566.0</ele><time>2026-04-11T13:21:46Z</time></trkpt><trkpt lat="45.88952497826172" lon="9.260484850100736"><ele>566.0</ele><time>2026-04-11T13:21:47Z</time></trkpt><trkpt lat="45.88930504068633" lon="9.26054865359216"><ele>563.6666666666666</ele><time>2026-04-11T13:21:48Z</time></trkpt><trkpt lat="45.88908911094378" lon="9.260618326825622"><ele>561.3333333333334</ele><time>2026-04-11T13:21:49Z</time></trkpt><trkpt lat="45.88888139973059" lon="9.260682620525044"><ele>559.0</ele><time>2026-04-11T13:21:50Z</time></trkpt><trkpt lat="45.888678157008314" lon="9.260738547110408"><ele>559.0</ele><time>2026-04-11T13:21:51Z</time></trkpt><trkpt lat="45.888482391694396" lon="9.260802724035049"><ele>559.0</ele><time>2026-04-11T13:21:52Z</time></trkpt><trkpt lat="45.88828918484236" lon="9.260893654604033"><ele>559.0</ele><time>2026-04-11T13:21:53Z</time></trkpt><trkpt lat="45.88809829654723" lon="9.261008691118654"><ele>558.6666666666667</ele><time>2026-04-11T13:21:54Z</time></trkpt><trkpt lat="45.88790401481756" lon="9.261124576299242"><ele>558.3333333333334</ele><time>2026-04-11T13:21:55Z</time></trkpt><trkpt lat="45.887705094107496" lon="9.261239873911398"><ele>558.0</ele><time>2026-04-11T13:21:56Z</time></trkpt><trkpt lat="45.887503628789" lon="9.261349384195647"><ele>556.3333333333334</ele><time>2026-04-11T13:21:57Z</time></trkpt><trkpt lat="45.887300274421044" lon="9.261462087424727"><ele>554.6666666666667</ele><time>2026-04-11T13:21:58Z</time></trkpt><trkpt lat="45.88709832781379" lon="9.261581110330937"><ele>553.0</ele><time>2026-04-11T13:21:59Z</time></trkpt><trkpt lat="45.88689430650477" lon="9.261699074793173"><ele>550.6666666666667</ele><time>2026-04-11T13:22:00Z</time></trkpt><trkpt lat="45.88669371032415" lon="9.261812991097607"><ele>548.3333333333334</ele><time>2026-04-11T13:22:01Z</time></trkpt><trkpt lat="45.88649600484227" lon="9.261922863639471"><ele>546.0</ele><time>2026-04-11T13:22:02Z</time></trkpt><trkpt lat="45.886299163217934" lon="9.262030893597847"><ele>546.0</ele><time>2026-04-11T13:22:03Z</time></trkpt><trkpt lat="45.88610418260953" lon="9.262140323120356"><ele>546.0</ele><time>2026-04-11T13:22:04Z</time></trkpt><trkpt lat="45.88591135793592" lon="9.262245040610573"><ele>546.0</ele><time>2026-04-11T13:22:05Z</time></trkpt><trkpt lat="45.8857206429419" lon="9.262350187335906"><ele>546.3333333333334</ele><time>2026-04-11T13:22:06Z</time></trkpt><trkpt lat="45.88553533250006" lon="9.262467276967248"><ele>546.6666666666667</ele><time>2026-04-11T13:22:07Z</time></trkpt><trkpt lat="45.88536673311741" lon="9.26261981821295"><ele>547.0</ele><time>2026-04-11T13:22:07.999Z</time></trkpt><trkpt lat="45.88522321445923" lon="9.2628120904591"><ele>547.0</ele><time>2026-04-11T13:22:08.999Z</time></trkpt><trkpt lat="45.88511327132344" lon="9.263037535514975"><ele>547.0</ele><time>2026-04-11T13:22:09.999Z</time></trkpt><trkpt lat="45.885021772606265" lon="9.263270397374407"><ele>547.0</ele><time>2026-04-11T13:22:10.999Z</time></trkpt><trkpt lat="45.884934414194056" lon="9.263486319676888"><ele>546.5</ele><time>2026-04-11T13:22:11.999Z</time></trkpt><trkpt lat="45.884845140888466" lon="9.263652625768536"><ele>546.0</ele><time>2026-04-11T13:22:12.999Z</time></trkpt><trkpt lat="45.884730458542364" lon="9.263767098165436"><ele>545.5</ele><time>2026-04-11T13:22:13.999Z</time></trkpt><trkpt lat="45.884591790271465" lon="9.263813191394076"><ele>545.0</ele><time>2026-04-11T13:22:14.999Z</time></trkpt><trkpt lat="45.88443450988787" lon="9.263799297023457"><ele>545.0</ele><time>2026-04-11T13:22:15.999Z</time></trkpt><trkpt lat="45.884265732082774" lon="9.263751876631542"><ele>545.0</ele><time>2026-04-11T13:22:16.999Z</time></trkpt><trkpt lat="45.88409828672631" lon="9.263706013026965"><ele>545.0</ele><time>2026-04-11T13:22:17.999Z</time></trkpt><trkpt lat="45.883939807522765" lon="9.26366699999599"><ele>544.75</ele><time>2026-04-11T13:22:18.999Z</time></trkpt><trkpt lat="45.8837892717301" lon="9.263629957588421"><ele>544.5</ele><time>2026-04-11T13:22:19.999Z</time></trkpt><trkpt lat="45.88364130336584" lon="9.263597248244269"><ele>544.25</ele><time>2026-04-11T13:22:20.999Z</time></trkpt><trkpt lat="45.88350136701468" lon="9.263562376651238"><ele>544.0</ele><time>2026-04-11T13:22:21.999Z</time></trkpt><trkpt lat="45.88336706261582" lon="9.26352516753666"><ele>542.5</ele><time>2026-04-11T13:22:22.999Z</time></trkpt><trkpt lat="45.88323645279763" lon="9.26348499843449"><ele>541.0</ele><time>2026-04-11T13:22:23.999Z</time></trkpt><trkpt lat="45.88310485014517" lon="9.2634455380417"><ele>539.5</ele><time>2026-04-11T13:22:24.999Z</time></trkpt><trkpt lat="45.8829645887054" lon="9.263406771704656"><ele>538.0</ele><time>2026-04-11T13:22:25.999Z</time></trkpt><trkpt lat="45.88281737588173" lon="9.263362759748075"><ele>538.0</ele><time>2026-04-11T13:22:26.999Z</time></trkpt><trkpt lat="45.88266741110779" lon="9.263316658925875"><ele>538.0</ele><time>2026-04-11T13:22:27.999Z</time></trkpt><trkpt lat="45.88251600654307" lon="9.26327135356414"><ele>538.0</ele><time>2026-04-11T13:22:28.999Z</time></trkpt><trkpt lat="45.88236661671213" lon="9.263224873740363"><ele>539.3333333333334</ele><time>2026-04-11T13:22:29.999Z</time></trkpt><trkpt lat="45.882217982854414" lon="9.26317729765586"><ele>540.6666666666666</ele><time>2026-04-11T13:22:30.999Z</time></trkpt><trkpt lat="45.882067629609544" lon="9.263133373850978"><ele>542.0</ele><time>2026-04-11T13:22:31.999Z</time></trkpt><trkpt lat="45.881915672987475" lon="9.263089935520764"><ele>542.0</ele><time>2026-04-11T13:22:32.999Z</time></trkpt><trkpt lat="45.88176615410936" lon="9.263046241142835"><ele>542.0</ele><time>2026-04-11T13:22:33.999Z</time></trkpt><trkpt lat="45.88161547780123" lon="9.262999841230421"><ele>542.0</ele><time>2026-04-11T13:22:34.999Z</time></trkpt><trkpt lat="45.88146246365351" lon="9.262958645254612"><ele>543.6666666666666</ele><time>2026-04-11T13:22:35.999Z</time></trkpt><trkpt lat="45.88130686206586" lon="9.262915491835653"><ele>545.3333333333334</ele><time>2026-04-11T13:22:36.999Z</time></trkpt><trkpt lat="45.881150748993655" lon="9.26287230817642"><ele>547.0</ele><time>2026-04-11T13:22:37.999Z</time></trkpt><trkpt lat="45.88099395586642" lon="9.262827517717945"><ele>547.0</ele><time>2026-04-11T13:22:38.999Z</time></trkpt><trkpt lat="45.880837214838074" lon="9.26278407712142"><ele>547.0</ele><time>2026-04-11T13:22:39.999Z</time></trkpt><trkpt lat="45.880679962307575" lon="9.262743414801243"><ele>547.0</ele><time>2026-04-11T13:22:40.999Z</time></trkpt><trkpt lat="45.880522891962066" lon="9.262707680318147"><ele>547.0</ele><time>2026-04-11T13:22:41.999Z</time></trkpt><trkpt lat="45.88036475518399" lon="9.262670125299632"><ele>547.0</ele><time>2026-04-11T13:22:42.999Z</time></trkpt><trkpt lat="45.88020562065337" lon="9.262635809798718"><ele>547.0</ele><time>2026-04-11T13:22:43.999Z</time></trkpt><trkpt lat="45.88004610283596" lon="9.262607962653778"><ele>546.0</ele><time>2026-04-11T13:22:44.999Z</time></trkpt><trkpt lat="45.87988757424068" lon="9.262578565850042"><ele>545.0</ele><time>2026-04-11T13:22:45.999Z</time></trkpt><trkpt lat="45.87972864482216" lon="9.262549986328"><ele>544.0</ele><time>2026-04-11T13:22:46.999Z</time></trkpt><trkpt lat="45.8795692146449" lon="9.262519693796289"><ele>544.0</ele><time>2026-04-11T13:22:47.999Z</time></trkpt><trkpt lat="45.87941552835172" lon="9.262476789911553"><ele>544.0</ele><time>2026-04-11T13:22:48.999Z</time></trkpt><trkpt lat="45.87926563258254" lon="9.262419233329094"><ele>544.0</ele><time>2026-04-11T13:22:49.999Z</time></trkpt><trkpt lat="45.87912034182769" lon="9.262351726844607"><ele>549.3333333333334</ele><time>2026-04-11T13:22:50.999Z</time></trkpt><trkpt lat="45.87897243204116" lon="9.26228397697544"><ele>554.6666666666666</ele><time>2026-04-11T13:22:51.999Z</time></trkpt><trkpt lat="45.878818217634986" lon="9.262224589870224"><ele>560.0</ele><time>2026-04-11T13:22:52.999Z</time></trkpt><trkpt lat="45.87865963874908" lon="9.262177761602864"><ele>560.0</ele><time>2026-04-11T13:22:53.999Z</time></trkpt><trkpt lat="45.87849821450298" lon="9.262142825856568"><ele>560.0</ele><time>2026-04-11T13:22:54.999Z</time></trkpt><trkpt lat="45.87833299080593" lon="9.262113754567428"><ele>560.0</ele><time>2026-04-11T13:22:55.999Z</time></trkpt><trkpt lat="45.87816398769968" lon="9.26208866768808"><ele>555.0</ele><time>2026-04-11T13:22:56.999Z</time></trkpt><trkpt lat="45.87799265834567" lon="9.26206967226564"><ele>550.0</ele><time>2026-04-11T13:22:57.999Z</time></trkpt><trkpt lat="45.87781917259824" lon="9.262042373487228"><ele>545.0</ele><time>2026-04-11T13:22:58.999Z</time></trkpt><trkpt lat="45.87765342221039" lon="9.262018081734587"><ele>541.6666666666666</ele><time>2026-04-11T13:22:59.999Z</time></trkpt><trkpt lat="45.87748992387951" lon="9.261998160742335"><ele>538.3333333333334</ele><time>2026-04-11T13:23:00.999Z</time></trkpt><trkpt lat="45.87732606382699" lon="9.261978931236442"><ele>535.0</ele><time>2026-04-11T13:23:01.999Z</time></trkpt><trkpt lat="45.877160026557256" lon="9.26195571660834"><ele>535.0</ele><time>2026-04-11T13:23:02.999Z</time></trkpt><trkpt lat="45.87699321750887" lon="9.261911599215349"><ele>535.0</ele><time>2026-04-11T13:23:03.999Z</time></trkpt><trkpt lat="45.876824043105984" lon="9.26184351646182"><ele>535.0</ele><time>2026-04-11T13:23:04.999Z</time></trkpt><trkpt lat="45.8766556761162" lon="9.261749094889018"><ele>539.0</ele><time>2026-04-11T13:23:05.999Z</time></trkpt><trkpt lat="45.87648633097272" lon="9.261643030042846"><ele>543.0</ele><time>2026-04-11T13:23:06.999Z</time></trkpt><trkpt lat="45.87631501086792" lon="9.261534456601012"><ele>547.0</ele><time>2026-04-11T13:23:07.999Z</time></trkpt><trkpt lat="45.87613992419605" lon="9.261426691468689"><ele>547.0</ele><time>2026-04-11T13:23:08.999Z</time></trkpt><trkpt lat="45.87596107239089" lon="9.261320693707514"><ele>547.0</ele><time>2026-04-11T13:23:09.999Z</time></trkpt><trkpt lat="45.8757821347405" lon="9.261210882620086"><ele>547.0</ele><time>2026-04-11T13:23:10.999Z</time></trkpt><trkpt lat="45.8756050901488" lon="9.261098011389919"><ele>540.0</ele><time>2026-04-11T13:23:11.999Z</time></trkpt><trkpt lat="45.87543225879955" lon="9.260989876952713"><ele>533.0</ele><time>2026-04-11T13:23:12.999Z</time></trkpt><trkpt lat="45.87526794016463" lon="9.260886148406271"><ele>526.0</ele><time>2026-04-11T13:23:13.999Z</time></trkpt><trkpt lat="45.87511239025104" lon="9.260789849836941"><ele>521.3333333333334</ele><time>2026-04-11T13:23:14.999Z</time></trkpt><trkpt lat="45.874961423923196" lon="9.260721745709853"><ele>516.6666666666666</ele><time>2026-04-11T13:23:16Z</time></trkpt><trkpt lat="45.87481612042418" lon="9.260733845450442"><ele>512.0</ele><time>2026-04-11T13:23:17Z</time></trkpt><trkpt lat="45.87468273617557" lon="9.260823453227605"><ele>512.0</ele><time>2026-04-11T13:23:18Z</time></trkpt><trkpt lat="45.874547822309474" lon="9.260949802953744"><ele>512.0</ele><time>2026-04-11T13:23:19Z</time></trkpt><trkpt lat="45.874402039955534" lon="9.26103758551876"><ele>512.0</ele><time>2026-04-11T13:23:20Z</time></trkpt><trkpt lat="45.87426252712571" lon="9.261092034691497"><ele>512.5</ele><time>2026-04-11T13:23:21Z</time></trkpt><trkpt lat="45.8741276481941" lon="9.261130512176196"><ele>513.0</ele><time>2026-04-11T13:23:22Z</time></trkpt><trkpt lat="45.8739972217674" lon="9.261172449306027"><ele>513.5</ele><time>2026-04-11T13:23:23Z</time></trkpt><trkpt lat="45.87386344760653" lon="9.261167434200566"><ele>514.0</ele><time>2026-04-11T13:23:24Z</time></trkpt><trkpt lat="45.87373070401851" lon="9.261095628926327"><ele>514.0</ele><time>2026-04-11T13:23:25Z</time></trkpt><trkpt lat="45.873604484652695" lon="9.261012548358492"><ele>514.0</ele><time>2026-04-11T13:23:26Z</time></trkpt><trkpt lat="45.87348400843902" lon="9.26093744471535"><ele>514.0</ele><time>2026-04-11T13:23:27Z</time></trkpt><trkpt lat="45.87337110819109" lon="9.260872660480231"><ele>514.0</ele><time>2026-04-11T13:23:28Z</time></trkpt><trkpt lat="45.873266376369614" lon="9.260842345387765"><ele>514.5</ele><time>2026-04-11T13:23:29Z</time></trkpt><trkpt lat="45.873166656186235" lon="9.260842297469546"><ele>515.0</ele><time>2026-04-11T13:23:30Z</time></trkpt><trkpt lat="45.87307480962577" lon="9.260845667511086"><ele>515.5</ele><time>2026-04-11T13:23:31Z</time></trkpt><trkpt lat="45.872999819099846" lon="9.260819134967491"><ele>516.0</ele><time>2026-04-11T13:23:32Z</time></trkpt><trkpt lat="45.87297912380556" lon="9.260554647805174"><ele>516.0</ele><time>2026-04-11T13:23:34Z</time></trkpt><trkpt lat="45.87303710266127" lon="9.260435809031971"><ele>516.0</ele><time>2026-04-11T13:23:35Z</time></trkpt><trkpt lat="45.87308255931326" lon="9.260292845773046"><ele>516.0</ele><time>2026-04-11T13:23:36Z</time></trkpt><trkpt lat="45.87307879853053" lon="9.260106202176269"><ele>516.0</ele><time>2026-04-11T13:23:37Z</time></trkpt><trkpt lat="45.87300328634451" lon="9.259964607026928"><ele>516.0</ele><time>2026-04-11T13:23:38Z</time></trkpt><trkpt lat="45.87292262206879" lon="9.259833409954263"><ele>516.0</ele><time>2026-04-11T13:23:39Z</time></trkpt><trkpt lat="45.87277963737538" lon="9.25976863688036"><ele>516.0</ele><time>2026-04-11T13:23:40Z</time></trkpt><trkpt lat="45.872616908294866" lon="9.259729584999965"><ele>516.0</ele><time>2026-04-11T13:23:41Z</time></trkpt><trkpt lat="45.87245998475333" lon="9.259686207672297"><ele>511.66666666666663</ele><time>2026-04-11T13:23:42Z</time></trkpt><trkpt lat="45.8723008982376" lon="9.259671183769559"><ele>507.3333333333333</ele><time>2026-04-11T13:23:43Z</time></trkpt><trkpt lat="45.87214027205336" lon="9.259729327112348"><ele>503.0</ele><time>2026-04-11T13:23:44Z</time></trkpt><trkpt lat="45.871985073130745" lon="9.2598713144502"><ele>503.0</ele><time>2026-04-11T13:23:45Z</time></trkpt><trkpt lat="45.87181569265805" lon="9.26003395226014"><ele>503.0</ele><time>2026-04-11T13:23:46Z</time></trkpt><trkpt lat="45.871635512787925" lon="9.260176580397962"><ele>503.0</ele><time>2026-04-11T13:23:47Z</time></trkpt><trkpt lat="45.87146113886229" lon="9.260302271228504"><ele>502.0</ele><time>2026-04-11T13:23:48Z</time></trkpt><trkpt lat="45.87129930066443" lon="9.260429664588166"><ele>501.0</ele><time>2026-04-11T13:23:49Z</time></trkpt><trkpt lat="45.87115634367628" lon="9.260564105124269"><ele>500.0</ele><time>2026-04-11T13:23:50Z</time></trkpt><trkpt lat="45.8710517089935" lon="9.260725853347873"><ele>500.0</ele><time>2026-04-11T13:23:51Z</time></trkpt><trkpt lat="45.87094631112789" lon="9.260876156618673"><ele>500.0</ele><time>2026-04-11T13:23:52Z</time></trkpt><trkpt lat="45.87081403577768" lon="9.260983379440107"><ele>500.0</ele><time>2026-04-11T13:23:53Z</time></trkpt><trkpt lat="45.87065518681847" lon="9.2610121091347"><ele>509.0</ele><time>2026-04-11T13:23:54Z</time></trkpt><trkpt lat="45.87049024482612" lon="9.26096860882664"><ele>518.0</ele><time>2026-04-11T13:23:55Z</time></trkpt><trkpt lat="45.87032330834089" lon="9.26088029112326"><ele>527.0</ele><time>2026-04-11T13:23:56Z</time></trkpt><trkpt lat="45.87017244847278" lon="9.260819079681438"><ele>526.75</ele><time>2026-04-11T13:23:57Z</time></trkpt><trkpt lat="45.87002213675473" lon="9.26076862671893"><ele>526.5</ele><time>2026-04-11T13:23:58Z</time></trkpt><trkpt lat="45.86988163110028" lon="9.260727331051763"><ele>526.25</ele><time>2026-04-11T13:23:59Z</time></trkpt><trkpt lat="45.86974003994224" lon="9.260667941761309"><ele>526.0</ele><time>2026-04-11T13:24:00Z</time></trkpt><trkpt lat="45.86964216532791" lon="9.260560533203687"><ele>527.25</ele><time>2026-04-11T13:24:01Z</time></trkpt><trkpt lat="45.86953691444058" lon="9.260426685464415"><ele>528.5</ele><time>2026-04-11T13:24:02Z</time></trkpt><trkpt lat="45.8694336095886" lon="9.260296156226133"><ele>529.75</ele><time>2026-04-11T13:24:03Z</time></trkpt><trkpt lat="45.86931867943105" lon="9.260150938007039"><ele>531.0</ele><time>2026-04-11T13:24:04Z</time></trkpt><trkpt lat="45.86921123052524" lon="9.26001517261107"><ele>531.0</ele><time>2026-04-11T13:24:05Z</time></trkpt><trkpt lat="45.8691051696532" lon="9.25988246399325"><ele>531.0</ele><time>2026-04-11T13:24:06Z</time></trkpt><trkpt lat="45.86899361057236" lon="9.259773666429059"><ele>531.0</ele><time>2026-04-11T13:24:07Z</time></trkpt><trkpt lat="45.868907316211725" lon="9.259638600929327"><ele>531.0</ele><time>2026-04-11T13:24:08Z</time></trkpt><trkpt lat="45.86884911037833" lon="9.259481883736974"><ele>533.5</ele><time>2026-04-11T13:24:08.999Z</time></trkpt><trkpt lat="45.86881286273006" lon="9.259297288994954"><ele>536.0</ele><time>2026-04-11T13:24:09.999Z</time></trkpt><trkpt lat="45.868811292434486" lon="9.259097383201345"><ele>538.5</ele><time>2026-04-11T13:24:10.999Z</time></trkpt><trkpt lat="45.86884334585479" lon="9.2588952943232"><ele>541.0</ele><time>2026-04-11T13:24:11.999Z</time></trkpt><trkpt lat="45.868921733315496" lon="9.258708074863458"><ele>541.0</ele><time>2026-04-11T13:24:12.999Z</time></trkpt><trkpt lat="45.86902139471508" lon="9.258528453168996"><ele>541.0</ele><time>2026-04-11T13:24:13.999Z</time></trkpt><trkpt lat="45.86912849198222" lon="9.258335129211106"><ele>541.0</ele><time>2026-04-11T13:24:14.999Z</time></trkpt><trkpt lat="45.86923125743757" lon="9.258143110213851"><ele>549.0</ele><time>2026-04-11T13:24:15.999Z</time></trkpt><trkpt lat="45.86932311916619" lon="9.257953448718785"><ele>557.0</ele><time>2026-04-11T13:24:16.999Z</time></trkpt><trkpt lat="45.86939515023552" lon="9.257747342501208"><ele>565.0</ele><time>2026-04-11T13:24:17.999Z</time></trkpt><trkpt lat="45.869441572870485" lon="9.257532605107011"><ele>565.0</ele><time>2026-04-11T13:24:18.999Z</time></trkpt><trkpt lat="45.86949030643301" lon="9.25733785015908"><ele>565.0</ele><time>2026-04-11T13:24:19.999Z</time></trkpt><trkpt lat="45.869554622291" lon="9.257175555191198"><ele>565.0</ele><time>2026-04-11T13:24:20.999Z</time></trkpt><trkpt lat="45.869617488299234" lon="9.257027971963204"><ele>565.0</ele><time>2026-04-11T13:24:21.999Z</time></trkpt><trkpt lat="45.869674331317455" lon="9.25687416724572"><ele>565.6666666666667</ele><time>2026-04-11T13:24:22.999Z</time></trkpt><trkpt lat="45.86971909732926" lon="9.256663798054845"><ele>566.3333333333334</ele><time>2026-04-11T13:24:23.999Z</time></trkpt><trkpt lat="45.86975382487019" lon="9.256417366354896"><ele>567.0</ele><time>2026-04-11T13:24:24.999Z</time></trkpt><trkpt lat="45.86977593082408" lon="9.256172217215854"><ele>566.75</ele><time>2026-04-11T13:24:25.999Z</time></trkpt><trkpt lat="45.8697839824602" lon="9.255934311914572"><ele>566.5</ele><time>2026-04-11T13:24:26.999Z</time></trkpt><trkpt lat="45.86978997401053" lon="9.255725209654326"><ele>566.25</ele><time>2026-04-11T13:24:27.999Z</time></trkpt><trkpt lat="45.869799398590246" lon="9.25554344335408"><ele>566.0</ele><time>2026-04-11T13:24:28.999Z</time></trkpt><trkpt lat="45.86982927841396" lon="9.255352114303202"><ele>566.0</ele><time>2026-04-11T13:24:29.999Z</time></trkpt><trkpt lat="45.869864059353546" lon="9.255170544831872"><ele>566.0</ele><time>2026-04-11T13:24:30.999Z</time></trkpt><trkpt lat="45.86989846438324" lon="9.25498401366343"><ele>566.0</ele><time>2026-04-11T13:24:31.999Z</time></trkpt><trkpt lat="45.869962651022206" lon="9.254823490064977"><ele>566.0</ele><time>2026-04-11T13:24:32.999Z</time></trkpt><trkpt lat="45.870062331601574" lon="9.254699266884616"><ele>575.0</ele><time>2026-04-11T13:24:33.999Z</time></trkpt><trkpt lat="45.87016626369071" lon="9.254568615552387"><ele>584.0</ele><time>2026-04-11T13:24:34.999Z</time></trkpt><trkpt lat="45.87025149131929" lon="9.254403688934579"><ele>593.0</ele><time>2026-04-11T13:24:35.999Z</time></trkpt><trkpt lat="45.8703269539536" lon="9.254217641643118"><ele>602.0</ele><time>2026-04-11T13:24:36.999Z</time></trkpt><trkpt lat="45.87038606034924" lon="9.254012861696795"><ele>601.3333333333333</ele><time>2026-04-11T13:24:37.999Z</time></trkpt><trkpt lat="45.87042786278437" lon="9.253792090316804"><ele>600.6666666666666</ele><time>2026-04-11T13:24:38.999Z</time></trkpt><trkpt lat="45.87046364762929" lon="9.25356177891617"><ele>600.0</ele><time>2026-04-11T13:24:39.999Z</time></trkpt><trkpt lat="45.87049993594949" lon="9.253325395681305"><ele>600.6666666666666</ele><time>2026-04-11T13:24:40.999Z</time></trkpt><trkpt lat="45.87053062296631" lon="9.253089644903987"><ele>601.3333333333333</ele><time>2026-04-11T13:24:41.999Z</time></trkpt><trkpt lat="45.870553460966306" lon="9.252862223832674"><ele>602.0</ele><time>2026-04-11T13:24:42.999Z</time></trkpt><trkpt lat="45.87057544351151" lon="9.252641385601303"><ele>602.0</ele><time>2026-04-11T13:24:43.999Z</time></trkpt><trkpt lat="45.87061366178188" lon="9.252435297971086"><ele>602.0</ele><time>2026-04-11T13:24:44.999Z</time></trkpt><trkpt lat="45.87067932078748" lon="9.252255068206628"><ele>602.0</ele><time>2026-04-11T13:24:45.999Z</time></trkpt><trkpt lat="45.87073251596585" lon="9.252083019265191"><ele>602.0</ele><time>2026-04-11T13:24:46.999Z</time></trkpt><trkpt lat="45.87074563049" lon="9.251921276034507"><ele>603.25</ele><time>2026-04-11T13:24:47.999Z</time></trkpt><trkpt lat="45.870705348418234" lon="9.251755060554327"><ele>604.5</ele><time>2026-04-11T13:24:48.999Z</time></trkpt><trkpt lat="45.870637754877336" lon="9.251594954132353"><ele>605.75</ele><time>2026-04-11T13:24:49.999Z</time></trkpt><trkpt lat="45.87057660017651" lon="9.251440100354131"><ele>607.0</ele><time>2026-04-11T13:24:50.999Z</time></trkpt><trkpt lat="45.870543738222985" lon="9.251286998454729"><ele>608.8000000000001</ele><time>2026-04-11T13:24:51.999Z</time></trkpt><trkpt lat="45.87050649600218" lon="9.251137663314825"><ele>610.6</ele><time>2026-04-11T13:24:52.999Z</time></trkpt><trkpt lat="45.870426786801886" lon="9.251035953036022"><ele>612.4000000000001</ele><time>2026-04-11T13:24:53.999Z</time></trkpt><trkpt lat="45.870327273093665" lon="9.25099832218945"><ele>614.2</ele><time>2026-04-11T13:24:54.999Z</time></trkpt><trkpt lat="45.87022120975442" lon="9.251024482876549"><ele>616.0</ele><time>2026-04-11T13:24:55.999Z</time></trkpt><trkpt lat="45.87012307870977" lon="9.251111495684837"><ele>616.0</ele><time>2026-04-11T13:24:56.999Z</time></trkpt><trkpt lat="45.870037270347346" lon="9.251245469073082"><ele>616.0</ele><time>2026-04-11T13:24:57.999Z</time></trkpt><trkpt lat="45.869955780395" lon="9.251395795887998"><ele>616.0</ele><time>2026-04-11T13:24:58.999Z</time></trkpt><trkpt lat="45.86986250978176" lon="9.251557613297782"><ele>616.0</ele><time>2026-04-11T13:24:59.999Z</time></trkpt><trkpt lat="45.86977895116121" lon="9.251723011340696"><ele>610.75</ele><time>2026-04-11T13:25:00.999Z</time></trkpt><trkpt lat="45.86972235030056" lon="9.251889430530628"><ele>605.5</ele><time>2026-04-11T13:25:01.999Z</time></trkpt><trkpt lat="45.869651963587124" lon="9.252038447173225"><ele>600.25</ele><time>2026-04-11T13:25:02.999Z</time></trkpt><trkpt lat="45.86956417347307" lon="9.252147436030784"><ele>595.0</ele><time>2026-04-11T13:25:03.999Z</time></trkpt><trkpt lat="45.86945531935065" lon="9.252217130266112"><ele>596.0</ele><time>2026-04-11T13:25:04.999Z</time></trkpt><trkpt lat="45.86934050756655" lon="9.252311376236326"><ele>597.0</ele><time>2026-04-11T13:25:05.999Z</time></trkpt><trkpt lat="45.869212768470966" lon="9.252370179526409"><ele>598.0</ele><time>2026-04-11T13:25:06.999Z</time></trkpt><trkpt lat="45.86911532371839" lon="9.252489467938684"><ele>599.0</ele><time>2026-04-11T13:25:07.999Z</time></trkpt><trkpt lat="45.86904396988691" lon="9.252621563983011"><ele>599.0</ele><time>2026-04-11T13:25:08.999Z</time></trkpt><trkpt lat="45.86898378801043" lon="9.252745103897965"><ele>599.0</ele><time>2026-04-11T13:25:09.999Z</time></trkpt><trkpt lat="45.86892922965387" lon="9.252847508680462"><ele>599.0</ele><time>2026-04-11T13:25:10.999Z</time></trkpt><trkpt lat="45.868870791174665" lon="9.25288924180395"><ele>599.0</ele><time>2026-04-11T13:25:11.999Z</time></trkpt><trkpt lat="45.86880482689297" lon="9.252875359199464"><ele>599.0</ele><time>2026-04-11T13:25:12.999Z</time></trkpt><trkpt lat="45.868758172110915" lon="9.25275918003154"><ele>599.0</ele><time>2026-04-11T13:25:13.999Z</time></trkpt><trkpt lat="45.86873165801642" lon="9.252596961941398"><ele>599.0</ele><time>2026-04-11T13:25:14.999Z</time></trkpt><trkpt lat="45.86869696116315" lon="9.252418823966513"><ele>599.0</ele><time>2026-04-11T13:25:15.999Z</time></trkpt><trkpt lat="45.86866996465049" lon="9.25224427384048"><ele>599.0</ele><time>2026-04-11T13:25:16.999Z</time></trkpt><trkpt lat="45.868663028869776" lon="9.252042179297954"><ele>599.0</ele><time>2026-04-11T13:25:17.999Z</time></trkpt><trkpt lat="45.86868346246719" lon="9.251841914537321"><ele>601.25</ele><time>2026-04-11T13:25:18.999Z</time></trkpt><trkpt lat="45.86869284618369" lon="9.251644579322416"><ele>603.5</ele><time>2026-04-11T13:25:19.999Z</time></trkpt><trkpt lat="45.868698833207304" lon="9.251461347309457"><ele>605.75</ele><time>2026-04-11T13:25:20.999Z</time></trkpt><trkpt lat="45.86868846150398" lon="9.25129254167075"><ele>608.0</ele><time>2026-04-11T13:25:22Z</time></trkpt><trkpt lat="45.86864258257" lon="9.251150724355956"><ele>610.4</ele><time>2026-04-11T13:25:23Z</time></trkpt><trkpt lat="45.86856037747893" lon="9.251062025960247"><ele>612.8</ele><time>2026-04-11T13:25:24Z</time></trkpt><trkpt lat="45.86845548240585" lon="9.25104955015396"><ele>615.2</ele><time>2026-04-11T13:25:25Z</time></trkpt><trkpt lat="45.868357712987724" lon="9.251062110657918"><ele>617.6</ele><time>2026-04-11T13:25:26Z</time></trkpt><trkpt lat="45.868301456110295" lon="9.251137143390379"><ele>620.0</ele><time>2026-04-11T13:25:28Z</time></trkpt><trkpt lat="45.868256058681986" lon="9.251267161179758"><ele>620.0</ele><time>2026-04-11T13:25:29Z</time></trkpt><trkpt lat="45.8682195290098" lon="9.251410762277315"><ele>620.0</ele><time>2026-04-11T13:25:30Z</time></trkpt><trkpt lat="45.868162864907774" lon="9.251524953433492"><ele>620.0</ele><time>2026-04-11T13:25:31Z</time></trkpt><trkpt lat="45.86808963461454" lon="9.25162186601841"><ele>620.0</ele><time>2026-04-11T13:25:32Z</time></trkpt><trkpt lat="45.86794853133752" lon="9.251675251210132"><ele>618.75</ele><time>2026-04-11T13:25:33Z</time></trkpt><trkpt lat="45.86781340170848" lon="9.2516163144103"><ele>617.5</ele><time>2026-04-11T13:25:34Z</time></trkpt><trkpt lat="45.867691619694504" lon="9.251565313601997"><ele>616.25</ele><time>2026-04-11T13:25:35Z</time></trkpt><trkpt lat="45.86756306708912" lon="9.251511477357068"><ele>615.0</ele><time>2026-04-11T13:25:36Z</time></trkpt><trkpt lat="45.86744005501268" lon="9.251462226711118"><ele>618.25</ele><time>2026-04-11T13:25:37Z</time></trkpt><trkpt lat="45.86731770585891" lon="9.251414861272494"><ele>621.5</ele><time>2026-04-11T13:25:38Z</time></trkpt><trkpt lat="45.86719097090161" lon="9.251365797940329"><ele>624.75</ele><time>2026-04-11T13:25:39Z</time></trkpt><trkpt lat="45.86706362833021" lon="9.251316409621548"><ele>628.0</ele><time>2026-04-11T13:25:40Z</time></trkpt><trkpt lat="45.86694347979571" lon="9.251268020462161"><ele>628.0</ele><time>2026-04-11T13:25:41Z</time></trkpt><trkpt lat="45.86682043197911" lon="9.25120902099532"><ele>628.0</ele><time>2026-04-11T13:25:42Z</time></trkpt><trkpt lat="45.866702951407284" lon="9.251132263032373"><ele>628.0</ele><time>2026-04-11T13:25:43Z</time></trkpt><trkpt lat="45.86659445419621" lon="9.251040559190198"><ele>628.0</ele><time>2026-04-11T13:25:44Z</time></trkpt><trkpt lat="45.866490211991916" lon="9.250948115613019"><ele>628.4</ele><time>2026-04-11T13:25:45Z</time></trkpt><trkpt lat="45.866388597500105" lon="9.250856448760688"><ele>628.8</ele><time>2026-04-11T13:25:46Z</time></trkpt><trkpt lat="45.8662895547992" lon="9.250765999559306"><ele>629.2</ele><time>2026-04-11T13:25:47Z</time></trkpt><trkpt lat="45.86617992122865" lon="9.250712123084817"><ele>629.6</ele><time>2026-04-11T13:25:48Z</time></trkpt><trkpt lat="45.86610789152459" lon="9.250635207357307"><ele>630.0</ele><time>2026-04-11T13:25:49Z</time></trkpt><trkpt lat="45.86609229633542" lon="9.250474712511396"><ele>632.0</ele><time>2026-04-11T13:25:51Z</time></trkpt><trkpt lat="45.86615973453416" lon="9.250425934159525"><ele>634.0</ele><time>2026-04-11T13:25:52Z</time></trkpt><trkpt lat="45.866236889694434" lon="9.250510196919349"><ele>636.0</ele><time>2026-04-11T13:25:53Z</time></trkpt><trkpt lat="45.86631744409111" lon="9.250545899983798"><ele>638.0</ele><time>2026-04-11T13:25:54Z</time></trkpt><trkpt lat="45.866408590087865" lon="9.250563533699035"><ele>640.0</ele><time>2026-04-11T13:25:55Z</time></trkpt><trkpt lat="45.86650831775318" lon="9.25056222749261"><ele>642.0</ele><time>2026-04-11T13:25:56Z</time></trkpt><trkpt lat="45.86662330056757" lon="9.250539164458393"><ele>642.0</ele><time>2026-04-11T13:25:57Z</time></trkpt><trkpt lat="45.866716904753524" lon="9.250522272767125"><ele>642.0</ele><time>2026-04-11T13:25:58Z</time></trkpt><trkpt lat="45.86678581244831" lon="9.250506807494439"><ele>642.0</ele><time>2026-04-11T13:25:59Z</time></trkpt><trkpt lat="45.86688826659962" lon="9.250415918281917"><ele>642.0</ele><time>2026-04-11T13:26:00Z</time></trkpt><trkpt lat="45.86698525417959" lon="9.250362073553992"><ele>642.0</ele><time>2026-04-11T13:26:01Z</time></trkpt><trkpt lat="45.867073234143966" lon="9.250289203692983"><ele>641.0</ele><time>2026-04-11T13:26:02Z</time></trkpt><trkpt lat="45.86717490836751" lon="9.250215870466223"><ele>640.0</ele><time>2026-04-11T13:26:03Z</time></trkpt><trkpt lat="45.86726875861411" lon="9.250135489207162"><ele>639.0</ele><time>2026-04-11T13:26:04Z</time></trkpt><trkpt lat="45.86736624194777" lon="9.250047860853831"><ele>638.0</ele><time>2026-04-11T13:26:05Z</time></trkpt><trkpt lat="45.86746509913268" lon="9.249955574525758"><ele>638.0</ele><time>2026-04-11T13:26:06Z</time></trkpt><trkpt lat="45.867562631093044" lon="9.24987900759068"><ele>638.0</ele><time>2026-04-11T13:26:07Z</time></trkpt><trkpt lat="45.867665833293096" lon="9.249792742134334"><ele>638.0</ele><time>2026-04-11T13:26:08Z</time></trkpt><trkpt lat="45.867769271548056" lon="9.249704940171055"><ele>638.0</ele><time>2026-04-11T13:26:09Z</time></trkpt><trkpt lat="45.86787105669954" lon="9.249621277352718"><ele>640.0</ele><time>2026-04-11T13:26:10Z</time></trkpt><trkpt lat="45.86796822439217" lon="9.249546641261452"><ele>642.0</ele><time>2026-04-11T13:26:10.999Z</time></trkpt><trkpt lat="45.86805413172507" lon="9.24947656757688"><ele>644.0</ele><time>2026-04-11T13:26:11.999Z</time></trkpt><trkpt lat="45.86812619673649" lon="9.249418171364955"><ele>646.0</ele><time>2026-04-11T13:26:12.999Z</time></trkpt><trkpt lat="45.8681801779242" lon="9.249337904482017"><ele>648.0</ele><time>2026-04-11T13:26:13.999Z</time></trkpt><trkpt lat="45.86819148405714" lon="9.249232009528715"><ele>650.0</ele><time>2026-04-11T13:26:14.999Z</time></trkpt><trkpt lat="45.868130805678" lon="9.24913738956969"><ele>650.0</ele><time>2026-04-11T13:26:15.999Z</time></trkpt><trkpt lat="45.86806451506519" lon="9.24907716627183"><ele>650.0</ele><time>2026-04-11T13:26:16.999Z</time></trkpt><trkpt lat="45.86794840598927" lon="9.249077120449595"><ele>650.0</ele><time>2026-04-11T13:26:17.999Z</time></trkpt><trkpt lat="45.86782335716512" lon="9.249098856681798"><ele>650.0</ele><time>2026-04-11T13:26:18.999Z</time></trkpt><trkpt lat="45.86768786075645" lon="9.249129276952724"><ele>650.2</ele><time>2026-04-11T13:26:19.999Z</time></trkpt><trkpt lat="45.867526553707286" lon="9.249174609589703"><ele>650.4</ele><time>2026-04-11T13:26:20.999Z</time></trkpt><trkpt lat="45.867430920518395" lon="9.249182782953856"><ele>650.5999999999999</ele><time>2026-04-11T13:26:21.999Z</time></trkpt><trkpt lat="45.86734966725376" lon="9.249169762917646"><ele>650.8</ele><time>2026-04-11T13:26:22.999Z</time></trkpt><trkpt lat="45.86726210708644" lon="9.249110220051255"><ele>651.0</ele><time>2026-04-11T13:26:24.999Z</time></trkpt><trkpt lat="45.86735113601141" lon="9.24895573574972"><ele>653.0</ele><time>2026-04-11T13:26:26.999Z</time></trkpt><trkpt lat="45.867441084584996" lon="9.248929976139253"><ele>655.0</ele><time>2026-04-11T13:26:27.999Z</time></trkpt><trkpt lat="45.867532925801534" lon="9.24888378599192"><ele>657.0</ele><time>2026-04-11T13:26:28.999Z</time></trkpt><trkpt lat="45.86762452210368" lon="9.248830371198686"><ele>659.0</ele><time>2026-04-11T13:26:29.999Z</time></trkpt><trkpt lat="45.867722482342074" lon="9.248767299783056"><ele>661.0</ele><time>2026-04-11T13:26:30.999Z</time></trkpt><trkpt lat="45.86781783211108" lon="9.248701189629504"><ele>661.0</ele><time>2026-04-11T13:26:31.999Z</time></trkpt><trkpt lat="45.86790073085121" lon="9.248636375501924"><ele>661.0</ele><time>2026-04-11T13:26:32.999Z</time></trkpt><trkpt lat="45.86799209384626" lon="9.2485631319813"><ele>661.0</ele><time>2026-04-11T13:26:33.999Z</time></trkpt><trkpt lat="45.86806137493363" lon="9.248455729987871"><ele>661.0</ele><time>2026-04-11T13:26:34.999Z</time></trkpt><trkpt lat="45.86812306748066" lon="9.248327132505857"><ele>661.0</ele><time>2026-04-11T13:26:35.999Z</time></trkpt><trkpt lat="45.86817545991958" lon="9.248193362145736"><ele>662.5999999999999</ele><time>2026-04-11T13:26:36.999Z</time></trkpt><trkpt lat="45.86823605559719" lon="9.248068275938696"><ele>664.2</ele><time>2026-04-11T13:26:37.999Z</time></trkpt><trkpt lat="45.8683041170173" lon="9.247949882124255"><ele>665.8</ele><time>2026-04-11T13:26:38.999Z</time></trkpt><trkpt lat="45.86837389357936" lon="9.247836001023899"><ele>667.4000000000001</ele><time>2026-04-11T13:26:39.999Z</time></trkpt><trkpt lat="45.86845490924085" lon="9.24773031996071"><ele>669.0</ele><time>2026-04-11T13:26:40.999Z</time></trkpt><trkpt lat="45.8685416576544" lon="9.247628521905606"><ele>669.0</ele><time>2026-04-11T13:26:41.999Z</time></trkpt><trkpt lat="45.868623148526396" lon="9.247521329431896"><ele>669.0</ele><time>2026-04-11T13:26:42.999Z</time></trkpt><trkpt lat="45.86870582769607" lon="9.24741886038498"><ele>669.0</ele><time>2026-04-11T13:26:43.999Z</time></trkpt><trkpt lat="45.86878978597103" lon="9.247316668346564"><ele>669.0</ele><time>2026-04-11T13:26:44.999Z</time></trkpt><trkpt lat="45.868886806718685" lon="9.247238447589595"><ele>669.0</ele><time>2026-04-11T13:26:45.999Z</time></trkpt><trkpt lat="45.86899038286221" lon="9.247185430848885"><ele>670.6</ele><time>2026-04-11T13:26:46.999Z</time></trkpt><trkpt lat="45.8691011997214" lon="9.247160527841714"><ele>672.2</ele><time>2026-04-11T13:26:47.999Z</time></trkpt><trkpt lat="45.869211946459906" lon="9.247143793351167"><ele>673.8000000000001</ele><time>2026-04-11T13:26:48.999Z</time></trkpt><trkpt lat="45.869322838193156" lon="9.247122400266035"><ele>675.4000000000001</ele><time>2026-04-11T13:26:49.999Z</time></trkpt><trkpt lat="45.869426359454415" lon="9.247101134063408"><ele>677.0</ele><time>2026-04-11T13:26:50.999Z</time></trkpt><trkpt lat="45.86952394566253" lon="9.247102270086767"><ele>677.0</ele><time>2026-04-11T13:26:51.999Z</time></trkpt><trkpt lat="45.869615769241385" lon="9.24711771512649"><ele>677.0</ele><time>2026-04-11T13:26:52.999Z</time></trkpt><trkpt lat="45.869695495737766" lon="9.247133235085107"><ele>677.0</ele><time>2026-04-11T13:26:53.999Z</time></trkpt><trkpt lat="45.86976243548378" lon="9.247136159017131"><ele>677.0</ele><time>2026-04-11T13:26:54.999Z</time></trkpt><trkpt lat="45.86984779158799" lon="9.247069805126085"><ele>677.0</ele><time>2026-04-11T13:26:56.999Z</time></trkpt><trkpt lat="45.86984108645882" lon="9.246975091183012"><ele>677.0</ele><time>2026-04-11T13:26:58.999Z</time></trkpt><trkpt lat="45.86976288594204" lon="9.246878596143262"><ele>677.0</ele><time>2026-04-11T13:27:55Z</time></trkpt><trkpt lat="45.86966341177919" lon="9.246852311781785"><ele>677.0</ele><time>2026-04-11T13:27:56Z</time></trkpt><trkpt lat="45.869564035699206" lon="9.24684723698196"><ele>677.0</ele><time>2026-04-11T13:27:57Z</time></trkpt><trkpt lat="45.869455733857805" lon="9.246832690725292"><ele>677.0</ele><time>2026-04-11T13:27:58Z</time></trkpt><trkpt lat="45.86934040440012" lon="9.246814898463407"><ele>677.0</ele><time>2026-04-11T13:27:59Z</time></trkpt><trkpt lat="45.869224720814316" lon="9.246755214756057"><ele>678.0</ele><time>2026-04-11T13:28:00Z</time></trkpt><trkpt lat="45.869097401600456" lon="9.24673072975022"><ele>679.0</ele><time>2026-04-11T13:28:01Z</time></trkpt><trkpt lat="45.868967912777855" lon="9.246679495677206"><ele>680.0</ele><time>2026-04-11T13:28:02Z</time></trkpt><trkpt lat="45.86883537711651" lon="9.246631867347942"><ele>681.0</ele><time>2026-04-11T13:28:03Z</time></trkpt><trkpt lat="45.86869952895216" lon="9.246586995455278"><ele>681.0</ele><time>2026-04-11T13:28:04Z</time></trkpt><trkpt lat="45.868566976075" lon="9.2465428243198"><ele>681.0</ele><time>2026-04-11T13:28:05Z</time></trkpt><trkpt lat="45.86843769272302" lon="9.246500167349"><ele>681.0</ele><time>2026-04-11T13:28:06Z</time></trkpt><trkpt lat="45.86830854762243" lon="9.24646311294052"><ele>681.0</ele><time>2026-04-11T13:28:07Z</time></trkpt><trkpt lat="45.86817811904153" lon="9.246459565192804"><ele>681.5</ele><time>2026-04-11T13:28:08Z</time></trkpt><trkpt lat="45.868050117066524" lon="9.246493409843099"><ele>682.0</ele><time>2026-04-11T13:28:09Z</time></trkpt><trkpt lat="45.86792550955554" lon="9.24657183412926"><ele>682.5</ele><time>2026-04-11T13:28:10Z</time></trkpt><trkpt lat="45.86781026012531" lon="9.24667499397675"><ele>683.0</ele><time>2026-04-11T13:28:11Z</time></trkpt><trkpt lat="45.86769772709246" lon="9.246776229004917"><ele>686.25</ele><time>2026-04-11T13:28:11.999Z</time></trkpt><trkpt lat="45.867587580425585" lon="9.246863250970069"><ele>689.5</ele><time>2026-04-11T13:28:12.999Z</time></trkpt><trkpt lat="45.86747323173795" lon="9.246945671937981"><ele>692.75</ele><time>2026-04-11T13:28:13.999Z</time></trkpt><trkpt lat="45.867355304980336" lon="9.247023776486133"><ele>696.0</ele><time>2026-04-11T13:28:14.999Z</time></trkpt><trkpt lat="45.867233494367355" lon="9.247070485954355"><ele>696.0</ele><time>2026-04-11T13:28:15.999Z</time></trkpt><trkpt lat="45.867108464259054" lon="9.247040115646113"><ele>696.0</ele><time>2026-04-11T13:28:16.999Z</time></trkpt><trkpt lat="45.866990971429296" lon="9.246985382557009"><ele>696.0</ele><time>2026-04-11T13:28:17.999Z</time></trkpt><trkpt lat="45.86688635403544" lon="9.246895625971971"><ele>696.0</ele><time>2026-04-11T13:28:18.999Z</time></trkpt><trkpt lat="45.866786631609266" lon="9.246785713284362"><ele>696.25</ele><time>2026-04-11T13:28:19.999Z</time></trkpt><trkpt lat="45.86671030980595" lon="9.246631897246152"><ele>696.5</ele><time>2026-04-11T13:28:20.999Z</time></trkpt><trkpt lat="45.86663405727395" lon="9.246476709578054"><ele>696.75</ele><time>2026-04-11T13:28:21.999Z</time></trkpt><trkpt lat="45.8665547114556" lon="9.246327554820343"><ele>697.0</ele><time>2026-04-11T13:28:22.999Z</time></trkpt><trkpt lat="45.86647372986509" lon="9.246179573727991"><ele>700.25</ele><time>2026-04-11T13:28:23.999Z</time></trkpt><trkpt lat="45.866393673862184" lon="9.246028385426925"><ele>703.5</ele><time>2026-04-11T13:28:24.999Z</time></trkpt><trkpt lat="45.86631519536407" lon="9.245875538558574"><ele>706.75</ele><time>2026-04-11T13:28:25.999Z</time></trkpt><trkpt lat="45.86623607285846" lon="9.245720342934439"><ele>710.0</ele><time>2026-04-11T13:28:26.999Z</time></trkpt><trkpt lat="45.86615585633336" lon="9.245565449777347"><ele>709.75</ele><time>2026-04-11T13:28:27.999Z</time></trkpt><trkpt lat="45.86607170643274" lon="9.245415575624817"><ele>709.5</ele><time>2026-04-11T13:28:28.999Z</time></trkpt><trkpt lat="45.865982065153204" lon="9.245274763661186"><ele>709.25</ele><time>2026-04-11T13:28:29.999Z</time></trkpt><trkpt lat="45.86588787342327" lon="9.245142471158818"><ele>709.0</ele><time>2026-04-11T13:28:30.999Z</time></trkpt><trkpt lat="45.865792653757254" lon="9.245012471460074"><ele>709.0</ele><time>2026-04-11T13:28:31.999Z</time></trkpt><trkpt lat="45.86570937965378" lon="9.244889609555337"><ele>709.0</ele><time>2026-04-11T13:28:32.999Z</time></trkpt><trkpt lat="45.86563110709365" lon="9.244792226149558"><ele>709.0</ele><time>2026-04-11T13:28:33.999Z</time></trkpt><trkpt lat="45.86556639953189" lon="9.244709316438872"><ele>709.0</ele><time>2026-04-11T13:28:34.999Z</time></trkpt><trkpt lat="45.86553519695623" lon="9.24461478174739"><ele>709.0</ele><time>2026-04-11T13:28:35.999Z</time></trkpt><trkpt lat="45.86555856378401" lon="9.244530083231584"><ele>709.0</ele><time>2026-04-11T13:28:36.999Z</time></trkpt><trkpt lat="45.86562372683688" lon="9.244480295720995"><ele>711.0</ele><time>2026-04-11T13:28:37.999Z</time></trkpt><trkpt lat="45.86570809867957" lon="9.244506003613196"><ele>713.0</ele><time>2026-04-11T13:28:38.999Z</time></trkpt><trkpt lat="45.86580745516424" lon="9.244515662798497"><ele>715.0</ele><time>2026-04-11T13:28:39.999Z</time></trkpt><trkpt lat="45.86591520584928" lon="9.244544013137046"><ele>717.0</ele><time>2026-04-11T13:28:40.999Z</time></trkpt><trkpt lat="45.86602679581885" lon="9.244564213554014"><ele>719.0</ele><time>2026-04-11T13:28:41.999Z</time></trkpt><trkpt lat="45.86614085489789" lon="9.244579531535154"><ele>721.25</ele><time>2026-04-11T13:28:42.999Z</time></trkpt><trkpt lat="45.86626070818286" lon="9.24460436952344"><ele>723.5</ele><time>2026-04-11T13:28:43.999Z</time></trkpt><trkpt lat="45.866380920098514" lon="9.244646840390319"><ele>725.75</ele><time>2026-04-11T13:28:44.999Z</time></trkpt><trkpt lat="45.86650321127976" lon="9.2446960918255"><ele>728.0</ele><time>2026-04-11T13:28:45.999Z</time></trkpt><trkpt lat="45.866626446172944" lon="9.244751068256624"><ele>728.0</ele><time>2026-04-11T13:28:46.999Z</time></trkpt><trkpt lat="45.86674683019624" lon="9.244792767817197"><ele>728.0</ele><time>2026-04-11T13:28:47.999Z</time></trkpt><trkpt lat="45.86686730595777" lon="9.244789392977234"><ele>728.0</ele><time>2026-04-11T13:28:48.999Z</time></trkpt><trkpt lat="45.866985051863224" lon="9.244726061422003"><ele>728.0</ele><time>2026-04-11T13:28:49.999Z</time></trkpt><trkpt lat="45.86709223582201" lon="9.244606682966703"><ele>728.5</ele><time>2026-04-11T13:28:50.999Z</time></trkpt><trkpt lat="45.86719856878277" lon="9.244475403299319"><ele>729.0</ele><time>2026-04-11T13:28:51.999Z</time></trkpt><trkpt lat="45.86731654169516" lon="9.244354663477859"><ele>729.5</ele><time>2026-04-11T13:28:52.999Z</time></trkpt><trkpt lat="45.867437391003875" lon="9.244235537447631"><ele>730.0</ele><time>2026-04-11T13:28:53.999Z</time></trkpt><trkpt lat="45.867557051501755" lon="9.244110775202163"><ele>728.6666666666667</ele><time>2026-04-11T13:28:54.999Z</time></trkpt><trkpt lat="45.86767723790337" lon="9.243984160841611"><ele>727.3333333333334</ele><time>2026-04-11T13:28:55.999Z</time></trkpt><trkpt lat="45.86780001155303" lon="9.243862150211646"><ele>726.0</ele><time>2026-04-11T13:28:56.999Z</time></trkpt><trkpt lat="45.86793179664799" lon="9.24375286847159"><ele>731.6666666666666</ele><time>2026-04-11T13:28:57.999Z</time></trkpt><trkpt lat="45.86807095200437" lon="9.243653431552813"><ele>737.3333333333333</ele><time>2026-04-11T13:28:58.999Z</time></trkpt><trkpt lat="45.868211806799685" lon="9.24355872557861"><ele>743.0</ele><time>2026-04-11T13:28:59.999Z</time></trkpt><trkpt lat="45.86835086082019" lon="9.243464760416915"><ele>742.5</ele><time>2026-04-11T13:29:00.999Z</time></trkpt><trkpt lat="45.868485816145004" lon="9.243372513498143"><ele>742.0</ele><time>2026-04-11T13:29:01.999Z</time></trkpt><trkpt lat="45.868614090798424" lon="9.24326284091022"><ele>741.5</ele><time>2026-04-11T13:29:02.999Z</time></trkpt><trkpt lat="45.86872161658103" lon="9.24311498112139"><ele>741.0</ele><time>2026-04-11T13:29:03.999Z</time></trkpt><trkpt lat="45.86880935412531" lon="9.242930757836696"><ele>741.0</ele><time>2026-04-11T13:29:04.999Z</time></trkpt><trkpt lat="45.86888436369913" lon="9.24272117950143"><ele>741.0</ele><time>2026-04-11T13:29:05.999Z</time></trkpt><trkpt lat="45.86896392806307" lon="9.242505733497648"><ele>741.0</ele><time>2026-04-11T13:29:06.999Z</time></trkpt><trkpt lat="45.86905003858211" lon="9.24229286594834"><ele>741.0</ele><time>2026-04-11T13:29:07.999Z</time></trkpt><trkpt lat="45.86913720805531" lon="9.242082818758588"><ele>741.0</ele><time>2026-04-11T13:29:08.999Z</time></trkpt><trkpt lat="45.86922284198452" lon="9.241872346429304"><ele>741.0</ele><time>2026-04-11T13:29:09.999Z</time></trkpt><trkpt lat="45.8693175503463" lon="9.241672365102213"><ele>741.0</ele><time>2026-04-11T13:29:10.999Z</time></trkpt><trkpt lat="45.869423508424475" lon="9.241486563537228"><ele>741.0</ele><time>2026-04-11T13:29:11.999Z</time></trkpt><trkpt lat="45.86953092972137" lon="9.241306310682841"><ele>741.0</ele><time>2026-04-11T13:29:12.999Z</time></trkpt><trkpt lat="45.869631539600526" lon="9.241125737138445"><ele>745.75</ele><time>2026-04-11T13:29:13.999Z</time></trkpt><trkpt lat="45.86972683686099" lon="9.240950600554948"><ele>750.5</ele><time>2026-04-11T13:29:14.999Z</time></trkpt><trkpt lat="45.8698278443722" lon="9.240811273223272"><ele>755.25</ele><time>2026-04-11T13:29:15.999Z</time></trkpt><trkpt lat="45.869950264203645" lon="9.240731976510943"><ele>760.0</ele><time>2026-04-11T13:29:16.999Z</time></trkpt><trkpt lat="45.87009068901274" lon="9.240709796542252"><ele>760.0</ele><time>2026-04-11T13:29:17.999Z</time></trkpt><trkpt lat="45.870235837355224" lon="9.24071558419354"><ele>760.0</ele><time>2026-04-11T13:29:18.999Z</time></trkpt><trkpt lat="45.870374400683936" lon="9.240709557700855"><ele>760.0</ele><time>2026-04-11T13:29:19.999Z</time></trkpt><trkpt lat="45.870505468370204" lon="9.240704530824692"><ele>760.0</ele><time>2026-04-11T13:29:20.999Z</time></trkpt><trkpt lat="45.87062569620571" lon="9.240689224284553"><ele>760.0</ele><time>2026-04-11T13:29:21.999Z</time></trkpt><trkpt lat="45.87071864530227" lon="9.240676687989428"><ele>760.0</ele><time>2026-04-11T13:29:22.999Z</time></trkpt><trkpt lat="45.87079530224454" lon="9.240649314134263"><ele>760.0</ele><time>2026-04-11T13:29:23.999Z</time></trkpt><trkpt lat="45.870843274505276" lon="9.240584972212348"><ele>760.0</ele><time>2026-04-11T13:29:24.999Z</time></trkpt><trkpt lat="45.87081742926239" lon="9.2404185931564"><ele>760.0</ele><time>2026-04-11T13:29:26.999Z</time></trkpt><trkpt lat="45.870750699447086" lon="9.240386515391561"><ele>760.0</ele><time>2026-04-11T13:29:27.999Z</time></trkpt><trkpt lat="45.870668506719966" lon="9.240388207384514"><ele>762.6</ele><time>2026-04-11T13:29:28.999Z</time></trkpt><trkpt lat="45.87058520428233" lon="9.240375832717644"><ele>765.2</ele><time>2026-04-11T13:29:29.999Z</time></trkpt><trkpt lat="45.870500554897674" lon="9.240347109512804"><ele>767.8</ele><time>2026-04-11T13:29:30.999Z</time></trkpt><trkpt lat="45.87041137059248" lon="9.240309627695158"><ele>770.4</ele><time>2026-04-11T13:29:31.999Z</time></trkpt><trkpt lat="45.870325580550855" lon="9.240239821537884"><ele>773.0</ele><time>2026-04-11T13:29:32.999Z</time></trkpt><trkpt lat="45.87024651386571" lon="9.240160563873985"><ele>773.0</ele><time>2026-04-11T13:29:34Z</time></trkpt><trkpt lat="45.87016548202725" lon="9.240083760435203"><ele>773.0</ele><time>2026-04-11T13:29:35Z</time></trkpt><trkpt lat="45.870079635549196" lon="9.24000950726384"><ele>773.0</ele><time>2026-04-11T13:29:36Z</time></trkpt><trkpt lat="45.86999321940791" lon="9.239929893955951"><ele>773.0</ele><time>2026-04-11T13:29:37Z</time></trkpt><trkpt lat="45.869905995854815" lon="9.239846201657805"><ele>773.0</ele><time>2026-04-11T13:29:38Z</time></trkpt><trkpt lat="45.86981345754922" lon="9.239767185023426"><ele>775.0</ele><time>2026-04-11T13:29:39Z</time></trkpt><trkpt lat="45.869711728669515" lon="9.239710568790386"><ele>777.0</ele><time>2026-04-11T13:29:40Z</time></trkpt><trkpt lat="45.86960247369402" lon="9.239690184950877"><ele>779.0</ele><time>2026-04-11T13:29:41Z</time></trkpt><trkpt lat="45.8694903816381" lon="9.23970269423129"><ele>781.0</ele><time>2026-04-11T13:29:42Z</time></trkpt><trkpt lat="45.86938097202744" lon="9.239735928529539"><ele>783.0</ele><time>2026-04-11T13:29:43Z</time></trkpt><trkpt lat="45.86927836867747" lon="9.239759409043943"><ele>783.6666666666666</ele><time>2026-04-11T13:29:44Z</time></trkpt><trkpt lat="45.86918812901337" lon="9.239778838811828"><ele>784.3333333333333</ele><time>2026-04-11T13:29:45Z</time></trkpt><trkpt lat="45.86910652794392" lon="9.2397866838884"><ele>785.0</ele><time>2026-04-11T13:29:46Z</time></trkpt><trkpt lat="45.86903608462068" lon="9.239741624522267"><ele>785.6666666666666</ele><time>2026-04-11T13:29:47Z</time></trkpt><trkpt lat="45.86900140357743" lon="9.239647497559774"><ele>786.3333333333333</ele><time>2026-04-11T13:29:48Z</time></trkpt><trkpt lat="45.86901915090019" lon="9.239544199293439"><ele>787.0</ele><time>2026-04-11T13:29:49Z</time></trkpt><trkpt lat="45.86909483827945" lon="9.239463498253368"><ele>787.0</ele><time>2026-04-11T13:29:50Z</time></trkpt><trkpt lat="45.86915283835613" lon="9.239346877348654"><ele>787.0</ele><time>2026-04-11T13:29:51Z</time></trkpt><trkpt lat="45.86922448538064" lon="9.239232374733106"><ele>787.0</ele><time>2026-04-11T13:29:52Z</time></trkpt><trkpt lat="45.86929728436907" lon="9.23910826416859"><ele>787.0</ele><time>2026-04-11T13:29:53Z</time></trkpt><trkpt lat="45.86937212842668" lon="9.238983138977698"><ele>787.0</ele><time>2026-04-11T13:29:54Z</time></trkpt><trkpt lat="45.86944824514785" lon="9.238869267985274"><ele>788.8</ele><time>2026-04-11T13:29:55Z</time></trkpt><trkpt lat="45.869539462157455" lon="9.238794267161799"><ele>790.6</ele><time>2026-04-11T13:29:56Z</time></trkpt><trkpt lat="45.86964422469715" lon="9.238819059684966"><ele>792.4</ele><time>2026-04-11T13:29:57Z</time></trkpt><trkpt lat="45.86975051248161" lon="9.238842548454558"><ele>794.1999999999999</ele><time>2026-04-11T13:29:58Z</time></trkpt><trkpt lat="45.86986257481722" lon="9.23888140363466"><ele>796.0</ele><time>2026-04-11T13:29:59Z</time></trkpt><trkpt lat="45.869978118408085" lon="9.238904477819416"><ele>796.0</ele><time>2026-04-11T13:30:00Z</time></trkpt><trkpt lat="45.87009782674301" lon="9.238919632461025"><ele>796.0</ele><time>2026-04-11T13:30:01Z</time></trkpt><trkpt lat="45.870219718988444" lon="9.238929532925138"><ele>796.0</ele><time>2026-04-11T13:30:02Z</time></trkpt><trkpt lat="45.87034487815133" lon="9.238937762162886"><ele>796.0</ele><time>2026-04-11T13:30:03Z</time></trkpt><trkpt lat="45.870470320934295" lon="9.2389455881427"><ele>795.0</ele><time>2026-04-11T13:30:04Z</time></trkpt><trkpt lat="45.870599330628146" lon="9.238956260070406"><ele>794.0</ele><time>2026-04-11T13:30:05Z</time></trkpt><trkpt lat="45.87072813405489" lon="9.23895871925329"><ele>793.0</ele><time>2026-04-11T13:30:06Z</time></trkpt><trkpt lat="45.87085584130785" lon="9.238951303838503"><ele>792.0</ele><time>2026-04-11T13:30:07Z</time></trkpt><trkpt lat="45.870971836390765" lon="9.238924223685574"><ele>790.8</ele><time>2026-04-11T13:30:07.999Z</time></trkpt><trkpt lat="45.87105871673926" lon="9.238887212852422"><ele>789.6</ele><time>2026-04-11T13:30:08.999Z</time></trkpt><trkpt lat="45.871117681304284" lon="9.238823880659153"><ele>788.4</ele><time>2026-04-11T13:30:09.999Z</time></trkpt><trkpt lat="45.87112626802663" lon="9.238640330786632"><ele>787.1999999999999</ele><time>2026-04-11T13:30:11.999Z</time></trkpt><trkpt lat="45.87112361675659" lon="9.238528364773515"><ele>786.0</ele><time>2026-04-11T13:30:12.999Z</time></trkpt><trkpt lat="45.871172691499254" lon="9.238430119697396"><ele>786.0</ele><time>2026-04-11T13:30:13.999Z</time></trkpt><trkpt lat="45.87123029451396" lon="9.238348006992045"><ele>786.0</ele><time>2026-04-11T13:30:14.999Z</time></trkpt><trkpt lat="45.871287040332234" lon="9.23824893429973"><ele>786.0</ele><time>2026-04-11T13:30:15.999Z</time></trkpt><trkpt lat="45.87134698718611" lon="9.238145252350769"><ele>786.0</ele><time>2026-04-11T13:30:16.999Z</time></trkpt><trkpt lat="45.87140216115426" lon="9.238029003143224"><ele>786.0</ele><time>2026-04-11T13:30:17.999Z</time></trkpt><trkpt lat="45.87148574808288" lon="9.23795124709822"><ele>787.5999999999999</ele><time>2026-04-11T13:30:18.999Z</time></trkpt><trkpt lat="45.87155639981062" lon="9.237860935886905"><ele>789.2</ele><time>2026-04-11T13:30:19.999Z</time></trkpt><trkpt lat="45.87161638019468" lon="9.237751168592402"><ele>790.8</ele><time>2026-04-11T13:30:20.999Z</time></trkpt><trkpt lat="45.8716874875985" lon="9.23765686349201"><ele>792.4000000000001</ele><time>2026-04-11T13:30:21.999Z</time></trkpt><trkpt lat="45.87173676720095" lon="9.237537218344237"><ele>794.0</ele><time>2026-04-11T13:30:22.999Z</time></trkpt><trkpt lat="45.8717744828871" lon="9.237408106059105"><ele>796.0000000000001</ele><time>2026-04-11T13:30:23.999Z</time></trkpt><trkpt lat="45.87180633451312" lon="9.237284128418"><ele>798.0</ele><time>2026-04-11T13:30:24.999Z</time></trkpt><trkpt lat="45.87184107756591" lon="9.237182582183816"><ele>800.0</ele><time>2026-04-11T13:30:25.999Z</time></trkpt><trkpt lat="45.871890925391945" lon="9.237112537278138"><ele>802.0</ele><time>2026-04-11T13:30:26.999Z</time></trkpt><trkpt lat="45.871964126762855" lon="9.237078649088822"><ele>804.0000000000001</ele><time>2026-04-11T13:30:27.999Z</time></trkpt><trkpt lat="45.872048321340124" lon="9.23709327210294"><ele>806.0</ele><time>2026-04-11T13:30:28.999Z</time></trkpt><trkpt lat="45.872136471187446" lon="9.237151273966168"><ele>806.0</ele><time>2026-04-11T13:30:29.999Z</time></trkpt><trkpt lat="45.872219102671004" lon="9.237230346784012"><ele>806.0</ele><time>2026-04-11T13:30:30.999Z</time></trkpt><trkpt lat="45.872290083638994" lon="9.237322516763061"><ele>806.0</ele><time>2026-04-11T13:30:31.999Z</time></trkpt><trkpt lat="45.8723450385816" lon="9.23744367741615"><ele>806.0</ele><time>2026-04-11T13:30:32.999Z</time></trkpt><trkpt lat="45.87240012702999" lon="9.237574210385533"><ele>806.0</ele><time>2026-04-11T13:30:33.999Z</time></trkpt><trkpt lat="45.872453200888046" lon="9.237700052803804"><ele>805.0</ele><time>2026-04-11T13:30:34.999Z</time></trkpt><trkpt lat="45.87250325908009" lon="9.237820038803626"><ele>804.0</ele><time>2026-04-11T13:30:35.999Z</time></trkpt><trkpt lat="45.87256738106164" lon="9.237915418678073"><ele>803.0</ele><time>2026-04-11T13:30:36.999Z</time></trkpt><trkpt lat="45.87264910689399" lon="9.237987094843646"><ele>802.0</ele><time>2026-04-11T13:30:37.999Z</time></trkpt><trkpt lat="45.872733659357394" lon="9.238060389468963"><ele>801.0</ele><time>2026-04-11T13:30:38.999Z</time></trkpt><trkpt lat="45.87282938126547" lon="9.238134137740497"><ele>801.5999999999999</ele><time>2026-04-11T13:30:39.999Z</time></trkpt><trkpt lat="45.87292905677683" lon="9.238197199750735"><ele>802.2</ele><time>2026-04-11T13:30:40.999Z</time></trkpt><trkpt lat="45.87302820093933" lon="9.238261885858734"><ele>802.8</ele><time>2026-04-11T13:30:41.999Z</time></trkpt><trkpt lat="45.87312662682092" lon="9.2383332142186"><ele>803.4000000000001</ele><time>2026-04-11T13:30:42.999Z</time></trkpt><trkpt lat="45.87322709252058" lon="9.238398787273445"><ele>804.0</ele><time>2026-04-11T13:30:43.999Z</time></trkpt><trkpt lat="45.873324491952495" lon="9.238480138493236"><ele>804.0</ele><time>2026-04-11T13:30:44.999Z</time></trkpt><trkpt lat="45.873406136530676" lon="9.238594236218344"><ele>804.0</ele><time>2026-04-11T13:30:45.999Z</time></trkpt><trkpt lat="45.873483339561666" lon="9.238714437126738"><ele>804.0</ele><time>2026-04-11T13:30:46.999Z</time></trkpt><trkpt lat="45.873558539340706" lon="9.23882903588903"><ele>804.0</ele><time>2026-04-11T13:30:47.999Z</time></trkpt><trkpt lat="45.873634774609016" lon="9.238913911359804"><ele>804.0</ele><time>2026-04-11T13:30:48.999Z</time></trkpt><trkpt lat="45.87373037793812" lon="9.238948589663497"><ele>805.0</ele><time>2026-04-11T13:30:49.999Z</time></trkpt><trkpt lat="45.87383311827522" lon="9.238954968091889"><ele>806.0</ele><time>2026-04-11T13:30:50.999Z</time></trkpt><trkpt lat="45.87393020275801" lon="9.239012515000526"><ele>807.0</ele><time>2026-04-11T13:30:51.999Z</time></trkpt><trkpt lat="45.87402187615855" lon="9.239118895143445"><ele>808.0</ele><time>2026-04-11T13:30:52.999Z</time></trkpt><trkpt lat="45.87412608168672" lon="9.239210914063635"><ele>809.0</ele><time>2026-04-11T13:30:53.999Z</time></trkpt><trkpt lat="45.87425722747367" lon="9.239268561723874"><ele>810.6666666666667</ele><time>2026-04-11T13:30:54.999Z</time></trkpt><trkpt lat="45.87440109495339" lon="9.23931913222726"><ele>812.3333333333333</ele><time>2026-04-11T13:30:55.999Z</time></trkpt><trkpt lat="45.87455169846987" lon="9.239364360512928"><ele>814.0</ele><time>2026-04-11T13:30:56.999Z</time></trkpt><trkpt lat="45.87469792099261" lon="9.23941389957089"><ele>814.0</ele><time>2026-04-11T13:30:57.999Z</time></trkpt><trkpt lat="45.874841193681675" lon="9.239469853892826"><ele>814.0</ele><time>2026-04-11T13:30:58.999Z</time></trkpt><trkpt lat="45.87498223914733" lon="9.239543838305753"><ele>814.0</ele><time>2026-04-11T13:30:59.999Z</time></trkpt><trkpt lat="45.875119931242686" lon="9.239638257725579"><ele>814.3333333333333</ele><time>2026-04-11T13:31:00.999Z</time></trkpt><trkpt lat="45.875254139393405" lon="9.239743274292596"><ele>814.6666666666667</ele><time>2026-04-11T13:31:01.999Z</time></trkpt><trkpt lat="45.87538791441094" lon="9.239844245461168"><ele>815.0</ele><time>2026-04-11T13:31:02.999Z</time></trkpt><trkpt lat="45.87552161378503" lon="9.239951489319948"><ele>814.0</ele><time>2026-04-11T13:31:03.999Z</time></trkpt><trkpt lat="45.87565716486012" lon="9.240056358675563"><ele>813.0</ele><time>2026-04-11T13:31:04.999Z</time></trkpt><trkpt lat="45.87579205899383" lon="9.240167519175975"><ele>812.0</ele><time>2026-04-11T13:31:05.999Z</time></trkpt><trkpt lat="45.875927575925814" lon="9.240278490519948"><ele>813.6666666666667</ele><time>2026-04-11T13:31:06.999Z</time></trkpt><trkpt lat="45.876069817246034" lon="9.240389492591701"><ele>815.3333333333333</ele><time>2026-04-11T13:31:07.999Z</time></trkpt><trkpt lat="45.876214185421965" lon="9.240503111923857"><ele>817.0</ele><time>2026-04-11T13:31:08.999Z</time></trkpt><trkpt lat="45.87635617451611" lon="9.240619087561155"><ele>815.3333333333333</ele><time>2026-04-11T13:31:09.999Z</time></trkpt><trkpt lat="45.87649910763778" lon="9.240728726354359"><ele>813.6666666666667</ele><time>2026-04-11T13:31:10.999Z</time></trkpt><trkpt lat="45.87664344982332" lon="9.240832020628417"><ele>812.0</ele><time>2026-04-11T13:31:11.999Z</time></trkpt><trkpt lat="45.87678482999649" lon="9.240937594321194"><ele>812.0</ele><time>2026-04-11T13:31:12.999Z</time></trkpt><trkpt lat="45.87693008051429" lon="9.241033635076732"><ele>812.0</ele><time>2026-04-11T13:31:13.999Z</time></trkpt><trkpt lat="45.877078840951256" lon="9.241123016046624"><ele>812.0</ele><time>2026-04-11T13:31:14.999Z</time></trkpt><trkpt lat="45.87723003625545" lon="9.241194512771322"><ele>812.0</ele><time>2026-04-11T13:31:15.999Z</time></trkpt><trkpt lat="45.877378353432846" lon="9.241234817772531"><ele>812.0</ele><time>2026-04-11T13:31:16.999Z</time></trkpt><trkpt lat="45.877514870498445" lon="9.24124655721043"><ele>812.0</ele><time>2026-04-11T13:31:17.999Z</time></trkpt><trkpt lat="45.87763737080312" lon="9.24121654714193"><ele>812.0</ele><time>2026-04-11T13:31:18.999Z</time></trkpt><trkpt lat="45.87772862893169" lon="9.241142681813965"><ele>812.4000000000001</ele><time>2026-04-11T13:31:19.999Z</time></trkpt><trkpt lat="45.877781450292744" lon="9.241025072544181"><ele>812.8000000000001</ele><time>2026-04-11T13:31:20.999Z</time></trkpt><trkpt lat="45.877804272094615" lon="9.240889032454032"><ele>813.2</ele><time>2026-04-11T13:31:21.999Z</time></trkpt><trkpt lat="45.87781081647963" lon="9.240732658205044"><ele>813.6</ele><time>2026-04-11T13:31:22.999Z</time></trkpt><trkpt lat="45.87783824015091" lon="9.240588383600759"><ele>814.0</ele><time>2026-04-11T13:31:23.999Z</time></trkpt><trkpt lat="45.877860440324376" lon="9.240461509015752"><ele>813.9999999999999</ele><time>2026-04-11T13:31:24.999Z</time></trkpt><trkpt lat="45.87793031289655" lon="9.24040231932308"><ele>814.0</ele><time>2026-04-11T13:31:25.999Z</time></trkpt><trkpt lat="45.878001679552426" lon="9.24039724938007"><ele>814.0</ele><time>2026-04-11T13:31:26.999Z</time></trkpt><trkpt lat="45.87806192852119" lon="9.24046152553981"><ele>814.0</ele><time>2026-04-11T13:31:27.999Z</time></trkpt><trkpt lat="45.8781086612503" lon="9.240583801232795"><ele>813.9999999999999</ele><time>2026-04-11T13:31:28.999Z</time></trkpt><trkpt lat="45.87815971498919" lon="9.24071470805173"><ele>814.0</ele><time>2026-04-11T13:31:29.999Z</time></trkpt><trkpt lat="45.87822048559638" lon="9.240856578029634"><ele>814.0</ele><time>2026-04-11T13:31:30.998Z</time></trkpt><trkpt lat="45.8782887442889" lon="9.241007762740002"><ele>814.0</ele><time>2026-04-11T13:31:31.998Z</time></trkpt><trkpt lat="45.87835839966914" lon="9.24116820551343"><ele>814.0</ele><time>2026-04-11T13:31:32.998Z</time></trkpt><trkpt lat="45.878427637779104" lon="9.241333760682648"><ele>814.0</ele><time>2026-04-11T13:31:33.998Z</time></trkpt><trkpt lat="45.8784941841933" lon="9.241497332147175"><ele>814.25</ele><time>2026-04-11T13:31:34.998Z</time></trkpt><trkpt lat="45.87855985559952" lon="9.241659963431077"><ele>814.5</ele><time>2026-04-11T13:31:35.998Z</time></trkpt><trkpt lat="45.878631920558206" lon="9.241811329671124"><ele>814.75</ele><time>2026-04-11T13:31:36.998Z</time></trkpt><trkpt lat="45.878722324093594" lon="9.241944769951212"><ele>815.0</ele><time>2026-04-11T13:31:37.998Z</time></trkpt><trkpt lat="45.8788196953176" lon="9.242070317747974"><ele>815.0</ele><time>2026-04-11T13:31:38.998Z</time></trkpt><trkpt lat="45.8789244109822" lon="9.242187616407087"><ele>815.0</ele><time>2026-04-11T13:31:40Z</time></trkpt><trkpt lat="45.87903661073206" lon="9.242293415230165"><ele>815.0</ele><time>2026-04-11T13:31:41Z</time></trkpt><trkpt lat="45.87914574040726" lon="9.24241424760416"><ele>815.0</ele><time>2026-04-11T13:31:42Z</time></trkpt><trkpt lat="45.87925863339284" lon="9.242513141521949"><ele>817.0</ele><time>2026-04-11T13:31:43Z</time></trkpt><trkpt lat="45.879371030407945" lon="9.242608669966152"><ele>819.0</ele><time>2026-04-11T13:31:44Z</time></trkpt><trkpt lat="45.87945362694367" lon="9.242752387166728"><ele>821.0</ele><time>2026-04-11T13:31:45Z</time></trkpt><trkpt lat="45.879517540618956" lon="9.242917612236019"><ele>823.0</ele><time>2026-04-11T13:31:46Z</time></trkpt><trkpt lat="45.87959491430582" lon="9.243062835415696"><ele>817.75</ele><time>2026-04-11T13:31:47Z</time></trkpt><trkpt lat="45.87969526804353" lon="9.24317318638969"><ele>812.5</ele><time>2026-04-11T13:31:48Z</time></trkpt><trkpt lat="45.87979384717864" lon="9.243289297155261"><ele>807.25</ele><time>2026-04-11T13:31:49Z</time></trkpt><trkpt lat="45.87989469033604" lon="9.243382671997907"><ele>802.0</ele><time>2026-04-11T13:31:50Z</time></trkpt><trkpt lat="45.879989622277535" lon="9.24345808191763"><ele>802.0</ele><time>2026-04-11T13:31:51Z</time></trkpt><trkpt lat="45.88004581817188" lon="9.243581161023444"><ele>802.0</ele><time>2026-04-11T13:31:52Z</time></trkpt><trkpt lat="45.88005659278718" lon="9.243725197881961"><ele>802.0</ele><time>2026-04-11T13:31:53Z</time></trkpt><trkpt lat="45.88002592226098" lon="9.243858860974914"><ele>802.0</ele><time>2026-04-11T13:31:54Z</time></trkpt><trkpt lat="45.879956381998575" lon="9.243971120568622"><ele>802.0</ele><time>2026-04-11T13:31:55Z</time></trkpt><trkpt lat="45.87986116779434" lon="9.244046949374212"><ele>802.0</ele><time>2026-04-11T13:31:56Z</time></trkpt><trkpt lat="45.879748535372165" lon="9.244067314211648"><ele>802.0</ele><time>2026-04-11T13:31:57Z</time></trkpt><trkpt lat="45.87963777938488" lon="9.244024329194076"><ele>802.0</ele><time>2026-04-11T13:31:58Z</time></trkpt><trkpt lat="45.879552388932815" lon="9.243914188383956"><ele>802.0</ele><time>2026-04-11T13:31:59Z</time></trkpt><trkpt lat="45.87945934293465" lon="9.24381005173401"><ele>802.0</ele><time>2026-04-11T13:32:00Z</time></trkpt><trkpt lat="45.8793643983896" lon="9.243697915660636"><ele>802.0</ele><time>2026-04-11T13:32:01Z</time></trkpt><trkpt lat="45.87926034428444" lon="9.243607301536617"><ele>802.0</ele><time>2026-04-11T13:32:02Z</time></trkpt><trkpt lat="45.87916065823918" lon="9.24354434052554"><ele>802.0</ele><time>2026-04-11T13:32:03Z</time></trkpt><trkpt lat="45.87907739234693" lon="9.24349931137143"><ele>802.0</ele><time>2026-04-11T13:32:04Z</time></trkpt><trkpt lat="45.87900377486461" lon="9.243470409600308"><ele>798.5</ele><time>2026-04-11T13:32:05Z</time></trkpt><trkpt lat="45.87893826131997" lon="9.243470292622124"><ele>795.0</ele><time>2026-04-11T13:32:06Z</time></trkpt><trkpt lat="45.87886207406405" lon="9.243506811142762"><ele>791.5</ele><time>2026-04-11T13:32:08Z</time></trkpt><trkpt lat="45.878718527507964" lon="9.24364809502658"><ele>788.0</ele><time>2026-04-11T13:32:10.999Z</time></trkpt><trkpt lat="45.878868926115295" lon="9.243804628250711"><ele>788.0</ele><time>2026-04-11T13:32:11.999Z</time></trkpt><trkpt lat="45.87888102031906" lon="9.243935854941212"><ele>788.0</ele><time>2026-04-11T13:32:12.999Z</time></trkpt><trkpt lat="45.87889774783044" lon="9.244090599733397"><ele>788.0</ele><time>2026-04-11T13:32:13.999Z</time></trkpt><trkpt lat="45.87891948099226" lon="9.244258752979542"><ele>788.0</ele><time>2026-04-11T13:32:14.999Z</time></trkpt><trkpt lat="45.87895668698656" lon="9.244421377149223"><ele>788.0</ele><time>2026-04-11T13:32:15.999Z</time></trkpt><trkpt lat="45.87902168688275" lon="9.24457848491765"><ele>789.5</ele><time>2026-04-11T13:32:16.999Z</time></trkpt><trkpt lat="45.87910787075947" lon="9.244735437508087"><ele>791.0</ele><time>2026-04-11T13:32:17.999Z</time></trkpt><trkpt lat="45.87918920452163" lon="9.244912092017987"><ele>792.5</ele><time>2026-04-11T13:32:18.999Z</time></trkpt><trkpt lat="45.87925536905729" lon="9.245107147654393"><ele>794.0</ele><time>2026-04-11T13:32:19.999Z</time></trkpt><trkpt lat="45.87932367663541" lon="9.24529775536714"><ele>801.3333333333334</ele><time>2026-04-11T13:32:20.999Z</time></trkpt><trkpt lat="45.87939844248324" lon="9.245486500307662"><ele>808.6666666666667</ele><time>2026-04-11T13:32:21.999Z</time></trkpt><trkpt lat="45.87947840541149" lon="9.245674916785124"><ele>816.0</ele><time>2026-04-11T13:32:22.999Z</time></trkpt><trkpt lat="45.87955595417047" lon="9.245861881428448"><ele>816.0</ele><time>2026-04-11T13:32:23.999Z</time></trkpt><trkpt lat="45.879629512549556" lon="9.24603481365817"><ele>816.0</ele><time>2026-04-11T13:32:24.999Z</time></trkpt><trkpt lat="45.879692242548174" lon="9.246198883893001"><ele>816.0</ele><time>2026-04-11T13:32:25.999Z</time></trkpt><trkpt lat="45.87972875778268" lon="9.24635625966666"><ele>816.0</ele><time>2026-04-11T13:32:26.999Z</time></trkpt><trkpt lat="45.87974157617" lon="9.246495100293448"><ele>816.0</ele><time>2026-04-11T13:32:27.999Z</time></trkpt><trkpt lat="45.879756996773665" lon="9.24660690155368"><ele>816.0</ele><time>2026-04-11T13:32:28.999Z</time></trkpt><trkpt lat="45.879796736683396" lon="9.246686260788662"><ele>816.0</ele><time>2026-04-11T13:32:29.999Z</time></trkpt><trkpt lat="45.87985079487678" lon="9.246749556114349"><ele>816.0</ele><time>2026-04-11T13:32:30.999Z</time></trkpt><trkpt lat="45.87993837812251" lon="9.246693741588519"><ele>816.0</ele><time>2026-04-11T13:32:31.999Z</time></trkpt><trkpt lat="45.87997769861075" lon="9.246584678526048"><ele>816.0</ele><time>2026-04-11T13:32:32.999Z</time></trkpt><trkpt lat="45.87997234029016" lon="9.246446773401525"><ele>816.0</ele><time>2026-04-11T13:32:33.999Z</time></trkpt><trkpt lat="45.87994913115249" lon="9.246303320137928"><ele>816.0</ele><time>2026-04-11T13:32:34.999Z</time></trkpt><trkpt lat="45.879936409655706" lon="9.246147712281926"><ele>816.0</ele><time>2026-04-11T13:32:35.999Z</time></trkpt><trkpt lat="45.87993097356558" lon="9.245987848271985"><ele>816.0</ele><time>2026-04-11T13:32:36.999Z</time></trkpt><trkpt lat="45.879929745828825" lon="9.245817860419137"><ele>816.0</ele><time>2026-04-11T13:32:37.999Z</time></trkpt><trkpt lat="45.87994288187593" lon="9.245640889384342"><ele>816.0</ele><time>2026-04-11T13:32:38.999Z</time></trkpt><trkpt lat="45.87996646624104" lon="9.245457105927043"><ele>816.0</ele><time>2026-04-11T13:32:39.999Z</time></trkpt><trkpt lat="45.87998587026011" lon="9.245268319248618"><ele>816.0</ele><time>2026-04-11T13:32:40.999Z</time></trkpt><trkpt lat="45.87999552249381" lon="9.245079005999234"><ele>816.0</ele><time>2026-04-11T13:32:41.999Z</time></trkpt><trkpt lat="45.880005612564155" lon="9.244906305857281"><ele>813.8</ele><time>2026-04-11T13:32:42.999Z</time></trkpt><trkpt lat="45.88003802957197" lon="9.244751136434164"><ele>811.5999999999999</ele><time>2026-04-11T13:32:43.999Z</time></trkpt><trkpt lat="45.880103316684604" lon="9.24463390793016"><ele>809.4</ele><time>2026-04-11T13:32:44.999Z</time></trkpt><trkpt lat="45.88019789667107" lon="9.244550937876108"><ele>807.2</ele><time>2026-04-11T13:32:45.999Z</time></trkpt><trkpt lat="45.88030060591554" lon="9.244498759371574"><ele>805.0</ele><time>2026-04-11T13:32:46.999Z</time></trkpt><trkpt lat="45.880412137135025" lon="9.244467139983241"><ele>810.5</ele><time>2026-04-11T13:32:47.999Z</time></trkpt><trkpt lat="45.8805249307759" lon="9.244419114413832"><ele>816.0</ele><time>2026-04-11T13:32:48.999Z</time></trkpt><trkpt lat="45.88063711272511" lon="9.244345698622329"><ele>821.5</ele><time>2026-04-11T13:32:49.999Z</time></trkpt><trkpt lat="45.880751522001106" lon="9.244270921062864"><ele>827.0</ele><time>2026-04-11T13:32:50.999Z</time></trkpt><trkpt lat="45.88087430183886" lon="9.244202523132433"><ele>832.0</ele><time>2026-04-11T13:32:51.999Z</time></trkpt><trkpt lat="45.880997333975905" lon="9.24413061835593"><ele>837.0</ele><time>2026-04-11T13:32:52.999Z</time></trkpt><trkpt lat="45.881125992587066" lon="9.244064303648727"><ele>842.0</ele><time>2026-04-11T13:32:53.999Z</time></trkpt><trkpt lat="45.88126363314929" lon="9.244010020918553"><ele>847.0</ele><time>2026-04-11T13:32:54.999Z</time></trkpt><trkpt lat="45.88140893594905" lon="9.243969322527171"><ele>843.3333333333333</ele><time>2026-04-11T13:32:55.999Z</time></trkpt><trkpt lat="45.881567811254826" lon="9.243935861955162"><ele>839.6666666666667</ele><time>2026-04-11T13:32:56.999Z</time></trkpt><trkpt lat="45.881721468344146" lon="9.243912315942023"><ele>836.0</ele><time>2026-04-11T13:32:57.999Z</time></trkpt><trkpt lat="45.88188719261609" lon="9.243893217816606"><ele>836.0</ele><time>2026-04-11T13:32:58.999Z</time></trkpt><trkpt lat="45.88205503518115" lon="9.243878575930689"><ele>836.0</ele><time>2026-04-11T13:32:59.999Z</time></trkpt><trkpt lat="45.882223948728" lon="9.243866379168812"><ele>836.0</ele><time>2026-04-11T13:33:00.999Z</time></trkpt><trkpt lat="45.88239446407765" lon="9.243855451829175"><ele>836.0</ele><time>2026-04-11T13:33:01.999Z</time></trkpt><trkpt lat="45.88256224565958" lon="9.243840321395814"><ele>836.0</ele><time>2026-04-11T13:33:02.999Z</time></trkpt><trkpt lat="45.882725881611066" lon="9.24382709242817"><ele>836.0</ele><time>2026-04-11T13:33:03.999Z</time></trkpt><trkpt lat="45.88288706801719" lon="9.243813502319632"><ele>842.0</ele><time>2026-04-11T13:33:04.999Z</time></trkpt><trkpt lat="45.8830451095495" lon="9.243804324440333"><ele>848.0</ele><time>2026-04-11T13:33:05.999Z</time></trkpt><trkpt lat="45.8831970165235" lon="9.243757400898108"><ele>854.0</ele><time>2026-04-11T13:33:06.999Z</time></trkpt><trkpt lat="45.88332218205295" lon="9.243655781897978"><ele>858.0</ele><time>2026-04-11T13:33:07.999Z</time></trkpt><trkpt lat="45.88343590736539" lon="9.24351218082272"><ele>862.0</ele><time>2026-04-11T13:33:08.999Z</time></trkpt><trkpt lat="45.88356012811834" lon="9.243397108314115"><ele>866.0</ele><time>2026-04-11T13:33:09.999Z</time></trkpt><trkpt lat="45.88370297117824" lon="9.24335992875353"><ele>870.0</ele><time>2026-04-11T13:33:10.999Z</time></trkpt><trkpt lat="45.88385594852922" lon="9.243345038184017"><ele>870.0</ele><time>2026-04-11T13:33:11.999Z</time></trkpt><trkpt lat="45.8840176508159" lon="9.243321222940049"><ele>870.0</ele><time>2026-04-11T13:33:12.999Z</time></trkpt><trkpt lat="45.88418271559374" lon="9.243294308475607"><ele>870.0</ele><time>2026-04-11T13:33:13.999Z</time></trkpt><trkpt lat="45.88432866093558" lon="9.24319326239776"><ele>868.0</ele><time>2026-04-11T13:33:14.999Z</time></trkpt><trkpt lat="45.88445861605514" lon="9.243096548406658"><ele>866.0</ele><time>2026-04-11T13:33:15.999Z</time></trkpt><trkpt lat="45.88460443729145" lon="9.242995828105506"><ele>864.0</ele><time>2026-04-11T13:33:16.999Z</time></trkpt><trkpt lat="45.88477270772207" lon="9.242942510152412"><ele>864.0</ele><time>2026-04-11T13:33:17.999Z</time></trkpt><trkpt lat="45.884961476798225" lon="9.242910083486086"><ele>864.0</ele><time>2026-04-11T13:33:18.999Z</time></trkpt><trkpt lat="45.885140591917605" lon="9.242821832778272"><ele>864.0</ele><time>2026-04-11T13:33:19.999Z</time></trkpt><trkpt lat="45.88530988303769" lon="9.242751369855759"><ele>868.0</ele><time>2026-04-11T13:33:20.999Z</time></trkpt><trkpt lat="45.88546866916096" lon="9.242674261353509"><ele>872.0</ele><time>2026-04-11T13:33:21.999Z</time></trkpt><trkpt lat="45.88561493476378" lon="9.242637939646336"><ele>876.0</ele><time>2026-04-11T13:33:22.999Z</time></trkpt><trkpt lat="45.88574098190099" lon="9.242565996582202"><ele>876.0</ele><time>2026-04-11T13:33:23.999Z</time></trkpt><trkpt lat="45.88588365721471" lon="9.24260776984107"><ele>876.0</ele><time>2026-04-11T13:33:24.999Z</time></trkpt><trkpt lat="45.88602210256386" lon="9.242696107481752"><ele>876.0</ele><time>2026-04-11T13:33:25.999Z</time></trkpt><trkpt lat="45.88616489940624" lon="9.242796291503854"><ele>877.0</ele><time>2026-04-11T13:33:26.999Z</time></trkpt><trkpt lat="45.88630921015517" lon="9.24289157371747"><ele>878.0</ele><time>2026-04-11T13:33:27.999Z</time></trkpt><trkpt lat="45.886458317029806" lon="9.24298072152759"><ele>879.0</ele><time>2026-04-11T13:33:28.999Z</time></trkpt><trkpt lat="45.886609456946296" lon="9.243073065636388"><ele>882.3333333333333</ele><time>2026-04-11T13:33:29.999Z</time></trkpt><trkpt lat="45.88676024837129" lon="9.24317020182172"><ele>885.6666666666666</ele><time>2026-04-11T13:33:30.999Z</time></trkpt><trkpt lat="45.88690966917449" lon="9.243266611954036"><ele>889.0</ele><time>2026-04-11T13:33:31.999Z</time></trkpt><trkpt lat="45.88706758600973" lon="9.243333265184914"><ele>889.0</ele><time>2026-04-11T13:33:32.999Z</time></trkpt><trkpt lat="45.887228631907" lon="9.24337062776988"><ele>889.0</ele><time>2026-04-11T13:33:33.999Z</time></trkpt><trkpt lat="45.88739482209016" lon="9.243394098166858"><ele>889.0</ele><time>2026-04-11T13:33:34.998Z</time></trkpt><trkpt lat="45.88756544479729" lon="9.243417491888588"><ele>892.0</ele><time>2026-04-11T13:33:35.998Z</time></trkpt><trkpt lat="45.887740766004065" lon="9.243441284575207"><ele>895.0</ele><time>2026-04-11T13:33:36.998Z</time></trkpt><trkpt lat="45.88792165805123" lon="9.24346744481448"><ele>898.0</ele><time>2026-04-11T13:33:37.998Z</time></trkpt><trkpt lat="45.8881088466155" lon="9.243496013837845"><ele>898.0</ele><time>2026-04-11T13:33:38.998Z</time></trkpt><trkpt lat="45.88829861988364" lon="9.243524062391879"><ele>898.0</ele><time>2026-04-11T13:33:39.998Z</time></trkpt><trkpt lat="45.88848464643853" lon="9.243549798743247"><ele>898.0</ele><time>2026-04-11T13:33:40.998Z</time></trkpt><trkpt lat="45.88867172290852" lon="9.243577556906684"><ele>901.6666666666666</ele><time>2026-04-11T13:33:41.998Z</time></trkpt><trkpt lat="45.88885562807595" lon="9.243604302900632"><ele>905.3333333333333</ele><time>2026-04-11T13:33:42.998Z</time></trkpt><trkpt lat="45.88903482525499" lon="9.243629794699665"><ele>909.0</ele><time>2026-04-11T13:33:43.998Z</time></trkpt><trkpt lat="45.88920024386808" lon="9.24365481839634"><ele>909.25</ele><time>2026-04-11T13:33:44.998Z</time></trkpt><trkpt lat="45.889345780033125" lon="9.243681141850741"><ele>909.5</ele><time>2026-04-11T13:33:46Z</time></trkpt><trkpt lat="45.88947779847016" lon="9.243691190293383"><ele>909.75</ele><time>2026-04-11T13:33:47Z</time></trkpt><trkpt lat="45.889591514801545" lon="9.243666671292118"><ele>910.0</ele><time>2026-04-11T13:33:48Z</time></trkpt><trkpt lat="45.88968676160198" lon="9.243660758902028"><ele>909.9999999999999</ele><time>2026-04-11T13:33:49Z</time></trkpt><trkpt lat="45.8897677786814" lon="9.243626743675703"><ele>910.0</ele><time>2026-04-11T13:33:50Z</time></trkpt><trkpt lat="45.88982773718395" lon="9.243686877608464"><ele>910.0</ele><time>2026-04-11T13:33:51Z</time></trkpt><trkpt lat="45.88983692604903" lon="9.243797661273305"><ele>910.0</ele><time>2026-04-11T13:33:52Z</time></trkpt><trkpt lat="45.889779637820055" lon="9.24390014095581"><ele>909.9999999999999</ele><time>2026-04-11T13:33:53Z</time></trkpt><trkpt lat="45.88968457105825" lon="9.243918817926183"><ele>910.0</ele><time>2026-04-11T13:33:54Z</time></trkpt><trkpt lat="45.889571004123766" lon="9.24386121896104"><ele>910.0</ele><time>2026-04-11T13:33:55Z</time></trkpt><trkpt lat="45.8894122947748" lon="9.24380707313474"><ele>910.0</ele><time>2026-04-11T13:33:56Z</time></trkpt><trkpt lat="45.889259328303574" lon="9.243816319423384"><ele>910.0</ele><time>2026-04-11T13:33:57Z</time></trkpt><trkpt lat="45.88909780171349" lon="9.243879558778358"><ele>917.0</ele><time>2026-04-11T13:33:58Z</time></trkpt><trkpt lat="45.88890526309344" lon="9.243988811941456"><ele>924.0</ele><time>2026-04-11T13:33:59Z</time></trkpt><trkpt lat="45.88869542742232" lon="9.244102577576863"><ele>931.0</ele><time>2026-04-11T13:34:00Z</time></trkpt><trkpt lat="45.888475082054555" lon="9.244219139326162"><ele>926.0</ele><time>2026-04-11T13:34:01Z</time></trkpt><trkpt lat="45.88825394713191" lon="9.244349704544893"><ele>921.0</ele><time>2026-04-11T13:34:02Z</time></trkpt><trkpt lat="45.88803335523024" lon="9.244491249306815"><ele>921.0</ele><time>2026-04-11T13:34:03Z</time></trkpt><trkpt lat="45.88781638213386" lon="9.244643233905833"><ele>921.0</ele><time>2026-04-11T13:34:04Z</time></trkpt><trkpt lat="45.887599358487726" lon="9.244792590952223"><ele>927.3333333333333</ele><time>2026-04-11T13:34:05Z</time></trkpt><trkpt lat="45.88740351062217" lon="9.244925938541234"><ele>933.6666666666666</ele><time>2026-04-11T13:34:06Z</time></trkpt><trkpt lat="45.887236467225534" lon="9.245021307062544"><ele>940.0</ele><time>2026-04-11T13:34:07Z</time></trkpt><trkpt lat="45.88708474243763" lon="9.24506515764452"><ele>940.0</ele><time>2026-04-11T13:34:08Z</time></trkpt><trkpt lat="45.88695794050765" lon="9.245064721746301"><ele>940.0</ele><time>2026-04-11T13:34:09Z</time></trkpt><trkpt lat="45.886864182840135" lon="9.24506079154491"><ele>940.0</ele><time>2026-04-11T13:34:10Z</time></trkpt><trkpt lat="45.88679011659622" lon="9.2451006845215"><ele>940.0</ele><time>2026-04-11T13:34:11Z</time></trkpt><trkpt lat="45.8867607804033" lon="9.24519339089469"><ele>940.0</ele><time>2026-04-11T13:34:12Z</time></trkpt><trkpt lat="45.8867782190231" lon="9.245305302950928"><ele>940.0</ele><time>2026-04-11T13:34:13Z</time></trkpt><trkpt lat="45.886847793926954" lon="9.245385386233444"><ele>940.0</ele><time>2026-04-11T13:34:13.999Z</time></trkpt><trkpt lat="45.886953481867046" lon="9.2454009192658"><ele>940.0</ele><time>2026-04-11T13:34:14.999Z</time></trkpt><trkpt lat="45.88709267425832" lon="9.245347434579665"><ele>940.0</ele><time>2026-04-11T13:34:15.999Z</time></trkpt><trkpt lat="45.88725835477118" lon="9.245261303776537"><ele>940.0</ele><time>2026-04-11T13:34:16.999Z</time></trkpt><trkpt lat="45.887432419599136" lon="9.24518332186817"><ele>940.0</ele><time>2026-04-11T13:34:17.999Z</time></trkpt><trkpt lat="45.88762919896844" lon="9.245152112647947"><ele>940.0</ele><time>2026-04-11T13:34:18.999Z</time></trkpt><trkpt lat="45.88784462146525" lon="9.24512999079447"><ele>944.5</ele><time>2026-04-11T13:34:19.999Z</time></trkpt><trkpt lat="45.88808209963953" lon="9.245088387985195"><ele>949.0</ele><time>2026-04-11T13:34:20.999Z</time></trkpt><trkpt lat="45.88832054666202" lon="9.245093524223488"><ele>951.5</ele><time>2026-04-11T13:34:21.999Z</time></trkpt><trkpt lat="45.88856375066719" lon="9.245074889294877"><ele>954.0</ele><time>2026-04-11T13:34:22.999Z</time></trkpt><trkpt lat="45.88879775418025" lon="9.245056959355106"><ele>954.0</ele><time>2026-04-11T13:34:23.999Z</time></trkpt><trkpt lat="45.889028355340606" lon="9.245041174672469"><ele>954.0</ele><time>2026-04-11T13:34:24.999Z</time></trkpt><trkpt lat="45.88925030882551" lon="9.245080334080882"><ele>955.6666666666667</ele><time>2026-04-11T13:34:25.999Z</time></trkpt><trkpt lat="45.889467647912014" lon="9.245120626977565"><ele>957.3333333333334</ele><time>2026-04-11T13:34:26.999Z</time></trkpt><trkpt lat="45.88968115663732" lon="9.245154272911359"><ele>959.0</ele><time>2026-04-11T13:34:27.999Z</time></trkpt><trkpt lat="45.889893419582755" lon="9.245187525180272"><ele>958.3333333333334</ele><time>2026-04-11T13:34:28.999Z</time></trkpt><trkpt lat="45.89009995734599" lon="9.245224553861192"><ele>957.6666666666667</ele><time>2026-04-11T13:34:29.999Z</time></trkpt><trkpt lat="45.89030322422569" lon="9.245261254685238"><ele>957.0</ele><time>2026-04-11T13:34:30.999Z</time></trkpt><trkpt lat="45.890502734420174" lon="9.245293806143799"><ele>957.0</ele><time>2026-04-11T13:34:31.999Z</time></trkpt><trkpt lat="45.890694649061906" lon="9.245326989862127"><ele>957.0</ele><time>2026-04-11T13:34:32.999Z</time></trkpt><trkpt lat="45.890882912095904" lon="9.245385582888055"><ele>957.0</ele><time>2026-04-11T13:34:33.999Z</time></trkpt><trkpt lat="45.89106731233307" lon="9.24546619848107"><ele>956.6666666666667</ele><time>2026-04-11T13:34:34.999Z</time></trkpt><trkpt lat="45.89125554405977" lon="9.245536061740795"><ele>956.3333333333334</ele><time>2026-04-11T13:34:35.999Z</time></trkpt><trkpt lat="45.89144718336889" lon="9.245591067264305"><ele>956.0</ele><time>2026-04-11T13:34:36.999Z</time></trkpt><trkpt lat="45.89163875733726" lon="9.245643008760295"><ele>967.6666666666667</ele><time>2026-04-11T13:34:37.999Z</time></trkpt><trkpt lat="45.891820876343566" lon="9.245686460699014"><ele>979.3333333333333</ele><time>2026-04-11T13:34:38.999Z</time></trkpt><trkpt lat="45.89199982732348" lon="9.245722184810433"><ele>991.0</ele><time>2026-04-11T13:34:39.999Z</time></trkpt><trkpt lat="45.89217397226493" lon="9.245751858241864"><ele>991.0</ele><time>2026-04-11T13:34:40.999Z</time></trkpt><trkpt lat="45.89234941807155" lon="9.245774452160243"><ele>991.0</ele><time>2026-04-11T13:34:41.999Z</time></trkpt><trkpt lat="45.89253264846648" lon="9.245819477062117"><ele>991.0</ele><time>2026-04-11T13:34:42.999Z</time></trkpt><trkpt lat="45.8927284721119" lon="9.245848449465482"><ele>991.6666666666666</ele><time>2026-04-11T13:34:43.999Z</time></trkpt><trkpt lat="45.89292966010662" lon="9.245855921444118"><ele>992.3333333333333</ele><time>2026-04-11T13:34:44.999Z</time></trkpt><trkpt lat="45.893134378608615" lon="9.245893637460297"><ele>993.0</ele><time>2026-04-11T13:34:45.999Z</time></trkpt><trkpt lat="45.89334331049299" lon="9.2459317040983"><ele>999.0</ele><time>2026-04-11T13:34:46.999Z</time></trkpt><trkpt lat="45.893542511384986" lon="9.245967436249652"><ele>1005.0</ele><time>2026-04-11T13:34:47.999Z</time></trkpt><trkpt lat="45.89371948553491" lon="9.245993855382428"><ele>1011.0</ele><time>2026-04-11T13:34:48.999Z</time></trkpt><trkpt lat="45.893869081143386" lon="9.246003448881542"><ele>1011.0</ele><time>2026-04-11T13:34:49.999Z</time></trkpt><trkpt lat="45.893999187894366" lon="9.24598025402079"><ele>1010.9999999999999</ele><time>2026-04-11T13:34:50.999Z</time></trkpt><trkpt lat="45.89410354811669" lon="9.24592962284871"><ele>1010.9999999999999</ele><time>2026-04-11T13:34:51.999Z</time></trkpt><trkpt lat="45.89418879538613" lon="9.245857864858605"><ele>1011.0</ele><time>2026-04-11T13:34:52.999Z</time></trkpt><trkpt lat="45.89422662775661" lon="9.245729799792917"><ele>1011.0</ele><time>2026-04-11T13:34:53.999Z</time></trkpt><trkpt lat="45.89418929257877" lon="9.245569444101319"><ele>1012.25</ele><time>2026-04-11T13:34:54.999Z</time></trkpt><trkpt lat="45.894087371315095" lon="9.245457389585257"><ele>1013.5</ele><time>2026-04-11T13:34:55.999Z</time></trkpt><trkpt lat="45.89399825169152" lon="9.245306070980464"><ele>1014.75</ele><time>2026-04-11T13:34:56.999Z</time></trkpt><trkpt lat="45.89397897218981" lon="9.245077318415824"><ele>1016.0</ele><time>2026-04-11T13:34:57.999Z</time></trkpt><trkpt lat="45.89395936923825" lon="9.24482844769097"><ele>1015.3333333333334</ele><time>2026-04-11T13:34:58.999Z</time></trkpt><trkpt lat="45.89396000363518" lon="9.244575946460209"><ele>1014.6666666666667</ele><time>2026-04-11T13:34:59.999Z</time></trkpt><trkpt lat="45.893997345559974" lon="9.244322325100901"><ele>1014.0</ele><time>2026-04-11T13:35:00.999Z</time></trkpt><trkpt lat="45.89406972352913" lon="9.244076060516715"><ele>1009.6666666666667</ele><time>2026-04-11T13:35:01.999Z</time></trkpt><trkpt lat="45.89417884389972" lon="9.243849440180382"><ele>1005.3333333333334</ele><time>2026-04-11T13:35:02.999Z</time></trkpt><trkpt lat="45.89432158045117" lon="9.24366318487167"><ele>1001.0</ele><time>2026-04-11T13:35:03.999Z</time></trkpt><trkpt lat="45.89446496821691" lon="9.243485888153739"><ele>1008.1999999999999</ele><time>2026-04-11T13:35:04.999Z</time></trkpt><trkpt lat="45.89460133314214" lon="9.243400730868702"><ele>1015.3999999999999</ele><time>2026-04-11T13:35:05.999Z</time></trkpt><trkpt lat="45.89471913061676" lon="9.243360565948798"><ele>1022.6</ele><time>2026-04-11T13:35:06.999Z</time></trkpt><trkpt lat="45.89479069707524" lon="9.243302076384772"><ele>1029.8</ele><time>2026-04-11T13:35:07.999Z</time></trkpt><trkpt lat="45.89480338697607" lon="9.243193472308361"><ele>1037.0</ele><time>2026-04-11T13:35:08.999Z</time></trkpt><trkpt lat="45.8947589343767" lon="9.243047940303267"><ele>1038.25</ele><time>2026-04-11T13:35:09.999Z</time></trkpt><trkpt lat="45.89466547618513" lon="9.242912103628251"><ele>1039.5</ele><time>2026-04-11T13:35:10.999Z</time></trkpt><trkpt lat="45.8945739321934" lon="9.242776216343911"><ele>1040.75</ele><time>2026-04-11T13:35:11.999Z</time></trkpt><trkpt lat="45.89454339702191" lon="9.242596957286944"><ele>1042.0</ele><time>2026-04-11T13:35:12.999Z</time></trkpt><trkpt lat="45.89455076204815" lon="9.242420682935071"><ele>1045.75</ele><time>2026-04-11T13:35:13.999Z</time></trkpt><trkpt lat="45.894571625354864" lon="9.242204851192122"><ele>1049.5</ele><time>2026-04-11T13:35:14.999Z</time></trkpt><trkpt lat="45.89455937268343" lon="9.24199849284641"><ele>1053.25</ele><time>2026-04-11T13:35:15.999Z</time></trkpt><trkpt lat="45.89446998911953" lon="9.24182465767383"><ele>1057.0</ele><time>2026-04-11T13:35:16.999Z</time></trkpt><trkpt lat="45.89433910134478" lon="9.241669103744881"><ele>1053.3333333333333</ele><time>2026-04-11T13:35:17.999Z</time></trkpt><trkpt lat="45.894201136766476" lon="9.241507434643802"><ele>1049.6666666666667</ele><time>2026-04-11T13:35:18.999Z</time></trkpt><trkpt lat="45.89408212318605" lon="9.241336724223592"><ele>1046.0</ele><time>2026-04-11T13:35:19.999Z</time></trkpt><trkpt lat="45.89400545383038" lon="9.241142252109764"><ele>1046.0</ele><time>2026-04-11T13:35:20.999Z</time></trkpt><trkpt lat="45.89394546076792" lon="9.240917634487808"><ele>1046.0</ele><time>2026-04-11T13:35:21.999Z</time></trkpt><trkpt lat="45.8938843987938" lon="9.24069577689011"><ele>1046.0</ele><time>2026-04-11T13:35:22.999Z</time></trkpt><trkpt lat="45.89385282213322" lon="9.240486359871511"><ele>1051.0</ele><time>2026-04-11T13:35:23.999Z</time></trkpt><trkpt lat="45.893807012329" lon="9.240319306708905"><ele>1056.0</ele><time>2026-04-11T13:35:24.999Z</time></trkpt><trkpt lat="45.8937428331394" lon="9.240190431734659"><ele>1061.0</ele><time>2026-04-11T13:35:25.999Z</time></trkpt><trkpt lat="45.89366267408603" lon="9.240075880548554"><ele>1066.0</ele><time>2026-04-11T13:35:26.999Z</time></trkpt><trkpt lat="45.89360021531739" lon="9.23995143786621"><ele>1066.0</ele><time>2026-04-11T13:35:27.999Z</time></trkpt><trkpt lat="45.89352416353456" lon="9.239822942522427"><ele>1066.0</ele><time>2026-04-11T13:35:28.999Z</time></trkpt><trkpt lat="45.89344123165492" lon="9.2397196296168"><ele>1066.0</ele><time>2026-04-11T13:35:29.999Z</time></trkpt><trkpt lat="45.89334146127265" lon="9.239658859461246"><ele>1066.0</ele><time>2026-04-11T13:35:30.999Z</time></trkpt><trkpt lat="45.893258102700585" lon="9.23956007997756"><ele>1066.0</ele><time>2026-04-11T13:35:31.999Z</time></trkpt><trkpt lat="45.89320335396315" lon="9.239452571698521"><ele>1066.8</ele><time>2026-04-11T13:35:32.999Z</time></trkpt><trkpt lat="45.89313327404632" lon="9.239338353767428"><ele>1067.6</ele><time>2026-04-11T13:35:33.999Z</time></trkpt><trkpt lat="45.89307043685494" lon="9.23923303648116"><ele>1068.4</ele><time>2026-04-11T13:35:34.999Z</time></trkpt><trkpt lat="45.89297102860732" lon="9.239227850822124"><ele>1069.2</ele><time>2026-04-11T13:35:35.999Z</time></trkpt><trkpt lat="45.89285666366473" lon="9.239287237270103"><ele>1070.0</ele><time>2026-04-11T13:35:36.999Z</time></trkpt><trkpt lat="45.8927522849062" lon="9.23932456512879"><ele>1070.0</ele><time>2026-04-11T13:35:37.998Z</time></trkpt><trkpt lat="45.89263963501954" lon="9.239326769684494"><ele>1070.0</ele><time>2026-04-11T13:35:38.998Z</time></trkpt><trkpt lat="45.89252340231072" lon="9.239309350751483"><ele>1070.0</ele><time>2026-04-11T13:35:39.998Z</time></trkpt><trkpt lat="45.89241967290603" lon="9.239263481425999"><ele>1070.0</ele><time>2026-04-11T13:35:40.998Z</time></trkpt><trkpt lat="45.89231705067894" lon="9.239250298862869"><ele>1070.0</ele><time>2026-04-11T13:35:41.998Z</time></trkpt><trkpt lat="45.892222990419036" lon="9.239195514312364"><ele>1067.6</ele><time>2026-04-11T13:35:42.998Z</time></trkpt><trkpt lat="45.892119168169486" lon="9.23914379341537"><ele>1065.2</ele><time>2026-04-11T13:35:43.998Z</time></trkpt><trkpt lat="45.892026943403785" lon="9.239070761245713"><ele>1062.8</ele><time>2026-04-11T13:35:44.998Z</time></trkpt><trkpt lat="45.8919440668429" lon="9.238978433622917"><ele>1060.4</ele><time>2026-04-11T13:35:45.998Z</time></trkpt><trkpt lat="45.89186811152956" lon="9.238863476316045"><ele>1058.0</ele><time>2026-04-11T13:35:46.998Z</time></trkpt><trkpt lat="45.89180941664422" lon="9.238725849402197"><ele>1059.2</ele><time>2026-04-11T13:35:47.998Z</time></trkpt><trkpt lat="45.89175415690162" lon="9.238593714927172"><ele>1060.4</ele><time>2026-04-11T13:35:48.998Z</time></trkpt><trkpt lat="45.89170046355106" lon="9.238463738080103"><ele>1061.6000000000001</ele><time>2026-04-11T13:35:49.998Z</time></trkpt><trkpt lat="45.89163737703654" lon="9.238343464809772"><ele>1062.8</ele><time>2026-04-11T13:35:51Z</time></trkpt><trkpt lat="45.89157096302306" lon="9.238231726330325"><ele>1064.0</ele><time>2026-04-11T13:35:52Z</time></trkpt><trkpt lat="45.89148961572675" lon="9.238138519017976"><ele>1072.0</ele><time>2026-04-11T13:35:53Z</time></trkpt><trkpt lat="45.891386377512625" lon="9.238094409358567"><ele>1080.0</ele><time>2026-04-11T13:35:54Z</time></trkpt><trkpt lat="45.89127700913941" lon="9.238101114900271"><ele>1088.0</ele><time>2026-04-11T13:35:55Z</time></trkpt><trkpt lat="45.891178386392376" lon="9.238121504869056"><ele>1096.0</ele><time>2026-04-11T13:35:56Z</time></trkpt><trkpt lat="45.891076736645516" lon="9.23813287159612"><ele>1104.0</ele><time>2026-04-11T13:35:57Z</time></trkpt><trkpt lat="45.89097106129642" lon="9.238112895150046"><ele>1100.4</ele><time>2026-04-11T13:35:58Z</time></trkpt><trkpt lat="45.89086406434601" lon="9.238064575572734"><ele>1096.8000000000002</ele><time>2026-04-11T13:35:59Z</time></trkpt><trkpt lat="45.890756466229156" lon="9.238002460348001"><ele>1093.1999999999998</ele><time>2026-04-11T13:36:00Z</time></trkpt><trkpt lat="45.8906542641846" lon="9.237938833254786"><ele>1089.6</ele><time>2026-04-11T13:36:01Z</time></trkpt><trkpt lat="45.89056590517166" lon="9.237858730455347"><ele>1086.0</ele><time>2026-04-11T13:36:02Z</time></trkpt><trkpt lat="45.890492355173954" lon="9.2377401180735"><ele>1086.0</ele><time>2026-04-11T13:36:03Z</time></trkpt><trkpt lat="45.89044318995488" lon="9.237604720014453"><ele>1086.0</ele><time>2026-04-11T13:36:04Z</time></trkpt><trkpt lat="45.89041111900423" lon="9.237464966390968"><ele>1086.0</ele><time>2026-04-11T13:36:05Z</time></trkpt><trkpt lat="45.890385447253024" lon="9.237326348080764"><ele>1086.0</ele><time>2026-04-11T13:36:06Z</time></trkpt><trkpt lat="45.89034648649947" lon="9.237197286801694"><ele>1086.0</ele><time>2026-04-11T13:36:07Z</time></trkpt><trkpt lat="45.89027377802229" lon="9.237097497068266"><ele>1088.0</ele><time>2026-04-11T13:36:08Z</time></trkpt><trkpt lat="45.89017779730234" lon="9.237036486287"><ele>1090.0</ele><time>2026-04-11T13:36:09Z</time></trkpt><trkpt lat="45.890070555328585" lon="9.23700192545903"><ele>1092.0</ele><time>2026-04-11T13:36:10Z</time></trkpt><trkpt lat="45.88996907649713" lon="9.236956669289633"><ele>1094.0</ele><time>2026-04-11T13:36:11Z</time></trkpt><trkpt lat="45.889871933551674" lon="9.23688770665702"><ele>1096.0</ele><time>2026-04-11T13:36:11.999Z</time></trkpt><trkpt lat="45.88978212874567" lon="9.236796010046586"><ele>1096.0</ele><time>2026-04-11T13:36:12.999Z</time></trkpt><trkpt lat="45.88970387142839" lon="9.23669126349357"><ele>1096.0</ele><time>2026-04-11T13:36:13.999Z</time></trkpt><trkpt lat="45.88963413916155" lon="9.236572748021038"><ele>1096.0</ele><time>2026-04-11T13:36:14.999Z</time></trkpt><trkpt lat="45.88958600827558" lon="9.236439252103368"><ele>1096.0</ele><time>2026-04-11T13:36:15.999Z</time></trkpt><trkpt lat="45.889541004938984" lon="9.236301085289204"><ele>1096.0</ele><time>2026-04-11T13:36:16.999Z</time></trkpt><trkpt lat="45.88948157424033" lon="9.236189736854291"><ele>1096.75</ele><time>2026-04-11T13:36:17.999Z</time></trkpt><trkpt lat="45.88936441891329" lon="9.236163442635508"><ele>1097.5</ele><time>2026-04-11T13:36:18.999Z</time></trkpt><trkpt lat="45.88924851349118" lon="9.23621596898555"><ele>1098.25</ele><time>2026-04-11T13:36:19.999Z</time></trkpt><trkpt lat="45.88914048284179" lon="9.236201796522655"><ele>1099.0</ele><time>2026-04-11T13:36:20.999Z</time></trkpt><trkpt lat="45.88904371066524" lon="9.23612254471799"><ele>1099.0</ele><time>2026-04-11T13:36:21.999Z</time></trkpt><trkpt lat="45.88896005145971" lon="9.236013933818754"><ele>1099.0</ele><time>2026-04-11T13:36:22.999Z</time></trkpt><trkpt lat="45.88887798409897" lon="9.235905298404987"><ele>1099.0</ele><time>2026-04-11T13:36:23.999Z</time></trkpt><trkpt lat="45.888792564579504" lon="9.235794061526446"><ele>1099.0</ele><time>2026-04-11T13:36:24.999Z</time></trkpt><trkpt lat="45.88871323583818" lon="9.23567106656994"><ele>1106.25</ele><time>2026-04-11T13:36:25.999Z</time></trkpt><trkpt lat="45.888644433287396" lon="9.235528639188313"><ele>1113.5</ele><time>2026-04-11T13:36:26.999Z</time></trkpt><trkpt lat="45.88859289005506" lon="9.235362412897057"><ele>1120.75</ele><time>2026-04-11T13:36:27.999Z</time></trkpt><trkpt lat="45.88855219167331" lon="9.235193564343984"><ele>1128.0</ele><time>2026-04-11T13:36:28.999Z</time></trkpt><trkpt lat="45.888517807278205" lon="9.235024929763753"><ele>1128.0</ele><time>2026-04-11T13:36:29.999Z</time></trkpt><trkpt lat="45.888485182859625" lon="9.23486021460014"><ele>1128.0</ele><time>2026-04-11T13:36:30.999Z</time></trkpt><trkpt lat="45.888453841867545" lon="9.234700367166738"><ele>1128.0</ele><time>2026-04-11T13:36:31.999Z</time></trkpt><trkpt lat="45.8884277233632" lon="9.23454335507793"><ele>1128.0</ele><time>2026-04-11T13:36:32.999Z</time></trkpt><trkpt lat="45.888400329393484" lon="9.234387435770525"><ele>1124.5</ele><time>2026-04-11T13:36:33.999Z</time></trkpt><trkpt lat="45.8883725872927" lon="9.234232591663023"><ele>1121.0</ele><time>2026-04-11T13:36:34.999Z</time></trkpt><trkpt lat="45.88834368927906" lon="9.234074894846236"><ele>1117.5</ele><time>2026-04-11T13:36:35.999Z</time></trkpt><trkpt lat="45.88829992681187" lon="9.233920269404466"><ele>1114.0</ele><time>2026-04-11T13:36:36.999Z</time></trkpt><trkpt lat="45.888239387362205" lon="9.233769766785993"><ele>1114.0</ele><time>2026-04-11T13:36:37.999Z</time></trkpt><trkpt lat="45.88816528339975" lon="9.233625474964631"><ele>1114.0</ele><time>2026-04-11T13:36:38.999Z</time></trkpt><trkpt lat="45.88808931426039" lon="9.233478510047973"><ele>1114.0</ele><time>2026-04-11T13:36:39.999Z</time></trkpt><trkpt lat="45.88800868167956" lon="9.233332580289522"><ele>1114.0</ele><time>2026-04-11T13:36:40.999Z</time></trkpt><trkpt lat="45.88792375416902" lon="9.233187220311137"><ele>1119.75</ele><time>2026-04-11T13:36:41.999Z</time></trkpt><trkpt lat="45.88784150579603" lon="9.233040646566943"><ele>1125.5</ele><time>2026-04-11T13:36:42.999Z</time></trkpt><trkpt lat="45.88776281666921" lon="9.2328977625826"><ele>1131.25</ele><time>2026-04-11T13:36:43.999Z</time></trkpt><trkpt lat="45.887687111986494" lon="9.232755523397245"><ele>1137.0</ele><time>2026-04-11T13:36:44.999Z</time></trkpt><trkpt lat="45.887607596410675" lon="9.232619129019183"><ele>1135.25</ele><time>2026-04-11T13:36:45.999Z</time></trkpt><trkpt lat="45.88752846844615" lon="9.232484782934721"><ele>1133.5</ele><time>2026-04-11T13:36:46.999Z</time></trkpt><trkpt lat="45.88743726166554" lon="9.232370925259005"><ele>1131.75</ele><time>2026-04-11T13:36:47.999Z</time></trkpt><trkpt lat="45.88734268474155" lon="9.232265592186543"><ele>1130.0</ele><time>2026-04-11T13:36:48.999Z</time></trkpt><trkpt lat="45.887237189501654" lon="9.232179910914326"><ele>1130.0</ele><time>2026-04-11T13:36:49.999Z</time></trkpt><trkpt lat="45.887116999744755" lon="9.232124193152819"><ele>1130.0</ele><time>2026-04-11T13:36:50.999Z</time></trkpt><trkpt lat="45.88698891925315" lon="9.232084112991734"><ele>1130.0</ele><time>2026-04-11T13:36:51.999Z</time></trkpt><trkpt lat="45.886864698071584" lon="9.232060719794069"><ele>1130.0</ele><time>2026-04-11T13:36:52.999Z</time></trkpt><trkpt lat="45.88674055529569" lon="9.232056298198993"><ele>1128.25</ele><time>2026-04-11T13:36:53.999Z</time></trkpt><trkpt lat="45.88661232209335" lon="9.232051391225669"><ele>1126.5</ele><time>2026-04-11T13:36:54.999Z</time></trkpt><trkpt lat="45.88648403657748" lon="9.232048364655805"><ele>1124.75</ele><time>2026-04-11T13:36:55.999Z</time></trkpt><trkpt lat="45.886355748108436" lon="9.232036674601254"><ele>1123.0</ele><time>2026-04-11T13:36:56.999Z</time></trkpt><trkpt lat="45.886226982423544" lon="9.23202196391936"><ele>1123.0</ele><time>2026-04-11T13:36:57.999Z</time></trkpt><trkpt lat="45.88609795111574" lon="9.231991224388649"><ele>1123.0</ele><time>2026-04-11T13:36:58.999Z</time></trkpt><trkpt lat="45.88597340285378" lon="9.231944090610837"><ele>1123.0</ele><time>2026-04-11T13:36:59.999Z</time></trkpt><trkpt lat="45.885851442309615" lon="9.23188788965587"><ele>1123.0</ele><time>2026-04-11T13:37:00.999Z</time></trkpt><trkpt lat="45.88572774120301" lon="9.23183096989976"><ele>1120.75</ele><time>2026-04-11T13:37:01.999Z</time></trkpt><trkpt lat="45.88560493221691" lon="9.231773109169641"><ele>1118.5</ele><time>2026-04-11T13:37:02.999Z</time></trkpt><trkpt lat="45.88548035978796" lon="9.231719989355838"><ele>1116.25</ele><time>2026-04-11T13:37:03.999Z</time></trkpt><trkpt lat="45.88535744640929" lon="9.231659504030775"><ele>1114.0</ele><time>2026-04-11T13:37:04.999Z</time></trkpt><trkpt lat="45.88523356522175" lon="9.231603377913967"><ele>1114.0</ele><time>2026-04-11T13:37:05.999Z</time></trkpt><trkpt lat="45.8851096495807" lon="9.231551800742054"><ele>1114.0</ele><time>2026-04-11T13:37:06.999Z</time></trkpt><trkpt lat="45.88498708060896" lon="9.23149905662462"><ele>1114.0</ele><time>2026-04-11T13:37:07.999Z</time></trkpt><trkpt lat="45.88486838040316" lon="9.231450297164598"><ele>1114.0</ele><time>2026-04-11T13:37:08.999Z</time></trkpt><trkpt lat="45.88475272338827" lon="9.231406279588937"><ele>1119.25</ele><time>2026-04-11T13:37:09.999Z</time></trkpt><trkpt lat="45.88463278589896" lon="9.231390695624336"><ele>1124.5</ele><time>2026-04-11T13:37:10.999Z</time></trkpt><trkpt lat="45.88451388490271" lon="9.23138661198082"><ele>1129.75</ele><time>2026-04-11T13:37:11.999Z</time></trkpt><trkpt lat="45.88439447245371" lon="9.23139547725337"><ele>1135.0</ele><time>2026-04-11T13:37:12.999Z</time></trkpt><trkpt lat="45.88427861098524" lon="9.231419508037288"><ele>1134.0</ele><time>2026-04-11T13:37:13.999Z</time></trkpt><trkpt lat="45.88416271966936" lon="9.231448644372504"><ele>1133.0</ele><time>2026-04-11T13:37:14.999Z</time></trkpt><trkpt lat="45.88405089367604" lon="9.231477968345699"><ele>1132.0</ele><time>2026-04-11T13:37:15.999Z</time></trkpt><trkpt lat="45.88394045757751" lon="9.231502658540862"><ele>1131.0</ele><time>2026-04-11T13:37:16.999Z</time></trkpt><trkpt lat="45.88383013006737" lon="9.231517096414793"><ele>1131.0</ele><time>2026-04-11T13:37:17.999Z</time></trkpt><trkpt lat="45.88372134742356" lon="9.231520858491056"><ele>1131.0</ele><time>2026-04-11T13:37:18.999Z</time></trkpt><trkpt lat="45.88361382601416" lon="9.231508914625072"><ele>1131.0</ele><time>2026-04-11T13:37:19.999Z</time></trkpt><trkpt lat="45.8835183310591" lon="9.231485942148238"><ele>1131.0</ele><time>2026-04-11T13:37:20.999Z</time></trkpt><trkpt lat="45.8834314627846" lon="9.231453504532302"><ele>1131.0</ele><time>2026-04-11T13:37:21.999Z</time></trkpt><trkpt lat="45.88335095089438" lon="9.231407539600882"><ele>1128.3999999999999</ele><time>2026-04-11T13:37:22.999Z</time></trkpt><trkpt lat="45.88327767563502" lon="9.231340847401718"><ele>1125.8</ele><time>2026-04-11T13:37:23.999Z</time></trkpt><trkpt lat="45.88321892237878" lon="9.231237382800844"><ele>1123.1999999999998</ele><time>2026-04-11T13:37:24.999Z</time></trkpt><trkpt lat="45.88315719088352" lon="9.231138727863234"><ele>1120.6</ele><time>2026-04-11T13:37:25.999Z</time></trkpt><trkpt lat="45.88309334223715" lon="9.231036133804228"><ele>1118.0</ele><time>2026-04-11T13:37:26.999Z</time></trkpt><trkpt lat="45.88306172594128" lon="9.230907350659317"><ele>1118.0</ele><time>2026-04-11T13:37:27.999Z</time></trkpt><trkpt lat="45.883062109778606" lon="9.23077487762395"><ele>1118.0</ele><time>2026-04-11T13:37:28.999Z</time></trkpt><trkpt lat="45.883053252535134" lon="9.230646120629606"><ele>1118.0</ele><time>2026-04-11T13:37:29.999Z</time></trkpt><trkpt lat="45.88302977406928" lon="9.23052431704608"><ele>1118.0</ele><time>2026-04-11T13:37:30.999Z</time></trkpt><trkpt lat="45.88302359503468" lon="9.23040684879827"><ele>1118.0</ele><time>2026-04-11T13:37:31.999Z</time></trkpt><trkpt lat="45.88301394795247" lon="9.230294428978997"><ele>1118.0</ele><time>2026-04-11T13:37:32.999Z</time></trkpt><trkpt lat="45.883002108085314" lon="9.23018305235714"><ele>1119.2</ele><time>2026-04-11T13:37:33.999Z</time></trkpt><trkpt lat="45.8829858508554" lon="9.230085900649566"><ele>1120.4</ele><time>2026-04-11T13:37:34.999Z</time></trkpt><trkpt lat="45.882950951924194" lon="9.229937779554154"><ele>1121.6000000000001</ele><time>2026-04-11T13:37:36.999Z</time></trkpt><trkpt lat="45.882910791931046" lon="9.229803662338853"><ele>1122.8</ele><time>2026-04-11T13:37:38.998Z</time></trkpt><trkpt lat="45.88287984353674" lon="9.229682094521001"><ele>1124.0</ele><time>2026-04-11T13:37:40.998Z</time></trkpt><trkpt lat="45.88284491024529" lon="9.229550527414858"><ele>1124.0</ele><time>2026-04-11T13:37:42.998Z</time></trkpt><trkpt lat="45.8828174833732" lon="9.229411009489388"><ele>1124.0</ele><time>2026-04-11T13:37:44.998Z</time></trkpt><trkpt lat="45.88280451908758" lon="9.22928019598469"><ele>1124.0</ele><time>2026-04-11T13:37:46.998Z</time></trkpt><trkpt lat="45.88284638284127" lon="9.229168385623339"><ele>1124.0</ele><time>2026-04-11T13:37:48.998Z</time></trkpt><trkpt lat="45.88293482726084" lon="9.229071106872462"><ele>1124.0</ele><time>2026-04-11T13:37:50.998Z</time></trkpt><trkpt lat="45.882989928911776" lon="9.229011338586892"><ele>1123.4</ele><time>2026-04-11T13:37:51.998Z</time></trkpt><trkpt lat="45.883061183798965" lon="9.228939010057662"><ele>1122.8000000000002</ele><time>2026-04-11T13:37:52.998Z</time></trkpt><trkpt lat="45.88313587635533" lon="9.228851928937093"><ele>1122.1999999999998</ele><time>2026-04-11T13:37:53.998Z</time></trkpt><trkpt lat="45.88320507906745" lon="9.228736064777658"><ele>1121.6</ele><time>2026-04-11T13:37:54.998Z</time></trkpt><trkpt lat="45.88329914565735" lon="9.22863602473642"><ele>1121.0</ele><time>2026-04-11T13:37:55.998Z</time></trkpt><trkpt lat="45.883418762111766" lon="9.228586792972198"><ele>1119.6666666666667</ele><time>2026-04-11T13:37:57Z</time></trkpt><trkpt lat="45.88356525644114" lon="9.228580795311641"><ele>1118.3333333333333</ele><time>2026-04-11T13:37:58Z</time></trkpt><trkpt lat="45.883728894713876" lon="9.228590481469931"><ele>1117.0</ele><time>2026-04-11T13:37:59Z</time></trkpt><trkpt lat="45.88389385863107" lon="9.228595072939102"><ele>1117.0</ele><time>2026-04-11T13:38:00Z</time></trkpt><trkpt lat="45.884059294687304" lon="9.228572080800154"><ele>1117.0</ele><time>2026-04-11T13:38:01Z</time></trkpt><trkpt lat="45.884225875088724" lon="9.2284789650092"><ele>1117.0</ele><time>2026-04-11T13:38:02Z</time></trkpt><trkpt lat="45.884406263200155" lon="9.228309135235618"><ele>1112.0</ele><time>2026-04-11T13:38:03Z</time></trkpt><trkpt lat="45.884602396488894" lon="9.228132622249014"><ele>1107.0</ele><time>2026-04-11T13:38:04Z</time></trkpt><trkpt lat="45.884780920305936" lon="9.227996309645672"><ele>1102.0</ele><time>2026-04-11T13:38:05Z</time></trkpt><trkpt lat="45.88492905600709" lon="9.22788661091912"><ele>1102.0</ele><time>2026-04-11T13:38:06Z</time></trkpt><trkpt lat="45.88505906710209" lon="9.227761955833193"><ele>1102.0</ele><time>2026-04-11T13:38:07Z</time></trkpt><trkpt lat="45.88519629640393" lon="9.227665598889224"><ele>1102.0</ele><time>2026-04-11T13:38:08Z</time></trkpt><trkpt lat="45.8853222085191" lon="9.227578923046478"><ele>1102.0</ele><time>2026-04-11T13:38:09Z</time></trkpt><trkpt lat="45.88543845275018" lon="9.227486218633146"><ele>1102.3333333333333</ele><time>2026-04-11T13:38:10Z</time></trkpt><trkpt lat="45.88555671561084" lon="9.227395601351615"><ele>1102.6666666666667</ele><time>2026-04-11T13:38:11Z</time></trkpt><trkpt lat="45.88562189750559" lon="9.227185826744947"><ele>1103.0</ele><time>2026-04-11T13:38:12Z</time></trkpt><trkpt lat="45.885610864516394" lon="9.226919772984147"><ele>1103.0</ele><time>2026-04-11T13:38:13Z</time></trkpt><trkpt lat="45.8856342279315" lon="9.226620793721962"><ele>1103.0</ele><time>2026-04-11T13:38:14Z</time></trkpt><trkpt lat="45.88567116132452" lon="9.226332168506183"><ele>1103.0</ele><time>2026-04-11T13:38:15Z</time></trkpt><trkpt lat="45.885731521556494" lon="9.226084875963103"><ele>1098.0</ele><time>2026-04-11T13:38:15.999Z</time></trkpt><trkpt lat="45.88581118571804" lon="9.225867968817953"><ele>1093.0</ele><time>2026-04-11T13:38:16.999Z</time></trkpt><trkpt lat="45.885916161016645" lon="9.225650355996775"><ele>1088.0</ele><time>2026-04-11T13:38:17.999Z</time></trkpt><trkpt lat="45.88604973969001" lon="9.225443813037897"><ele>1088.0</ele><time>2026-04-11T13:38:18.999Z</time></trkpt><trkpt lat="45.88620169705703" lon="9.225225084740979"><ele>1088.0</ele><time>2026-04-11T13:38:19.999Z</time></trkpt><trkpt lat="45.88636140507336" lon="9.224972327353072"><ele>1082.0</ele><time>2026-04-11T13:38:20.999Z</time></trkpt><trkpt lat="45.88651029540176" lon="9.22475237533111"><ele>1076.0</ele><time>2026-04-11T13:38:21.999Z</time></trkpt><trkpt lat="45.886646168438304" lon="9.224554983375956"><ele>1070.0</ele><time>2026-04-11T13:38:22.999Z</time></trkpt><trkpt lat="45.886771913554924" lon="9.224377716355121"><ele>1070.0</ele><time>2026-04-11T13:38:23.999Z</time></trkpt><trkpt lat="45.8868934082822" lon="9.224196807412756"><ele>1070.0</ele><time>2026-04-11T13:38:24.999Z</time></trkpt><trkpt lat="45.887009366254134" lon="9.224033545011451"><ele>1070.0</ele><time>2026-04-11T13:38:25.999Z</time></trkpt><trkpt lat="45.887146838628055" lon="9.22393952657043"><ele>1066.0</ele><time>2026-04-11T13:38:26.999Z</time></trkpt><trkpt lat="45.887285259130856" lon="9.223890298476123"><ele>1062.0</ele><time>2026-04-11T13:38:27.999Z</time></trkpt><trkpt lat="45.88741984934423" lon="9.223899121564076"><ele>1058.0</ele><time>2026-04-11T13:38:28.999Z</time></trkpt><trkpt lat="45.88755210552002" lon="9.223963864186832"><ele>1054.0</ele><time>2026-04-11T13:38:29.999Z</time></trkpt><trkpt lat="45.88769228526471" lon="9.224085036296712"><ele>1054.0</ele><time>2026-04-11T13:38:30.999Z</time></trkpt><trkpt lat="45.88784307697399" lon="9.22420259590675"><ele>1054.0</ele><time>2026-04-11T13:38:31.999Z</time></trkpt><trkpt lat="45.888001649019394" lon="9.224303653720598"><ele>1054.0</ele><time>2026-04-11T13:38:32.999Z</time></trkpt><trkpt lat="45.888174594501514" lon="9.224375920503736"><ele>1054.0</ele><time>2026-04-11T13:38:33.999Z</time></trkpt><trkpt lat="45.88834900155392" lon="9.224398745479581"><ele>1054.0</ele><time>2026-04-11T13:38:34.999Z</time></trkpt><trkpt lat="45.88851484706381" lon="9.224356158139464"><ele>1054.0</ele><time>2026-04-11T13:38:35.999Z</time></trkpt><trkpt lat="45.88866007939727" lon="9.224269661856862"><ele>1051.0</ele><time>2026-04-11T13:38:36.999Z</time></trkpt><trkpt lat="45.88880956033212" lon="9.224226201677613"><ele>1048.0</ele><time>2026-04-11T13:38:37.999Z</time></trkpt><trkpt lat="45.88894910051482" lon="9.224192935692178"><ele>1045.0</ele><time>2026-04-11T13:38:38.999Z</time></trkpt><trkpt lat="45.8890859637804" lon="9.224200123211197"><ele>1042.0</ele><time>2026-04-11T13:38:39.999Z</time></trkpt><trkpt lat="45.88921648796076" lon="9.22428677088158"><ele>1041.75</ele><time>2026-04-11T13:38:40.999Z</time></trkpt><trkpt lat="45.889327691730855" lon="9.224397487978779"><ele>1041.5</ele><time>2026-04-11T13:38:41.999Z</time></trkpt><trkpt lat="45.88940312596758" lon="9.22454347165769"><ele>1041.25</ele><time>2026-04-11T13:38:42.999Z</time></trkpt><trkpt lat="45.88946391204066" lon="9.224706370665762"><ele>1041.0</ele><time>2026-04-11T13:38:43.999Z</time></trkpt><trkpt lat="45.889490212051506" lon="9.224876733711312"><ele>1041.0</ele><time>2026-04-11T13:38:44.999Z</time></trkpt><trkpt lat="45.88949743482111" lon="9.22502217196056"><ele>1041.0</ele><time>2026-04-11T13:38:45.999Z</time></trkpt><trkpt lat="45.889534201723755" lon="9.225133795060822"><ele>1041.0</ele><time>2026-04-11T13:38:46.999Z</time></trkpt><trkpt lat="45.88960938706077" lon="9.225176084608073"><ele>1041.0</ele><time>2026-04-11T13:38:47.999Z</time></trkpt><trkpt lat="45.88970663364703" lon="9.225137120860289"><ele>1041.0</ele><time>2026-04-11T13:38:48.999Z</time></trkpt><trkpt lat="45.88979971145678" lon="9.225033854337099"><ele>1041.0</ele><time>2026-04-11T13:38:49.999Z</time></trkpt><trkpt lat="45.889901439551174" lon="9.224912670923596"><ele>1041.0</ele><time>2026-04-11T13:38:50.999Z</time></trkpt><trkpt lat="45.89001273307461" lon="9.22478366030247"><ele>1041.0</ele><time>2026-04-11T13:38:51.999Z</time></trkpt><trkpt lat="45.89010969152999" lon="9.224612024608467"><ele>1041.0</ele><time>2026-04-11T13:38:52.999Z</time></trkpt><trkpt lat="45.89017660213194" lon="9.224437655878662"><ele>1036.5</ele><time>2026-04-11T13:38:53.999Z</time></trkpt><trkpt lat="45.89024579838868" lon="9.224307093425113"><ele>1032.0</ele><time>2026-04-11T13:38:54.999Z</time></trkpt><trkpt lat="45.8903427566406" lon="9.22421260639367"><ele>1027.5</ele><time>2026-04-11T13:38:55.999Z</time></trkpt><trkpt lat="45.89046676105564" lon="9.224145074750476"><ele>1023.0</ele><time>2026-04-11T13:38:56.999Z</time></trkpt><trkpt lat="45.89060337231802" lon="9.224092255393916"><ele>1023.0</ele><time>2026-04-11T13:38:57.999Z</time></trkpt><trkpt lat="45.89074236816179" lon="9.224025496018498"><ele>1023.0</ele><time>2026-04-11T13:38:58.999Z</time></trkpt><trkpt lat="45.89085961793911" lon="9.223943895186663"><ele>1023.0</ele><time>2026-04-11T13:38:59.999Z</time></trkpt><trkpt lat="45.89097740312909" lon="9.223903697878535"><ele>1023.0</ele><time>2026-04-11T13:39:00.999Z</time></trkpt><trkpt lat="45.891101353359666" lon="9.223951519910534"><ele>1019.3333333333333</ele><time>2026-04-11T13:39:01.999Z</time></trkpt><trkpt lat="45.89123281357854" lon="9.224048312134435"><ele>1015.6666666666666</ele><time>2026-04-11T13:39:02.999Z</time></trkpt><trkpt lat="45.89137937231258" lon="9.22411967101249"><ele>1012.0</ele><time>2026-04-11T13:39:03.999Z</time></trkpt><trkpt lat="45.89152868707511" lon="9.224177868666"><ele>1012.0</ele><time>2026-04-11T13:39:04.999Z</time></trkpt><trkpt lat="45.89167526877187" lon="9.224242110546871"><ele>1012.0</ele><time>2026-04-11T13:39:05.999Z</time></trkpt><trkpt lat="45.8918084252821" lon="9.22433673671542"><ele>1012.0</ele><time>2026-04-11T13:39:06.999Z</time></trkpt><trkpt lat="45.891909924060776" lon="9.22449377993832"><ele>1009.0</ele><time>2026-04-11T13:39:07.999Z</time></trkpt><trkpt lat="45.89197437399604" lon="9.224701197822611"><ele>1006.0</ele><time>2026-04-11T13:39:08.999Z</time></trkpt><trkpt lat="45.89203384202506" lon="9.224891828180228"><ele>1003.0</ele><time>2026-04-11T13:39:09.999Z</time></trkpt><trkpt lat="45.892105631965485" lon="9.22505917606616"><ele>1000.0</ele><time>2026-04-11T13:39:10.999Z</time></trkpt><trkpt lat="45.8921648291098" lon="9.225222529447588"><ele>1000.0</ele><time>2026-04-11T13:39:11.999Z</time></trkpt><trkpt lat="45.89222042581349" lon="9.22535743121456"><ele>1000.0</ele><time>2026-04-11T13:39:12.999Z</time></trkpt><trkpt lat="45.8923236244444" lon="9.225423154634028"><ele>1000.0</ele><time>2026-04-11T13:39:13.999Z</time></trkpt><trkpt lat="45.89249552876764" lon="9.225413102317361"><ele>1000.0</ele><time>2026-04-11T13:39:14.999Z</time></trkpt><trkpt lat="45.89265445061016" lon="9.225416026444222"><ele>996.5</ele><time>2026-04-11T13:39:15.999Z</time></trkpt><trkpt lat="45.8927923364475" lon="9.225499108861829"><ele>993.0</ele><time>2026-04-11T13:39:16.999Z</time></trkpt><trkpt lat="45.89292364912291" lon="9.225561752553693"><ele>989.5</ele><time>2026-04-11T13:39:17.999Z</time></trkpt><trkpt lat="45.89305582450341" lon="9.225536345514602"><ele>986.0</ele><time>2026-04-11T13:39:18.999Z</time></trkpt><trkpt lat="45.893179690219505" lon="9.225427029206251"><ele>986.0</ele><time>2026-04-11T13:39:19.999Z</time></trkpt><trkpt lat="45.89329332282655" lon="9.22527312129954"><ele>986.0</ele><time>2026-04-11T13:39:20.999Z</time></trkpt><trkpt lat="45.893375519809055" lon="9.225077639494186"><ele>986.0</ele><time>2026-04-11T13:39:21.999Z</time></trkpt><trkpt lat="45.8934276995659" lon="9.224842523925526"><ele>985.3333333333334</ele><time>2026-04-11T13:39:22.999Z</time></trkpt><trkpt lat="45.89346719195629" lon="9.224578202160943"><ele>984.6666666666667</ele><time>2026-04-11T13:39:23.999Z</time></trkpt><trkpt lat="45.89348945385296" lon="9.22427403945777"><ele>984.0</ele><time>2026-04-11T13:39:24.999Z</time></trkpt><trkpt lat="45.89351465079389" lon="9.223937255075159"><ele>984.0</ele><time>2026-04-11T13:39:25.999Z</time></trkpt><trkpt lat="45.89355709454202" lon="9.223590236172798"><ele>984.0</ele><time>2026-04-11T13:39:26.999Z</time></trkpt><trkpt lat="45.893600636366095" lon="9.223242948182332"><ele>985.0</ele><time>2026-04-11T13:39:27.999Z</time></trkpt><trkpt lat="45.89363895604752" lon="9.22289153659971"><ele>986.0</ele><time>2026-04-11T13:39:28.999Z</time></trkpt><trkpt lat="45.89367442410505" lon="9.222549629653946"><ele>986.3333333333334</ele><time>2026-04-11T13:39:29.999Z</time></trkpt><trkpt lat="45.89371090556809" lon="9.222231518245833"><ele>986.6666666666667</ele><time>2026-04-11T13:39:30.999Z</time></trkpt><trkpt lat="45.89374837529462" lon="9.221935520341118"><ele>987.0</ele><time>2026-04-11T13:39:31.999Z</time></trkpt><trkpt lat="45.893781861885316" lon="9.221646203526005"><ele>985.6666666666667</ele><time>2026-04-11T13:39:32.999Z</time></trkpt><trkpt lat="45.89381232222002" lon="9.221345865542853"><ele>984.3333333333334</ele><time>2026-04-11T13:39:33.999Z</time></trkpt><trkpt lat="45.89384178048852" lon="9.221043949224178"><ele>983.0</ele><time>2026-04-11T13:39:34.999Z</time></trkpt><trkpt lat="45.893869230859735" lon="9.220745702168498"><ele>980.6666666666667</ele><time>2026-04-11T13:39:35.999Z</time></trkpt><trkpt lat="45.893896409906766" lon="9.220466243711265"><ele>978.3333333333333</ele><time>2026-04-11T13:39:36.999Z</time></trkpt><trkpt lat="45.8939544090658" lon="9.220212465713384"><ele>976.0</ele><time>2026-04-11T13:39:37.999Z</time></trkpt><trkpt lat="45.89401095813086" lon="9.219963899802643"><ele>974.6666666666666</ele><time>2026-04-11T13:39:38.999Z</time></trkpt><trkpt lat="45.89410561841261" lon="9.219734251510923"><ele>973.3333333333333</ele><time>2026-04-11T13:39:39.999Z</time></trkpt><trkpt lat="45.89420328650547" lon="9.219505037602055"><ele>972.0</ele><time>2026-04-11T13:39:40.999Z</time></trkpt><trkpt lat="45.89430426251064" lon="9.2192746832446"><ele>974.6666666666667</ele><time>2026-04-11T13:39:41.998Z</time></trkpt><trkpt lat="45.89441559476121" lon="9.219053062920876"><ele>977.3333333333334</ele><time>2026-04-11T13:39:42.998Z</time></trkpt><trkpt lat="45.89453262631777" lon="9.218839746299029"><ele>980.0</ele><time>2026-04-11T13:39:43.998Z</time></trkpt><trkpt lat="45.8946512605686" lon="9.218632806480263"><ele>980.0</ele><time>2026-04-11T13:39:44.998Z</time></trkpt><trkpt lat="45.89477133390297" lon="9.218430109459755"><ele>980.0</ele><time>2026-04-11T13:39:45.998Z</time></trkpt><trkpt lat="45.89489151992172" lon="9.218226717482342"><ele>980.0</ele><time>2026-04-11T13:39:46.998Z</time></trkpt><trkpt lat="45.89500487057958" lon="9.218017510892023"><ele>988.0</ele><time>2026-04-11T13:39:47.998Z</time></trkpt><trkpt lat="45.89508868171218" lon="9.217792732212818"><ele>996.0</ele><time>2026-04-11T13:39:48.998Z</time></trkpt><trkpt lat="45.89513969230266" lon="9.217571708677287"><ele>1004.0</ele><time>2026-04-11T13:39:49.998Z</time></trkpt><trkpt lat="45.89514667248383" lon="9.217358792580502"><ele>1002.75</ele><time>2026-04-11T13:39:50.998Z</time></trkpt><trkpt lat="45.89509495941127" lon="9.217149606668512"><ele>1001.5</ele><time>2026-04-11T13:39:51.998Z</time></trkpt><trkpt lat="45.89500765391223" lon="9.21698145246212"><ele>1000.25</ele><time>2026-04-11T13:39:52.998Z</time></trkpt><trkpt lat="45.89496017395011" lon="9.216833589300297"><ele>999.0</ele><time>2026-04-11T13:39:53.998Z</time></trkpt><trkpt lat="45.89497534034396" lon="9.216685319345306"><ele>997.0</ele><time>2026-04-11T13:39:54.998Z</time></trkpt><trkpt lat="45.89506272921584" lon="9.216575446046152"><ele>995.0</ele><time>2026-04-11T13:39:55.998Z</time></trkpt><trkpt lat="45.895130082779275" lon="9.216416576383246"><ele>993.0</ele><time>2026-04-11T13:39:56.998Z</time></trkpt><trkpt lat="45.895138139401524" lon="9.216185158930386"><ele>991.0</ele><time>2026-04-11T13:39:57.998Z</time></trkpt><trkpt lat="45.89517077071746" lon="9.215959043957742"><ele>991.0</ele><time>2026-04-11T13:39:58.998Z</time></trkpt><trkpt lat="45.89524182634622" lon="9.215757009883141"><ele>991.0</ele><time>2026-04-11T13:39:59.998Z</time></trkpt><trkpt lat="45.89532859047581" lon="9.215587967153953"><ele>991.0</ele><time>2026-04-11T13:40:00.998Z</time></trkpt><trkpt lat="45.895430761953214" lon="9.215447798055381"><ele>991.0</ele><time>2026-04-11T13:40:01.998Z</time></trkpt><trkpt lat="45.895559371432846" lon="9.215337560511287"><ele>991.3333333333333</ele><time>2026-04-11T13:40:03Z</time></trkpt><trkpt lat="45.895699262891874" lon="9.215225923322183"><ele>991.6666666666667</ele><time>2026-04-11T13:40:04Z</time></trkpt><trkpt lat="45.895823485541456" lon="9.215080938916284"><ele>992.0</ele><time>2026-04-11T13:40:05Z</time></trkpt><trkpt lat="45.89593591856491" lon="9.214917042162345"><ele>988.3333333333334</ele><time>2026-04-11T13:40:06Z</time></trkpt><trkpt lat="45.89603397395356" lon="9.214726025936098"><ele>984.6666666666667</ele><time>2026-04-11T13:40:07Z</time></trkpt><trkpt lat="45.89609771492266" lon="9.21449866295631"><ele>981.0</ele><time>2026-04-11T13:40:08Z</time></trkpt><trkpt lat="45.8961287930461" lon="9.214238727436461"><ele>979.6666666666667</ele><time>2026-04-11T13:40:09Z</time></trkpt><trkpt lat="45.89615377758156" lon="9.21397102214191"><ele>978.3333333333334</ele><time>2026-04-11T13:40:10Z</time></trkpt><trkpt lat="45.89620217500924" lon="9.21370958208863"><ele>977.0</ele><time>2026-04-11T13:40:11Z</time></trkpt><trkpt lat="45.89625416734898" lon="9.213452406571182"><ele>977.0</ele><time>2026-04-11T13:40:12Z</time></trkpt><trkpt lat="45.89630432120106" lon="9.213195618854218"><ele>977.0</ele><time>2026-04-11T13:40:13Z</time></trkpt><trkpt lat="45.896382682728515" lon="9.212957619697525"><ele>977.0</ele><time>2026-04-11T13:40:14Z</time></trkpt><trkpt lat="45.89644512235098" lon="9.212713329198547"><ele>977.3333333333334</ele><time>2026-04-11T13:40:15Z</time></trkpt><trkpt lat="45.89649726101502" lon="9.21246581571903"><ele>977.6666666666667</ele><time>2026-04-11T13:40:16Z</time></trkpt><trkpt lat="45.89652244567388" lon="9.21220913833889"><ele>978.0</ele><time>2026-04-11T13:40:17Z</time></trkpt><trkpt lat="45.89655240703155" lon="9.211955603316646"><ele>977.3333333333333</ele><time>2026-04-11T13:40:18Z</time></trkpt><trkpt lat="45.89658500889595" lon="9.211698523965955"><ele>976.6666666666666</ele><time>2026-04-11T13:40:18.999Z</time></trkpt><trkpt lat="45.89661854204502" lon="9.211444113708719"><ele>976.0</ele><time>2026-04-11T13:40:19.999Z</time></trkpt><trkpt lat="45.896651671367984" lon="9.211191842316955"><ele>976.0</ele><time>2026-04-11T13:40:20.999Z</time></trkpt><trkpt lat="45.89668466085559" lon="9.210942415120023"><ele>976.0</ele><time>2026-04-11T13:40:21.999Z</time></trkpt><trkpt lat="45.89671891392501" lon="9.210694796058256"><ele>976.0</ele><time>2026-04-11T13:40:22.999Z</time></trkpt><trkpt lat="45.896751993032986" lon="9.210449281188398"><ele>979.0</ele><time>2026-04-11T13:40:23.999Z</time></trkpt><trkpt lat="45.89678337307403" lon="9.210204160404388"><ele>982.0</ele><time>2026-04-11T13:40:24.999Z</time></trkpt><trkpt lat="45.8968137741474" lon="9.209957872070785"><ele>985.0</ele><time>2026-04-11T13:40:25.999Z</time></trkpt><trkpt lat="45.89684300430025" lon="9.209712114196886"><ele>987.6666666666666</ele><time>2026-04-11T13:40:26.999Z</time></trkpt><trkpt lat="45.89689166287756" lon="9.209473426328998"><ele>990.3333333333333</ele><time>2026-04-11T13:40:27.999Z</time></trkpt><trkpt lat="45.8969076791581" lon="9.209227039949072"><ele>993.0</ele><time>2026-04-11T13:40:28.999Z</time></trkpt><trkpt lat="45.896954090445504" lon="9.208989866718925"><ele>995.0</ele><time>2026-04-11T13:40:29.999Z</time></trkpt><trkpt lat="45.896983936941545" lon="9.208748730660766"><ele>997.0</ele><time>2026-04-11T13:40:30.999Z</time></trkpt><trkpt lat="45.89699674894823" lon="9.208507072066269"><ele>999.0</ele><time>2026-04-11T13:40:31.999Z</time></trkpt><trkpt lat="45.89702458092792" lon="9.208269287842125"><ele>999.3333333333333</ele><time>2026-04-11T13:40:32.999Z</time></trkpt><trkpt lat="45.897045428352364" lon="9.208028533856963"><ele>999.6666666666666</ele><time>2026-04-11T13:40:33.999Z</time></trkpt><trkpt lat="45.89702509604186" lon="9.207789516267885"><ele>1000.0</ele><time>2026-04-11T13:40:34.999Z</time></trkpt><trkpt lat="45.89695872721746" lon="9.207555757065753"><ele>1002.6666666666666</ele><time>2026-04-11T13:40:35.999Z</time></trkpt><trkpt lat="45.8968889831077" lon="9.207319972434336"><ele>1005.3333333333333</ele><time>2026-04-11T13:40:36.999Z</time></trkpt><trkpt lat="45.896813427303904" lon="9.207080777066935"><ele>1008.0</ele><time>2026-04-11T13:40:37.999Z</time></trkpt><trkpt lat="45.89673965001684" lon="9.20682850723032"><ele>997.3333333333333</ele><time>2026-04-11T13:40:38.999Z</time></trkpt><trkpt lat="45.8966801562451" lon="9.20656199956531"><ele>986.6666666666666</ele><time>2026-04-11T13:40:39.999Z</time></trkpt><trkpt lat="45.8966096723916" lon="9.2063091558026"><ele>976.0</ele><time>2026-04-11T13:40:40.999Z</time></trkpt><trkpt lat="45.896560702371296" lon="9.20606122071106"><ele>975.0</ele><time>2026-04-11T13:40:41.999Z</time></trkpt><trkpt lat="45.89655925106283" lon="9.205809451527466"><ele>974.0</ele><time>2026-04-11T13:40:42.999Z</time></trkpt><trkpt lat="45.896581165885166" lon="9.205538274469918"><ele>973.0</ele><time>2026-04-11T13:40:43.999Z</time></trkpt><trkpt lat="45.896608989956576" lon="9.205272295595693"><ele>971.6666666666666</ele><time>2026-04-11T13:40:44.999Z</time></trkpt><trkpt lat="45.896646393049394" lon="9.205023234502063"><ele>970.3333333333333</ele><time>2026-04-11T13:40:45.999Z</time></trkpt><trkpt lat="45.89670743149667" lon="9.204794693729605"><ele>969.0</ele><time>2026-04-11T13:40:46.999Z</time></trkpt><trkpt lat="45.896787390035136" lon="9.204592277905173"><ele>969.0</ele><time>2026-04-11T13:40:47.999Z</time></trkpt><trkpt lat="45.89688266209376" lon="9.2044039740831"><ele>969.0</ele><time>2026-04-11T13:40:48.999Z</time></trkpt><trkpt lat="45.89701017080842" lon="9.204249013733975"><ele>969.0</ele><time>2026-04-11T13:40:49.999Z</time></trkpt><trkpt lat="45.89713438299603" lon="9.204125095489749"><ele>969.0</ele><time>2026-04-11T13:40:50.999Z</time></trkpt><trkpt lat="45.89725601625378" lon="9.20403620510394"><ele>969.0000000000001</ele><time>2026-04-11T13:40:51.999Z</time></trkpt><trkpt lat="45.8973680687499" lon="9.204000710524461"><ele>969.0000000000001</ele><time>2026-04-11T13:40:52.999Z</time></trkpt><trkpt lat="45.89745936596627" lon="9.20393843489491"><ele>969.0</ele><time>2026-04-11T13:40:53.999Z</time></trkpt><trkpt lat="45.89754588195217" lon="9.203893048597621"><ele>969.0</ele><time>2026-04-11T13:40:54.999Z</time></trkpt><trkpt lat="45.89763160336006" lon="9.203853012949928"><ele>970.6</ele><time>2026-04-11T13:40:55.999Z</time></trkpt><trkpt lat="45.89772730642794" lon="9.203826279849935"><ele>972.2</ele><time>2026-04-11T13:40:56.999Z</time></trkpt><trkpt lat="45.89783704656784" lon="9.203826034263086"><ele>973.8000000000001</ele><time>2026-04-11T13:40:57.999Z</time></trkpt><trkpt lat="45.89793903151183" lon="9.203870381125483"><ele>975.4000000000001</ele><time>2026-04-11T13:40:58.999Z</time></trkpt><trkpt lat="45.89803313013871" lon="9.203959889153671"><ele>977.0</ele><time>2026-04-11T13:40:59.999Z</time></trkpt><trkpt lat="45.898107957611636" lon="9.204059560007734"><ele>977.0</ele><time>2026-04-11T13:41:00.999Z</time></trkpt><trkpt lat="45.898185851788504" lon="9.20410916277797"><ele>977.0</ele><time>2026-04-11T13:41:01.999Z</time></trkpt><trkpt lat="45.8982677167385" lon="9.204103690673675"><ele>977.0</ele><time>2026-04-11T13:41:02.999Z</time></trkpt><trkpt lat="45.898335757636374" lon="9.203990816422415"><ele>977.0</ele><time>2026-04-11T13:41:03.999Z</time></trkpt><trkpt lat="45.89834359374291" lon="9.203831740112673"><ele>977.0</ele><time>2026-04-11T13:41:04.999Z</time></trkpt><trkpt lat="45.89834165053448" lon="9.203673368897102"><ele>973.0</ele><time>2026-04-11T13:41:05.999Z</time></trkpt><trkpt lat="45.89834310464827" lon="9.203501780228159"><ele>969.0</ele><time>2026-04-11T13:41:07Z</time></trkpt><trkpt lat="45.89835255323034" lon="9.203331843095482"><ele>965.0</ele><time>2026-04-11T13:41:08Z</time></trkpt><trkpt lat="45.89839946502169" lon="9.203184414552913"><ele>961.0</ele><time>2026-04-11T13:41:09Z</time></trkpt><trkpt lat="45.89845846970809" lon="9.20300778769317"><ele>961.0</ele><time>2026-04-11T13:41:10Z</time></trkpt><trkpt lat="45.89849081617913" lon="9.202804638827963"><ele>961.0</ele><time>2026-04-11T13:41:11Z</time></trkpt><trkpt lat="45.89852734545839" lon="9.202607700117703"><ele>961.0</ele><time>2026-04-11T13:41:12Z</time></trkpt><trkpt lat="45.89852881567047" lon="9.202399047099881"><ele>961.0</ele><time>2026-04-11T13:41:13Z</time></trkpt><trkpt lat="45.898493388516485" lon="9.202180045958066"><ele>960.3333333333333</ele><time>2026-04-11T13:41:14Z</time></trkpt><trkpt lat="45.8984599194098" lon="9.2019519204911"><ele>959.6666666666667</ele><time>2026-04-11T13:41:15Z</time></trkpt><trkpt lat="45.8984441833508" lon="9.201714205561204"><ele>959.0</ele><time>2026-04-11T13:41:16Z</time></trkpt><trkpt lat="45.898434186832844" lon="9.201481642837996"><ele>960.0</ele><time>2026-04-11T13:41:17Z</time></trkpt><trkpt lat="45.89842297995435" lon="9.201260712093509"><ele>961.0</ele><time>2026-04-11T13:41:18Z</time></trkpt><trkpt lat="45.89841351823393" lon="9.201048316796419"><ele>962.0</ele><time>2026-04-11T13:41:19Z</time></trkpt><trkpt lat="45.89840560018101" lon="9.200843098001048"><ele>963.0</ele><time>2026-04-11T13:41:20Z</time></trkpt><trkpt lat="45.898396380664025" lon="9.200639837260013"><ele>955.3333333333333</ele><time>2026-04-11T13:41:21Z</time></trkpt><trkpt lat="45.89838927613056" lon="9.200427162342574"><ele>947.6666666666666</ele><time>2026-04-11T13:41:22Z</time></trkpt><trkpt lat="45.89839018669709" lon="9.200201226549403"><ele>940.0</ele><time>2026-04-11T13:41:23Z</time></trkpt><trkpt lat="45.89839244401888" lon="9.19996308655359"><ele>938.3333333333333</ele><time>2026-04-11T13:41:24Z</time></trkpt><trkpt lat="45.89840022043375" lon="9.199710222282286"><ele>936.6666666666667</ele><time>2026-04-11T13:41:25Z</time></trkpt><trkpt lat="45.89840895682392" lon="9.19944353756736"><ele>935.0</ele><time>2026-04-11T13:41:26Z</time></trkpt><trkpt lat="45.89845124012581" lon="9.199171356909938"><ele>943.0</ele><time>2026-04-11T13:41:27Z</time></trkpt><trkpt lat="45.898479928442654" lon="9.198883651079054"><ele>951.0</ele><time>2026-04-11T13:41:28Z</time></trkpt><trkpt lat="45.89849832879796" lon="9.19859152882267"><ele>959.0</ele><time>2026-04-11T13:41:29Z</time></trkpt><trkpt lat="45.89852471672821" lon="9.198321626394135"><ele>956.3333333333334</ele><time>2026-04-11T13:41:30Z</time></trkpt><trkpt lat="45.89855320693544" lon="9.198057046377588"><ele>953.6666666666667</ele><time>2026-04-11T13:41:31Z</time></trkpt><trkpt lat="45.89859307879846" lon="9.197797254977793"><ele>951.0</ele><time>2026-04-11T13:41:32Z</time></trkpt><trkpt lat="45.89860533861185" lon="9.197538067856044"><ele>947.6666666666667</ele><time>2026-04-11T13:41:33Z</time></trkpt><trkpt lat="45.89866081805069" lon="9.197295565253343"><ele>944.3333333333334</ele><time>2026-04-11T13:41:34Z</time></trkpt><trkpt lat="45.89871272448264" lon="9.197052660270215"><ele>941.0</ele><time>2026-04-11T13:41:35Z</time></trkpt><trkpt lat="45.89875970800159" lon="9.196816693958466"><ele>941.0</ele><time>2026-04-11T13:41:36Z</time></trkpt><trkpt lat="45.898765669146805" lon="9.196574397269053"><ele>941.0</ele><time>2026-04-11T13:41:37Z</time></trkpt><trkpt lat="45.8987691033851" lon="9.196338276041512"><ele>941.0</ele><time>2026-04-11T13:41:38Z</time></trkpt><trkpt lat="45.89881273341383" lon="9.196117807365171"><ele>937.6666666666667</ele><time>2026-04-11T13:41:39Z</time></trkpt><trkpt lat="45.898838340671674" lon="9.195886383535168"><ele>934.3333333333333</ele><time>2026-04-11T13:41:40Z</time></trkpt><trkpt lat="45.89887887922453" lon="9.195644916455151"><ele>931.0</ele><time>2026-04-11T13:41:41Z</time></trkpt><trkpt lat="45.89892140175669" lon="9.195393225124947"><ele>925.3333333333333</ele><time>2026-04-11T13:41:41.999Z</time></trkpt><trkpt lat="45.89896941883763" lon="9.195147872315076"><ele>919.6666666666667</ele><time>2026-04-11T13:41:42.999Z</time></trkpt><trkpt lat="45.89906149550764" lon="9.194950587740983"><ele>914.0</ele><time>2026-04-11T13:41:43.999Z</time></trkpt><trkpt lat="45.89915794700711" lon="9.19477168334246"><ele>907.3333333333334</ele><time>2026-04-11T13:41:44.999Z</time></trkpt><trkpt lat="45.89923078407998" lon="9.194582032051677"><ele>900.6666666666667</ele><time>2026-04-11T13:41:45.999Z</time></trkpt><trkpt lat="45.89927603199981" lon="9.19437566023615"><ele>894.0</ele><time>2026-04-11T13:41:46.999Z</time></trkpt><trkpt lat="45.89928144484183" lon="9.194141718309435"><ele>899.25</ele><time>2026-04-11T13:41:47.999Z</time></trkpt><trkpt lat="45.899303068156065" lon="9.193926950128986"><ele>904.5</ele><time>2026-04-11T13:41:48.999Z</time></trkpt><trkpt lat="45.89933003571365" lon="9.193739646341385"><ele>909.75</ele><time>2026-04-11T13:41:49.999Z</time></trkpt><trkpt lat="45.89939997174755" lon="9.193575253051446"><ele>915.0</ele><time>2026-04-11T13:41:50.999Z</time></trkpt><trkpt lat="45.899484076875666" lon="9.19339386495528"><ele>910.0</ele><time>2026-04-11T13:41:51.999Z</time></trkpt><trkpt lat="45.89954405956295" lon="9.193172173146458"><ele>905.0</ele><time>2026-04-11T13:41:52.999Z</time></trkpt><trkpt lat="45.89959103845985" lon="9.192942207818652"><ele>900.0</ele><time>2026-04-11T13:41:53.999Z</time></trkpt><trkpt lat="45.89962178688116" lon="9.192712237933447"><ele>900.0</ele><time>2026-04-11T13:41:54.999Z</time></trkpt><trkpt lat="45.89964653305807" lon="9.192508350559033"><ele>900.0</ele><time>2026-04-11T13:41:55.999Z</time></trkpt><trkpt lat="45.89968857878342" lon="9.192346871960313"><ele>900.0</ele><time>2026-04-11T13:41:56.999Z</time></trkpt><trkpt lat="45.899761029347076" lon="9.192227972175447"><ele>900.0</ele><time>2026-04-11T13:41:57.999Z</time></trkpt><trkpt lat="45.89986142149508" lon="9.192134413431416"><ele>902.5</ele><time>2026-04-11T13:41:58.999Z</time></trkpt><trkpt lat="45.899974866598924" lon="9.19203865340411"><ele>905.0</ele><time>2026-04-11T13:41:59.999Z</time></trkpt><trkpt lat="45.90007182779303" lon="9.1919024142518"><ele>907.5</ele><time>2026-04-11T13:42:00.999Z</time></trkpt><trkpt lat="45.90013109884203" lon="9.19171380698399"><ele>910.0</ele><time>2026-04-11T13:42:01.999Z</time></trkpt><trkpt lat="45.90016032816969" lon="9.191498528492849"><ele>910.0</ele><time>2026-04-11T13:42:02.999Z</time></trkpt><trkpt lat="45.90018877020774" lon="9.191262785609005"><ele>910.0</ele><time>2026-04-11T13:42:03.999Z</time></trkpt><trkpt lat="45.900182791678795" lon="9.191022674973832"><ele>910.0</ele><time>2026-04-11T13:42:04.999Z</time></trkpt><trkpt lat="45.900177878837276" lon="9.190778940794075"><ele>906.6666666666666</ele><time>2026-04-11T13:42:05.999Z</time></trkpt><trkpt lat="45.90017165577662" lon="9.190548515862382"><ele>903.3333333333333</ele><time>2026-04-11T13:42:06.999Z</time></trkpt><trkpt lat="45.900168888588695" lon="9.190326956823403"><ele>900.0</ele><time>2026-04-11T13:42:07.999Z</time></trkpt><trkpt lat="45.900164698938255" lon="9.190111940233145"><ele>900.0</ele><time>2026-04-11T13:42:09Z</time></trkpt><trkpt lat="45.90018237341835" lon="9.189902085901489"><ele>900.0</ele><time>2026-04-11T13:42:10Z</time></trkpt><trkpt lat="45.900197920849116" lon="9.189698982157935"><ele>900.0</ele><time>2026-04-11T13:42:11Z</time></trkpt><trkpt lat="45.90022246605358" lon="9.189503676754908"><ele>900.0</ele><time>2026-04-11T13:42:12Z</time></trkpt><trkpt lat="45.90027334261124" lon="9.18931821828045"><ele>895.25</ele><time>2026-04-11T13:42:13Z</time></trkpt><trkpt lat="45.90034712206758" lon="9.189141924991088"><ele>890.5</ele><time>2026-04-11T13:42:14Z</time></trkpt><trkpt lat="45.900434858729604" lon="9.188975320752144"><ele>885.75</ele><time>2026-04-11T13:42:15Z</time></trkpt><trkpt lat="45.900525209877664" lon="9.188812086131849"><ele>881.0</ele><time>2026-04-11T13:42:16Z</time></trkpt><trkpt lat="45.90063317257371" lon="9.18866023624566"><ele>885.0</ele><time>2026-04-11T13:42:17Z</time></trkpt><trkpt lat="45.900760764024376" lon="9.188518898712989"><ele>889.0</ele><time>2026-04-11T13:42:18Z</time></trkpt><trkpt lat="45.90088581886479" lon="9.18835857688777"><ele>893.0</ele><time>2026-04-11T13:42:19Z</time></trkpt><trkpt lat="45.90100940970676" lon="9.188179112233868"><ele>883.3333333333334</ele><time>2026-04-11T13:42:20Z</time></trkpt><trkpt lat="45.90113308137478" lon="9.187990909384881"><ele>873.6666666666667</ele><time>2026-04-11T13:42:21Z</time></trkpt><trkpt lat="45.90125561216434" lon="9.187794344097599"><ele>864.0</ele><time>2026-04-11T13:42:22Z</time></trkpt><trkpt lat="45.90137678050887" lon="9.187591885803373"><ele>864.0</ele><time>2026-04-11T13:42:23Z</time></trkpt><trkpt lat="45.90149310964154" lon="9.187379612003989"><ele>864.0</ele><time>2026-04-11T13:42:24Z</time></trkpt><trkpt lat="45.90161023477458" lon="9.187165030580308"><ele>864.0</ele><time>2026-04-11T13:42:25Z</time></trkpt><trkpt lat="45.9017245596872" lon="9.186949624951037"><ele>865.6666666666667</ele><time>2026-04-11T13:42:26Z</time></trkpt><trkpt lat="45.90182831190659" lon="9.18672433676556"><ele>867.3333333333334</ele><time>2026-04-11T13:42:27Z</time></trkpt><trkpt lat="45.90191331271903" lon="9.186485256229709"><ele>869.0</ele><time>2026-04-11T13:42:28Z</time></trkpt><trkpt lat="45.901995254182566" lon="9.186247395617245"><ele>869.0</ele><time>2026-04-11T13:42:29Z</time></trkpt><trkpt lat="45.902075395568524" lon="9.186016122142865"><ele>869.0</ele><time>2026-04-11T13:42:30Z</time></trkpt><trkpt lat="45.90215186254134" lon="9.185796154048845"><ele>869.0</ele><time>2026-04-11T13:42:31Z</time></trkpt><trkpt lat="45.90223136452265" lon="9.185586174054958"><ele>865.0</ele><time>2026-04-11T13:42:32Z</time></trkpt><trkpt lat="45.9023174014579" lon="9.185391490276531"><ele>861.0</ele><time>2026-04-11T13:42:33Z</time></trkpt><trkpt lat="45.902404805959634" lon="9.18520876807025"><ele>857.0</ele><time>2026-04-11T13:42:34Z</time></trkpt><trkpt lat="45.90246837106764" lon="9.185016521949192"><ele>859.5</ele><time>2026-04-11T13:42:35Z</time></trkpt><trkpt lat="45.90250575739461" lon="9.184808850377546"><ele>862.0</ele><time>2026-04-11T13:42:36Z</time></trkpt><trkpt lat="45.90253249838639" lon="9.184607246377164"><ele>864.5</ele><time>2026-04-11T13:42:37Z</time></trkpt><trkpt lat="45.90256950511988" lon="9.184420368006268"><ele>867.0</ele><time>2026-04-11T13:42:38Z</time></trkpt><trkpt lat="45.90262746841025" lon="9.184249659943982"><ele>867.0</ele><time>2026-04-11T13:42:39Z</time></trkpt><trkpt lat="45.9027002050563" lon="9.184084999658099"><ele>867.0</ele><time>2026-04-11T13:42:40Z</time></trkpt><trkpt lat="45.90277185475691" lon="9.183913645250968"><ele>867.0</ele><time>2026-04-11T13:42:41Z</time></trkpt><trkpt lat="45.90284206984553" lon="9.183740499243948"><ele>867.0</ele><time>2026-04-11T13:42:42Z</time></trkpt><trkpt lat="45.902914018494755" lon="9.183571639644144"><ele>861.25</ele><time>2026-04-11T13:42:43Z</time></trkpt><trkpt lat="45.902991073984026" lon="9.183409854580287"><ele>855.5</ele><time>2026-04-11T13:42:44Z</time></trkpt><trkpt lat="45.903078248220226" lon="9.183251980180506"><ele>849.75</ele><time>2026-04-11T13:42:45Z</time></trkpt><trkpt lat="45.90316986524331" lon="9.18309994802262"><ele>844.0</ele><time>2026-04-11T13:42:46Z</time></trkpt><trkpt lat="45.903264332998994" lon="9.18296151471931"><ele>839.75</ele><time>2026-04-11T13:42:47Z</time></trkpt><trkpt lat="45.90335227981747" lon="9.182839619794816"><ele>835.5</ele><time>2026-04-11T13:42:48Z</time></trkpt><trkpt lat="45.90343661994622" lon="9.182719756852356"><ele>831.25</ele><time>2026-04-11T13:42:49Z</time></trkpt><trkpt lat="45.903512996456705" lon="9.182596387288301"><ele>827.0</ele><time>2026-04-11T13:42:50Z</time></trkpt><trkpt lat="45.903578219717375" lon="9.182480354952638"><ele>827.0</ele><time>2026-04-11T13:42:51Z</time></trkpt><trkpt lat="45.90364601617474" lon="9.182365748952405"><ele>827.0</ele><time>2026-04-11T13:42:52Z</time></trkpt><trkpt lat="45.90372509660635" lon="9.182277086585243"><ele>827.0</ele><time>2026-04-11T13:42:53Z</time></trkpt><trkpt lat="45.90381175864885" lon="9.18221773347566"><ele>827.0</ele><time>2026-04-11T13:42:54Z</time></trkpt><trkpt lat="45.90390070949067" lon="9.182184115130868"><ele>827.0</ele><time>2026-04-11T13:42:55Z</time></trkpt><trkpt lat="45.90399287490952" lon="9.182176539476162"><ele>823.6</ele><time>2026-04-11T13:42:56Z</time></trkpt><trkpt lat="45.904090724126334" lon="9.18218754967524"><ele>820.2</ele><time>2026-04-11T13:42:57Z</time></trkpt><trkpt lat="45.90419287760717" lon="9.182194043601594"><ele>816.8</ele><time>2026-04-11T13:42:58Z</time></trkpt><trkpt lat="45.904288292622184" lon="9.182191368505503"><ele>813.4</ele><time>2026-04-11T13:42:59Z</time></trkpt><trkpt lat="45.90437970811472" lon="9.182198935895862"><ele>810.0</ele><time>2026-04-11T13:43:00Z</time></trkpt><trkpt lat="45.9044624964353" lon="9.18222423258153"><ele>809.3333333333334</ele><time>2026-04-11T13:43:01Z</time></trkpt><trkpt lat="45.90453703911273" lon="9.18226114619332"><ele>808.6666666666667</ele><time>2026-04-11T13:43:02Z</time></trkpt><trkpt lat="45.90460826749199" lon="9.182308169756814"><ele>808.0</ele><time>2026-04-11T13:43:03Z</time></trkpt><trkpt lat="45.90467771015277" lon="9.182369150053404"><ele>807.3333333333334</ele><time>2026-04-11T13:43:04Z</time></trkpt><trkpt lat="45.90474406661795" lon="9.18243547821236"><ele>806.6666666666667</ele><time>2026-04-11T13:43:05Z</time></trkpt><trkpt lat="45.904803797687734" lon="9.182504064151411"><ele>806.0</ele><time>2026-04-11T13:43:06Z</time></trkpt><trkpt lat="45.90485085499307" lon="9.182578295273904"><ele>806.0000000000001</ele><time>2026-04-11T13:43:07Z</time></trkpt><trkpt lat="45.90488712020075" lon="9.182656899586512"><ele>806.0</ele><time>2026-04-11T13:43:08Z</time></trkpt><trkpt lat="45.90494073443051" lon="9.182813420516123"><ele>806.0</ele><time>2026-04-11T13:43:10Z</time></trkpt><trkpt lat="45.905014379146174" lon="9.182889276223696"><ele>806.0</ele><time>2026-04-11T13:43:12Z</time></trkpt><trkpt lat="45.90508651121125" lon="9.182790935724947"><ele>806.0000000000001</ele><time>2026-04-11T13:43:14Z</time></trkpt><trkpt lat="45.9050866965669" lon="9.182698255319924"><ele>806.0</ele><time>2026-04-11T13:43:15Z</time></trkpt><trkpt lat="45.90505959945616" lon="9.182587832353162"><ele>806.0</ele><time>2026-04-11T13:43:16Z</time></trkpt><trkpt lat="45.90502782628453" lon="9.182473004676751"><ele>806.0</ele><time>2026-04-11T13:43:17Z</time></trkpt><trkpt lat="45.90501381142454" lon="9.182337626772032"><ele>806.0</ele><time>2026-04-11T13:43:18Z</time></trkpt><trkpt lat="45.905019061305275" lon="9.182191428755075"><ele>806.0</ele><time>2026-04-11T13:43:19Z</time></trkpt><trkpt lat="45.90502273837749" lon="9.182052729743408"><ele>806.0</ele><time>2026-04-11T13:43:20Z</time></trkpt><trkpt lat="45.905020489049214" lon="9.181914423985862"><ele>803.1999999999999</ele><time>2026-04-11T13:43:21Z</time></trkpt><trkpt lat="45.90503398926498" lon="9.181778427838246"><ele>800.4</ele><time>2026-04-11T13:43:22Z</time></trkpt><trkpt lat="45.905005133989825" lon="9.181649661774136"><ele>797.6</ele><time>2026-04-11T13:43:23Z</time></trkpt><trkpt lat="45.90498252187258" lon="9.181528480512807"><ele>794.8</ele><time>2026-04-11T13:43:24Z</time></trkpt><trkpt lat="45.904973326168346" lon="9.181402836886882"><ele>792.0</ele><time>2026-04-11T13:43:25Z</time></trkpt><trkpt lat="45.90494870074315" lon="9.181280897280091"><ele>791.3333333333334</ele><time>2026-04-11T13:43:26Z</time></trkpt><trkpt lat="45.90491128310984" lon="9.18117031829136"><ele>790.6666666666667</ele><time>2026-04-11T13:43:27Z</time></trkpt><trkpt lat="45.904888657430114" lon="9.181061179894085"><ele>790.0</ele><time>2026-04-11T13:43:28Z</time></trkpt><trkpt lat="45.904869116664166" lon="9.180953710338466"><ele>789.3333333333334</ele><time>2026-04-11T13:43:29Z</time></trkpt><trkpt lat="45.90485421612595" lon="9.180844058951623"><ele>788.6666666666667</ele><time>2026-04-11T13:43:30Z</time></trkpt><trkpt lat="45.9048521926121" lon="9.18073275124751"><ele>788.0</ele><time>2026-04-11T13:43:31Z</time></trkpt><trkpt lat="45.90488783446071" lon="9.18063030809637"><ele>786.8</ele><time>2026-04-11T13:43:32Z</time></trkpt><trkpt lat="45.90491743863557" lon="9.180521610523302"><ele>785.5999999999999</ele><time>2026-04-11T13:43:33Z</time></trkpt><trkpt lat="45.9049535005997" lon="9.180390532214762"><ele>784.4000000000001</ele><time>2026-04-11T13:43:34Z</time></trkpt><trkpt lat="45.90498776196684" lon="9.18025530445059"><ele>783.2</ele><time>2026-04-11T13:43:35Z</time></trkpt><trkpt lat="45.905001608083445" lon="9.180115805373264"><ele>782.0</ele><time>2026-04-11T13:43:36Z</time></trkpt><trkpt lat="45.90503337873969" lon="9.179984802093788"><ele>782.0000000000001</ele><time>2026-04-11T13:43:37Z</time></trkpt><trkpt lat="45.90506593421183" lon="9.179865644455075"><ele>782.0</ele><time>2026-04-11T13:43:38Z</time></trkpt><trkpt lat="45.905097666252985" lon="9.179756140098075"><ele>782.0</ele><time>2026-04-11T13:43:39Z</time></trkpt><trkpt lat="45.905122720158964" lon="9.179650423737097"><ele>782.0</ele><time>2026-04-11T13:43:40Z</time></trkpt><trkpt lat="45.90515015816185" lon="9.179550383244948"><ele>782.0000000000001</ele><time>2026-04-11T13:43:41Z</time></trkpt><trkpt lat="45.9051814172833" lon="9.179460521648032"><ele>782.0</ele><time>2026-04-11T13:43:42Z</time></trkpt><trkpt lat="45.90522183866467" lon="9.179351941021862"><ele>777.8</ele><time>2026-04-11T13:43:44Z</time></trkpt><trkpt lat="45.90529770659996" lon="9.179301435425394"><ele>773.6</ele><time>2026-04-11T13:43:45.999Z</time></trkpt><trkpt lat="45.905346866931744" lon="9.179468469755712"><ele>769.4</ele><time>2026-04-11T13:43:47.999Z</time></trkpt><trkpt lat="45.90532024537792" lon="9.179606741012286"><ele>765.1999999999999</ele><time>2026-04-11T13:43:48.999Z</time></trkpt><trkpt lat="45.90532251989227" lon="9.179752502956491"><ele>761.0</ele><time>2026-04-11T13:43:49.999Z</time></trkpt><trkpt lat="45.905335427723614" lon="9.179913954559563"><ele>761.0</ele><time>2026-04-11T13:43:50.999Z</time></trkpt><trkpt lat="45.90534967195568" lon="9.180091482622652"><ele>761.0</ele><time>2026-04-11T13:43:51.999Z</time></trkpt><trkpt lat="45.905364302427486" lon="9.180272300949179"><ele>761.0</ele><time>2026-04-11T13:43:52.999Z</time></trkpt><trkpt lat="45.905377859383265" lon="9.18045349051903"><ele>761.0</ele><time>2026-04-11T13:43:53.999Z</time></trkpt><trkpt lat="45.90539293461663" lon="9.180628388154364"><ele>760.5</ele><time>2026-04-11T13:43:54.999Z</time></trkpt><trkpt lat="45.90540588166124" lon="9.18079875100087"><ele>760.0</ele><time>2026-04-11T13:43:55.999Z</time></trkpt><trkpt lat="45.90541961221635" lon="9.180963922760208"><ele>759.5</ele><time>2026-04-11T13:43:56.999Z</time></trkpt><trkpt lat="45.90543554748916" lon="9.181124580195823"><ele>759.0</ele><time>2026-04-11T13:43:57.999Z</time></trkpt><trkpt lat="45.90544986178547" lon="9.181279440684923"><ele>759.0</ele><time>2026-04-11T13:43:58.999Z</time></trkpt><trkpt lat="45.90546265176207" lon="9.181432215774613"><ele>759.0</ele><time>2026-04-11T13:43:59.999Z</time></trkpt><trkpt lat="45.90547166310343" lon="9.181578529878681"><ele>759.0</ele><time>2026-04-11T13:44:00.999Z</time></trkpt><trkpt lat="45.905480090270714" lon="9.181714290832316"><ele>759.0</ele><time>2026-04-11T13:44:01.999Z</time></trkpt><trkpt lat="45.90548607510546" lon="9.18184285658406"><ele>759.0</ele><time>2026-04-11T13:44:02.999Z</time></trkpt><trkpt lat="45.905488783744744" lon="9.181971291071857"><ele>760.0</ele><time>2026-04-11T13:44:03.999Z</time></trkpt><trkpt lat="45.90549212170738" lon="9.18209754711736"><ele>761.0</ele><time>2026-04-11T13:44:04.999Z</time></trkpt><trkpt lat="45.905493759611815" lon="9.182206477425826"><ele>762.0</ele><time>2026-04-11T13:44:05.999Z</time></trkpt><trkpt lat="45.90548896370114" lon="9.182364993465658"><ele>763.0</ele><time>2026-04-11T13:44:07.999Z</time></trkpt><trkpt lat="45.90555567494903" lon="9.1824660587526"><ele>764.0</ele><time>2026-04-11T13:44:09.999Z</time></trkpt><trkpt lat="45.905619983189986" lon="9.182408592748926"><ele>765.0</ele><time>2026-04-11T13:44:10.999Z</time></trkpt><trkpt lat="45.905645828009106" lon="9.182317968166121"><ele>765.0</ele><time>2026-04-11T13:44:11.999Z</time></trkpt><trkpt lat="45.90562530019284" lon="9.182194263038129"><ele>765.0</ele><time>2026-04-11T13:44:12.999Z</time></trkpt><trkpt lat="45.9056193880314" lon="9.182084881904954"><ele>765.0</ele><time>2026-04-11T13:44:13.999Z</time></trkpt><trkpt lat="45.90566985477892" lon="9.182000245984879"><ele>765.0</ele><time>2026-04-11T13:44:15Z</time></trkpt><trkpt lat="45.905742556033815" lon="9.181980874438207"><ele>765.0</ele><time>2026-04-11T13:44:16Z</time></trkpt><trkpt lat="45.90580721685861" lon="9.182025424554428"><ele>765.0</ele><time>2026-04-11T13:44:17Z</time></trkpt><trkpt lat="45.90592796521119" lon="9.182061149309728"><ele>765.6</ele><time>2026-04-11T13:44:19Z</time></trkpt><trkpt lat="45.90599888790551" lon="9.182068979128344"><ele>766.2</ele><time>2026-04-11T13:44:20Z</time></trkpt><trkpt lat="45.90610760497704" lon="9.182033959504206"><ele>766.8</ele><time>2026-04-11T13:44:21Z</time></trkpt><trkpt lat="45.90617610434541" lon="9.181929391709907"><ele>767.4</ele><time>2026-04-11T13:44:22Z</time></trkpt><trkpt lat="45.90624312665658" lon="9.181845492742088"><ele>768.0</ele><time>2026-04-11T13:44:23Z</time></trkpt><trkpt lat="45.90626841613458" lon="9.181689683114852"><ele>768.0</ele><time>2026-04-11T13:44:24Z</time></trkpt><trkpt lat="45.906323482366915" lon="9.181590668070706"><ele>768.0</ele><time>2026-04-11T13:44:25Z</time></trkpt><trkpt lat="45.90636202566833" lon="9.181477223850194"><ele>768.0</ele><time>2026-04-11T13:44:26Z</time></trkpt><trkpt lat="45.90638583561088" lon="9.181347895049758"><ele>768.0</ele><time>2026-04-11T13:44:27Z</time></trkpt><trkpt lat="45.906433741397066" lon="9.181220628344255"><ele>768.0</ele><time>2026-04-11T13:44:28Z</time></trkpt><trkpt lat="45.906480052633036" lon="9.181067334893322"><ele>765.5999999999999</ele><time>2026-04-11T13:44:29Z</time></trkpt><trkpt lat="45.90655000046749" lon="9.180933626590228"><ele>763.1999999999999</ele><time>2026-04-11T13:44:30Z</time></trkpt><trkpt lat="45.90661653609274" lon="9.180808270117213"><ele>760.8</ele><time>2026-04-11T13:44:31Z</time></trkpt><trkpt lat="45.90667902313368" lon="9.180690826369444"><ele>758.4</ele><time>2026-04-11T13:44:32Z</time></trkpt><trkpt lat="45.90673232371812" lon="9.180585210289584"><ele>756.0</ele><time>2026-04-11T13:44:33Z</time></trkpt><trkpt lat="45.90678331265202" lon="9.18047693202996"><ele>756.0</ele><time>2026-04-11T13:44:34Z</time></trkpt><trkpt lat="45.90683481330616" lon="9.18036895245606"><ele>756.0</ele><time>2026-04-11T13:44:35Z</time></trkpt><trkpt lat="45.90688067964637" lon="9.180256560180489"><ele>756.0</ele><time>2026-04-11T13:44:36Z</time></trkpt><trkpt lat="45.906912379329704" lon="9.180135524055595"><ele>756.0</ele><time>2026-04-11T13:44:37Z</time></trkpt><trkpt lat="45.906940349961864" lon="9.180016798566786"><ele>756.0</ele><time>2026-04-11T13:44:38Z</time></trkpt><trkpt lat="45.90697914163152" lon="9.179915279156855"><ele>756.0</ele><time>2026-04-11T13:44:39Z</time></trkpt><trkpt lat="45.907055083905746" lon="9.179859972907085"><ele>750.5999999999999</ele><time>2026-04-11T13:44:40Z</time></trkpt><trkpt lat="45.90713143816493" lon="9.1797707596533"><ele>745.2</ele><time>2026-04-11T13:44:41Z</time></trkpt><trkpt lat="45.90721667166926" lon="9.179695383375902"><ele>739.8</ele><time>2026-04-11T13:44:42Z</time></trkpt><trkpt lat="45.907298710964476" lon="9.179622185132754"><ele>734.4000000000001</ele><time>2026-04-11T13:44:43Z</time></trkpt><trkpt lat="45.90737508543554" lon="9.179557316841127"><ele>729.0</ele><time>2026-04-11T13:44:44Z</time></trkpt><trkpt lat="45.90744421330981" lon="9.179492767570983"><ele>729.0</ele><time>2026-04-11T13:44:45Z</time></trkpt><trkpt lat="45.90751392355207" lon="9.179418666871225"><ele>729.0</ele><time>2026-04-11T13:44:46Z</time></trkpt><trkpt lat="45.90753537889499" lon="9.17926730663616"><ele>729.0</ele><time>2026-04-11T13:44:47Z</time></trkpt><trkpt lat="45.90757259369645" lon="9.179100289451315"><ele>729.0</ele><time>2026-04-11T13:44:48Z</time></trkpt><trkpt lat="45.90761048690007" lon="9.178929149607075"><ele>729.0</ele><time>2026-04-11T13:44:49Z</time></trkpt><trkpt lat="45.90767121864424" lon="9.178742951604384"><ele>725.3333333333334</ele><time>2026-04-11T13:44:50Z</time></trkpt><trkpt lat="45.907731325800775" lon="9.178531179476193"><ele>721.6666666666667</ele><time>2026-04-11T13:44:51Z</time></trkpt><trkpt lat="45.90780135285426" lon="9.178312478710469"><ele>718.0</ele><time>2026-04-11T13:44:52Z</time></trkpt><trkpt lat="45.907881464941234" lon="9.178106563929383"><ele>718.0</ele><time>2026-04-11T13:44:53Z</time></trkpt><trkpt lat="45.907959350575844" lon="9.17791620896646"><ele>718.0</ele><time>2026-04-11T13:44:54Z</time></trkpt><trkpt lat="45.90803064017622" lon="9.177775445719435"><ele>718.0</ele><time>2026-04-11T13:44:55Z</time></trkpt><trkpt lat="45.90811299232706" lon="9.177668840204637"><ele>718.0</ele><time>2026-04-11T13:44:56Z</time></trkpt><trkpt lat="45.90822260199119" lon="9.17759193240253"><ele>718.0</ele><time>2026-04-11T13:44:57Z</time></trkpt><trkpt lat="45.90834193677211" lon="9.177508783435162"><ele>718.0</ele><time>2026-04-11T13:44:58Z</time></trkpt><trkpt lat="45.90844209935949" lon="9.177370008415721"><ele>718.0</ele><time>2026-04-11T13:44:59Z</time></trkpt><trkpt lat="45.90853503811634" lon="9.177198208096154"><ele>718.0</ele><time>2026-04-11T13:45:00Z</time></trkpt><trkpt lat="45.90863158986467" lon="9.177025217229438"><ele>720.6666666666667</ele><time>2026-04-11T13:45:01Z</time></trkpt><trkpt lat="45.90873207744669" lon="9.17685194755199"><ele>723.3333333333334</ele><time>2026-04-11T13:45:02Z</time></trkpt><trkpt lat="45.90883362485744" lon="9.176687711261854"><ele>726.0</ele><time>2026-04-11T13:45:03Z</time></trkpt><trkpt lat="45.90892970757428" lon="9.176523444186543"><ele>725.0</ele><time>2026-04-11T13:45:04Z</time></trkpt><trkpt lat="45.90902606046598" lon="9.17636361311398"><ele>724.0</ele><time>2026-04-11T13:45:05Z</time></trkpt><trkpt lat="45.90912490030171" lon="9.17621004717426"><ele>723.0</ele><time>2026-04-11T13:45:06Z</time></trkpt><trkpt lat="45.90921374789576" lon="9.176055659958237"><ele>722.0</ele><time>2026-04-11T13:45:07Z</time></trkpt><trkpt lat="45.90928519587166" lon="9.175890627901428"><ele>722.0</ele><time>2026-04-11T13:45:08Z</time></trkpt><trkpt lat="45.90931631332387" lon="9.175703841821328"><ele>722.0</ele><time>2026-04-11T13:45:09Z</time></trkpt><trkpt lat="45.90933207105826" lon="9.175514257491928"><ele>722.0</ele><time>2026-04-11T13:45:10Z</time></trkpt><trkpt lat="45.90935310940267" lon="9.175346833370682"><ele>722.0</ele><time>2026-04-11T13:45:11Z</time></trkpt><trkpt lat="45.90939090864873" lon="9.175208743397548"><ele>716.8</ele><time>2026-04-11T13:45:12Z</time></trkpt><trkpt lat="45.90944566932188" lon="9.17512618509222"><ele>711.6</ele><time>2026-04-11T13:45:13Z</time></trkpt><trkpt lat="45.90957081786281" lon="9.17511214280828"><ele>706.4</ele><time>2026-04-11T13:45:15Z</time></trkpt><trkpt lat="45.90964752924082" lon="9.175174457245992"><ele>701.1999999999999</ele><time>2026-04-11T13:45:16Z</time></trkpt><trkpt lat="45.90972520600161" lon="9.175239226642914"><ele>696.0</ele><time>2026-04-11T13:45:17Z</time></trkpt><trkpt lat="45.909803518496425" lon="9.175283891888014"><ele>696.0</ele><time>2026-04-11T13:45:18Z</time></trkpt><trkpt lat="45.90989019448712" lon="9.17514871140164"><ele>696.0</ele><time>2026-04-11T13:45:19Z</time></trkpt><trkpt lat="45.90992358997017" lon="9.174986236056233"><ele>696.0</ele><time>2026-04-11T13:45:20Z</time></trkpt><trkpt lat="45.90996208158194" lon="9.17485214660112"><ele>696.0</ele><time>2026-04-11T13:45:21Z</time></trkpt><trkpt lat="45.90999351667858" lon="9.174741163570975"><ele>696.0</ele><time>2026-04-11T13:45:22Z</time></trkpt><trkpt lat="45.91001883495006" lon="9.17464545844398"><ele>695.4</ele><time>2026-04-11T13:45:23Z</time></trkpt><trkpt lat="45.910033966592145" lon="9.174548732189983"><ele>694.8</ele><time>2026-04-11T13:45:24Z</time></trkpt><trkpt lat="45.909958685973436" lon="9.174422382508551"><ele>694.1999999999999</ele><time>2026-04-11T13:45:25Z</time></trkpt><trkpt lat="45.9098652636851" lon="9.174323062310679"><ele>693.5999999999999</ele><time>2026-04-11T13:45:26Z</time></trkpt><trkpt lat="45.90978131555132" lon="9.174187359767917"><ele>693.0</ele><time>2026-04-11T13:45:27Z</time></trkpt><trkpt lat="45.90967756355305" lon="9.174068420936095"><ele>695.75</ele><time>2026-04-11T13:45:28Z</time></trkpt><trkpt lat="45.909560716733395" lon="9.173974965496017"><ele>698.5</ele><time>2026-04-11T13:45:29Z</time></trkpt><trkpt lat="45.9094565041137" lon="9.17384967407868"><ele>701.25</ele><time>2026-04-11T13:45:30Z</time></trkpt><trkpt lat="45.90934835543725" lon="9.173752980845993"><ele>704.0</ele><time>2026-04-11T13:45:31Z</time></trkpt><trkpt lat="45.90924065071757" lon="9.173657876482446"><ele>698.6</ele><time>2026-04-11T13:45:32Z</time></trkpt><trkpt lat="45.90915859739069" lon="9.173534444439388"><ele>693.2</ele><time>2026-04-11T13:45:33Z</time></trkpt><trkpt lat="45.909107963489085" lon="9.173409644978863"><ele>687.8000000000001</ele><time>2026-04-11T13:45:34Z</time></trkpt><trkpt lat="45.90904274525766" lon="9.173326321487998"><ele>682.4000000000001</ele><time>2026-04-11T13:45:35Z</time></trkpt><trkpt lat="45.909024393458566" lon="9.173213864419658"><ele>677.0</ele><time>2026-04-11T13:45:36Z</time></trkpt><trkpt lat="45.90902360605261" lon="9.173103299468114"><ele>676.0</ele><time>2026-04-11T13:45:37Z</time></trkpt><trkpt lat="45.909048417987215" lon="9.172976554606581"><ele>675.0</ele><time>2026-04-11T13:45:38Z</time></trkpt><trkpt lat="45.90906039402055" lon="9.172827854317577"><ele>674.0</ele><time>2026-04-11T13:45:39Z</time></trkpt><trkpt lat="45.9090672313052" lon="9.1726772694419"><ele>673.0</ele><time>2026-04-11T13:45:40Z</time></trkpt><trkpt lat="45.909046129950234" lon="9.172517405698336"><ele>672.0</ele><time>2026-04-11T13:45:41Z</time></trkpt><trkpt lat="45.90900743476904" lon="9.172354985191685"><ele>671.25</ele><time>2026-04-11T13:45:42Z</time></trkpt><trkpt lat="45.908971029129006" lon="9.17218812173947"><ele>670.5</ele><time>2026-04-11T13:45:43Z</time></trkpt><trkpt lat="45.9089430622236" lon="9.172023285707555"><ele>669.75</ele><time>2026-04-11T13:45:44Z</time></trkpt><trkpt lat="45.908923802747644" lon="9.171866667894754"><ele>669.0</ele><time>2026-04-11T13:45:45Z</time></trkpt><trkpt lat="45.90889240821856" lon="9.171715683350133"><ele>669.0</ele><time>2026-04-11T13:45:46Z</time></trkpt><trkpt lat="45.90889791338867" lon="9.17156290853347"><ele>669.0</ele><time>2026-04-11T13:45:47Z</time></trkpt><trkpt lat="45.908927166890905" lon="9.171406602074747"><ele>669.0</ele><time>2026-04-11T13:45:48Z</time></trkpt><trkpt lat="45.90896615664676" lon="9.171243910603106"><ele>669.0</ele><time>2026-04-11T13:45:48.999Z</time></trkpt><trkpt lat="45.90899847354679" lon="9.171073953849444"><ele>666.5</ele><time>2026-04-11T13:45:49.999Z</time></trkpt><trkpt lat="45.90902813880003" lon="9.170898829116593"><ele>664.0</ele><time>2026-04-11T13:45:50.999Z</time></trkpt><trkpt lat="45.90906062093736" lon="9.170722916553856"><ele>661.5</ele><time>2026-04-11T13:45:51.999Z</time></trkpt><trkpt lat="45.909099027126246" lon="9.17055103994149"><ele>659.0</ele><time>2026-04-11T13:45:52.999Z</time></trkpt><trkpt lat="45.90913093900682" lon="9.170375102467133"><ele>661.25</ele><time>2026-04-11T13:45:53.999Z</time></trkpt><trkpt lat="45.90916408685834" lon="9.170200877353135"><ele>663.5</ele><time>2026-04-11T13:45:54.999Z</time></trkpt><trkpt lat="45.9091954465609" lon="9.170028443061785"><ele>665.75</ele><time>2026-04-11T13:45:55.999Z</time></trkpt><trkpt lat="45.909229054734155" lon="9.169859553944333"><ele>668.0</ele><time>2026-04-11T13:45:56.999Z</time></trkpt><trkpt lat="45.90926878587119" lon="9.169683828087479"><ele>668.0</ele><time>2026-04-11T13:45:57.999Z</time></trkpt><trkpt lat="45.90933197847033" lon="9.16951426868425"><ele>668.0</ele><time>2026-04-11T13:45:58.999Z</time></trkpt><trkpt lat="45.90940580909786" lon="9.169348490853741"><ele>668.0</ele><time>2026-04-11T13:45:59.999Z</time></trkpt><trkpt lat="45.909476097258676" lon="9.169169849150016"><ele>668.0</ele><time>2026-04-11T13:46:00.999Z</time></trkpt><trkpt lat="45.9095371054909" lon="9.168978014285306"><ele>664.3333333333333</ele><time>2026-04-11T13:46:01.999Z</time></trkpt><trkpt lat="45.909592124813294" lon="9.168779313078739"><ele>660.6666666666666</ele><time>2026-04-11T13:46:02.999Z</time></trkpt><trkpt lat="45.90964894554266" lon="9.168575147533133"><ele>657.0</ele><time>2026-04-11T13:46:03.999Z</time></trkpt><trkpt lat="45.9097142988669" lon="9.168384631008948"><ele>657.0</ele><time>2026-04-11T13:46:04.999Z</time></trkpt><trkpt lat="45.90978069124632" lon="9.168201764715553"><ele>657.0</ele><time>2026-04-11T13:46:05.999Z</time></trkpt><trkpt lat="45.90984395772683" lon="9.168021097673673"><ele>657.0</ele><time>2026-04-11T13:46:06.999Z</time></trkpt><trkpt lat="45.90990332291533" lon="9.167844323608174"><ele>657.0</ele><time>2026-04-11T13:46:07.999Z</time></trkpt><trkpt lat="45.90995769061044" lon="9.167680788794177"><ele>652.4</ele><time>2026-04-11T13:46:08.999Z</time></trkpt><trkpt lat="45.9100037740898" lon="9.167545031769329"><ele>647.8000000000001</ele><time>2026-04-11T13:46:09.999Z</time></trkpt><trkpt lat="45.91004970122165" lon="9.167429417365192"><ele>643.2</ele><time>2026-04-11T13:46:10.999Z</time></trkpt><trkpt lat="45.91011269526609" lon="9.167341199213372"><ele>638.6</ele><time>2026-04-11T13:46:11.999Z</time></trkpt><trkpt lat="45.91018408488723" lon="9.16728354660222"><ele>634.0</ele><time>2026-04-11T13:46:12.999Z</time></trkpt><trkpt lat="45.91026868516679" lon="9.167250879999449"><ele>635.6</ele><time>2026-04-11T13:46:13.999Z</time></trkpt><trkpt lat="45.91036643528416" lon="9.167258568824952"><ele>637.2</ele><time>2026-04-11T13:46:14.999Z</time></trkpt><trkpt lat="45.910452911903015" lon="9.167323413381023"><ele>638.8000000000001</ele><time>2026-04-11T13:46:15.999Z</time></trkpt><trkpt lat="45.91052195880696" lon="9.167438877340617"><ele>640.4</ele><time>2026-04-11T13:46:16.999Z</time></trkpt><trkpt lat="45.91057376719463" lon="9.167570684359202"><ele>642.0</ele><time>2026-04-11T13:46:17.999Z</time></trkpt><trkpt lat="45.91065122023711" lon="9.16768314411077"><ele>642.0</ele><time>2026-04-11T13:46:18.999Z</time></trkpt><trkpt lat="45.910776589257345" lon="9.167744647262083"><ele>642.0</ele><time>2026-04-11T13:46:19.999Z</time></trkpt><trkpt lat="45.91090395610373" lon="9.167807461710634"><ele>642.0</ele><time>2026-04-11T13:46:21Z</time></trkpt><trkpt lat="45.911059755458915" lon="9.16782290899287"><ele>642.0</ele><time>2026-04-11T13:46:22Z</time></trkpt><trkpt lat="45.9112010259927" lon="9.167833459860562"><ele>635.0</ele><time>2026-04-11T13:46:23Z</time></trkpt><trkpt lat="45.911318889268244" lon="9.167862982557843"><ele>628.0</ele><time>2026-04-11T13:46:24Z</time></trkpt><trkpt lat="45.91142425583867" lon="9.167856282359514"><ele>621.0</ele><time>2026-04-11T13:46:25Z</time></trkpt><trkpt lat="45.911525922276574" lon="9.167926576292459"><ele>614.0</ele><time>2026-04-11T13:46:26Z</time></trkpt><trkpt lat="45.91163064634833" lon="9.168028941051626"><ele>614.0</ele><time>2026-04-11T13:46:27Z</time></trkpt><trkpt lat="45.91173124280218" lon="9.168142911962674"><ele>614.0</ele><time>2026-04-11T13:46:28Z</time></trkpt><trkpt lat="45.911850956928966" lon="9.168258945421078"><ele>614.0</ele><time>2026-04-11T13:46:29Z</time></trkpt><trkpt lat="45.91198274518943" lon="9.168384462522596"><ele>614.0</ele><time>2026-04-11T13:46:30Z</time></trkpt><trkpt lat="45.91211804845659" lon="9.168493216079185"><ele>617.25</ele><time>2026-04-11T13:46:31Z</time></trkpt><trkpt lat="45.912233370652714" lon="9.168591550145171"><ele>620.5</ele><time>2026-04-11T13:46:32Z</time></trkpt><trkpt lat="45.912352970130364" lon="9.168682289083266"><ele>623.75</ele><time>2026-04-11T13:46:33Z</time></trkpt><trkpt lat="45.91248871749729" lon="9.168722420135856"><ele>627.0</ele><time>2026-04-11T13:46:34Z</time></trkpt><trkpt lat="45.912640304397655" lon="9.16874140412226"><ele>630.75</ele><time>2026-04-11T13:46:35Z</time></trkpt><trkpt lat="45.91278167439981" lon="9.16874153311414"><ele>634.5</ele><time>2026-04-11T13:46:36Z</time></trkpt><trkpt lat="45.91291459588228" lon="9.168721665665707"><ele>638.25</ele><time>2026-04-11T13:46:37Z</time></trkpt><trkpt lat="45.913032116741505" lon="9.168696966868776"><ele>642.0</ele><time>2026-04-11T13:46:38Z</time></trkpt><trkpt lat="45.91312899160717" lon="9.168653442620146"><ele>642.0</ele><time>2026-04-11T13:46:39Z</time></trkpt><trkpt lat="45.91320065679352" lon="9.168558850922993"><ele>642.0</ele><time>2026-04-11T13:46:40Z</time></trkpt><trkpt lat="45.913240097370746" lon="9.168410694506607"><ele>642.0</ele><time>2026-04-11T13:46:41Z</time></trkpt><trkpt lat="45.91325674308656" lon="9.16822248831602"><ele>642.0</ele><time>2026-04-11T13:46:42Z</time></trkpt><trkpt lat="45.91329937063907" lon="9.168049040034042"><ele>638.75</ele><time>2026-04-11T13:46:43Z</time></trkpt><trkpt lat="45.91333428201557" lon="9.167873470861752"><ele>635.5</ele><time>2026-04-11T13:46:44Z</time></trkpt><trkpt lat="45.91334156302108" lon="9.167700145091874"><ele>632.25</ele><time>2026-04-11T13:46:45Z</time></trkpt><trkpt lat="45.9132661419514" lon="9.167536455556638"><ele>629.0</ele><time>2026-04-11T13:46:46Z</time></trkpt><trkpt lat="45.91321277941169" lon="9.167344908872714"><ele>629.0</ele><time>2026-04-11T13:46:47Z</time></trkpt><trkpt lat="45.91318849586954" lon="9.167139013369928"><ele>629.0</ele><time>2026-04-11T13:46:48Z</time></trkpt><trkpt lat="45.91316186890688" lon="9.16691715077323"><ele>629.0</ele><time>2026-04-11T13:46:49Z</time></trkpt><trkpt lat="45.913135511271065" lon="9.16669925004738"><ele>627.5</ele><time>2026-04-11T13:46:50Z</time></trkpt><trkpt lat="45.91310923343499" lon="9.166489269957127"><ele>626.0</ele><time>2026-04-11T13:46:51Z</time></trkpt><trkpt lat="45.91306896529565" lon="9.166289588815436"><ele>624.5</ele><time>2026-04-11T13:46:52Z</time></trkpt><trkpt lat="45.91299977161209" lon="9.166115154250878"><ele>623.0</ele><time>2026-04-11T13:46:53Z</time></trkpt><trkpt lat="45.912947407801" lon="9.16595989986947"><ele>623.0</ele><time>2026-04-11T13:46:54Z</time></trkpt><trkpt lat="45.9129334024238" lon="9.16580787096424"><ele>623.0</ele><time>2026-04-11T13:46:55Z</time></trkpt><trkpt lat="45.912935857209995" lon="9.165637171451403"><ele>623.0</ele><time>2026-04-11T13:46:56Z</time></trkpt><trkpt lat="45.91293554267297" lon="9.165452394274364"><ele>623.0</ele><time>2026-04-11T13:46:57Z</time></trkpt><trkpt lat="45.91294096127435" lon="9.165285326498378"><ele>620.25</ele><time>2026-04-11T13:46:58Z</time></trkpt><trkpt lat="45.912972752412216" lon="9.165145104690746"><ele>617.5</ele><time>2026-04-11T13:46:59Z</time></trkpt><trkpt lat="45.91303006463226" lon="9.165002115331207"><ele>614.75</ele><time>2026-04-11T13:47:00Z</time></trkpt><trkpt lat="45.913088877545505" lon="9.164841558133322"><ele>612.0</ele><time>2026-04-11T13:47:01Z</time></trkpt><trkpt lat="45.91315485910041" lon="9.164672344195916"><ele>615.5</ele><time>2026-04-11T13:47:02Z</time></trkpt><trkpt lat="45.91322499399614" lon="9.164508512536152"><ele>619.0</ele><time>2026-04-11T13:47:03Z</time></trkpt><trkpt lat="45.913302724288016" lon="9.164356538755209"><ele>622.5</ele><time>2026-04-11T13:47:04Z</time></trkpt><trkpt lat="45.91338245404649" lon="9.16420850913516"><ele>626.0</ele><time>2026-04-11T13:47:05Z</time></trkpt><trkpt lat="45.913469799413306" lon="9.16408339341538"><ele>616.0</ele><time>2026-04-11T13:47:06Z</time></trkpt><trkpt lat="45.913565910239704" lon="9.163960539468787"><ele>606.0</ele><time>2026-04-11T13:47:07Z</time></trkpt><trkpt lat="45.913661814695544" lon="9.163852037245952"><ele>596.0</ele><time>2026-04-11T13:47:08Z</time></trkpt><trkpt lat="45.91376515284577" lon="9.163750145472033"><ele>586.0</ele><time>2026-04-11T13:47:09Z</time></trkpt><trkpt lat="45.91386464517351" lon="9.163654423803305"><ele>586.0</ele><time>2026-04-11T13:47:10Z</time></trkpt><trkpt lat="45.91395227963771" lon="9.163545985493302"><ele>586.0</ele><time>2026-04-11T13:47:11Z</time></trkpt><trkpt lat="45.9140298984411" lon="9.163481391898374"><ele>586.0</ele><time>2026-04-11T13:47:12Z</time></trkpt><trkpt lat="45.914103872340775" lon="9.163451197301406"><ele>586.0</ele><time>2026-04-11T13:47:13Z</time></trkpt><trkpt lat="45.91415787878439" lon="9.163327750858128"><ele>586.0</ele><time>2026-04-11T13:47:15Z</time></trkpt><trkpt lat="45.914106779128105" lon="9.163261844792617"><ele>586.0</ele><time>2026-04-11T13:47:16Z</time></trkpt><trkpt lat="45.91403333322339" lon="9.163238315082989"><ele>586.0</ele><time>2026-04-11T13:47:17Z</time></trkpt><trkpt lat="45.91395544116131" lon="9.16333242692443"><ele>586.0</ele><time>2026-04-11T13:47:18Z</time></trkpt><trkpt lat="45.91389421533918" lon="9.163428973046281"><ele>586.0</ele><time>2026-04-11T13:47:19Z</time></trkpt><trkpt lat="45.91381177044883" lon="9.163493221840625"><ele>586.0</ele><time>2026-04-11T13:47:20Z</time></trkpt><trkpt lat="45.9137110254759" lon="9.163573673730896"><ele>586.0</ele><time>2026-04-11T13:47:21Z</time></trkpt><trkpt lat="45.9135911838578" lon="9.163623307110376"><ele>586.0</ele><time>2026-04-11T13:47:22Z</time></trkpt><trkpt lat="45.91347210122535" lon="9.16367269446632"><ele>586.0</ele><time>2026-04-11T13:47:23Z</time></trkpt><trkpt lat="45.91335315117646" lon="9.163717199467586"><ele>586.0</ele><time>2026-04-11T13:47:24Z</time></trkpt><trkpt lat="45.91323149893125" lon="9.163758504715869"><ele>587.25</ele><time>2026-04-11T13:47:25Z</time></trkpt><trkpt lat="45.91312069554645" lon="9.163837434626865"><ele>588.5</ele><time>2026-04-11T13:47:26Z</time></trkpt><trkpt lat="45.913042292979526" lon="9.163937785718208"><ele>589.75</ele><time>2026-04-11T13:47:27Z</time></trkpt><trkpt lat="45.912959031005094" lon="9.16406966687273"><ele>591.0</ele><time>2026-04-11T13:47:28Z</time></trkpt><trkpt lat="45.912895659123464" lon="9.164182405701723"><ele>591.0</ele><time>2026-04-11T13:47:29Z</time></trkpt><trkpt lat="45.91284843791978" lon="9.164281073380787"><ele>591.0</ele><time>2026-04-11T13:47:30Z</time></trkpt><trkpt lat="45.91276345944332" lon="9.164324870864897"><ele>591.0</ele><time>2026-04-11T13:47:32Z</time></trkpt><trkpt lat="45.91272982578041" lon="9.164236078147098"><ele>591.0</ele><time>2026-04-11T13:47:33Z</time></trkpt><trkpt lat="45.91275779746501" lon="9.164128026555415"><ele>591.0</ele><time>2026-04-11T13:47:34Z</time></trkpt><trkpt lat="45.912848339835996" lon="9.164062957207074"><ele>591.0</ele><time>2026-04-11T13:47:35Z</time></trkpt><trkpt lat="45.912925716948884" lon="9.163975001528176"><ele>583.25</ele><time>2026-04-11T13:47:36Z</time></trkpt><trkpt lat="45.91300641858997" lon="9.163856390856822"><ele>575.5</ele><time>2026-04-11T13:47:37Z</time></trkpt><trkpt lat="45.913081840814854" lon="9.16372254951985"><ele>567.75</ele><time>2026-04-11T13:47:38Z</time></trkpt><trkpt lat="45.91315844278377" lon="9.163583621421699"><ele>560.0</ele><time>2026-04-11T13:47:39Z</time></trkpt><trkpt lat="45.91323822878785" lon="9.163478669640346"><ele>560.0</ele><time>2026-04-11T13:47:40Z</time></trkpt><trkpt lat="45.91334109844426" lon="9.163387703369507"><ele>560.0</ele><time>2026-04-11T13:47:41Z</time></trkpt><trkpt lat="45.91346093657957" lon="9.163318466261693"><ele>560.0</ele><time>2026-04-11T13:47:42Z</time></trkpt><trkpt lat="45.91358564340012" lon="9.163222438439393"><ele>560.0</ele><time>2026-04-11T13:47:43Z</time></trkpt><trkpt lat="45.91370642310109" lon="9.163155581399288"><ele>556.75</ele><time>2026-04-11T13:47:44Z</time></trkpt><trkpt lat="45.91382620896822" lon="9.163059105588276"><ele>553.5</ele><time>2026-04-11T13:47:45Z</time></trkpt><trkpt lat="45.91393380331787" lon="9.162972010443895"><ele>550.25</ele><time>2026-04-11T13:47:46Z</time></trkpt><trkpt lat="45.91404559402101" lon="9.162894295822891"><ele>547.0</ele><time>2026-04-11T13:47:47Z</time></trkpt><trkpt lat="45.91414913216331" lon="9.16282539246551"><ele>548.2</ele><time>2026-04-11T13:47:48Z</time></trkpt><trkpt lat="45.91424186361609" lon="9.162764845008544"><ele>549.4000000000001</ele><time>2026-04-11T13:47:49Z</time></trkpt><trkpt lat="45.91434111854752" lon="9.162737707281316"><ele>550.5999999999999</ele><time>2026-04-11T13:47:50Z</time></trkpt><trkpt lat="45.91443586437097" lon="9.16279315429948"><ele>551.8</ele><time>2026-04-11T13:47:50.999Z</time></trkpt><trkpt lat="45.91455370322255" lon="9.162805243124808"><ele>553.0</ele><time>2026-04-11T13:47:51.999Z</time></trkpt><trkpt lat="45.91468475125094" lon="9.162729102844912"><ele>553.0</ele><time>2026-04-11T13:47:52.999Z</time></trkpt><trkpt lat="45.914826927112756" lon="9.162659326603752"><ele>553.0</ele><time>2026-04-11T13:47:53.999Z</time></trkpt><trkpt lat="45.914937391527715" lon="9.162584269720906"><ele>553.0</ele><time>2026-04-11T13:47:54.999Z</time></trkpt><trkpt lat="45.91507268509348" lon="9.162491051871152"><ele>553.0</ele><time>2026-04-11T13:47:55.999Z</time></trkpt><trkpt lat="45.91520025123575" lon="9.162409542602688"><ele>547.0</ele><time>2026-04-11T13:47:56.999Z</time></trkpt><trkpt lat="45.91531782170512" lon="9.162342448049486"><ele>541.0</ele><time>2026-04-11T13:47:57.999Z</time></trkpt><trkpt lat="45.91542457385171" lon="9.162284462522324"><ele>535.0</ele><time>2026-04-11T13:47:58.999Z</time></trkpt><trkpt lat="45.91550798051322" lon="9.162230342558646"><ele>529.0</ele><time>2026-04-11T13:47:59.999Z</time></trkpt><trkpt lat="45.915590851759895" lon="9.162220841622203"><ele>523.0</ele><time>2026-04-11T13:48:00.999Z</time></trkpt><trkpt lat="45.91565273771164" lon="9.162195676402234"><ele>523.0</ele><time>2026-04-11T13:48:01.999Z</time></trkpt><trkpt lat="45.915670103683844" lon="9.162003329440196"><ele>523.0</ele><time>2026-04-11T13:48:03.999Z</time></trkpt><trkpt lat="45.915597145793576" lon="9.161960572976827"><ele>523.0</ele><time>2026-04-11T13:48:04.999Z</time></trkpt><trkpt lat="45.91549522684338" lon="9.162067700805316"><ele>523.0</ele><time>2026-04-11T13:48:05.999Z</time></trkpt><trkpt lat="45.91540505892578" lon="9.162144964170997"><ele>523.0</ele><time>2026-04-11T13:48:06.999Z</time></trkpt><trkpt lat="45.91531177285293" lon="9.162210472383737"><ele>523.0</ele><time>2026-04-11T13:48:07.999Z</time></trkpt><trkpt lat="45.91520756574157" lon="9.162250188124066"><ele>523.0</ele><time>2026-04-11T13:48:08.999Z</time></trkpt><trkpt lat="45.91509416400103" lon="9.162269274324924"><ele>523.0</ele><time>2026-04-11T13:48:09.999Z</time></trkpt><trkpt lat="45.91497438002305" lon="9.16227909132615"><ele>523.0</ele><time>2026-04-11T13:48:10.999Z</time></trkpt><trkpt lat="45.91484592618806" lon="9.162296428547144"><ele>520.5</ele><time>2026-04-11T13:48:11.999Z</time></trkpt><trkpt lat="45.914716859539936" lon="9.162327854262161"><ele>518.0</ele><time>2026-04-11T13:48:12.999Z</time></trkpt><trkpt lat="45.914591030645425" lon="9.162350575488208"><ele>515.5</ele><time>2026-04-11T13:48:13.999Z</time></trkpt><trkpt lat="45.91446768517144" lon="9.162333359381698"><ele>513.0</ele><time>2026-04-11T13:48:14.999Z</time></trkpt><trkpt lat="45.91435507284834" lon="9.16226077833898"><ele>513.0</ele><time>2026-04-11T13:48:15.999Z</time></trkpt><trkpt lat="45.91424838367799" lon="9.16217682667897"><ele>513.0</ele><time>2026-04-11T13:48:16.999Z</time></trkpt><trkpt lat="45.91414277277679" lon="9.162098227747828"><ele>513.0</ele><time>2026-04-11T13:48:17.999Z</time></trkpt><trkpt lat="45.914040142779655" lon="9.162037730548652"><ele>513.0</ele><time>2026-04-11T13:48:18.999Z</time></trkpt><trkpt lat="45.913950903844786" lon="9.161988854299599"><ele>513.0</ele><time>2026-04-11T13:48:19.999Z</time></trkpt><trkpt lat="45.913853841435994" lon="9.162042100730535"><ele>512.4</ele><time>2026-04-11T13:48:20.999Z</time></trkpt><trkpt lat="45.91379856333572" lon="9.162106248941942"><ele>511.79999999999995</ele><time>2026-04-11T13:48:21.999Z</time></trkpt><trkpt lat="45.91372681481453" lon="9.162084950428866"><ele>511.2</ele><time>2026-04-11T13:48:23.999Z</time></trkpt><trkpt lat="45.91383538988801" lon="9.161951866964783"><ele>510.6</ele><time>2026-04-11T13:48:25.999Z</time></trkpt><trkpt lat="45.913946334166" lon="9.161947087069285"><ele>510.0</ele><time>2026-04-11T13:48:27Z</time></trkpt><trkpt lat="45.914047729282714" lon="9.161939131625676"><ele>510.0</ele><time>2026-04-11T13:48:28Z</time></trkpt><trkpt lat="45.91416490305192" lon="9.161969655529933"><ele>510.0</ele><time>2026-04-11T13:48:29Z</time></trkpt><trkpt lat="45.91428706216645" lon="9.162016413627963"><ele>510.0</ele><time>2026-04-11T13:48:30Z</time></trkpt><trkpt lat="45.91441854969671" lon="9.162037825601105"><ele>510.0</ele><time>2026-04-11T13:48:31Z</time></trkpt><trkpt lat="45.914549917584715" lon="9.16200167143548"><ele>510.75</ele><time>2026-04-11T13:48:32Z</time></trkpt><trkpt lat="45.914684257707364" lon="9.161926447726508"><ele>511.5</ele><time>2026-04-11T13:48:33Z</time></trkpt><trkpt lat="45.914820846027666" lon="9.161865094835829"><ele>512.25</ele><time>2026-04-11T13:48:34Z</time></trkpt><trkpt lat="45.914962432870794" lon="9.161805714280835"><ele>513.0</ele><time>2026-04-11T13:48:35Z</time></trkpt><trkpt lat="45.915104472204874" lon="9.161746904348364"><ele>515.5</ele><time>2026-04-11T13:48:36Z</time></trkpt><trkpt lat="45.915243873840296" lon="9.161680210212133"><ele>518.0</ele><time>2026-04-11T13:48:37Z</time></trkpt><trkpt lat="45.91538593290539" lon="9.161615820640757"><ele>520.5</ele><time>2026-04-11T13:48:38Z</time></trkpt><trkpt lat="45.91552065871837" lon="9.161552446401442"><ele>523.0</ele><time>2026-04-11T13:48:39Z</time></trkpt><trkpt lat="45.91565172205202" lon="9.161492562675416"><ele>518.0</ele><time>2026-04-11T13:48:40Z</time></trkpt><trkpt lat="45.91577538336631" lon="9.161434358322106"><ele>513.0</ele><time>2026-04-11T13:48:41Z</time></trkpt><trkpt lat="45.91589690760495" lon="9.161390918299077"><ele>508.0</ele><time>2026-04-11T13:48:42Z</time></trkpt><trkpt lat="45.91601895629849" lon="9.16140673564924"><ele>503.0</ele><time>2026-04-11T13:48:43Z</time></trkpt><trkpt lat="45.91613814106007" lon="9.161387329889205"><ele>503.0</ele><time>2026-04-11T13:48:44Z</time></trkpt><trkpt lat="45.91625636499448" lon="9.161405009185769"><ele>503.0</ele><time>2026-04-11T13:48:45Z</time></trkpt><trkpt lat="45.91636630447301" lon="9.161407310068585"><ele>503.0</ele><time>2026-04-11T13:48:46Z</time></trkpt><trkpt lat="45.91647080619142" lon="9.161373712793292"><ele>503.0</ele><time>2026-04-11T13:48:47Z</time></trkpt><trkpt lat="45.916560952260944" lon="9.161256717744044"><ele>503.0</ele><time>2026-04-11T13:48:48Z</time></trkpt><trkpt lat="45.91665801650462" lon="9.161077118266233"><ele>503.0</ele><time>2026-04-11T13:48:49Z</time></trkpt><trkpt lat="45.916754266949276" lon="9.160937138217847"><ele>503.0</ele><time>2026-04-11T13:48:50Z</time></trkpt><trkpt lat="45.916853339862676" lon="9.160780446654323"><ele>503.0</ele><time>2026-04-11T13:48:51Z</time></trkpt><trkpt lat="45.91696371939336" lon="9.1606516663563"><ele>502.25</ele><time>2026-04-11T13:48:52Z</time></trkpt><trkpt lat="45.91707429042467" lon="9.16052383111126"><ele>501.5</ele><time>2026-04-11T13:48:53Z</time></trkpt><trkpt lat="45.91717325363314" lon="9.16038783457005"><ele>500.75</ele><time>2026-04-11T13:48:54Z</time></trkpt><trkpt lat="45.917260363230504" lon="9.160246702062024"><ele>500.0</ele><time>2026-04-11T13:48:55Z</time></trkpt><trkpt lat="45.917336841350874" lon="9.160099985208303"><ele>500.0</ele><time>2026-04-11T13:48:56Z</time></trkpt><trkpt lat="45.917427490052596" lon="9.159971002778178"><ele>500.0</ele><time>2026-04-11T13:48:57Z</time></trkpt><trkpt lat="45.91749650781944" lon="9.159835889694826"><ele>500.0</ele><time>2026-04-11T13:48:58Z</time></trkpt><trkpt lat="45.91759055778572" lon="9.159756414296636"><ele>500.0</ele><time>2026-04-11T13:48:59Z</time></trkpt><trkpt lat="45.917678553926706" lon="9.159717045747218"><ele>500.0</ele><time>2026-04-11T13:49:00Z</time></trkpt><trkpt lat="45.9177410160012" lon="9.159693432594336"><ele>495.6</ele><time>2026-04-11T13:49:01Z</time></trkpt><trkpt lat="45.91779125921691" lon="9.159569713736193"><ele>491.2</ele><time>2026-04-11T13:49:03Z</time></trkpt><trkpt lat="45.917733611211986" lon="9.159472700946987"><ele>486.79999999999995</ele><time>2026-04-11T13:49:04Z</time></trkpt><trkpt lat="45.917631231025936" lon="9.159501000767241"><ele>482.4</ele><time>2026-04-11T13:49:05Z</time></trkpt><trkpt lat="45.91755409260315" lon="9.159639296717707"><ele>478.0</ele><time>2026-04-11T13:49:06Z</time></trkpt><trkpt lat="45.91746858890784" lon="9.159735085585343"><ele>475.0</ele><time>2026-04-11T13:49:07Z</time></trkpt><trkpt lat="45.917367125711195" lon="9.159832189739966"><ele>472.0</ele><time>2026-04-11T13:49:08Z</time></trkpt><trkpt lat="45.917259736607214" lon="9.159932163996572"><ele>469.0</ele><time>2026-04-11T13:49:09Z</time></trkpt><trkpt lat="45.91714780201106" lon="9.160036014701246"><ele>466.0</ele><time>2026-04-11T13:49:10Z</time></trkpt><trkpt lat="45.91702559370753" lon="9.160139298945364"><ele>465.75</ele><time>2026-04-11T13:49:11Z</time></trkpt><trkpt lat="45.91690051881948" lon="9.16023605053541"><ele>465.5</ele><time>2026-04-11T13:49:12Z</time></trkpt><trkpt lat="45.91676638657334" lon="9.160298668423533"><ele>465.25</ele><time>2026-04-11T13:49:13Z</time></trkpt><trkpt lat="45.91663674700939" lon="9.160358176788298"><ele>465.0</ele><time>2026-04-11T13:49:14Z</time></trkpt><trkpt lat="45.91652187093746" lon="9.160460414384914"><ele>465.0</ele><time>2026-04-11T13:49:15Z</time></trkpt><trkpt lat="45.91641598672512" lon="9.160570382378541"><ele>465.0</ele><time>2026-04-11T13:49:16Z</time></trkpt><trkpt lat="45.91631409471827" lon="9.160680525449871"><ele>465.0</ele><time>2026-04-11T13:49:17Z</time></trkpt><trkpt lat="45.91620394406549" lon="9.160755300291404"><ele>465.0</ele><time>2026-04-11T13:49:18Z</time></trkpt><trkpt lat="45.91608353934144" lon="9.160746123286687"><ele>465.0</ele><time>2026-04-11T13:49:19Z</time></trkpt><trkpt lat="45.91596161109474" lon="9.16069092492752"><ele>465.0</ele><time>2026-04-11T13:49:20Z</time></trkpt><trkpt lat="45.915817289757214" lon="9.160647475340777"><ele>465.0</ele><time>2026-04-11T13:49:21Z</time></trkpt><trkpt lat="45.91566821942731" lon="9.160591255745256"><ele>465.0</ele><time>2026-04-11T13:49:22Z</time></trkpt><trkpt lat="45.9155059775084" lon="9.160562357323103"><ele>460.75</ele><time>2026-04-11T13:49:23Z</time></trkpt><trkpt lat="45.91534893187703" lon="9.160542636629703"><ele>456.5</ele><time>2026-04-11T13:49:24Z</time></trkpt><trkpt lat="45.91519953390301" lon="9.160514089599433"><ele>452.25</ele><time>2026-04-11T13:49:25Z</time></trkpt><trkpt lat="45.91506268740497" lon="9.160492342375086"><ele>448.0</ele><time>2026-04-11T13:49:26Z</time></trkpt><trkpt lat="45.91493682942058" lon="9.160462337094069"><ele>446.2</ele><time>2026-04-11T13:49:27Z</time></trkpt><trkpt lat="45.914823322795044" lon="9.16043783990423"><ele>444.4</ele><time>2026-04-11T13:49:28Z</time></trkpt><trkpt lat="45.91472217985309" lon="9.160427307060404"><ele>442.59999999999997</ele><time>2026-04-11T13:49:29Z</time></trkpt><trkpt lat="45.914638846394126" lon="9.160447437381652"><ele>440.79999999999995</ele><time>2026-04-11T13:49:30Z</time></trkpt><trkpt lat="45.91456882919427" lon="9.160445314988165"><ele>439.0</ele><time>2026-04-11T13:49:31Z</time></trkpt><trkpt lat="45.91451965449157" lon="9.160343097644033"><ele>439.0</ele><time>2026-04-11T13:49:33Z</time></trkpt><trkpt lat="45.914576108581755" lon="9.160270363940429"><ele>439.0</ele><time>2026-04-11T13:49:34Z</time></trkpt><trkpt lat="45.91466894162148" lon="9.160336945902124"><ele>439.0</ele><time>2026-04-11T13:49:35Z</time></trkpt><trkpt lat="45.91478481986171" lon="9.160389246156846"><ele>439.0</ele><time>2026-04-11T13:49:36Z</time></trkpt><trkpt lat="45.91492892330018" lon="9.160385423969654"><ele>439.0</ele><time>2026-04-11T13:49:37Z</time></trkpt><trkpt lat="45.91507714832503" lon="9.16034881706513"><ele>442.0</ele><time>2026-04-11T13:49:38Z</time></trkpt><trkpt lat="45.91523363296784" lon="9.160304928861754"><ele>445.0</ele><time>2026-04-11T13:49:39Z</time></trkpt><trkpt lat="45.9153976031127" lon="9.160276296722333"><ele>448.0</ele><time>2026-04-11T13:49:40Z</time></trkpt><trkpt lat="45.91555028019471" lon="9.160295050589188"><ele>448.0</ele><time>2026-04-11T13:49:41Z</time></trkpt><trkpt lat="45.9157025006209" lon="9.160282593666654"><ele>448.0</ele><time>2026-04-11T13:49:42Z</time></trkpt><trkpt lat="45.91583219630553" lon="9.160291668737347"><ele>448.0</ele><time>2026-04-11T13:49:43Z</time></trkpt><trkpt lat="45.91594722098129" lon="9.16029526768409"><ele>448.0</ele><time>2026-04-11T13:49:44Z</time></trkpt><trkpt lat="45.91604078413184" lon="9.160281433261872"><ele>452.25</ele><time>2026-04-11T13:49:45Z</time></trkpt><trkpt lat="45.91610172822831" lon="9.160163223536397"><ele>456.5</ele><time>2026-04-11T13:49:46Z</time></trkpt><trkpt lat="45.916163778877845" lon="9.160012726682227"><ele>460.75</ele><time>2026-04-11T13:49:47Z</time></trkpt><trkpt lat="45.91625507473804" lon="9.15997083904762"><ele>465.0</ele><time>2026-04-11T13:49:48Z</time></trkpt><trkpt lat="45.91637598714984" lon="9.159894389681758"><ele>465.25</ele><time>2026-04-11T13:49:49Z</time></trkpt><trkpt lat="45.91650514107025" lon="9.159849160577089"><ele>465.5</ele><time>2026-04-11T13:49:49.999Z</time></trkpt><trkpt lat="45.91661783993722" lon="9.159752802731393"><ele>465.75</ele><time>2026-04-11T13:49:50.999Z</time></trkpt><trkpt lat="45.91669461725672" lon="9.159581543335756"><ele>466.0</ele><time>2026-04-11T13:49:51.999Z</time></trkpt><trkpt lat="45.91678150602064" lon="9.159462615962365"><ele>466.0</ele><time>2026-04-11T13:49:52.999Z</time></trkpt><trkpt lat="45.916869011601065" lon="9.159357508597296"><ele>466.0</ele><time>2026-04-11T13:49:53.999Z</time></trkpt><trkpt lat="45.916947902542" lon="9.159270118628429"><ele>466.0</ele><time>2026-04-11T13:49:54.999Z</time></trkpt><trkpt lat="45.91698566785857" lon="9.159176270071056"><ele>466.0</ele><time>2026-04-11T13:49:55.999Z</time></trkpt><trkpt lat="45.91698511551469" lon="9.15904537009051"><ele>466.0</ele><time>2026-04-11T13:49:56.999Z</time></trkpt><trkpt lat="45.91693195221494" lon="9.158919180721702"><ele>461.4</ele><time>2026-04-11T13:49:57.999Z</time></trkpt><trkpt lat="45.91687004139132" lon="9.158783702381148"><ele>456.8</ele><time>2026-04-11T13:49:58.999Z</time></trkpt><trkpt lat="45.916838542181424" lon="9.158628279281578"><ele>452.19999999999993</ele><time>2026-04-11T13:49:59.999Z</time></trkpt><trkpt lat="45.91685704271797" lon="9.158489363200431"><ele>447.59999999999997</ele><time>2026-04-11T13:50:00.999Z</time></trkpt><trkpt lat="45.91686789972257" lon="9.158344387628484"><ele>443.0</ele><time>2026-04-11T13:50:01.999Z</time></trkpt><trkpt lat="45.91690698558288" lon="9.15822745558809"><ele>436.79999999999995</ele><time>2026-04-11T13:50:02.999Z</time></trkpt><trkpt lat="45.91697164913644" lon="9.158119158231004"><ele>430.59999999999997</ele><time>2026-04-11T13:50:03.999Z</time></trkpt><trkpt lat="45.9170409468374" lon="9.158001527582883"><ele>424.4</ele><time>2026-04-11T13:50:04.999Z</time></trkpt><trkpt lat="45.91714419934188" lon="9.157943630602743"><ele>418.20000000000005</ele><time>2026-04-11T13:50:05.999Z</time></trkpt><trkpt lat="45.91725492066045" lon="9.15790811166567"><ele>412.0</ele><time>2026-04-11T13:50:06.999Z</time></trkpt><trkpt lat="45.91738136854762" lon="9.15789452581427"><ele>412.0</ele><time>2026-04-11T13:50:07.999Z</time></trkpt><trkpt lat="45.917507357468395" lon="9.157872494956262"><ele>412.0</ele><time>2026-04-11T13:50:08.999Z</time></trkpt><trkpt lat="45.917629294228455" lon="9.15783958708872"><ele>412.0</ele><time>2026-04-11T13:50:09.999Z</time></trkpt><trkpt lat="45.91774817931267" lon="9.157817615451915"><ele>412.0</ele><time>2026-04-11T13:50:10.999Z</time></trkpt><trkpt lat="45.91786299519983" lon="9.157848529716354"><ele>409.6</ele><time>2026-04-11T13:50:11.999Z</time></trkpt><trkpt lat="45.917963816717005" lon="9.157896265675738"><ele>407.20000000000005</ele><time>2026-04-11T13:50:12.999Z</time></trkpt><trkpt lat="45.91803742539062" lon="9.157977941142912"><ele>404.8</ele><time>2026-04-11T13:50:13.999Z</time></trkpt><trkpt lat="45.918081034857124" lon="9.158056265250764"><ele>402.4</ele><time>2026-04-11T13:50:14.999Z</time></trkpt><trkpt lat="45.918163735825686" lon="9.157979627178497"><ele>400.0</ele><time>2026-04-11T13:50:16.999Z</time></trkpt><trkpt lat="45.91809078435261" lon="9.157839125457398"><ele>400.0</ele><time>2026-04-11T13:50:18.999Z</time></trkpt><trkpt lat="45.918005053351706" lon="9.15782019631848"><ele>400.0</ele><time>2026-04-11T13:50:19.999Z</time></trkpt><trkpt lat="45.917911512437875" lon="9.157794601488321"><ele>400.0</ele><time>2026-04-11T13:50:20.999Z</time></trkpt><trkpt lat="45.917813428930295" lon="9.157742102964296"><ele>400.0</ele><time>2026-04-11T13:50:21.999Z</time></trkpt><trkpt lat="45.91771948038194" lon="9.157658899160424"><ele>400.0</ele><time>2026-04-11T13:50:22.999Z</time></trkpt><trkpt lat="45.91763139195467" lon="9.157572234373383"><ele>403.0</ele><time>2026-04-11T13:50:23.999Z</time></trkpt><trkpt lat="45.917508065542094" lon="9.157582573009027"><ele>406.0</ele><time>2026-04-11T13:50:24.999Z</time></trkpt><trkpt lat="45.91736975044432" lon="9.157605012890665"><ele>409.0</ele><time>2026-04-11T13:50:25.999Z</time></trkpt><trkpt lat="45.91723501347013" lon="9.157578767287925"><ele>412.0</ele><time>2026-04-11T13:50:26.999Z</time></trkpt><trkpt lat="45.9171050205105" lon="9.157602211988142"><ele>412.0</ele><time>2026-04-11T13:50:27.999Z</time></trkpt><trkpt lat="45.916980477689435" lon="9.157625696355865"><ele>412.0</ele><time>2026-04-11T13:50:28.999Z</time></trkpt><trkpt lat="45.91687396933374" lon="9.157691872415816"><ele>412.0</ele><time>2026-04-11T13:50:29.999Z</time></trkpt><trkpt lat="45.91675943180443" lon="9.157768824024757"><ele>412.0</ele><time>2026-04-11T13:50:30.999Z</time></trkpt><trkpt lat="45.916657851271474" lon="9.157876129369777"><ele>413.0</ele><time>2026-04-11T13:50:31.999Z</time></trkpt><trkpt lat="45.91657163164494" lon="9.157995443183978"><ele>414.0</ele><time>2026-04-11T13:50:33Z</time></trkpt><trkpt lat="45.91649417964931" lon="9.158119844172957"><ele>415.0</ele><time>2026-04-11T13:50:34Z</time></trkpt><trkpt lat="45.91643917859229" lon="9.15825541356027"><ele>416.0</ele><time>2026-04-11T13:50:35Z</time></trkpt><trkpt lat="45.91639288493488" lon="9.158391614245751"><ele>416.0</ele><time>2026-04-11T13:50:36Z</time></trkpt><trkpt lat="45.91635412981209" lon="9.15852747636134"><ele>416.0</ele><time>2026-04-11T13:50:37Z</time></trkpt><trkpt lat="45.916293924510924" lon="9.158645091470548"><ele>416.0</ele><time>2026-04-11T13:50:38Z</time></trkpt><trkpt lat="45.91623999292782" lon="9.158759696063955"><ele>416.0</ele><time>2026-04-11T13:50:39Z</time></trkpt><trkpt lat="45.916151411774166" lon="9.158798496795349"><ele>416.0</ele><time>2026-04-11T13:50:40Z</time></trkpt><trkpt lat="45.91603674980123" lon="9.15878877513067"><ele>416.0</ele><time>2026-04-11T13:50:41Z</time></trkpt><trkpt lat="45.91590812099021" lon="9.158776338647845"><ele>416.0</ele><time>2026-04-11T13:50:42Z</time></trkpt><trkpt lat="45.91578587257814" lon="9.158734570671852"><ele>416.0</ele><time>2026-04-11T13:50:43Z</time></trkpt><trkpt lat="45.915682422641574" lon="9.158649190040089"><ele>416.0</ele><time>2026-04-11T13:50:44Z</time></trkpt><trkpt lat="45.915587972268085" lon="9.158535661138599"><ele>410.20000000000005</ele><time>2026-04-11T13:50:45Z</time></trkpt><trkpt lat="45.91549091804975" lon="9.158454862446167"><ele>404.40000000000003</ele><time>2026-04-11T13:50:46Z</time></trkpt><trkpt lat="45.91539816500813" lon="9.158377898664941"><ele>398.6</ele><time>2026-04-11T13:50:47Z</time></trkpt><trkpt lat="45.91529091266661" lon="9.158354231513629"><ele>392.8</ele><time>2026-04-11T13:50:48Z</time></trkpt><trkpt lat="45.91518184141706" lon="9.158384255889244"><ele>387.0</ele><time>2026-04-11T13:50:49Z</time></trkpt><trkpt lat="45.915075313869465" lon="9.158445679835198"><ele>386.8</ele><time>2026-04-11T13:50:50Z</time></trkpt><trkpt lat="45.91496111276462" lon="9.158483487529507"><ele>386.6</ele><time>2026-04-11T13:50:51Z</time></trkpt><trkpt lat="45.914856433453544" lon="9.158524168493987"><ele>386.40000000000003</ele><time>2026-04-11T13:50:52Z</time></trkpt><trkpt lat="45.91476167017668" lon="9.158506959151834"><ele>386.20000000000005</ele><time>2026-04-11T13:50:53Z</time></trkpt><trkpt lat="45.91468449953727" lon="9.158421452408989"><ele>386.0</ele><time>2026-04-11T13:50:54Z</time></trkpt><trkpt lat="45.914593416763" lon="9.158383783427423"><ele>386.0</ele><time>2026-04-11T13:50:55Z</time></trkpt><trkpt lat="45.91448744563437" lon="9.158375820504506"><ele>386.0</ele><time>2026-04-11T13:50:56Z</time></trkpt><trkpt lat="45.91437322717465" lon="9.158429549008739"><ele>386.0</ele><time>2026-04-11T13:50:57Z</time></trkpt><trkpt lat="45.91425920929068" lon="9.158467092704154"><ele>386.0</ele><time>2026-04-11T13:50:58Z</time></trkpt><trkpt lat="45.914144929350265" lon="9.158525974065482"><ele>383.0</ele><time>2026-04-11T13:50:59Z</time></trkpt><trkpt lat="45.91402787358173" lon="9.158584463650557"><ele>380.0</ele><time>2026-04-11T13:51:00Z</time></trkpt><trkpt lat="45.91391734416361" lon="9.158634385746657"><ele>377.0</ele><time>2026-04-11T13:51:01Z</time></trkpt><trkpt lat="45.91380745445352" lon="9.158667718531097"><ele>374.0</ele><time>2026-04-11T13:51:02Z</time></trkpt><trkpt lat="45.91370235111474" lon="9.158669753273934"><ele>374.0</ele><time>2026-04-11T13:51:03Z</time></trkpt><trkpt lat="45.91359771342766" lon="9.158614460395437"><ele>374.0</ele><time>2026-04-11T13:51:04Z</time></trkpt><trkpt lat="45.91347051655413" lon="9.158546275893606"><ele>374.0</ele><time>2026-04-11T13:51:05Z</time></trkpt><trkpt lat="45.913337636705755" lon="9.158507026970028"><ele>374.0</ele><time>2026-04-11T13:51:06Z</time></trkpt><trkpt lat="45.91319768674537" lon="9.158488714149376"><ele>372.5</ele><time>2026-04-11T13:51:07Z</time></trkpt><trkpt lat="45.913049751007684" lon="9.158502226544748"><ele>371.0</ele><time>2026-04-11T13:51:08Z</time></trkpt><trkpt lat="45.912910999152054" lon="9.158540081645297"><ele>369.5</ele><time>2026-04-11T13:51:09Z</time></trkpt><trkpt lat="45.91276745296069" lon="9.158580314570852"><ele>368.0</ele><time>2026-04-11T13:51:10Z</time></trkpt><trkpt lat="45.91263009693467" lon="9.158614322382547"><ele>365.5</ele><time>2026-04-11T13:51:11Z</time></trkpt><trkpt lat="45.91249992103777" lon="9.158647524422198"><ele>363.0</ele><time>2026-04-11T13:51:12Z</time></trkpt><trkpt lat="45.91237098190679" lon="9.158684620595952"><ele>360.5</ele><time>2026-04-11T13:51:13Z</time></trkpt><trkpt lat="45.91225200446877" lon="9.158728387545011"><ele>358.0</ele><time>2026-04-11T13:51:14Z</time></trkpt><trkpt lat="45.912139510046615" lon="9.158786557894695"><ele>358.0</ele><time>2026-04-11T13:51:15Z</time></trkpt><trkpt lat="45.91203445463299" lon="9.158865547948919"><ele>358.0</ele><time>2026-04-11T13:51:16Z</time></trkpt><trkpt lat="45.91192952775565" lon="9.158942061778466"><ele>358.0</ele><time>2026-04-11T13:51:17Z</time></trkpt><trkpt lat="45.91182939039804" lon="9.1590386456184"><ele>358.0</ele><time>2026-04-11T13:51:18Z</time></trkpt><trkpt lat="45.911715368590734" lon="9.159115658933228"><ele>359.0</ele><time>2026-04-11T13:51:19Z</time></trkpt><trkpt lat="45.91159707037286" lon="9.159184742998296"><ele>360.0</ele><time>2026-04-11T13:51:20Z</time></trkpt><trkpt lat="45.911476875984086" lon="9.159241673501855"><ele>361.0</ele><time>2026-04-11T13:51:21Z</time></trkpt><trkpt lat="45.91135294061071" lon="9.15924937147544"><ele>362.0</ele><time>2026-04-11T13:51:22Z</time></trkpt><trkpt lat="45.911234887870094" lon="9.15927253769023"><ele>362.0</ele><time>2026-04-11T13:51:23Z</time></trkpt><trkpt lat="45.91111465051913" lon="9.159242137186482"><ele>362.0</ele><time>2026-04-11T13:51:24Z</time></trkpt><trkpt lat="45.910990387004325" lon="9.159215521928987"><ele>362.0</ele><time>2026-04-11T13:51:25Z</time></trkpt><trkpt lat="45.91088332320233" lon="9.159141733528761"><ele>362.0</ele><time>2026-04-11T13:51:26Z</time></trkpt><trkpt lat="45.910771055700934" lon="9.159129758220026"><ele>360.1666666666667</ele><time>2026-04-11T13:51:27Z</time></trkpt><trkpt lat="45.91067336169866" lon="9.159155383865244"><ele>358.33333333333337</ele><time>2026-04-11T13:51:28Z</time></trkpt><trkpt lat="45.910593431967776" lon="9.159177516848386"><ele>356.5</ele><time>2026-04-11T13:51:29Z</time></trkpt><trkpt lat="45.910535605569066" lon="9.159215671923771"><ele>354.6666666666667</ele><time>2026-04-11T13:51:30Z</time></trkpt><trkpt lat="45.91049585621657" lon="9.15910860674282"><ele>352.8333333333333</ele><time>2026-04-11T13:51:33Z</time></trkpt><trkpt lat="45.91060568430607" lon="9.159072646592042"><ele>351.0</ele><time>2026-04-11T13:51:34Z</time></trkpt><trkpt lat="45.91071686127357" lon="9.159037775552253"><ele>347.6666666666667</ele><time>2026-04-11T13:51:35Z</time></trkpt><trkpt lat="45.91087228376487" lon="9.15895014973715"><ele>344.33333333333337</ele><time>2026-04-11T13:51:36Z</time></trkpt><trkpt lat="45.91106852265998" lon="9.158839303494991"><ele>341.0</ele><time>2026-04-11T13:51:37Z</time></trkpt><trkpt lat="45.911269865868064" lon="9.158733839288885"><ele>341.0</ele><time>2026-04-11T13:51:38Z</time></trkpt><trkpt lat="45.91145404397608" lon="9.158637718588242"><ele>341.0</ele><time>2026-04-11T13:51:39Z</time></trkpt><trkpt lat="45.91161585382871" lon="9.158541800553197"><ele>341.0</ele><time>2026-04-11T13:51:40Z</time></trkpt><trkpt lat="45.911758873898215" lon="9.158439570455906"><ele>339.33333333333337</ele><time>2026-04-11T13:51:41Z</time></trkpt><trkpt lat="45.9118893981787" lon="9.158315503096707"><ele>337.6666666666667</ele><time>2026-04-11T13:51:42Z</time></trkpt><trkpt lat="45.912014936183816" lon="9.158163031600074"><ele>336.0</ele><time>2026-04-11T13:51:43Z</time></trkpt><trkpt lat="45.91213531680116" lon="9.157994777166666"><ele>336.0</ele><time>2026-04-11T13:51:44Z</time></trkpt><trkpt lat="45.91224780959158" lon="9.157825430625078"><ele>336.0</ele><time>2026-04-11T13:51:45Z</time></trkpt><trkpt lat="45.91235560730052" lon="9.157656303835415"><ele>336.0</ele><time>2026-04-11T13:51:46Z</time></trkpt><trkpt lat="45.912450761936626" lon="9.157492538137443"><ele>334.20000000000005</ele><time>2026-04-11T13:51:47Z</time></trkpt><trkpt lat="45.912537983105466" lon="9.157362083484948"><ele>332.40000000000003</ele><time>2026-04-11T13:51:48Z</time></trkpt><trkpt lat="45.912608398348375" lon="9.15727944409267"><ele>330.6</ele><time>2026-04-11T13:51:48.999Z</time></trkpt><trkpt lat="45.912666726646" lon="9.15723005103946"><ele>328.8</ele><time>2026-04-11T13:51:49.999Z</time></trkpt><trkpt lat="45.91276240056401" lon="9.157188277118454"><ele>327.0</ele><time>2026-04-11T13:51:50.999Z</time></trkpt><trkpt lat="45.91287558021688" lon="9.157160020382943"><ele>327.0</ele><time>2026-04-11T13:51:51.999Z</time></trkpt><trkpt lat="45.91298434925963" lon="9.157128411834908"><ele>327.0</ele><time>2026-04-11T13:51:52.999Z</time></trkpt><trkpt lat="45.91307698404667" lon="9.157079882556621"><ele>327.0</ele><time>2026-04-11T13:51:53.999Z</time></trkpt><trkpt lat="45.913151497450016" lon="9.156985414200367"><ele>327.0</ele><time>2026-04-11T13:51:54.999Z</time></trkpt><trkpt lat="45.91320166170484" lon="9.156843988817267"><ele>327.0</ele><time>2026-04-11T13:51:55.999Z</time></trkpt><trkpt lat="45.91324280724735" lon="9.156682531516816"><ele>323.0</ele><time>2026-04-11T13:51:56.999Z</time></trkpt><trkpt lat="45.91328844199466" lon="9.15652399153948"><ele>319.0</ele><time>2026-04-11T13:51:57.999Z</time></trkpt><trkpt lat="45.913340952607044" lon="9.156377643334055"><ele>315.0</ele><time>2026-04-11T13:51:58.999Z</time></trkpt><trkpt lat="45.91340423606199" lon="9.156247490707461"><ele>311.0</ele><time>2026-04-11T13:51:59.999Z</time></trkpt><trkpt lat="45.91348972438527" lon="9.156152048864156"><ele>311.0</ele><time>2026-04-11T13:52:00.999Z</time></trkpt><trkpt lat="45.913587891069014" lon="9.15610089093236"><ele>311.0</ele><time>2026-04-11T13:52:01.999Z</time></trkpt><trkpt lat="45.91369256500063" lon="9.156072775597002"><ele>311.0</ele><time>2026-04-11T13:52:02.999Z</time></trkpt><trkpt lat="45.91379674707486" lon="9.15603678855349"><ele>311.0</ele><time>2026-04-11T13:52:03.999Z</time></trkpt><trkpt lat="45.913904217269135" lon="9.156004526076261"><ele>311.0</ele><time>2026-04-11T13:52:04.999Z</time></trkpt><trkpt lat="45.914016540103894" lon="9.155979705769592"><ele>311.0</ele><time>2026-04-11T13:52:05.999Z</time></trkpt><trkpt lat="45.91413389275328" lon="9.155962370682936"><ele>311.0</ele><time>2026-04-11T13:52:06.999Z</time></trkpt><trkpt lat="45.91425549487667" lon="9.155951394938262"><ele>311.0</ele><time>2026-04-11T13:52:07.999Z</time></trkpt><trkpt lat="45.914372327230936" lon="9.15594758493417"><ele>311.0</ele><time>2026-04-11T13:52:08.999Z</time></trkpt><trkpt lat="45.914484034604904" lon="9.155950852467846"><ele>310.8</ele><time>2026-04-11T13:52:09.999Z</time></trkpt><trkpt lat="45.914587958811964" lon="9.155975438742423"><ele>310.6</ele><time>2026-04-11T13:52:10.999Z</time></trkpt><trkpt lat="45.91468881140442" lon="9.15600540165306"><ele>310.4</ele><time>2026-04-11T13:52:11.999Z</time></trkpt><trkpt lat="45.91478952274772" lon="9.156028069010707"><ele>310.2</ele><time>2026-04-11T13:52:12.999Z</time></trkpt><trkpt lat="45.914886354719165" lon="9.155916322104613"><ele>310.0</ele><time>2026-04-11T13:52:13.999Z</time></trkpt><trkpt lat="45.9149900534487" lon="9.155846930126728"><ele>313.0</ele><time>2026-04-11T13:52:14.999Z</time></trkpt><trkpt lat="45.91510561579086" lon="9.155845468653558"><ele>316.0</ele><time>2026-04-11T13:52:15.999Z</time></trkpt><trkpt lat="45.9152098092356" lon="9.155818487302833"><ele>319.0</ele><time>2026-04-11T13:52:16.999Z</time></trkpt><trkpt lat="45.91530482770046" lon="9.155765379981501"><ele>322.0</ele><time>2026-04-11T13:52:17.999Z</time></trkpt><trkpt lat="45.91535545315794" lon="9.155589176491647"><ele>316.0</ele><time>2026-04-11T13:52:18.999Z</time></trkpt><trkpt lat="45.91538756739858" lon="9.155431057584302"><ele>310.0</ele><time>2026-04-11T13:52:19.999Z</time></trkpt><trkpt lat="45.91542859476199" lon="9.155305191349498"><ele>304.0</ele><time>2026-04-11T13:52:20.999Z</time></trkpt><trkpt lat="45.915512523072714" lon="9.155256635279379"><ele>298.0</ele><time>2026-04-11T13:52:21.999Z</time></trkpt><trkpt lat="45.91560964285782" lon="9.155234198960065"><ele>292.0</ele><time>2026-04-11T13:52:22.999Z</time></trkpt><trkpt lat="45.91571971733667" lon="9.155220497061043"><ele>292.0</ele><time>2026-04-11T13:52:23.999Z</time></trkpt><trkpt lat="45.9158355528512" lon="9.155202185851463"><ele>292.0</ele><time>2026-04-11T13:52:24.999Z</time></trkpt><trkpt lat="45.91595227962667" lon="9.15524104014784"><ele>292.0</ele><time>2026-04-11T13:52:25.999Z</time></trkpt><trkpt lat="45.91607626564376" lon="9.155236216215691"><ele>292.0</ele><time>2026-04-11T13:52:26.999Z</time></trkpt><trkpt lat="45.916197911221275" lon="9.155250773353423"><ele>293.5</ele><time>2026-04-11T13:52:27.999Z</time></trkpt><trkpt lat="45.91631973642146" lon="9.155237505165625"><ele>295.0</ele><time>2026-04-11T13:52:28.999Z</time></trkpt><trkpt lat="45.91643778501192" lon="9.155179360857284"><ele>296.5</ele><time>2026-04-11T13:52:29.999Z</time></trkpt><trkpt lat="45.91654324289791" lon="9.155090643293827"><ele>298.0</ele><time>2026-04-11T13:52:30.999Z</time></trkpt><trkpt lat="45.916649329794076" lon="9.155038983224294"><ele>297.4</ele><time>2026-04-11T13:52:31.999Z</time></trkpt><trkpt lat="45.91674849109663" lon="9.154981258188373"><ele>296.8</ele><time>2026-04-11T13:52:32.999Z</time></trkpt><trkpt lat="45.91684647928686" lon="9.154937429981741"><ele>296.2</ele><time>2026-04-11T13:52:33.999Z</time></trkpt><trkpt lat="45.91694207871425" lon="9.154911008391148"><ele>295.6</ele><time>2026-04-11T13:52:34.999Z</time></trkpt><trkpt lat="45.917034429025804" lon="9.15487866966303"><ele>295.0</ele><time>2026-04-11T13:52:35.999Z</time></trkpt><trkpt lat="45.9171189249856" lon="9.154890699282756"><ele>295.0</ele><time>2026-04-11T13:52:36.999Z</time></trkpt><trkpt lat="45.91719166388557" lon="9.154909228579639"><ele>295.0</ele><time>2026-04-11T13:52:37.999Z</time></trkpt><trkpt lat="45.91726740447747" lon="9.154819202826959"><ele>295.0</ele><time>2026-04-11T13:52:40Z</time></trkpt><trkpt lat="45.91723935870579" lon="9.154733472956973"><ele>295.0</ele><time>2026-04-11T13:52:41Z</time></trkpt><trkpt lat="45.917089749301695" lon="9.154726882873499"><ele>295.0</ele><time>2026-04-11T13:52:43Z</time></trkpt><trkpt lat="45.91700955618951" lon="9.154751512488858"><ele>288.2</ele><time>2026-04-11T13:52:44Z</time></trkpt><trkpt lat="45.91691412806325" lon="9.154742823406197"><ele>281.4</ele><time>2026-04-11T13:52:45Z</time></trkpt><trkpt lat="45.91681236648737" lon="9.154737169909923"><ele>274.6</ele><time>2026-04-11T13:52:46Z</time></trkpt><trkpt lat="45.91670665971167" lon="9.15473987321547"><ele>267.8</ele><time>2026-04-11T13:52:47Z</time></trkpt><trkpt lat="45.916598445872566" lon="9.154749654739264"><ele>261.0</ele><time>2026-04-11T13:52:48Z</time></trkpt><trkpt lat="45.91648781844865" lon="9.154772645422167"><ele>261.0</ele><time>2026-04-11T13:52:49Z</time></trkpt><trkpt lat="45.91637544436239" lon="9.154793787430195"><ele>261.0</ele><time>2026-04-11T13:52:50Z</time></trkpt><trkpt lat="45.91626814890275" lon="9.1548189200305"><ele>261.0</ele><time>2026-04-11T13:52:51Z</time></trkpt><trkpt lat="45.91616753834625" lon="9.154795637584646"><ele>261.0</ele><time>2026-04-11T13:52:52Z</time></trkpt><trkpt lat="45.916072000083666" lon="9.15475236147232"><ele>261.0</ele><time>2026-04-11T13:52:53Z</time></trkpt><trkpt lat="45.915970616330796" lon="9.154686376135189"><ele>260.8</ele><time>2026-04-11T13:52:54Z</time></trkpt><trkpt lat="45.91586185626957" lon="9.154611950463208"><ele>260.6</ele><time>2026-04-11T13:52:55Z</time></trkpt><trkpt lat="45.91575823478267" lon="9.154544215799394"><ele>260.4</ele><time>2026-04-11T13:52:56Z</time></trkpt><trkpt lat="45.91565271548304" lon="9.154504280795859"><ele>260.2</ele><time>2026-04-11T13:52:57Z</time></trkpt><trkpt lat="45.915561203115686" lon="9.154460781199477"><ele>260.0</ele><time>2026-04-11T13:52:58Z</time></trkpt><trkpt lat="45.915465935021714" lon="9.154432974072943"><ele>260.0</ele><time>2026-04-11T13:52:59Z</time></trkpt><trkpt lat="45.9153646989396" lon="9.15444329800964"><ele>260.0</ele><time>2026-04-11T13:53:00Z</time></trkpt><trkpt lat="45.91525560401986" lon="9.154483736221438"><ele>260.0</ele><time>2026-04-11T13:53:01Z</time></trkpt><trkpt lat="45.91514956659832" lon="9.154546993568689"><ele>260.0</ele><time>2026-04-11T13:53:02Z</time></trkpt><trkpt lat="45.91505054642666" lon="9.154616227640165"><ele>260.0</ele><time>2026-04-11T13:53:03Z</time></trkpt><trkpt lat="45.91495864661352" lon="9.15468427276876"><ele>260.2</ele><time>2026-04-11T13:53:04Z</time></trkpt><trkpt lat="45.91486720035946" lon="9.154743267677398"><ele>260.4</ele><time>2026-04-11T13:53:05Z</time></trkpt><trkpt lat="45.91477380584766" lon="9.154779815438093"><ele>260.6</ele><time>2026-04-11T13:53:06Z</time></trkpt><trkpt lat="45.914684029261686" lon="9.154822137894355"><ele>260.8</ele><time>2026-04-11T13:53:07Z</time></trkpt><trkpt lat="45.91459210831094" lon="9.154822960562715"><ele>261.0</ele><time>2026-04-11T13:53:08Z</time></trkpt><trkpt lat="45.9145111779019" lon="9.154791160533012"><ele>261.0</ele><time>2026-04-11T13:53:09Z</time></trkpt><trkpt lat="45.91444148164395" lon="9.15469673150553"><ele>261.0</ele><time>2026-04-11T13:53:10Z</time></trkpt><trkpt lat="45.91436530369245" lon="9.154617406069978"><ele>261.0</ele><time>2026-04-11T13:53:11Z</time></trkpt><trkpt lat="45.914266538693596" lon="9.154554636320691"><ele>261.0</ele><time>2026-04-11T13:53:12Z</time></trkpt><trkpt lat="45.9141585146344" lon="9.15449791136355"><ele>261.0</ele><time>2026-04-11T13:53:13Z</time></trkpt><trkpt lat="45.91404335608973" lon="9.154443127841574"><ele>260.25</ele><time>2026-04-11T13:53:14Z</time></trkpt><trkpt lat="45.91393553245838" lon="9.1543598165517"><ele>259.5</ele><time>2026-04-11T13:53:15Z</time></trkpt><trkpt lat="45.913815743138045" lon="9.154319038050806"><ele>258.75</ele><time>2026-04-11T13:53:16Z</time></trkpt><trkpt lat="45.913700874653145" lon="9.154271942413635"><ele>258.0</ele><time>2026-04-11T13:53:17Z</time></trkpt><trkpt lat="45.913566523126114" lon="9.154284615129225"><ele>258.0</ele><time>2026-04-11T13:53:18Z</time></trkpt><trkpt lat="45.91342039436388" lon="9.15433826661237"><ele>258.0</ele><time>2026-04-11T13:53:19Z</time></trkpt><trkpt lat="45.91326488885411" lon="9.15441944624699"><ele>258.0</ele><time>2026-04-11T13:53:20Z</time></trkpt><trkpt lat="45.913104700179424" lon="9.154533832335598"><ele>255.33333333333331</ele><time>2026-04-11T13:53:21Z</time></trkpt><trkpt lat="45.912959514251675" lon="9.154631876786224"><ele>252.66666666666666</ele><time>2026-04-11T13:53:22Z</time></trkpt><trkpt lat="45.912831441898746" lon="9.154759006784406"><ele>250.0</ele><time>2026-04-11T13:53:23Z</time></trkpt><trkpt lat="45.91270588837406" lon="9.154875535640521"><ele>253.5</ele><time>2026-04-11T13:53:24Z</time></trkpt><trkpt lat="45.91258533322805" lon="9.154981805421695"><ele>257.0</ele><time>2026-04-11T13:53:25Z</time></trkpt><trkpt lat="45.9124611400716" lon="9.155041522536614"><ele>260.5</ele><time>2026-04-11T13:53:26Z</time></trkpt><trkpt lat="45.91235295009604" lon="9.155075241019466"><ele>264.0</ele><time>2026-04-11T13:53:27Z</time></trkpt><trkpt lat="45.91226160323568" lon="9.155113290637843"><ele>264.0</ele><time>2026-04-11T13:53:28Z</time></trkpt><trkpt lat="45.91218671447045" lon="9.155167660379723"><ele>264.0</ele><time>2026-04-11T13:53:29Z</time></trkpt><trkpt lat="45.91212430315686" lon="9.155185502811387"><ele>264.0</ele><time>2026-04-11T13:53:30Z</time></trkpt><trkpt lat="45.912009096874066" lon="9.155193997526013"><ele>264.0</ele><time>2026-04-11T13:53:32Z</time></trkpt><trkpt lat="45.911918732435346" lon="9.15519332366197"><ele>264.0</ele><time>2026-04-11T13:53:33Z</time></trkpt><trkpt lat="45.91181215158693" lon="9.155227681176406"><ele>257.25</ele><time>2026-04-11T13:53:34Z</time></trkpt><trkpt lat="45.91169985952653" lon="9.155263524614838"><ele>250.5</ele><time>2026-04-11T13:53:35Z</time></trkpt><trkpt lat="45.911579249491815" lon="9.155244670046988"><ele>243.75</ele><time>2026-04-11T13:53:36Z</time></trkpt><trkpt lat="45.91145102272042" lon="9.155245203067485"><ele>237.0</ele><time>2026-04-11T13:53:37Z</time></trkpt><trkpt lat="45.91132137838763" lon="9.155327184681166"><ele>237.0</ele><time>2026-04-11T13:53:38Z</time></trkpt><trkpt lat="45.91118802902541" lon="9.155393610028934"><ele>237.0</ele><time>2026-04-11T13:53:39Z</time></trkpt><trkpt lat="45.91106169751327" lon="9.155474239267349"><ele>237.0</ele><time>2026-04-11T13:53:40Z</time></trkpt><trkpt lat="45.910933984996" lon="9.155563621947064"><ele>237.0</ele><time>2026-04-11T13:53:41Z</time></trkpt><trkpt lat="45.91081624253309" lon="9.155666416004179"><ele>235.0</ele><time>2026-04-11T13:53:42Z</time></trkpt><trkpt lat="45.910692439832786" lon="9.155670001700784"><ele>233.0</ele><time>2026-04-11T13:53:43Z</time></trkpt><trkpt lat="45.910589270511004" lon="9.155711953232355"><ele>231.0</ele><time>2026-04-11T13:53:44Z</time></trkpt><trkpt lat="45.9105046473536" lon="9.155732129332453"><ele>229.0</ele><time>2026-04-11T13:53:45Z</time></trkpt><trkpt lat="45.91043127274271" lon="9.155753723726876"><ele>227.0</ele><time>2026-04-11T13:53:46Z</time></trkpt><trkpt lat="45.91036799353627" lon="9.155780646622343"><ele>231.50000000000003</ele><time>2026-04-11T13:53:47Z</time></trkpt><trkpt lat="45.91027252088852" lon="9.155808747120211"><ele>236.0</ele><time>2026-04-11T13:53:49Z</time></trkpt><trkpt lat="45.91019186997661" lon="9.15580175578372"><ele>240.5</ele><time>2026-04-11T13:53:51Z</time></trkpt><trkpt lat="45.91011705613693" lon="9.155798259579237"><ele>245.0</ele><time>2026-04-11T13:53:52.999Z</time></trkpt><trkpt lat="45.91003556190427" lon="9.155785316094104"><ele>249.50000000000003</ele><time>2026-04-11T13:53:57.999Z</time></trkpt><trkpt lat="45.909963323100605" lon="9.15575637335762"><ele>254.0</ele><time>2026-04-11T13:53:58.999Z</time></trkpt><trkpt lat="45.90992886836842" lon="9.155657876403064"><ele>254.0</ele><time>2026-04-11T13:53:59.999Z</time></trkpt><trkpt lat="45.909902960885255" lon="9.15555685528344"><ele>253.99999999999997</ele><time>2026-04-11T13:54:00.999Z</time></trkpt><trkpt lat="45.90987924452979" lon="9.155440448974874"><ele>253.99999999999997</ele><time>2026-04-11T13:54:01.999Z</time></trkpt><trkpt lat="45.90984286550882" lon="9.155305555806507"><ele>254.0</ele><time>2026-04-11T13:54:02.999Z</time></trkpt><trkpt lat="45.90981907223369" lon="9.155160009083717"><ele>254.0</ele><time>2026-04-11T13:54:03.999Z</time></trkpt><trkpt lat="45.90974307404021" lon="9.15503668636448"><ele>247.6</ele><time>2026-04-11T13:54:04.999Z</time></trkpt><trkpt lat="45.9096974986231" lon="9.154862245367088"><ele>241.2</ele><time>2026-04-11T13:54:05.999Z</time></trkpt><trkpt lat="45.90966006419043" lon="9.154715661945065"><ele>234.79999999999998</ele><time>2026-04-11T13:54:06.999Z</time></trkpt><trkpt lat="45.90962217411045" lon="9.154633899327514"><ele>228.39999999999998</ele><time>2026-04-11T13:54:07.999Z</time></trkpt><trkpt lat="45.90954438672736" lon="9.154578108704161"><ele>222.0</ele><time>2026-04-11T13:54:08.999Z</time></trkpt><trkpt lat="45.90946771491144" lon="9.154536131389467"><ele>222.0</ele><time>2026-04-11T13:54:09.999Z</time></trkpt><trkpt lat="45.909305951969536" lon="9.154553699841228"><ele>222.0</ele><time>2026-04-11T13:54:10.999Z</time></trkpt><trkpt lat="45.90914917732141" lon="9.154550301324987"><ele>222.0</ele><time>2026-04-11T13:54:11.999Z</time></trkpt><trkpt lat="45.90904073587874" lon="9.154603179354423"><ele>222.0</ele><time>2026-04-11T13:54:12.999Z</time></trkpt><trkpt lat="45.90893956427968" lon="9.154682149642312"><ele>227.6</ele><time>2026-04-11T13:54:13.999Z</time></trkpt><trkpt lat="45.90885601624719" lon="9.154748878962705"><ele>233.2</ele><time>2026-04-11T13:54:14.999Z</time></trkpt><trkpt lat="45.90874864589389" lon="9.154734322549913"><ele>238.8</ele><time>2026-04-11T13:54:15.999Z</time></trkpt><trkpt lat="45.90864442900697" lon="9.154642891592982"><ele>244.4</ele><time>2026-04-11T13:54:16.999Z</time></trkpt><trkpt lat="45.908538754359704" lon="9.154555501628296"><ele>250.0</ele><time>2026-04-11T13:54:17.999Z</time></trkpt><trkpt lat="45.90842791947169" lon="9.154501395008205"><ele>251.0</ele><time>2026-04-11T13:54:18.999Z</time></trkpt><trkpt lat="45.90832031718514" lon="9.154481613430805"><ele>252.0</ele><time>2026-04-11T13:54:19.999Z</time></trkpt><trkpt lat="45.90820841397774" lon="9.15451308407552"><ele>253.0</ele><time>2026-04-11T13:54:20.999Z</time></trkpt><trkpt lat="45.90810201808711" lon="9.154561743082137"><ele>254.0</ele><time>2026-04-11T13:54:21.999Z</time></trkpt><trkpt lat="45.908021008525346" lon="9.154627070613753"><ele>255.0</ele><time>2026-04-11T13:54:22.999Z</time></trkpt><trkpt lat="45.90792216020786" lon="9.154661452204591"><ele>255.0</ele><time>2026-04-11T13:54:23.999Z</time></trkpt><trkpt lat="45.90780863330886" lon="9.1546318251247"><ele>255.0</ele><time>2026-04-11T13:54:24.999Z</time></trkpt><trkpt lat="45.90766962191671" lon="9.154637173457434"><ele>255.0</ele><time>2026-04-11T13:54:25.999Z</time></trkpt><trkpt lat="45.90751377673179" lon="9.154594657009689"><ele>255.0</ele><time>2026-04-11T13:54:26.999Z</time></trkpt><trkpt lat="45.9072951896697" lon="9.154576276660453"><ele>255.33333333333331</ele><time>2026-04-11T13:54:27.999Z</time></trkpt><trkpt lat="45.907096155130546" lon="9.154561845235431"><ele>255.66666666666666</ele><time>2026-04-11T13:54:28.999Z</time></trkpt><trkpt lat="45.90690425383268" lon="9.154559837250671"><ele>256.0</ele><time>2026-04-11T13:54:29.999Z</time></trkpt><trkpt lat="45.90671095526694" lon="9.154575687072237"><ele>256.0</ele><time>2026-04-11T13:54:30.999Z</time></trkpt><trkpt lat="45.90653479159406" lon="9.154597061470222"><ele>256.0</ele><time>2026-04-11T13:54:31.999Z</time></trkpt><trkpt lat="45.906356643498654" lon="9.154670930762887"><ele>256.0</ele><time>2026-04-11T13:54:32.999Z</time></trkpt><trkpt lat="45.90617442300262" lon="9.154790524750515"><ele>256.0</ele><time>2026-04-11T13:54:33.999Z</time></trkpt><trkpt lat="45.90596551697385" lon="9.154814759324069"><ele>256.0</ele><time>2026-04-11T13:54:34.999Z</time></trkpt><trkpt lat="45.90576670630677" lon="9.154846595743274"><ele>256.0</ele><time>2026-04-11T13:54:35.999Z</time></trkpt><trkpt lat="45.90557878541534" lon="9.154881175285794"><ele>268.0</ele><time>2026-04-11T13:54:36.999Z</time></trkpt><trkpt lat="45.90541023480423" lon="9.154937622287102"><ele>280.0</ele><time>2026-04-11T13:54:37.999Z</time></trkpt><trkpt lat="45.905271062314284" lon="9.155058278167221"><ele>292.0</ele><time>2026-04-11T13:54:38.999Z</time></trkpt><trkpt lat="45.90513634191989" lon="9.155141885334075"><ele>290.25</ele><time>2026-04-11T13:54:39.999Z</time></trkpt><trkpt lat="45.9050019161644" lon="9.155178413483757"><ele>288.5</ele><time>2026-04-11T13:54:40.999Z</time></trkpt><trkpt lat="45.90487141233514" lon="9.155092428578852"><ele>286.75</ele><time>2026-04-11T13:54:41.999Z</time></trkpt><trkpt lat="45.90472430547046" lon="9.155054904468123"><ele>285.0</ele><time>2026-04-11T13:54:42.999Z</time></trkpt><trkpt lat="45.904539586309134" lon="9.1550360862837"><ele>285.0</ele><time>2026-04-11T13:54:43.999Z</time></trkpt><trkpt lat="45.904344405572765" lon="9.155038020232276"><ele>285.0</ele><time>2026-04-11T13:54:45Z</time></trkpt><trkpt lat="45.90416617301137" lon="9.15503324008551"><ele>285.0</ele><time>2026-04-11T13:54:46Z</time></trkpt><trkpt lat="45.9040254091035" lon="9.155009227028916"><ele>285.75</ele><time>2026-04-11T13:54:47Z</time></trkpt><trkpt lat="45.90389226126436" lon="9.154999402529366"><ele>286.5</ele><time>2026-04-11T13:54:48Z</time></trkpt><trkpt lat="45.90374931157588" lon="9.154989771654238"><ele>287.25</ele><time>2026-04-11T13:54:49Z</time></trkpt><trkpt lat="45.903603234270065" lon="9.15498150913674"><ele>288.0</ele><time>2026-04-11T13:54:50Z</time></trkpt><trkpt lat="45.90344186771229" lon="9.154967029401426"><ele>289.6666666666667</ele><time>2026-04-11T13:54:51Z</time></trkpt><trkpt lat="45.903270477020875" lon="9.154899262209444"><ele>291.33333333333337</ele><time>2026-04-11T13:54:52Z</time></trkpt><trkpt lat="45.903073513284546" lon="9.154809285298946"><ele>293.0</ele><time>2026-04-11T13:54:53Z</time></trkpt><trkpt lat="45.90286592821691" lon="9.154717070862478"><ele>285.6666666666667</ele><time>2026-04-11T13:54:54Z</time></trkpt><trkpt lat="45.90265347602003" lon="9.154619573948985"><ele>278.3333333333333</ele><time>2026-04-11T13:54:55Z</time></trkpt><trkpt lat="45.90244436588988" lon="9.154514024429702"><ele>271.0</ele><time>2026-04-11T13:54:56Z</time></trkpt><trkpt lat="45.902254841831216" lon="9.154401863608653"><ele>271.0</ele><time>2026-04-11T13:54:57Z</time></trkpt><trkpt lat="45.90209506965339" lon="9.154275356231413"><ele>271.0</ele><time>2026-04-11T13:54:58Z</time></trkpt><trkpt lat="45.90194387153901" lon="9.154238644404307"><ele>271.0</ele><time>2026-04-11T13:54:59Z</time></trkpt><trkpt lat="45.90179624201379" lon="9.154229443646713"><ele>272.75</ele><time>2026-04-11T13:55:00Z</time></trkpt><trkpt lat="45.90165293072109" lon="9.154235159888831"><ele>274.5</ele><time>2026-04-11T13:55:01Z</time></trkpt><trkpt lat="45.90154020675372" lon="9.154222267812735"><ele>276.25</ele><time>2026-04-11T13:55:02Z</time></trkpt><trkpt lat="45.90144202267368" lon="9.15418997477034"><ele>278.0</ele><time>2026-04-11T13:55:03Z</time></trkpt><trkpt lat="45.901368502002995" lon="9.154045138585476"><ele>267.33333333333337</ele><time>2026-04-11T13:55:04Z</time></trkpt><trkpt lat="45.901308620737865" lon="9.153846685492356"><ele>256.6666666666667</ele><time>2026-04-11T13:55:05Z</time></trkpt><trkpt lat="45.901250331273204" lon="9.153638745893616"><ele>246.0</ele><time>2026-04-11T13:55:06Z</time></trkpt><trkpt lat="45.90118183038202" lon="9.153439868325473"><ele>246.0</ele><time>2026-04-11T13:55:07Z</time></trkpt><trkpt lat="45.901085949803694" lon="9.153302503128574"><ele>246.0</ele><time>2026-04-11T13:55:08Z</time></trkpt><trkpt lat="45.900965963864486" lon="9.15324007051713"><ele>246.0</ele><time>2026-04-11T13:55:09Z</time></trkpt><trkpt lat="45.900828069653386" lon="9.153223967436022"><ele>246.0</ele><time>2026-04-11T13:55:10Z</time></trkpt><trkpt lat="45.900679453693414" lon="9.153247654920882"><ele>252.0</ele><time>2026-04-11T13:55:11Z</time></trkpt><trkpt lat="45.900527360057964" lon="9.153280070282925"><ele>258.0</ele><time>2026-04-11T13:55:12Z</time></trkpt><trkpt lat="45.90039066772243" lon="9.153288431793472"><ele>264.0</ele><time>2026-04-11T13:55:13Z</time></trkpt><trkpt lat="45.90026206359787" lon="9.15330655396597"><ele>270.0</ele><time>2026-04-11T13:55:14Z</time></trkpt><trkpt lat="45.900143224509" lon="9.153323300161611"><ele>268.0</ele><time>2026-04-11T13:55:15Z</time></trkpt><trkpt lat="45.900027781521416" lon="9.153345231413079"><ele>266.0</ele><time>2026-04-11T13:55:16Z</time></trkpt><trkpt lat="45.89991689003355" lon="9.153414188728242"><ele>264.0</ele><time>2026-04-11T13:55:17Z</time></trkpt><trkpt lat="45.89980839881735" lon="9.153499136401848"><ele>262.0</ele><time>2026-04-11T13:55:18Z</time></trkpt><trkpt lat="45.899721522065356" lon="9.153641598275208"><ele>262.0</ele><time>2026-04-11T13:55:19Z</time></trkpt><trkpt lat="45.89965029015711" lon="9.15380467346626"><ele>262.0</ele><time>2026-04-11T13:55:20Z</time></trkpt><trkpt lat="45.89955546592646" lon="9.153918684075649"><ele>262.0</ele><time>2026-04-11T13:55:21Z</time></trkpt><trkpt lat="45.899439418293476" lon="9.153974645704144"><ele>262.0</ele><time>2026-04-11T13:55:22Z</time></trkpt><trkpt lat="45.899298144171915" lon="9.154038138777505"><ele>265.66666666666663</ele><time>2026-04-11T13:55:23Z</time></trkpt><trkpt lat="45.899157366794995" lon="9.154121672237668"><ele>269.3333333333333</ele><time>2026-04-11T13:55:24Z</time></trkpt><trkpt lat="45.89901186415716" lon="9.154187422973832"><ele>273.0</ele><time>2026-04-11T13:55:25Z</time></trkpt><trkpt lat="45.89886844588164" lon="9.154252786525664"><ele>273.0</ele><time>2026-04-11T13:55:26Z</time></trkpt><trkpt lat="45.8987204343533" lon="9.154302379146342"><ele>273.0</ele><time>2026-04-11T13:55:27Z</time></trkpt><trkpt lat="45.89857559215143" lon="9.15434546361434"><ele>273.0</ele><time>2026-04-11T13:55:28Z</time></trkpt><trkpt lat="45.89843209345032" lon="9.154340374636147"><ele>273.0</ele><time>2026-04-11T13:55:29Z</time></trkpt><trkpt lat="45.89829235145779" lon="9.154278234705004"><ele>271.3333333333333</ele><time>2026-04-11T13:55:30Z</time></trkpt><trkpt lat="45.89813855878055" lon="9.154219968959048"><ele>269.66666666666663</ele><time>2026-04-11T13:55:31Z</time></trkpt><trkpt lat="45.89798553599611" lon="9.154182918880634"><ele>268.0</ele><time>2026-04-11T13:55:32Z</time></trkpt><trkpt lat="45.89784036487872" lon="9.154123248348917"><ele>268.0</ele><time>2026-04-11T13:55:33Z</time></trkpt><trkpt lat="45.89770824770672" lon="9.154081720004902"><ele>268.0</ele><time>2026-04-11T13:55:34Z</time></trkpt><trkpt lat="45.89758565759128" lon="9.15406534315368"><ele>268.0</ele><time>2026-04-11T13:55:35Z</time></trkpt><trkpt lat="45.89746519123753" lon="9.15410784173453"><ele>268.0</ele><time>2026-04-11T13:55:36Z</time></trkpt><trkpt lat="45.89735248359787" lon="9.154208525937173"><ele>266.0</ele><time>2026-04-11T13:55:37Z</time></trkpt><trkpt lat="45.897259064000224" lon="9.154351402815534"><ele>264.0</ele><time>2026-04-11T13:55:38Z</time></trkpt><trkpt lat="45.897182088909865" lon="9.154527876509679"><ele>262.0</ele><time>2026-04-11T13:55:39Z</time></trkpt><trkpt lat="45.89706194860653" lon="9.15462604670367"><ele>260.0</ele><time>2026-04-11T13:55:40Z</time></trkpt><trkpt lat="45.896920518445896" lon="9.15469421217551"><ele>260.0</ele><time>2026-04-11T13:55:41Z</time></trkpt><trkpt lat="45.896776912504045" lon="9.154791112571269"><ele>260.0</ele><time>2026-04-11T13:55:42Z</time></trkpt><trkpt lat="45.896633714284384" lon="9.154867831394746"><ele>260.0</ele><time>2026-04-11T13:55:43Z</time></trkpt><trkpt lat="45.896502830146225" lon="9.154963282048767"><ele>264.75</ele><time>2026-04-11T13:55:44Z</time></trkpt><trkpt lat="45.896382458938106" lon="9.155054242210147"><ele>269.5</ele><time>2026-04-11T13:55:45Z</time></trkpt><trkpt lat="45.896265204710446" lon="9.155100296441255"><ele>274.25</ele><time>2026-04-11T13:55:46Z</time></trkpt><trkpt lat="45.89613744552206" lon="9.155061950153744"><ele>279.0</ele><time>2026-04-11T13:55:47Z</time></trkpt><trkpt lat="45.89598352548704" lon="9.155039702666773"><ele>275.5</ele><time>2026-04-11T13:55:48Z</time></trkpt><trkpt lat="45.89584117934491" lon="9.155025788151862"><ele>272.0</ele><time>2026-04-11T13:55:49Z</time></trkpt><trkpt lat="45.89569232196387" lon="9.15505435124019"><ele>268.5</ele><time>2026-04-11T13:55:50Z</time></trkpt><trkpt lat="45.89555317340736" lon="9.155106619807052"><ele>265.0</ele><time>2026-04-11T13:55:51Z</time></trkpt><trkpt lat="45.89543879462557" lon="9.15522507254605"><ele>265.0</ele><time>2026-04-11T13:55:51.999Z</time></trkpt><trkpt lat="45.89536184818066" lon="9.155405101594868"><ele>265.0</ele><time>2026-04-11T13:55:52.999Z</time></trkpt><trkpt lat="45.89528652000013" lon="9.155539632003219"><ele>265.0</ele><time>2026-04-11T13:55:53.999Z</time></trkpt><trkpt lat="45.89519402216823" lon="9.155586425310839"><ele>265.0</ele><time>2026-04-11T13:55:54.999Z</time></trkpt><trkpt lat="45.8950913980249" lon="9.155575062021263"><ele>264.5</ele><time>2026-04-11T13:55:55.999Z</time></trkpt><trkpt lat="45.8949895145027" lon="9.155498886625761"><ele>264.0</ele><time>2026-04-11T13:55:56.999Z</time></trkpt><trkpt lat="45.894876759860985" lon="9.155405270098367"><ele>263.5</ele><time>2026-04-11T13:55:57.999Z</time></trkpt><trkpt lat="45.89476257509828" lon="9.155298208012306"><ele>263.0</ele><time>2026-04-11T13:55:58.999Z</time></trkpt><trkpt lat="45.894645911089846" lon="9.155190279862737"><ele>263.0</ele><time>2026-04-11T13:55:59.999Z</time></trkpt><trkpt lat="45.89453737661688" lon="9.155064785936542"><ele>263.0</ele><time>2026-04-11T13:56:00.999Z</time></trkpt><trkpt lat="45.8944601177362" lon="9.154909661878111"><ele>263.0</ele><time>2026-04-11T13:56:01.999Z</time></trkpt><trkpt lat="45.89440291131917" lon="9.154714088686774"><ele>263.0</ele><time>2026-04-11T13:56:02.999Z</time></trkpt><trkpt lat="45.89433562061379" lon="9.154531167743627"><ele>264.0</ele><time>2026-04-11T13:56:03.999Z</time></trkpt><trkpt lat="45.894253686828286" lon="9.154372882815036"><ele>265.0</ele><time>2026-04-11T13:56:04.999Z</time></trkpt><trkpt lat="45.89417028952594" lon="9.154247871983456"><ele>266.0</ele><time>2026-04-11T13:56:05.999Z</time></trkpt><trkpt lat="45.89405998410777" lon="9.15418228478529"><ele>267.0</ele><time>2026-04-11T13:56:06.999Z</time></trkpt><trkpt lat="45.89393066852089" lon="9.154177845160655"><ele>267.0</ele><time>2026-04-11T13:56:07.999Z</time></trkpt><trkpt lat="45.89379669863364" lon="9.154233346657318"><ele>267.0</ele><time>2026-04-11T13:56:08.999Z</time></trkpt><trkpt lat="45.89368074318862" lon="9.15433847838578"><ele>267.0</ele><time>2026-04-11T13:56:09.999Z</time></trkpt><trkpt lat="45.89357029646922" lon="9.154487666977301"><ele>267.0</ele><time>2026-04-11T13:56:10.999Z</time></trkpt><trkpt lat="45.89347146593018" lon="9.154654391937381"><ele>263.25</ele><time>2026-04-11T13:56:11.999Z</time></trkpt><trkpt lat="45.89336992767888" lon="9.15479897880314"><ele>259.5</ele><time>2026-04-11T13:56:12.999Z</time></trkpt><trkpt lat="45.89327531138431" lon="9.154928335394525"><ele>255.75</ele><time>2026-04-11T13:56:13.999Z</time></trkpt><trkpt lat="45.8931688402943" lon="9.155005898374444"><ele>252.0</ele><time>2026-04-11T13:56:14.999Z</time></trkpt><trkpt lat="45.89305381502492" lon="9.15500252574333"><ele>259.25</ele><time>2026-04-11T13:56:15.999Z</time></trkpt><trkpt lat="45.89291485197442" lon="9.155011360951812"><ele>266.5</ele><time>2026-04-11T13:56:16.999Z</time></trkpt><trkpt lat="45.89276911568214" lon="9.155046199062491"><ele>273.75</ele><time>2026-04-11T13:56:17.999Z</time></trkpt><trkpt lat="45.89261955723974" lon="9.155033560221197"><ele>281.0</ele><time>2026-04-11T13:56:18.999Z</time></trkpt><trkpt lat="45.892468644994594" lon="9.155043716985107"><ele>281.0</ele><time>2026-04-11T13:56:19.999Z</time></trkpt><trkpt lat="45.892317623587054" lon="9.155051119604106"><ele>281.0</ele><time>2026-04-11T13:56:20.999Z</time></trkpt><trkpt lat="45.892164956467965" lon="9.155058072539653"><ele>281.0</ele><time>2026-04-11T13:56:21.999Z</time></trkpt><trkpt lat="45.89201468334048" lon="9.155090537741975"><ele>281.0</ele><time>2026-04-11T13:56:22.999Z</time></trkpt><trkpt lat="45.891860315218686" lon="9.155119718231653"><ele>281.0</ele><time>2026-04-11T13:56:23.999Z</time></trkpt><trkpt lat="45.89170753827677" lon="9.155176469432188"><ele>281.0</ele><time>2026-04-11T13:56:24.999Z</time></trkpt><trkpt lat="45.89154992344544" lon="9.155235528184276"><ele>278.75</ele><time>2026-04-11T13:56:25.999Z</time></trkpt><trkpt lat="45.89140343978484" lon="9.155251101130615"><ele>276.5</ele><time>2026-04-11T13:56:26.999Z</time></trkpt><trkpt lat="45.891268175682065" lon="9.155326193290012"><ele>274.25</ele><time>2026-04-11T13:56:27.999Z</time></trkpt><trkpt lat="45.89112784264621" lon="9.155420992915642"><ele>272.0</ele><time>2026-04-11T13:56:28.999Z</time></trkpt><trkpt lat="45.89100724170567" lon="9.15557374822929"><ele>277.5</ele><time>2026-04-11T13:56:29.999Z</time></trkpt><trkpt lat="45.89087773163998" lon="9.15572559582697"><ele>283.0</ele><time>2026-04-11T13:56:30.999Z</time></trkpt><trkpt lat="45.890763906664645" lon="9.155843427041308"><ele>288.5</ele><time>2026-04-11T13:56:31.999Z</time></trkpt><trkpt lat="45.890678332425665" lon="9.155965630477233"><ele>294.0</ele><time>2026-04-11T13:56:32.999Z</time></trkpt><trkpt lat="45.89061733603789" lon="9.156071640808387"><ele>294.0</ele><time>2026-04-11T13:56:33.999Z</time></trkpt><trkpt lat="45.89054893536712" lon="9.156134871169167"><ele>294.0</ele><time>2026-04-11T13:56:34.999Z</time></trkpt><trkpt lat="45.89047323679341" lon="9.156173601269764"><ele>294.0</ele><time>2026-04-11T13:56:35.999Z</time></trkpt><trkpt lat="45.89038414350181" lon="9.156154464272003"><ele>294.0</ele><time>2026-04-11T13:56:36.999Z</time></trkpt><trkpt lat="45.89028471007536" lon="9.156109087417004"><ele>294.0</ele><time>2026-04-11T13:56:37.999Z</time></trkpt><trkpt lat="45.890177613936" lon="9.156058747927938"><ele>290.0</ele><time>2026-04-11T13:56:38.999Z</time></trkpt><trkpt lat="45.89006588634101" lon="9.156030200891024"><ele>286.0</ele><time>2026-04-11T13:56:39.999Z</time></trkpt><trkpt lat="45.88995874297668" lon="9.155994526671224"><ele>282.0</ele><time>2026-04-11T13:56:40.999Z</time></trkpt><trkpt lat="45.88984584849909" lon="9.15598225832745"><ele>278.0</ele><time>2026-04-11T13:56:41.999Z</time></trkpt><trkpt lat="45.889729665741186" lon="9.155986807499133"><ele>278.0</ele><time>2026-04-11T13:56:42.999Z</time></trkpt><trkpt lat="45.889615641725094" lon="9.156008107243897"><ele>278.0</ele><time>2026-04-11T13:56:43.999Z</time></trkpt><trkpt lat="45.8895144330955" lon="9.156071616482121"><ele>278.0</ele><time>2026-04-11T13:56:44.999Z</time></trkpt><trkpt lat="45.88942618332044" lon="9.156143499181377"><ele>278.0</ele><time>2026-04-11T13:56:45.999Z</time></trkpt><trkpt lat="45.88933293916696" lon="9.156202544947508"><ele>278.0</ele><time>2026-04-11T13:56:46.999Z</time></trkpt><trkpt lat="45.889230460692545" lon="9.156159889707459"><ele>277.6666666666667</ele><time>2026-04-11T13:56:47.999Z</time></trkpt><trkpt lat="45.88914681520594" lon="9.15613574956957"><ele>277.33333333333337</ele><time>2026-04-11T13:56:48.999Z</time></trkpt><trkpt lat="45.889076465995196" lon="9.156135316203464"><ele>277.0</ele><time>2026-04-11T13:56:49.999Z</time></trkpt><trkpt lat="45.88898909558686" lon="9.156106273644419"><ele>276.6666666666667</ele><time>2026-04-11T13:56:52Z</time></trkpt><trkpt lat="45.88891173671059" lon="9.156087712296799"><ele>276.3333333333333</ele><time>2026-04-11T13:57:07Z</time></trkpt><trkpt lat="45.88882051688005" lon="9.156067427458042"><ele>276.0</ele><time>2026-04-11T13:57:11Z</time></trkpt><trkpt lat="45.888744347528046" lon="9.156041951702289"><ele>276.0</ele><time>2026-04-11T13:57:13Z</time></trkpt><trkpt lat="45.8886677322876" lon="9.156024113630293"><ele>276.0</ele><time>2026-04-11T13:57:15Z</time></trkpt><trkpt lat="45.88859936159783" lon="9.156019165185926"><ele>276.0</ele><time>2026-04-11T13:57:17Z</time></trkpt><trkpt lat="45.88853516850838" lon="9.15601900695681"><ele>276.0</ele><time>2026-04-11T13:57:19Z</time></trkpt><trkpt lat="45.88846984670039" lon="9.155997796579474"><ele>276.0</ele><time>2026-04-11T13:57:21Z</time></trkpt><trkpt lat="45.8884084230877" lon="9.156020445411322"><ele>276.0</ele><time>2026-04-11T13:57:25Z</time></trkpt><trkpt lat="45.888328255631976" lon="9.156053133817498"><ele>276.0</ele><time>2026-04-11T13:57:36Z</time></trkpt><trkpt lat="45.88825515453244" lon="9.156039499193602"><ele>273.1666666666667</ele><time>2026-04-11T13:57:38Z</time></trkpt><trkpt lat="45.888190826855265" lon="9.15607966431063"><ele>270.3333333333333</ele><time>2026-04-11T13:57:40Z</time></trkpt><trkpt lat="45.888119615831194" lon="9.156137444838519"><ele>267.5</ele><time>2026-04-11T13:57:43Z</time></trkpt><trkpt lat="45.888049865246465" lon="9.156217037685929"><ele>264.66666666666663</ele><time>2026-04-11T13:57:46Z</time></trkpt><trkpt lat="45.888020518035226" lon="9.156319833052507"><ele>261.8333333333333</ele><time>2026-04-11T13:57:48Z</time></trkpt><trkpt lat="45.88800870235174" lon="9.156445545121342"><ele>259.0</ele><time>2026-04-11T13:57:50Z</time></trkpt><trkpt lat="45.88801431474111" lon="9.156553572376978"><ele>266.0</ele><time>2026-04-11T13:57:52Z</time></trkpt><trkpt lat="45.88800438180536" lon="9.156673905277957"><ele>273.0</ele><time>2026-04-11T13:57:53.999Z</time></trkpt><trkpt lat="45.88797780194278" lon="9.15680590939379"><ele>280.0</ele><time>2026-04-11T13:57:55.999Z</time></trkpt><trkpt lat="45.887931121492" lon="9.156930197193777"><ele>287.0</ele><time>2026-04-11T13:57:57.999Z</time></trkpt><trkpt lat="45.88788670954747" lon="9.157049926598928"><ele>294.0</ele><time>2026-04-11T13:57:59.999Z</time></trkpt><trkpt lat="45.887846815925265" lon="9.157168254298687"><ele>294.0</ele><time>2026-04-11T13:58:01.999Z</time></trkpt><trkpt lat="45.88780833804186" lon="9.157254024925074"><ele>294.0</ele><time>2026-04-11T13:58:03.999Z</time></trkpt><trkpt lat="45.88778035790874" lon="9.157354974337144"><ele>294.0</ele><time>2026-04-11T13:58:06.999Z</time></trkpt><trkpt lat="45.88774768887219" lon="9.157449364489926"><ele>294.0</ele><time>2026-04-11T13:58:10.999Z</time></trkpt><trkpt lat="45.887716178278865" lon="9.157535757759971"><ele>294.0</ele><time>2026-04-11T13:58:13.999Z</time></trkpt><trkpt lat="45.887692541682654" lon="9.157631884148334"><ele>294.0</ele><time>2026-04-11T13:58:47.999Z</time></trkpt><trkpt lat="45.88766031947527" lon="9.157720493826146"><ele>294.0</ele><time>2026-04-11T13:59:01Z</time></trkpt><trkpt lat="45.887590741389914" lon="9.157784642244707"><ele>293.0</ele><time>2026-04-11T13:59:05Z</time></trkpt><trkpt lat="45.88751694704686" lon="9.157807025952668"><ele>292.0</ele><time>2026-04-11T13:59:09Z</time></trkpt><trkpt lat="45.88744381653376" lon="9.157805971361302"><ele>291.0</ele><time>2026-04-11T13:59:57.999Z</time></trkpt><trkpt lat="45.88737364402546" lon="9.15774418456996"><ele>290.0</ele><time>2026-04-11T14:00:00.999Z</time></trkpt><trkpt lat="45.887317396145384" lon="9.157663220998645"><ele>289.0</ele><time>2026-04-11T14:00:14.999Z</time></trkpt><trkpt lat="45.88725833260798" lon="9.157591396912762"><ele>288.0</ele><time>2026-04-11T14:00:16.999Z</time></trkpt><trkpt lat="45.887198265524404" lon="9.157518404916742"><ele>288.0</ele><time>2026-04-11T14:00:19.999Z</time></trkpt><trkpt lat="45.887128687394615" lon="9.157475330523155"><ele>288.0</ele><time>2026-04-11T14:00:22.999Z</time></trkpt><trkpt lat="45.887001228579116" lon="9.157432876243437"><ele>288.0</ele><time>2026-04-11T14:00:33.999Z</time></trkpt><trkpt lat="45.88692056999266" lon="9.157412742889319"><ele>288.0</ele><time>2026-04-11T14:00:37.999Z</time></trkpt><trkpt lat="45.88683052633524" lon="9.157406057102156"><ele>288.0</ele><time>2026-04-11T14:00:44.999Z</time></trkpt><trkpt lat="45.886753130024324" lon="9.15737388434181"><ele>281.0</ele><time>2026-04-11T14:00:46.999Z</time></trkpt><trkpt lat="45.886685877018884" lon="9.157323810783556"><ele>274.0</ele><time>2026-04-11T14:01:21Z</time></trkpt><trkpt lat="45.88657513830932" lon="9.157285673075174"><ele>267.0</ele><time>2026-04-11T14:01:30Z</time></trkpt><trkpt lat="45.886505449493896" lon="9.157239854084901"><ele>260.0</ele><time>2026-04-11T14:02:49.999Z</time></trkpt><trkpt lat="45.88643547490919" lon="9.157202395032487"><ele>253.0</ele><time>2026-04-11T14:02:52.999Z</time></trkpt><trkpt lat="45.8863505289134" lon="9.157167511858244"><ele>246.0</ele><time>2026-04-11T14:02:55.999Z</time></trkpt><trkpt lat="45.88628825302166" lon="9.157133854317141"><ele>246.0</ele><time>2026-04-11T14:02:58.999Z</time></trkpt><trkpt lat="45.88620859637531" lon="9.157107382204952"><ele>246.0</ele><time>2026-04-11T14:03:12Z</time></trkpt><trkpt lat="45.88608383608883" lon="9.15707924955344"><ele>246.0</ele><time>2026-04-11T14:03:15Z</time></trkpt><trkpt lat="45.8860118753277" lon="9.157047987817995"><ele>246.0</ele><time>2026-04-11T14:03:16Z</time></trkpt><trkpt lat="45.885939156565726" lon="9.157001330335286"><ele>246.0</ele><time>2026-04-11T14:03:17Z</time></trkpt><trkpt lat="45.885878845630806" lon="9.156967094489874"><ele>246.0</ele><time>2026-04-11T14:03:18Z</time></trkpt><trkpt lat="45.885810202749376" lon="9.156923530418982"><ele>247.5</ele><time>2026-04-11T14:03:20Z</time></trkpt><trkpt lat="45.8857139583415" lon="9.15681964271625"><ele>249.0</ele><time>2026-04-11T14:03:24Z</time></trkpt><trkpt lat="45.88562288724432" lon="9.156793144911681"><ele>250.5</ele><time>2026-04-11T14:03:25Z</time></trkpt><trkpt lat="45.88554631858614" lon="9.156783689912228"><ele>252.0</ele><time>2026-04-11T14:03:26Z</time></trkpt><trkpt lat="45.885486913063495" lon="9.156822080289416"><ele>253.5</ele><time>2026-04-11T14:03:29Z</time></trkpt><trkpt lat="45.88541913197896" lon="9.156821803146407"><ele>255.0</ele><time>2026-04-11T14:03:35Z</time></trkpt><trkpt lat="45.88533810698917" lon="9.156787854540196"><ele>255.0</ele><time>2026-04-11T14:03:39Z</time></trkpt><trkpt lat="45.885274822662936" lon="9.156788125729939"><ele>255.0</ele><time>2026-04-11T14:03:41Z</time></trkpt><trkpt lat="45.88519311707545" lon="9.156788475858912"><ele>255.0</ele><time>2026-04-11T14:03:44Z</time></trkpt><trkpt lat="45.88513019977592" lon="9.156823922400138"><ele>255.0</ele><time>2026-04-11T14:03:46Z</time></trkpt><trkpt lat="45.885034093892415" lon="9.156831123334845"><ele>255.0</ele><time>2026-04-11T14:03:49Z</time></trkpt><trkpt lat="45.88495537737576" lon="9.15682773500326"><ele>255.0</ele><time>2026-04-11T14:03:51Z</time></trkpt><trkpt lat="45.884875614458295" lon="9.156828429456809"><ele>255.16666666666666</ele><time>2026-04-11T14:03:52.999Z</time></trkpt><trkpt lat="45.884799866223055" lon="9.156826091251498"><ele>255.33333333333331</ele><time>2026-04-11T14:03:54.999Z</time></trkpt><trkpt lat="45.884732300285876" lon="9.15682401771232"><ele>255.5</ele><time>2026-04-11T14:03:56.999Z</time></trkpt><trkpt lat="45.884646831925814" lon="9.156828545760163"><ele>255.66666666666666</ele><time>2026-04-11T14:04:00.999Z</time></trkpt><trkpt lat="45.88456656965401" lon="9.15682854593429"><ele>255.83333333333331</ele><time>2026-04-11T14:04:02.999Z</time></trkpt><trkpt lat="45.88448423000823" lon="9.156831999852987"><ele>256.0</ele><time>2026-04-11T14:04:04.999Z</time></trkpt><trkpt lat="45.88440425470595" lon="9.156854656071378"><ele>255.99999999999997</ele><time>2026-04-11T14:04:08.999Z</time></trkpt><trkpt lat="45.88433271472448" lon="9.15688786476716"><ele>256.0</ele><time>2026-04-11T14:04:12.999Z</time></trkpt><trkpt lat="45.884265702468966" lon="9.156928954926384"><ele>256.0</ele><time>2026-04-11T14:04:23.999Z</time></trkpt><trkpt lat="45.88417709339556" lon="9.156979405682987"><ele>256.0</ele><time>2026-04-11T14:04:27.999Z</time></trkpt><trkpt lat="45.884104412879694" lon="9.157029618017468"><ele>255.99999999999997</ele><time>2026-04-11T14:04:29.999Z</time></trkpt><trkpt lat="45.88401606369738" lon="9.157066389209037"><ele>256.0</ele><time>2026-04-11T14:04:31.999Z</time></trkpt><trkpt lat="45.88391696307574" lon="9.157126802095869"><ele>254.0</ele><time>2026-04-11T14:04:33.999Z</time></trkpt><trkpt lat="45.88380316369293" lon="9.157189817236993"><ele>252.00000000000003</ele><time>2026-04-11T14:04:35.999Z</time></trkpt><trkpt lat="45.88369128981603" lon="9.157269977814614"><ele>250.00000000000003</ele><time>2026-04-11T14:04:37.999Z</time></trkpt><trkpt lat="45.88363640378481" lon="9.15732976658886"><ele>248.0</ele><time>2026-04-11T14:04:38.999Z</time></trkpt><trkpt lat="45.88359911180883" lon="9.157408936710652"><ele>246.0</ele><time>2026-04-11T14:04:39.999Z</time></trkpt><trkpt lat="45.883563067490776" lon="9.157567701232205"><ele>247.83333333333334</ele><time>2026-04-11T14:04:41.999Z</time></trkpt><trkpt lat="45.883536769558496" lon="9.157700160378432"><ele>249.66666666666669</ele><time>2026-04-11T14:04:43.999Z</time></trkpt><trkpt lat="45.883510558570684" lon="9.157807100877784"><ele>251.5</ele><time>2026-04-11T14:04:45.999Z</time></trkpt><trkpt lat="45.88347560993964" lon="9.157886164232734"><ele>253.33333333333334</ele><time>2026-04-11T14:04:47.999Z</time></trkpt><trkpt lat="45.883422451608965" lon="9.157938233713512"><ele>255.16666666666669</ele><time>2026-04-11T14:04:49.999Z</time></trkpt><trkpt lat="45.883354408497205" lon="9.157945967100805"><ele>257.0</ele><time>2026-04-11T14:04:51.999Z</time></trkpt><trkpt lat="45.88327695142583" lon="9.157929841634273"><ele>257.0</ele><time>2026-04-11T14:04:53.999Z</time></trkpt><trkpt lat="45.88317173003264" lon="9.157919043983616"><ele>257.0</ele><time>2026-04-11T14:04:55.999Z</time></trkpt><trkpt lat="45.88305821293962" lon="9.15790225246788"><ele>257.0</ele><time>2026-04-11T14:04:57.999Z</time></trkpt><trkpt lat="45.882950602349275" lon="9.157843945569642"><ele>257.0</ele><time>2026-04-11T14:04:59.999Z</time></trkpt><trkpt lat="45.88290054775057" lon="9.157715644841364"><ele>257.0</ele><time>2026-04-11T14:05:01.999Z</time></trkpt><trkpt lat="45.88284994170667" lon="9.157609151511487"><ele>257.0</ele><time>2026-04-11T14:05:03.999Z</time></trkpt><trkpt lat="45.88281101157251" lon="9.157519317012156"><ele>257.0</ele><time>2026-04-11T14:05:05.999Z</time></trkpt><trkpt lat="45.8827506928176" lon="9.157432184730707"><ele>257.0</ele><time>2026-04-11T14:05:26Z</time></trkpt><trkpt lat="45.88269206563939" lon="9.157380077124929"><ele>257.0</ele><time>2026-04-11T14:05:28Z</time></trkpt><trkpt lat="45.88260585350219" lon="9.157328963835669"><ele>257.0</ele><time>2026-04-11T14:05:30Z</time></trkpt><trkpt lat="45.88250061310393" lon="9.157295608231326"><ele>257.0</ele><time>2026-04-11T14:05:32Z</time></trkpt><trkpt lat="45.882380850010556" lon="9.157289817001308"><ele>252.39999999999998</ele><time>2026-04-11T14:05:34Z</time></trkpt><trkpt lat="45.88225791526951" lon="9.15727430289063"><ele>247.79999999999998</ele><time>2026-04-11T14:05:36Z</time></trkpt><trkpt lat="45.88212802598462" lon="9.157281672617273"><ele>243.2</ele><time>2026-04-11T14:05:38Z</time></trkpt><trkpt lat="45.88205627580621" lon="9.157296462762789"><ele>238.6</ele><time>2026-04-11T14:05:39Z</time></trkpt><trkpt lat="45.88198412024134" lon="9.15731893725204"><ele>234.0</ele><time>2026-04-11T14:05:40Z</time></trkpt><trkpt lat="45.88191333563003" lon="9.157346789085414"><ele>237.42857142857144</ele><time>2026-04-11T14:05:41Z</time></trkpt><trkpt lat="45.881845138644586" lon="9.157380893557692"><ele>240.8571428571429</ele><time>2026-04-11T14:05:42Z</time></trkpt><trkpt lat="45.881782003307386" lon="9.157418286168234"><ele>244.28571428571428</ele><time>2026-04-11T14:05:43Z</time></trkpt><trkpt lat="45.88172273879088" lon="9.157465998237653"><ele>247.71428571428572</ele><time>2026-04-11T14:05:44Z</time></trkpt><trkpt lat="45.881663403651075" lon="9.157525409413953"><ele>251.14285714285714</ele><time>2026-04-11T14:05:45Z</time></trkpt><trkpt lat="45.88160691393327" lon="9.157602242785599"><ele>254.57142857142856</ele><time>2026-04-11T14:05:46Z</time></trkpt><trkpt lat="45.88156044414286" lon="9.15769311495442"><ele>258.0</ele><time>2026-04-11T14:05:47Z</time></trkpt><trkpt lat="45.8815216087151" lon="9.157780793960404"><ele>258.0</ele><time>2026-04-11T14:05:48Z</time></trkpt><trkpt lat="45.88147608301848" lon="9.157863590975634"><ele>258.0</ele><time>2026-04-11T14:05:49Z</time></trkpt><trkpt lat="45.881408128003635" lon="9.157918516399578"><ele>258.0</ele><time>2026-04-11T14:05:50Z</time></trkpt><trkpt lat="45.881315826083544" lon="9.157891805265228"><ele>258.0</ele><time>2026-04-11T14:05:51Z</time></trkpt><trkpt lat="45.88123328545371" lon="9.157893550086193"><ele>258.0</ele><time>2026-04-11T14:05:52Z</time></trkpt><trkpt lat="45.8811547884482" lon="9.157856461539653"><ele>258.0</ele><time>2026-04-11T14:05:53Z</time></trkpt><trkpt lat="45.8810744509915" lon="9.157815487278457"><ele>258.0</ele><time>2026-04-11T14:05:54Z</time></trkpt><trkpt lat="45.88099117859362" lon="9.157767251868796"><ele>258.0</ele><time>2026-04-11T14:05:55Z</time></trkpt><trkpt lat="45.88090803176803" lon="9.157711122601524"><ele>258.0</ele><time>2026-04-11T14:05:56Z</time></trkpt><trkpt lat="45.88082543952644" lon="9.157670526424122"><ele>258.0</ele><time>2026-04-11T14:05:56.999Z</time></trkpt><trkpt lat="45.88074814056033" lon="9.15764413340283"><ele>258.0</ele><time>2026-04-11T14:05:57.999Z</time></trkpt><trkpt lat="45.88068263720946" lon="9.157608720797267"><ele>258.0</ele><time>2026-04-11T14:05:58.999Z</time></trkpt><trkpt lat="45.880557960437415" lon="9.157617716860056"><ele>257.8333333333333</ele><time>2026-04-11T14:06:00.999Z</time></trkpt><trkpt lat="45.88049202437361" lon="9.157616314742517"><ele>257.6666666666667</ele><time>2026-04-11T14:06:01.999Z</time></trkpt><trkpt lat="45.8803739123049" lon="9.157607798713126"><ele>257.5</ele><time>2026-04-11T14:06:03.999Z</time></trkpt><trkpt lat="45.880276914384815" lon="9.157602458406464"><ele>257.33333333333337</ele><time>2026-04-11T14:06:05.999Z</time></trkpt><trkpt lat="45.880206351277174" lon="9.15759593362971"><ele>257.1666666666667</ele><time>2026-04-11T14:06:16.999Z</time></trkpt><trkpt lat="45.880130185424505" lon="9.15758693298402"><ele>257.0</ele><time>2026-04-11T14:06:19.999Z</time></trkpt><trkpt lat="45.88005796879951" lon="9.157586276393712"><ele>257.0</ele><time>2026-04-11T14:06:21.999Z</time></trkpt><trkpt lat="45.87997682700079" lon="9.157579553500499"><ele>257.0</ele><time>2026-04-11T14:06:23.999Z</time></trkpt><trkpt lat="45.879906042003924" lon="9.157589787674453"><ele>257.0</ele><time>2026-04-11T14:06:25.999Z</time></trkpt><trkpt lat="45.879800508082866" lon="9.15762544252416"><ele>257.0</ele><time>2026-04-11T14:06:29.999Z</time></trkpt><trkpt lat="45.879702752769326" lon="9.157666891221785"><ele>257.0</ele><time>2026-04-11T14:06:31.999Z</time></trkpt><trkpt lat="45.879610120231284" lon="9.157714157086188"><ele>257.0</ele><time>2026-04-11T14:06:33.999Z</time></trkpt><trkpt lat="45.87954828402045" lon="9.157741644094882"><ele>257.0</ele><time>2026-04-11T14:06:35.999Z</time></trkpt><trkpt lat="45.87947374993468" lon="9.157776163408633"><ele>257.0</ele><time>2026-04-11T14:06:38.999Z</time></trkpt><trkpt lat="45.87939230146368" lon="9.157791213373837"><ele>257.0</ele><time>2026-04-11T14:06:42.999Z</time></trkpt><trkpt lat="45.879309657172925" lon="9.157830363726934"><ele>257.0</ele><time>2026-04-11T14:06:45.999Z</time></trkpt><trkpt lat="45.879229968096055" lon="9.15786607700036"><ele>257.0</ele><time>2026-04-11T14:06:47.999Z</time></trkpt><trkpt lat="45.87912918191604" lon="9.157909259202711"><ele>256.5</ele><time>2026-04-11T14:06:49.999Z</time></trkpt><trkpt lat="45.87905901875043" lon="9.157929343863277"><ele>256.0</ele><time>2026-04-11T14:06:51.999Z</time></trkpt><trkpt lat="45.87901362110331" lon="9.157992325256533"><ele>255.5</ele><time>2026-04-11T14:07:24Z</time></trkpt><trkpt lat="45.878942370906934" lon="9.158008150223877"><ele>255.0</ele><time>2026-04-11T14:07:26Z</time></trkpt><trkpt lat="45.878878409252586" lon="9.158013889963499"><ele>254.50000000000003</ele><time>2026-04-11T14:07:28Z</time></trkpt><trkpt lat="45.87877418121899" lon="9.158012513170748"><ele>254.0</ele><time>2026-04-11T14:07:30Z</time></trkpt><trkpt lat="45.878698888917725" lon="9.158000908528908"><ele>254.0</ele><time>2026-04-11T14:07:31Z</time></trkpt><trkpt lat="45.87861048736229" lon="9.15798240252707"><ele>253.99999999999997</ele><time>2026-04-11T14:07:32Z</time></trkpt><trkpt lat="45.878517215938565" lon="9.157955080767309"><ele>253.99999999999997</ele><time>2026-04-11T14:07:33Z</time></trkpt><trkpt lat="45.878425934460545" lon="9.157931110236948"><ele>254.0</ele><time>2026-04-11T14:07:34Z</time></trkpt><trkpt lat="45.87833060618002" lon="9.157833534461242"><ele>254.0</ele><time>2026-04-11T14:07:35Z</time></trkpt><trkpt lat="45.87820796938252" lon="9.157798987786396"><ele>255.0</ele><time>2026-04-11T14:07:36Z</time></trkpt><trkpt lat="45.878072875449206" lon="9.157756261774338"><ele>256.0</ele><time>2026-04-11T14:07:37Z</time></trkpt><trkpt lat="45.87794758438608" lon="9.157716054598817"><ele>257.0</ele><time>2026-04-11T14:07:38Z</time></trkpt><trkpt lat="45.87785022620208" lon="9.157687940698976"><ele>258.0</ele><time>2026-04-11T14:07:39Z</time></trkpt><trkpt lat="45.877758492170585" lon="9.15767054799638"><ele>258.0</ele><time>2026-04-11T14:07:40Z</time></trkpt><trkpt lat="45.87767788761541" lon="9.157671585872913"><ele>258.0</ele><time>2026-04-11T14:07:41Z</time></trkpt><trkpt lat="45.87759531555677" lon="9.157685087123856"><ele>258.0</ele><time>2026-04-11T14:07:42Z</time></trkpt><trkpt lat="45.87751567927739" lon="9.15775045545184"><ele>258.0</ele><time>2026-04-11T14:07:43Z</time></trkpt><trkpt lat="45.87743678111185" lon="9.157810340307652"><ele>258.0</ele><time>2026-04-11T14:07:44Z</time></trkpt><trkpt lat="45.8773609473858" lon="9.15788615038241"><ele>258.0</ele><time>2026-04-11T14:07:45Z</time></trkpt><trkpt lat="45.87728156193613" lon="9.157944630861948"><ele>258.8333333333333</ele><time>2026-04-11T14:07:46Z</time></trkpt><trkpt lat="45.87720685349361" lon="9.15801955413382"><ele>259.6666666666667</ele><time>2026-04-11T14:07:47Z</time></trkpt><trkpt lat="45.87714618642207" lon="9.158108986871257"><ele>260.5</ele><time>2026-04-11T14:07:48Z</time></trkpt><trkpt lat="45.87707099338447" lon="9.158174476765405"><ele>261.33333333333337</ele><time>2026-04-11T14:07:49Z</time></trkpt><trkpt lat="45.87698830055301" lon="9.158173265973925"><ele>262.1666666666667</ele><time>2026-04-11T14:07:50Z</time></trkpt><trkpt lat="45.8769163532428" lon="9.158146165140998"><ele>263.0</ele><time>2026-04-11T14:07:51Z</time></trkpt><trkpt lat="45.876849865535426" lon="9.158085262978062"><ele>263.0</ele><time>2026-04-11T14:07:52Z</time></trkpt><trkpt lat="45.87680349914011" lon="9.157984959321725"><ele>263.0</ele><time>2026-04-11T14:07:53Z</time></trkpt><trkpt lat="45.876787993381406" lon="9.157861940097025"><ele>263.0</ele><time>2026-04-11T14:07:54Z</time></trkpt><trkpt lat="45.876778251939" lon="9.157722602930011"><ele>263.0</ele><time>2026-04-11T14:07:55Z</time></trkpt><trkpt lat="45.87675479155851" lon="9.157584431071196"><ele>263.0</ele><time>2026-04-11T14:07:56Z</time></trkpt><trkpt lat="45.87671113385987" lon="9.157451598938424"><ele>262.0</ele><time>2026-04-11T14:07:57Z</time></trkpt><trkpt lat="45.876649066581614" lon="9.157324038647923"><ele>261.0</ele><time>2026-04-11T14:07:58Z</time></trkpt><trkpt lat="45.87657142180547" lon="9.157209551699603"><ele>260.0</ele><time>2026-04-11T14:07:58.999Z</time></trkpt><trkpt lat="45.876485176129925" lon="9.157114945179975"><ele>259.0</ele><time>2026-04-11T14:07:59.999Z</time></trkpt><trkpt lat="45.876382745798665" lon="9.157052350032565"><ele>258.0</ele><time>2026-04-11T14:08:00.999Z</time></trkpt><trkpt lat="45.876276422819934" lon="9.15702913125316"><ele>258.0</ele><time>2026-04-11T14:08:01.999Z</time></trkpt><trkpt lat="45.876169286990944" lon="9.157000611141411"><ele>258.0</ele><time>2026-04-11T14:08:02.999Z</time></trkpt><trkpt lat="45.876058990436974" lon="9.156980614621355"><ele>258.0</ele><time>2026-04-11T14:08:03.999Z</time></trkpt><trkpt lat="45.875945258292525" lon="9.156970497027839"><ele>258.0</ele><time>2026-04-11T14:08:04.999Z</time></trkpt><trkpt lat="45.87582977590055" lon="9.156983235896025"><ele>261.0</ele><time>2026-04-11T14:08:05.999Z</time></trkpt><trkpt lat="45.87571481887882" lon="9.157019789002947"><ele>264.0</ele><time>2026-04-11T14:08:06.999Z</time></trkpt><trkpt lat="45.875604544951344" lon="9.157074010959835"><ele>267.0</ele><time>2026-04-11T14:08:07.999Z</time></trkpt><trkpt lat="45.875494640450185" lon="9.157103029538208"><ele>270.0</ele><time>2026-04-11T14:08:08.999Z</time></trkpt><trkpt lat="45.87538484814323" lon="9.157154704802046"><ele>270.0</ele><time>2026-04-11T14:08:09.999Z</time></trkpt><trkpt lat="45.8752714914608" lon="9.157207910150225"><ele>270.0</ele><time>2026-04-11T14:08:10.999Z</time></trkpt><trkpt lat="45.87516387363294" lon="9.157281596531213"><ele>270.0</ele><time>2026-04-11T14:08:11.999Z</time></trkpt><trkpt lat="45.87505086692526" lon="9.157337855967464"><ele>270.0</ele><time>2026-04-11T14:08:12.999Z</time></trkpt><trkpt lat="45.874938531509784" lon="9.157404909051303"><ele>272.6</ele><time>2026-04-11T14:08:13.999Z</time></trkpt><trkpt lat="45.87484416327181" lon="9.15748964174397"><ele>275.2</ele><time>2026-04-11T14:08:14.999Z</time></trkpt><trkpt lat="45.87476878274767" lon="9.157596787976958"><ele>277.8</ele><time>2026-04-11T14:08:15.999Z</time></trkpt><trkpt lat="45.874698106600064" lon="9.157711960429994"><ele>280.4</ele><time>2026-04-11T14:08:16.999Z</time></trkpt><trkpt lat="45.87462853132252" lon="9.157822505805779"><ele>283.0</ele><time>2026-04-11T14:08:17.999Z</time></trkpt><trkpt lat="45.874548526332454" lon="9.157908349987032"><ele>283.0</ele><time>2026-04-11T14:08:18.999Z</time></trkpt><trkpt lat="45.87445061766465" lon="9.157951840947879"><ele>283.0</ele><time>2026-04-11T14:08:19.999Z</time></trkpt><trkpt lat="45.87434480698218" lon="9.15795132110559"><ele>283.0</ele><time>2026-04-11T14:08:20.999Z</time></trkpt><trkpt lat="45.87424974866275" lon="9.157882903006147"><ele>283.0</ele><time>2026-04-11T14:08:21.999Z</time></trkpt><trkpt lat="45.87414912967014" lon="9.157850884976181"><ele>283.0</ele><time>2026-04-11T14:08:22.999Z</time></trkpt><trkpt lat="45.87404651615107" lon="9.157817259871889"><ele>277.75</ele><time>2026-04-11T14:08:23.999Z</time></trkpt><trkpt lat="45.87393381918915" lon="9.15780159160265"><ele>272.5</ele><time>2026-04-11T14:08:24.999Z</time></trkpt><trkpt lat="45.873812457646636" lon="9.157812419884298"><ele>267.25</ele><time>2026-04-11T14:08:25.999Z</time></trkpt><trkpt lat="45.8736834445832" lon="9.15784706591059"><ele>262.0</ele><time>2026-04-11T14:08:26.999Z</time></trkpt><trkpt lat="45.87354623359056" lon="9.15788367849974"><ele>262.25</ele><time>2026-04-11T14:08:27.999Z</time></trkpt><trkpt lat="45.87340682871611" lon="9.157920345422294"><ele>262.5</ele><time>2026-04-11T14:08:28.999Z</time></trkpt><trkpt lat="45.8732653515716" lon="9.157957129380737"><ele>262.75</ele><time>2026-04-11T14:08:29.999Z</time></trkpt><trkpt lat="45.87312054039666" lon="9.15797838713116"><ele>263.0</ele><time>2026-04-11T14:08:30.999Z</time></trkpt><trkpt lat="45.87298035797023" lon="9.15797475260107"><ele>263.0</ele><time>2026-04-11T14:08:31.999Z</time></trkpt><trkpt lat="45.872845432188186" lon="9.157986643004337"><ele>263.0</ele><time>2026-04-11T14:08:32.999Z</time></trkpt><trkpt lat="45.872721106024116" lon="9.15801799659599"><ele>263.0</ele><time>2026-04-11T14:08:33.999Z</time></trkpt><trkpt lat="45.872601240759316" lon="9.15801609071167"><ele>263.0</ele><time>2026-04-11T14:08:34.999Z</time></trkpt><trkpt lat="45.87248134004268" lon="9.15801822432603"><ele>262.2</ele><time>2026-04-11T14:08:35.999Z</time></trkpt><trkpt lat="45.872369848338614" lon="9.158049026429731"><ele>261.4</ele><time>2026-04-11T14:08:36.999Z</time></trkpt><trkpt lat="45.87227506590603" lon="9.158121741679821"><ele>260.59999999999997</ele><time>2026-04-11T14:08:37.999Z</time></trkpt><trkpt lat="45.87219851770264" lon="9.158225802069616"><ele>259.8</ele><time>2026-04-11T14:08:38.999Z</time></trkpt><trkpt lat="45.87213278139549" lon="9.158321018907587"><ele>259.0</ele><time>2026-04-11T14:08:39.999Z</time></trkpt><trkpt lat="45.87206132607145" lon="9.158389325657543"><ele>260.0</ele><time>2026-04-11T14:08:40.999Z</time></trkpt><trkpt lat="45.87196698955125" lon="9.15837752547226"><ele>261.0</ele><time>2026-04-11T14:08:41.999Z</time></trkpt><trkpt lat="45.87188626409159" lon="9.15832948785966"><ele>262.0</ele><time>2026-04-11T14:08:42.999Z</time></trkpt><trkpt lat="45.87178736460014" lon="9.158285080230865"><ele>263.0</ele><time>2026-04-11T14:08:43.999Z</time></trkpt><trkpt lat="45.87169366952792" lon="9.158218629069815"><ele>264.0</ele><time>2026-04-11T14:08:44.999Z</time></trkpt><trkpt lat="45.8715894787682" lon="9.158160975285968"><ele>264.0</ele><time>2026-04-11T14:08:45.999Z</time></trkpt><trkpt lat="45.87147334596006" lon="9.158102516328391"><ele>264.0</ele><time>2026-04-11T14:08:46.999Z</time></trkpt><trkpt lat="45.871352977973025" lon="9.158048738930193"><ele>264.0</ele><time>2026-04-11T14:08:47.999Z</time></trkpt><trkpt lat="45.87122874976305" lon="9.157998105638125"><ele>264.0</ele><time>2026-04-11T14:08:48.999Z</time></trkpt><trkpt lat="45.871102289791125" lon="9.157946996818177"><ele>264.0</ele><time>2026-04-11T14:08:49.999Z</time></trkpt><trkpt lat="45.87097337226077" lon="9.157902481894938"><ele>264.0</ele><time>2026-04-11T14:08:50.999Z</time></trkpt><trkpt lat="45.87084888676213" lon="9.157865563455886"><ele>264.0</ele><time>2026-04-11T14:08:51.999Z</time></trkpt><trkpt lat="45.87074853450594" lon="9.157834157233374"><ele>264.0</ele><time>2026-04-11T14:08:52.999Z</time></trkpt><trkpt lat="45.87066909435496" lon="9.15780946635564"><ele>264.0</ele><time>2026-04-11T14:08:53.999Z</time></trkpt><trkpt lat="45.87058993002472" lon="9.157800339494571"><ele>266.5</ele><time>2026-04-11T14:08:54.999Z</time></trkpt><trkpt lat="45.87050587123781" lon="9.157796392685057"><ele>269.0</ele><time>2026-04-11T14:08:55.999Z</time></trkpt><trkpt lat="45.870423299208575" lon="9.157792730155276"><ele>271.5</ele><time>2026-04-11T14:08:56.999Z</time></trkpt><trkpt lat="45.87034271723045" lon="9.157800371128962"><ele>274.0</ele><time>2026-04-11T14:08:57.999Z</time></trkpt><trkpt lat="45.87026381943642" lon="9.157813829089108"><ele>276.5</ele><time>2026-04-11T14:08:58.999Z</time></trkpt><trkpt lat="45.870183270369765" lon="9.157822050543007"><ele>279.0</ele><time>2026-04-11T14:08:59.999Z</time></trkpt><trkpt lat="45.870106365257485" lon="9.157783667140736"><ele>281.6666666666667</ele><time>2026-04-11T14:09:00.999Z</time></trkpt><trkpt lat="45.87003665385343" lon="9.157731809538351"><ele>284.3333333333333</ele><time>2026-04-11T14:09:01.999Z</time></trkpt><trkpt lat="45.86994712646979" lon="9.157703763439393"><ele>287.0</ele><time>2026-04-11T14:09:02.999Z</time></trkpt><trkpt lat="45.869863873249884" lon="9.157664659240972"><ele>289.66666666666663</ele><time>2026-04-11T14:09:03.999Z</time></trkpt><trkpt lat="45.86978017067216" lon="9.157635329554056"><ele>292.3333333333333</ele><time>2026-04-11T14:09:04.999Z</time></trkpt><trkpt lat="45.8696960418994" lon="9.157692472392865"><ele>295.0</ele><time>2026-04-11T14:09:05.999Z</time></trkpt><trkpt lat="45.86961221175722" lon="9.1577234544881"><ele>295.0</ele><time>2026-04-11T14:09:06.999Z</time></trkpt><trkpt lat="45.86952407289684" lon="9.157720236661975"><ele>295.0</ele><time>2026-04-11T14:09:07.999Z</time></trkpt><trkpt lat="45.8694427706762" lon="9.157652551539693"><ele>295.0</ele><time>2026-04-11T14:09:08.999Z</time></trkpt><trkpt lat="45.86936611080032" lon="9.157583483905924"><ele>295.0</ele><time>2026-04-11T14:09:09.999Z</time></trkpt><trkpt lat="45.8693350679579" lon="9.157443817511723"><ele>295.0</ele><time>2026-04-11T14:09:10.999Z</time></trkpt><trkpt lat="45.869291805851674" lon="9.157320471602343"><ele>291.6</ele><time>2026-04-11T14:09:11.999Z</time></trkpt><trkpt lat="45.869241281219125" lon="9.157192289586513"><ele>288.2</ele><time>2026-04-11T14:09:12.999Z</time></trkpt><trkpt lat="45.8691633456228" lon="9.157079373741754"><ele>284.8</ele><time>2026-04-11T14:09:13.999Z</time></trkpt><trkpt lat="45.869055157836854" lon="9.157005046872417"><ele>281.4</ele><time>2026-04-11T14:09:14.999Z</time></trkpt><trkpt lat="45.86895969490866" lon="9.156957204102424"><ele>278.0</ele><time>2026-04-11T14:09:15.999Z</time></trkpt><trkpt lat="45.868882062249114" lon="9.156936562650678"><ele>278.0</ele><time>2026-04-11T14:09:16.999Z</time></trkpt><trkpt lat="45.86880513089754" lon="9.156920348247928"><ele>278.0</ele><time>2026-04-11T14:09:17.999Z</time></trkpt><trkpt lat="45.86872585506316" lon="9.1568945791714"><ele>278.0</ele><time>2026-04-11T14:09:18.999Z</time></trkpt><trkpt lat="45.86865258275027" lon="9.156840678193207"><ele>278.0</ele><time>2026-04-11T14:09:19.999Z</time></trkpt><trkpt lat="45.86860302485999" lon="9.156725943416646"><ele>278.0</ele><time>2026-04-11T14:09:20.999Z</time></trkpt><trkpt lat="45.86853108619364" lon="9.156642259379414"><ele>278.0</ele><time>2026-04-11T14:09:21.999Z</time></trkpt><trkpt lat="45.86844043533348" lon="9.156547617981365"><ele>275.25</ele><time>2026-04-11T14:09:22.999Z</time></trkpt><trkpt lat="45.868349899281874" lon="9.156463963776943"><ele>272.5</ele><time>2026-04-11T14:09:23.999Z</time></trkpt><trkpt lat="45.86824417732651" lon="9.156407459780022"><ele>269.75</ele><time>2026-04-11T14:09:24.999Z</time></trkpt><trkpt lat="45.86814238630909" lon="9.156313810937311"><ele>267.0</ele><time>2026-04-11T14:09:25.998Z</time></trkpt><trkpt lat="45.8680330092176" lon="9.156215880704115"><ele>267.0</ele><time>2026-04-11T14:09:27Z</time></trkpt><trkpt lat="45.867914439024915" lon="9.156109862166609"><ele>267.0</ele><time>2026-04-11T14:09:28Z</time></trkpt><trkpt lat="45.867816450962984" lon="9.155962611271255"><ele>267.0</ele><time>2026-04-11T14:09:29Z</time></trkpt><trkpt lat="45.86770606936655" lon="9.155839334909984"><ele>267.0</ele><time>2026-04-11T14:09:30Z</time></trkpt><trkpt lat="45.86759864097304" lon="9.155718954520621"><ele>265.75</ele><time>2026-04-11T14:09:31Z</time></trkpt><trkpt lat="45.86749504841897" lon="9.155602352940335"><ele>264.5</ele><time>2026-04-11T14:09:32Z</time></trkpt><trkpt lat="45.86739864667414" lon="9.155487084506566"><ele>263.25</ele><time>2026-04-11T14:09:33Z</time></trkpt><trkpt lat="45.867299194925096" lon="9.155366082172808"><ele>262.0</ele><time>2026-04-11T14:09:34Z</time></trkpt><trkpt lat="45.867193252491525" lon="9.155247893186274"><ele>262.0</ele><time>2026-04-11T14:09:35Z</time></trkpt><trkpt lat="45.86708994342268" lon="9.155143348924232"><ele>262.0</ele><time>2026-04-11T14:09:36Z</time></trkpt><trkpt lat="45.866976320422076" lon="9.155044507267494"><ele>262.0</ele><time>2026-04-11T14:09:37Z</time></trkpt><trkpt lat="45.86685740404701" lon="9.154950831859201"><ele>262.0</ele><time>2026-04-11T14:09:38Z</time></trkpt><trkpt lat="45.866737772142024" lon="9.154857849056942"><ele>258.75</ele><time>2026-04-11T14:09:39Z</time></trkpt><trkpt lat="45.86661879586476" lon="9.154765486261667"><ele>255.5</ele><time>2026-04-11T14:09:40Z</time></trkpt><trkpt lat="45.866503974566236" lon="9.154673684692352"><ele>252.25</ele><time>2026-04-11T14:09:41Z</time></trkpt><trkpt lat="45.86639463232228" lon="9.154579954528156"><ele>249.0</ele><time>2026-04-11T14:09:42Z</time></trkpt><trkpt lat="45.866288842641566" lon="9.154484005735577"><ele>249.0</ele><time>2026-04-11T14:09:43Z</time></trkpt><trkpt lat="45.866177783917976" lon="9.15440928864047"><ele>249.0</ele><time>2026-04-11T14:09:44Z</time></trkpt><trkpt lat="45.86608382480154" lon="9.15430280650092"><ele>249.0</ele><time>2026-04-11T14:09:45Z</time></trkpt><trkpt lat="45.86599004460257" lon="9.154200374316856"><ele>249.0</ele><time>2026-04-11T14:09:46Z</time></trkpt><trkpt lat="45.86589737796626" lon="9.154101819203573"><ele>250.0</ele><time>2026-04-11T14:09:47Z</time></trkpt><trkpt lat="45.86581254145491" lon="9.153969113337677"><ele>250.99999999999997</ele><time>2026-04-11T14:09:48Z</time></trkpt><trkpt lat="45.86572318937044" lon="9.153857376519472"><ele>251.99999999999997</ele><time>2026-04-11T14:09:49Z</time></trkpt><trkpt lat="45.86564247199495" lon="9.153751703342483"><ele>253.0</ele><time>2026-04-11T14:09:50Z</time></trkpt><trkpt lat="45.86556681301895" lon="9.15367069086724"><ele>254.0</ele><time>2026-04-11T14:09:51Z</time></trkpt><trkpt lat="45.86549551860488" lon="9.153595078630838"><ele>254.00000000000003</ele><time>2026-04-11T14:09:52Z</time></trkpt><trkpt lat="45.865427988274384" lon="9.153523719172748"><ele>254.0</ele><time>2026-04-11T14:09:53Z</time></trkpt><trkpt lat="45.86534734411313" lon="9.153498560486714"><ele>254.0</ele><time>2026-04-11T14:09:54Z</time></trkpt><trkpt lat="45.86527277984821" lon="9.153470324351309"><ele>254.0</ele><time>2026-04-11T14:09:55Z</time></trkpt><trkpt lat="45.865233246484685" lon="9.153366030252378"><ele>254.00000000000003</ele><time>2026-04-11T14:09:56Z</time></trkpt><trkpt lat="45.865173219614654" lon="9.153270861676042"><ele>254.0</ele><time>2026-04-11T14:09:57Z</time></trkpt><trkpt lat="45.86511726458937" lon="9.153155159045282"><ele>254.39999999999998</ele><time>2026-04-11T14:09:58Z</time></trkpt><trkpt lat="45.86504172434431" lon="9.153061304836827"><ele>254.79999999999998</ele><time>2026-04-11T14:09:59Z</time></trkpt><trkpt lat="45.8649559757098" lon="9.152973084493565"><ele>255.20000000000002</ele><time>2026-04-11T14:10:00Z</time></trkpt><trkpt lat="45.86485079625587" lon="9.152919649153493"><ele>255.60000000000002</ele><time>2026-04-11T14:10:01Z</time></trkpt><trkpt lat="45.86474674093535" lon="9.152866982283566"><ele>256.0</ele><time>2026-04-11T14:10:02Z</time></trkpt><trkpt lat="45.86464888691635" lon="9.152817774028984"><ele>256.0</ele><time>2026-04-11T14:10:02.999Z</time></trkpt><trkpt lat="45.86455389944591" lon="9.152777026630904"><ele>256.0</ele><time>2026-04-11T14:10:03.999Z</time></trkpt><trkpt lat="45.864480815589694" lon="9.152692329357535"><ele>256.0</ele><time>2026-04-11T14:10:04.999Z</time></trkpt><trkpt lat="45.86442269531811" lon="9.152589202444561"><ele>256.0</ele><time>2026-04-11T14:10:05.999Z</time></trkpt><trkpt lat="45.864376342037964" lon="9.152469381473844"><ele>256.0</ele><time>2026-04-11T14:10:06.999Z</time></trkpt><trkpt lat="45.86434548606849" lon="9.152337827170799"><ele>257.0</ele><time>2026-04-11T14:10:07.999Z</time></trkpt><trkpt lat="45.86431861399648" lon="9.152202844620309"><ele>258.0</ele><time>2026-04-11T14:10:08.999Z</time></trkpt><trkpt lat="45.86427491404772" lon="9.15207466873848"><ele>259.0</ele><time>2026-04-11T14:10:09.999Z</time></trkpt><trkpt lat="45.86420908472155" lon="9.151953098297735"><ele>260.0</ele><time>2026-04-11T14:10:10.999Z</time></trkpt><trkpt lat="45.86412403877076" lon="9.151841527218725"><ele>261.0</ele><time>2026-04-11T14:10:11.999Z</time></trkpt><trkpt lat="45.864029498374414" lon="9.151742163797087"><ele>261.0</ele><time>2026-04-11T14:10:12.999Z</time></trkpt><trkpt lat="45.86396258240719" lon="9.151609110797212"><ele>261.0</ele><time>2026-04-11T14:10:13.999Z</time></trkpt><trkpt lat="45.863863318547544" lon="9.151445551990076"><ele>261.0</ele><time>2026-04-11T14:10:14.999Z</time></trkpt><trkpt lat="45.863713830898504" lon="9.151278202116057"><ele>263.0</ele><time>2026-04-11T14:10:15.999Z</time></trkpt><trkpt lat="45.863561435452134" lon="9.151108520926114"><ele>265.0</ele><time>2026-04-11T14:10:16.999Z</time></trkpt><trkpt lat="45.86340320582012" lon="9.150927921566604"><ele>267.0</ele><time>2026-04-11T14:10:17.999Z</time></trkpt><trkpt lat="45.863240525930784" lon="9.15077761817118"><ele>259.0</ele><time>2026-04-11T14:10:18.999Z</time></trkpt><trkpt lat="45.86310029575736" lon="9.150596483827059"><ele>251.0</ele><time>2026-04-11T14:10:19.999Z</time></trkpt><trkpt lat="45.86296064334885" lon="9.150430166625915"><ele>243.0</ele><time>2026-04-11T14:10:20.999Z</time></trkpt><trkpt lat="45.862845147741645" lon="9.15021567278236"><ele>243.0</ele><time>2026-04-11T14:10:21.999Z</time></trkpt><trkpt lat="45.86272739414174" lon="9.150027275577552"><ele>243.0</ele><time>2026-04-11T14:10:22.999Z</time></trkpt><trkpt lat="45.86263539475534" lon="9.149838267376223"><ele>243.0</ele><time>2026-04-11T14:10:23.999Z</time></trkpt><trkpt lat="45.86253338978094" lon="9.14969531563828"><ele>247.25</ele><time>2026-04-11T14:10:24.999Z</time></trkpt><trkpt lat="45.86242591034398" lon="9.14955103675876"><ele>251.5</ele><time>2026-04-11T14:10:25.999Z</time></trkpt><trkpt lat="45.8623963517221" lon="9.149385655581344"><ele>255.75</ele><time>2026-04-11T14:10:26.999Z</time></trkpt><trkpt lat="45.86236011680148" lon="9.149248782537544"><ele>260.0</ele><time>2026-04-11T14:10:27.999Z</time></trkpt><trkpt lat="45.8623107554828" lon="9.149111436489575"><ele>256.25</ele><time>2026-04-11T14:10:28.999Z</time></trkpt><trkpt lat="45.86226243699149" lon="9.148962540700287"><ele>252.5</ele><time>2026-04-11T14:10:29.999Z</time></trkpt><trkpt lat="45.8621853376018" lon="9.148834505646036"><ele>248.75</ele><time>2026-04-11T14:10:30.999Z</time></trkpt><trkpt lat="45.862100680182884" lon="9.148719119830815"><ele>245.0</ele><time>2026-04-11T14:10:31.999Z</time></trkpt><trkpt lat="45.86202636994338" lon="9.148582353676021"><ele>245.0</ele><time>2026-04-11T14:10:32.999Z</time></trkpt><trkpt lat="45.86198610856143" lon="9.148425581131933"><ele>245.0</ele><time>2026-04-11T14:10:33.999Z</time></trkpt><trkpt lat="45.86195836502443" lon="9.148250259090212"><ele>245.0</ele><time>2026-04-11T14:10:34.999Z</time></trkpt><trkpt lat="45.861915072059816" lon="9.148064517876083"><ele>245.0</ele><time>2026-04-11T14:10:35.999Z</time></trkpt><trkpt lat="45.86188506821063" lon="9.147863146969542"><ele>245.25</ele><time>2026-04-11T14:10:36.999Z</time></trkpt><trkpt lat="45.8618474736657" lon="9.147673978735316"><ele>245.5</ele><time>2026-04-11T14:10:37.999Z</time></trkpt><trkpt lat="45.86178979333459" lon="9.147507735701131"><ele>245.75</ele><time>2026-04-11T14:10:38.999Z</time></trkpt><trkpt lat="45.861688958567285" lon="9.147361215234893"><ele>246.0</ele><time>2026-04-11T14:10:39.999Z</time></trkpt><trkpt lat="45.86156462296762" lon="9.14721910333663"><ele>246.0</ele><time>2026-04-11T14:10:40.999Z</time></trkpt><trkpt lat="45.86143871983926" lon="9.147069475860057"><ele>246.0</ele><time>2026-04-11T14:10:41.999Z</time></trkpt><trkpt lat="45.8613217039455" lon="9.146914360336782"><ele>246.0</ele><time>2026-04-11T14:10:42.999Z</time></trkpt><trkpt lat="45.86120337516865" lon="9.146750319211522"><ele>246.0</ele><time>2026-04-11T14:10:43.999Z</time></trkpt><trkpt lat="45.86108204468202" lon="9.146581024488114"><ele>246.0</ele><time>2026-04-11T14:10:44.999Z</time></trkpt><trkpt lat="45.86096868255907" lon="9.146413483934882"><ele>246.0</ele><time>2026-04-11T14:10:45.999Z</time></trkpt><trkpt lat="45.86085868516115" lon="9.146260229266801"><ele>251.33333333333331</ele><time>2026-04-11T14:10:46.999Z</time></trkpt><trkpt lat="45.860726317836814" lon="9.146151393092087"><ele>256.66666666666663</ele><time>2026-04-11T14:10:47.999Z</time></trkpt><trkpt lat="45.860577938002734" lon="9.146084004744937"><ele>262.0</ele><time>2026-04-11T14:10:48.999Z</time></trkpt><trkpt lat="45.860444474787975" lon="9.145975696092801"><ele>262.0</ele><time>2026-04-11T14:10:49.999Z</time></trkpt><trkpt lat="45.86033370912781" lon="9.145827745918417"><ele>262.0</ele><time>2026-04-11T14:10:50.999Z</time></trkpt><trkpt lat="45.86021849605768" lon="9.14566593042966"><ele>262.0</ele><time>2026-04-11T14:10:51.999Z</time></trkpt><trkpt lat="45.860090682363094" lon="9.145522142318745"><ele>266.3333333333333</ele><time>2026-04-11T14:10:52.999Z</time></trkpt><trkpt lat="45.859972382943894" lon="9.145366262369958"><ele>270.6666666666667</ele><time>2026-04-11T14:10:53.999Z</time></trkpt><trkpt lat="45.85986690640934" lon="9.145183897991563"><ele>275.0</ele><time>2026-04-11T14:10:54.999Z</time></trkpt><trkpt lat="45.859740821144854" lon="9.145033082677388"><ele>269.0</ele><time>2026-04-11T14:10:55.999Z</time></trkpt><trkpt lat="45.85963505035958" lon="9.144852202873798"><ele>263.0</ele><time>2026-04-11T14:10:56.999Z</time></trkpt><trkpt lat="45.85955030734407" lon="9.144643841734222"><ele>257.0</ele><time>2026-04-11T14:10:57.999Z</time></trkpt><trkpt lat="45.85944229401859" lon="9.144460165463865"><ele>257.0</ele><time>2026-04-11T14:10:58.999Z</time></trkpt><trkpt lat="45.8593495255783" lon="9.144253780259804"><ele>257.0</ele><time>2026-04-11T14:10:59.999Z</time></trkpt><trkpt lat="45.8592583529009" lon="9.144043895966975"><ele>257.0</ele><time>2026-04-11T14:11:00.999Z</time></trkpt><trkpt lat="45.85915302273695" lon="9.14383363000758"><ele>262.0</ele><time>2026-04-11T14:11:01.999Z</time></trkpt><trkpt lat="45.859029586633476" lon="9.143637968168461"><ele>267.0</ele><time>2026-04-11T14:11:02.999Z</time></trkpt><trkpt lat="45.858897620322495" lon="9.143452897577497"><ele>272.0</ele><time>2026-04-11T14:11:03.999Z</time></trkpt><trkpt lat="45.85876846003267" lon="9.143271043939636"><ele>257.33333333333337</ele><time>2026-04-11T14:11:04.999Z</time></trkpt><trkpt lat="45.85864507829336" lon="9.14310133217235"><ele>242.66666666666669</ele><time>2026-04-11T14:11:05.999Z</time></trkpt><trkpt lat="45.85854843050649" lon="9.14292217908846"><ele>228.0</ele><time>2026-04-11T14:11:06.999Z</time></trkpt><trkpt lat="45.85845254624438" lon="9.142770644058071"><ele>239.75</ele><time>2026-04-11T14:11:07.999Z</time></trkpt><trkpt lat="45.85837738665105" lon="9.142601577594618"><ele>251.5</ele><time>2026-04-11T14:11:08.999Z</time></trkpt><trkpt lat="45.85833485370428" lon="9.14240878941794"><ele>263.25</ele><time>2026-04-11T14:11:09.999Z</time></trkpt><trkpt lat="45.85827909969858" lon="9.142226066844872"><ele>275.0</ele><time>2026-04-11T14:11:10.999Z</time></trkpt><trkpt lat="45.85821382163757" lon="9.142052671792706"><ele>275.0</ele><time>2026-04-11T14:11:11.999Z</time></trkpt><trkpt lat="45.85813387043185" lon="9.14189696958786"><ele>275.0</ele><time>2026-04-11T14:11:12.999Z</time></trkpt><trkpt lat="45.85803706282191" lon="9.141756676766393"><ele>275.0</ele><time>2026-04-11T14:11:13.999Z</time></trkpt><trkpt lat="45.857951385882124" lon="9.141607019286088"><ele>275.0</ele><time>2026-04-11T14:11:14.999Z</time></trkpt><trkpt lat="45.857847921603394" lon="9.141486948355132"><ele>283.75</ele><time>2026-04-11T14:11:15.999Z</time></trkpt><trkpt lat="45.85775635035328" lon="9.141354739360574"><ele>292.5</ele><time>2026-04-11T14:11:16.999Z</time></trkpt><trkpt lat="45.85766773858865" lon="9.141230123332951"><ele>301.25</ele><time>2026-04-11T14:11:17.999Z</time></trkpt><trkpt lat="45.85758850208322" lon="9.14111400363332"><ele>310.0</ele><time>2026-04-11T14:11:18.999Z</time></trkpt><trkpt lat="45.857518328682104" lon="9.14100749511091"><ele>310.0</ele><time>2026-04-11T14:11:19.999Z</time></trkpt><trkpt lat="45.85744041477814" lon="9.140916481865112"><ele>310.0</ele><time>2026-04-11T14:11:20.999Z</time></trkpt><trkpt lat="45.85734558144563" lon="9.140867207285243"><ele>310.0</ele><time>2026-04-11T14:11:21.999Z</time></trkpt><trkpt lat="45.857247853714064" lon="9.140855939190494"><ele>310.0</ele><time>2026-04-11T14:11:22.999Z</time></trkpt><trkpt lat="45.857162783917715" lon="9.140868831526646"><ele>310.0</ele><time>2026-04-11T14:11:23.999Z</time></trkpt><trkpt lat="45.85709189724451" lon="9.140882325435483"><ele>310.0</ele><time>2026-04-11T14:11:24.999Z</time></trkpt><trkpt lat="45.8569820963261" lon="9.14088978157696"><ele>310.0</ele><time>2026-04-11T14:11:26.999Z</time></trkpt><trkpt lat="45.85690799097457" lon="9.140843675770238"><ele>310.0</ele><time>2026-04-11T14:11:28.999Z</time></trkpt><trkpt lat="45.856862026164116" lon="9.140767851459877"><ele>310.0</ele><time>2026-04-11T14:11:33Z</time></trkpt><trkpt lat="45.85685760499064" lon="9.140633237294377"><ele>310.0</ele><time>2026-04-11T14:11:35Z</time></trkpt><trkpt lat="45.856872412871034" lon="9.14053474469384"><ele>310.0</ele><time>2026-04-11T14:11:36Z</time></trkpt><trkpt lat="45.856887556679766" lon="9.140428962085116"><ele>301.25</ele><time>2026-04-11T14:11:37Z</time></trkpt><trkpt lat="45.85690513900014" lon="9.140307652113107"><ele>292.5</ele><time>2026-04-11T14:11:38Z</time></trkpt><trkpt lat="45.85692659490911" lon="9.140151267750795"><ele>283.75</ele><time>2026-04-11T14:11:39Z</time></trkpt><trkpt lat="45.85692866221727" lon="9.13991833862571"><ele>275.0</ele><time>2026-04-11T14:11:40Z</time></trkpt><trkpt lat="45.85688955696248" lon="9.139627432799186"><ele>273.6666666666667</ele><time>2026-04-11T14:11:41Z</time></trkpt><trkpt lat="45.8568649839032" lon="9.139340508390326"><ele>272.3333333333333</ele><time>2026-04-11T14:11:42Z</time></trkpt><trkpt lat="45.85688557846316" lon="9.139083343757978"><ele>271.0</ele><time>2026-04-11T14:11:43Z</time></trkpt><trkpt lat="45.85690044823378" lon="9.138837501092317"><ele>270.66666666666663</ele><time>2026-04-11T14:11:44Z</time></trkpt><trkpt lat="45.85692398266071" lon="9.138598291437013"><ele>270.3333333333333</ele><time>2026-04-11T14:11:45Z</time></trkpt><trkpt lat="45.85690241758691" lon="9.13833736265671"><ele>270.0</ele><time>2026-04-11T14:11:46Z</time></trkpt><trkpt lat="45.856872551568415" lon="9.138038127035722"><ele>264.0</ele><time>2026-04-11T14:11:47Z</time></trkpt><trkpt lat="45.85683270832586" lon="9.137718338544056"><ele>258.0</ele><time>2026-04-11T14:11:48Z</time></trkpt><trkpt lat="45.85678304597133" lon="9.137396737129214"><ele>279.3333333333333</ele><time>2026-04-11T14:11:49Z</time></trkpt><trkpt lat="45.8567405298218" lon="9.13708650870066"><ele>300.66666666666663</ele><time>2026-04-11T14:11:50Z</time></trkpt><trkpt lat="45.85671477338489" lon="9.136789873595145"><ele>322.0</ele><time>2026-04-11T14:11:51Z</time></trkpt><trkpt lat="45.85668879544928" lon="9.13651216828365"><ele>322.0</ele><time>2026-04-11T14:11:52Z</time></trkpt><trkpt lat="45.856663639427474" lon="9.136244141485468"><ele>322.0</ele><time>2026-04-11T14:11:53Z</time></trkpt><trkpt lat="45.856622208157646" lon="9.135995917752794"><ele>322.0</ele><time>2026-04-11T14:11:54Z</time></trkpt><trkpt lat="45.85659965717833" lon="9.135755462230987"><ele>322.0</ele><time>2026-04-11T14:11:55Z</time></trkpt><trkpt lat="45.85660879656944" lon="9.135527563358504"><ele>322.0</ele><time>2026-04-11T14:11:56Z</time></trkpt><trkpt lat="45.8566216160146" lon="9.135313994404687"><ele>322.0</ele><time>2026-04-11T14:11:57Z</time></trkpt><trkpt lat="45.856646521236854" lon="9.135115489091675"><ele>322.0</ele><time>2026-04-11T14:11:58Z</time></trkpt><trkpt lat="45.85666677439355" lon="9.134933637865295"><ele>320.25</ele><time>2026-04-11T14:11:59Z</time></trkpt><trkpt lat="45.85667915767743" lon="9.134756773068467"><ele>318.5</ele><time>2026-04-11T14:12:00Z</time></trkpt><trkpt lat="45.85668144035874" lon="9.134588432090194"><ele>316.75</ele><time>2026-04-11T14:12:01Z</time></trkpt><trkpt lat="45.85666356129244" lon="9.134422849484208"><ele>315.0</ele><time>2026-04-11T14:12:02Z</time></trkpt><trkpt lat="45.85665691231705" lon="9.134251210279066"><ele>315.0</ele><time>2026-04-11T14:12:03Z</time></trkpt><trkpt lat="45.85661863218973" lon="9.134099100321155"><ele>315.0</ele><time>2026-04-11T14:12:03.999Z</time></trkpt><trkpt lat="45.856600557368736" lon="9.13395182707981"><ele>315.0</ele><time>2026-04-11T14:12:04.999Z</time></trkpt><trkpt lat="45.85658013537603" lon="9.133814384313359"><ele>315.0</ele><time>2026-04-11T14:12:05.999Z</time></trkpt><trkpt lat="45.856562751743034" lon="9.133676963933086"><ele>315.0</ele><time>2026-04-11T14:12:06.999Z</time></trkpt><trkpt lat="45.85655591140045" lon="9.133535408777355"><ele>314.2</ele><time>2026-04-11T14:12:07.999Z</time></trkpt><trkpt lat="45.8565399086541" lon="9.133392839246877"><ele>313.4</ele><time>2026-04-11T14:12:08.999Z</time></trkpt><trkpt lat="45.85651406876972" lon="9.133250738931586"><ele>312.6</ele><time>2026-04-11T14:12:09.999Z</time></trkpt><trkpt lat="45.85649920976602" lon="9.133113037139893"><ele>311.8</ele><time>2026-04-11T14:12:10.999Z</time></trkpt><trkpt lat="45.85648378300084" lon="9.132980812273114"><ele>311.0</ele><time>2026-04-11T14:12:11.999Z</time></trkpt><trkpt lat="45.85646787463341" lon="9.132859779877075"><ele>309.5</ele><time>2026-04-11T14:12:12.999Z</time></trkpt><trkpt lat="45.856454695322974" lon="9.132746752123518"><ele>308.0</ele><time>2026-04-11T14:12:13.999Z</time></trkpt><trkpt lat="45.85643851650551" lon="9.13262416512835"><ele>306.5</ele><time>2026-04-11T14:12:14.999Z</time></trkpt><trkpt lat="45.85642142759696" lon="9.132498428794921"><ele>305.0</ele><time>2026-04-11T14:12:15.999Z</time></trkpt><trkpt lat="45.85640843195425" lon="9.132378896846502"><ele>303.5</ele><time>2026-04-11T14:12:16.999Z</time></trkpt><trkpt lat="45.85639421899689" lon="9.132259853762514"><ele>302.0</ele><time>2026-04-11T14:12:17.999Z</time></trkpt><trkpt lat="45.856382474837616" lon="9.13213614212208"><ele>302.0</ele><time>2026-04-11T14:12:18.999Z</time></trkpt><trkpt lat="45.85638586514446" lon="9.132008691222143"><ele>302.0</ele><time>2026-04-11T14:12:19.999Z</time></trkpt><trkpt lat="45.8564109436208" lon="9.131887676957511"><ele>302.0</ele><time>2026-04-11T14:12:20.999Z</time></trkpt><trkpt lat="45.8564556313977" lon="9.131776639937021"><ele>302.0</ele><time>2026-04-11T14:12:21.999Z</time></trkpt><trkpt lat="45.856519415418305" lon="9.131683511164645"><ele>302.0</ele><time>2026-04-11T14:12:22.999Z</time></trkpt><trkpt lat="45.856605340020884" lon="9.131632358624383"><ele>306.2</ele><time>2026-04-11T14:12:23.999Z</time></trkpt><trkpt lat="45.85668077679622" lon="9.131551604003075"><ele>310.4</ele><time>2026-04-11T14:12:24.999Z</time></trkpt><trkpt lat="45.85676259577145" lon="9.131472453838327"><ele>314.59999999999997</ele><time>2026-04-11T14:12:25.999Z</time></trkpt><trkpt lat="45.856825345144784" lon="9.131348123470774"><ele>318.79999999999995</ele><time>2026-04-11T14:12:26.999Z</time></trkpt><trkpt lat="45.85686914704041" lon="9.131195978959934"><ele>323.0</ele><time>2026-04-11T14:12:27.999Z</time></trkpt><trkpt lat="45.856905597879816" lon="9.131035215526728"><ele>314.25</ele><time>2026-04-11T14:12:28.999Z</time></trkpt><trkpt lat="45.85694692200466" lon="9.13087132987246"><ele>305.5</ele><time>2026-04-11T14:12:29.999Z</time></trkpt><trkpt lat="45.8569954731155" lon="9.130712649405037"><ele>296.75</ele><time>2026-04-11T14:12:30.999Z</time></trkpt><trkpt lat="45.85704860496183" lon="9.13056517221514"><ele>288.0</ele><time>2026-04-11T14:12:31.999Z</time></trkpt><trkpt lat="45.85710713650913" lon="9.13041500340462"><ele>288.0</ele><time>2026-04-11T14:12:32.999Z</time></trkpt><trkpt lat="45.85716867169839" lon="9.130263088481387"><ele>288.0</ele><time>2026-04-11T14:12:33.999Z</time></trkpt><trkpt lat="45.85724286140356" lon="9.13012680158121"><ele>288.0</ele><time>2026-04-11T14:12:34.999Z</time></trkpt><trkpt lat="45.8573027176535" lon="9.12998588020184"><ele>288.0</ele><time>2026-04-11T14:12:35.999Z</time></trkpt><trkpt lat="45.857359926482005" lon="9.12984707116352"><ele>291.6</ele><time>2026-04-11T14:12:36.999Z</time></trkpt><trkpt lat="45.85740084921713" lon="9.129705815120689"><ele>295.20000000000005</ele><time>2026-04-11T14:12:37.999Z</time></trkpt><trkpt lat="45.857454497828904" lon="9.129577021512938"><ele>298.8</ele><time>2026-04-11T14:12:38.999Z</time></trkpt><trkpt lat="45.85750946310632" lon="9.129444576999475"><ele>302.40000000000003</ele><time>2026-04-11T14:12:39.999Z</time></trkpt><trkpt lat="45.85756523723719" lon="9.129310055760271"><ele>306.0</ele><time>2026-04-11T14:12:40.999Z</time></trkpt><trkpt lat="45.85762782087981" lon="9.129175867586074"><ele>292.75</ele><time>2026-04-11T14:12:41.999Z</time></trkpt><trkpt lat="45.85768664718392" lon="9.129033353555174"><ele>279.5</ele><time>2026-04-11T14:12:42.999Z</time></trkpt><trkpt lat="45.85773616028393" lon="9.128882509214387"><ele>266.25</ele><time>2026-04-11T14:12:43.999Z</time></trkpt><trkpt lat="45.85777350480891" lon="9.128728051861131"><ele>253.0</ele><time>2026-04-11T14:12:44.999Z</time></trkpt><trkpt lat="45.85779959292607" lon="9.128567789956506"><ele>253.0</ele><time>2026-04-11T14:12:45.999Z</time></trkpt><trkpt lat="45.85781390860741" lon="9.128401957519229"><ele>253.0</ele><time>2026-04-11T14:12:46.999Z</time></trkpt><trkpt lat="45.85780607793852" lon="9.128231663775358"><ele>253.0</ele><time>2026-04-11T14:12:47.999Z</time></trkpt><trkpt lat="45.85778402717457" lon="9.128062562657885"><ele>253.0</ele><time>2026-04-11T14:12:48.999Z</time></trkpt><trkpt lat="45.85775881643474" lon="9.127894583908379"><ele>251.5</ele><time>2026-04-11T14:12:49.999Z</time></trkpt><trkpt lat="45.8577337174101" lon="9.127726727781743"><ele>250.0</ele><time>2026-04-11T14:12:50.999Z</time></trkpt><trkpt lat="45.85770728075078" lon="9.127559310969279"><ele>248.5</ele><time>2026-04-11T14:12:51.999Z</time></trkpt><trkpt lat="45.85768229493531" lon="9.12739251385404"><ele>247.0</ele><time>2026-04-11T14:12:52.999Z</time></trkpt><trkpt lat="45.85765922199215" lon="9.127224498521647"><ele>244.75</ele><time>2026-04-11T14:12:53.999Z</time></trkpt><trkpt lat="45.857632812290944" lon="9.127057356854207"><ele>242.5</ele><time>2026-04-11T14:12:54.999Z</time></trkpt><trkpt lat="45.857610694416664" lon="9.126890034299826"><ele>240.25</ele><time>2026-04-11T14:12:55.999Z</time></trkpt><trkpt lat="45.857593593549836" lon="9.126719562055346"><ele>238.0</ele><time>2026-04-11T14:12:56.999Z</time></trkpt><trkpt lat="45.85758860970841" lon="9.12654491572917"><ele>235.60000000000002</ele><time>2026-04-11T14:12:57.999Z</time></trkpt><trkpt lat="45.857611356851095" lon="9.126377582197865"><ele>233.20000000000002</ele><time>2026-04-11T14:12:58.999Z</time></trkpt><trkpt lat="45.857639188999485" lon="9.126224231080897"><ele>230.8</ele><time>2026-04-11T14:12:59.999Z</time></trkpt><trkpt lat="45.85766396426204" lon="9.12608448465602"><ele>228.4</ele><time>2026-04-11T14:13:00.999Z</time></trkpt><trkpt lat="45.85768033672316" lon="9.125954966178123"><ele>226.0</ele><time>2026-04-11T14:13:01.999Z</time></trkpt><trkpt lat="45.857687857448724" lon="9.125829111716797"><ele>225.83333333333331</ele><time>2026-04-11T14:13:02.999Z</time></trkpt><trkpt lat="45.857701277756746" lon="9.125708829252149"><ele>225.66666666666666</ele><time>2026-04-11T14:13:03.999Z</time></trkpt><trkpt lat="45.857705520359765" lon="9.125595473726111"><ele>225.5</ele><time>2026-04-11T14:13:04.999Z</time></trkpt><trkpt lat="45.85769593778147" lon="9.125487585236995"><ele>225.33333333333331</ele><time>2026-04-11T14:13:05.999Z</time></trkpt><trkpt lat="45.85768291780039" lon="9.125386506659213"><ele>225.16666666666666</ele><time>2026-04-11T14:13:06.999Z</time></trkpt><trkpt lat="45.857669286102364" lon="9.125286009905404"><ele>225.0</ele><time>2026-04-11T14:13:07.999Z</time></trkpt><trkpt lat="45.85765403108668" lon="9.125175188830875"><ele>225.0</ele><time>2026-04-11T14:13:08.999Z</time></trkpt><trkpt lat="45.857637885937706" lon="9.1250673859863"><ele>225.0</ele><time>2026-04-11T14:13:09.999Z</time></trkpt><trkpt lat="45.85761907509735" lon="9.124963965233396"><ele>225.0</ele><time>2026-04-11T14:13:10.999Z</time></trkpt><trkpt lat="45.857599566428775" lon="9.124863199427864"><ele>225.0</ele><time>2026-04-11T14:13:11.999Z</time></trkpt><trkpt lat="45.85757996278091" lon="9.12475692422942"><ele>225.0</ele><time>2026-04-11T14:13:12.999Z</time></trkpt><trkpt lat="45.85756295038573" lon="9.124648156463794"><ele>225.0</ele><time>2026-04-11T14:13:13.999Z</time></trkpt><trkpt lat="45.857551948077905" lon="9.124539488768677"><ele>225.16666666666666</ele><time>2026-04-11T14:13:14.999Z</time></trkpt><trkpt lat="45.857552106859984" lon="9.124428431875145"><ele>225.33333333333331</ele><time>2026-04-11T14:13:15.999Z</time></trkpt><trkpt lat="45.85759112460452" lon="9.124325710546175"><ele>225.5</ele><time>2026-04-11T14:13:16.999Z</time></trkpt><trkpt lat="45.85760587172784" lon="9.124207289964417"><ele>225.66666666666666</ele><time>2026-04-11T14:13:17.999Z</time></trkpt><trkpt lat="45.8576393350977" lon="9.124090018268605"><ele>225.83333333333331</ele><time>2026-04-11T14:13:18.999Z</time></trkpt><trkpt lat="45.85767016360336" lon="9.123973202746294"><ele>226.0</ele><time>2026-04-11T14:13:19.999Z</time></trkpt><trkpt lat="45.857698467716034" lon="9.123849032249716"><ele>226.60000000000002</ele><time>2026-04-11T14:13:20.999Z</time></trkpt><trkpt lat="45.857731738725626" lon="9.123719598965975"><ele>227.20000000000002</ele><time>2026-04-11T14:13:21.999Z</time></trkpt><trkpt lat="45.85776567326514" lon="9.123584289276666"><ele>227.79999999999998</ele><time>2026-04-11T14:13:22.999Z</time></trkpt><trkpt lat="45.85779398971789" lon="9.123440736964005"><ele>228.39999999999998</ele><time>2026-04-11T14:13:23.999Z</time></trkpt><trkpt lat="45.85780809135773" lon="9.123296111038792"><ele>229.0</ele><time>2026-04-11T14:13:24.999Z</time></trkpt><trkpt lat="45.857800195357804" lon="9.123152809883218"><ele>229.79999999999998</ele><time>2026-04-11T14:13:25.999Z</time></trkpt><trkpt lat="45.85777268807333" lon="9.123016547716938"><ele>230.59999999999997</ele><time>2026-04-11T14:13:26.999Z</time></trkpt><trkpt lat="45.857744002815664" lon="9.122894588631443"><ele>231.4</ele><time>2026-04-11T14:13:27.999Z</time></trkpt><trkpt lat="45.857718954405186" lon="9.12277259414075"><ele>232.2</ele><time>2026-04-11T14:13:28.999Z</time></trkpt><trkpt lat="45.857700147081545" lon="9.122649140037975"><ele>233.0</ele><time>2026-04-11T14:13:29.999Z</time></trkpt><trkpt lat="45.857682720471935" lon="9.122528688263447"><ele>233.00000000000003</ele><time>2026-04-11T14:13:30.998Z</time></trkpt><trkpt lat="45.85766659445631" lon="9.122410851503279"><ele>233.0</ele><time>2026-04-11T14:13:31.998Z</time></trkpt><trkpt lat="45.857672399483704" lon="9.122289245982024"><ele>233.0</ele><time>2026-04-11T14:13:32.998Z</time></trkpt><trkpt lat="45.85769923277214" lon="9.122169484790653"><ele>233.0</ele><time>2026-04-11T14:13:33.998Z</time></trkpt><trkpt lat="45.857740460408344" lon="9.122058956845303"><ele>233.00000000000003</ele><time>2026-04-11T14:13:34.998Z</time></trkpt><trkpt lat="45.85777731761469" lon="9.121952400673798"><ele>233.0</ele><time>2026-04-11T14:13:35.998Z</time></trkpt><trkpt lat="45.85780939619513" lon="9.121844691097214"><ele>233.33333333333334</ele><time>2026-04-11T14:13:36.998Z</time></trkpt><trkpt lat="45.857847891623265" lon="9.121743613616689"><ele>233.66666666666669</ele><time>2026-04-11T14:13:37.998Z</time></trkpt><trkpt lat="45.85787708474394" lon="9.121643461388746"><ele>234.0</ele><time>2026-04-11T14:13:39Z</time></trkpt><trkpt lat="45.85789498869499" lon="9.121553125737924"><ele>234.33333333333331</ele><time>2026-04-11T14:13:40Z</time></trkpt><trkpt lat="45.857899010004985" lon="9.12138831306825"><ele>234.66666666666666</ele><time>2026-04-11T14:13:42Z</time></trkpt><trkpt lat="45.85789150525858" lon="9.121271168519508"><ele>235.0</ele><time>2026-04-11T14:13:44Z</time></trkpt><trkpt lat="45.857885219289045" lon="9.121176817782466"><ele>235.33333333333331</ele><time>2026-04-11T14:13:46Z</time></trkpt><trkpt lat="45.85786845768331" lon="9.121058617360854"><ele>235.66666666666666</ele><time>2026-04-11T14:13:54Z</time></trkpt><trkpt lat="45.85785763092484" lon="9.120945946158177"><ele>236.0</ele><time>2026-04-11T14:13:56Z</time></trkpt><trkpt lat="45.85786328316887" lon="9.120839123122702"><ele>236.33333333333331</ele><time>2026-04-11T14:14:08.999Z</time></trkpt><trkpt lat="45.8578395311622" lon="9.120749856053882"><ele>236.66666666666666</ele><time>2026-04-11T14:14:09.999Z</time></trkpt><trkpt lat="45.85780872839873" lon="9.120633284734936"><ele>237.0</ele><time>2026-04-11T14:14:10.999Z</time></trkpt><trkpt lat="45.857788997509864" lon="9.120524664710402"><ele>238.0</ele><time>2026-04-11T14:14:11.999Z</time></trkpt><trkpt lat="45.85777929213526" lon="9.120401504478185"><ele>239.0</ele><time>2026-04-11T14:14:12.999Z</time></trkpt><trkpt lat="45.857792734751484" lon="9.120268870943818"><ele>240.0</ele><time>2026-04-11T14:14:13.999Z</time></trkpt><trkpt lat="45.857817267847366" lon="9.120143345193464"><ele>241.0</ele><time>2026-04-11T14:14:14.999Z</time></trkpt><trkpt lat="45.857852381385946" lon="9.120005596496368"><ele>242.0</ele><time>2026-04-11T14:14:15.999Z</time></trkpt><trkpt lat="45.85788520338378" lon="9.119859569795057"><ele>242.39999999999998</ele><time>2026-04-11T14:14:16.999Z</time></trkpt><trkpt lat="45.85791770135319" lon="9.119710439127978"><ele>242.79999999999998</ele><time>2026-04-11T14:14:17.999Z</time></trkpt><trkpt lat="45.85795428044314" lon="9.119556744005866"><ele>243.2</ele><time>2026-04-11T14:14:18.999Z</time></trkpt><trkpt lat="45.85798691134277" lon="9.119399417484221"><ele>243.6</ele><time>2026-04-11T14:14:19.999Z</time></trkpt><trkpt lat="45.85801908997909" lon="9.119246417078642"><ele>244.0</ele><time>2026-04-11T14:14:20.999Z</time></trkpt><trkpt lat="45.858058938968036" lon="9.119098253970938"><ele>242.2</ele><time>2026-04-11T14:14:21.999Z</time></trkpt><trkpt lat="45.85809188155363" lon="9.118951470588328"><ele>240.39999999999998</ele><time>2026-04-11T14:14:22.999Z</time></trkpt><trkpt lat="45.85813024555027" lon="9.118814820375697"><ele>238.6</ele><time>2026-04-11T14:14:23.999Z</time></trkpt><trkpt lat="45.85815276829455" lon="9.118677473322991"><ele>236.8</ele><time>2026-04-11T14:14:24.999Z</time></trkpt><trkpt lat="45.85808557380285" lon="9.11853738397069"><ele>235.0</ele><time>2026-04-11T14:14:25.999Z</time></trkpt><trkpt lat="45.85803589915249" lon="9.11841601046451"><ele>234.99999999999997</ele><time>2026-04-11T14:14:26.999Z</time></trkpt><trkpt lat="45.858011380912686" lon="9.11829810452162"><ele>235.0</ele><time>2026-04-11T14:14:27.999Z</time></trkpt><trkpt lat="45.857986306157734" lon="9.118192787467809"><ele>235.0</ele><time>2026-04-11T14:14:28.999Z</time></trkpt><trkpt lat="45.85802898831591" lon="9.118087137878279"><ele>235.0</ele><time>2026-04-11T14:14:29.999Z</time></trkpt><trkpt lat="45.858069192748964" lon="9.118003149378435"><ele>234.99999999999997</ele><time>2026-04-11T14:14:30.999Z</time></trkpt><trkpt lat="45.85809096342338" lon="9.117900371965044"><ele>235.0</ele><time>2026-04-11T14:14:31.999Z</time></trkpt><trkpt lat="45.85813367173287" lon="9.117812830196842"><ele>232.99999999999997</ele><time>2026-04-11T14:14:32.999Z</time></trkpt><trkpt lat="45.85814230560382" lon="9.117706818961127"><ele>231.0</ele><time>2026-04-11T14:14:33.999Z</time></trkpt><trkpt lat="45.85812080476303" lon="9.11758800332798"><ele>229.0</ele><time>2026-04-11T14:14:34.999Z</time></trkpt><trkpt lat="45.85808795565656" lon="9.117468052076626"><ele>227.0</ele><time>2026-04-11T14:14:35.999Z</time></trkpt><trkpt lat="45.858064823652334" lon="9.117341158304553"><ele>224.99999999999997</ele><time>2026-04-11T14:14:36.999Z</time></trkpt><trkpt lat="45.858044935556336" lon="9.117216356818904"><ele>223.0</ele><time>2026-04-11T14:14:37.999Z</time></trkpt><trkpt lat="45.858022096600415" lon="9.117097557335867"><ele>221.99999999999997</ele><time>2026-04-11T14:14:38.999Z</time></trkpt><trkpt lat="45.857989870232615" lon="9.116987040789457"><ele>221.0</ele><time>2026-04-11T14:14:39.999Z</time></trkpt><trkpt lat="45.85796380515101" lon="9.116873294126218"><ele>220.0</ele><time>2026-04-11T14:14:40.999Z</time></trkpt><trkpt lat="45.85792125196352" lon="9.116778756781768"><ele>219.0</ele><time>2026-04-11T14:14:41.999Z</time></trkpt><trkpt lat="45.8578792570976" lon="9.11668884637775"><ele>217.99999999999997</ele><time>2026-04-11T14:14:42.999Z</time></trkpt><trkpt lat="45.857826511526056" lon="9.116616090192302"><ele>217.0</ele><time>2026-04-11T14:14:43.999Z</time></trkpt><trkpt lat="45.85777144485519" lon="9.116459259381347"><ele>216.66666666666666</ele><time>2026-04-11T14:14:45.999Z</time></trkpt><trkpt lat="45.8577249322344" lon="9.116398168319906"><ele>216.33333333333331</ele><time>2026-04-11T14:14:46.999Z</time></trkpt><trkpt lat="45.857657818509786" lon="9.116250555910183"><ele>216.0</ele><time>2026-04-11T14:14:48.999Z</time></trkpt><trkpt lat="45.85761989958264" lon="9.116173980532375"><ele>215.66666666666669</ele><time>2026-04-11T14:14:49.999Z</time></trkpt><trkpt lat="45.85758132678103" lon="9.11609552834133"><ele>215.33333333333334</ele><time>2026-04-11T14:14:50.999Z</time></trkpt><trkpt lat="45.857534420176755" lon="9.116021998570513"><ele>215.0</ele><time>2026-04-11T14:14:51.999Z</time></trkpt><trkpt lat="45.85749550531668" lon="9.11593432519534"><ele>216.16666666666669</ele><time>2026-04-11T14:14:52.999Z</time></trkpt><trkpt lat="45.85742354688068" lon="9.11588670544924"><ele>217.33333333333334</ele><time>2026-04-11T14:14:53.999Z</time></trkpt><trkpt lat="45.85736370954965" lon="9.115835603031838"><ele>218.5</ele><time>2026-04-11T14:14:54.999Z</time></trkpt><trkpt lat="45.85730476988054" lon="9.115803441241335"><ele>219.66666666666669</ele><time>2026-04-11T14:14:55.999Z</time></trkpt><trkpt lat="45.85721109263304" lon="9.115771850723851"><ele>220.83333333333334</ele><time>2026-04-11T14:14:57.999Z</time></trkpt><trkpt lat="45.85714687151778" lon="9.115746083010107"><ele>222.0</ele><time>2026-04-11T14:14:59.999Z</time></trkpt><trkpt lat="45.85707081519255" lon="9.115701917443685"><ele>222.0</ele><time>2026-04-11T14:15:01.999Z</time></trkpt><trkpt lat="45.8569750415266" lon="9.11566115377772"><ele>222.0</ele><time>2026-04-11T14:15:03.999Z</time></trkpt><trkpt lat="45.856861632873304" lon="9.115598351535715"><ele>222.0</ele><time>2026-04-11T14:15:05.999Z</time></trkpt><trkpt lat="45.85679691387194" lon="9.115550286532722"><ele>222.0</ele><time>2026-04-11T14:15:06.999Z</time></trkpt><trkpt lat="45.85672869982593" lon="9.115491032178312"><ele>222.0</ele><time>2026-04-11T14:15:07.999Z</time></trkpt><trkpt lat="45.85665401575024" lon="9.11542548572649"><ele>222.8</ele><time>2026-04-11T14:15:08.999Z</time></trkpt><trkpt lat="45.85657965884263" lon="9.115354230523472"><ele>223.6</ele><time>2026-04-11T14:15:09.999Z</time></trkpt><trkpt lat="45.85650515605838" lon="9.115285551126222"><ele>224.40000000000003</ele><time>2026-04-11T14:15:10.999Z</time></trkpt><trkpt lat="45.856428762804974" lon="9.115218781205208"><ele>225.20000000000002</ele><time>2026-04-11T14:15:11.999Z</time></trkpt><trkpt lat="45.85635015639069" lon="9.115151633294648"><ele>226.0</ele><time>2026-04-11T14:15:12.999Z</time></trkpt><trkpt lat="45.85626841629181" lon="9.115089292353554"><ele>225.99999999999997</ele><time>2026-04-11T14:15:13.999Z</time></trkpt><trkpt lat="45.85618859037302" lon="9.115041067612939"><ele>226.0</ele><time>2026-04-11T14:15:14.999Z</time></trkpt><trkpt lat="45.85611384574396" lon="9.115021340046393"><ele>226.0</ele><time>2026-04-11T14:15:15.999Z</time></trkpt><trkpt lat="45.85604840348913" lon="9.115006126775045"><ele>226.0</ele><time>2026-04-11T14:15:16.999Z</time></trkpt><trkpt lat="45.8559722494396" lon="9.114994252902868"><ele>225.99999999999997</ele><time>2026-04-11T14:15:18.999Z</time></trkpt><trkpt lat="45.85589441843592" lon="9.114993566390636"><ele>226.0</ele><time>2026-04-11T14:15:23.999Z</time></trkpt><trkpt lat="45.85581672346029" lon="9.1150012399243"><ele>227.60000000000002</ele><time>2026-04-11T14:15:25.999Z</time></trkpt><trkpt lat="45.85571973018044" lon="9.115011736975543"><ele>229.20000000000002</ele><time>2026-04-11T14:15:27.999Z</time></trkpt><trkpt lat="45.85559883538849" lon="9.114953921794463"><ele>230.79999999999998</ele><time>2026-04-11T14:15:29.999Z</time></trkpt><trkpt lat="45.855539502205836" lon="9.114904048977708"><ele>232.39999999999998</ele><time>2026-04-11T14:15:30.999Z</time></trkpt><trkpt lat="45.85547032656468" lon="9.114854759913147"><ele>234.0</ele><time>2026-04-11T14:15:31.999Z</time></trkpt><trkpt lat="45.85539566078659" lon="9.114801559053863"><ele>231.6</ele><time>2026-04-11T14:15:32.998Z</time></trkpt><trkpt lat="45.85531234668658" lon="9.114742196062194"><ele>229.2</ele><time>2026-04-11T14:15:33.998Z</time></trkpt><trkpt lat="45.85521843312201" lon="9.114701429849788"><ele>226.79999999999998</ele><time>2026-04-11T14:15:34.998Z</time></trkpt><trkpt lat="45.85512970145519" lon="9.114634867692432"><ele>224.39999999999998</ele><time>2026-04-11T14:15:35.998Z</time></trkpt><trkpt lat="45.855037373793145" lon="9.11457006036366"><ele>222.0</ele><time>2026-04-11T14:15:36.998Z</time></trkpt><trkpt lat="45.854939079392665" lon="9.11451412193617"><ele>222.0</ele><time>2026-04-11T14:15:37.998Z</time></trkpt><trkpt lat="45.854838977493586" lon="9.114479518265467"><ele>222.0</ele><time>2026-04-11T14:15:38.998Z</time></trkpt><trkpt lat="45.85473821279521" lon="9.11446355737789"><ele>222.0</ele><time>2026-04-11T14:15:39.998Z</time></trkpt><trkpt lat="45.85463565124051" lon="9.114455519418689"><ele>222.0</ele><time>2026-04-11T14:15:40.998Z</time></trkpt><trkpt lat="45.854528540299334" lon="9.114466187299358"><ele>222.0</ele><time>2026-04-11T14:15:41.998Z</time></trkpt><trkpt lat="45.85440772077397" lon="9.11447468391995"><ele>236.66666666666669</ele><time>2026-04-11T14:15:42.998Z</time></trkpt><trkpt lat="45.85427970186811" lon="9.114509822975071"><ele>251.33333333333334</ele><time>2026-04-11T14:15:43.998Z</time></trkpt><trkpt lat="45.854119346963216" lon="9.114557681584804"><ele>266.0</ele><time>2026-04-11T14:15:45Z</time></trkpt><trkpt lat="45.85394162845124" lon="9.114611886909278"><ele>266.0</ele><time>2026-04-11T14:15:46Z</time></trkpt><trkpt lat="45.85378399954353" lon="9.114658444274946"><ele>266.0</ele><time>2026-04-11T14:15:47Z</time></trkpt><trkpt lat="45.85361936753733" lon="9.114670255601965"><ele>266.0</ele><time>2026-04-11T14:15:48Z</time></trkpt><trkpt lat="45.85348942079602" lon="9.114687256105032"><ele>278.33333333333337</ele><time>2026-04-11T14:15:49Z</time></trkpt><trkpt lat="45.85337748085326" lon="9.114699810439529"><ele>290.6666666666667</ele><time>2026-04-11T14:15:50.066Z</time></trkpt><trkpt lat="45.85328156137097" lon="9.11471635830566"><ele>303.0</ele><time>2026-04-11T14:15:52.061Z</time></trkpt><trkpt lat="45.85163034078586" lon="9.11439178802451"><ele>321.0</ele><time>2026-04-11T14:15:55.933Z</time></trkpt><trkpt lat="45.8512215300419" lon="9.114123376808793"><ele>322.0</ele><time>2026-04-11T14:15:56.933Z</time></trkpt><trkpt lat="45.850849909821704" lon="9.113763991145074"><ele>323.0</ele><time>2026-04-11T14:15:57.933Z</time></trkpt><trkpt lat="45.85055319816818" lon="9.11328324405482"><ele>302.5</ele><time>2026-04-11T14:15:58.933Z</time></trkpt><trkpt lat="45.85035714668286" lon="9.112705697666321"><ele>282.0</ele><time>2026-04-11T14:15:59.933Z</time></trkpt><trkpt lat="45.8502277034076" lon="9.112089148553418"><ele>219.0</ele><time>2026-04-11T14:16:00.934Z</time></trkpt><trkpt lat="45.849942839530115" lon="9.110671882713172"><ele>219.0</ele><time>2026-04-11T14:16:25.999Z</time></trkpt><trkpt lat="45.84981861423684" lon="9.110627025909176"><ele>219.0</ele><time>2026-04-11T14:16:26.999Z</time></trkpt><trkpt lat="45.849701219613095" lon="9.110512723196537"><ele>219.0</ele><time>2026-04-11T14:16:27.999Z</time></trkpt><trkpt lat="45.84960298615227" lon="9.110357368197961"><ele>219.0</ele><time>2026-04-11T14:16:28.999Z</time></trkpt><trkpt lat="45.84949694086099" lon="9.110266333267813"><ele>219.0</ele><time>2026-04-11T14:16:29.999Z</time></trkpt><trkpt lat="45.84941445121626" lon="9.110196361455275"><ele>219.0</ele><time>2026-04-11T14:16:30.999Z</time></trkpt><trkpt lat="45.849342363135285" lon="9.110133328077433"><ele>219.0</ele><time>2026-04-11T14:16:31.999Z</time></trkpt><trkpt lat="45.849276335478265" lon="9.110093674436675"><ele>219.0</ele><time>2026-04-11T14:16:32.999Z</time></trkpt><trkpt lat="45.849223597983645" lon="9.110002534215191"><ele>219.0</ele><time>2026-04-11T14:16:33.999Z</time></trkpt><trkpt lat="45.849161826164845" lon="9.109914175289907"><ele>219.0</ele><time>2026-04-11T14:16:34.999Z</time></trkpt><trkpt lat="45.8490882725275" lon="9.109794753460427"><ele>224.0</ele><time>2026-04-11T14:16:35.999Z</time></trkpt><trkpt lat="45.84899312368077" lon="9.109636459980772"><ele>229.0</ele><time>2026-04-11T14:16:36.999Z</time></trkpt><trkpt lat="45.84887415113809" lon="9.109435755983"><ele>234.0</ele><time>2026-04-11T14:16:37.999Z</time></trkpt><trkpt lat="45.84874624239572" lon="9.109220208145178"><ele>229.66666666666669</ele><time>2026-04-11T14:16:38.999Z</time></trkpt><trkpt lat="45.84865845624463" lon="9.108954376894438"><ele>225.33333333333334</ele><time>2026-04-11T14:16:39.999Z</time></trkpt><trkpt lat="45.848571039803595" lon="9.108681184637735"><ele>221.0</ele><time>2026-04-11T14:16:40.999Z</time></trkpt><trkpt lat="45.848481665873244" lon="9.10841395549294"><ele>228.0</ele><time>2026-04-11T14:16:41.999Z</time></trkpt><trkpt lat="45.84839928532856" lon="9.108166099696927"><ele>235.0</ele><time>2026-04-11T14:16:42.999Z</time></trkpt><trkpt lat="45.8483152149691" lon="9.107940512676228"><ele>242.0</ele><time>2026-04-11T14:16:43.999Z</time></trkpt><trkpt lat="45.8482166209736" lon="9.107750608754154"><ele>242.0</ele><time>2026-04-11T14:16:44.999Z</time></trkpt><trkpt lat="45.84810652156935" lon="9.107590015171189"><ele>242.0</ele><time>2026-04-11T14:16:45.999Z</time></trkpt><trkpt lat="45.84799902849981" lon="9.107441343208365"><ele>242.0</ele><time>2026-04-11T14:16:46.999Z</time></trkpt><trkpt lat="45.84789673485436" lon="9.107298335183925"><ele>242.0</ele><time>2026-04-11T14:16:47.999Z</time></trkpt><trkpt lat="45.84777711450434" lon="9.107196600491543"><ele>239.75</ele><time>2026-04-11T14:16:48.999Z</time></trkpt><trkpt lat="45.847638510187764" lon="9.107175114509102"><ele>237.5</ele><time>2026-04-11T14:16:49.999Z</time></trkpt><trkpt lat="45.84748670735669" lon="9.107143415624336"><ele>235.25</ele><time>2026-04-11T14:16:50.999Z</time></trkpt><trkpt lat="45.84735068105668" lon="9.10706440740933"><ele>233.0</ele><time>2026-04-11T14:16:51.999Z</time></trkpt><trkpt lat="45.847228778490404" lon="9.10695877534018"><ele>233.0</ele><time>2026-04-11T14:16:52.999Z</time></trkpt><trkpt lat="45.84710401592637" lon="9.10688502276769"><ele>233.0</ele><time>2026-04-11T14:16:53.999Z</time></trkpt><trkpt lat="45.846983070298414" lon="9.106820512734812"><ele>233.0</ele><time>2026-04-11T14:16:54.999Z</time></trkpt><trkpt lat="45.84685268655022" lon="9.106816639914358"><ele>233.0</ele><time>2026-04-11T14:16:55.999Z</time></trkpt><trkpt lat="45.84673394019525" lon="9.10681347628294"><ele>235.60000000000002</ele><time>2026-04-11T14:16:56.999Z</time></trkpt><trkpt lat="45.84661990760136" lon="9.106784909721089"><ele>238.20000000000002</ele><time>2026-04-11T14:16:57.999Z</time></trkpt><trkpt lat="45.84651731756143" lon="9.106711515233332"><ele>240.8</ele><time>2026-04-11T14:16:58.999Z</time></trkpt><trkpt lat="45.84642144789785" lon="9.106626747168457"><ele>243.4</ele><time>2026-04-11T14:16:59.999Z</time></trkpt><trkpt lat="45.84633373993225" lon="9.10654332765059"><ele>246.0</ele><time>2026-04-11T14:17:00.999Z</time></trkpt><trkpt lat="45.84623764982189" lon="9.106492869956373"><ele>239.75</ele><time>2026-04-11T14:17:01.999Z</time></trkpt><trkpt lat="45.846140748420616" lon="9.106444228543133"><ele>233.5</ele><time>2026-04-11T14:17:02.999Z</time></trkpt><trkpt lat="45.846026133303695" lon="9.106435667971866"><ele>227.25</ele><time>2026-04-11T14:17:03.999Z</time></trkpt><trkpt lat="45.845910355483674" lon="9.106450597292156"><ele>221.0</ele><time>2026-04-11T14:17:04.999Z</time></trkpt><trkpt lat="45.84578905858792" lon="9.106471076794996"><ele>221.0</ele><time>2026-04-11T14:17:05.999Z</time></trkpt><trkpt lat="45.84566890635267" lon="9.106482115376707"><ele>221.0</ele><time>2026-04-11T14:17:06.999Z</time></trkpt><trkpt lat="45.845551895437424" lon="9.106476648701017"><ele>221.0</ele><time>2026-04-11T14:17:07.999Z</time></trkpt><trkpt lat="45.84545870638531" lon="9.10637032319551"><ele>221.0</ele><time>2026-04-11T14:17:08.999Z</time></trkpt><trkpt lat="45.84535428632485" lon="9.106300685241033"><ele>221.0</ele><time>2026-04-11T14:17:09.999Z</time></trkpt><trkpt lat="45.84524461785303" lon="9.106226568550413"><ele>221.0</ele><time>2026-04-11T14:17:10.999Z</time></trkpt><trkpt lat="45.845139041717246" lon="9.106173661434147"><ele>221.0</ele><time>2026-04-11T14:17:11.999Z</time></trkpt><trkpt lat="45.84502356417843" lon="9.106157784291398"><ele>221.0</ele><time>2026-04-11T14:17:12.999Z</time></trkpt><trkpt lat="45.844907306752894" lon="9.10615130628842"><ele>222.60000000000002</ele><time>2026-04-11T14:17:13.999Z</time></trkpt><trkpt lat="45.84479559094688" lon="9.106156041374948"><ele>224.20000000000002</ele><time>2026-04-11T14:17:14.999Z</time></trkpt><trkpt lat="45.84469521156148" lon="9.106122817158438"><ele>225.79999999999998</ele><time>2026-04-11T14:17:15.999Z</time></trkpt><trkpt lat="45.84459814101297" lon="9.106086842595836"><ele>227.39999999999998</ele><time>2026-04-11T14:17:16.999Z</time></trkpt><trkpt lat="45.844497118695614" lon="9.106031038782113"><ele>229.0</ele><time>2026-04-11T14:17:17.999Z</time></trkpt><trkpt lat="45.84439488749496" lon="9.105945530845226"><ele>226.0</ele><time>2026-04-11T14:17:18.999Z</time></trkpt><trkpt lat="45.844281808496326" lon="9.105842131208755"><ele>223.0</ele><time>2026-04-11T14:17:19.999Z</time></trkpt><trkpt lat="45.844139779735315" lon="9.105710540748456"><ele>220.0</ele><time>2026-04-11T14:17:20.999Z</time></trkpt><trkpt lat="45.843981476729816" lon="9.105564480954405"><ele>220.0</ele><time>2026-04-11T14:17:21.999Z</time></trkpt><trkpt lat="45.84381426040506" lon="9.105418159915901"><ele>220.0</ele><time>2026-04-11T14:17:22.999Z</time></trkpt><trkpt lat="45.84363479630625" lon="9.105275560400093"><ele>220.0</ele><time>2026-04-11T14:17:23.999Z</time></trkpt><trkpt lat="45.843463518515776" lon="9.105148159487234"><ele>219.33333333333331</ele><time>2026-04-11T14:17:24.999Z</time></trkpt><trkpt lat="45.84328979558416" lon="9.105020191372384"><ele>218.66666666666669</ele><time>2026-04-11T14:17:25.999Z</time></trkpt><trkpt lat="45.84312089636573" lon="9.104891609930894"><ele>218.0</ele><time>2026-04-11T14:17:26.998Z</time></trkpt><trkpt lat="45.842968898070986" lon="9.104769126573421"><ele>218.0</ele><time>2026-04-11T14:17:27.998Z</time></trkpt><trkpt lat="45.84284047982234" lon="9.104633892862585"><ele>218.0</ele><time>2026-04-11T14:17:28.998Z</time></trkpt><trkpt lat="45.842712531534865" lon="9.104557264486749"><ele>218.0</ele><time>2026-04-11T14:17:29.998Z</time></trkpt><trkpt lat="45.84257563232997" lon="9.104520037094904"><ele>218.0</ele><time>2026-04-11T14:17:30.998Z</time></trkpt><trkpt lat="45.842420826213065" lon="9.104543972422647"><ele>224.33333333333334</ele><time>2026-04-11T14:17:31.998Z</time></trkpt><trkpt lat="45.84226284902109" lon="9.104514155060368"><ele>230.66666666666669</ele><time>2026-04-11T14:17:32.998Z</time></trkpt><trkpt lat="45.842107097629686" lon="9.104483313472304"><ele>237.0</ele><time>2026-04-11T14:17:33.998Z</time></trkpt><trkpt lat="45.841958902895854" lon="9.10444575243047"><ele>237.0</ele><time>2026-04-11T14:17:34.998Z</time></trkpt><trkpt lat="45.841819592312994" lon="9.104392485728157"><ele>237.0</ele><time>2026-04-11T14:17:35.998Z</time></trkpt><trkpt lat="45.84168423748223" lon="9.104304832244564"><ele>237.0</ele><time>2026-04-11T14:17:36.998Z</time></trkpt><trkpt lat="45.84155008678321" lon="9.104219860937063"><ele>237.0</ele><time>2026-04-11T14:17:37.998Z</time></trkpt><trkpt lat="45.84143001078354" lon="9.104205465453212"><ele>238.5</ele><time>2026-04-11T14:17:38.998Z</time></trkpt><trkpt lat="45.841318057436794" lon="9.104240095090619"><ele>240.0</ele><time>2026-04-11T14:17:39.998Z</time></trkpt><trkpt lat="45.84119302573081" lon="9.104267591945122"><ele>241.5</ele><time>2026-04-11T14:17:40.998Z</time></trkpt><trkpt lat="45.84105361860456" lon="9.104286316155951"><ele>243.0</ele><time>2026-04-11T14:17:41.998Z</time></trkpt><trkpt lat="45.84092731255295" lon="9.104278845367705"><ele>246.5</ele><time>2026-04-11T14:17:42.998Z</time></trkpt><trkpt lat="45.840828664434625" lon="9.104229838858084"><ele>250.0</ele><time>2026-04-11T14:17:43.998Z</time></trkpt><trkpt lat="45.840747275871" lon="9.1041326422754"><ele>253.5</ele><time>2026-04-11T14:17:44.998Z</time></trkpt><trkpt lat="45.8406383336464" lon="9.104007692638412"><ele>257.0</ele><time>2026-04-11T14:17:45.998Z</time></trkpt><trkpt lat="45.84052664179646" lon="9.103905426633851"><ele>252.2</ele><time>2026-04-11T14:17:46.998Z</time></trkpt><trkpt lat="45.84040386120392" lon="9.10386059970089"><ele>247.39999999999998</ele><time>2026-04-11T14:17:47.998Z</time></trkpt><trkpt lat="45.84031422453212" lon="9.103842617464263"><ele>242.60000000000002</ele><time>2026-04-11T14:17:48.998Z</time></trkpt><trkpt lat="45.84024047058033" lon="9.103860077652008"><ele>237.8</ele><time>2026-04-11T14:17:50Z</time></trkpt><trkpt lat="45.84015951545324" lon="9.103894394868314"><ele>233.0</ele><time>2026-04-11T14:17:51Z</time></trkpt><trkpt lat="45.84007533826698" lon="9.103923061063734"><ele>233.0</ele><time>2026-04-11T14:17:52Z</time></trkpt><trkpt lat="45.83997440081568" lon="9.103950575211694"><ele>233.0</ele><time>2026-04-11T14:17:53Z</time></trkpt><trkpt lat="45.83985983648859" lon="9.103962398361212"><ele>233.0</ele><time>2026-04-11T14:17:54Z</time></trkpt><trkpt lat="45.83974993937788" lon="9.103893663798198"><ele>233.0</ele><time>2026-04-11T14:17:55Z</time></trkpt><trkpt lat="45.8396525731925" lon="9.10379781276642"><ele>233.0</ele><time>2026-04-11T14:17:56Z</time></trkpt><trkpt lat="45.83956943767247" lon="9.10366400414314"><ele>233.0</ele><time>2026-04-11T14:17:57Z</time></trkpt><trkpt lat="45.83948246241833" lon="9.103526279368223"><ele>233.0</ele><time>2026-04-11T14:17:58Z</time></trkpt><trkpt lat="45.83938150531758" lon="9.103431954807283"><ele>233.0</ele><time>2026-04-11T14:17:59Z</time></trkpt><trkpt lat="45.83928302254982" lon="9.10334657502523"><ele>232.5</ele><time>2026-04-11T14:18:00Z</time></trkpt><trkpt lat="45.839161737429656" lon="9.103308906701239"><ele>232.0</ele><time>2026-04-11T14:18:01Z</time></trkpt><trkpt lat="45.83903864164464" lon="9.103307611489186"><ele>231.5</ele><time>2026-04-11T14:18:02Z</time></trkpt><trkpt lat="45.83891315434296" lon="9.103306844206688"><ele>231.0</ele><time>2026-04-11T14:18:03Z</time></trkpt><trkpt lat="45.838805516826405" lon="9.103229665134453"><ele>231.0</ele><time>2026-04-11T14:18:04Z</time></trkpt><trkpt lat="45.838721656640615" lon="9.103118138080255"><ele>231.0</ele><time>2026-04-11T14:18:05Z</time></trkpt><trkpt lat="45.83862084874481" lon="9.10300782732274"><ele>231.0</ele><time>2026-04-11T14:18:05.999Z</time></trkpt><trkpt lat="45.83851570925485" lon="9.102916869314345"><ele>231.0</ele><time>2026-04-11T14:18:06.999Z</time></trkpt><trkpt lat="45.83839660077453" lon="9.102881622785484"><ele>234.8</ele><time>2026-04-11T14:18:07.999Z</time></trkpt><trkpt lat="45.83829230546685" lon="9.102849366936404"><ele>238.60000000000002</ele><time>2026-04-11T14:18:08.999Z</time></trkpt><trkpt lat="45.838219076750626" lon="9.102790165020174"><ele>242.4</ele><time>2026-04-11T14:18:09.999Z</time></trkpt><trkpt lat="45.83817298336552" lon="9.102727002235339"><ele>246.2</ele><time>2026-04-11T14:18:10.999Z</time></trkpt><trkpt lat="45.83814701778859" lon="9.102569099685473"><ele>250.0</ele><time>2026-04-11T14:18:12.999Z</time></trkpt><trkpt lat="45.838065076926355" lon="9.102430496106988"><ele>245.0</ele><time>2026-04-11T14:18:13.999Z</time></trkpt><trkpt lat="45.83805947527164" lon="9.102257065222384"><ele>240.0</ele><time>2026-04-11T14:18:14.999Z</time></trkpt><trkpt lat="45.838023173737845" lon="9.102119554955795"><ele>235.0</ele><time>2026-04-11T14:18:15.999Z</time></trkpt><trkpt lat="45.83795513134158" lon="9.10202096751257"><ele>230.0</ele><time>2026-04-11T14:18:16.999Z</time></trkpt><trkpt lat="45.83785493996352" lon="9.101947493161962"><ele>225.0</ele><time>2026-04-11T14:18:17.999Z</time></trkpt><trkpt lat="45.83774624909976" lon="9.101920762859606"><ele>225.0</ele><time>2026-04-11T14:18:18.999Z</time></trkpt><trkpt lat="45.8376369779655" lon="9.101938582269753"><ele>225.0</ele><time>2026-04-11T14:18:19.999Z</time></trkpt><trkpt lat="45.83753219086871" lon="9.101994650138545"><ele>225.0</ele><time>2026-04-11T14:18:20.999Z</time></trkpt><trkpt lat="45.83741413189247" lon="9.102002923629005"><ele>225.0</ele><time>2026-04-11T14:18:21.999Z</time></trkpt><trkpt lat="45.837301768685286" lon="9.102029272812008"><ele>229.5</ele><time>2026-04-11T14:18:22.999Z</time></trkpt><trkpt lat="45.83718278686055" lon="9.102065678925616"><ele>234.0</ele><time>2026-04-11T14:18:23.999Z</time></trkpt><trkpt lat="45.83707369392598" lon="9.102019008700044"><ele>238.5</ele><time>2026-04-11T14:18:24.999Z</time></trkpt><trkpt lat="45.836974963455326" lon="9.101935688604788"><ele>243.0</ele><time>2026-04-11T14:18:25.999Z</time></trkpt><trkpt lat="45.83688416996305" lon="9.10182958730304"><ele>245.75</ele><time>2026-04-11T14:18:26.999Z</time></trkpt><trkpt lat="45.83678665470331" lon="9.10172092269836"><ele>248.5</ele><time>2026-04-11T14:18:27.999Z</time></trkpt><trkpt lat="45.83668202316371" lon="9.101634588800595"><ele>251.25</ele><time>2026-04-11T14:18:28.999Z</time></trkpt><trkpt lat="45.836583492202266" lon="9.10154210241494"><ele>254.0</ele><time>2026-04-11T14:18:29.999Z</time></trkpt><trkpt lat="45.836475976654626" lon="9.101477975562366"><ele>247.75</ele><time>2026-04-11T14:18:30.999Z</time></trkpt><trkpt lat="45.836365497523225" lon="9.101440669467403"><ele>241.5</ele><time>2026-04-11T14:18:31.999Z</time></trkpt><trkpt lat="45.836254117494" lon="9.10140509287838"><ele>235.25</ele><time>2026-04-11T14:18:32.999Z</time></trkpt><trkpt lat="45.836153344934296" lon="9.101325604970771"><ele>229.0</ele><time>2026-04-11T14:18:33.999Z</time></trkpt><trkpt lat="45.83606388556694" lon="9.101231064561427"><ele>229.0</ele><time>2026-04-11T14:18:34.999Z</time></trkpt><trkpt lat="45.83598896811501" lon="9.101119232741267"><ele>228.99999999999997</ele><time>2026-04-11T14:18:35.999Z</time></trkpt><trkpt lat="45.835947724596686" lon="9.100982088391754"><ele>228.99999999999997</ele><time>2026-04-11T14:18:36.999Z</time></trkpt><trkpt lat="45.835916244073424" lon="9.10084456287692"><ele>229.0</ele><time>2026-04-11T14:18:37.999Z</time></trkpt><trkpt lat="45.83589635363961" lon="9.100721901454031"><ele>229.0</ele><time>2026-04-11T14:18:38.999Z</time></trkpt><trkpt lat="45.83586362658267" lon="9.100595765797904"><ele>232.39999999999998</ele><time>2026-04-11T14:18:39.999Z</time></trkpt><trkpt lat="45.83584583238615" lon="9.100451508411782"><ele>235.79999999999998</ele><time>2026-04-11T14:18:40.999Z</time></trkpt><trkpt lat="45.83582012568332" lon="9.100300705902447"><ele>239.20000000000002</ele><time>2026-04-11T14:18:41.999Z</time></trkpt><trkpt lat="45.835788044565945" lon="9.10014507830559"><ele>242.60000000000002</ele><time>2026-04-11T14:18:42.999Z</time></trkpt><trkpt lat="45.83575003855137" lon="9.099989367225707"><ele>246.0</ele><time>2026-04-11T14:18:43.999Z</time></trkpt><trkpt lat="45.83572049355518" lon="9.09982130030206"><ele>246.0</ele><time>2026-04-11T14:18:44.999Z</time></trkpt><trkpt lat="45.83569698811423" lon="9.09964780061993"><ele>246.0</ele><time>2026-04-11T14:18:45.999Z</time></trkpt><trkpt lat="45.835664843375596" lon="9.099476109098617"><ele>246.0</ele><time>2026-04-11T14:18:46.999Z</time></trkpt><trkpt lat="45.83560503778149" lon="9.099314441905967"><ele>246.0</ele><time>2026-04-11T14:18:47.999Z</time></trkpt><trkpt lat="45.835519634108636" lon="9.099162713225054"><ele>243.5</ele><time>2026-04-11T14:18:48.999Z</time></trkpt><trkpt lat="45.835423462151496" lon="9.099017118978695"><ele>241.0</ele><time>2026-04-11T14:18:49.999Z</time></trkpt><trkpt lat="45.835331394761695" lon="9.098867778382319"><ele>238.5</ele><time>2026-04-11T14:18:50.999Z</time></trkpt><trkpt lat="45.83524280757097" lon="9.098720538867624"><ele>236.0</ele><time>2026-04-11T14:18:51.999Z</time></trkpt><trkpt lat="45.83516345801884" lon="9.098559333929291"><ele>241.25</ele><time>2026-04-11T14:18:52.999Z</time></trkpt><trkpt lat="45.835100471120136" lon="9.09838464659575"><ele>246.5</ele><time>2026-04-11T14:18:53.999Z</time></trkpt><trkpt lat="45.83505111466581" lon="9.098199429641825"><ele>251.75</ele><time>2026-04-11T14:18:54.999Z</time></trkpt><trkpt lat="45.83500177286271" lon="9.098018258231894"><ele>257.0</ele><time>2026-04-11T14:18:55.999Z</time></trkpt><trkpt lat="45.83494942552273" lon="9.097834825806132"><ele>257.0</ele><time>2026-04-11T14:18:56.999Z</time></trkpt><trkpt lat="45.83489852786548" lon="9.097652785629261"><ele>257.0</ele><time>2026-04-11T14:18:57.999Z</time></trkpt><trkpt lat="45.83483346159232" lon="9.097485921429115"><ele>257.0</ele><time>2026-04-11T14:18:58.999Z</time></trkpt><trkpt lat="45.8347434098294" lon="9.097341508154535"><ele>257.0</ele><time>2026-04-11T14:18:59.999Z</time></trkpt><trkpt lat="45.83463285952285" lon="9.097221272113721"><ele>261.0</ele><time>2026-04-11T14:19:00.999Z</time></trkpt><trkpt lat="45.834524392671995" lon="9.097099339366787"><ele>265.0</ele><time>2026-04-11T14:19:01.999Z</time></trkpt><trkpt lat="45.834410196468546" lon="9.096977726625722"><ele>269.0</ele><time>2026-04-11T14:19:02.999Z</time></trkpt><trkpt lat="45.83428309004999" lon="9.096869572023973"><ele>273.0</ele><time>2026-04-11T14:19:03.999Z</time></trkpt><trkpt lat="45.83414120087972" lon="9.096766656924753"><ele>273.0</ele><time>2026-04-11T14:19:04.999Z</time></trkpt><trkpt lat="45.833994760570896" lon="9.096661508526871"><ele>273.0</ele><time>2026-04-11T14:19:05.999Z</time></trkpt><trkpt lat="45.8338486156002" lon="9.096538664661411"><ele>273.0</ele><time>2026-04-11T14:19:06.999Z</time></trkpt><trkpt lat="45.8337086186722" lon="9.096417360513552"><ele>266.6666666666667</ele><time>2026-04-11T14:19:07.999Z</time></trkpt><trkpt lat="45.8335660019095" lon="9.096296838822576"><ele>260.33333333333337</ele><time>2026-04-11T14:19:08.999Z</time></trkpt><trkpt lat="45.833423781520494" lon="9.096167562182742"><ele>254.0</ele><time>2026-04-11T14:19:09.999Z</time></trkpt><trkpt lat="45.83326523788446" lon="9.096069440397608"><ele>254.0</ele><time>2026-04-11T14:19:11Z</time></trkpt><trkpt lat="45.833101500723565" lon="9.095993049554492"><ele>254.0</ele><time>2026-04-11T14:19:12Z</time></trkpt><trkpt lat="45.83295202848611" lon="9.095884827053633"><ele>254.0</ele><time>2026-04-11T14:19:13Z</time></trkpt><trkpt lat="45.83280115485189" lon="9.095764798802653"><ele>251.33333333333334</ele><time>2026-04-11T14:19:14Z</time></trkpt><trkpt lat="45.83264654443789" lon="9.095644711573412"><ele>248.66666666666669</ele><time>2026-04-11T14:19:15Z</time></trkpt><trkpt lat="45.832502118736905" lon="9.09552639169652"><ele>246.0</ele><time>2026-04-11T14:19:16Z</time></trkpt><trkpt lat="45.832356104740306" lon="9.095415295689357"><ele>246.0</ele><time>2026-04-11T14:19:17Z</time></trkpt><trkpt lat="45.83220168393957" lon="9.095283095026415"><ele>246.0</ele><time>2026-04-11T14:19:18Z</time></trkpt><trkpt lat="45.83203939089116" lon="9.095135585740698"><ele>246.0</ele><time>2026-04-11T14:19:19Z</time></trkpt><trkpt lat="45.8318965031955" lon="9.095031351349157"><ele>245.33333333333331</ele><time>2026-04-11T14:19:20Z</time></trkpt><trkpt lat="45.83174529214453" lon="9.094931160669846"><ele>244.66666666666666</ele><time>2026-04-11T14:19:21Z</time></trkpt><trkpt lat="45.83159788948929" lon="9.09482001477105"><ele>244.0</ele><time>2026-04-11T14:19:22Z</time></trkpt><trkpt lat="45.83143665985593" lon="9.094699285082452"><ele>244.0</ele><time>2026-04-11T14:19:23Z</time></trkpt><trkpt lat="45.83127766908743" lon="9.09455139956605"><ele>244.0</ele><time>2026-04-11T14:19:24Z</time></trkpt><trkpt lat="45.83112150583076" lon="9.094377786039402"><ele>244.0</ele><time>2026-04-11T14:19:25Z</time></trkpt><trkpt lat="45.83097060390122" lon="9.094200615701498"><ele>246.33333333333331</ele><time>2026-04-11T14:19:26Z</time></trkpt><trkpt lat="45.830798493124206" lon="9.094069450137207"><ele>248.66666666666669</ele><time>2026-04-11T14:19:27Z</time></trkpt><trkpt lat="45.83063159764626" lon="9.093931615185125"><ele>251.0</ele><time>2026-04-11T14:19:28Z</time></trkpt><trkpt lat="45.83042800049111" lon="9.093778575518506"><ele>251.0</ele><time>2026-04-11T14:19:29.046Z</time></trkpt><trkpt lat="45.83023884675211" lon="9.093672485482406"><ele>251.0</ele><time>2026-04-11T14:19:30.047Z</time></trkpt><trkpt lat="45.830049450134254" lon="9.093527535854651"><ele>251.0</ele><time>2026-04-11T14:19:31.047Z</time></trkpt><trkpt lat="45.829879756758906" lon="9.093409540890944"><ele>236.0</ele><time>2026-04-11T14:19:32.047Z</time></trkpt><trkpt lat="45.828492056469926" lon="9.0913854852007"><ele>236.0</ele><time>2026-04-11T14:19:35.932Z</time></trkpt><trkpt lat="45.82874249352005" lon="9.09113633407779"><ele>236.0</ele><time>2026-04-11T14:19:46.043Z</time></trkpt><trkpt lat="45.82863125352764" lon="9.090824560807928"><ele>220.0</ele><time>2026-04-11T14:19:48.478Z</time></trkpt><trkpt lat="45.828022964019766" lon="9.089482298464768"><ele>220.0</ele><time>2026-04-11T14:19:48.999Z</time></trkpt><trkpt lat="45.82795585501866" lon="9.089264419774228"><ele>220.0</ele><time>2026-04-11T14:19:49.999Z</time></trkpt><trkpt lat="45.82775158289912" lon="9.089090446539942"><ele>220.0</ele><time>2026-04-11T14:19:50.999Z</time></trkpt><trkpt lat="45.82754372909794" lon="9.08889839261848"><ele>227.66666666666666</ele><time>2026-04-11T14:19:51.999Z</time></trkpt><trkpt lat="45.82739084410572" lon="9.088695460919721"><ele>235.33333333333331</ele><time>2026-04-11T14:19:52.999Z</time></trkpt><trkpt lat="45.827276419020016" lon="9.088509298974882"><ele>243.0</ele><time>2026-04-11T14:19:53.999Z</time></trkpt><trkpt lat="45.82715498714559" lon="9.088314758039772"><ele>234.0</ele><time>2026-04-11T14:19:54.999Z</time></trkpt><trkpt lat="45.827051157117054" lon="9.088094470460891"><ele>225.0</ele><time>2026-04-11T14:19:56Z</time></trkpt><trkpt lat="45.826933498322724" lon="9.087885497295897"><ele>216.0</ele><time>2026-04-11T14:19:57Z</time></trkpt><trkpt lat="45.82681770522389" lon="9.087682647720499"><ele>225.66666666666669</ele><time>2026-04-11T14:19:58Z</time></trkpt><trkpt lat="45.8267145310202" lon="9.087476047989036"><ele>235.33333333333334</ele><time>2026-04-11T14:19:59Z</time></trkpt><trkpt lat="45.826637412239414" lon="9.08724644727989"><ele>245.0</ele><time>2026-04-11T14:20:00Z</time></trkpt><trkpt lat="45.82653730690346" lon="9.087037910179541"><ele>245.0</ele><time>2026-04-11T14:20:01Z</time></trkpt><trkpt lat="45.82645856708526" lon="9.086819685835257"><ele>245.0</ele><time>2026-04-11T14:20:02Z</time></trkpt><trkpt lat="45.82637606157395" lon="9.086600709405152"><ele>245.0</ele><time>2026-04-11T14:20:03Z</time></trkpt><trkpt lat="45.826294045207256" lon="9.086387463012434"><ele>240.33333333333334</ele><time>2026-04-11T14:20:04Z</time></trkpt><trkpt lat="45.82621907853205" lon="9.086171618212365"><ele>235.66666666666669</ele><time>2026-04-11T14:20:05Z</time></trkpt><trkpt lat="45.82616533836946" lon="9.08595367898785"><ele>231.0</ele><time>2026-04-11T14:20:06Z</time></trkpt><trkpt lat="45.82611849367944" lon="9.085757333070456"><ele>230.0</ele><time>2026-04-11T14:20:07Z</time></trkpt><trkpt lat="45.82611394381457" lon="9.085566118215706"><ele>229.0</ele><time>2026-04-11T14:20:08Z</time></trkpt><trkpt lat="45.82613969144739" lon="9.085369745553704"><ele>228.0</ele><time>2026-04-11T14:20:09Z</time></trkpt><trkpt lat="45.82616585680309" lon="9.085156048596238"><ele>227.0</ele><time>2026-04-11T14:20:10Z</time></trkpt><trkpt lat="45.826174670113765" lon="9.084932428408953"><ele>225.33333333333334</ele><time>2026-04-11T14:20:11Z</time></trkpt><trkpt lat="45.82618119040252" lon="9.084710574860225"><ele>223.66666666666669</ele><time>2026-04-11T14:20:12Z</time></trkpt><trkpt lat="45.826159696143186" lon="9.084487560594832"><ele>222.0</ele><time>2026-04-11T14:20:13Z</time></trkpt><trkpt lat="45.82612173526484" lon="9.084269324401433"><ele>218.33333333333331</ele><time>2026-04-11T14:20:14Z</time></trkpt><trkpt lat="45.82607111514573" lon="9.084055637126536"><ele>214.66666666666666</ele><time>2026-04-11T14:20:15Z</time></trkpt><trkpt lat="45.82602737412358" lon="9.08384045541586"><ele>211.0</ele><time>2026-04-11T14:20:16Z</time></trkpt><trkpt lat="45.825972351602736" lon="9.08362988819051"><ele>224.0</ele><time>2026-04-11T14:20:17Z</time></trkpt><trkpt lat="45.825940886599135" lon="9.083421206797132"><ele>237.0</ele><time>2026-04-11T14:20:18Z</time></trkpt><trkpt lat="45.825912108615086" lon="9.083190079417804"><ele>250.0</ele><time>2026-04-11T14:20:19Z</time></trkpt><trkpt lat="45.8258795357634" lon="9.082968821462035"><ele>250.0</ele><time>2026-04-11T14:20:20Z</time></trkpt><trkpt lat="45.825843660091884" lon="9.082743362158496"><ele>250.0</ele><time>2026-04-11T14:20:21Z</time></trkpt><trkpt lat="45.825776149368714" lon="9.082523386410852"><ele>250.0</ele><time>2026-04-11T14:20:22Z</time></trkpt><trkpt lat="45.825714498598856" lon="9.082300083758849"><ele>243.0</ele><time>2026-04-11T14:20:23Z</time></trkpt><trkpt lat="45.82564963814139" lon="9.082079411193892"><ele>236.0</ele><time>2026-04-11T14:20:24Z</time></trkpt><trkpt lat="45.825582600847845" lon="9.081860492103589"><ele>229.0</ele><time>2026-04-11T14:20:25Z</time></trkpt><trkpt lat="45.82550420996981" lon="9.081651281617809"><ele>224.0</ele><time>2026-04-11T14:20:26Z</time></trkpt><trkpt lat="45.82542034513295" lon="9.081434712636748"><ele>219.0</ele><time>2026-04-11T14:20:27Z</time></trkpt><trkpt lat="45.82529697726136" lon="9.081256445221813"><ele>214.0</ele><time>2026-04-11T14:20:28Z</time></trkpt><trkpt lat="45.82518645394453" lon="9.08107749010223"><ele>218.0</ele><time>2026-04-11T14:20:29Z</time></trkpt><trkpt lat="45.82511774220286" lon="9.080862618101552"><ele>222.0</ele><time>2026-04-11T14:20:30Z</time></trkpt><trkpt lat="45.8250499072913" lon="9.080638409053185"><ele>226.0</ele><time>2026-04-11T14:20:31Z</time></trkpt><trkpt lat="45.82494336215426" lon="9.08046233376831"><ele>226.0</ele><time>2026-04-11T14:20:32Z</time></trkpt><trkpt lat="45.824826356619525" lon="9.080310037913263"><ele>226.0</ele><time>2026-04-11T14:20:33Z</time></trkpt><trkpt lat="45.82468607627749" lon="9.08021006722666"><ele>226.0</ele><time>2026-04-11T14:20:34Z</time></trkpt><trkpt lat="45.82453805429561" lon="9.080136878614537"><ele>226.0</ele><time>2026-04-11T14:20:35Z</time></trkpt><trkpt lat="45.8243939337239" lon="9.080074052081038"><ele>226.0</ele><time>2026-04-11T14:20:36Z</time></trkpt><trkpt lat="45.824253886473464" lon="9.080001907927558"><ele>226.0</ele><time>2026-04-11T14:20:37Z</time></trkpt><trkpt lat="45.82413075569611" lon="9.079879742500106"><ele>226.0</ele><time>2026-04-11T14:20:38Z</time></trkpt><trkpt lat="45.82402913989318" lon="9.07973706154601"><ele>226.5</ele><time>2026-04-11T14:20:39Z</time></trkpt><trkpt lat="45.82392320182902" lon="9.079578986724323"><ele>227.0</ele><time>2026-04-11T14:20:40Z</time></trkpt><trkpt lat="45.823819199861646" lon="9.079427822885988"><ele>227.5</ele><time>2026-04-11T14:20:41Z</time></trkpt><trkpt lat="45.82373842892001" lon="9.079300135405495"><ele>228.0</ele><time>2026-04-11T14:20:42Z</time></trkpt><trkpt lat="45.82367647742648" lon="9.07917610642922"><ele>225.2</ele><time>2026-04-11T14:20:43Z</time></trkpt><trkpt lat="45.82360643477113" lon="9.079070165815477"><ele>222.4</ele><time>2026-04-11T14:20:44Z</time></trkpt><trkpt lat="45.823518312057104" lon="9.078987915946353"><ele>219.59999999999997</ele><time>2026-04-11T14:20:45Z</time></trkpt><trkpt lat="45.82341595020865" lon="9.078938575101779"><ele>216.79999999999998</ele><time>2026-04-11T14:20:46Z</time></trkpt><trkpt lat="45.82330785345871" lon="9.078908870044451"><ele>214.0</ele><time>2026-04-11T14:20:47Z</time></trkpt><trkpt lat="45.82319881164268" lon="9.078884494704992"><ele>214.0</ele><time>2026-04-11T14:20:48Z</time></trkpt><trkpt lat="45.82309526130795" lon="9.078866485620031"><ele>213.99999999999997</ele><time>2026-04-11T14:20:49Z</time></trkpt><trkpt lat="45.82299652499273" lon="9.078878004781544"><ele>213.99999999999997</ele><time>2026-04-11T14:20:50Z</time></trkpt><trkpt lat="45.822900240087" lon="9.078872484513056"><ele>214.0</ele><time>2026-04-11T14:20:51Z</time></trkpt><trkpt lat="45.822803615372756" lon="9.078876655246244"><ele>214.0</ele><time>2026-04-11T14:20:52Z</time></trkpt><trkpt lat="45.822703487876005" lon="9.078876787233483"><ele>213.39999999999998</ele><time>2026-04-11T14:20:53Z</time></trkpt><trkpt lat="45.82260410924639" lon="9.078873715904592"><ele>212.79999999999998</ele><time>2026-04-11T14:20:54Z</time></trkpt><trkpt lat="45.82250556044692" lon="9.0788714316472"><ele>212.2</ele><time>2026-04-11T14:20:55Z</time></trkpt><trkpt lat="45.82240764655161" lon="9.07887724319314"><ele>211.60000000000002</ele><time>2026-04-11T14:20:56Z</time></trkpt><trkpt lat="45.82231217947244" lon="9.07890014605935"><ele>211.0</ele><time>2026-04-11T14:20:57Z</time></trkpt><trkpt lat="45.82222331742992" lon="9.078947112972093"><ele>211.0</ele><time>2026-04-11T14:20:58Z</time></trkpt><trkpt lat="45.822145904139106" lon="9.079022683114554"><ele>211.0</ele><time>2026-04-11T14:20:59Z</time></trkpt><trkpt lat="45.82208609007567" lon="9.079110866722445"><ele>211.0</ele><time>2026-04-11T14:21:00Z</time></trkpt><trkpt lat="45.82203673861482" lon="9.079203229054402"><ele>211.0</ele><time>2026-04-11T14:21:02Z</time></trkpt><trkpt lat="45.82199425039298" lon="9.0792893199011"><ele>211.0</ele><time>2026-04-11T14:21:05Z</time></trkpt><trkpt lat="45.82192403410511" lon="9.079423185217399"><ele>212.33333333333331</ele><time>2026-04-11T14:21:07Z</time></trkpt><trkpt lat="45.82188148722289" lon="9.079500257765272"><ele>213.66666666666666</ele><time>2026-04-11T14:21:08Z</time></trkpt><trkpt lat="45.82182995160745" lon="9.079574816920609"><ele>215.0</ele><time>2026-04-11T14:21:09Z</time></trkpt><trkpt lat="45.82177170175956" lon="9.07964537367435"><ele>216.33333333333331</ele><time>2026-04-11T14:21:10Z</time></trkpt><trkpt lat="45.82170743057971" lon="9.079722142372903"><ele>217.66666666666666</ele><time>2026-04-11T14:21:11Z</time></trkpt><trkpt lat="45.821631355886225" lon="9.079793806089333"><ele>219.0</ele><time>2026-04-11T14:21:12Z</time></trkpt><trkpt lat="45.82155716534748" lon="9.079874253172914"><ele>225.6</ele><time>2026-04-11T14:21:13Z</time></trkpt><trkpt lat="45.821487805639705" lon="9.07997082716907"><ele>232.2</ele><time>2026-04-11T14:21:14Z</time></trkpt><trkpt lat="45.821425207136386" lon="9.08007558386952"><ele>238.79999999999998</ele><time>2026-04-11T14:21:15Z</time></trkpt><trkpt lat="45.82135634439949" lon="9.080174255007558"><ele>245.39999999999998</ele><time>2026-04-11T14:21:16Z</time></trkpt><trkpt lat="45.82128370594104" lon="9.080271972500215"><ele>252.0</ele><time>2026-04-11T14:21:17Z</time></trkpt><trkpt lat="45.82121402084957" lon="9.080366442351476"><ele>252.0</ele><time>2026-04-11T14:21:18Z</time></trkpt><trkpt lat="45.821151423946326" lon="9.080451046933856"><ele>252.0</ele><time>2026-04-11T14:21:19Z</time></trkpt><trkpt lat="45.82109543637233" lon="9.080529471920537"><ele>252.0</ele><time>2026-04-11T14:21:20Z</time></trkpt><trkpt lat="45.82104264261943" lon="9.080598607725769"><ele>252.0</ele><time>2026-04-11T14:21:21Z</time></trkpt><trkpt lat="45.82096489723305" lon="9.08068751732586"><ele>252.0</ele><time>2026-04-11T14:21:23Z</time></trkpt><trkpt lat="45.82091117799867" lon="9.080736844032447"><ele>252.0</ele><time>2026-04-11T14:21:27Z</time></trkpt><trkpt lat="45.820842624905" lon="9.08079041239794"><ele>250.5</ele><time>2026-04-11T14:21:31.999Z</time></trkpt><trkpt lat="45.82074043763171" lon="9.080887061421281"><ele>249.0</ele><time>2026-04-11T14:21:34.999Z</time></trkpt><trkpt lat="45.82067531940323" lon="9.080941319657287"><ele>247.5</ele><time>2026-04-11T14:21:35.999Z</time></trkpt><trkpt lat="45.82061233069954" lon="9.080996560785962"><ele>246.0</ele><time>2026-04-11T14:21:36.999Z</time></trkpt><trkpt lat="45.82053814317414" lon="9.08105908439977"><ele>244.5</ele><time>2026-04-11T14:21:37.999Z</time></trkpt><trkpt lat="45.82045676867843" lon="9.081109876460413"><ele>243.0</ele><time>2026-04-11T14:21:38.999Z</time></trkpt><trkpt lat="45.82037018519165" lon="9.08119164006558"><ele>243.0</ele><time>2026-04-11T14:21:39.999Z</time></trkpt><trkpt lat="45.82027166845696" lon="9.08124812522976"><ele>243.0</ele><time>2026-04-11T14:21:40.999Z</time></trkpt><trkpt lat="45.82017684593047" lon="9.081297293711847"><ele>243.0</ele><time>2026-04-11T14:21:41.999Z</time></trkpt><trkpt lat="45.82008388270473" lon="9.081344559892518"><ele>243.0</ele><time>2026-04-11T14:21:42.999Z</time></trkpt><trkpt lat="45.81999124542595" lon="9.081398680587105"><ele>243.0</ele><time>2026-04-11T14:21:43.999Z</time></trkpt><trkpt lat="45.81989516457856" lon="9.081455049275274"><ele>243.2</ele><time>2026-04-11T14:21:44.999Z</time></trkpt><trkpt lat="45.81980240603687" lon="9.08152816719195"><ele>243.4</ele><time>2026-04-11T14:21:45.999Z</time></trkpt><trkpt lat="45.819718925228706" lon="9.081599522769636"><ele>243.59999999999997</ele><time>2026-04-11T14:21:46.999Z</time></trkpt><trkpt lat="45.81961348220641" lon="9.081638183525762"><ele>243.79999999999998</ele><time>2026-04-11T14:21:47.999Z</time></trkpt><trkpt lat="45.819517714137106" lon="9.081693382765158"><ele>244.0</ele><time>2026-04-11T14:21:48.999Z</time></trkpt><trkpt lat="45.81942508760409" lon="9.08177849319308"><ele>244.0</ele><time>2026-04-11T14:21:49.999Z</time></trkpt><trkpt lat="45.819351528262125" lon="9.081830446790676"><ele>243.99999999999997</ele><time>2026-04-11T14:21:50.999Z</time></trkpt><trkpt lat="45.8192742518052" lon="9.081913156401326"><ele>243.99999999999997</ele><time>2026-04-11T14:21:51.999Z</time></trkpt><trkpt lat="45.81917361198685" lon="9.08199080977706"><ele>244.0</ele><time>2026-04-11T14:21:52.999Z</time></trkpt><trkpt lat="45.819097071888876" lon="9.08209313360877"><ele>244.0</ele><time>2026-04-11T14:21:53.999Z</time></trkpt><trkpt lat="45.8190271536641" lon="9.08219732824543"><ele>243.83333333333331</ele><time>2026-04-11T14:21:54.999Z</time></trkpt><trkpt lat="45.818963366600265" lon="9.082296264696529"><ele>243.66666666666666</ele><time>2026-04-11T14:21:55.999Z</time></trkpt><trkpt lat="45.81892243295203" lon="9.082405385171592"><ele>243.5</ele><time>2026-04-11T14:21:56.999Z</time></trkpt><trkpt lat="45.81887107116308" lon="9.082484089538184"><ele>243.33333333333331</ele><time>2026-04-11T14:21:57.999Z</time></trkpt><trkpt lat="45.818825401278495" lon="9.08255424644224"><ele>243.16666666666666</ele><time>2026-04-11T14:21:58.999Z</time></trkpt><trkpt lat="45.81878151729554" lon="9.082631306797818"><ele>243.0</ele><time>2026-04-11T14:21:59.999Z</time></trkpt><trkpt lat="45.81873746182255" lon="9.082713849710608"><ele>243.0</ele><time>2026-04-11T14:22:01Z</time></trkpt><trkpt lat="45.81868776130273" lon="9.082806904774998"><ele>243.0</ele><time>2026-04-11T14:22:02Z</time></trkpt><trkpt lat="45.81862476192324" lon="9.08289443054098"><ele>243.0</ele><time>2026-04-11T14:22:03Z</time></trkpt><trkpt lat="45.818546026308276" lon="9.082981454852096"><ele>243.0</ele><time>2026-04-11T14:22:04Z</time></trkpt><trkpt lat="45.81844006261979" lon="9.083042097098895"><ele>243.0</ele><time>2026-04-11T14:22:05Z</time></trkpt><trkpt lat="45.81833058947805" lon="9.083129450926933"><ele>239.75</ele><time>2026-04-11T14:22:06Z</time></trkpt><trkpt lat="45.81822783224784" lon="9.083214268541491"><ele>236.5</ele><time>2026-04-11T14:22:07Z</time></trkpt><trkpt lat="45.818130681581906" lon="9.083297175693367"><ele>233.25</ele><time>2026-04-11T14:22:08Z</time></trkpt><trkpt lat="45.81803206528263" lon="9.083390061781994"><ele>230.0</ele><time>2026-04-11T14:22:09Z</time></trkpt><trkpt lat="45.81793350326239" lon="9.083492571383461"><ele>230.0</ele><time>2026-04-11T14:22:10Z</time></trkpt><trkpt lat="45.817829359164506" lon="9.083593837812504"><ele>230.0</ele><time>2026-04-11T14:22:11Z</time></trkpt><trkpt lat="45.817719686311754" lon="9.08369030033602"><ele>230.0</ele><time>2026-04-11T14:22:12Z</time></trkpt><trkpt lat="45.817609496802845" lon="9.083785001843383"><ele>230.0</ele><time>2026-04-11T14:22:13Z</time></trkpt><trkpt lat="45.81749927538333" lon="9.083877325770635"><ele>228.75</ele><time>2026-04-11T14:22:14Z</time></trkpt><trkpt lat="45.817392457947555" lon="9.0839637578372"><ele>227.5</ele><time>2026-04-11T14:22:15Z</time></trkpt><trkpt lat="45.81729717771673" lon="9.084062130297996"><ele>226.25</ele><time>2026-04-11T14:22:16Z</time></trkpt><trkpt lat="45.817191964290615" lon="9.084128082874743"><ele>225.0</ele><time>2026-04-11T14:22:17Z</time></trkpt><trkpt lat="45.81708551354537" lon="9.084177662847434"><ele>225.0</ele><time>2026-04-11T14:22:18Z</time></trkpt><trkpt lat="45.81698083335506" lon="9.08422976858015"><ele>225.0</ele><time>2026-04-11T14:22:19Z</time></trkpt><trkpt lat="45.81688202737465" lon="9.084278261848333"><ele>225.0</ele><time>2026-04-11T14:22:20Z</time></trkpt><trkpt lat="45.81677673553798" lon="9.084303841999906"><ele>225.0</ele><time>2026-04-11T14:22:21Z</time></trkpt><trkpt lat="45.81667149757133" lon="9.084353860034021"><ele>225.0</ele><time>2026-04-11T14:22:22Z</time></trkpt><trkpt lat="45.81656969571147" lon="9.084426960575744"><ele>222.83333333333334</ele><time>2026-04-11T14:22:23Z</time></trkpt><trkpt lat="45.81646828652424" lon="9.084468192912384"><ele>220.66666666666669</ele><time>2026-04-11T14:22:24Z</time></trkpt><trkpt lat="45.81638225771889" lon="9.084508278704597"><ele>218.5</ele><time>2026-04-11T14:22:25Z</time></trkpt><trkpt lat="45.81630549710791" lon="9.08454860225738"><ele>216.33333333333334</ele><time>2026-04-11T14:22:26Z</time></trkpt><trkpt lat="45.81624582506159" lon="9.084578034229496"><ele>214.16666666666669</ele><time>2026-04-11T14:22:27Z</time></trkpt><trkpt lat="45.81616603018646" lon="9.084617525636116"><ele>212.0</ele><time>2026-04-11T14:22:29Z</time></trkpt><trkpt lat="45.816081274189244" lon="9.084649659929774"><ele>212.00000000000003</ele><time>2026-04-11T14:22:31Z</time></trkpt><trkpt lat="45.81601371735118" lon="9.084641354905678"><ele>212.0</ele><time>2026-04-11T14:22:32Z</time></trkpt><trkpt lat="45.8159366046865" lon="9.084612039562087"><ele>212.0</ele><time>2026-04-11T14:22:33Z</time></trkpt><trkpt lat="45.815855135737095" lon="9.084579786267858"><ele>212.0</ele><time>2026-04-11T14:22:34Z</time></trkpt><trkpt lat="45.8157724568176" lon="9.08455128151366"><ele>212.00000000000003</ele><time>2026-04-11T14:22:35Z</time></trkpt><trkpt lat="45.81569098359294" lon="9.084532670941675"><ele>212.0</ele><time>2026-04-11T14:22:36Z</time></trkpt><trkpt lat="45.81561908591351" lon="9.084498355759683"><ele>211.66666666666669</ele><time>2026-04-11T14:22:37Z</time></trkpt><trkpt lat="45.81554504180311" lon="9.084525422188655"><ele>211.33333333333334</ele><time>2026-04-11T14:22:38Z</time></trkpt><trkpt lat="45.81547751734827" lon="9.084519684846457"><ele>211.0</ele><time>2026-04-11T14:22:39Z</time></trkpt><trkpt lat="45.81541022805446" lon="9.084492282058132"><ele>210.66666666666669</ele><time>2026-04-11T14:22:40Z</time></trkpt><trkpt lat="45.815352255268834" lon="9.084452024782953"><ele>210.33333333333334</ele><time>2026-04-11T14:22:41Z</time></trkpt><trkpt lat="45.81527418327254" lon="9.084373794377393"><ele>210.0</ele><time>2026-04-11T14:22:43Z</time></trkpt><trkpt lat="45.815214092181286" lon="9.084304409852315"><ele>209.33333333333334</ele><time>2026-04-11T14:22:45Z</time></trkpt><trkpt lat="45.81514743660111" lon="9.084232594326632"><ele>208.66666666666669</ele><time>2026-04-11T14:22:48Z</time></trkpt><trkpt lat="45.81507553761891" lon="9.084149782309634"><ele>208.0</ele><time>2026-04-11T14:22:51Z</time></trkpt><trkpt lat="45.81500728808603" lon="9.08408306385348"><ele>207.33333333333334</ele><time>2026-04-11T14:22:53Z</time></trkpt><trkpt lat="45.814935672107815" lon="9.083998224677188"><ele>206.66666666666669</ele><time>2026-04-11T14:22:55Z</time></trkpt><trkpt lat="45.81488426136272" lon="9.083904057127425"><ele>206.0</ele><time>2026-04-11T14:22:57Z</time></trkpt><trkpt lat="45.814876523640685" lon="9.08380901237191"><ele>205.50000000000003</ele><time>2026-04-11T14:23:00Z</time></trkpt><trkpt lat="45.81487859086214" lon="9.083701600405007"><ele>205.0</ele><time>2026-04-11T14:23:02Z</time></trkpt><trkpt lat="45.81491018872608" lon="9.08356896085229"><ele>204.5</ele><time>2026-04-11T14:23:05Z</time></trkpt><trkpt lat="45.814961420474035" lon="9.08346547013113"><ele>204.0</ele><time>2026-04-11T14:23:07Z</time></trkpt><trkpt lat="45.81498707023138" lon="9.083336247324782"><ele>203.50000000000003</ele><time>2026-04-11T14:23:09Z</time></trkpt><trkpt lat="45.81493662301172" lon="9.083258632439108"><ele>203.0</ele><time>2026-04-11T14:23:10Z</time></trkpt><trkpt lat="45.81485556855494" lon="9.083121463180621"><ele>202.42857142857142</ele><time>2026-04-11T14:23:12Z</time></trkpt><trkpt lat="45.81481269643872" lon="9.083047080147702"><ele>201.85714285714286</ele><time>2026-04-11T14:23:13Z</time></trkpt><trkpt lat="45.814765961059166" lon="9.082977057173478"><ele>201.28571428571428</ele><time>2026-04-11T14:23:14Z</time></trkpt><trkpt lat="45.81472015105283" lon="9.082907624504342"><ele>200.71428571428572</ele><time>2026-04-11T14:23:15Z</time></trkpt><trkpt lat="45.81467632259443" lon="9.082836277057739"><ele>200.14285714285714</ele><time>2026-04-11T14:23:16Z</time></trkpt><trkpt lat="45.81463347933105" lon="9.082764824746157"><ele>199.57142857142856</ele><time>2026-04-11T14:23:17Z</time></trkpt><trkpt lat="45.814590649198" lon="9.082695021255251"><ele>199.0</ele><time>2026-04-11T14:23:18Z</time></trkpt><trkpt lat="45.81454857048404" lon="9.082626153621339"><ele>198.99999999999997</ele><time>2026-04-11T14:23:19Z</time></trkpt><trkpt lat="45.814475729809466" lon="9.082526981163356"><ele>199.0</ele><time>2026-04-11T14:23:21Z</time></trkpt><trkpt lat="45.814418030483395" lon="9.082439560965568"><ele>199.0</ele><time>2026-04-11T14:23:23Z</time></trkpt><trkpt lat="45.81434081575107" lon="9.082317936719265"><ele>199.0</ele><time>2026-04-11T14:23:25Z</time></trkpt><trkpt lat="45.81429533796456" lon="9.082251234288217"><ele>198.99999999999997</ele><time>2026-04-11T14:23:26Z</time></trkpt><trkpt lat="45.81424861801786" lon="9.08217522070685"><ele>199.0</ele><time>2026-04-11T14:23:27Z</time></trkpt><trkpt lat="45.814202016771844" lon="9.082100312989786"><ele>198.85714285714283</ele><time>2026-04-11T14:23:28Z</time></trkpt><trkpt lat="45.814154740848124" lon="9.082027418375596"><ele>198.71428571428572</ele><time>2026-04-11T14:23:29Z</time></trkpt><trkpt lat="45.81410685730057" lon="9.081950379735424"><ele>198.57142857142856</ele><time>2026-04-11T14:23:30Z</time></trkpt><trkpt lat="45.81405437318046" lon="9.081870409947864"><ele>198.42857142857142</ele><time>2026-04-11T14:23:31Z</time></trkpt><trkpt lat="45.814002506039955" lon="9.081790916957836"><ele>198.28571428571428</ele><time>2026-04-11T14:23:32Z</time></trkpt><trkpt lat="45.81395143347968" lon="9.081711311622074"><ele>198.14285714285714</ele><time>2026-04-11T14:23:32.999Z</time></trkpt><trkpt lat="45.81390106048109" lon="9.08162699615636"><ele>198.0</ele><time>2026-04-11T14:23:33.999Z</time></trkpt><trkpt lat="45.813849565793866" lon="9.081540288728094"><ele>198.0</ele><time>2026-04-11T14:23:34.999Z</time></trkpt><trkpt lat="45.81379993341247" lon="9.081462284342981"><ele>198.0</ele><time>2026-04-11T14:23:35.999Z</time></trkpt><trkpt lat="45.81372233632375" lon="9.08134897802307"><ele>198.0</ele><time>2026-04-11T14:23:37.999Z</time></trkpt><trkpt lat="45.81366449192946" lon="9.081265222194112"><ele>198.0</ele><time>2026-04-11T14:23:39.999Z</time></trkpt><trkpt lat="45.81360190761262" lon="9.08117953437007"><ele>198.0</ele><time>2026-04-11T14:24:03.999Z</time></trkpt><trkpt lat="45.81352370363052" lon="9.081048284630121"><ele>198.0</ele><time>2026-04-11T14:24:05.999Z</time></trkpt><trkpt lat="45.81346524909927" lon="9.08096758342972"><ele>198.0</ele><time>2026-04-11T14:24:07Z</time></trkpt><trkpt lat="45.81340591270676" lon="9.080873986941825"><ele>198.0</ele><time>2026-04-11T14:24:08Z</time></trkpt><trkpt lat="45.813343386455344" lon="9.080765110542773"><ele>198.0</ele><time>2026-04-11T14:24:09Z</time></trkpt><trkpt lat="45.813287751689685" lon="9.080649328658081"><ele>198.0</ele><time>2026-04-11T14:24:10Z</time></trkpt><trkpt lat="45.81324355131389" lon="9.08053663520585"><ele>198.0</ele><time>2026-04-11T14:24:11Z</time></trkpt><trkpt lat="45.81320709822488" lon="9.080415040019425"><ele>198.0</ele><time>2026-04-11T14:24:12Z</time></trkpt><trkpt lat="45.813180060056006" lon="9.080290216272784"><ele>198.0</ele><time>2026-04-11T14:24:13Z</time></trkpt><trkpt lat="45.81315523782259" lon="9.080163054669217"><ele>198.0</ele><time>2026-04-11T14:24:14Z</time></trkpt><trkpt lat="45.813127027856" lon="9.080036066899288"><ele>198.0</ele><time>2026-04-11T14:24:15Z</time></trkpt><trkpt lat="45.81310027977112" lon="9.07990853384299"><ele>197.16666666666666</ele><time>2026-04-11T14:24:16Z</time></trkpt><trkpt lat="45.81307380157904" lon="9.07978711907263"><ele>196.33333333333331</ele><time>2026-04-11T14:24:17Z</time></trkpt><trkpt lat="45.81305219773866" lon="9.079680161687714"><ele>195.5</ele><time>2026-04-11T14:24:18Z</time></trkpt><trkpt lat="45.81303850656247" lon="9.0795904351461"><ele>194.66666666666666</ele><time>2026-04-11T14:24:19Z</time></trkpt><trkpt lat="45.81302810690723" lon="9.079458890044947"><ele>193.83333333333331</ele><time>2026-04-11T14:24:21Z</time></trkpt><trkpt lat="45.81302197372009" lon="9.079306150585902"><ele>193.0</ele><time>2026-04-11T14:24:23Z</time></trkpt><trkpt lat="45.813049579826775" lon="9.079216799521278"><ele>192.99999999999997</ele><time>2026-04-11T14:24:24Z</time></trkpt><trkpt lat="45.813042150484065" lon="9.079106528449262"><ele>193.0</ele><time>2026-04-11T14:24:26Z</time></trkpt><trkpt lat="45.813033746311675" lon="9.0789892410126"><ele>193.0</ele><time>2026-04-11T14:24:29Z</time></trkpt><trkpt lat="45.81302488729681" lon="9.078875550273372"><ele>193.0</ele><time>2026-04-11T14:24:30Z</time></trkpt><trkpt lat="45.813014883125675" lon="9.078747163383282"><ele>192.99999999999997</ele><time>2026-04-11T14:24:31Z</time></trkpt><trkpt lat="45.813004267641496" lon="9.078610931375895"><ele>193.0</ele><time>2026-04-11T14:24:32Z</time></trkpt><trkpt lat="45.81299385458598" lon="9.078477297159287"><ele>193.8</ele><time>2026-04-11T14:24:33Z</time></trkpt><trkpt lat="45.81298395220219" lon="9.078345042490236"><ele>194.60000000000002</ele><time>2026-04-11T14:24:34Z</time></trkpt><trkpt lat="45.8129753938252" lon="9.078226167599574"><ele>195.39999999999998</ele><time>2026-04-11T14:24:35Z</time></trkpt><trkpt lat="45.81296856008138" lon="9.078131247783569"><ele>196.2</ele><time>2026-04-11T14:24:36Z</time></trkpt><trkpt lat="45.81295677020284" lon="9.07796748780942"><ele>197.0</ele><time>2026-04-11T14:24:38Z</time></trkpt><trkpt lat="45.812944358193185" lon="9.077801599587124"><ele>197.33333333333334</ele><time>2026-04-11T14:24:40Z</time></trkpt><trkpt lat="45.81293319307909" lon="9.07765993236806"><ele>197.66666666666669</ele><time>2026-04-11T14:24:42Z</time></trkpt><trkpt lat="45.81292487665186" lon="9.077554603841175"><ele>198.0</ele><time>2026-04-11T14:24:44Z</time></trkpt><trkpt lat="45.81291717099685" lon="9.077450708178942"><ele>198.33333333333331</ele><time>2026-04-11T14:25:00Z</time></trkpt><trkpt lat="45.812906868631345" lon="9.07730539782393"><ele>198.66666666666666</ele><time>2026-04-11T14:25:11Z</time></trkpt><trkpt lat="45.81289862066526" lon="9.077185121676711"><ele>199.0</ele><time>2026-04-11T14:25:14Z</time></trkpt><trkpt lat="45.8128904773986" lon="9.077066372321212"><ele>199.2</ele><time>2026-04-11T14:25:25Z</time></trkpt><trkpt lat="45.81288120212968" lon="9.076950806301467"><ele>199.39999999999998</ele><time>2026-04-11T14:25:28Z</time></trkpt><trkpt lat="45.81286998608038" lon="9.076813085878648"><ele>199.6</ele><time>2026-04-11T14:25:31Z</time></trkpt><trkpt lat="45.812860971280074" lon="9.07670239429389"><ele>199.8</ele><time>2026-04-11T14:25:33Z</time></trkpt><trkpt lat="45.81281356572745" lon="9.076524705226763"><ele>200.0</ele><time>2026-04-11T14:26:05.999Z</time></trkpt><trkpt lat="45.81280621734653" lon="9.076418513299144"><ele>200.83333333333334</ele><time>2026-04-11T14:26:06.999Z</time></trkpt><trkpt lat="45.81277811845973" lon="9.076277028313385"><ele>201.66666666666669</ele><time>2026-04-11T14:26:08.999Z</time></trkpt><trkpt lat="45.812683139799795" lon="9.076269372415789"><ele>202.5</ele><time>2026-04-11T14:26:10.999Z</time></trkpt><trkpt lat="45.8126024556138" lon="9.076264014786105"><ele>203.33333333333331</ele><time>2026-04-11T14:26:11.999Z</time></trkpt><trkpt lat="45.81253376090684" lon="9.076295805987742"><ele>204.16666666666666</ele><time>2026-04-11T14:26:13Z</time></trkpt><trkpt lat="45.81245394358327" lon="9.076332744612992"><ele>205.0</ele><time>2026-04-11T14:26:14Z</time></trkpt><trkpt lat="45.81236652892488" lon="9.076373354031507"><ele>205.0</ele><time>2026-04-11T14:26:15Z</time></trkpt><trkpt lat="45.81227200837994" lon="9.07641733614421"><ele>205.0</ele><time>2026-04-11T14:26:16Z</time></trkpt><trkpt lat="45.812182651227054" lon="9.076458649500001"><ele>205.0</ele><time>2026-04-11T14:26:17Z</time></trkpt><trkpt lat="45.81209647305772" lon="9.076498431756999"><ele>205.0</ele><time>2026-04-11T14:26:18Z</time></trkpt><trkpt lat="45.812008159906775" lon="9.07653919956297"><ele>205.0</ele><time>2026-04-11T14:26:19Z</time></trkpt><trkpt lat="45.81191877612787" lon="9.076580461606941"><ele>205.0</ele><time>2026-04-11T14:26:20Z</time></trkpt><trkpt lat="45.811831872925715" lon="9.076620578561023"><ele>205.0</ele><time>2026-04-11T14:26:21Z</time></trkpt><trkpt lat="45.81174381150036" lon="9.076661617046254"><ele>205.0</ele><time>2026-04-11T14:26:22Z</time></trkpt><trkpt lat="45.81165366670713" lon="9.076703661203654"><ele>205.0</ele><time>2026-04-11T14:26:23Z</time></trkpt><trkpt lat="45.811564034478856" lon="9.076745466307042"><ele>205.0</ele><time>2026-04-11T14:26:24Z</time></trkpt><trkpt lat="45.81147543300878" lon="9.076786790656776"><ele>205.2</ele><time>2026-04-11T14:26:25Z</time></trkpt><trkpt lat="45.8113841077923" lon="9.076829385371488"><ele>205.4</ele><time>2026-04-11T14:26:26Z</time></trkpt><trkpt lat="45.81128712760005" lon="9.076874617599884"><ele>205.60000000000002</ele><time>2026-04-11T14:26:27Z</time></trkpt><trkpt lat="45.811194669662854" lon="9.076917740653142"><ele>205.8</ele><time>2026-04-11T14:26:28Z</time></trkpt><trkpt lat="45.81110606890334" lon="9.076984043867043"><ele>206.0</ele><time>2026-04-11T14:26:29Z</time></trkpt><trkpt lat="45.81101458735987" lon="9.077021599143661"><ele>206.20000000000002</ele><time>2026-04-11T14:26:30Z</time></trkpt><trkpt lat="45.810923285905695" lon="9.077059940423984"><ele>206.4</ele><time>2026-04-11T14:26:31Z</time></trkpt><trkpt lat="45.810833339538945" lon="9.077098284507173"><ele>206.6</ele><time>2026-04-11T14:26:32Z</time></trkpt><trkpt lat="45.8107450859653" lon="9.07713905973352"><ele>206.8</ele><time>2026-04-11T14:26:33Z</time></trkpt><trkpt lat="45.81065934862656" lon="9.077181455257623"><ele>207.0</ele><time>2026-04-11T14:26:34Z</time></trkpt><trkpt lat="45.810573972807376" lon="9.077227639614966"><ele>207.0</ele><time>2026-04-11T14:26:35Z</time></trkpt><trkpt lat="45.81048338553962" lon="9.07725927911527"><ele>207.0</ele><time>2026-04-11T14:26:36Z</time></trkpt><trkpt lat="45.810408465971165" lon="9.077348470305973"><ele>207.0</ele><time>2026-04-11T14:26:37Z</time></trkpt><trkpt lat="45.81033203273664" lon="9.077422591356648"><ele>207.0</ele><time>2026-04-11T14:26:38Z</time></trkpt><trkpt lat="45.8102588872363" lon="9.077501704868446"><ele>207.0</ele><time>2026-04-11T14:26:39Z</time></trkpt><trkpt lat="45.81018240057746" lon="9.07757881174376"><ele>206.8</ele><time>2026-04-11T14:26:40Z</time></trkpt><trkpt lat="45.810105769135525" lon="9.077648106539218"><ele>206.6</ele><time>2026-04-11T14:26:41Z</time></trkpt><trkpt lat="45.81002963671185" lon="9.077723095019271"><ele>206.4</ele><time>2026-04-11T14:26:42Z</time></trkpt><trkpt lat="45.80995401569307" lon="9.077801927267481"><ele>206.20000000000002</ele><time>2026-04-11T14:26:43Z</time></trkpt><trkpt lat="45.80987962274371" lon="9.077886944557132"><ele>206.0</ele><time>2026-04-11T14:26:44Z</time></trkpt><trkpt lat="45.80980361787005" lon="9.077968842582687"><ele>206.0</ele><time>2026-04-11T14:26:45Z</time></trkpt><trkpt lat="45.8097270357152" lon="9.078049024090994"><ele>206.0</ele><time>2026-04-11T14:26:46Z</time></trkpt><trkpt lat="45.809651387307426" lon="9.078128793603483"><ele>206.0</ele><time>2026-04-11T14:26:47Z</time></trkpt><trkpt lat="45.80957620394709" lon="9.078208774037172"><ele>206.0</ele><time>2026-04-11T14:26:48Z</time></trkpt><trkpt lat="45.809500325113426" lon="9.07828475752817"><ele>206.0</ele><time>2026-04-11T14:26:49Z</time></trkpt><trkpt lat="45.80942566988816" lon="9.078360389760784"><ele>206.4</ele><time>2026-04-11T14:26:50Z</time></trkpt><trkpt lat="45.8093491285437" lon="9.078432453078953"><ele>206.8</ele><time>2026-04-11T14:26:51Z</time></trkpt><trkpt lat="45.80927801613818" lon="9.07851203243178"><ele>207.20000000000002</ele><time>2026-04-11T14:26:52Z</time></trkpt><trkpt lat="45.80920305534687" lon="9.078586410192315"><ele>207.60000000000002</ele><time>2026-04-11T14:26:53Z</time></trkpt><trkpt lat="45.809130198806244" lon="9.078660101498611"><ele>208.0</ele><time>2026-04-11T14:26:54Z</time></trkpt><trkpt lat="45.80905682991293" lon="9.078734389219562"><ele>208.2</ele><time>2026-04-11T14:26:55Z</time></trkpt><trkpt lat="45.80898389693933" lon="9.078807748198049"><ele>208.4</ele><time>2026-04-11T14:26:56Z</time></trkpt><trkpt lat="45.80890851696318" lon="9.078881037245266"><ele>208.6</ele><time>2026-04-11T14:26:57Z</time></trkpt><trkpt lat="45.808834503663135" lon="9.078962645723662"><ele>208.79999999999998</ele><time>2026-04-11T14:26:58Z</time></trkpt><trkpt lat="45.80875990718917" lon="9.079043313451935"><ele>209.0</ele><time>2026-04-11T14:26:59Z</time></trkpt><trkpt lat="45.808684486172574" lon="9.079120046424816"><ele>209.2</ele><time>2026-04-11T14:27:00Z</time></trkpt><trkpt lat="45.80860994467489" lon="9.079201594342365"><ele>209.39999999999998</ele><time>2026-04-11T14:27:01Z</time></trkpt><trkpt lat="45.80853366463554" lon="9.079280774072076"><ele>209.6</ele><time>2026-04-11T14:27:02Z</time></trkpt><trkpt lat="45.80845710679496" lon="9.07935895297952"><ele>209.8</ele><time>2026-04-11T14:27:03Z</time></trkpt><trkpt lat="45.80837950440612" lon="9.079437594319366"><ele>210.0</ele><time>2026-04-11T14:27:04Z</time></trkpt><trkpt lat="45.80830139685358" lon="9.07951814440405"><ele>209.4</ele><time>2026-04-11T14:27:05Z</time></trkpt><trkpt lat="45.80822331711218" lon="9.07959554771"><ele>208.8</ele><time>2026-04-11T14:27:06Z</time></trkpt><trkpt lat="45.80814351319263" lon="9.079679185701865"><ele>208.2</ele><time>2026-04-11T14:27:07Z</time></trkpt><trkpt lat="45.80806471773567" lon="9.079758856114017"><ele>207.6</ele><time>2026-04-11T14:27:08Z</time></trkpt><trkpt lat="45.80798388619718" lon="9.079833215526861"><ele>207.0</ele><time>2026-04-11T14:27:09Z</time></trkpt><trkpt lat="45.80790356985065" lon="9.079912805541671"><ele>207.2</ele><time>2026-04-11T14:27:10Z</time></trkpt><trkpt lat="45.80782577796502" lon="9.079990043301898"><ele>207.39999999999998</ele><time>2026-04-11T14:27:11Z</time></trkpt><trkpt lat="45.80774850930052" lon="9.080072860318635"><ele>207.60000000000002</ele><time>2026-04-11T14:27:12Z</time></trkpt><trkpt lat="45.80767153887056" lon="9.080153770979537"><ele>207.8</ele><time>2026-04-11T14:27:13Z</time></trkpt><trkpt lat="45.807594504744195" lon="9.080233284208669"><ele>208.0</ele><time>2026-04-11T14:27:14Z</time></trkpt><trkpt lat="45.80751533147209" lon="9.0803104835176"><ele>207.33333333333331</ele><time>2026-04-11T14:27:15Z</time></trkpt><trkpt lat="45.80743947009422" lon="9.080390730564469"><ele>206.66666666666666</ele><time>2026-04-11T14:27:16Z</time></trkpt><trkpt lat="45.80736483909391" lon="9.080469333463439"><ele>206.0</ele><time>2026-04-11T14:27:17Z</time></trkpt><trkpt lat="45.80729458520714" lon="9.08054192944323"><ele>205.33333333333331</ele><time>2026-04-11T14:27:18Z</time></trkpt><trkpt lat="45.80722906332804" lon="9.080609364141752"><ele>204.66666666666666</ele><time>2026-04-11T14:27:19Z</time></trkpt><trkpt lat="45.80717041081867" lon="9.080665302642247"><ele>204.0</ele><time>2026-04-11T14:27:20Z</time></trkpt><trkpt lat="45.80711880384466" lon="9.080719292920206"><ele>204.5</ele><time>2026-04-11T14:27:21Z</time></trkpt><trkpt lat="45.8070417422184" lon="9.080808684025612"><ele>205.0</ele><time>2026-04-11T14:27:23Z</time></trkpt><trkpt lat="45.80699208299241" lon="9.080868181053964"><ele>205.5</ele><time>2026-04-11T14:27:25Z</time></trkpt><trkpt lat="45.806936466693045" lon="9.080919818173898"><ele>206.0</ele><time>2026-04-11T14:27:28Z</time></trkpt><trkpt lat="45.806836734516075" lon="9.081019151773004"><ele>206.5</ele><time>2026-04-11T14:27:30Z</time></trkpt><trkpt lat="45.80677705764438" lon="9.08107752899934"><ele>207.0</ele><time>2026-04-11T14:27:31Z</time></trkpt><trkpt lat="45.806709736633444" lon="9.081139712396212"><ele>207.0</ele><time>2026-04-11T14:27:32Z</time></trkpt><trkpt lat="45.80663603590189" lon="9.081205826372749"><ele>207.0</ele><time>2026-04-11T14:27:33Z</time></trkpt><trkpt lat="45.80655909902441" lon="9.081279845260033"><ele>207.0</ele><time>2026-04-11T14:27:34Z</time></trkpt><trkpt lat="45.806480789075884" lon="9.08135632271365"><ele>207.0</ele><time>2026-04-11T14:27:35Z</time></trkpt><trkpt lat="45.80640179617456" lon="9.081436751457494"><ele>207.0</ele><time>2026-04-11T14:27:35.999Z</time></trkpt><trkpt lat="45.806319132869554" lon="9.081518509829678"><ele>207.0</ele><time>2026-04-11T14:27:36.999Z</time></trkpt><trkpt lat="45.8062293626429" lon="9.081611746841423"><ele>207.0</ele><time>2026-04-11T14:27:37.999Z</time></trkpt><trkpt lat="45.806136232525844" lon="9.081704939646881"><ele>207.0</ele><time>2026-04-11T14:27:38.999Z</time></trkpt><trkpt lat="45.8060416729826" lon="9.081801036385444"><ele>207.0</ele><time>2026-04-11T14:27:39.999Z</time></trkpt><trkpt lat="45.805947427730274" lon="9.081898464509221"><ele>207.0</ele><time>2026-04-11T14:27:40.999Z</time></trkpt><trkpt lat="45.80585521723525" lon="9.081992609029433"><ele>207.0</ele><time>2026-04-11T14:27:41.999Z</time></trkpt><trkpt lat="45.80576822675507" lon="9.08208484829952"><ele>207.0</ele><time>2026-04-11T14:27:42.999Z</time></trkpt><trkpt lat="45.8056867705841" lon="9.082170577054015"><ele>207.0</ele><time>2026-04-11T14:27:43.999Z</time></trkpt><trkpt lat="45.80561066363259" lon="9.0822477327236"><ele>207.0</ele><time>2026-04-11T14:27:44.999Z</time></trkpt><trkpt lat="45.80553813493634" lon="9.082320738778892"><ele>207.0</ele><time>2026-04-11T14:27:45.999Z</time></trkpt><trkpt lat="45.80547010872238" lon="9.082388033191025"><ele>207.0</ele><time>2026-04-11T14:27:46.999Z</time></trkpt><trkpt lat="45.805403262438816" lon="9.08244895826597"><ele>207.0</ele><time>2026-04-11T14:27:47.999Z</time></trkpt><trkpt lat="45.80534817904256" lon="9.082498921457384"><ele>207.0</ele><time>2026-04-11T14:27:48.999Z</time></trkpt><trkpt lat="45.805309130409576" lon="9.08258422558221"><ele>207.0</ele><time>2026-04-11T14:28:10.999Z</time></trkpt><trkpt lat="45.80528301026719" lon="9.082689660513298"><ele>207.0</ele><time>2026-04-11T14:28:12.999Z</time></trkpt><trkpt lat="45.80526475893806" lon="9.082821776879223"><ele>207.33333333333334</ele><time>2026-04-11T14:28:14.999Z</time></trkpt><trkpt lat="45.80528354990116" lon="9.082964278530671"><ele>207.66666666666669</ele><time>2026-04-11T14:28:16.999Z</time></trkpt><trkpt lat="45.80533841707529" lon="9.083086605955724"><ele>208.0</ele><time>2026-04-11T14:28:19Z</time></trkpt><trkpt lat="45.80536923879289" lon="9.083168418161419"><ele>208.33333333333334</ele><time>2026-04-11T14:28:20Z</time></trkpt><trkpt lat="45.80542065030869" lon="9.083240619535953"><ele>208.66666666666669</ele><time>2026-04-11T14:28:21Z</time></trkpt><trkpt lat="45.80546450965906" lon="9.083325288166114"><ele>209.0</ele><time>2026-04-11T14:28:22Z</time></trkpt><trkpt lat="45.80550791587201" lon="9.083409082007208"><ele>209.16666666666669</ele><time>2026-04-11T14:28:23Z</time></trkpt><trkpt lat="45.80553754643711" lon="9.083500191976915"><ele>209.33333333333334</ele><time>2026-04-11T14:28:24Z</time></trkpt><trkpt lat="45.80559642292819" lon="9.083579940713264"><ele>209.5</ele><time>2026-04-11T14:28:26Z</time></trkpt><trkpt lat="45.805463989325574" lon="9.083688965325072"><ele>209.66666666666669</ele><time>2026-04-11T14:28:27Z</time></trkpt><trkpt lat="45.805417652525016" lon="9.083768463089255"><ele>209.83333333333334</ele><time>2026-04-11T14:28:28Z</time></trkpt><trkpt lat="45.805356231160495" lon="9.083806514668831"><ele>210.0</ele><time>2026-04-11T14:28:29Z</time></trkpt><trkpt lat="45.805265445577504" lon="9.083904570215429"><ele>210.0</ele><time>2026-04-11T14:28:31Z</time></trkpt><trkpt lat="45.805213298421386" lon="9.083966834747715"><ele>210.0</ele><time>2026-04-11T14:28:32Z</time></trkpt><trkpt lat="45.80516323348001" lon="9.0840237905132"><ele>210.0</ele><time>2026-04-11T14:28:33Z</time></trkpt><trkpt lat="45.80507556901989" lon="9.084127422714033"><ele>210.0</ele><time>2026-04-11T14:28:35Z</time></trkpt><trkpt lat="45.804994051889025" lon="9.084221484359398"><ele>210.0</ele><time>2026-04-11T14:28:37Z</time></trkpt><trkpt lat="45.80490262012973" lon="9.084316019591839"><ele>210.0</ele><time>2026-04-11T14:28:39Z</time></trkpt><trkpt lat="45.804804648877" lon="9.084426266017507"><ele>210.0</ele><time>2026-04-11T14:28:41Z</time></trkpt><trkpt lat="45.80474946493401" lon="9.084485735002696"><ele>210.0</ele><time>2026-04-11T14:28:42Z</time></trkpt><trkpt lat="45.8046914956414" lon="9.084537502298758"><ele>210.0</ele><time>2026-04-11T14:28:43Z</time></trkpt><trkpt lat="45.80460185989649" lon="9.084618766571781"><ele>210.0</ele><time>2026-04-11T14:28:45Z</time></trkpt><trkpt lat="45.804501726512925" lon="9.084697092823815"><ele>210.0</ele><time>2026-04-11T14:28:47Z</time></trkpt><trkpt lat="45.80442029133015" lon="9.084761934672123"><ele>210.0</ele><time>2026-04-11T14:28:49Z</time></trkpt><trkpt lat="45.80434679927687" lon="9.08481565321231"><ele>210.0</ele><time>2026-04-11T14:28:51Z</time></trkpt><trkpt lat="45.80426820205995" lon="9.084882175578205"><ele>210.0</ele><time>2026-04-11T14:28:53Z</time></trkpt><trkpt lat="45.804186369952895" lon="9.08495245189362"><ele>210.0</ele><time>2026-04-11T14:28:55Z</time></trkpt><trkpt lat="45.804097473285864" lon="9.085028507005863"><ele>210.75</ele><time>2026-04-11T14:28:57Z</time></trkpt><trkpt lat="45.80400604901737" lon="9.085100150281948"><ele>211.5</ele><time>2026-04-11T14:28:59Z</time></trkpt><trkpt lat="45.80390995366859" lon="9.085180782863038"><ele>212.25</ele><time>2026-04-11T14:29:01Z</time></trkpt><trkpt lat="45.80380830071082" lon="9.085261591868946"><ele>213.0</ele><time>2026-04-11T14:29:03Z</time></trkpt><trkpt lat="45.80370093324999" lon="9.085341875618171"><ele>213.0</ele><time>2026-04-11T14:29:05Z</time></trkpt><trkpt lat="45.803644241535956" lon="9.085385611582888"><ele>213.0</ele><time>2026-04-11T14:29:06Z</time></trkpt><trkpt lat="45.8035880967548" lon="9.085427425463354"><ele>213.0</ele><time>2026-04-11T14:29:07Z</time></trkpt><trkpt lat="45.80348071788486" lon="9.085515576700454"><ele>213.0</ele><time>2026-04-11T14:29:09Z</time></trkpt><trkpt lat="45.803379146169334" lon="9.085596869503703"><ele>213.0</ele><time>2026-04-11T14:29:11Z</time></trkpt><trkpt lat="45.80328605953621" lon="9.085666796883572"><ele>213.0</ele><time>2026-04-11T14:29:13Z</time></trkpt><trkpt lat="45.803200352659076" lon="9.085744832440392"><ele>213.0</ele><time>2026-04-11T14:29:15Z</time></trkpt><trkpt lat="45.80311532315934" lon="9.085807887909485"><ele>213.0</ele><time>2026-04-11T14:29:17Z</time></trkpt><trkpt lat="45.803039715166996" lon="9.085880655464587"><ele>213.0</ele><time>2026-04-11T14:29:19Z</time></trkpt><trkpt lat="45.8029757808332" lon="9.085945685683155"><ele>213.0</ele><time>2026-04-11T14:29:21Z</time></trkpt><trkpt lat="45.802908211509795" lon="9.086017903319163"><ele>213.8</ele><time>2026-04-11T14:29:23Z</time></trkpt><trkpt lat="45.80285300454907" lon="9.08607504039882"><ele>214.60000000000002</ele><time>2026-04-11T14:29:25Z</time></trkpt><trkpt lat="45.802777163140306" lon="9.08616348885647"><ele>215.39999999999998</ele><time>2026-04-11T14:29:27Z</time></trkpt><trkpt lat="45.802736442961724" lon="9.086285476458183"><ele>216.2</ele><time>2026-04-11T14:29:29Z</time></trkpt><trkpt lat="45.80261941016428" lon="9.086298067685266"><ele>217.0</ele><time>2026-04-11T14:29:31Z</time></trkpt><trkpt lat="45.80253325120535" lon="9.086307639592643"><ele>217.5</ele><time>2026-04-11T14:29:33Z</time></trkpt><trkpt lat="45.80244501428249" lon="9.086318719004693"><ele>218.0</ele><time>2026-04-11T14:29:35Z</time></trkpt><trkpt lat="45.8023499598081" lon="9.08634714224828"><ele>218.5</ele><time>2026-04-11T14:29:37Z</time></trkpt><trkpt lat="45.802233511415125" lon="9.08635397988729"><ele>219.0</ele><time>2026-04-11T14:29:38.999Z</time></trkpt><trkpt lat="45.802187242276" lon="9.086587529707904"><ele>218.5</ele><time>2026-04-11T14:29:40.999Z</time></trkpt><trkpt lat="45.802181429782365" lon="9.086681010352557"><ele>218.0</ele><time>2026-04-11T14:29:41.999Z</time></trkpt><trkpt lat="45.80217598023988" lon="9.086779250736559"><ele>217.5</ele><time>2026-04-11T14:29:42.999Z</time></trkpt><trkpt lat="45.80216228376526" lon="9.086871848578419"><ele>217.0</ele><time>2026-04-11T14:29:43.999Z</time></trkpt><trkpt lat="45.802117315199496" lon="9.087030332452663"><ele>216.5</ele><time>2026-04-11T14:29:45.999Z</time></trkpt><trkpt lat="45.8020530413417" lon="9.087170652601111"><ele>216.0</ele><time>2026-04-11T14:29:47.999Z</time></trkpt><trkpt lat="45.80198248195882" lon="9.087316501195312"><ele>216.0</ele><time>2026-04-11T14:29:49.999Z</time></trkpt><trkpt lat="45.80194214181446" lon="9.087399193930565"><ele>216.0</ele><time>2026-04-11T14:29:50.999Z</time></trkpt><trkpt lat="45.80189637223279" lon="9.087490653823577"><ele>216.0</ele><time>2026-04-11T14:29:51.999Z</time></trkpt><trkpt lat="45.80185241553126" lon="9.087576129200468"><ele>216.0</ele><time>2026-04-11T14:29:52.999Z</time></trkpt><trkpt lat="45.801809752510536" lon="9.087660585393877"><ele>216.0</ele><time>2026-04-11T14:29:53.999Z</time></trkpt><trkpt lat="45.80176706489501" lon="9.087749631192894"><ele>216.0</ele><time>2026-04-11T14:29:54.999Z</time></trkpt><trkpt lat="45.80172369141324" lon="9.087839971843165"><ele>216.0</ele><time>2026-04-11T14:29:55.999Z</time></trkpt><trkpt lat="45.80168164860155" lon="9.087930434114567"><ele>216.66666666666666</ele><time>2026-04-11T14:29:56.999Z</time></trkpt><trkpt lat="45.80163549904657" lon="9.08801847711752"><ele>217.33333333333331</ele><time>2026-04-11T14:29:57.999Z</time></trkpt><trkpt lat="45.80158883798199" lon="9.088104205700406"><ele>218.0</ele><time>2026-04-11T14:29:58.999Z</time></trkpt><trkpt lat="45.80154328661642" lon="9.08819158284349"><ele>218.66666666666666</ele><time>2026-04-11T14:29:59.999Z</time></trkpt><trkpt lat="45.80149685622556" lon="9.088282402122719"><ele>219.33333333333331</ele><time>2026-04-11T14:30:00.999Z</time></trkpt><trkpt lat="45.801449513979925" lon="9.088378506840655"><ele>220.0</ele><time>2026-04-11T14:30:01.999Z</time></trkpt><trkpt lat="45.801399161112855" lon="9.088477060896881"><ele>219.99999999999997</ele><time>2026-04-11T14:30:02.999Z</time></trkpt><trkpt lat="45.801344507028304" lon="9.088572695615847"><ele>220.0</ele><time>2026-04-11T14:30:03.999Z</time></trkpt><trkpt lat="45.801289764165105" lon="9.088672433060498"><ele>220.0</ele><time>2026-04-11T14:30:04.999Z</time></trkpt><trkpt lat="45.80123969258066" lon="9.088777307119988"><ele>220.0</ele><time>2026-04-11T14:30:05.999Z</time></trkpt><trkpt lat="45.80120122995435" lon="9.088882810222636"><ele>219.99999999999997</ele><time>2026-04-11T14:30:06.999Z</time></trkpt><trkpt lat="45.80117757484558" lon="9.088990751527156"><ele>220.0</ele><time>2026-04-11T14:30:07.999Z</time></trkpt><trkpt lat="45.801162853745154" lon="9.089102838874721"><ele>219.66666666666666</ele><time>2026-04-11T14:30:08.999Z</time></trkpt><trkpt lat="45.80115859883702" lon="9.089217949844159"><ele>219.33333333333331</ele><time>2026-04-11T14:30:09.999Z</time></trkpt><trkpt lat="45.80116219147193" lon="9.089330144983567"><ele>219.0</ele><time>2026-04-11T14:30:10.999Z</time></trkpt><trkpt lat="45.801174857300865" lon="9.089449830075177"><ele>218.66666666666669</ele><time>2026-04-11T14:30:11.999Z</time></trkpt><trkpt lat="45.801199888332405" lon="9.089572759294565"><ele>218.33333333333334</ele><time>2026-04-11T14:30:12.999Z</time></trkpt><trkpt lat="45.801230697739676" lon="9.089678551007555"><ele>218.0</ele><time>2026-04-11T14:30:13.999Z</time></trkpt><trkpt lat="45.80125939547787" lon="9.089759691543652"><ele>218.0</ele><time>2026-04-11T14:30:14.999Z</time></trkpt><trkpt lat="45.80131107833348" lon="9.08989770177096"><ele>218.0</ele><time>2026-04-11T14:30:16.999Z</time></trkpt><trkpt lat="45.8013516868761" lon="9.090009957425782"><ele>218.0</ele><time>2026-04-11T14:30:18.999Z</time></trkpt><trkpt lat="45.80138280687672" lon="9.090091134159689"><ele>218.0</ele><time>2026-04-11T14:30:20.999Z</time></trkpt><trkpt lat="45.80142734029287" lon="9.090187315388816"><ele>218.0</ele><time>2026-04-11T14:30:24Z</time></trkpt><trkpt lat="45.80147405990055" lon="9.090336300400772"><ele>218.2</ele><time>2026-04-11T14:30:41Z</time></trkpt><trkpt lat="45.80149567731895" lon="9.090435440150507"><ele>218.4</ele><time>2026-04-11T14:30:42Z</time></trkpt><trkpt lat="45.801519958283905" lon="9.090545481255603"><ele>218.59999999999997</ele><time>2026-04-11T14:30:43Z</time></trkpt><trkpt lat="45.80155579392412" lon="9.09066588007391"><ele>218.79999999999998</ele><time>2026-04-11T14:30:44Z</time></trkpt><trkpt lat="45.80161053253896" lon="9.090792953943781"><ele>219.0</ele><time>2026-04-11T14:30:45Z</time></trkpt><trkpt lat="45.80167344925841" lon="9.090936275636308"><ele>218.75</ele><time>2026-04-11T14:30:46Z</time></trkpt><trkpt lat="45.801737763647" lon="9.091089094576834"><ele>218.5</ele><time>2026-04-11T14:30:47Z</time></trkpt><trkpt lat="45.801803751487" lon="9.091247243174926"><ele>218.25</ele><time>2026-04-11T14:30:48Z</time></trkpt><trkpt lat="45.80187041385649" lon="9.091411421472316"><ele>218.0</ele><time>2026-04-11T14:30:49Z</time></trkpt><trkpt lat="45.80193977724283" lon="9.091582385123424"><ele>217.5</ele><time>2026-04-11T14:30:50Z</time></trkpt><trkpt lat="45.80200966737327" lon="9.091761299694628"><ele>217.0</ele><time>2026-04-11T14:30:51Z</time></trkpt><trkpt lat="45.80208458021825" lon="9.091940155287725"><ele>216.5</ele><time>2026-04-11T14:30:52Z</time></trkpt><trkpt lat="45.802164897668625" lon="9.092116981908335"><ele>216.0</ele><time>2026-04-11T14:30:53Z</time></trkpt><trkpt lat="45.80224920316937" lon="9.092301424548147"><ele>216.33333333333331</ele><time>2026-04-11T14:30:54Z</time></trkpt><trkpt lat="45.802333369258314" lon="9.092493978141926"><ele>216.66666666666666</ele><time>2026-04-11T14:30:55Z</time></trkpt><trkpt lat="45.802417543322335" lon="9.092694779436968"><ele>217.0</ele><time>2026-04-11T14:30:56Z</time></trkpt><trkpt lat="45.802505890114254" lon="9.092903668203949"><ele>217.0</ele><time>2026-04-11T14:30:57Z</time></trkpt><trkpt lat="45.80259468590212" lon="9.0931149236879"><ele>217.0</ele><time>2026-04-11T14:30:58Z</time></trkpt><trkpt lat="45.8026827531054" lon="9.093335552355605"><ele>217.0</ele><time>2026-04-11T14:30:59Z</time></trkpt><trkpt lat="45.802783840173284" lon="9.093545432908503"><ele>221.66666666666666</ele><time>2026-04-11T14:31:00Z</time></trkpt><trkpt lat="45.80288563409814" lon="9.093747058508733"><ele>226.33333333333331</ele><time>2026-04-11T14:31:01Z</time></trkpt><trkpt lat="45.80298560692905" lon="9.093938398274668"><ele>231.0</ele><time>2026-04-11T14:31:02Z</time></trkpt><trkpt lat="45.80307854972965" lon="9.094117558572327"><ele>231.5</ele><time>2026-04-11T14:31:03Z</time></trkpt><trkpt lat="45.803165240930916" lon="9.094283602872377"><ele>232.0</ele><time>2026-04-11T14:31:04Z</time></trkpt><trkpt lat="45.803246832255056" lon="9.0944350664828"><ele>232.5</ele><time>2026-04-11T14:31:05Z</time></trkpt><trkpt lat="45.8033183921696" lon="9.094570562377033"><ele>233.0</ele><time>2026-04-11T14:31:06Z</time></trkpt><trkpt lat="45.80338041784405" lon="9.094686498900128"><ele>233.00000000000003</ele><time>2026-04-11T14:31:07Z</time></trkpt><trkpt lat="45.80343305549111" lon="9.09478524943518"><ele>233.0</ele><time>2026-04-11T14:31:08Z</time></trkpt><trkpt lat="45.803484270461645" lon="9.094871678814936"><ele>233.0</ele><time>2026-04-11T14:31:09Z</time></trkpt><trkpt lat="45.803531531607504" lon="9.09495491836686"><ele>233.0</ele><time>2026-04-11T14:31:10Z</time></trkpt><trkpt lat="45.803581322510375" lon="9.09504145481017"><ele>233.00000000000003</ele><time>2026-04-11T14:31:11Z</time></trkpt><trkpt lat="45.80363234471617" lon="9.09513484575472"><ele>233.0</ele><time>2026-04-11T14:31:12Z</time></trkpt><trkpt lat="45.80368754147833" lon="9.095241905473381"><ele>231.2</ele><time>2026-04-11T14:31:13Z</time></trkpt><trkpt lat="45.80373893053922" lon="9.095358455051551"><ele>229.4</ele><time>2026-04-11T14:31:14Z</time></trkpt><trkpt lat="45.80378807488065" lon="9.095475429977958"><ele>227.59999999999997</ele><time>2026-04-11T14:31:15Z</time></trkpt><trkpt lat="45.80383553977116" lon="9.095593666321609"><ele>225.79999999999998</ele><time>2026-04-11T14:31:16Z</time></trkpt><trkpt lat="45.8038817587006" lon="9.095711622624826"><ele>224.0</ele><time>2026-04-11T14:31:17Z</time></trkpt><trkpt lat="45.803925417242105" lon="9.095828109124183"><ele>223.39999999999998</ele><time>2026-04-11T14:31:18Z</time></trkpt><trkpt lat="45.80396852940807" lon="9.095945803924028"><ele>222.79999999999998</ele><time>2026-04-11T14:31:19Z</time></trkpt><trkpt lat="45.80401259464503" lon="9.096073061021904"><ele>222.20000000000002</ele><time>2026-04-11T14:31:20Z</time></trkpt><trkpt lat="45.8040627645874" lon="9.096203541754175"><ele>221.60000000000002</ele><time>2026-04-11T14:31:21Z</time></trkpt><trkpt lat="45.804117357415436" lon="9.0963431049705"><ele>221.0</ele><time>2026-04-11T14:31:22Z</time></trkpt><trkpt lat="45.80417775387114" lon="9.096491536530367"><ele>221.75</ele><time>2026-04-11T14:31:23Z</time></trkpt><trkpt lat="45.80424938718653" lon="9.096644637830167"><ele>222.5</ele><time>2026-04-11T14:31:24Z</time></trkpt><trkpt lat="45.804317190735496" lon="9.09679630661867"><ele>223.25</ele><time>2026-04-11T14:31:25Z</time></trkpt><trkpt lat="45.80437321627678" lon="9.096948022465732"><ele>224.0</ele><time>2026-04-11T14:31:26Z</time></trkpt><trkpt lat="45.804422473370224" lon="9.097099189002831"><ele>224.2</ele><time>2026-04-11T14:31:27Z</time></trkpt><trkpt lat="45.80446659587032" lon="9.097248143880348"><ele>224.39999999999998</ele><time>2026-04-11T14:31:28Z</time></trkpt><trkpt lat="45.8045046991706" lon="9.097392311857984"><ele>224.6</ele><time>2026-04-11T14:31:29Z</time></trkpt><trkpt lat="45.80453967454773" lon="9.09753222075426"><ele>224.8</ele><time>2026-04-11T14:31:30Z</time></trkpt><trkpt lat="45.80457025257083" lon="9.097670554986644"><ele>225.0</ele><time>2026-04-11T14:31:31Z</time></trkpt><trkpt lat="45.804594531590844" lon="9.097810054833094"><ele>225.33333333333334</ele><time>2026-04-11T14:31:32Z</time></trkpt><trkpt lat="45.804618925646714" lon="9.09794801683488"><ele>225.66666666666669</ele><time>2026-04-11T14:31:33Z</time></trkpt><trkpt lat="45.804639076632206" lon="9.098069313198133"><ele>226.0</ele><time>2026-04-11T14:31:34Z</time></trkpt><trkpt lat="45.80465364265915" lon="9.098170832709076"><ele>226.33333333333334</ele><time>2026-04-11T14:31:35Z</time></trkpt><trkpt lat="45.804671365886094" lon="9.098272101143436"><ele>226.66666666666669</ele><time>2026-04-11T14:31:36.999Z</time></trkpt><trkpt lat="45.8046982681312" lon="9.098401118400583"><ele>227.0</ele><time>2026-04-11T14:31:51.999Z</time></trkpt><trkpt lat="45.8047205640368" lon="9.098507923699481"><ele>227.33333333333334</ele><time>2026-04-11T14:31:53.999Z</time></trkpt><trkpt lat="45.8047692697826" lon="9.098586359018581"><ele>227.66666666666669</ele><time>2026-04-11T14:32:01.999Z</time></trkpt><trkpt lat="45.80477304835513" lon="9.09868373232297"><ele>228.0</ele><time>2026-04-11T14:32:05.999Z</time></trkpt><trkpt lat="45.804733536730815" lon="9.098828812357942"><ele>228.33333333333331</ele><time>2026-04-11T14:32:43Z</time></trkpt><trkpt lat="45.804683363071526" lon="9.09892151704356"><ele>228.66666666666666</ele><time>2026-04-11T14:32:44Z</time></trkpt><trkpt lat="45.804590273150914" lon="9.098970820386773"><ele>229.0</ele><time>2026-04-11T14:32:45Z</time></trkpt><trkpt lat="45.804486304002026" lon="9.099007492308685"><ele>229.0</ele><time>2026-04-11T14:32:46Z</time></trkpt><trkpt lat="45.80437261758751" lon="9.099073722725466"><ele>229.0</ele><time>2026-04-11T14:32:47Z</time></trkpt><trkpt lat="45.8042648662597" lon="9.099151261533324"><ele>229.0</ele><time>2026-04-11T14:32:48Z</time></trkpt><trkpt lat="45.80414877360081" lon="9.099223590769208"><ele>229.0</ele><time>2026-04-11T14:32:49Z</time></trkpt><trkpt lat="45.80402969187523" lon="9.099301231538153"><ele>231.25</ele><time>2026-04-11T14:32:50Z</time></trkpt><trkpt lat="45.80391498905623" lon="9.099404138417354"><ele>233.5</ele><time>2026-04-11T14:32:51Z</time></trkpt><trkpt lat="45.80383725317089" lon="9.099557214428168"><ele>235.75</ele><time>2026-04-11T14:32:52Z</time></trkpt><trkpt lat="45.80381590791154" lon="9.099752087844225"><ele>238.0</ele><time>2026-04-11T14:32:53Z</time></trkpt><trkpt lat="45.803849629689736" lon="9.09996090668875"><ele>238.0</ele><time>2026-04-11T14:32:54Z</time></trkpt><trkpt lat="45.8039197611089" lon="9.10015481612894"><ele>238.0</ele><time>2026-04-11T14:32:55Z</time></trkpt><trkpt lat="45.804025160540974" lon="9.100331927420937"><ele>238.0</ele><time>2026-04-11T14:32:56Z</time></trkpt><trkpt lat="45.804129559292406" lon="9.100506991482897"><ele>238.0</ele><time>2026-04-11T14:32:57Z</time></trkpt><trkpt lat="45.80421969022935" lon="9.1006916060245"><ele>238.0</ele><time>2026-04-11T14:32:58Z</time></trkpt><trkpt lat="45.80430037697162" lon="9.100856424691214"><ele>238.0</ele><time>2026-04-11T14:32:59Z</time></trkpt><trkpt lat="45.80437662698582" lon="9.100997597608114"><ele>238.0</ele><time>2026-04-11T14:33:00Z</time></trkpt><trkpt lat="45.804408718628125" lon="9.101152322779718"><ele>238.75</ele><time>2026-04-11T14:33:01Z</time></trkpt><trkpt lat="45.80442449592687" lon="9.101318831338409"><ele>239.5</ele><time>2026-04-11T14:33:02Z</time></trkpt><trkpt lat="45.804342729644674" lon="9.101475242512079"><ele>240.25</ele><time>2026-04-11T14:33:03Z</time></trkpt><trkpt lat="45.804222789786586" lon="9.101595856612489"><ele>241.0</ele><time>2026-04-11T14:33:04Z</time></trkpt><trkpt lat="45.80409694801821" lon="9.101751962483785"><ele>245.33333333333331</ele><time>2026-04-11T14:33:05Z</time></trkpt><trkpt lat="45.80396006086248" lon="9.101946692293373"><ele>249.66666666666669</ele><time>2026-04-11T14:33:06Z</time></trkpt><trkpt lat="45.80380996874474" lon="9.10213147308659"><ele>254.0</ele><time>2026-04-11T14:33:07Z</time></trkpt><trkpt lat="45.803645650498595" lon="9.102304968938261"><ele>256.0</ele><time>2026-04-11T14:33:08Z</time></trkpt><trkpt lat="45.80348281114409" lon="9.10250450736721"><ele>258.0</ele><time>2026-04-11T14:33:09Z</time></trkpt><trkpt lat="45.80330011577146" lon="9.102701585265379"><ele>260.0</ele><time>2026-04-11T14:33:10Z</time></trkpt><trkpt lat="45.803100211588934" lon="9.102863465644143"><ele>260.0</ele><time>2026-04-11T14:33:11Z</time></trkpt><trkpt lat="45.80288685743936" lon="9.102982134544616"><ele>260.0</ele><time>2026-04-11T14:33:12Z</time></trkpt><trkpt lat="45.80266576804488" lon="9.103068544065923"><ele>258.6666666666667</ele><time>2026-04-11T14:33:13Z</time></trkpt><trkpt lat="45.80244654880754" lon="9.103105197452248"><ele>257.3333333333333</ele><time>2026-04-11T14:33:14Z</time></trkpt><trkpt lat="45.80223634519872" lon="9.10313755089501"><ele>256.0</ele><time>2026-04-11T14:33:15Z</time></trkpt><trkpt lat="45.80205162506453" lon="9.103190422603198"><ele>256.0</ele><time>2026-04-11T14:33:16Z</time></trkpt><trkpt lat="45.801882909139614" lon="9.103209394191937"><ele>256.0</ele><time>2026-04-11T14:33:17Z</time></trkpt><trkpt lat="45.80173561234962" lon="9.103233338801203"><ele>256.0</ele><time>2026-04-11T14:33:18Z</time></trkpt><trkpt lat="45.80159952661401" lon="9.103257729016443"><ele>259.0</ele><time>2026-04-11T14:33:19Z</time></trkpt><trkpt lat="45.8014885149931" lon="9.10327734912514"><ele>262.0</ele><time>2026-04-11T14:33:20Z</time></trkpt><trkpt lat="45.801387330576866" lon="9.103311536496163"><ele>265.0</ele><time>2026-04-11T14:33:21Z</time></trkpt><trkpt lat="45.801319918608264" lon="9.10341379894559"><ele>268.0</ele><time>2026-04-11T14:33:22Z</time></trkpt><trkpt lat="45.80129790465391" lon="9.103559249442995"><ele>271.0</ele><time>2026-04-11T14:33:23Z</time></trkpt><trkpt lat="45.80134876546897" lon="9.103713366459635"><ele>271.0</ele><time>2026-04-11T14:33:24Z</time></trkpt><trkpt lat="45.801448718418634" lon="9.10382336426466"><ele>271.0</ele><time>2026-04-11T14:33:25Z</time></trkpt><trkpt lat="45.80158602565489" lon="9.103846217622044"><ele>271.0</ele><time>2026-04-11T14:33:26Z</time></trkpt><trkpt lat="45.801734478995485" lon="9.10382931669609"><ele>271.0</ele><time>2026-04-11T14:33:27Z</time></trkpt><trkpt lat="45.801906790156366" lon="9.103775406621288"><ele>272.0</ele><time>2026-04-11T14:33:28Z</time></trkpt><trkpt lat="45.80209026227718" lon="9.103722160902262"><ele>273.0</ele><time>2026-04-11T14:33:29Z</time></trkpt><trkpt lat="45.80227594402964" lon="9.103713579590947"><ele>274.0</ele><time>2026-04-11T14:33:30Z</time></trkpt><trkpt lat="45.802440967102235" lon="9.103699378533989"><ele>274.0</ele><time>2026-04-11T14:33:31Z</time></trkpt><trkpt lat="45.80258502325722" lon="9.103669539022928"><ele>274.0</ele><time>2026-04-11T14:33:32Z</time></trkpt><trkpt lat="45.80271732953607" lon="9.103666900259173"><ele>274.0</ele><time>2026-04-11T14:33:33Z</time></trkpt><trkpt lat="45.802826612346266" lon="9.10370840883157"><ele>274.0</ele><time>2026-04-11T14:33:34Z</time></trkpt><trkpt lat="45.80290500921265" lon="9.1038089678124"><ele>274.8</ele><time>2026-04-11T14:33:35Z</time></trkpt><trkpt lat="45.80293617902995" lon="9.103947518655357"><ele>275.59999999999997</ele><time>2026-04-11T14:33:36Z</time></trkpt><trkpt lat="45.80293965373782" lon="9.104084354570523"><ele>276.4</ele><time>2026-04-11T14:33:37Z</time></trkpt><trkpt lat="45.80291546797601" lon="9.104213707011727"><ele>277.2</ele><time>2026-04-11T14:33:38Z</time></trkpt><trkpt lat="45.80286138299944" lon="9.104320056506968"><ele>278.0</ele><time>2026-04-11T14:33:38.999Z</time></trkpt><trkpt lat="45.80278555804488" lon="9.104401828359151"><ele>280.75</ele><time>2026-04-11T14:33:39.999Z</time></trkpt><trkpt lat="45.802676492928214" lon="9.104435717838257"><ele>283.5</ele><time>2026-04-11T14:33:40.999Z</time></trkpt><trkpt lat="45.80256463170685" lon="9.104499567301847"><ele>286.25</ele><time>2026-04-11T14:33:41.999Z</time></trkpt><trkpt lat="45.80245161545781" lon="9.104563337148699"><ele>289.0</ele><time>2026-04-11T14:33:42.999Z</time></trkpt><trkpt lat="45.80233340223054" lon="9.104626941984286"><ele>289.75</ele><time>2026-04-11T14:33:43.999Z</time></trkpt><trkpt lat="45.80221261518217" lon="9.104691888005743"><ele>290.5</ele><time>2026-04-11T14:33:44.999Z</time></trkpt><trkpt lat="45.80209222056403" lon="9.104754863962523"><ele>291.25</ele><time>2026-04-11T14:33:45.999Z</time></trkpt><trkpt lat="45.80196482764448" lon="9.10481150706861"><ele>292.0</ele><time>2026-04-11T14:33:46.999Z</time></trkpt><trkpt lat="45.8018480547786" lon="9.104854029733207"><ele>292.2</ele><time>2026-04-11T14:33:47.999Z</time></trkpt><trkpt lat="45.80173695255243" lon="9.10488431711927"><ele>292.4</ele><time>2026-04-11T14:33:48.999Z</time></trkpt><trkpt lat="45.801645202606224" lon="9.104898197045767"><ele>292.6</ele><time>2026-04-11T14:33:49.999Z</time></trkpt><trkpt lat="45.80153774301681" lon="9.10491234464759"><ele>292.8</ele><time>2026-04-11T14:33:50.999Z</time></trkpt><trkpt lat="45.8014267476223" lon="9.1049310765449"><ele>293.0</ele><time>2026-04-11T14:33:51.999Z</time></trkpt><trkpt lat="45.801306852817724" lon="9.10496980831738"><ele>293.0</ele><time>2026-04-11T14:33:52.999Z</time></trkpt><trkpt lat="45.80118810007975" lon="9.105023932521844"><ele>293.0</ele><time>2026-04-11T14:33:53.999Z</time></trkpt><trkpt lat="45.801065912167275" lon="9.105102075759579"><ele>293.0</ele><time>2026-04-11T14:33:54.999Z</time></trkpt><trkpt lat="45.800963880028995" lon="9.10523204214614"><ele>293.0</ele><time>2026-04-11T14:33:55.999Z</time></trkpt><trkpt lat="45.80084570431526" lon="9.105324494726972"><ele>295.5</ele><time>2026-04-11T14:33:56.999Z</time></trkpt><trkpt lat="45.800732198668136" lon="9.105411814761442"><ele>298.0</ele><time>2026-04-11T14:33:57.999Z</time></trkpt><trkpt lat="45.80062308870275" lon="9.10549588206552"><ele>300.5</ele><time>2026-04-11T14:33:58.999Z</time></trkpt><trkpt lat="45.800511856602554" lon="9.105574912164236"><ele>303.0</ele><time>2026-04-11T14:33:59.999Z</time></trkpt><trkpt lat="45.800398836202135" lon="9.105651007319809"><ele>303.0</ele><time>2026-04-11T14:34:00.999Z</time></trkpt><trkpt lat="45.80028189958552" lon="9.105728493329702"><ele>303.0</ele><time>2026-04-11T14:34:01.999Z</time></trkpt><trkpt lat="45.80016014527097" lon="9.105809987952174"><ele>303.0</ele><time>2026-04-11T14:34:02.999Z</time></trkpt><trkpt lat="45.800034404640456" lon="9.105887896251012"><ele>303.0</ele><time>2026-04-11T14:34:03.999Z</time></trkpt><trkpt lat="45.79990672078456" lon="9.105968492471451"><ele>305.0</ele><time>2026-04-11T14:34:04.999Z</time></trkpt><trkpt lat="45.799780518794655" lon="9.106042804957365"><ele>307.0</ele><time>2026-04-11T14:34:05.999Z</time></trkpt><trkpt lat="45.79965630443299" lon="9.106125764306695"><ele>309.0</ele><time>2026-04-11T14:34:06.999Z</time></trkpt><trkpt lat="45.799529762214874" lon="9.106199669487452"><ele>311.0</ele><time>2026-04-11T14:34:07.999Z</time></trkpt><trkpt lat="45.79941437399095" lon="9.106305652736202"><ele>312.75</ele><time>2026-04-11T14:34:08.999Z</time></trkpt><trkpt lat="45.79932305786363" lon="9.10645329270251"><ele>314.5</ele><time>2026-04-11T14:34:09.999Z</time></trkpt><trkpt lat="45.79927190420691" lon="9.106613642837793"><ele>316.25</ele><time>2026-04-11T14:34:10.999Z</time></trkpt><trkpt lat="45.79923102204266" lon="9.106757281627468"><ele>318.0</ele><time>2026-04-11T14:34:11.999Z</time></trkpt><trkpt lat="45.79920566187795" lon="9.106914176945402"><ele>318.0</ele><time>2026-04-11T14:34:12.999Z</time></trkpt><trkpt lat="45.79920154594064" lon="9.10708082908292"><ele>318.0</ele><time>2026-04-11T14:34:13.999Z</time></trkpt><trkpt lat="45.79918901067294" lon="9.107254409967826"><ele>318.0</ele><time>2026-04-11T14:34:14.999Z</time></trkpt><trkpt lat="45.79918982214928" lon="9.107435411566058"><ele>318.0</ele><time>2026-04-11T14:34:15.999Z</time></trkpt><trkpt lat="45.79919064891814" lon="9.107619824046006"><ele>319.25</ele><time>2026-04-11T14:34:16.999Z</time></trkpt><trkpt lat="45.799190856280475" lon="9.107804916724607"><ele>320.5</ele><time>2026-04-11T14:34:17.999Z</time></trkpt><trkpt lat="45.79919089824567" lon="9.107998594520318"><ele>321.75</ele><time>2026-04-11T14:34:18.999Z</time></trkpt><trkpt lat="45.79919123208324" lon="9.10821154395624"><ele>323.0</ele><time>2026-04-11T14:34:19.999Z</time></trkpt><trkpt lat="45.799156972147046" lon="9.108465823451219"><ele>324.33333333333337</ele><time>2026-04-11T14:34:20.999Z</time></trkpt><trkpt lat="45.79914462368301" lon="9.10876085510633"><ele>325.6666666666667</ele><time>2026-04-11T14:34:21.999Z</time></trkpt><trkpt lat="45.79913167955793" lon="9.109070720384757"><ele>327.0</ele><time>2026-04-11T14:34:22.999Z</time></trkpt><trkpt lat="45.79919924549849" lon="9.10937860154699"><ele>327.6666666666667</ele><time>2026-04-11T14:34:23.999Z</time></trkpt><trkpt lat="45.799195639897434" lon="9.109671088319743"><ele>328.33333333333337</ele><time>2026-04-11T14:34:24.999Z</time></trkpt><trkpt lat="45.79919020842251" lon="9.109956118048933"><ele>329.0</ele><time>2026-04-11T14:34:25.999Z</time></trkpt><trkpt lat="45.799179969530414" lon="9.11022866317787"><ele>329.6666666666667</ele><time>2026-04-11T14:34:26.999Z</time></trkpt><trkpt lat="45.79915492539578" lon="9.110488074202543"><ele>330.3333333333333</ele><time>2026-04-11T14:34:27.999Z</time></trkpt><trkpt lat="45.79911189257465" lon="9.110733127215514"><ele>331.0</ele><time>2026-04-11T14:34:28.999Z</time></trkpt><trkpt lat="45.79904287817073" lon="9.110956874842318"><ele>332.0</ele><time>2026-04-11T14:34:29.999Z</time></trkpt><trkpt lat="45.79895716211785" lon="9.111171318941016"><ele>333.0</ele><time>2026-04-11T14:34:30.999Z</time></trkpt><trkpt lat="45.798859934846405" lon="9.111375241324776"><ele>334.0</ele><time>2026-04-11T14:34:31.999Z</time></trkpt><trkpt lat="45.79875510659999" lon="9.111576494478477"><ele>335.0</ele><time>2026-04-11T14:34:32.999Z</time></trkpt><trkpt lat="45.798656193582325" lon="9.111782896178028"><ele>336.0</ele><time>2026-04-11T14:34:34Z</time></trkpt><trkpt lat="45.798544595469515" lon="9.111980969574676"><ele>337.0</ele><time>2026-04-11T14:34:35Z</time></trkpt><trkpt lat="45.79844274333654" lon="9.112192594952095"><ele>337.66666666666663</ele><time>2026-04-11T14:34:36Z</time></trkpt><trkpt lat="45.798339923980535" lon="9.112404408237056"><ele>338.3333333333333</ele><time>2026-04-11T14:34:37Z</time></trkpt><trkpt lat="45.79824880503719" lon="9.112627611646207"><ele>339.0</ele><time>2026-04-11T14:34:38Z</time></trkpt><trkpt lat="45.798143498495726" lon="9.112830519971801"><ele>339.0</ele><time>2026-04-11T14:34:39Z</time></trkpt><trkpt lat="45.79804458285182" lon="9.113026725166408"><ele>339.0</ele><time>2026-04-11T14:34:40Z</time></trkpt><trkpt lat="45.79795192057079" lon="9.113208233203457"><ele>339.0</ele><time>2026-04-11T14:34:41Z</time></trkpt><trkpt lat="45.79786815882033" lon="9.113380186490229"><ele>338.79999999999995</ele><time>2026-04-11T14:34:42Z</time></trkpt><trkpt lat="45.79779220278364" lon="9.113541005451497"><ele>338.59999999999997</ele><time>2026-04-11T14:34:43Z</time></trkpt><trkpt lat="45.79772563665479" lon="9.113689898992805"><ele>338.4</ele><time>2026-04-11T14:34:44Z</time></trkpt><trkpt lat="45.797675035307755" lon="9.113823969411815"><ele>338.2</ele><time>2026-04-11T14:34:45Z</time></trkpt><trkpt lat="45.79763775440079" lon="9.113926684340743"><ele>338.0</ele><time>2026-04-11T14:34:46Z</time></trkpt><trkpt lat="45.79758343913457" lon="9.114058923478128"><ele>338.2</ele><time>2026-04-11T14:34:48Z</time></trkpt><trkpt lat="45.79751699417083" lon="9.11421822768025"><ele>338.4</ele><time>2026-04-11T14:34:50Z</time></trkpt><trkpt lat="45.7974614831039" lon="9.114303278350912"><ele>338.59999999999997</ele><time>2026-04-11T14:34:51Z</time></trkpt><trkpt lat="45.797414171196365" lon="9.114378649799155"><ele>338.79999999999995</ele><time>2026-04-11T14:34:52Z</time></trkpt><trkpt lat="45.79734464959881" lon="9.11450733040329"><ele>339.0</ele><time>2026-04-11T14:34:54Z</time></trkpt><trkpt lat="45.79728493536287" lon="9.114626739810292"><ele>339.0</ele><time>2026-04-11T14:34:56Z</time></trkpt><trkpt lat="45.797188225345614" lon="9.114712048148787"><ele>339.0</ele><time>2026-04-11T14:34:58Z</time></trkpt><trkpt lat="45.797112142498825" lon="9.114726116106805"><ele>339.0</ele><time>2026-04-11T14:34:59Z</time></trkpt><trkpt lat="45.7970397750074" lon="9.11477172566075"><ele>339.0</ele><time>2026-04-11T14:35:00Z</time></trkpt><trkpt lat="45.79697879307913" lon="9.114852182553891"><ele>339.0</ele><time>2026-04-11T14:35:01Z</time></trkpt><trkpt lat="45.796945129467275" lon="9.114959879635839"><ele>339.0</ele><time>2026-04-11T14:35:02Z</time></trkpt><trkpt lat="45.79694443893817" lon="9.11509594012726"><ele>339.0</ele><time>2026-04-11T14:35:03Z</time></trkpt><trkpt lat="45.7969465979447" lon="9.115236580957783"><ele>339.0</ele><time>2026-04-11T14:35:04Z</time></trkpt><trkpt lat="45.79694792454324" lon="9.11538496248854"><ele>339.0</ele><time>2026-04-11T14:35:05Z</time></trkpt><trkpt lat="45.79694458593485" lon="9.115542959319333"><ele>339.0</ele><time>2026-04-11T14:35:06Z</time></trkpt><trkpt lat="45.79694794957628" lon="9.115703834072347"><ele>339.0</ele><time>2026-04-11T14:35:07Z</time></trkpt><trkpt lat="45.796954811387835" lon="9.115868541769022"><ele>339.0</ele><time>2026-04-11T14:35:08Z</time></trkpt><trkpt lat="45.79695409774227" lon="9.116037694545495"><ele>339.0</ele><time>2026-04-11T14:35:09Z</time></trkpt><trkpt lat="45.79695071159951" lon="9.116205960000768"><ele>339.0</ele><time>2026-04-11T14:35:10Z</time></trkpt><trkpt lat="45.796948474145225" lon="9.116369359073875"><ele>339.0</ele><time>2026-04-11T14:35:11Z</time></trkpt><trkpt lat="45.79694735940583" lon="9.11651650333048"><ele>338.79999999999995</ele><time>2026-04-11T14:35:12Z</time></trkpt><trkpt lat="45.79694784181026" lon="9.11665525067471"><ele>338.59999999999997</ele><time>2026-04-11T14:35:13Z</time></trkpt><trkpt lat="45.79693320770704" lon="9.116795344468182"><ele>338.4</ele><time>2026-04-11T14:35:14Z</time></trkpt><trkpt lat="45.79695110461339" lon="9.116932051540697"><ele>338.2</ele><time>2026-04-11T14:35:15Z</time></trkpt><trkpt lat="45.79694993254067" lon="9.117070923076579"><ele>338.0</ele><time>2026-04-11T14:35:16Z</time></trkpt><trkpt lat="45.796955715901326" lon="9.117215395866042"><ele>338.0</ele><time>2026-04-11T14:35:17Z</time></trkpt><trkpt lat="45.796966158755886" lon="9.117365709185666"><ele>338.0</ele><time>2026-04-11T14:35:18Z</time></trkpt><trkpt lat="45.79697614510333" lon="9.11752145202098"><ele>338.0</ele><time>2026-04-11T14:35:19Z</time></trkpt><trkpt lat="45.796984597772045" lon="9.117681978280693"><ele>338.0</ele><time>2026-04-11T14:35:20Z</time></trkpt><trkpt lat="45.7969909822747" lon="9.117838378523016"><ele>338.0</ele><time>2026-04-11T14:35:21Z</time></trkpt><trkpt lat="45.79699672833159" lon="9.117991701663081"><ele>338.1666666666667</ele><time>2026-04-11T14:35:22Z</time></trkpt><trkpt lat="45.79700300149544" lon="9.118136303580757"><ele>338.33333333333337</ele><time>2026-04-11T14:35:23Z</time></trkpt><trkpt lat="45.79700861370153" lon="9.118268626773155"><ele>338.5</ele><time>2026-04-11T14:35:24Z</time></trkpt><trkpt lat="45.79701452262522" lon="9.118383732608907"><ele>338.6666666666667</ele><time>2026-04-11T14:35:25Z</time></trkpt><trkpt lat="45.79701919442189" lon="9.118489045247061"><ele>338.8333333333333</ele><time>2026-04-11T14:35:26Z</time></trkpt><trkpt lat="45.79702210085339" lon="9.118588967024099"><ele>339.0</ele><time>2026-04-11T14:35:27Z</time></trkpt><trkpt lat="45.79702570190578" lon="9.118690240021314"><ele>339.4</ele><time>2026-04-11T14:35:28Z</time></trkpt><trkpt lat="45.79703090431795" lon="9.118790452432515"><ele>339.79999999999995</ele><time>2026-04-11T14:35:29Z</time></trkpt><trkpt lat="45.79703661645572" lon="9.118904220428943"><ele>340.20000000000005</ele><time>2026-04-11T14:35:30Z</time></trkpt><trkpt lat="45.79704665305032" lon="9.119037493176876"><ele>340.6</ele><time>2026-04-11T14:35:31Z</time></trkpt><trkpt lat="45.79705391159531" lon="9.119191471298311"><ele>341.0</ele><time>2026-04-11T14:35:32Z</time></trkpt><trkpt lat="45.7970605421778" lon="9.119356116281814"><ele>341.75</ele><time>2026-04-11T14:35:33Z</time></trkpt><trkpt lat="45.797067573397364" lon="9.11952800643127"><ele>342.5</ele><time>2026-04-11T14:35:34Z</time></trkpt><trkpt lat="45.797071195052276" lon="9.119712268165456"><ele>343.25</ele><time>2026-04-11T14:35:35Z</time></trkpt><trkpt lat="45.797081895493" lon="9.119898551235256"><ele>344.0</ele><time>2026-04-11T14:35:36Z</time></trkpt><trkpt lat="45.79709775832893" lon="9.120087479371442"><ele>346.0</ele><time>2026-04-11T14:35:37Z</time></trkpt><trkpt lat="45.7971140241932" lon="9.120278802098428"><ele>348.0</ele><time>2026-04-11T14:35:38Z</time></trkpt><trkpt lat="45.79712555916011" lon="9.120474382832377"><ele>350.0</ele><time>2026-04-11T14:35:39Z</time></trkpt><trkpt lat="45.79713141556509" lon="9.120673936185142"><ele>352.0</ele><time>2026-04-11T14:35:40Z</time></trkpt><trkpt lat="45.79713274209356" lon="9.120870706751"><ele>353.5</ele><time>2026-04-11T14:35:40.999Z</time></trkpt><trkpt lat="45.7971354887435" lon="9.121062714934634"><ele>355.0</ele><time>2026-04-11T14:35:41.999Z</time></trkpt><trkpt lat="45.79714206168294" lon="9.121251919498237"><ele>356.5</ele><time>2026-04-11T14:35:42.999Z</time></trkpt><trkpt lat="45.79714647462044" lon="9.121439163114228"><ele>358.0</ele><time>2026-04-11T14:35:43.999Z</time></trkpt><trkpt lat="45.797140739119286" lon="9.121628118140336"><ele>359.25</ele><time>2026-04-11T14:35:44.999Z</time></trkpt><trkpt lat="45.79712277448714" lon="9.12181634814204"><ele>360.5</ele><time>2026-04-11T14:35:45.999Z</time></trkpt><trkpt lat="45.797091398716546" lon="9.122003716553024"><ele>361.75</ele><time>2026-04-11T14:35:46.999Z</time></trkpt><trkpt lat="45.79705025943816" lon="9.12218880472741"><ele>363.0</ele><time>2026-04-11T14:35:47.999Z</time></trkpt><trkpt lat="45.796996964906356" lon="9.122367687443681"><ele>363.5</ele><time>2026-04-11T14:35:48.999Z</time></trkpt><trkpt lat="45.79693389775185" lon="9.122541665263899"><ele>364.0</ele><time>2026-04-11T14:35:49.999Z</time></trkpt><trkpt lat="45.79685732809808" lon="9.1227102229809"><ele>364.5</ele><time>2026-04-11T14:35:50.999Z</time></trkpt><trkpt lat="45.79677730123185" lon="9.122876443358097"><ele>365.0</ele><time>2026-04-11T14:35:51.999Z</time></trkpt><trkpt lat="45.79669650417447" lon="9.123038535367446"><ele>365.75</ele><time>2026-04-11T14:35:52.999Z</time></trkpt><trkpt lat="45.79661662249661" lon="9.123196183659005"><ele>366.5</ele><time>2026-04-11T14:35:53.999Z</time></trkpt><trkpt lat="45.796540483105865" lon="9.123350697564302"><ele>367.25</ele><time>2026-04-11T14:35:54.999Z</time></trkpt><trkpt lat="45.79646186752924" lon="9.123503251448232"><ele>368.0</ele><time>2026-04-11T14:35:55.999Z</time></trkpt><trkpt lat="45.796384992217064" lon="9.1236562673043"><ele>368.0</ele><time>2026-04-11T14:35:56.999Z</time></trkpt><trkpt lat="45.79631800389971" lon="9.123802212938072"><ele>368.0</ele><time>2026-04-11T14:35:57.999Z</time></trkpt><trkpt lat="45.7962498615892" lon="9.12394998511204"><ele>368.0</ele><time>2026-04-11T14:35:58.999Z</time></trkpt><trkpt lat="45.79618413003907" lon="9.124093487820174"><ele>368.0</ele><time>2026-04-11T14:35:59.999Z</time></trkpt><trkpt lat="45.7961123383595" lon="9.12424006327981"><ele>367.75</ele><time>2026-04-11T14:36:00.999Z</time></trkpt><trkpt lat="45.796034355784656" lon="9.124383650771419"><ele>367.5</ele><time>2026-04-11T14:36:01.999Z</time></trkpt><trkpt lat="45.795949742335544" lon="9.124534496020187"><ele>367.25</ele><time>2026-04-11T14:36:02.999Z</time></trkpt><trkpt lat="45.79586681635835" lon="9.124683610378826"><ele>367.0</ele><time>2026-04-11T14:36:03.999Z</time></trkpt><trkpt lat="45.7957903483538" lon="9.124823965592324"><ele>367.0</ele><time>2026-04-11T14:36:04.999Z</time></trkpt><trkpt lat="45.795722643717085" lon="9.12494247627448"><ele>367.0</ele><time>2026-04-11T14:36:05.999Z</time></trkpt><trkpt lat="45.79565853508016" lon="9.125046704400665"><ele>367.0</ele><time>2026-04-11T14:36:06.999Z</time></trkpt><trkpt lat="45.795601424956075" lon="9.125134821976696"><ele>367.0</ele><time>2026-04-11T14:36:07.999Z</time></trkpt><trkpt lat="45.795550586740696" lon="9.125216172112523"><ele>367.0</ele><time>2026-04-11T14:36:08.999Z</time></trkpt><trkpt lat="45.795494253908835" lon="9.125283349883965"><ele>367.0</ele><time>2026-04-11T14:36:09.999Z</time></trkpt><trkpt lat="45.79542303470718" lon="9.125332807876054"><ele>367.0</ele><time>2026-04-11T14:36:10.999Z</time></trkpt><trkpt lat="45.79535204645517" lon="9.125403433455345"><ele>367.0</ele><time>2026-04-11T14:36:11.999Z</time></trkpt><trkpt lat="45.79531477795527" lon="9.125528480050441"><ele>367.0</ele><time>2026-04-11T14:36:12.999Z</time></trkpt><trkpt lat="45.79530441525433" lon="9.12565947349407"><ele>367.0</ele><time>2026-04-11T14:36:13.999Z</time></trkpt><trkpt lat="45.79529159941038" lon="9.125767629676224"><ele>367.0</ele><time>2026-04-11T14:36:14.999Z</time></trkpt><trkpt lat="45.7952694642069" lon="9.12587190930771"><ele>367.0</ele><time>2026-04-11T14:36:15.999Z</time></trkpt><trkpt lat="45.79524168343058" lon="9.125973647711888"><ele>366.8333333333333</ele><time>2026-04-11T14:36:16.999Z</time></trkpt><trkpt lat="45.795208501324524" lon="9.12607184323693"><ele>366.66666666666663</ele><time>2026-04-11T14:36:17.999Z</time></trkpt><trkpt lat="45.79517056849721" lon="9.126164246146807"><ele>366.5</ele><time>2026-04-11T14:36:18.999Z</time></trkpt><trkpt lat="45.79512551119738" lon="9.126254477361265"><ele>366.3333333333333</ele><time>2026-04-11T14:36:19.999Z</time></trkpt><trkpt lat="45.795077304030315" lon="9.126347426217656"><ele>366.1666666666667</ele><time>2026-04-11T14:36:20.999Z</time></trkpt><trkpt lat="45.7950340486369" lon="9.126443906334744"><ele>366.0</ele><time>2026-04-11T14:36:21.999Z</time></trkpt><trkpt lat="45.795011500447536" lon="9.126545027821068"><ele>366.6</ele><time>2026-04-11T14:36:22.999Z</time></trkpt><trkpt lat="45.79501330606499" lon="9.12663834687072"><ele>367.20000000000005</ele><time>2026-04-11T14:36:23.999Z</time></trkpt><trkpt lat="45.79504194176837" lon="9.126741127650835"><ele>367.79999999999995</ele><time>2026-04-11T14:36:24.999Z</time></trkpt><trkpt lat="45.795087081432555" lon="9.12685156795151"><ele>368.4</ele><time>2026-04-11T14:36:25.999Z</time></trkpt><trkpt lat="45.79514141662273" lon="9.126991641127116"><ele>369.0</ele><time>2026-04-11T14:36:26.999Z</time></trkpt><trkpt lat="45.79518673877827" lon="9.127157957811722"><ele>369.0</ele><time>2026-04-11T14:36:27.999Z</time></trkpt><trkpt lat="45.7952152984308" lon="9.127335357829752"><ele>369.0</ele><time>2026-04-11T14:36:28.999Z</time></trkpt><trkpt lat="45.79523375775347" lon="9.127527297813597"><ele>369.0</ele><time>2026-04-11T14:36:29.999Z</time></trkpt><trkpt lat="45.795271399846406" lon="9.127713884843205"><ele>369.0</ele><time>2026-04-11T14:36:30.999Z</time></trkpt><trkpt lat="45.79534487382346" lon="9.127875359290128"><ele>370.5</ele><time>2026-04-11T14:36:31.999Z</time></trkpt><trkpt lat="45.79542852259677" lon="9.128033178431888"><ele>372.0</ele><time>2026-04-11T14:36:32.999Z</time></trkpt><trkpt lat="45.79550678530068" lon="9.12821026011027"><ele>373.5</ele><time>2026-04-11T14:36:33.999Z</time></trkpt><trkpt lat="45.79557487769416" lon="9.128409829800441"><ele>375.0</ele><time>2026-04-11T14:36:34.999Z</time></trkpt><trkpt lat="45.79563369819701" lon="9.12863660508798"><ele>378.33333333333337</ele><time>2026-04-11T14:36:35.999Z</time></trkpt><trkpt lat="45.79570036393653" lon="9.128864345822278"><ele>381.6666666666667</ele><time>2026-04-11T14:36:36.999Z</time></trkpt><trkpt lat="45.79577386732503" lon="9.129087733532234"><ele>385.0</ele><time>2026-04-11T14:36:37.999Z</time></trkpt><trkpt lat="45.79584787524427" lon="9.129310253210104"><ele>387.0</ele><time>2026-04-11T14:36:38.999Z</time></trkpt><trkpt lat="45.79592173403332" lon="9.129530145221194"><ele>389.0</ele><time>2026-04-11T14:36:40Z</time></trkpt><trkpt lat="45.795993808362255" lon="9.129744527631756"><ele>391.0</ele><time>2026-04-11T14:36:41Z</time></trkpt><trkpt lat="45.79605755464482" lon="9.129960151297597"><ele>391.0</ele><time>2026-04-11T14:36:42Z</time></trkpt><trkpt lat="45.79610538680265" lon="9.130185826775044"><ele>391.0</ele><time>2026-04-11T14:36:43Z</time></trkpt><trkpt lat="45.79613317897747" lon="9.130422657576371"><ele>391.0</ele><time>2026-04-11T14:36:44Z</time></trkpt><trkpt lat="45.796139963469095" lon="9.130663395705584"><ele>391.0</ele><time>2026-04-11T14:36:45Z</time></trkpt><trkpt lat="45.796124460586874" lon="9.130904513639054"><ele>391.0</ele><time>2026-04-11T14:36:46Z</time></trkpt><trkpt lat="45.79608706406081" lon="9.131144101615435"><ele>391.0</ele><time>2026-04-11T14:36:47Z</time></trkpt><trkpt lat="45.79603098907358" lon="9.131374906588466"><ele>396.0</ele><time>2026-04-11T14:36:48Z</time></trkpt><trkpt lat="45.795959546793476" lon="9.131599292346378"><ele>401.0</ele><time>2026-04-11T14:36:49Z</time></trkpt><trkpt lat="45.79587813667206" lon="9.13181634715329"><ele>406.0</ele><time>2026-04-11T14:36:50Z</time></trkpt><trkpt lat="45.79579533437307" lon="9.132024526609204"><ele>406.0</ele><time>2026-04-11T14:36:51Z</time></trkpt><trkpt lat="45.79571171658356" lon="9.132223300642229"><ele>406.0</ele><time>2026-04-11T14:36:52Z</time></trkpt><trkpt lat="45.795628864270924" lon="9.132420739137647"><ele>406.0</ele><time>2026-04-11T14:36:53Z</time></trkpt><trkpt lat="45.795550233933305" lon="9.132616776308623"><ele>404.6666666666667</ele><time>2026-04-11T14:36:54Z</time></trkpt><trkpt lat="45.79547168504147" lon="9.132809963918966"><ele>403.33333333333337</ele><time>2026-04-11T14:36:55Z</time></trkpt><trkpt lat="45.795390852834224" lon="9.133001348201171"><ele>402.0</ele><time>2026-04-11T14:36:56Z</time></trkpt><trkpt lat="45.795308892171796" lon="9.133191896885723"><ele>402.33333333333337</ele><time>2026-04-11T14:36:57Z</time></trkpt><trkpt lat="45.79523137735508" lon="9.133381810349896"><ele>402.6666666666667</ele><time>2026-04-11T14:36:58Z</time></trkpt><trkpt lat="45.79515808358713" lon="9.133570204690432"><ele>403.0</ele><time>2026-04-11T14:36:59Z</time></trkpt><trkpt lat="45.79508472583321" lon="9.133754156871047"><ele>405.75</ele><time>2026-04-11T14:37:00Z</time></trkpt><trkpt lat="45.795011476544744" lon="9.133934231199202"><ele>408.5</ele><time>2026-04-11T14:37:01Z</time></trkpt><trkpt lat="45.79494008293532" lon="9.134114009768831"><ele>411.25</ele><time>2026-04-11T14:37:02Z</time></trkpt><trkpt lat="45.794875687809096" lon="9.13429549385713"><ele>414.0</ele><time>2026-04-11T14:37:03Z</time></trkpt><trkpt lat="45.79482250924883" lon="9.134482005549401"><ele>414.0</ele><time>2026-04-11T14:37:04Z</time></trkpt><trkpt lat="45.79478501422251" lon="9.134676415957584"><ele>414.0</ele><time>2026-04-11T14:37:05Z</time></trkpt><trkpt lat="45.79476132804388" lon="9.13487728224442"><ele>414.0</ele><time>2026-04-11T14:37:06Z</time></trkpt><trkpt lat="45.79474835603697" lon="9.135085206659241"><ele>414.0</ele><time>2026-04-11T14:37:07Z</time></trkpt><trkpt lat="45.794747383873876" lon="9.135298311303119"><ele>414.0</ele><time>2026-04-11T14:37:08Z</time></trkpt><trkpt lat="45.79475099167774" lon="9.135514956237312"><ele>414.0</ele><time>2026-04-11T14:37:09Z</time></trkpt><trkpt lat="45.79475525472708" lon="9.135727434860797"><ele>414.0</ele><time>2026-04-11T14:37:10Z</time></trkpt><trkpt lat="45.79476014852423" lon="9.135940698886477"><ele>414.0</ele><time>2026-04-11T14:37:11Z</time></trkpt><trkpt lat="45.794765522312055" lon="9.136165573174884"><ele>413.0</ele><time>2026-04-11T14:37:12Z</time></trkpt><trkpt lat="45.79477214394285" lon="9.13640977379374"><ele>412.0</ele><time>2026-04-11T14:37:13Z</time></trkpt><trkpt lat="45.79477610763116" lon="9.136668971312343"><ele>411.0</ele><time>2026-04-11T14:37:14Z</time></trkpt><trkpt lat="45.794775228354666" lon="9.136933865372011"><ele>411.0</ele><time>2026-04-11T14:37:15Z</time></trkpt><trkpt lat="45.79477448089585" lon="9.137199031718914"><ele>411.0</ele><time>2026-04-11T14:37:16Z</time></trkpt><trkpt lat="45.794773563696" lon="9.13746373372837"><ele>411.0</ele><time>2026-04-11T14:37:17Z</time></trkpt><trkpt lat="45.79477108356476" lon="9.137727519534685"><ele>411.0</ele><time>2026-04-11T14:37:18Z</time></trkpt><trkpt lat="45.79477307707581" lon="9.137983321441848"><ele>411.0</ele><time>2026-04-11T14:37:19Z</time></trkpt><trkpt lat="45.79478318277295" lon="9.138244584760194"><ele>411.0</ele><time>2026-04-11T14:37:20Z</time></trkpt><trkpt lat="45.79479278708226" lon="9.138488587110132"><ele>411.0</ele><time>2026-04-11T14:37:21Z</time></trkpt><trkpt lat="45.79479715055763" lon="9.1387221535321"><ele>411.0</ele><time>2026-04-11T14:37:22Z</time></trkpt><trkpt lat="45.79480152183661" lon="9.138958869881458"><ele>411.0</ele><time>2026-04-11T14:37:23Z</time></trkpt><trkpt lat="45.79480603990928" lon="9.139195215511739"><ele>411.0</ele><time>2026-04-11T14:37:24Z</time></trkpt><trkpt lat="45.79480948549765" lon="9.139430192827362"><ele>411.0</ele><time>2026-04-11T14:37:25Z</time></trkpt><trkpt lat="45.794813742312506" lon="9.13966345265694"><ele>411.0</ele><time>2026-04-11T14:37:26Z</time></trkpt><trkpt lat="45.794812404626434" lon="9.139887228260104"><ele>410.5</ele><time>2026-04-11T14:37:27Z</time></trkpt><trkpt lat="45.79482084399037" lon="9.140099750371697"><ele>410.0</ele><time>2026-04-11T14:37:28Z</time></trkpt><trkpt lat="45.79483808321873" lon="9.140297318658748"><ele>409.5</ele><time>2026-04-11T14:37:29Z</time></trkpt><trkpt lat="45.79485419279543" lon="9.140482117443822"><ele>409.0</ele><time>2026-04-11T14:37:30Z</time></trkpt><trkpt lat="45.79486461394821" lon="9.140657969228892"><ele>409.0</ele><time>2026-04-11T14:37:31Z</time></trkpt><trkpt lat="45.794865755482185" lon="9.140816272324326"><ele>409.0</ele><time>2026-04-11T14:37:32Z</time></trkpt><trkpt lat="45.794861402585056" lon="9.140945734933158"><ele>409.0</ele><time>2026-04-11T14:37:33Z</time></trkpt><trkpt lat="45.794851633048275" lon="9.141081371862104"><ele>409.0</ele><time>2026-04-11T14:37:34Z</time></trkpt><trkpt lat="45.79483835995797" lon="9.141212836827298"><ele>409.0</ele><time>2026-04-11T14:37:35Z</time></trkpt><trkpt lat="45.794832420820015" lon="9.141341440586851"><ele>409.0</ele><time>2026-04-11T14:37:36Z</time></trkpt><trkpt lat="45.794839295592595" lon="9.1414748480571"><ele>409.0</ele><time>2026-04-11T14:37:37Z</time></trkpt><trkpt lat="45.7948440808974" lon="9.141620926567864"><ele>409.0</ele><time>2026-04-11T14:37:38Z</time></trkpt><trkpt lat="45.794846137031655" lon="9.141776643843576"><ele>409.0</ele><time>2026-04-11T14:37:39Z</time></trkpt><trkpt lat="45.79484539197809" lon="9.141942071402958"><ele>409.0</ele><time>2026-04-11T14:37:39.999Z</time></trkpt><trkpt lat="45.79484322813999" lon="9.142117974777108"><ele>410.25</ele><time>2026-04-11T14:37:40.999Z</time></trkpt><trkpt lat="45.79484294637491" lon="9.142311553481019"><ele>411.5</ele><time>2026-04-11T14:37:41.999Z</time></trkpt><trkpt lat="45.79483974066625" lon="9.14251365851689"><ele>412.75</ele><time>2026-04-11T14:37:42.999Z</time></trkpt><trkpt lat="45.794815789247934" lon="9.142720973649507"><ele>414.0</ele><time>2026-04-11T14:37:43.999Z</time></trkpt><trkpt lat="45.79482746079315" lon="9.142937546202777"><ele>414.0</ele><time>2026-04-11T14:37:44.999Z</time></trkpt><trkpt lat="45.79481326779577" lon="9.143158392720524"><ele>414.0</ele><time>2026-04-11T14:37:45.999Z</time></trkpt><trkpt lat="45.79479782961566" lon="9.143383177265157"><ele>414.0</ele><time>2026-04-11T14:37:46.999Z</time></trkpt><trkpt lat="45.79478004980727" lon="9.143611370135684"><ele>413.0</ele><time>2026-04-11T14:37:47.999Z</time></trkpt><trkpt lat="45.794761087351894" lon="9.143838762134195"><ele>412.0</ele><time>2026-04-11T14:37:48.999Z</time></trkpt><trkpt lat="45.79474315343772" lon="9.144066292539883"><ele>411.0</ele><time>2026-04-11T14:37:49.999Z</time></trkpt><trkpt lat="45.79472858434623" lon="9.144290092176464"><ele>410.75</ele><time>2026-04-11T14:37:50.999Z</time></trkpt><trkpt lat="45.794715945805734" lon="9.144510695139209"><ele>410.5</ele><time>2026-04-11T14:37:51.999Z</time></trkpt><trkpt lat="45.79470195156511" lon="9.14471901459251"><ele>410.25</ele><time>2026-04-11T14:37:52.999Z</time></trkpt><trkpt lat="45.7946884890378" lon="9.144916576855785"><ele>410.0</ele><time>2026-04-11T14:37:53.999Z</time></trkpt><trkpt lat="45.79467734033029" lon="9.145106729391566"><ele>409.25</ele><time>2026-04-11T14:37:54.999Z</time></trkpt><trkpt lat="45.79466729695575" lon="9.14528491813055"><ele>408.5</ele><time>2026-04-11T14:37:55.999Z</time></trkpt><trkpt lat="45.794656813911836" lon="9.145457070883944"><ele>407.75</ele><time>2026-04-11T14:37:56.999Z</time></trkpt><trkpt lat="45.7946437357589" lon="9.145625856883374"><ele>407.0</ele><time>2026-04-11T14:37:57.999Z</time></trkpt><trkpt lat="45.79462717154398" lon="9.145801743932186"><ele>406.75</ele><time>2026-04-11T14:37:58.999Z</time></trkpt><trkpt lat="45.794609687615434" lon="9.145983942820866"><ele>406.5</ele><time>2026-04-11T14:37:59.999Z</time></trkpt><trkpt lat="45.7945955547665" lon="9.14617347407831"><ele>406.25</ele><time>2026-04-11T14:38:00.999Z</time></trkpt><trkpt lat="45.79458153858905" lon="9.146367208500811"><ele>406.0</ele><time>2026-04-11T14:38:01.999Z</time></trkpt><trkpt lat="45.79456696381375" lon="9.146566269043417"><ele>406.0</ele><time>2026-04-11T14:38:02.999Z</time></trkpt><trkpt lat="45.79455139168639" lon="9.146769459684059"><ele>406.0</ele><time>2026-04-11T14:38:03.999Z</time></trkpt><trkpt lat="45.79453730642758" lon="9.146976210132918"><ele>406.0</ele><time>2026-04-11T14:38:04.999Z</time></trkpt><trkpt lat="45.794522916929644" lon="9.147186248134785"><ele>406.0</ele><time>2026-04-11T14:38:05.999Z</time></trkpt><trkpt lat="45.7945102514549" lon="9.147396957609367"><ele>406.0</ele><time>2026-04-11T14:38:06.999Z</time></trkpt><trkpt lat="45.794493594956776" lon="9.147610221263522"><ele>406.0</ele><time>2026-04-11T14:38:07.999Z</time></trkpt><trkpt lat="45.79447688405086" lon="9.147820597943069"><ele>406.0</ele><time>2026-04-11T14:38:08.999Z</time></trkpt><trkpt lat="45.79446053255123" lon="9.148026660483046"><ele>406.0</ele><time>2026-04-11T14:38:09.999Z</time></trkpt><trkpt lat="45.79444474828992" lon="9.148231834210707"><ele>406.0</ele><time>2026-04-11T14:38:10.999Z</time></trkpt><trkpt lat="45.79442871590883" lon="9.148436324917007"><ele>406.0</ele><time>2026-04-11T14:38:11.999Z</time></trkpt><trkpt lat="45.7944111529492" lon="9.148642075350862"><ele>406.0</ele><time>2026-04-11T14:38:12.999Z</time></trkpt><trkpt lat="45.79439329098518" lon="9.148847413832646"><ele>406.0</ele><time>2026-04-11T14:38:13.999Z</time></trkpt><trkpt lat="45.7943758190314" lon="9.149051671699825"><ele>406.0</ele><time>2026-04-11T14:38:14.999Z</time></trkpt><trkpt lat="45.79436095435009" lon="9.149255828040223"><ele>406.0</ele><time>2026-04-11T14:38:15.999Z</time></trkpt><trkpt lat="45.79434889998216" lon="9.149459126925056"><ele>406.0</ele><time>2026-04-11T14:38:16.999Z</time></trkpt><trkpt lat="45.79433490573697" lon="9.149660836072995"><ele>406.0</ele><time>2026-04-11T14:38:17.999Z</time></trkpt><trkpt lat="45.79431355709851" lon="9.149817573814682"><ele>405.83333333333337</ele><time>2026-04-11T14:38:18.999Z</time></trkpt><trkpt lat="45.794309316645446" lon="9.149937563589361"><ele>405.6666666666667</ele><time>2026-04-11T14:38:20.999Z</time></trkpt><trkpt lat="45.79426817175015" lon="9.150085638162484"><ele>405.5</ele><time>2026-04-11T14:38:22.999Z</time></trkpt><trkpt lat="45.794247070654535" lon="9.150185020314183"><ele>405.33333333333337</ele><time>2026-04-11T14:38:23.999Z</time></trkpt><trkpt lat="45.79421681972521" lon="9.150290184581358"><ele>405.1666666666667</ele><time>2026-04-11T14:38:24.999Z</time></trkpt><trkpt lat="45.79418151904541" lon="9.150395097169712"><ele>405.0</ele><time>2026-04-11T14:38:25.999Z</time></trkpt><trkpt lat="45.79416195171356" lon="9.150506601240833"><ele>405.0</ele><time>2026-04-11T14:38:26.999Z</time></trkpt><trkpt lat="45.794099893263905" lon="9.150594606985235"><ele>405.0</ele><time>2026-04-11T14:38:27.999Z</time></trkpt><trkpt lat="45.79408428645959" lon="9.150713103953878"><ele>405.0</ele><time>2026-04-11T14:38:28.999Z</time></trkpt><trkpt lat="45.79410561628476" lon="9.150838143596074"><ele>405.0</ele><time>2026-04-11T14:38:29.999Z</time></trkpt><trkpt lat="45.79416853714974" lon="9.150931732855453"><ele>405.0</ele><time>2026-04-11T14:38:30.999Z</time></trkpt><trkpt lat="45.7942443027234" lon="9.151000757831184"><ele>405.0</ele><time>2026-04-11T14:38:31.999Z</time></trkpt><trkpt lat="45.794293821755154" lon="9.15110985582397"><ele>404.5</ele><time>2026-04-11T14:38:32.999Z</time></trkpt><trkpt lat="45.7943094758548" lon="9.151256761606565"><ele>404.0</ele><time>2026-04-11T14:38:33.999Z</time></trkpt><trkpt lat="45.794316361640035" lon="9.151413327136762"><ele>403.5</ele><time>2026-04-11T14:38:34.999Z</time></trkpt><trkpt lat="45.794324164053506" lon="9.151590841293634"><ele>403.0</ele><time>2026-04-11T14:38:35.999Z</time></trkpt><trkpt lat="45.79433545479857" lon="9.15179769858983"><ele>403.33333333333337</ele><time>2026-04-11T14:38:36.999Z</time></trkpt><trkpt lat="45.79434870073352" lon="9.152037171074502"><ele>403.66666666666663</ele><time>2026-04-11T14:38:37.999Z</time></trkpt><trkpt lat="45.794361601375115" lon="9.152291630831854"><ele>404.0</ele><time>2026-04-11T14:38:38.999Z</time></trkpt><trkpt lat="45.794372027904444" lon="9.152557060604646"><ele>404.0</ele><time>2026-04-11T14:38:39.999Z</time></trkpt><trkpt lat="45.79437965855434" lon="9.152821352005883"><ele>404.0</ele><time>2026-04-11T14:38:40.999Z</time></trkpt><trkpt lat="45.794386385161474" lon="9.153083678368425"><ele>404.0</ele><time>2026-04-11T14:38:41.999Z</time></trkpt><trkpt lat="45.79439369225284" lon="9.153348104031448"><ele>405.0</ele><time>2026-04-11T14:38:42.999Z</time></trkpt><trkpt lat="45.794396793353734" lon="9.153615257891976"><ele>406.0</ele><time>2026-04-11T14:38:43.999Z</time></trkpt><trkpt lat="45.7944002423937" lon="9.153886361766931"><ele>407.0</ele><time>2026-04-11T14:38:44.999Z</time></trkpt><trkpt lat="45.79440768244462" lon="9.154161902363102"><ele>409.3333333333333</ele><time>2026-04-11T14:38:46Z</time></trkpt><trkpt lat="45.79441637358371" lon="9.154440048548295"><ele>411.66666666666663</ele><time>2026-04-11T14:38:47Z</time></trkpt><trkpt lat="45.79442660560952" lon="9.154719892787444"><ele>414.0</ele><time>2026-04-11T14:38:48Z</time></trkpt><trkpt lat="45.79443840145222" lon="9.155002241237838"><ele>415.0</ele><time>2026-04-11T14:38:49Z</time></trkpt><trkpt lat="45.79444989452875" lon="9.155284328190492"><ele>416.0</ele><time>2026-04-11T14:38:50Z</time></trkpt><trkpt lat="45.79446076767702" lon="9.155560760045699"><ele>417.0</ele><time>2026-04-11T14:38:51Z</time></trkpt><trkpt lat="45.79447333935051" lon="9.155835737664527"><ele>417.66666666666663</ele><time>2026-04-11T14:38:52Z</time></trkpt><trkpt lat="45.79448639180951" lon="9.156104375976362"><ele>418.3333333333333</ele><time>2026-04-11T14:38:53Z</time></trkpt><trkpt lat="45.7944980719415" lon="9.156369318599832"><ele>419.0</ele><time>2026-04-11T14:38:54Z</time></trkpt><trkpt lat="45.79450808649225" lon="9.15662826855378"><ele>417.0</ele><time>2026-04-11T14:38:55Z</time></trkpt><trkpt lat="45.79451726258198" lon="9.156884542619261"><ele>415.0</ele><time>2026-04-11T14:38:56Z</time></trkpt><trkpt lat="45.794525329722795" lon="9.15714068131588"><ele>413.0</ele><time>2026-04-11T14:38:57Z</time></trkpt><trkpt lat="45.7945345577808" lon="9.157394584263661"><ele>410.3333333333333</ele><time>2026-04-11T14:38:58Z</time></trkpt><trkpt lat="45.79454420338982" lon="9.157639981515256"><ele>407.66666666666663</ele><time>2026-04-11T14:38:59Z</time></trkpt><trkpt lat="45.7945536449614" lon="9.157875969089611"><ele>405.0</ele><time>2026-04-11T14:39:00Z</time></trkpt><trkpt lat="45.794562365582216" lon="9.158102005918419"><ele>404.0</ele><time>2026-04-11T14:39:01Z</time></trkpt><trkpt lat="45.794570524659584" lon="9.158318249936388"><ele>403.0</ele><time>2026-04-11T14:39:02Z</time></trkpt><trkpt lat="45.79457818412524" lon="9.158526558415796"><ele>402.0</ele><time>2026-04-11T14:39:03Z</time></trkpt><trkpt lat="45.79458615977415" lon="9.15872571456296"><ele>401.0</ele><time>2026-04-11T14:39:04Z</time></trkpt><trkpt lat="45.79459566243791" lon="9.158908308135297"><ele>401.0</ele><time>2026-04-11T14:39:05Z</time></trkpt><trkpt lat="45.79460423649035" lon="9.159074549617452"><ele>401.0</ele><time>2026-04-11T14:39:06Z</time></trkpt><trkpt lat="45.79461158075754" lon="9.15922362059146"><ele>401.0</ele><time>2026-04-11T14:39:07Z</time></trkpt><trkpt lat="45.794615745131516" lon="9.159355211927393"><ele>401.0</ele><time>2026-04-11T14:39:08Z</time></trkpt><trkpt lat="45.79461826317186" lon="9.159458536575375"><ele>401.0</ele><time>2026-04-11T14:39:09Z</time></trkpt><trkpt lat="45.79461792515531" lon="9.159560691159555"><ele>400.99999999999994</ele><time>2026-04-11T14:39:10Z</time></trkpt><trkpt lat="45.79461129212243" lon="9.159657893374792"><ele>401.0</ele><time>2026-04-11T14:39:11Z</time></trkpt><trkpt lat="45.79459797553759" lon="9.159761960977159"><ele>401.0</ele><time>2026-04-11T14:39:12Z</time></trkpt><trkpt lat="45.794577616358" lon="9.159871374783007"><ele>401.0</ele><time>2026-04-11T14:39:13Z</time></trkpt><trkpt lat="45.79456843110349" lon="9.15998291926207"><ele>400.99999999999994</ele><time>2026-04-11T14:39:14Z</time></trkpt><trkpt lat="45.794582455578784" lon="9.16009290117875"><ele>401.0</ele><time>2026-04-11T14:39:15Z</time></trkpt><trkpt lat="45.79461027026455" lon="9.160206867664979"><ele>401.20000000000005</ele><time>2026-04-11T14:39:16Z</time></trkpt><trkpt lat="45.79463288871757" lon="9.160334727196721"><ele>401.40000000000003</ele><time>2026-04-11T14:39:17Z</time></trkpt><trkpt lat="45.79464116883847" lon="9.16047319563495"><ele>401.6</ele><time>2026-04-11T14:39:18Z</time></trkpt><trkpt lat="45.794641516592236" lon="9.160623983181916"><ele>401.8</ele><time>2026-04-11T14:39:19Z</time></trkpt><trkpt lat="45.79464393886456" lon="9.16078545759474"><ele>402.0</ele><time>2026-04-11T14:39:20Z</time></trkpt><trkpt lat="45.79464553876772" lon="9.16096291604345"><ele>402.0</ele><time>2026-04-11T14:39:21Z</time></trkpt><trkpt lat="45.79464165775493" lon="9.161147086660486"><ele>402.0</ele><time>2026-04-11T14:39:22Z</time></trkpt><trkpt lat="45.79463202848" lon="9.16133460296579"><ele>402.0</ele><time>2026-04-11T14:39:23Z</time></trkpt><trkpt lat="45.794614381889154" lon="9.16152294685724"><ele>402.0</ele><time>2026-04-11T14:39:24Z</time></trkpt><trkpt lat="45.794592060645755" lon="9.161709656206908"><ele>400.8</ele><time>2026-04-11T14:39:25Z</time></trkpt><trkpt lat="45.79457367702606" lon="9.16187488142985"><ele>399.6</ele><time>2026-04-11T14:39:26Z</time></trkpt><trkpt lat="45.794550209324534" lon="9.162022322559025"><ele>398.40000000000003</ele><time>2026-04-11T14:39:27Z</time></trkpt><trkpt lat="45.794525260597176" lon="9.162164710597125"><ele>397.20000000000005</ele><time>2026-04-11T14:39:28Z</time></trkpt><trkpt lat="45.79449807498847" lon="9.16230119626257"><ele>396.0</ele><time>2026-04-11T14:39:29Z</time></trkpt><trkpt lat="45.79446986845501" lon="9.16243321898494"><ele>395.6</ele><time>2026-04-11T14:39:30Z</time></trkpt><trkpt lat="45.79443932046193" lon="9.162579221006206"><ele>395.20000000000005</ele><time>2026-04-11T14:39:31Z</time></trkpt><trkpt lat="45.79440713542363" lon="9.162728493339888"><ele>394.79999999999995</ele><time>2026-04-11T14:39:32Z</time></trkpt><trkpt lat="45.79437415059912" lon="9.162884220792392"><ele>394.4</ele><time>2026-04-11T14:39:33Z</time></trkpt><trkpt lat="45.79434252730719" lon="9.163041752271416"><ele>394.0</ele><time>2026-04-11T14:39:34Z</time></trkpt><trkpt lat="45.79431017109373" lon="9.16320611378242"><ele>393.75</ele><time>2026-04-11T14:39:35Z</time></trkpt><trkpt lat="45.794277951498785" lon="9.163376628346183"><ele>393.5</ele><time>2026-04-11T14:39:36Z</time></trkpt><trkpt lat="45.79424481439583" lon="9.163549565553536"><ele>393.25</ele><time>2026-04-11T14:39:37Z</time></trkpt><trkpt lat="45.794207277975886" lon="9.163724125546258"><ele>393.0</ele><time>2026-04-11T14:39:38Z</time></trkpt><trkpt lat="45.79416694941224" lon="9.163897280842981"><ele>392.75</ele><time>2026-04-11T14:39:39Z</time></trkpt><trkpt lat="45.79412748694462" lon="9.164071833490762"><ele>392.5</ele><time>2026-04-11T14:39:40Z</time></trkpt><trkpt lat="45.794089691089695" lon="9.164246122961512"><ele>392.25</ele><time>2026-04-11T14:39:41Z</time></trkpt><trkpt lat="45.79405373916134" lon="9.164421719310829"><ele>392.0</ele><time>2026-04-11T14:39:41.999Z</time></trkpt><trkpt lat="45.79402044890966" lon="9.164592028220278"><ele>392.0</ele><time>2026-04-11T14:39:42.999Z</time></trkpt><trkpt lat="45.7939891197066" lon="9.16474417181359"><ele>392.0</ele><time>2026-04-11T14:39:43.999Z</time></trkpt><trkpt lat="45.79395995042886" lon="9.164884172180217"><ele>392.0</ele><time>2026-04-11T14:39:44.999Z</time></trkpt><trkpt lat="45.7939330839331" lon="9.165014459175401"><ele>392.0</ele><time>2026-04-11T14:39:45.999Z</time></trkpt><trkpt lat="45.79390831557349" lon="9.165137440273384"><ele>392.0</ele><time>2026-04-11T14:39:46.999Z</time></trkpt><trkpt lat="45.79388542976095" lon="9.165256721978482"><ele>391.8333333333333</ele><time>2026-04-11T14:39:47.999Z</time></trkpt><trkpt lat="45.793862106574515" lon="9.165374437385333"><ele>391.66666666666663</ele><time>2026-04-11T14:39:48.999Z</time></trkpt><trkpt lat="45.793835844974346" lon="9.165491051581215"><ele>391.5</ele><time>2026-04-11T14:39:49.999Z</time></trkpt><trkpt lat="45.79380011180654" lon="9.165601619470598"><ele>391.33333333333337</ele><time>2026-04-11T14:39:50.999Z</time></trkpt><trkpt lat="45.79375934802547" lon="9.165713994946081"><ele>391.1666666666667</ele><time>2026-04-11T14:39:51.999Z</time></trkpt><trkpt lat="45.79373608984459" lon="9.165840467067515"><ele>391.0</ele><time>2026-04-11T14:39:52.999Z</time></trkpt><trkpt lat="45.793736604872954" lon="9.165989949007738"><ele>391.0</ele><time>2026-04-11T14:39:53.999Z</time></trkpt><trkpt lat="45.79370857587661" lon="9.166148176741373"><ele>391.0</ele><time>2026-04-11T14:39:54.999Z</time></trkpt><trkpt lat="45.79366970717853" lon="9.16631431084807"><ele>391.0</ele><time>2026-04-11T14:39:55.999Z</time></trkpt><trkpt lat="45.793633651936396" lon="9.166481274098858"><ele>391.0</ele><time>2026-04-11T14:39:56.999Z</time></trkpt><trkpt lat="45.79360109906325" lon="9.166651094685179"><ele>391.5</ele><time>2026-04-11T14:39:57.999Z</time></trkpt><trkpt lat="45.793572909052834" lon="9.166825257073578"><ele>392.0</ele><time>2026-04-11T14:39:58.999Z</time></trkpt><trkpt lat="45.79354811955904" lon="9.166997098042373"><ele>392.5</ele><time>2026-04-11T14:39:59.999Z</time></trkpt><trkpt lat="45.793527208568726" lon="9.167170636416591"><ele>393.0</ele><time>2026-04-11T14:40:00.999Z</time></trkpt><trkpt lat="45.79351110373398" lon="9.167345987432896"><ele>392.75</ele><time>2026-04-11T14:40:01.999Z</time></trkpt><trkpt lat="45.79350135155348" lon="9.167521941974242"><ele>392.5</ele><time>2026-04-11T14:40:02.999Z</time></trkpt><trkpt lat="45.79349787567453" lon="9.167695965722968"><ele>392.25</ele><time>2026-04-11T14:40:03.999Z</time></trkpt><trkpt lat="45.79349670095287" lon="9.167861972491883"><ele>392.0</ele><time>2026-04-11T14:40:04.999Z</time></trkpt><trkpt lat="45.79349684645299" lon="9.168025792153928"><ele>392.0</ele><time>2026-04-11T14:40:05.999Z</time></trkpt><trkpt lat="45.793499620095034" lon="9.168191072007895"><ele>392.0</ele><time>2026-04-11T14:40:06.999Z</time></trkpt><trkpt lat="45.79350359321152" lon="9.168359919729202"><ele>392.0</ele><time>2026-04-11T14:40:07.999Z</time></trkpt><trkpt lat="45.79350681856143" lon="9.168532895111964"><ele>392.0</ele><time>2026-04-11T14:40:08.999Z</time></trkpt><trkpt lat="45.793513011120204" lon="9.168706331264524"><ele>393.25</ele><time>2026-04-11T14:40:09.999Z</time></trkpt><trkpt lat="45.79351865598582" lon="9.16887944360481"><ele>394.5</ele><time>2026-04-11T14:40:10.999Z</time></trkpt><trkpt lat="45.79352471871501" lon="9.169058561269669"><ele>395.75</ele><time>2026-04-11T14:40:11.999Z</time></trkpt><trkpt lat="45.793533560943295" lon="9.169242483902366"><ele>397.0</ele><time>2026-04-11T14:40:12.999Z</time></trkpt><trkpt lat="45.79354286182346" lon="9.169425921396442"><ele>397.25</ele><time>2026-04-11T14:40:13.999Z</time></trkpt><trkpt lat="45.79354999819329" lon="9.169595502941558"><ele>397.5</ele><time>2026-04-11T14:40:14.999Z</time></trkpt><trkpt lat="45.79353816543779" lon="9.16975700971783"><ele>397.75</ele><time>2026-04-11T14:40:15.999Z</time></trkpt><trkpt lat="45.79354286008838" lon="9.169927118099142"><ele>398.0</ele><time>2026-04-11T14:40:16.999Z</time></trkpt><trkpt lat="45.79354776855841" lon="9.17010575333973"><ele>398.0</ele><time>2026-04-11T14:40:17.999Z</time></trkpt><trkpt lat="45.79355293408114" lon="9.170293743237485"><ele>398.0</ele><time>2026-04-11T14:40:18.999Z</time></trkpt><trkpt lat="45.79355829065346" lon="9.170488686059619"><ele>398.0</ele><time>2026-04-11T14:40:19.999Z</time></trkpt><trkpt lat="45.79356367809213" lon="9.17069409286637"><ele>398.0</ele><time>2026-04-11T14:40:20.999Z</time></trkpt><trkpt lat="45.793569275620264" lon="9.170913602351755"><ele>398.3333333333333</ele><time>2026-04-11T14:40:21.999Z</time></trkpt><trkpt lat="45.79357470490601" lon="9.17114792279851"><ele>398.66666666666663</ele><time>2026-04-11T14:40:22.999Z</time></trkpt><trkpt lat="45.79358104659648" lon="9.171404391758575"><ele>399.0</ele><time>2026-04-11T14:40:23.999Z</time></trkpt><trkpt lat="45.79358754987524" lon="9.171664197727868"><ele>399.0</ele><time>2026-04-11T14:40:24.999Z</time></trkpt><trkpt lat="45.793607095858114" lon="9.171924245956642"><ele>399.0</ele><time>2026-04-11T14:40:25.999Z</time></trkpt><trkpt lat="45.79360949330246" lon="9.172175906633436"><ele>399.0</ele><time>2026-04-11T14:40:26.999Z</time></trkpt><trkpt lat="45.793613365137475" lon="9.172422002712004"><ele>399.0</ele><time>2026-04-11T14:40:27.999Z</time></trkpt><trkpt lat="45.793619894407676" lon="9.172664160672076"><ele>399.0</ele><time>2026-04-11T14:40:28.999Z</time></trkpt><trkpt lat="45.79362791583133" lon="9.17290358422403"><ele>399.0</ele><time>2026-04-11T14:40:29.999Z</time></trkpt><trkpt lat="45.79363629313418" lon="9.173142256844057"><ele>399.0</ele><time>2026-04-11T14:40:30.999Z</time></trkpt><trkpt lat="45.79364243501771" lon="9.173375722457866"><ele>399.0</ele><time>2026-04-11T14:40:31.999Z</time></trkpt><trkpt lat="45.79365048738901" lon="9.173592818297076"><ele>399.0</ele><time>2026-04-11T14:40:32.999Z</time></trkpt><trkpt lat="45.79365584234405" lon="9.173797164125492"><ele>399.0</ele><time>2026-04-11T14:40:33.999Z</time></trkpt><trkpt lat="45.793658057310964" lon="9.173994423452372"><ele>399.0</ele><time>2026-04-11T14:40:34.999Z</time></trkpt><trkpt lat="45.79366254053817" lon="9.1741757764063"><ele>399.0</ele><time>2026-04-11T14:40:35.999Z</time></trkpt><trkpt lat="45.79366728171656" lon="9.174364173736574"><ele>399.0</ele><time>2026-04-11T14:40:36.999Z</time></trkpt><trkpt lat="45.79367545449574" lon="9.17455811727103"><ele>399.0</ele><time>2026-04-11T14:40:37.999Z</time></trkpt><trkpt lat="45.79368329503115" lon="9.174757835822374"><ele>399.0</ele><time>2026-04-11T14:40:38.999Z</time></trkpt><trkpt lat="45.793688158694664" lon="9.174965222608572"><ele>399.0</ele><time>2026-04-11T14:40:39.999Z</time></trkpt><trkpt lat="45.79369321044749" lon="9.175179339982511"><ele>399.0</ele><time>2026-04-11T14:40:40.999Z</time></trkpt><trkpt lat="45.79369939093783" lon="9.175391933337224"><ele>398.5</ele><time>2026-04-11T14:40:41.999Z</time></trkpt><trkpt lat="45.793689775716594" lon="9.17560574607535"><ele>398.0</ele><time>2026-04-11T14:40:42.999Z</time></trkpt><trkpt lat="45.79369557526941" lon="9.175807924057366"><ele>397.5</ele><time>2026-04-11T14:40:43.999Z</time></trkpt><trkpt lat="45.79370092974052" lon="9.1760182636701"><ele>397.0</ele><time>2026-04-11T14:40:44.999Z</time></trkpt><trkpt lat="45.79370632104805" lon="9.176237641420673"><ele>397.0</ele><time>2026-04-11T14:40:45.999Z</time></trkpt><trkpt lat="45.79371193470424" lon="9.176466066758213"><ele>397.0</ele><time>2026-04-11T14:40:46.999Z</time></trkpt><trkpt lat="45.79371800327941" lon="9.176696466991405"><ele>397.0</ele><time>2026-04-11T14:40:47.999Z</time></trkpt><trkpt lat="45.79372454617851" lon="9.176930263244456"><ele>397.0</ele><time>2026-04-11T14:40:48.999Z</time></trkpt><trkpt lat="45.79373058072043" lon="9.17715489080751"><ele>397.0</ele><time>2026-04-11T14:40:49.999Z</time></trkpt><trkpt lat="45.79373638355146" lon="9.177380806846706"><ele>397.0</ele><time>2026-04-11T14:40:50.999Z</time></trkpt><trkpt lat="45.7937419361149" lon="9.17761029786432"><ele>397.0</ele><time>2026-04-11T14:40:52Z</time></trkpt><trkpt lat="45.793748409355636" lon="9.1778405375718"><ele>397.0</ele><time>2026-04-11T14:40:53Z</time></trkpt><trkpt lat="45.79375564287057" lon="9.178072106545908"><ele>397.0</ele><time>2026-04-11T14:40:54Z</time></trkpt><trkpt lat="45.793761664343506" lon="9.17830470102856"><ele>397.0</ele><time>2026-04-11T14:40:55Z</time></trkpt><trkpt lat="45.79376683570884" lon="9.178539058238844"><ele>397.0</ele><time>2026-04-11T14:40:56Z</time></trkpt><trkpt lat="45.793772799525115" lon="9.178776445036085"><ele>397.0</ele><time>2026-04-11T14:40:57Z</time></trkpt><trkpt lat="45.793779337126956" lon="9.179016701901809"><ele>396.6666666666667</ele><time>2026-04-11T14:40:58Z</time></trkpt><trkpt lat="45.79380266242366" lon="9.179266303241727"><ele>396.33333333333337</ele><time>2026-04-11T14:40:59Z</time></trkpt><trkpt lat="45.79380676491506" lon="9.179522865217672"><ele>396.0</ele><time>2026-04-11T14:41:00Z</time></trkpt><trkpt lat="45.79381174842132" lon="9.17978458504768"><ele>396.66666666666663</ele><time>2026-04-11T14:41:01Z</time></trkpt><trkpt lat="45.79381747787234" lon="9.18005301041565"><ele>397.3333333333333</ele><time>2026-04-11T14:41:02Z</time></trkpt><trkpt lat="45.79382495844615" lon="9.180325931571259"><ele>398.0</ele><time>2026-04-11T14:41:03Z</time></trkpt><trkpt lat="45.79383616347906" lon="9.180601727163186"><ele>398.3333333333333</ele><time>2026-04-11T14:41:04Z</time></trkpt><trkpt lat="45.79382671424151" lon="9.180876845136266"><ele>398.66666666666663</ele><time>2026-04-11T14:41:05Z</time></trkpt><trkpt lat="45.793833515318454" lon="9.181148840932769"><ele>399.0</ele><time>2026-04-11T14:41:06Z</time></trkpt><trkpt lat="45.793840165465575" lon="9.181419922043856"><ele>401.66666666666663</ele><time>2026-04-11T14:41:07Z</time></trkpt><trkpt lat="45.79384757648433" lon="9.181691654867247"><ele>404.3333333333333</ele><time>2026-04-11T14:41:08Z</time></trkpt><trkpt lat="45.79385388961876" lon="9.181961263733394"><ele>407.0</ele><time>2026-04-11T14:41:09Z</time></trkpt><trkpt lat="45.793860530501874" lon="9.18223245756565"><ele>408.3333333333333</ele><time>2026-04-11T14:41:10Z</time></trkpt><trkpt lat="45.79386732420479" lon="9.182504208252148"><ele>409.66666666666663</ele><time>2026-04-11T14:41:11Z</time></trkpt><trkpt lat="45.793873817016085" lon="9.182774574833171"><ele>411.0</ele><time>2026-04-11T14:41:12Z</time></trkpt><trkpt lat="45.79388039932326" lon="9.183043494712104"><ele>411.33333333333337</ele><time>2026-04-11T14:41:13Z</time></trkpt><trkpt lat="45.79388709230751" lon="9.183314626972221"><ele>411.6666666666667</ele><time>2026-04-11T14:41:14Z</time></trkpt><trkpt lat="45.79391089315303" lon="9.183583695947899"><ele>412.0</ele><time>2026-04-11T14:41:15Z</time></trkpt><trkpt lat="45.7939171703082" lon="9.183858568341986"><ele>412.33333333333337</ele><time>2026-04-11T14:41:16Z</time></trkpt><trkpt lat="45.79392507081781" lon="9.184136412275"><ele>412.66666666666663</ele><time>2026-04-11T14:41:17Z</time></trkpt><trkpt lat="45.793932209828526" lon="9.184413550150918"><ele>413.0</ele><time>2026-04-11T14:41:18Z</time></trkpt><trkpt lat="45.7939457238291" lon="9.184687000682159"><ele>412.3333333333333</ele><time>2026-04-11T14:41:19Z</time></trkpt><trkpt lat="45.793954781933245" lon="9.184969179885814"><ele>411.66666666666663</ele><time>2026-04-11T14:41:20Z</time></trkpt><trkpt lat="45.79400705330285" lon="9.185245325337753"><ele>411.0</ele><time>2026-04-11T14:41:21Z</time></trkpt><trkpt lat="45.79405801447339" lon="9.18552341079175"><ele>409.0</ele><time>2026-04-11T14:41:22Z</time></trkpt><trkpt lat="45.79412023012363" lon="9.185795766484514"><ele>407.0</ele><time>2026-04-11T14:41:23Z</time></trkpt><trkpt lat="45.794192812332085" lon="9.186067614985014"><ele>405.0</ele><time>2026-04-11T14:41:24Z</time></trkpt><trkpt lat="45.79427309474444" lon="9.186339781343248"><ele>404.33333333333337</ele><time>2026-04-11T14:41:25Z</time></trkpt><trkpt lat="45.79435726803303" lon="9.186613745823289"><ele>403.6666666666667</ele><time>2026-04-11T14:41:26Z</time></trkpt><trkpt lat="45.794444023089824" lon="9.186891068173846"><ele>403.0</ele><time>2026-04-11T14:41:27Z</time></trkpt><trkpt lat="45.79453219725281" lon="9.187169830446384"><ele>401.6666666666667</ele><time>2026-04-11T14:41:28Z</time></trkpt><trkpt lat="45.794620893119266" lon="9.187451331065933"><ele>400.33333333333337</ele><time>2026-04-11T14:41:29Z</time></trkpt><trkpt lat="45.79470880528246" lon="9.187735113644637"><ele>399.0</ele><time>2026-04-11T14:41:30Z</time></trkpt><trkpt lat="45.794795263958434" lon="9.188020452636799"><ele>396.66666666666663</ele><time>2026-04-11T14:41:31Z</time></trkpt><trkpt lat="45.79488437447145" lon="9.188306851587164"><ele>394.3333333333333</ele><time>2026-04-11T14:41:32Z</time></trkpt><trkpt lat="45.79497401555148" lon="9.188592540987534"><ele>392.0</ele><time>2026-04-11T14:41:33Z</time></trkpt><trkpt lat="45.7950644578968" lon="9.18887925313895"><ele>392.0</ele><time>2026-04-11T14:41:34Z</time></trkpt><trkpt lat="45.795154360784" lon="9.189167527337649"><ele>392.0</ele><time>2026-04-11T14:41:35Z</time></trkpt><trkpt lat="45.795245024732765" lon="9.18945906081496"><ele>392.0</ele><time>2026-04-11T14:41:36Z</time></trkpt><trkpt lat="45.795332929715016" lon="9.18975404282017"><ele>388.5</ele><time>2026-04-11T14:41:37Z</time></trkpt><trkpt lat="45.79541976176286" lon="9.190052458098075"><ele>385.0</ele><time>2026-04-11T14:41:38Z</time></trkpt><trkpt lat="45.79550783995126" lon="9.190351136501993"><ele>385.0</ele><time>2026-04-11T14:41:39Z</time></trkpt><trkpt lat="45.79559823463567" lon="9.19065054365224"><ele>385.0</ele><time>2026-04-11T14:41:40Z</time></trkpt><trkpt lat="45.79569098543484" lon="9.190948627898385"><ele>380.0</ele><time>2026-04-11T14:41:41Z</time></trkpt><trkpt lat="45.79578224071039" lon="9.19124361517566"><ele>375.0</ele><time>2026-04-11T14:41:42Z</time></trkpt><trkpt lat="45.79587434463459" lon="9.191538035059146"><ele>374.6666666666667</ele><time>2026-04-11T14:41:43Z</time></trkpt><trkpt lat="45.79596728268386" lon="9.191832077677407"><ele>374.33333333333337</ele><time>2026-04-11T14:41:44Z</time></trkpt><trkpt lat="45.796056866505445" lon="9.192124829085632"><ele>374.0</ele><time>2026-04-11T14:41:44.999Z</time></trkpt><trkpt lat="45.796145183927095" lon="9.192417586142177"><ele>373.0</ele><time>2026-04-11T14:41:45.999Z</time></trkpt><trkpt lat="45.796234568343465" lon="9.192709853944205"><ele>372.0</ele><time>2026-04-11T14:41:46.999Z</time></trkpt><trkpt lat="45.7963231856033" lon="9.192999690575576"><ele>371.0</ele><time>2026-04-11T14:41:47.999Z</time></trkpt><trkpt lat="45.79660794738443" lon="9.193162034881063"><ele>369.33333333333337</ele><time>2026-04-11T14:41:48.999Z</time></trkpt><trkpt lat="45.79668872519954" lon="9.193467692777716"><ele>367.6666666666667</ele><time>2026-04-11T14:41:49.999Z</time></trkpt><trkpt lat="45.79676473491445" lon="9.193755631353394"><ele>366.0</ele><time>2026-04-11T14:41:50.999Z</time></trkpt><trkpt lat="45.79684031371433" lon="9.194041937584387"><ele>363.0</ele><time>2026-04-11T14:41:51.999Z</time></trkpt><trkpt lat="45.796728300422615" lon="9.194426996297226"><ele>360.0</ele><time>2026-04-11T14:41:52.999Z</time></trkpt><trkpt lat="45.79677469045803" lon="9.1947231948481"><ele>358.6666666666667</ele><time>2026-04-11T14:41:53.999Z</time></trkpt><trkpt lat="45.79679865915293" lon="9.195023164765626"><ele>357.33333333333337</ele><time>2026-04-11T14:41:54.999Z</time></trkpt><trkpt lat="45.796804930664265" lon="9.195324202709635"><ele>356.0</ele><time>2026-04-11T14:41:55.999Z</time></trkpt><trkpt lat="45.796792280991845" lon="9.195624993806515"><ele>355.6666666666667</ele><time>2026-04-11T14:41:56.999Z</time></trkpt><trkpt lat="45.79676760897987" lon="9.195924731048335"><ele>355.3333333333333</ele><time>2026-04-11T14:41:57.999Z</time></trkpt><trkpt lat="45.796740401251945" lon="9.196223301510352"><ele>355.0</ele><time>2026-04-11T14:41:58.999Z</time></trkpt><trkpt lat="45.796714050755895" lon="9.196520993177772"><ele>353.0</ele><time>2026-04-11T14:41:59.999Z</time></trkpt><trkpt lat="45.79669091028219" lon="9.196811264254224"><ele>351.0</ele><time>2026-04-11T14:42:00.999Z</time></trkpt><trkpt lat="45.79666920586935" lon="9.197092003881204"><ele>349.0</ele><time>2026-04-11T14:42:01.999Z</time></trkpt><trkpt lat="45.796650441407394" lon="9.197368827042935"><ele>347.3333333333333</ele><time>2026-04-11T14:42:02.999Z</time></trkpt><trkpt lat="45.79663128750317" lon="9.197647766650167"><ele>345.6666666666667</ele><time>2026-04-11T14:42:03.999Z</time></trkpt><trkpt lat="45.79660999243176" lon="9.197926187009596"><ele>344.0</ele><time>2026-04-11T14:42:04.999Z</time></trkpt><trkpt lat="45.79658808077812" lon="9.198202996315239"><ele>343.33333333333337</ele><time>2026-04-11T14:42:05.999Z</time></trkpt><trkpt lat="45.796566142170356" lon="9.198476461133756"><ele>342.6666666666667</ele><time>2026-04-11T14:42:06.999Z</time></trkpt><trkpt lat="45.7965445885819" lon="9.198746974084044"><ele>342.0</ele><time>2026-04-11T14:42:07.999Z</time></trkpt><trkpt lat="45.796525200670686" lon="9.199005709951336"><ele>341.3333333333333</ele><time>2026-04-11T14:42:08.999Z</time></trkpt><trkpt lat="45.796506845846544" lon="9.199250102920747"><ele>340.66666666666663</ele><time>2026-04-11T14:42:09.999Z</time></trkpt><trkpt lat="45.79648659555779" lon="9.19948125120104"><ele>340.0</ele><time>2026-04-11T14:42:10.999Z</time></trkpt><trkpt lat="45.79646615063128" lon="9.199692555949097"><ele>340.25</ele><time>2026-04-11T14:42:11.999Z</time></trkpt><trkpt lat="45.79644966190714" lon="9.19987782520939"><ele>340.5</ele><time>2026-04-11T14:42:12.999Z</time></trkpt><trkpt lat="45.796435522233246" lon="9.200042950773197"><ele>340.75</ele><time>2026-04-11T14:42:13.999Z</time></trkpt><trkpt lat="45.79642251469366" lon="9.200195516700573"><ele>341.0</ele><time>2026-04-11T14:42:14.999Z</time></trkpt><trkpt lat="45.79640999899979" lon="9.200333775342981"><ele>341.0</ele><time>2026-04-11T14:42:15.999Z</time></trkpt><trkpt lat="45.796400490556444" lon="9.200459487518469"><ele>341.0</ele><time>2026-04-11T14:42:16.999Z</time></trkpt><trkpt lat="45.796392114630315" lon="9.200569392917537"><ele>341.0</ele><time>2026-04-11T14:42:17.999Z</time></trkpt><trkpt lat="45.796381677468936" lon="9.20065844246811"><ele>341.0</ele><time>2026-04-11T14:42:18.999Z</time></trkpt><trkpt lat="45.796366319199706" lon="9.200804556048858"><ele>341.0</ele><time>2026-04-11T14:42:20.999Z</time></trkpt><trkpt lat="45.796349362185964" lon="9.200928425409574"><ele>341.0</ele><time>2026-04-11T14:42:22.999Z</time></trkpt><trkpt lat="45.79633207314345" lon="9.20103255297576"><ele>340.5</ele><time>2026-04-11T14:42:24.999Z</time></trkpt><trkpt lat="45.796325121975045" lon="9.201192256379533"><ele>340.0</ele><time>2026-04-11T14:42:42.999Z</time></trkpt><trkpt lat="45.79630555677201" lon="9.201370282181276"><ele>339.5</ele><time>2026-04-11T14:42:43.999Z</time></trkpt><trkpt lat="45.796286140290306" lon="9.201572898332547"><ele>339.0</ele><time>2026-04-11T14:42:44.999Z</time></trkpt><trkpt lat="45.79627093833464" lon="9.20179063302308"><ele>338.3333333333333</ele><time>2026-04-11T14:42:45.999Z</time></trkpt><trkpt lat="45.79625587127812" lon="9.202019899526158"><ele>337.66666666666663</ele><time>2026-04-11T14:42:46.999Z</time></trkpt><trkpt lat="45.79623905825965" lon="9.202254052080102"><ele>337.0</ele><time>2026-04-11T14:42:47.999Z</time></trkpt><trkpt lat="45.79621963799204" lon="9.202500874459583"><ele>337.0</ele><time>2026-04-11T14:42:48.999Z</time></trkpt><trkpt lat="45.796195340717226" lon="9.20275113117661"><ele>337.0</ele><time>2026-04-11T14:42:49.999Z</time></trkpt><trkpt lat="45.79617153398057" lon="9.20300675512274"><ele>337.0</ele><time>2026-04-11T14:42:50.999Z</time></trkpt><trkpt lat="45.796155655210825" lon="9.203258730230955"><ele>337.0</ele><time>2026-04-11T14:42:51.999Z</time></trkpt><trkpt lat="45.79615183153961" lon="9.203509609911654"><ele>337.0</ele><time>2026-04-11T14:42:52.999Z</time></trkpt><trkpt lat="45.7961578156786" lon="9.203766515354"><ele>337.0</ele><time>2026-04-11T14:42:53.999Z</time></trkpt><trkpt lat="45.79618739754903" lon="9.204029451433804"><ele>335.0</ele><time>2026-04-11T14:42:54.999Z</time></trkpt><trkpt lat="45.79623464145353" lon="9.204293481717984"><ele>333.0</ele><time>2026-04-11T14:42:55.999Z</time></trkpt><trkpt lat="45.79631525269513" lon="9.20455502382918"><ele>331.0</ele><time>2026-04-11T14:42:57Z</time></trkpt><trkpt lat="45.79641452312534" lon="9.20479606238986"><ele>329.0</ele><time>2026-04-11T14:42:58Z</time></trkpt><trkpt lat="45.79653519471119" lon="9.205020008888665"><ele>327.0</ele><time>2026-04-11T14:42:59Z</time></trkpt><trkpt lat="45.79667662061326" lon="9.205224902100609"><ele>325.0</ele><time>2026-04-11T14:43:00Z</time></trkpt><trkpt lat="45.79683132284732" lon="9.205413218764674"><ele>325.0</ele><time>2026-04-11T14:43:01Z</time></trkpt><trkpt lat="45.796992124888966" lon="9.205596598199213"><ele>325.0</ele><time>2026-04-11T14:43:02Z</time></trkpt><trkpt lat="45.797152916803626" lon="9.205775840666107"><ele>325.0</ele><time>2026-04-11T14:43:03Z</time></trkpt><trkpt lat="45.7973147178562" lon="9.205957387623254"><ele>325.0</ele><time>2026-04-11T14:43:04Z</time></trkpt><trkpt lat="45.797474014904374" lon="9.206144481072252"><ele>325.0</ele><time>2026-04-11T14:43:05Z</time></trkpt><trkpt lat="45.79763511370634" lon="9.2063327776549"><ele>325.0</ele><time>2026-04-11T14:43:06Z</time></trkpt><trkpt lat="45.79779715710374" lon="9.206520827811817"><ele>324.3333333333333</ele><time>2026-04-11T14:43:07Z</time></trkpt><trkpt lat="45.7979567317664" lon="9.206708909243583"><ele>323.6666666666667</ele><time>2026-04-11T14:43:08Z</time></trkpt><trkpt lat="45.798117075785804" lon="9.20689724182186"><ele>323.0</ele><time>2026-04-11T14:43:09Z</time></trkpt><trkpt lat="45.79827801232172" lon="9.207080234896187"><ele>323.0</ele><time>2026-04-11T14:43:10Z</time></trkpt><trkpt lat="45.7984389579087" lon="9.207260328988086"><ele>323.0</ele><time>2026-04-11T14:43:11Z</time></trkpt><trkpt lat="45.79860030518828" lon="9.207438887500642"><ele>323.0</ele><time>2026-04-11T14:43:12Z</time></trkpt><trkpt lat="45.79876250302646" lon="9.2076221667679"><ele>322.6666666666667</ele><time>2026-04-11T14:43:13Z</time></trkpt><trkpt lat="45.79892304989629" lon="9.207810805073084"><ele>322.3333333333333</ele><time>2026-04-11T14:43:14Z</time></trkpt><trkpt lat="45.799082363326114" lon="9.20800407076709"><ele>322.0</ele><time>2026-04-11T14:43:15Z</time></trkpt><trkpt lat="45.79923816938472" lon="9.20820170473515"><ele>321.66666666666663</ele><time>2026-04-11T14:43:16Z</time></trkpt><trkpt lat="45.79939778737854" lon="9.208393510301192"><ele>321.3333333333333</ele><time>2026-04-11T14:43:17Z</time></trkpt><trkpt lat="45.79956099299586" lon="9.208582323430708"><ele>321.0</ele><time>2026-04-11T14:43:18Z</time></trkpt><trkpt lat="45.79972457588492" lon="9.208769044731477"><ele>321.0</ele><time>2026-04-11T14:43:19Z</time></trkpt><trkpt lat="45.79988817653372" lon="9.208957206756072"><ele>321.0</ele><time>2026-04-11T14:43:20Z</time></trkpt><trkpt lat="45.8000474259969" lon="9.209139397541822"><ele>321.0</ele><time>2026-04-11T14:43:21Z</time></trkpt><trkpt lat="45.80020319585559" lon="9.209318059425037"><ele>321.3333333333333</ele><time>2026-04-11T14:43:22Z</time></trkpt><trkpt lat="45.80035598845721" lon="9.209496350307598"><ele>321.66666666666663</ele><time>2026-04-11T14:43:23Z</time></trkpt><trkpt lat="45.80050513512876" lon="9.20967573971345"><ele>322.0</ele><time>2026-04-11T14:43:24Z</time></trkpt><trkpt lat="45.8006522687358" lon="9.209853440680755"><ele>320.3333333333333</ele><time>2026-04-11T14:43:25Z</time></trkpt><trkpt lat="45.800797240813814" lon="9.210023952929847"><ele>318.6666666666667</ele><time>2026-04-11T14:43:26Z</time></trkpt><trkpt lat="45.80093846237796" lon="9.210182811186288"><ele>317.0</ele><time>2026-04-11T14:43:27Z</time></trkpt><trkpt lat="45.80108075059542" lon="9.21033093669967"><ele>317.0</ele><time>2026-04-11T14:43:28Z</time></trkpt><trkpt lat="45.801223833993504" lon="9.210463368153574"><ele>317.0</ele><time>2026-04-11T14:43:29Z</time></trkpt><trkpt lat="45.801372666765545" lon="9.210573300161096"><ele>317.0</ele><time>2026-04-11T14:43:30Z</time></trkpt><trkpt lat="45.80153161214312" lon="9.21066048278558"><ele>314.0</ele><time>2026-04-11T14:43:31Z</time></trkpt><trkpt lat="45.801695011655674" lon="9.210716787687714"><ele>311.0</ele><time>2026-04-11T14:43:32Z</time></trkpt><trkpt lat="45.8018599036987" lon="9.210765036693319"><ele>308.0</ele><time>2026-04-11T14:43:33Z</time></trkpt><trkpt lat="45.80202799986368" lon="9.210809132969661"><ele>308.0</ele><time>2026-04-11T14:43:34Z</time></trkpt><trkpt lat="45.802196052559715" lon="9.210866836121424"><ele>308.0</ele><time>2026-04-11T14:43:35Z</time></trkpt><trkpt lat="45.80235776738654" lon="9.21094781094214"><ele>308.0</ele><time>2026-04-11T14:43:36Z</time></trkpt><trkpt lat="45.802510707930665" lon="9.211054841859017"><ele>308.0</ele><time>2026-04-11T14:43:37Z</time></trkpt><trkpt lat="45.80265930448173" lon="9.211178425716348"><ele>308.0</ele><time>2026-04-11T14:43:38Z</time></trkpt><trkpt lat="45.802805651816016" lon="9.211315344556354"><ele>308.0</ele><time>2026-04-11T14:43:39Z</time></trkpt><trkpt lat="45.80294945197957" lon="9.211472298921572"><ele>306.33333333333337</ele><time>2026-04-11T14:43:40Z</time></trkpt><trkpt lat="45.803088202538945" lon="9.211650421510312"><ele>304.6666666666667</ele><time>2026-04-11T14:43:41Z</time></trkpt><trkpt lat="45.80322045340234" lon="9.211839105092105"><ele>303.0</ele><time>2026-04-11T14:43:42Z</time></trkpt><trkpt lat="45.80335636999854" lon="9.212024467373352"><ele>303.0</ele><time>2026-04-11T14:43:43Z</time></trkpt><trkpt lat="45.803496142898716" lon="9.212207881370984"><ele>303.0</ele><time>2026-04-11T14:43:44Z</time></trkpt><trkpt lat="45.803638854545696" lon="9.212393943604276"><ele>303.0</ele><time>2026-04-11T14:43:45Z</time></trkpt><trkpt lat="45.80377937696154" lon="9.212580503283235"><ele>301.3333333333333</ele><time>2026-04-11T14:43:45.999Z</time></trkpt><trkpt lat="45.803907680984864" lon="9.212783475494794"><ele>299.66666666666663</ele><time>2026-04-11T14:43:46.999Z</time></trkpt><trkpt lat="45.80404817748511" lon="9.212952926227588"><ele>298.0</ele><time>2026-04-11T14:43:47.999Z</time></trkpt><trkpt lat="45.80417102235411" lon="9.213132855461637"><ele>299.3333333333333</ele><time>2026-04-11T14:43:48.999Z</time></trkpt><trkpt lat="45.80429193750885" lon="9.213304484255469"><ele>300.6666666666667</ele><time>2026-04-11T14:43:49.999Z</time></trkpt><trkpt lat="45.804409092352635" lon="9.213470244749711"><ele>302.0</ele><time>2026-04-11T14:43:50.999Z</time></trkpt><trkpt lat="45.80452064042938" lon="9.213649923414971"><ele>302.0</ele><time>2026-04-11T14:43:51.999Z</time></trkpt><trkpt lat="45.804619415912185" lon="9.213852808015602"><ele>302.0</ele><time>2026-04-11T14:43:52.999Z</time></trkpt><trkpt lat="45.80470003907181" lon="9.214072411419544"><ele>302.0</ele><time>2026-04-11T14:43:53.999Z</time></trkpt><trkpt lat="45.804763827192055" lon="9.214294818652665"><ele>298.33333333333337</ele><time>2026-04-11T14:43:54.999Z</time></trkpt><trkpt lat="45.80481184194887" lon="9.214513378179765"><ele>294.6666666666667</ele><time>2026-04-11T14:43:55.999Z</time></trkpt><trkpt lat="45.804844698817284" lon="9.21472942278563"><ele>291.0</ele><time>2026-04-11T14:43:56.999Z</time></trkpt><trkpt lat="45.80486553177668" lon="9.214940870072647"><ele>289.75</ele><time>2026-04-11T14:43:57.999Z</time></trkpt><trkpt lat="45.80485607102674" lon="9.215150832804788"><ele>288.5</ele><time>2026-04-11T14:43:58.999Z</time></trkpt><trkpt lat="45.80485090308225" lon="9.21535600123193"><ele>287.25</ele><time>2026-04-11T14:43:59.999Z</time></trkpt><trkpt lat="45.80483664121912" lon="9.215548900685466"><ele>286.0</ele><time>2026-04-11T14:44:00.999Z</time></trkpt><trkpt lat="45.80481158592851" lon="9.215733527983941"><ele>285.5</ele><time>2026-04-11T14:44:01.999Z</time></trkpt><trkpt lat="45.80479557027118" lon="9.215912617316127"><ele>285.0</ele><time>2026-04-11T14:44:02.999Z</time></trkpt><trkpt lat="45.80475841567279" lon="9.216077889635903"><ele>284.5</ele><time>2026-04-11T14:44:03.999Z</time></trkpt><trkpt lat="45.8047238724304" lon="9.21623203553652"><ele>284.0</ele><time>2026-04-11T14:44:04.999Z</time></trkpt><trkpt lat="45.80468950646699" lon="9.216385791383356"><ele>284.0</ele><time>2026-04-11T14:44:05.999Z</time></trkpt><trkpt lat="45.80465135138469" lon="9.216535082089852"><ele>284.0</ele><time>2026-04-11T14:44:06.999Z</time></trkpt><trkpt lat="45.804614426947964" lon="9.216679740785757"><ele>284.0</ele><time>2026-04-11T14:44:07.999Z</time></trkpt><trkpt lat="45.804578627588384" lon="9.216823201024294"><ele>284.0</ele><time>2026-04-11T14:44:08.999Z</time></trkpt><trkpt lat="45.80454324122111" lon="9.216955483244242"><ele>284.0</ele><time>2026-04-11T14:44:09.999Z</time></trkpt><trkpt lat="45.8045134746514" lon="9.217067403145565"><ele>284.0</ele><time>2026-04-11T14:44:10.999Z</time></trkpt><trkpt lat="45.804491146198046" lon="9.217157935541294"><ele>284.0</ele><time>2026-04-11T14:44:11.999Z</time></trkpt><trkpt lat="45.80445474734695" lon="9.217276468607379"><ele>284.0</ele><time>2026-04-11T14:44:13.999Z</time></trkpt><trkpt lat="45.8043756176442" lon="9.21736923097009"><ele>284.0</ele><time>2026-04-11T14:44:15.999Z</time></trkpt><trkpt lat="45.80431404083859" lon="9.217423465081293"><ele>284.0</ele><time>2026-04-11T14:44:16.999Z</time></trkpt><trkpt lat="45.80428462833094" lon="9.217521107640508"><ele>284.0</ele><time>2026-04-11T14:44:17.999Z</time></trkpt><trkpt lat="45.804281913763226" lon="9.217648553599531"><ele>283.2</ele><time>2026-04-11T14:44:18.999Z</time></trkpt><trkpt lat="45.80428435708174" lon="9.217775366332079"><ele>282.4</ele><time>2026-04-11T14:44:19.999Z</time></trkpt><trkpt lat="45.80427670504886" lon="9.217917114330616"><ele>281.6</ele><time>2026-04-11T14:44:20.999Z</time></trkpt><trkpt lat="45.80425150726669" lon="9.218074373351236"><ele>280.8</ele><time>2026-04-11T14:44:21.999Z</time></trkpt><trkpt lat="45.80421875754342" lon="9.218238509423282"><ele>280.0</ele><time>2026-04-11T14:44:22.999Z</time></trkpt><trkpt lat="45.80418579268523" lon="9.2184034698724"><ele>279.75</ele><time>2026-04-11T14:44:23.999Z</time></trkpt><trkpt lat="45.80415112675815" lon="9.21856785503219"><ele>279.5</ele><time>2026-04-11T14:44:24.999Z</time></trkpt><trkpt lat="45.804113171769366" lon="9.218738957763462"><ele>279.25</ele><time>2026-04-11T14:44:25.999Z</time></trkpt><trkpt lat="45.804076970468934" lon="9.218907480916432"><ele>279.0</ele><time>2026-04-11T14:44:26.999Z</time></trkpt><trkpt lat="45.80404172305525" lon="9.219071760312389"><ele>279.0</ele><time>2026-04-11T14:44:27.999Z</time></trkpt><trkpt lat="45.8040099556273" lon="9.219228023599854"><ele>279.0</ele><time>2026-04-11T14:44:28.999Z</time></trkpt><trkpt lat="45.80397778929" lon="9.219379475808113"><ele>279.0</ele><time>2026-04-11T14:44:29.999Z</time></trkpt><trkpt lat="45.80394552935111" lon="9.219527651852617"><ele>279.0</ele><time>2026-04-11T14:44:30.999Z</time></trkpt><trkpt lat="45.80391078642394" lon="9.219675312548116"><ele>279.0</ele><time>2026-04-11T14:44:31.999Z</time></trkpt><trkpt lat="45.80387529741829" lon="9.219823477168871"><ele>278.4</ele><time>2026-04-11T14:44:32.999Z</time></trkpt><trkpt lat="45.80384249432301" lon="9.219972231238092"><ele>277.79999999999995</ele><time>2026-04-11T14:44:33.999Z</time></trkpt><trkpt lat="45.803809595881916" lon="9.220117987969802"><ele>277.20000000000005</ele><time>2026-04-11T14:44:34.999Z</time></trkpt><trkpt lat="45.803777611401316" lon="9.220254558639636"><ele>276.6</ele><time>2026-04-11T14:44:35.999Z</time></trkpt><trkpt lat="45.80374692270302" lon="9.22039032846027"><ele>276.0</ele><time>2026-04-11T14:44:36.999Z</time></trkpt><trkpt lat="45.80371580076865" lon="9.220530041248855"><ele>275.40000000000003</ele><time>2026-04-11T14:44:37.999Z</time></trkpt><trkpt lat="45.80368325398802" lon="9.220673577703483"><ele>274.8</ele><time>2026-04-11T14:44:38.999Z</time></trkpt><trkpt lat="45.80364986364817" lon="9.22081948621372"><ele>274.20000000000005</ele><time>2026-04-11T14:44:39.999Z</time></trkpt><trkpt lat="45.803619776445885" lon="9.220970559617777"><ele>273.6</ele><time>2026-04-11T14:44:40.999Z</time></trkpt><trkpt lat="45.80359285027359" lon="9.221126004545042"><ele>273.0</ele><time>2026-04-11T14:44:41.999Z</time></trkpt><trkpt lat="45.80357452132948" lon="9.221288308300002"><ele>273.0</ele><time>2026-04-11T14:44:42.999Z</time></trkpt><trkpt lat="45.80355365076436" lon="9.221461781534446"><ele>273.0</ele><time>2026-04-11T14:44:43.999Z</time></trkpt><trkpt lat="45.80353006181716" lon="9.221644200707471"><ele>273.0</ele><time>2026-04-11T14:44:44.999Z</time></trkpt><trkpt lat="45.803503822999346" lon="9.221828639530552"><ele>273.0</ele><time>2026-04-11T14:44:45.999Z</time></trkpt><trkpt lat="45.803484204962714" lon="9.222009525019228"><ele>273.0</ele><time>2026-04-11T14:44:46.999Z</time></trkpt><trkpt lat="45.803467521696845" lon="9.222185328393259"><ele>273.0</ele><time>2026-04-11T14:44:47.999Z</time></trkpt><trkpt lat="45.8034511919965" lon="9.222354164090763"><ele>273.0</ele><time>2026-04-11T14:44:48.999Z</time></trkpt><trkpt lat="45.8034378801328" lon="9.222512067772287"><ele>273.0</ele><time>2026-04-11T14:44:49.999Z</time></trkpt><trkpt lat="45.80342603970457" lon="9.22266352689602"><ele>273.0</ele><time>2026-04-11T14:44:50.999Z</time></trkpt><trkpt lat="45.803417431681055" lon="9.222808352802584"><ele>273.0</ele><time>2026-04-11T14:44:51.999Z</time></trkpt><trkpt lat="45.803413295757494" lon="9.222940061178186"><ele>273.0</ele><time>2026-04-11T14:44:52.999Z</time></trkpt><trkpt lat="45.803409599801384" lon="9.223063097541992"><ele>273.0</ele><time>2026-04-11T14:44:53.999Z</time></trkpt><trkpt lat="45.80340828229134" lon="9.223178027567025"><ele>273.0</ele><time>2026-04-11T14:44:54.999Z</time></trkpt><trkpt lat="45.80340850584038" lon="9.223280988192297"><ele>273.0</ele><time>2026-04-11T14:44:55.999Z</time></trkpt><trkpt lat="45.803402632469464" lon="9.223434052352456"><ele>272.8</ele><time>2026-04-11T14:44:57.999Z</time></trkpt><trkpt lat="45.8034053692558" lon="9.223532810773625"><ele>272.6</ele><time>2026-04-11T14:44:59.999Z</time></trkpt><trkpt lat="45.80340260004826" lon="9.223633552415176"><ele>272.4</ele><time>2026-04-11T14:45:01.999Z</time></trkpt><trkpt lat="45.80333452695993" lon="9.223769507589846"><ele>272.2</ele><time>2026-04-11T14:45:04Z</time></trkpt><trkpt lat="45.80328488350135" lon="9.223896120776843"><ele>272.0</ele><time>2026-04-11T14:45:06Z</time></trkpt><trkpt lat="45.80328470915564" lon="9.224033561326609"><ele>272.0</ele><time>2026-04-11T14:45:08Z</time></trkpt><trkpt lat="45.80335165349133" lon="9.224113263116049"><ele>272.0</ele><time>2026-04-11T14:45:09Z</time></trkpt><trkpt lat="45.80340575309195" lon="9.224183975552178"><ele>272.0</ele><time>2026-04-11T14:45:10Z</time></trkpt><trkpt lat="45.80342891418142" lon="9.224327290609827"><ele>272.0</ele><time>2026-04-11T14:45:11Z</time></trkpt><trkpt lat="45.80345114650268" lon="9.224462562822398"><ele>272.0</ele><time>2026-04-11T14:45:12Z</time></trkpt><trkpt lat="45.80346884890792" lon="9.22461443996658"><ele>272.0</ele><time>2026-04-11T14:45:13Z</time></trkpt><trkpt lat="45.80348849941099" lon="9.224779612893224"><ele>272.0</ele><time>2026-04-11T14:45:14Z</time></trkpt><trkpt lat="45.80351208315605" lon="9.224952607684386"><ele>272.0</ele><time>2026-04-11T14:45:15Z</time></trkpt><trkpt lat="45.803534260508144" lon="9.225122930012812"><ele>272.0</ele><time>2026-04-11T14:45:16Z</time></trkpt><trkpt lat="45.80355563670408" lon="9.225289447199248"><ele>272.0</ele><time>2026-04-11T14:45:17Z</time></trkpt><trkpt lat="45.80357926104591" lon="9.22544935816022"><ele>272.0</ele><time>2026-04-11T14:45:18Z</time></trkpt><trkpt lat="45.803604231609775" lon="9.225613544983261"><ele>272.0</ele><time>2026-04-11T14:45:19Z</time></trkpt><trkpt lat="45.80363512282993" lon="9.225779095457801"><ele>272.0</ele><time>2026-04-11T14:45:20Z</time></trkpt><trkpt lat="45.803668754404065" lon="9.225947125300051"><ele>272.0</ele><time>2026-04-11T14:45:21Z</time></trkpt><trkpt lat="45.80370270071734" lon="9.22612477987554"><ele>272.0</ele><time>2026-04-11T14:45:22Z</time></trkpt><trkpt lat="45.80374112252421" lon="9.226314757416196"><ele>272.0</ele><time>2026-04-11T14:45:23Z</time></trkpt><trkpt lat="45.80377984185417" lon="9.226512430308441"><ele>272.0</ele><time>2026-04-11T14:45:24Z</time></trkpt><trkpt lat="45.803819620106204" lon="9.226719262020934"><ele>272.0</ele><time>2026-04-11T14:45:25Z</time></trkpt><trkpt lat="45.80386211473391" lon="9.226930913905129"><ele>272.0</ele><time>2026-04-11T14:45:26Z</time></trkpt><trkpt lat="45.80390682213951" lon="9.227146083707742"><ele>272.0</ele><time>2026-04-11T14:45:27Z</time></trkpt><trkpt lat="45.80395368987043" lon="9.227366854134091"><ele>272.0</ele><time>2026-04-11T14:45:28Z</time></trkpt><trkpt lat="45.80399876068692" lon="9.22758923296032"><ele>272.0</ele><time>2026-04-11T14:45:29Z</time></trkpt><trkpt lat="45.804045663865736" lon="9.227812240800064"><ele>272.0</ele><time>2026-04-11T14:45:30Z</time></trkpt><trkpt lat="45.80409307440655" lon="9.228037885755153"><ele>272.33333333333337</ele><time>2026-04-11T14:45:31Z</time></trkpt><trkpt lat="45.80414050887153" lon="9.228265764826565"><ele>272.6666666666667</ele><time>2026-04-11T14:45:32Z</time></trkpt><trkpt lat="45.80419021625368" lon="9.228490910195545"><ele>273.0</ele><time>2026-04-11T14:45:33Z</time></trkpt><trkpt lat="45.80423819187696" lon="9.228709645648877"><ele>273.0</ele><time>2026-04-11T14:45:34Z</time></trkpt><trkpt lat="45.804284695802224" lon="9.228921810870967"><ele>273.0</ele><time>2026-04-11T14:45:35Z</time></trkpt><trkpt lat="45.804326142170034" lon="9.229130911849987"><ele>273.0</ele><time>2026-04-11T14:45:36Z</time></trkpt><trkpt lat="45.80436869135244" lon="9.229341243591627"><ele>273.25</ele><time>2026-04-11T14:45:37Z</time></trkpt><trkpt lat="45.80441574740826" lon="9.229549405503903"><ele>273.5</ele><time>2026-04-11T14:45:38Z</time></trkpt><trkpt lat="45.80446328838527" lon="9.229753690629463"><ele>273.75</ele><time>2026-04-11T14:45:39Z</time></trkpt><trkpt lat="45.804503692138084" lon="9.229950877171701"><ele>274.0</ele><time>2026-04-11T14:45:40Z</time></trkpt><trkpt lat="45.80454259828427" lon="9.230145207503124"><ele>274.5</ele><time>2026-04-11T14:45:41Z</time></trkpt><trkpt lat="45.80458437087403" lon="9.230341401653206"><ele>275.0</ele><time>2026-04-11T14:45:42Z</time></trkpt><trkpt lat="45.80460903179547" lon="9.230545385494343"><ele>275.5</ele><time>2026-04-11T14:45:43Z</time></trkpt><trkpt lat="45.80466599141027" lon="9.23073752301165"><ele>276.0</ele><time>2026-04-11T14:45:44Z</time></trkpt><trkpt lat="45.8047043240001" lon="9.230934812262145"><ele>276.0</ele><time>2026-04-11T14:45:44.999Z</time></trkpt><trkpt lat="45.80474383938743" lon="9.231126120033348"><ele>276.0</ele><time>2026-04-11T14:45:45.999Z</time></trkpt><trkpt lat="45.80478347756685" lon="9.23131694126064"><ele>276.0</ele><time>2026-04-11T14:45:46.999Z</time></trkpt><trkpt lat="45.80482174830516" lon="9.231501609854389"><ele>276.0</ele><time>2026-04-11T14:45:47.999Z</time></trkpt><trkpt lat="45.804856432478076" lon="9.2316717655563"><ele>276.0</ele><time>2026-04-11T14:45:48.999Z</time></trkpt><trkpt lat="45.80488459845952" lon="9.231844668439582"><ele>276.0</ele><time>2026-04-11T14:45:49.999Z</time></trkpt><trkpt lat="45.80490973084476" lon="9.232031278575214"><ele>276.0</ele><time>2026-04-11T14:45:50.999Z</time></trkpt><trkpt lat="45.80495225852314" lon="9.232246534455875"><ele>276.0</ele><time>2026-04-11T14:45:51.999Z</time></trkpt><trkpt lat="45.80499774541322" lon="9.232476322792769"><ele>276.3333333333333</ele><time>2026-04-11T14:45:52.999Z</time></trkpt><trkpt lat="45.80504894177242" lon="9.232725587360752"><ele>276.66666666666663</ele><time>2026-04-11T14:45:53.999Z</time></trkpt><trkpt lat="45.80509377964577" lon="9.232951511130857"><ele>277.0</ele><time>2026-04-11T14:45:54.999Z</time></trkpt><trkpt lat="45.805133565617616" lon="9.23316407902459"><ele>277.75</ele><time>2026-04-11T14:45:55.999Z</time></trkpt><trkpt lat="45.805170161190986" lon="9.233361128224663"><ele>278.5</ele><time>2026-04-11T14:45:56.999Z</time></trkpt><trkpt lat="45.805198952411196" lon="9.233529064419693"><ele>279.25</ele><time>2026-04-11T14:45:57.999Z</time></trkpt><trkpt lat="45.80522290525553" lon="9.233679405647207"><ele>280.0</ele><time>2026-04-11T14:45:58.999Z</time></trkpt><trkpt lat="45.80523890518847" lon="9.233799098140508"><ele>280.0</ele><time>2026-04-11T14:45:59.999Z</time></trkpt><trkpt lat="45.80524611622302" lon="9.233895064245164"><ele>280.0</ele><time>2026-04-11T14:46:00.999Z</time></trkpt><trkpt lat="45.80524451691328" lon="9.234027003974225"><ele>280.0</ele><time>2026-04-11T14:46:02.999Z</time></trkpt><trkpt lat="45.80523721558627" lon="9.234132189840876"><ele>280.0</ele><time>2026-04-11T14:46:05.999Z</time></trkpt><trkpt lat="45.80520540519353" lon="9.234227973472843"><ele>280.0</ele><time>2026-04-11T14:46:08.999Z</time></trkpt><trkpt lat="45.805165167861446" lon="9.234300273076903"><ele>280.0</ele><time>2026-04-11T14:46:09.999Z</time></trkpt><trkpt lat="45.80506965227417" lon="9.234439494418625"><ele>279.4</ele><time>2026-04-11T14:46:11.999Z</time></trkpt><trkpt lat="45.805006109884175" lon="9.234539902217678"><ele>278.8</ele><time>2026-04-11T14:46:12.999Z</time></trkpt><trkpt lat="45.80493488507095" lon="9.234643256154024"><ele>278.2</ele><time>2026-04-11T14:46:13.999Z</time></trkpt><trkpt lat="45.804852126437446" lon="9.234752404169623"><ele>277.6</ele><time>2026-04-11T14:46:14.999Z</time></trkpt><trkpt lat="45.804750586460614" lon="9.234870706196736"><ele>277.0</ele><time>2026-04-11T14:46:15.999Z</time></trkpt><trkpt lat="45.80463592497186" lon="9.234992548692603"><ele>276.66666666666663</ele><time>2026-04-11T14:46:16.999Z</time></trkpt><trkpt lat="45.804508944132756" lon="9.235111435190849"><ele>276.3333333333333</ele><time>2026-04-11T14:46:17.999Z</time></trkpt><trkpt lat="45.80437257333268" lon="9.235223324032123"><ele>276.0</ele><time>2026-04-11T14:46:18.999Z</time></trkpt><trkpt lat="45.80422795014394" lon="9.235334776734842"><ele>275.6666666666667</ele><time>2026-04-11T14:46:19.999Z</time></trkpt><trkpt lat="45.80407861256475" lon="9.235447276874007"><ele>275.33333333333337</ele><time>2026-04-11T14:46:20.999Z</time></trkpt><trkpt lat="45.80392601788024" lon="9.235563576712787"><ele>275.0</ele><time>2026-04-11T14:46:21.999Z</time></trkpt><trkpt lat="45.80376992414279" lon="9.23567863339619"><ele>274.6666666666667</ele><time>2026-04-11T14:46:22.999Z</time></trkpt><trkpt lat="45.803613516201146" lon="9.23578726669146"><ele>274.3333333333333</ele><time>2026-04-11T14:46:23.999Z</time></trkpt><trkpt lat="45.80346185610429" lon="9.235893794510819"><ele>274.0</ele><time>2026-04-11T14:46:24.999Z</time></trkpt><trkpt lat="45.80331547757954" lon="9.235995293439201"><ele>274.0</ele><time>2026-04-11T14:46:25.999Z</time></trkpt><trkpt lat="45.803177523195686" lon="9.236090017331808"><ele>274.0</ele><time>2026-04-11T14:46:26.999Z</time></trkpt><trkpt lat="45.80305018753492" lon="9.236172048333323"><ele>274.0</ele><time>2026-04-11T14:46:27.999Z</time></trkpt><trkpt lat="45.80293206841352" lon="9.236241428200834"><ele>274.0</ele><time>2026-04-11T14:46:28.999Z</time></trkpt><trkpt lat="45.8028193653638" lon="9.23630489740015"><ele>274.0</ele><time>2026-04-11T14:46:29.999Z</time></trkpt><trkpt lat="45.80271066247386" lon="9.236363638192046"><ele>274.0</ele><time>2026-04-11T14:46:30.999Z</time></trkpt><trkpt lat="45.80260687436041" lon="9.236416066627086"><ele>274.0</ele><time>2026-04-11T14:46:31.999Z</time></trkpt><trkpt lat="45.80250824394963" lon="9.236464020545613"><ele>274.0</ele><time>2026-04-11T14:46:32.999Z</time></trkpt><trkpt lat="45.80241330390033" lon="9.236507068048471"><ele>274.0</ele><time>2026-04-11T14:46:33.999Z</time></trkpt><trkpt lat="45.80232131043219" lon="9.236538277909345"><ele>273.59999999999997</ele><time>2026-04-11T14:46:34.999Z</time></trkpt><trkpt lat="45.802232576190015" lon="9.236553453023832"><ele>273.2</ele><time>2026-04-11T14:46:35.999Z</time></trkpt><trkpt lat="45.802143524354115" lon="9.236557270760366"><ele>272.79999999999995</ele><time>2026-04-11T14:46:36.999Z</time></trkpt><trkpt lat="45.802054904998606" lon="9.236574787531273"><ele>272.4</ele><time>2026-04-11T14:46:37.999Z</time></trkpt><trkpt lat="45.80196713735901" lon="9.236631952737277"><ele>272.0</ele><time>2026-04-11T14:46:38.999Z</time></trkpt><trkpt lat="45.80188110961592" lon="9.23672929315197"><ele>272.0</ele><time>2026-04-11T14:46:39.999Z</time></trkpt><trkpt lat="45.80178570614514" lon="9.236850349911471"><ele>272.0</ele><time>2026-04-11T14:46:40.999Z</time></trkpt><trkpt lat="45.80167159873976" lon="9.236973555338313"><ele>272.0</ele><time>2026-04-11T14:46:41.999Z</time></trkpt><trkpt lat="45.80154943191247" lon="9.237096545845667"><ele>272.0</ele><time>2026-04-11T14:46:42.999Z</time></trkpt><trkpt lat="45.801421626035925" lon="9.237230232163514"><ele>271.6666666666667</ele><time>2026-04-11T14:46:43.999Z</time></trkpt><trkpt lat="45.80128505991214" lon="9.237364676163542"><ele>271.3333333333333</ele><time>2026-04-11T14:46:44.999Z</time></trkpt><trkpt lat="45.80112841822011" lon="9.237462487426445"><ele>271.0</ele><time>2026-04-11T14:46:45.999Z</time></trkpt><trkpt lat="45.80097678270269" lon="9.237589683818875"><ele>271.0</ele><time>2026-04-11T14:46:46.999Z</time></trkpt><trkpt lat="45.800816455200284" lon="9.237691082017493"><ele>271.0</ele><time>2026-04-11T14:46:47.999Z</time></trkpt><trkpt lat="45.80066167441642" lon="9.237802012428768"><ele>271.0</ele><time>2026-04-11T14:46:48.999Z</time></trkpt><trkpt lat="45.800500715915966" lon="9.237890240496286"><ele>271.0</ele><time>2026-04-11T14:46:49.999Z</time></trkpt><trkpt lat="45.80034621677335" lon="9.237995342510084"><ele>271.0</ele><time>2026-04-11T14:46:50.999Z</time></trkpt><trkpt lat="45.80019448574852" lon="9.238098550563635"><ele>271.0</ele><time>2026-04-11T14:46:51.999Z</time></trkpt><trkpt lat="45.800040043496764" lon="9.238203546877019"><ele>270.66666666666663</ele><time>2026-04-11T14:46:52.999Z</time></trkpt><trkpt lat="45.79988211838775" lon="9.238310910979683"><ele>270.3333333333333</ele><time>2026-04-11T14:46:53.999Z</time></trkpt><trkpt lat="45.79972745245558" lon="9.23844155096382"><ele>270.0</ele><time>2026-04-11T14:46:54.999Z</time></trkpt><trkpt lat="45.799561813393076" lon="9.23855205545867"><ele>270.0</ele><time>2026-04-11T14:46:55.999Z</time></trkpt><trkpt lat="45.79939640030155" lon="9.238665280584911"><ele>270.0</ele><time>2026-04-11T14:46:56.999Z</time></trkpt><trkpt lat="45.79923051299336" lon="9.238776329163285"><ele>270.0</ele><time>2026-04-11T14:46:57.999Z</time></trkpt><trkpt lat="45.799065164522474" lon="9.238885618099747"><ele>270.0</ele><time>2026-04-11T14:46:58.999Z</time></trkpt><trkpt lat="45.79890015497243" lon="9.238994266706744"><ele>270.0</ele><time>2026-04-11T14:46:59.999Z</time></trkpt><trkpt lat="45.79873619771793" lon="9.239102197021154"><ele>270.0</ele><time>2026-04-11T14:47:00.999Z</time></trkpt><trkpt lat="45.7985717638142" lon="9.239209200900177"><ele>269.0</ele><time>2026-04-11T14:47:01.999Z</time></trkpt><trkpt lat="45.79840940676689" lon="9.23931550942376"><ele>268.0</ele><time>2026-04-11T14:47:02.999Z</time></trkpt><trkpt lat="45.798248631829985" lon="9.239426629543521"><ele>267.0</ele><time>2026-04-11T14:47:03.999Z</time></trkpt><trkpt lat="45.79808841334082" lon="9.239541661544157"><ele>267.0</ele><time>2026-04-11T14:47:04.999Z</time></trkpt><trkpt lat="45.79792732038844" lon="9.23965473620832"><ele>267.0</ele><time>2026-04-11T14:47:05.999Z</time></trkpt><trkpt lat="45.79776546716141" lon="9.23976521528862"><ele>267.0</ele><time>2026-04-11T14:47:06.999Z</time></trkpt><trkpt lat="45.79760303650344" lon="9.239876401002347"><ele>267.0</ele><time>2026-04-11T14:47:07.999Z</time></trkpt><trkpt lat="45.7974400330422" lon="9.239990165100194"><ele>267.0</ele><time>2026-04-11T14:47:09Z</time></trkpt><trkpt lat="45.79727717459012" lon="9.240101855037972"><ele>267.0</ele><time>2026-04-11T14:47:10Z</time></trkpt><trkpt lat="45.79711475956456" lon="9.240215886484286"><ele>267.0</ele><time>2026-04-11T14:47:11Z</time></trkpt><trkpt lat="45.79695277888311" lon="9.240329588839607"><ele>267.0</ele><time>2026-04-11T14:47:12Z</time></trkpt><trkpt lat="45.79679976676466" lon="9.240438934285697"><ele>267.0</ele><time>2026-04-11T14:47:13Z</time></trkpt><trkpt lat="45.79665485684446" lon="9.240542559111457"><ele>266.75</ele><time>2026-04-11T14:47:14Z</time></trkpt><trkpt lat="45.796516303597016" lon="9.240642576475079"><ele>266.5</ele><time>2026-04-11T14:47:15Z</time></trkpt><trkpt lat="45.796384597253095" lon="9.240738054510727"><ele>266.25</ele><time>2026-04-11T14:47:16Z</time></trkpt><trkpt lat="45.79625879206484" lon="9.240825916714094"><ele>266.0</ele><time>2026-04-11T14:47:17Z</time></trkpt><trkpt lat="45.7961400918794" lon="9.240905616687161"><ele>266.0</ele><time>2026-04-11T14:47:18Z</time></trkpt><trkpt lat="45.79603880506476" lon="9.240972573752561"><ele>266.0</ele><time>2026-04-11T14:47:19Z</time></trkpt><trkpt lat="45.79594801082525" lon="9.241025681993316"><ele>266.0</ele><time>2026-04-11T14:47:20Z</time></trkpt><trkpt lat="45.79586524667998" lon="9.241065352305279"><ele>266.0</ele><time>2026-04-11T14:47:21Z</time></trkpt><trkpt lat="45.79578459959675" lon="9.241088119969211"><ele>266.0</ele><time>2026-04-11T14:47:22Z</time></trkpt><trkpt lat="45.79570040599147" lon="9.241104059087203"><ele>265.75</ele><time>2026-04-11T14:47:23Z</time></trkpt><trkpt lat="45.79560180012605" lon="9.241076099416107"><ele>265.5</ele><time>2026-04-11T14:47:24Z</time></trkpt><trkpt lat="45.79550588551749" lon="9.241172080932888"><ele>265.25</ele><time>2026-04-11T14:47:25Z</time></trkpt><trkpt lat="45.79539090420259" lon="9.241259498123002"><ele>265.0</ele><time>2026-04-11T14:47:26Z</time></trkpt><trkpt lat="45.79527168099191" lon="9.241317795561168"><ele>265.0</ele><time>2026-04-11T14:47:27Z</time></trkpt><trkpt lat="45.7951502810691" lon="9.241346123630025"><ele>265.0</ele><time>2026-04-11T14:47:28Z</time></trkpt><trkpt lat="45.79502883331755" lon="9.241386255201903"><ele>265.0</ele><time>2026-04-11T14:47:29Z</time></trkpt><trkpt lat="45.794936546280844" lon="9.241521578317814"><ele>265.0</ele><time>2026-04-11T14:47:30Z</time></trkpt><trkpt lat="45.794843083166256" lon="9.241664229697278"><ele>264.66666666666663</ele><time>2026-04-11T14:47:31Z</time></trkpt><trkpt lat="45.79473543682041" lon="9.241797347582567"><ele>264.3333333333333</ele><time>2026-04-11T14:47:32Z</time></trkpt><trkpt lat="45.794608032688565" lon="9.241911795859304"><ele>264.0</ele><time>2026-04-11T14:47:33Z</time></trkpt><trkpt lat="45.7944662125582" lon="9.24202020164917"><ele>263.6666666666667</ele><time>2026-04-11T14:47:34Z</time></trkpt><trkpt lat="45.79431098997687" lon="9.24213007387776"><ele>263.33333333333337</ele><time>2026-04-11T14:47:35Z</time></trkpt><trkpt lat="45.79415091511036" lon="9.24223930018302"><ele>263.0</ele><time>2026-04-11T14:47:36Z</time></trkpt><trkpt lat="45.7939922861023" lon="9.2423476179186"><ele>262.6666666666667</ele><time>2026-04-11T14:47:37Z</time></trkpt><trkpt lat="45.79383238163307" lon="9.242460094030537"><ele>262.3333333333333</ele><time>2026-04-11T14:47:38Z</time></trkpt><trkpt lat="45.79367067426744" lon="9.242577403471275"><ele>262.0</ele><time>2026-04-11T14:47:39Z</time></trkpt><trkpt lat="45.79350784674396" lon="9.242695064745456"><ele>262.3333333333333</ele><time>2026-04-11T14:47:40Z</time></trkpt><trkpt lat="45.79334037817803" lon="9.242806012756734"><ele>262.6666666666667</ele><time>2026-04-11T14:47:41Z</time></trkpt><trkpt lat="45.79316890119783" lon="9.242913884518947"><ele>263.0</ele><time>2026-04-11T14:47:42Z</time></trkpt><trkpt lat="45.79299569206764" lon="9.243020317052816"><ele>263.0</ele><time>2026-04-11T14:47:43Z</time></trkpt><trkpt lat="45.79282167869369" lon="9.243127249828998"><ele>263.0</ele><time>2026-04-11T14:47:44Z</time></trkpt><trkpt lat="45.79264804165038" lon="9.243239988843936"><ele>263.0</ele><time>2026-04-11T14:47:45Z</time></trkpt><trkpt lat="45.79247664883085" lon="9.243359422764849"><ele>263.33333333333337</ele><time>2026-04-11T14:47:45.999Z</time></trkpt><trkpt lat="45.79230713878771" lon="9.243475904452028"><ele>263.6666666666667</ele><time>2026-04-11T14:47:46.999Z</time></trkpt><trkpt lat="45.792136259163996" lon="9.243574103901823"><ele>264.0</ele><time>2026-04-11T14:47:47.999Z</time></trkpt><trkpt lat="45.791954326095244" lon="9.243640788629705"><ele>263.0</ele><time>2026-04-11T14:47:48.999Z</time></trkpt><trkpt lat="45.791770317626565" lon="9.243690640428369"><ele>262.0</ele><time>2026-04-11T14:47:49.999Z</time></trkpt><trkpt lat="45.791582792843386" lon="9.243717449601668"><ele>261.0</ele><time>2026-04-11T14:47:50.999Z</time></trkpt><trkpt lat="45.791396742095735" lon="9.243720148321104"><ele>261.0</ele><time>2026-04-11T14:47:51.999Z</time></trkpt><trkpt lat="45.79121368175865" lon="9.243688234496465"><ele>261.0</ele><time>2026-04-11T14:47:52.999Z</time></trkpt><trkpt lat="45.79103428978492" lon="9.24363360441019"><ele>261.0</ele><time>2026-04-11T14:47:53.999Z</time></trkpt><trkpt lat="45.790856429752544" lon="9.243568388131932"><ele>260.0</ele><time>2026-04-11T14:47:54.999Z</time></trkpt><trkpt lat="45.790678256646345" lon="9.243503323719308"><ele>259.0</ele><time>2026-04-11T14:47:55.999Z</time></trkpt><trkpt lat="45.79049925546711" lon="9.243439593664123"><ele>258.0</ele><time>2026-04-11T14:47:56.999Z</time></trkpt><trkpt lat="45.79032339720272" lon="9.243377162607443"><ele>258.6666666666667</ele><time>2026-04-11T14:47:57.999Z</time></trkpt><trkpt lat="45.790151877228375" lon="9.243312106920285"><ele>259.33333333333337</ele><time>2026-04-11T14:47:58.999Z</time></trkpt><trkpt lat="45.78998191392866" lon="9.24324746583916"><ele>260.0</ele><time>2026-04-11T14:47:59.999Z</time></trkpt><trkpt lat="45.78981350106063" lon="9.243184089152964"><ele>260.33333333333337</ele><time>2026-04-11T14:48:00.999Z</time></trkpt><trkpt lat="45.789647598938444" lon="9.243121676676246"><ele>260.6666666666667</ele><time>2026-04-11T14:48:01.999Z</time></trkpt><trkpt lat="45.78948142517067" lon="9.243056598842513"><ele>261.0</ele><time>2026-04-11T14:48:02.999Z</time></trkpt><trkpt lat="45.789317745475465" lon="9.24298341125077"><ele>261.3333333333333</ele><time>2026-04-11T14:48:03.999Z</time></trkpt><trkpt lat="45.78916123689418" lon="9.242912066497716"><ele>261.66666666666663</ele><time>2026-04-11T14:48:04.999Z</time></trkpt><trkpt lat="45.78901309732297" lon="9.242846949236073"><ele>262.0</ele><time>2026-04-11T14:48:05.999Z</time></trkpt><trkpt lat="45.78886937099056" lon="9.242801351522056"><ele>262.0</ele><time>2026-04-11T14:48:06.999Z</time></trkpt><trkpt lat="45.7887397703052" lon="9.242752996879934"><ele>262.0</ele><time>2026-04-11T14:48:07.999Z</time></trkpt><trkpt lat="45.788664079355584" lon="9.242484938609518"><ele>262.0</ele><time>2026-04-11T14:48:08.999Z</time></trkpt><trkpt lat="45.78857235198111" lon="9.242330987628161"><ele>261.75</ele><time>2026-04-11T14:48:09.999Z</time></trkpt><trkpt lat="45.788462498701094" lon="9.242228884906618"><ele>261.5</ele><time>2026-04-11T14:48:10.999Z</time></trkpt><trkpt lat="45.78833749243255" lon="9.24219833119349"><ele>261.25</ele><time>2026-04-11T14:48:11.999Z</time></trkpt><trkpt lat="45.78820939197527" lon="9.242185951034449"><ele>261.0</ele><time>2026-04-11T14:48:12.999Z</time></trkpt><trkpt lat="45.7880922903916" lon="9.24211155613329"><ele>261.0</ele><time>2026-04-11T14:48:13.999Z</time></trkpt><trkpt lat="45.78799124682921" lon="9.242023697506875"><ele>261.0</ele><time>2026-04-11T14:48:14.999Z</time></trkpt><trkpt lat="45.787889751651065" lon="9.241981289042725"><ele>261.0</ele><time>2026-04-11T14:48:15.999Z</time></trkpt><trkpt lat="45.78777969056582" lon="9.241989751976664"><ele>261.0</ele><time>2026-04-11T14:48:16.999Z</time></trkpt><trkpt lat="45.78765952038046" lon="9.242028862985736"><ele>261.25</ele><time>2026-04-11T14:48:17.999Z</time></trkpt><trkpt lat="45.78752933262443" lon="9.242017238907724"><ele>261.5</ele><time>2026-04-11T14:48:18.999Z</time></trkpt><trkpt lat="45.78740111504094" lon="9.24197185857741"><ele>261.75</ele><time>2026-04-11T14:48:19.999Z</time></trkpt><trkpt lat="45.78727149065571" lon="9.241956133716192"><ele>262.0</ele><time>2026-04-11T14:48:20.999Z</time></trkpt><trkpt lat="45.78714301265054" lon="9.241980206311153"><ele>262.0</ele><time>2026-04-11T14:48:21.999Z</time></trkpt><trkpt lat="45.78703395985664" lon="9.242071076725827"><ele>262.0</ele><time>2026-04-11T14:48:22.999Z</time></trkpt><trkpt lat="45.786951898450674" lon="9.24221350768869"><ele>262.0</ele><time>2026-04-11T14:48:23.999Z</time></trkpt><trkpt lat="45.786907149709535" lon="9.242372449475662"><ele>262.0</ele><time>2026-04-11T14:48:24.999Z</time></trkpt><trkpt lat="45.78690360875596" lon="9.242557976959056"><ele>262.0</ele><time>2026-04-11T14:48:25.999Z</time></trkpt><trkpt lat="45.78694667544503" lon="9.242737354959312"><ele>262.0</ele><time>2026-04-11T14:48:26.999Z</time></trkpt><trkpt lat="45.78702269765859" lon="9.242877526586199"><ele>262.0</ele><time>2026-04-11T14:48:27.999Z</time></trkpt><trkpt lat="45.78709635004295" lon="9.243017488536388"><ele>262.0</ele><time>2026-04-11T14:48:28.999Z</time></trkpt><trkpt lat="45.78716818091385" lon="9.243167697341445"><ele>262.0</ele><time>2026-04-11T14:48:29.999Z</time></trkpt><trkpt lat="45.78723013316867" lon="9.243313175880212"><ele>262.0</ele><time>2026-04-11T14:48:30.999Z</time></trkpt><trkpt lat="45.78728257876874" lon="9.24344440938616"><ele>262.0</ele><time>2026-04-11T14:48:31.999Z</time></trkpt><trkpt lat="45.787321702576804" lon="9.24354800048701"><ele>262.0</ele><time>2026-04-11T14:48:32.999Z</time></trkpt><trkpt lat="45.78735813142738" lon="9.243634287804905"><ele>262.0</ele><time>2026-04-11T14:48:33.999Z</time></trkpt><trkpt lat="45.78739139749106" lon="9.243716023321001"><ele>262.0</ele><time>2026-04-11T14:48:34.999Z</time></trkpt><trkpt lat="45.787429187176194" lon="9.243799009882055"><ele>262.0</ele><time>2026-04-11T14:48:35.999Z</time></trkpt><trkpt lat="45.78746879733744" lon="9.243884702762792"><ele>262.0</ele><time>2026-04-11T14:48:36.999Z</time></trkpt><trkpt lat="45.78751840119484" lon="9.243957204488723"><ele>262.0</ele><time>2026-04-11T14:48:37.999Z</time></trkpt><trkpt lat="45.787535943330454" lon="9.244169490928298"><ele>262.0</ele><time>2026-04-11T14:48:39.999Z</time></trkpt><trkpt lat="45.787549231105864" lon="9.24427776548578"><ele>262.0</ele><time>2026-04-11T14:48:40.999Z</time></trkpt><trkpt lat="45.787562493831636" lon="9.244395471809995"><ele>262.4</ele><time>2026-04-11T14:48:41.999Z</time></trkpt><trkpt lat="45.78757724708162" lon="9.244517944600721"><ele>262.79999999999995</ele><time>2026-04-11T14:48:42.999Z</time></trkpt><trkpt lat="45.78759328799582" lon="9.244649335325459"><ele>263.2</ele><time>2026-04-11T14:48:43.999Z</time></trkpt><trkpt lat="45.78760993563469" lon="9.24478729230191"><ele>263.59999999999997</ele><time>2026-04-11T14:48:44.999Z</time></trkpt><trkpt lat="45.787627321192524" lon="9.244931901123833"><ele>264.0</ele><time>2026-04-11T14:48:45.999Z</time></trkpt><trkpt lat="45.7876448772568" lon="9.245079065583758"><ele>264.0</ele><time>2026-04-11T14:48:46.999Z</time></trkpt><trkpt lat="45.78766222076437" lon="9.245226355744734"><ele>264.0</ele><time>2026-04-11T14:48:47.999Z</time></trkpt><trkpt lat="45.787681289365" lon="9.245370352131713"><ele>264.0</ele><time>2026-04-11T14:48:48.999Z</time></trkpt><trkpt lat="45.78769783116622" lon="9.245509646284557"><ele>264.0</ele><time>2026-04-11T14:48:49.999Z</time></trkpt><trkpt lat="45.78771394795222" lon="9.245646538790401"><ele>264.0</ele><time>2026-04-11T14:48:50.999Z</time></trkpt><trkpt lat="45.7877298735152" lon="9.245778760190985"><ele>264.0</ele><time>2026-04-11T14:48:51.999Z</time></trkpt><trkpt lat="45.78774445689914" lon="9.2458998277339"><ele>264.0</ele><time>2026-04-11T14:48:52.999Z</time></trkpt><trkpt lat="45.78775708319836" lon="9.246007094823815"><ele>264.0</ele><time>2026-04-11T14:48:53.999Z</time></trkpt><trkpt lat="45.78776957816578" lon="9.246098625102494"><ele>264.0</ele><time>2026-04-11T14:48:54.999Z</time></trkpt><trkpt lat="45.78779444763085" lon="9.246243380203069"><ele>264.0</ele><time>2026-04-11T14:48:56.999Z</time></trkpt><trkpt lat="45.78779221656614" lon="9.246358815812217"><ele>264.0</ele><time>2026-04-11T14:48:58.999Z</time></trkpt><trkpt lat="45.78780425261678" lon="9.246457274088543"><ele>264.0</ele><time>2026-04-11T14:49:00.999Z</time></trkpt><trkpt lat="45.78781896667454" lon="9.246577639217232"><ele>264.0</ele><time>2026-04-11T14:49:03.999Z</time></trkpt><trkpt lat="45.787841427865075" lon="9.246761378083631"><ele>264.0</ele><time>2026-04-11T14:49:11.998Z</time></trkpt><trkpt lat="45.78786858777524" lon="9.246867528211068"><ele>264.0</ele><time>2026-04-11T14:49:12.998Z</time></trkpt><trkpt lat="45.78787703786492" lon="9.24699433571625"><ele>264.0</ele><time>2026-04-11T14:49:13.998Z</time></trkpt><trkpt lat="45.78789403240099" lon="9.24714401462259"><ele>264.0</ele><time>2026-04-11T14:49:15Z</time></trkpt><trkpt lat="45.787914825913646" lon="9.247300509473106"><ele>264.0</ele><time>2026-04-11T14:49:16Z</time></trkpt><trkpt lat="45.787937397289156" lon="9.247470514358195"><ele>264.0</ele><time>2026-04-11T14:49:17Z</time></trkpt><trkpt lat="45.78796137871991" lon="9.247648288780631"><ele>264.0</ele><time>2026-04-11T14:49:18Z</time></trkpt><trkpt lat="45.78798579611767" lon="9.247831745251187"><ele>264.0</ele><time>2026-04-11T14:49:19Z</time></trkpt><trkpt lat="45.788011920771844" lon="9.248023863212708"><ele>264.0</ele><time>2026-04-11T14:49:20Z</time></trkpt><trkpt lat="45.78803896849481" lon="9.248219020606099"><ele>264.0</ele><time>2026-04-11T14:49:21Z</time></trkpt><trkpt lat="45.788066890751544" lon="9.248420284089256"><ele>264.0</ele><time>2026-04-11T14:49:22Z</time></trkpt><trkpt lat="45.78809423855865" lon="9.24862672556236"><ele>265.3333333333333</ele><time>2026-04-11T14:49:23Z</time></trkpt><trkpt lat="45.78812633583592" lon="9.248835926631582"><ele>266.66666666666663</ele><time>2026-04-11T14:49:24Z</time></trkpt><trkpt lat="45.78815564057983" lon="9.24904493007352"><ele>268.0</ele><time>2026-04-11T14:49:25Z</time></trkpt><trkpt lat="45.78819593574816" lon="9.249257162991965"><ele>268.66666666666663</ele><time>2026-04-11T14:49:26Z</time></trkpt><trkpt lat="45.7882476013291" lon="9.249472114612399"><ele>269.3333333333333</ele><time>2026-04-11T14:49:27Z</time></trkpt><trkpt lat="45.78830860843028" lon="9.249686105281441"><ele>270.0</ele><time>2026-04-11T14:49:28Z</time></trkpt><trkpt lat="45.788368722390125" lon="9.249904058444978"><ele>270.3333333333333</ele><time>2026-04-11T14:49:29Z</time></trkpt><trkpt lat="45.7884285633761" lon="9.250128522471691"><ele>270.66666666666663</ele><time>2026-04-11T14:49:30Z</time></trkpt><trkpt lat="45.78848776545333" lon="9.250354483216595"><ele>271.0</ele><time>2026-04-11T14:49:31Z</time></trkpt><trkpt lat="45.788545272213035" lon="9.250588194211101"><ele>268.3333333333333</ele><time>2026-04-11T14:49:32Z</time></trkpt><trkpt lat="45.7885976321232" lon="9.250831082072763"><ele>265.6666666666667</ele><time>2026-04-11T14:49:33Z</time></trkpt><trkpt lat="45.78864534205988" lon="9.251078557519369"><ele>263.0</ele><time>2026-04-11T14:49:34Z</time></trkpt><trkpt lat="45.78869011697614" lon="9.251332520656863"><ele>263.6666666666667</ele><time>2026-04-11T14:49:35Z</time></trkpt><trkpt lat="45.78873431651987" lon="9.251593800096142"><ele>264.3333333333333</ele><time>2026-04-11T14:49:36Z</time></trkpt><trkpt lat="45.78877970505268" lon="9.251857871810872"><ele>265.0</ele><time>2026-04-11T14:49:37Z</time></trkpt><trkpt lat="45.78882221320511" lon="9.252123995883945"><ele>265.66666666666663</ele><time>2026-04-11T14:49:38Z</time></trkpt><trkpt lat="45.78886418338701" lon="9.252391728493645"><ele>266.3333333333333</ele><time>2026-04-11T14:49:39Z</time></trkpt><trkpt lat="45.788902126050466" lon="9.252660161058696"><ele>267.0</ele><time>2026-04-11T14:49:40Z</time></trkpt><trkpt lat="45.788936533069474" lon="9.252926277200023"><ele>268.6666666666667</ele><time>2026-04-11T14:49:41Z</time></trkpt><trkpt lat="45.78897096167625" lon="9.253190587171522"><ele>270.33333333333337</ele><time>2026-04-11T14:49:42Z</time></trkpt><trkpt lat="45.789004561484894" lon="9.253447936908975"><ele>272.0</ele><time>2026-04-11T14:49:43Z</time></trkpt><trkpt lat="45.789038671499036" lon="9.253692701564612"><ele>272.0</ele><time>2026-04-11T14:49:44Z</time></trkpt><trkpt lat="45.78907129185699" lon="9.253933946107082"><ele>272.0</ele><time>2026-04-11T14:49:45Z</time></trkpt><trkpt lat="45.7891041608173" lon="9.25417331587022"><ele>272.0</ele><time>2026-04-11T14:49:46Z</time></trkpt><trkpt lat="45.78913843955546" lon="9.254412463409784"><ele>272.0</ele><time>2026-04-11T14:49:47Z</time></trkpt><trkpt lat="45.78917048443828" lon="9.25465361735669"><ele>272.0</ele><time>2026-04-11T14:49:47.999Z</time></trkpt><trkpt lat="45.78919567394453" lon="9.254899239700979"><ele>272.0</ele><time>2026-04-11T14:49:48.999Z</time></trkpt><trkpt lat="45.789212176160255" lon="9.255147138986237"><ele>271.6666666666667</ele><time>2026-04-11T14:49:49.999Z</time></trkpt><trkpt lat="45.78922321793922" lon="9.255396420879752"><ele>271.3333333333333</ele><time>2026-04-11T14:49:50.999Z</time></trkpt><trkpt lat="45.789219219737056" lon="9.255644894906093"><ele>271.0</ele><time>2026-04-11T14:49:51.999Z</time></trkpt><trkpt lat="45.789201806151965" lon="9.255856997578817"><ele>271.5</ele><time>2026-04-11T14:49:52.999Z</time></trkpt><trkpt lat="45.78918062532311" lon="9.256034082296763"><ele>272.0</ele><time>2026-04-11T14:49:53.999Z</time></trkpt><trkpt lat="45.78915338509238" lon="9.256206970915617"><ele>272.5</ele><time>2026-04-11T14:49:54.999Z</time></trkpt><trkpt lat="45.78912396373344" lon="9.256386252362613"><ele>273.0</ele><time>2026-04-11T14:49:55.999Z</time></trkpt><trkpt lat="45.78909031006668" lon="9.2565680740881"><ele>274.0</ele><time>2026-04-11T14:49:56.999Z</time></trkpt><trkpt lat="45.78904878659532" lon="9.25675118011438"><ele>275.0</ele><time>2026-04-11T14:49:57.999Z</time></trkpt><trkpt lat="45.78899703079804" lon="9.256927448806715"><ele>276.0</ele><time>2026-04-11T14:49:58.999Z</time></trkpt><trkpt lat="45.788943196844826" lon="9.257104641237467"><ele>277.0</ele><time>2026-04-11T14:49:59.999Z</time></trkpt><trkpt lat="45.788918655262606" lon="9.257301059217841"><ele>277.25</ele><time>2026-04-11T14:50:00.999Z</time></trkpt><trkpt lat="45.78892173422023" lon="9.257508218897984"><ele>277.5</ele><time>2026-04-11T14:50:01.999Z</time></trkpt><trkpt lat="45.788931382391986" lon="9.257718902466133"><ele>277.75</ele><time>2026-04-11T14:50:02.999Z</time></trkpt><trkpt lat="45.78893503724472" lon="9.257932703889248"><ele>278.0</ele><time>2026-04-11T14:50:03.999Z</time></trkpt><trkpt lat="45.78893727745836" lon="9.258148452474186"><ele>279.0</ele><time>2026-04-11T14:50:04.999Z</time></trkpt><trkpt lat="45.788935296596016" lon="9.258365344819989"><ele>280.0</ele><time>2026-04-11T14:50:05.999Z</time></trkpt><trkpt lat="45.78892974416009" lon="9.258582821802635"><ele>281.0</ele><time>2026-04-11T14:50:06.999Z</time></trkpt><trkpt lat="45.78892042820996" lon="9.258798712938265"><ele>281.75</ele><time>2026-04-11T14:50:07.999Z</time></trkpt><trkpt lat="45.78891342024525" lon="9.259012642995915"><ele>282.5</ele><time>2026-04-11T14:50:08.999Z</time></trkpt><trkpt lat="45.788912322923444" lon="9.259224257205084"><ele>283.25</ele><time>2026-04-11T14:50:09.999Z</time></trkpt><trkpt lat="45.78890961801026" lon="9.259431411232379"><ele>284.0</ele><time>2026-04-11T14:50:10.999Z</time></trkpt><trkpt lat="45.78890293922895" lon="9.259633937345008"><ele>284.4</ele><time>2026-04-11T14:50:11.999Z</time></trkpt><trkpt lat="45.78889586953947" lon="9.259818560489503"><ele>284.79999999999995</ele><time>2026-04-11T14:50:12.999Z</time></trkpt><trkpt lat="45.78888659147281" lon="9.259987180458376"><ele>285.20000000000005</ele><time>2026-04-11T14:50:13.999Z</time></trkpt><trkpt lat="45.78887679229229" lon="9.260130008226321"><ele>285.6</ele><time>2026-04-11T14:50:14.999Z</time></trkpt><trkpt lat="45.78887279377628" lon="9.260255822552004"><ele>286.0</ele><time>2026-04-11T14:50:15.999Z</time></trkpt><trkpt lat="45.78886583908532" lon="9.260357711033002"><ele>285.99999999999994</ele><time>2026-04-11T14:50:16.999Z</time></trkpt><trkpt lat="45.78885214892397" lon="9.260450693887632"><ele>286.0</ele><time>2026-04-11T14:50:17.999Z</time></trkpt><trkpt lat="45.78882956212112" lon="9.260536422236116"><ele>286.0</ele><time>2026-04-11T14:50:18.999Z</time></trkpt><trkpt lat="45.788800175821144" lon="9.260625097342482"><ele>286.0</ele><time>2026-04-11T14:50:19.999Z</time></trkpt><trkpt lat="45.78877730040728" lon="9.260717551283769"><ele>286.0</ele><time>2026-04-11T14:50:20.999Z</time></trkpt><trkpt lat="45.78877622254841" lon="9.26081899923471"><ele>285.99999999999994</ele><time>2026-04-11T14:50:21.999Z</time></trkpt><trkpt lat="45.78879744371671" lon="9.260929857519844"><ele>286.0</ele><time>2026-04-11T14:50:22.999Z</time></trkpt><trkpt lat="45.78881481718962" lon="9.26105907008223"><ele>286.6</ele><time>2026-04-11T14:50:23.999Z</time></trkpt><trkpt lat="45.78882191278411" lon="9.261195523089865"><ele>287.20000000000005</ele><time>2026-04-11T14:50:24.999Z</time></trkpt><trkpt lat="45.7888226592105" lon="9.261344587888615"><ele>287.79999999999995</ele><time>2026-04-11T14:50:25.999Z</time></trkpt><trkpt lat="45.788828654009066" lon="9.261503051903572"><ele>288.4</ele><time>2026-04-11T14:50:26.999Z</time></trkpt><trkpt lat="45.7888414645114" lon="9.261670082671134"><ele>289.0</ele><time>2026-04-11T14:50:27.999Z</time></trkpt><trkpt lat="45.788865001919085" lon="9.261847481392852"><ele>289.0</ele><time>2026-04-11T14:50:28.999Z</time></trkpt><trkpt lat="45.78889110797981" lon="9.262027198182011"><ele>289.0</ele><time>2026-04-11T14:50:29.999Z</time></trkpt><trkpt lat="45.78892058486411" lon="9.262214348193687"><ele>289.0</ele><time>2026-04-11T14:50:30.999Z</time></trkpt><trkpt lat="45.78895551535124" lon="9.262405797741804"><ele>289.0</ele><time>2026-04-11T14:50:31.999Z</time></trkpt><trkpt lat="45.78898953909596" lon="9.262604960130075"><ele>288.3333333333333</ele><time>2026-04-11T14:50:32.999Z</time></trkpt><trkpt lat="45.789022072465826" lon="9.262812105890095"><ele>287.6666666666667</ele><time>2026-04-11T14:50:33.999Z</time></trkpt><trkpt lat="45.78905549980245" lon="9.263024331420814"><ele>287.0</ele><time>2026-04-11T14:50:34.999Z</time></trkpt><trkpt lat="45.7890916733364" lon="9.26324129247949"><ele>286.6666666666667</ele><time>2026-04-11T14:50:35.999Z</time></trkpt><trkpt lat="45.7891277694395" lon="9.263463294021335"><ele>286.3333333333333</ele><time>2026-04-11T14:50:36.999Z</time></trkpt><trkpt lat="45.78916250663537" lon="9.263687285283673"><ele>286.0</ele><time>2026-04-11T14:50:37.999Z</time></trkpt><trkpt lat="45.78920002059877" lon="9.263908878857757"><ele>286.0</ele><time>2026-04-11T14:50:38.999Z</time></trkpt><trkpt lat="45.78924222311424" lon="9.264128755898344"><ele>286.0</ele><time>2026-04-11T14:50:39.999Z</time></trkpt><trkpt lat="45.789281205791205" lon="9.26435094860603"><ele>286.0</ele><time>2026-04-11T14:50:40.999Z</time></trkpt><trkpt lat="45.789315770884855" lon="9.264574205118082"><ele>284.3333333333333</ele><time>2026-04-11T14:50:41.999Z</time></trkpt><trkpt lat="45.7893468895308" lon="9.264801693473018"><ele>282.6666666666667</ele><time>2026-04-11T14:50:42.999Z</time></trkpt><trkpt lat="45.78937520163157" lon="9.265031998070743"><ele>281.0</ele><time>2026-04-11T14:50:43.999Z</time></trkpt><trkpt lat="45.78940168245317" lon="9.265265508865374"><ele>281.0</ele><time>2026-04-11T14:50:44.999Z</time></trkpt><trkpt lat="45.78942520492281" lon="9.265497417523958"><ele>281.0</ele><time>2026-04-11T14:50:45.999Z</time></trkpt><trkpt lat="45.78944879827029" lon="9.265720258066551"><ele>281.0</ele><time>2026-04-11T14:50:46.999Z</time></trkpt><trkpt lat="45.78947084572492" lon="9.26592331873899"><ele>281.75</ele><time>2026-04-11T14:50:47.999Z</time></trkpt><trkpt lat="45.78949059335515" lon="9.266110282863002"><ele>282.5</ele><time>2026-04-11T14:50:48.999Z</time></trkpt><trkpt lat="45.78950156480707" lon="9.266288125654512"><ele>283.25</ele><time>2026-04-11T14:50:49.999Z</time></trkpt><trkpt lat="45.78948666472935" lon="9.266463315110778"><ele>284.0</ele><time>2026-04-11T14:50:50.999Z</time></trkpt><trkpt lat="45.7894933901848" lon="9.266626048358779"><ele>284.0</ele><time>2026-04-11T14:50:51.999Z</time></trkpt><trkpt lat="45.78937755134856" lon="9.266821497930698"><ele>284.0</ele><time>2026-04-11T14:50:52.999Z</time></trkpt><trkpt lat="45.78934150672182" lon="9.26702616948849"><ele>284.0</ele><time>2026-04-11T14:50:53.999Z</time></trkpt><trkpt lat="45.789317098317355" lon="9.26723987300917"><ele>285.0</ele><time>2026-04-11T14:50:54.999Z</time></trkpt><trkpt lat="45.789275741573" lon="9.267451256641415"><ele>286.0</ele><time>2026-04-11T14:50:55.999Z</time></trkpt><trkpt lat="45.78925201595954" lon="9.267673297707482"><ele>287.0</ele><time>2026-04-11T14:50:56.999Z</time></trkpt><trkpt lat="45.789227170260816" lon="9.267898475292972"><ele>288.33333333333337</ele><time>2026-04-11T14:50:57.999Z</time></trkpt><trkpt lat="45.78920095628457" lon="9.26812861490822"><ele>289.6666666666667</ele><time>2026-04-11T14:50:58.999Z</time></trkpt><trkpt lat="45.78916840811786" lon="9.268363986262766"><ele>291.0</ele><time>2026-04-11T14:50:59.999Z</time></trkpt><trkpt lat="45.789145438100356" lon="9.268606284224843"><ele>291.0</ele><time>2026-04-11T14:51:00.999Z</time></trkpt><trkpt lat="45.78910156829002" lon="9.268843702222881"><ele>291.0</ele><time>2026-04-11T14:51:01.999Z</time></trkpt><trkpt lat="45.78904564268872" lon="9.269077815480458"><ele>291.0</ele><time>2026-04-11T14:51:02.999Z</time></trkpt><trkpt lat="45.78898026999033" lon="9.26930316130884"><ele>289.6666666666667</ele><time>2026-04-11T14:51:03.999Z</time></trkpt><trkpt lat="45.78891643235598" lon="9.269511429781462"><ele>288.33333333333337</ele><time>2026-04-11T14:51:04.999Z</time></trkpt><trkpt lat="45.78885540470077" lon="9.269710944115419"><ele>287.0</ele><time>2026-04-11T14:51:05.999Z</time></trkpt><trkpt lat="45.78880213288238" lon="9.26991473117199"><ele>286.0</ele><time>2026-04-11T14:51:06.999Z</time></trkpt><trkpt lat="45.78876307900954" lon="9.270139704634515"><ele>285.0</ele><time>2026-04-11T14:51:07.999Z</time></trkpt><trkpt lat="45.788726615118286" lon="9.27036981126409"><ele>284.0</ele><time>2026-04-11T14:51:08.999Z</time></trkpt><trkpt lat="45.78869276571515" lon="9.270594713734003"><ele>283.75</ele><time>2026-04-11T14:51:09.999Z</time></trkpt><trkpt lat="45.788663777133465" lon="9.270812436235353"><ele>283.5</ele><time>2026-04-11T14:51:10.999Z</time></trkpt><trkpt lat="45.78863773547376" lon="9.27102125550866"><ele>283.25</ele><time>2026-04-11T14:51:11.999Z</time></trkpt><trkpt lat="45.788615326967" lon="9.27122029142855"><ele>283.0</ele><time>2026-04-11T14:51:12.998Z</time></trkpt><trkpt lat="45.78857306291878" lon="9.271419339868459"><ele>282.8</ele><time>2026-04-11T14:51:13.998Z</time></trkpt><trkpt lat="45.78854738527788" lon="9.271574743413186"><ele>282.6</ele><time>2026-04-11T14:51:14.998Z</time></trkpt><trkpt lat="45.788518931752925" lon="9.27169878926795"><ele>282.4</ele><time>2026-04-11T14:51:15.998Z</time></trkpt><trkpt lat="45.78848389916161" lon="9.271825028812476"><ele>282.2</ele><time>2026-04-11T14:51:16.998Z</time></trkpt><trkpt lat="45.78843195651031" lon="9.271963091969985"><ele>282.0</ele><time>2026-04-11T14:51:17.998Z</time></trkpt><trkpt lat="45.788370190471404" lon="9.272097014739328"><ele>281.2</ele><time>2026-04-11T14:51:18.998Z</time></trkpt><trkpt lat="45.78831059940928" lon="9.272218722250454"><ele>280.4</ele><time>2026-04-11T14:51:20Z</time></trkpt><trkpt lat="45.788243693812284" lon="9.272328193783226"><ele>279.6</ele><time>2026-04-11T14:51:21Z</time></trkpt><trkpt lat="45.788174206181836" lon="9.272402750016045"><ele>278.8</ele><time>2026-04-11T14:51:22Z</time></trkpt><trkpt lat="45.78811586915218" lon="9.272458566166009"><ele>278.0</ele><time>2026-04-11T14:51:23Z</time></trkpt><trkpt lat="45.78802128285885" lon="9.272548081392898"><ele>278.0</ele><time>2026-04-11T14:51:25Z</time></trkpt><trkpt lat="45.78792372248326" lon="9.272648737299233"><ele>278.0</ele><time>2026-04-11T14:51:27Z</time></trkpt><trkpt lat="45.78787327648897" lon="9.272720753703375"><ele>278.0</ele><time>2026-04-11T14:51:28Z</time></trkpt><trkpt lat="45.78781940512322" lon="9.272802597782695"><ele>278.0</ele><time>2026-04-11T14:51:29Z</time></trkpt><trkpt lat="45.78773862279338" lon="9.272878936741801"><ele>278.0</ele><time>2026-04-11T14:51:30Z</time></trkpt><trkpt lat="45.78767530445355" lon="9.272990255783336"><ele>278.2</ele><time>2026-04-11T14:51:31Z</time></trkpt><trkpt lat="45.78760371176758" lon="9.273081292852257"><ele>278.4</ele><time>2026-04-11T14:51:32Z</time></trkpt><trkpt lat="45.787548640227946" lon="9.273180832207416"><ele>278.59999999999997</ele><time>2026-04-11T14:51:33Z</time></trkpt><trkpt lat="45.7874959466903" lon="9.273277162659605"><ele>278.8</ele><time>2026-04-11T14:51:34Z</time></trkpt><trkpt lat="45.787455776258106" lon="9.2733920157111"><ele>279.0</ele><time>2026-04-11T14:51:35Z</time></trkpt><trkpt lat="45.78739501661354" lon="9.273508797750008"><ele>279.0</ele><time>2026-04-11T14:51:36Z</time></trkpt><trkpt lat="45.78735392350011" lon="9.273667143904287"><ele>279.0</ele><time>2026-04-11T14:51:37Z</time></trkpt><trkpt lat="45.78732562856305" lon="9.273815146476277"><ele>279.0</ele><time>2026-04-11T14:51:38Z</time></trkpt><trkpt lat="45.787318336475266" lon="9.273964331440729"><ele>279.0</ele><time>2026-04-11T14:51:40Z</time></trkpt><trkpt lat="45.78721899270984" lon="9.27400583150492"><ele>279.0</ele><time>2026-04-11T14:51:42Z</time></trkpt><trkpt lat="45.78712255446906" lon="9.273969125463408"><ele>279.0</ele><time>2026-04-11T14:51:43Z</time></trkpt><trkpt lat="45.787018238415" lon="9.273929377195063"><ele>279.0</ele><time>2026-04-11T14:51:44Z</time></trkpt><trkpt lat="45.78691066519611" lon="9.273911611359761"><ele>279.0</ele><time>2026-04-11T14:51:45Z</time></trkpt><trkpt lat="45.78679274317052" lon="9.27388226243346"><ele>279.0</ele><time>2026-04-11T14:51:46Z</time></trkpt><trkpt lat="45.786683276578174" lon="9.273869664042197"><ele>279.0</ele><time>2026-04-11T14:51:46.999Z</time></trkpt><trkpt lat="45.786581107850836" lon="9.273844611944707"><ele>278.1666666666667</ele><time>2026-04-11T14:51:47.999Z</time></trkpt><trkpt lat="45.786481064820734" lon="9.27381734365909"><ele>277.3333333333333</ele><time>2026-04-11T14:51:48.999Z</time></trkpt><trkpt lat="45.786381723306306" lon="9.273797952542788"><ele>276.5</ele><time>2026-04-11T14:51:49.999Z</time></trkpt><trkpt lat="45.786306029693336" lon="9.273781850055062"><ele>275.66666666666663</ele><time>2026-04-11T14:51:50.999Z</time></trkpt><trkpt lat="45.78622667065485" lon="9.273779928428787"><ele>274.8333333333333</ele><time>2026-04-11T14:51:52.999Z</time></trkpt><trkpt lat="45.78620430501575" lon="9.273905626401856"><ele>274.0</ele><time>2026-04-11T14:51:54.999Z</time></trkpt><trkpt lat="45.786199610247444" lon="9.27401857663549"><ele>274.0</ele><time>2026-04-11T14:51:55.999Z</time></trkpt><trkpt lat="45.78617332941578" lon="9.274153726176788"><ele>274.0</ele><time>2026-04-11T14:51:56.999Z</time></trkpt><trkpt lat="45.786145471994644" lon="9.274284191543806"><ele>274.0</ele><time>2026-04-11T14:51:57.999Z</time></trkpt><trkpt lat="45.78612160877509" lon="9.274402672244674"><ele>274.0</ele><time>2026-04-11T14:51:58.999Z</time></trkpt><trkpt lat="45.786106159238344" lon="9.27451806427233"><ele>274.0</ele><time>2026-04-11T14:51:59.999Z</time></trkpt><trkpt lat="45.78609068428145" lon="9.27463243558678"><ele>274.0</ele><time>2026-04-11T14:52:00.999Z</time></trkpt><trkpt lat="45.78607233620254" lon="9.274743608429157"><ele>274.16666666666663</ele><time>2026-04-11T14:52:01.999Z</time></trkpt><trkpt lat="45.78605546587977" lon="9.274857251756778"><ele>274.3333333333333</ele><time>2026-04-11T14:52:02.999Z</time></trkpt><trkpt lat="45.78603835403392" lon="9.274971886010942"><ele>274.5</ele><time>2026-04-11T14:52:03.999Z</time></trkpt><trkpt lat="45.786012323220014" lon="9.275071350974883"><ele>274.6666666666667</ele><time>2026-04-11T14:52:04.999Z</time></trkpt><trkpt lat="45.785991598127595" lon="9.275157718985398"><ele>274.83333333333337</ele><time>2026-04-11T14:52:05.999Z</time></trkpt><trkpt lat="45.78597174444431" lon="9.275300852583365"><ele>275.0</ele><time>2026-04-11T14:52:07.999Z</time></trkpt><trkpt lat="45.78596117069228" lon="9.275401584070442"><ele>273.6</ele><time>2026-04-11T14:52:09.999Z</time></trkpt><trkpt lat="45.785951774379264" lon="9.275521304938694"><ele>272.2</ele><time>2026-04-11T14:52:15.999Z</time></trkpt><trkpt lat="45.78589548058705" lon="9.27567497331213"><ele>270.8</ele><time>2026-04-11T14:52:17.999Z</time></trkpt><trkpt lat="45.78582086264405" lon="9.275778401963086"><ele>269.4</ele><time>2026-04-11T14:52:19.999Z</time></trkpt><trkpt lat="45.7857653027171" lon="9.27585300854105"><ele>268.0</ele><time>2026-04-11T14:52:21.999Z</time></trkpt><trkpt lat="45.785724547797024" lon="9.27593459719227"><ele>268.0</ele><time>2026-04-11T14:52:24.999Z</time></trkpt><trkpt lat="45.78568944611023" lon="9.27603900413843"><ele>268.0</ele><time>2026-04-11T14:52:28.999Z</time></trkpt><trkpt lat="45.78564584570195" lon="9.276134933726613"><ele>268.0</ele><time>2026-04-11T14:52:32.999Z</time></trkpt><trkpt lat="45.785616137905535" lon="9.276262479598872"><ele>268.0</ele><time>2026-04-11T14:52:35.999Z</time></trkpt><trkpt lat="45.78555506294659" lon="9.276318001946867"><ele>268.0</ele><time>2026-04-11T14:54:44.999Z</time></trkpt><trkpt lat="45.785605815345185" lon="9.276235384743575"><ele>268.0</ele><time>2026-04-11T14:55:11.998Z</time></trkpt><trkpt lat="45.78565863328194" lon="9.276161256943405"><ele>268.0</ele><time>2026-04-11T14:55:18.998Z</time></trkpt><trkpt lat="45.78568910070483" lon="9.276077396984645"><ele>268.0</ele><time>2026-04-11T14:55:24.998Z</time></trkpt><trkpt lat="45.78567316741196" lon="9.27598933100388"><ele>268.0</ele><time>2026-04-11T14:55:35.999Z</time></trkpt><trkpt lat="45.785560831110566" lon="9.275911945477887"><ele>268.0</ele><time>2026-04-11T15:12:09.999Z</time></trkpt><trkpt lat="45.78547884632515" lon="9.275794371477266"><ele>268.0</ele><time>2026-04-11T15:14:01Z</time></trkpt><trkpt lat="45.785321905441194" lon="9.27566312940531"><ele>268.0</ele><time>2026-04-11T15:14:03Z</time></trkpt><trkpt lat="45.785508520015505" lon="9.275696493433502"><ele>268.0</ele><time>2026-04-11T15:14:32Z</time></trkpt><trkpt lat="45.78547707234411" lon="9.27586618487812"><ele>268.0</ele><time>2026-04-11T15:14:42Z</time></trkpt><trkpt lat="45.78560939672997" lon="9.275879341633535"><ele>268.0</ele><time>2026-04-11T15:18:56Z</time></trkpt><trkpt lat="45.78568258975326" lon="9.275886356366124"><ele>268.0</ele><time>2026-04-11T15:19:11Z</time></trkpt><trkpt lat="45.785680471679065" lon="9.275982714947128"><ele>268.0</ele><time>2026-04-11T15:19:25Z</time></trkpt><trkpt lat="45.78565087077885" lon="9.276072023512862"><ele>268.0</ele><time>2026-04-11T15:19:40Z</time></trkpt><trkpt lat="45.78562811324289" lon="9.276163732699752"><ele>268.0</ele><time>2026-04-11T15:19:52Z</time></trkpt><trkpt lat="45.78570920676165" lon="9.276192908376045"><ele>268.0</ele><time>2026-04-11T15:20:16.999Z</time></trkpt><trkpt lat="45.785658306696426" lon="9.27613948696163"><ele>268.0</ele><time>2026-04-11T15:21:21Z</time></trkpt><trkpt lat="45.785669987213915" lon="9.276048241863439"><ele>268.0</ele><time>2026-04-11T15:21:31Z</time></trkpt><trkpt lat="45.78570237842676" lon="9.27596206709162"><ele>268.0</ele><time>2026-04-11T15:21:39Z</time></trkpt><trkpt lat="45.78567146910596" lon="9.275878204094802"><ele>268.0</ele><time>2026-04-11T15:21:52Z</time></trkpt><trkpt lat="45.78569446293482" lon="9.275788231767729"><ele>268.0</ele><time>2026-04-11T15:22:09.999Z</time></trkpt><trkpt lat="45.785667136477684" lon="9.275695281145266"><ele>268.0</ele><time>2026-04-11T15:22:17.999Z</time></trkpt><trkpt lat="45.78572247866123" lon="9.275747497880939"><ele>268.0</ele><time>2026-04-11T15:22:31.999Z</time></trkpt><trkpt lat="45.785740920231426" lon="9.275842495874512"><ele>268.0</ele><time>2026-04-11T15:22:38.999Z</time></trkpt><trkpt lat="45.78571534189488" lon="9.275926264222951"><ele>268.0</ele><time>2026-04-11T15:22:45Z</time></trkpt><trkpt lat="45.78569473407966" lon="9.27601166604549"><ele>268.0</ele><time>2026-04-11T15:22:50Z</time></trkpt><trkpt lat="45.785675360166174" lon="9.2761072296494"><ele>268.0</ele><time>2026-04-11T15:22:56Z</time></trkpt><trkpt lat="45.78564286604838" lon="9.27618951196963"><ele>268.0</ele><time>2026-04-11T15:23:02Z</time></trkpt><trkpt lat="45.785619616513216" lon="9.276275288222896"><ele>268.0</ele><time>2026-04-11T15:23:08Z</time></trkpt><trkpt lat="45.785559487005855" lon="9.276307837746588"><ele>268.0</ele><time>2026-04-11T15:23:16Z</time></trkpt><trkpt lat="45.78562543329339" lon="9.276180235880778"><ele>268.0</ele><time>2026-04-11T15:25:36Z</time></trkpt><trkpt lat="45.78567456055761" lon="9.27605767817811"><ele>268.0</ele><time>2026-04-11T15:25:38Z</time></trkpt><trkpt lat="45.785727633488186" lon="9.275968329518616"><ele>268.0</ele><time>2026-04-11T15:25:40Z</time></trkpt><trkpt lat="45.7857773600938" lon="9.275864003494673"><ele>268.0</ele><time>2026-04-11T15:25:42Z</time></trkpt><trkpt lat="45.78581158933841" lon="9.275776229969562"><ele>268.0</ele><time>2026-04-11T15:25:44Z</time></trkpt><trkpt lat="45.78589251614932" lon="9.275654962983978"><ele>268.0</ele><time>2026-04-11T15:25:46Z</time></trkpt><trkpt lat="45.78594474624573" lon="9.275514269430314"><ele>268.0</ele><time>2026-04-11T15:25:46.999Z</time></trkpt><trkpt lat="45.78596975286906" lon="9.27537745703016"><ele>268.0</ele><time>2026-04-11T15:25:47.999Z</time></trkpt><trkpt lat="45.78598503412915" lon="9.27525095101489"><ele>268.0</ele><time>2026-04-11T15:25:48.999Z</time></trkpt><trkpt lat="45.78600215466859" lon="9.275121788856952"><ele>268.0</ele><time>2026-04-11T15:25:49.999Z</time></trkpt><trkpt lat="45.78601920617742" lon="9.274991255246189"><ele>268.0</ele><time>2026-04-11T15:25:50.999Z</time></trkpt><trkpt lat="45.78604001606913" lon="9.274862302889558"><ele>269.0</ele><time>2026-04-11T15:25:51.999Z</time></trkpt><trkpt lat="45.786061998339115" lon="9.27474121631957"><ele>270.0</ele><time>2026-04-11T15:25:52.999Z</time></trkpt><trkpt lat="45.7861034195471" lon="9.274638528415906"><ele>271.0</ele><time>2026-04-11T15:25:53.999Z</time></trkpt><trkpt lat="45.78611943156739" lon="9.274534449983086"><ele>272.0</ele><time>2026-04-11T15:25:54.999Z</time></trkpt><trkpt lat="45.786135512486254" lon="9.274432664408238"><ele>273.0</ele><time>2026-04-11T15:25:55.999Z</time></trkpt><trkpt lat="45.7861506301381" lon="9.274336975870954"><ele>274.0</ele><time>2026-04-11T15:25:56.999Z</time></trkpt><trkpt lat="45.78616572309644" lon="9.274241443689485"><ele>274.0</ele><time>2026-04-11T15:25:57.999Z</time></trkpt><trkpt lat="45.786181152994374" lon="9.274143766553701"><ele>274.0</ele><time>2026-04-11T15:25:58.999Z</time></trkpt><trkpt lat="45.786180083966464" lon="9.27404397869187"><ele>274.0</ele><time>2026-04-11T15:25:59.999Z</time></trkpt><trkpt lat="45.78621439670999" lon="9.273918723732232"><ele>274.0</ele><time>2026-04-11T15:26:01.999Z</time></trkpt><trkpt lat="45.786225777793824" lon="9.273829639293849"><ele>274.0</ele><time>2026-04-11T15:26:04.999Z</time></trkpt><trkpt lat="45.786341787047036" lon="9.273795443846453"><ele>274.0</ele><time>2026-04-11T15:27:11Z</time></trkpt><trkpt lat="45.786404501990816" lon="9.27397104386392"><ele>274.0</ele><time>2026-04-11T15:27:13Z</time></trkpt><trkpt lat="45.78639223227688" lon="9.27411910776359"><ele>274.0</ele><time>2026-04-11T15:27:14Z</time></trkpt><trkpt lat="45.78637403885578" lon="9.274273716230157"><ele>274.0</ele><time>2026-04-11T15:27:15Z</time></trkpt><trkpt lat="45.786362431273965" lon="9.274435804545103"><ele>274.0</ele><time>2026-04-11T15:27:16Z</time></trkpt><trkpt lat="45.786349109613184" lon="9.274609252239236"><ele>274.0</ele><time>2026-04-11T15:27:17Z</time></trkpt><trkpt lat="45.78634771522427" lon="9.27478620989426"><ele>274.25</ele><time>2026-04-11T15:27:18Z</time></trkpt><trkpt lat="45.786325825904875" lon="9.274965703005366"><ele>274.5</ele><time>2026-04-11T15:27:19Z</time></trkpt><trkpt lat="45.78631976748985" lon="9.275129361708764"><ele>274.75</ele><time>2026-04-11T15:27:20Z</time></trkpt><trkpt lat="45.786309980429444" lon="9.27529056968348"><ele>275.0</ele><time>2026-04-11T15:27:21Z</time></trkpt><trkpt lat="45.78630371871891" lon="9.2754533268611"><ele>275.2</ele><time>2026-04-11T15:27:22Z</time></trkpt><trkpt lat="45.78630732024796" lon="9.275610135227824"><ele>275.4</ele><time>2026-04-11T15:27:23Z</time></trkpt><trkpt lat="45.78631774565425" lon="9.275749959532897"><ele>275.6</ele><time>2026-04-11T15:27:24Z</time></trkpt><trkpt lat="45.786355281236496" lon="9.275871461673654"><ele>275.8</ele><time>2026-04-11T15:27:25Z</time></trkpt><trkpt lat="45.78643364558338" lon="9.275967343828613"><ele>276.0</ele><time>2026-04-11T15:27:26Z</time></trkpt><trkpt lat="45.78652576678765" lon="9.276022169779521"><ele>276.0</ele><time>2026-04-11T15:27:27Z</time></trkpt><trkpt lat="45.78662172609185" lon="9.276027761873221"><ele>276.0</ele><time>2026-04-11T15:27:28Z</time></trkpt><trkpt lat="45.78672042939243" lon="9.276000301440195"><ele>276.0</ele><time>2026-04-11T15:27:29Z</time></trkpt><trkpt lat="45.78681183742219" lon="9.275963663342353"><ele>276.0</ele><time>2026-04-11T15:27:30Z</time></trkpt><trkpt lat="45.786894809131894" lon="9.27593013745456"><ele>276.0</ele><time>2026-04-11T15:27:31Z</time></trkpt><trkpt lat="45.78695898005465" lon="9.275905566909337"><ele>276.0</ele><time>2026-04-11T15:27:32Z</time></trkpt><trkpt lat="45.78704105117798" lon="9.275898783020706"><ele>275.75</ele><time>2026-04-11T15:27:34Z</time></trkpt><trkpt lat="45.787090626052326" lon="9.276121156150914"><ele>275.5</ele><time>2026-04-11T15:27:36Z</time></trkpt><trkpt lat="45.787114201563355" lon="9.27625354373536"><ele>275.25</ele><time>2026-04-11T15:27:37Z</time></trkpt><trkpt lat="45.78714288789481" lon="9.276401590464202"><ele>275.0</ele><time>2026-04-11T15:27:38Z</time></trkpt><trkpt lat="45.78716385561992" lon="9.276548437743713"><ele>275.0</ele><time>2026-04-11T15:27:39Z</time></trkpt><trkpt lat="45.7871699709709" lon="9.276708107087918"><ele>275.0</ele><time>2026-04-11T15:27:40Z</time></trkpt><trkpt lat="45.78716466779373" lon="9.276875819273206"><ele>275.0</ele><time>2026-04-11T15:27:41Z</time></trkpt><trkpt lat="45.78716200060839" lon="9.277045458107976"><ele>275.0</ele><time>2026-04-11T15:27:42Z</time></trkpt><trkpt lat="45.787166318175174" lon="9.277215693299897"><ele>276.25</ele><time>2026-04-11T15:27:43Z</time></trkpt><trkpt lat="45.7871886180096" lon="9.277383591025156"><ele>277.5</ele><time>2026-04-11T15:27:44Z</time></trkpt><trkpt lat="45.787226450869774" lon="9.277547725209251"><ele>278.75</ele><time>2026-04-11T15:27:45Z</time></trkpt><trkpt lat="45.787276449270784" lon="9.277704928278009"><ele>280.0</ele><time>2026-04-11T15:27:46Z</time></trkpt><trkpt lat="45.7873212491815" lon="9.277862648491432"><ele>280.0</ele><time>2026-04-11T15:27:47Z</time></trkpt><trkpt lat="45.787363130419706" lon="9.278019832029784"><ele>280.0</ele><time>2026-04-11T15:27:47.999Z</time></trkpt><trkpt lat="45.78740589237665" lon="9.278174401809155"><ele>280.0</ele><time>2026-04-11T15:27:48.999Z</time></trkpt><trkpt lat="45.78742551656702" lon="9.278332084977508"><ele>280.0</ele><time>2026-04-11T15:27:49.999Z</time></trkpt><trkpt lat="45.78741095187377" lon="9.27847830384872"><ele>280.0</ele><time>2026-04-11T15:27:50.999Z</time></trkpt><trkpt lat="45.78737600744767" lon="9.278628578442863"><ele>280.0</ele><time>2026-04-11T15:27:51.999Z</time></trkpt><trkpt lat="45.78733435088554" lon="9.278784217675653"><ele>280.0</ele><time>2026-04-11T15:27:52.999Z</time></trkpt><trkpt lat="45.7872928019167" lon="9.278945289735663"><ele>280.0</ele><time>2026-04-11T15:27:53.999Z</time></trkpt><trkpt lat="45.78724996762469" lon="9.279097364048663"><ele>280.0</ele><time>2026-04-11T15:27:54.999Z</time></trkpt><trkpt lat="45.78720204745331" lon="9.279243806830554"><ele>280.75</ele><time>2026-04-11T15:27:55.999Z</time></trkpt><trkpt lat="45.78715193533956" lon="9.279395396246915"><ele>281.5</ele><time>2026-04-11T15:27:56.999Z</time></trkpt><trkpt lat="45.78714289708849" lon="9.279555762078145"><ele>282.25</ele><time>2026-04-11T15:27:57.999Z</time></trkpt><trkpt lat="45.78710233726897" lon="9.279746837191334"><ele>283.0</ele><time>2026-04-11T15:27:58.999Z</time></trkpt><trkpt lat="45.78708547944805" lon="9.279946716725506"><ele>283.0</ele><time>2026-04-11T15:27:59.999Z</time></trkpt><trkpt lat="45.787049392645464" lon="9.28015152181269"><ele>283.0</ele><time>2026-04-11T15:28:00.999Z</time></trkpt><trkpt lat="45.786990312133945" lon="9.280354783439888"><ele>283.0</ele><time>2026-04-11T15:28:01.999Z</time></trkpt><trkpt lat="45.786914042980534" lon="9.280556855886376"><ele>282.66666666666663</ele><time>2026-04-11T15:28:02.999Z</time></trkpt><trkpt lat="45.78683698712658" lon="9.280764176058211"><ele>282.3333333333333</ele><time>2026-04-11T15:28:03.999Z</time></trkpt><trkpt lat="45.786759013296084" lon="9.280975400258766"><ele>282.0</ele><time>2026-04-11T15:28:04.999Z</time></trkpt><trkpt lat="45.78668301097751" lon="9.281181842020324"><ele>282.0</ele><time>2026-04-11T15:28:05.999Z</time></trkpt><trkpt lat="45.786604893521385" lon="9.281388691006944"><ele>282.0</ele><time>2026-04-11T15:28:06.999Z</time></trkpt><trkpt lat="45.78652521970613" lon="9.28159731215016"><ele>282.0</ele><time>2026-04-11T15:28:07.999Z</time></trkpt><trkpt lat="45.786445775123575" lon="9.28180758739445"><ele>281.0</ele><time>2026-04-11T15:28:08.999Z</time></trkpt><trkpt lat="45.78636727514902" lon="9.282017208131343"><ele>280.0</ele><time>2026-04-11T15:28:09.999Z</time></trkpt><trkpt lat="45.78628951839657" lon="9.282228009336212"><ele>279.0</ele><time>2026-04-11T15:28:10.999Z</time></trkpt><trkpt lat="45.78621078136098" lon="9.282437424845998"><ele>282.0</ele><time>2026-04-11T15:28:11.999Z</time></trkpt><trkpt lat="45.78613462552174" lon="9.28264771841003"><ele>285.0</ele><time>2026-04-11T15:28:12.999Z</time></trkpt><trkpt lat="45.78606844873182" lon="9.282862085856982"><ele>288.0</ele><time>2026-04-11T15:28:13.999Z</time></trkpt><trkpt lat="45.78601598774571" lon="9.28308103028796"><ele>286.3333333333333</ele><time>2026-04-11T15:28:14.999Z</time></trkpt><trkpt lat="45.785978440952995" lon="9.283306562722249"><ele>284.66666666666663</ele><time>2026-04-11T15:28:15.999Z</time></trkpt><trkpt lat="45.7859565387049" lon="9.283536710132953"><ele>283.0</ele><time>2026-04-11T15:28:16.999Z</time></trkpt><trkpt lat="45.7859481067453" lon="9.283772471883056"><ele>282.66666666666663</ele><time>2026-04-11T15:28:17.999Z</time></trkpt><trkpt lat="45.78595557139031" lon="9.284014682198789"><ele>282.3333333333333</ele><time>2026-04-11T15:28:18.999Z</time></trkpt><trkpt lat="45.785980745349434" lon="9.284259759434205"><ele>282.0</ele><time>2026-04-11T15:28:19.999Z</time></trkpt><trkpt lat="45.786019725195814" lon="9.284507870078652"><ele>281.6666666666667</ele><time>2026-04-11T15:28:20.999Z</time></trkpt><trkpt lat="45.78606744967616" lon="9.284752117425532"><ele>281.33333333333337</ele><time>2026-04-11T15:28:21.999Z</time></trkpt><trkpt lat="45.78611980724943" lon="9.284993542521173"><ele>281.0</ele><time>2026-04-11T15:28:22.999Z</time></trkpt><trkpt lat="45.7861727877108" lon="9.28523208254508"><ele>281.0</ele><time>2026-04-11T15:28:23.999Z</time></trkpt><trkpt lat="45.786227156475405" lon="9.285468270631489"><ele>281.0</ele><time>2026-04-11T15:28:24.999Z</time></trkpt><trkpt lat="45.78628123245715" lon="9.285707285409268"><ele>281.0</ele><time>2026-04-11T15:28:25.999Z</time></trkpt><trkpt lat="45.78633577503057" lon="9.285948439696723"><ele>279.33333333333337</ele><time>2026-04-11T15:28:26.999Z</time></trkpt><trkpt lat="45.78638642619053" lon="9.286180810864828"><ele>277.6666666666667</ele><time>2026-04-11T15:28:27.999Z</time></trkpt><trkpt lat="45.78643673069499" lon="9.28640525816517"><ele>276.0</ele><time>2026-04-11T15:28:28.999Z</time></trkpt><trkpt lat="45.78648722783849" lon="9.286630089005051"><ele>276.0</ele><time>2026-04-11T15:28:29.999Z</time></trkpt><trkpt lat="45.7865325202458" lon="9.286864074142436"><ele>276.0</ele><time>2026-04-11T15:28:30.999Z</time></trkpt><trkpt lat="45.786563596099896" lon="9.287108750463599"><ele>276.0</ele><time>2026-04-11T15:28:31.999Z</time></trkpt><trkpt lat="45.78656093570549" lon="9.287362749824085"><ele>276.3333333333333</ele><time>2026-04-11T15:28:32.999Z</time></trkpt><trkpt lat="45.78652568655173" lon="9.287623095273638"><ele>276.66666666666663</ele><time>2026-04-11T15:28:33.999Z</time></trkpt><trkpt lat="45.78646265452166" lon="9.28788861257192"><ele>277.0</ele><time>2026-04-11T15:28:34.999Z</time></trkpt><trkpt lat="45.78637790614275" lon="9.288144451653029"><ele>277.66666666666663</ele><time>2026-04-11T15:28:35.999Z</time></trkpt><trkpt lat="45.78627178486476" lon="9.288387605533417"><ele>278.3333333333333</ele><time>2026-04-11T15:28:36.999Z</time></trkpt><trkpt lat="45.78613994915181" lon="9.288605353661257"><ele>279.0</ele><time>2026-04-11T15:28:37.999Z</time></trkpt><trkpt lat="45.78598937073163" lon="9.288796194319472"><ele>276.0</ele><time>2026-04-11T15:28:38.999Z</time></trkpt><trkpt lat="45.78583584962607" lon="9.288964262125898"><ele>273.0</ele><time>2026-04-11T15:28:39.999Z</time></trkpt><trkpt lat="45.78568518752779" lon="9.2891254861576"><ele>270.0</ele><time>2026-04-11T15:28:40.999Z</time></trkpt><trkpt lat="45.78553722788371" lon="9.289289001098286"><ele>270.0</ele><time>2026-04-11T15:28:41.999Z</time></trkpt><trkpt lat="45.785393842779584" lon="9.28945337976862"><ele>270.0</ele><time>2026-04-11T15:28:42.999Z</time></trkpt><trkpt lat="45.78525103821659" lon="9.289614860463608"><ele>270.0</ele><time>2026-04-11T15:28:43.999Z</time></trkpt><trkpt lat="45.785108652838716" lon="9.289776290123882"><ele>269.6666666666667</ele><time>2026-04-11T15:28:44.999Z</time></trkpt><trkpt lat="45.78496650193287" lon="9.289938283656848"><ele>269.33333333333337</ele><time>2026-04-11T15:28:45.999Z</time></trkpt><trkpt lat="45.78482394652444" lon="9.290099682539712"><ele>269.0</ele><time>2026-04-11T15:28:46.999Z</time></trkpt><trkpt lat="45.78468109383053" lon="9.290261860649307"><ele>269.0</ele><time>2026-04-11T15:28:47.999Z</time></trkpt><trkpt lat="45.78453759812906" lon="9.290423867407906"><ele>269.0</ele><time>2026-04-11T15:28:48.999Z</time></trkpt><trkpt lat="45.784394268153385" lon="9.290584658849921"><ele>269.0</ele><time>2026-04-11T15:28:49.999Z</time></trkpt><trkpt lat="45.78425149489899" lon="9.290744399164788"><ele>269.6666666666667</ele><time>2026-04-11T15:28:50.999Z</time></trkpt><trkpt lat="45.784110177842805" lon="9.290899813208965"><ele>270.3333333333333</ele><time>2026-04-11T15:28:51.999Z</time></trkpt><trkpt lat="45.78398014575503" lon="9.291049755567542"><ele>271.0</ele><time>2026-04-11T15:28:52.999Z</time></trkpt><trkpt lat="45.78385926086588" lon="9.291195351707808"><ele>271.0</ele><time>2026-04-11T15:28:53.999Z</time></trkpt><trkpt lat="45.78375490255667" lon="9.291327599716109"><ele>271.0</ele><time>2026-04-11T15:28:54.999Z</time></trkpt><trkpt lat="45.78366783397098" lon="9.291455310994337"><ele>271.0</ele><time>2026-04-11T15:28:55.999Z</time></trkpt><trkpt lat="45.783610239253974" lon="9.29157285494535"><ele>271.0</ele><time>2026-04-11T15:28:56.999Z</time></trkpt><trkpt lat="45.78356176234342" lon="9.291634077020118"><ele>271.0</ele><time>2026-04-11T15:28:57.999Z</time></trkpt><trkpt lat="45.78361681888254" lon="9.291768240708043"><ele>271.0</ele><time>2026-04-11T15:28:58.999Z</time></trkpt><trkpt lat="45.783667543877286" lon="9.291842871367868"><ele>271.0</ele><time>2026-04-11T15:28:59.999Z</time></trkpt><trkpt lat="45.783735861949005" lon="9.291903535367199"><ele>271.0</ele><time>2026-04-11T15:29:00.999Z</time></trkpt><trkpt lat="45.78380910787433" lon="9.291964429802519"><ele>271.0</ele><time>2026-04-11T15:29:01.999Z</time></trkpt><trkpt lat="45.78387658623166" lon="9.292051471405124"><ele>271.0</ele><time>2026-04-11T15:29:03Z</time></trkpt><trkpt lat="45.78391624712727" lon="9.292160794886476"><ele>271.0</ele><time>2026-04-11T15:29:04Z</time></trkpt><trkpt lat="45.7839203116962" lon="9.292275265741827"><ele>271.66666666666663</ele><time>2026-04-11T15:29:05Z</time></trkpt><trkpt lat="45.78390624475273" lon="9.292379933126593"><ele>272.3333333333333</ele><time>2026-04-11T15:29:06Z</time></trkpt><trkpt lat="45.78389302950721" lon="9.292480505818155"><ele>273.0</ele><time>2026-04-11T15:29:07Z</time></trkpt><trkpt lat="45.783884773333085" lon="9.292575615147605"><ele>273.6666666666667</ele><time>2026-04-11T15:29:08Z</time></trkpt><trkpt lat="45.78386426344696" lon="9.292683598665713"><ele>274.33333333333337</ele><time>2026-04-11T15:29:10Z</time></trkpt><trkpt lat="45.78379603749797" lon="9.292749083107733"><ele>275.0</ele><time>2026-04-11T15:29:12Z</time></trkpt><trkpt lat="45.78368970230324" lon="9.292794445918025"><ele>275.0</ele><time>2026-04-11T15:29:14Z</time></trkpt><trkpt lat="45.78362815594603" lon="9.292836125565255"><ele>275.0</ele><time>2026-04-11T15:29:15Z</time></trkpt><trkpt lat="45.78357227906883" lon="9.292894878990417"><ele>275.0</ele><time>2026-04-11T15:29:16Z</time></trkpt><trkpt lat="45.78349438757118" lon="9.293000835729691"><ele>275.0</ele><time>2026-04-11T15:29:18Z</time></trkpt><trkpt lat="45.783453114843915" lon="9.293097781673412"><ele>275.0</ele><time>2026-04-11T15:29:20Z</time></trkpt><trkpt lat="45.78343301223572" lon="9.293213901824126"><ele>275.0</ele><time>2026-04-11T15:29:23Z</time></trkpt><trkpt lat="45.78343033949695" lon="9.29330540456137"><ele>274.5</ele><time>2026-04-11T15:29:27Z</time></trkpt><trkpt lat="45.78339385520652" lon="9.2933980083002"><ele>274.0</ele><time>2026-04-11T15:29:33Z</time></trkpt><trkpt lat="45.783434611608264" lon="9.293531929608914"><ele>273.5</ele><time>2026-04-11T15:29:34Z</time></trkpt><trkpt lat="45.78342832029364" lon="9.293690438643736"><ele>273.0</ele><time>2026-04-11T15:29:35Z</time></trkpt><trkpt lat="45.78342638392753" lon="9.293929122384062"><ele>272.0</ele><time>2026-04-11T15:29:36Z</time></trkpt><trkpt lat="45.78341434425363" lon="9.29412821601406"><ele>271.0</ele><time>2026-04-11T15:29:37Z</time></trkpt><trkpt lat="45.78339811123726" lon="9.2942965571965"><ele>270.0</ele><time>2026-04-11T15:29:38Z</time></trkpt><trkpt lat="45.78336864722952" lon="9.294453321337828"><ele>269.0</ele><time>2026-04-11T15:29:39Z</time></trkpt><trkpt lat="45.78336170064572" lon="9.294637643091711"><ele>267.8</ele><time>2026-04-11T15:29:40Z</time></trkpt><trkpt lat="45.783326637988985" lon="9.294815670043766"><ele>266.59999999999997</ele><time>2026-04-11T15:29:41Z</time></trkpt><trkpt lat="45.78330431431401" lon="9.294951880926979"><ele>265.4</ele><time>2026-04-11T15:29:42Z</time></trkpt><trkpt lat="45.783277596345634" lon="9.295086827988845"><ele>264.2</ele><time>2026-04-11T15:29:43Z</time></trkpt><trkpt lat="45.78325838220681" lon="9.295208828029969"><ele>263.0</ele><time>2026-04-11T15:29:44Z</time></trkpt><trkpt lat="45.78321414105753" lon="9.295293221713264"><ele>263.0</ele><time>2026-04-11T15:29:45Z</time></trkpt><trkpt lat="45.78312947896039" lon="9.295371226605553"><ele>263.0</ele><time>2026-04-11T15:29:47Z</time></trkpt><trkpt lat="45.78305574761879" lon="9.295259191858088"><ele>263.0</ele><time>2026-04-11T15:29:48Z</time></trkpt><trkpt lat="45.783013589572484" lon="9.295152349804027"><ele>263.0</ele><time>2026-04-11T15:29:49Z</time></trkpt><trkpt lat="45.78295157604583" lon="9.295039734334178"><ele>263.0</ele><time>2026-04-11T15:29:50Z</time></trkpt><trkpt lat="45.78289646260208" lon="9.294909988953716"><ele>263.0</ele><time>2026-04-11T15:29:50.999Z</time></trkpt><trkpt lat="45.78283786495514" lon="9.294787511830235"><ele>263.0</ele><time>2026-04-11T15:29:51.999Z</time></trkpt><trkpt lat="45.78278092621286" lon="9.294669663089831"><ele>263.0</ele><time>2026-04-11T15:29:52.999Z</time></trkpt><trkpt lat="45.78273635681496" lon="9.294543143899316"><ele>263.0</ele><time>2026-04-11T15:29:53.999Z</time></trkpt><trkpt lat="45.78271557407348" lon="9.294410346083927"><ele>263.0</ele><time>2026-04-11T15:29:54.999Z</time></trkpt><trkpt lat="45.78272983000507" lon="9.294272281587727"><ele>264.2</ele><time>2026-04-11T15:29:55.999Z</time></trkpt><trkpt lat="45.78277511151428" lon="9.294131013060053"><ele>265.4</ele><time>2026-04-11T15:29:56.999Z</time></trkpt><trkpt lat="45.78284000105455" lon="9.29401708421417"><ele>266.59999999999997</ele><time>2026-04-11T15:29:57.999Z</time></trkpt><trkpt lat="45.78291968775296" lon="9.29392593828352"><ele>267.8</ele><time>2026-04-11T15:29:58.999Z</time></trkpt><trkpt lat="45.78301118417242" lon="9.293875789928382"><ele>269.0</ele><time>2026-04-11T15:29:59.999Z</time></trkpt><trkpt lat="45.78310376810612" lon="9.293891219925618"><ele>269.0</ele><time>2026-04-11T15:30:00.999Z</time></trkpt><trkpt lat="45.783201785383355" lon="9.293970476915806"><ele>269.0</ele><time>2026-04-11T15:30:01.999Z</time></trkpt><trkpt lat="45.78330780365548" lon="9.294049145415071"><ele>269.0</ele><time>2026-04-11T15:30:02.999Z</time></trkpt><trkpt lat="45.78342613414245" lon="9.294114873658875"><ele>269.0</ele><time>2026-04-11T15:30:03.999Z</time></trkpt><trkpt lat="45.783550993180555" lon="9.294172580502174"><ele>269.5</ele><time>2026-04-11T15:30:04.999Z</time></trkpt><trkpt lat="45.783682097148024" lon="9.294242713938855"><ele>270.0</ele><time>2026-04-11T15:30:05.999Z</time></trkpt><trkpt lat="45.78381851050643" lon="9.294318319181858"><ele>270.5</ele><time>2026-04-11T15:30:06.999Z</time></trkpt><trkpt lat="45.7839627667624" lon="9.294395203124717"><ele>271.0</ele><time>2026-04-11T15:30:07.999Z</time></trkpt><trkpt lat="45.7841133262497" lon="9.29447421059859"><ele>271.0</ele><time>2026-04-11T15:30:08.999Z</time></trkpt><trkpt lat="45.78426670289773" lon="9.294555607671777"><ele>271.0</ele><time>2026-04-11T15:30:09.999Z</time></trkpt><trkpt lat="45.78442530371213" lon="9.294644781563154"><ele>271.0</ele><time>2026-04-11T15:30:10.999Z</time></trkpt><trkpt lat="45.78458844259664" lon="9.294743824170656"><ele>269.0</ele><time>2026-04-11T15:30:11.999Z</time></trkpt><trkpt lat="45.7847543550686" lon="9.294851102054121"><ele>267.0</ele><time>2026-04-11T15:30:12.999Z</time></trkpt><trkpt lat="45.7849278100464" lon="9.294964187103883"><ele>265.0</ele><time>2026-04-11T15:30:13.999Z</time></trkpt><trkpt lat="45.78511077281312" lon="9.295081811347153"><ele>265.0</ele><time>2026-04-11T15:30:14.999Z</time></trkpt><trkpt lat="45.78529821617947" lon="9.295197957996232"><ele>265.0</ele><time>2026-04-11T15:30:15.999Z</time></trkpt><trkpt lat="45.78548768220722" lon="9.295317767161439"><ele>265.0</ele><time>2026-04-11T15:30:16.999Z</time></trkpt><trkpt lat="45.7856765323579" lon="9.295437287332145"><ele>265.0</ele><time>2026-04-11T15:30:17.999Z</time></trkpt><trkpt lat="45.78586574194906" lon="9.295558575720806"><ele>265.0</ele><time>2026-04-11T15:30:18.999Z</time></trkpt><trkpt lat="45.78605371863756" lon="9.295681165557573"><ele>265.0</ele><time>2026-04-11T15:30:19.999Z</time></trkpt><trkpt lat="45.78624217114619" lon="9.29580512550115"><ele>265.3333333333333</ele><time>2026-04-11T15:30:20.999Z</time></trkpt><trkpt lat="45.78643078985794" lon="9.295931119231886"><ele>265.6666666666667</ele><time>2026-04-11T15:30:21.999Z</time></trkpt><trkpt lat="45.786621290011645" lon="9.296055507938467"><ele>266.0</ele><time>2026-04-11T15:30:22.999Z</time></trkpt><trkpt lat="45.78681232797158" lon="9.296176642617775"><ele>266.33333333333337</ele><time>2026-04-11T15:30:23.999Z</time></trkpt><trkpt lat="45.78700482869304" lon="9.296300481573478"><ele>266.6666666666667</ele><time>2026-04-11T15:30:24.999Z</time></trkpt><trkpt lat="45.78719751410065" lon="9.296427865381082"><ele>267.0</ele><time>2026-04-11T15:30:25.999Z</time></trkpt><trkpt lat="45.78739024374507" lon="9.296555606584134"><ele>267.0</ele><time>2026-04-11T15:30:26.999Z</time></trkpt><trkpt lat="45.78758326182661" lon="9.296685594737564"><ele>267.0</ele><time>2026-04-11T15:30:27.999Z</time></trkpt><trkpt lat="45.78777684868028" lon="9.296816264577142"><ele>267.0</ele><time>2026-04-11T15:30:28.999Z</time></trkpt><trkpt lat="45.787971462503386" lon="9.296946731939"><ele>268.6666666666667</ele><time>2026-04-11T15:30:29.999Z</time></trkpt><trkpt lat="45.78816644881048" lon="9.297076196041141"><ele>270.33333333333337</ele><time>2026-04-11T15:30:30.999Z</time></trkpt><trkpt lat="45.78836105982894" lon="9.297206358438883"><ele>272.0</ele><time>2026-04-11T15:30:31.999Z</time></trkpt><trkpt lat="45.788556218733156" lon="9.297336438016167"><ele>272.0</ele><time>2026-04-11T15:30:32.999Z</time></trkpt><trkpt lat="45.78875153318446" lon="9.297465011122155"><ele>272.0</ele><time>2026-04-11T15:30:33.999Z</time></trkpt><trkpt lat="45.788946712650976" lon="9.297593316338157"><ele>272.0</ele><time>2026-04-11T15:30:34.999Z</time></trkpt><trkpt lat="45.78914055140372" lon="9.297720479052359"><ele>272.0</ele><time>2026-04-11T15:30:35.999Z</time></trkpt><trkpt lat="45.78933508235117" lon="9.297848844748763"><ele>272.0</ele><time>2026-04-11T15:30:36.999Z</time></trkpt><trkpt lat="45.78952951644189" lon="9.297978622995082"><ele>272.0</ele><time>2026-04-11T15:30:37.999Z</time></trkpt><trkpt lat="45.789724288228484" lon="9.298110292687284"><ele>271.6666666666667</ele><time>2026-04-11T15:30:38.999Z</time></trkpt><trkpt lat="45.78992052019756" lon="9.298242295943142"><ele>271.3333333333333</ele><time>2026-04-11T15:30:39.999Z</time></trkpt><trkpt lat="45.790117253460295" lon="9.298373713609509"><ele>271.0</ele><time>2026-04-11T15:30:40.999Z</time></trkpt><trkpt lat="45.79031500750588" lon="9.298506983457507"><ele>271.66666666666663</ele><time>2026-04-11T15:30:41.999Z</time></trkpt><trkpt lat="45.79051249129237" lon="9.29863956129631"><ele>272.3333333333333</ele><time>2026-04-11T15:30:42.999Z</time></trkpt><trkpt lat="45.79071099736306" lon="9.298769011804936"><ele>273.0</ele><time>2026-04-11T15:30:43.999Z</time></trkpt><trkpt lat="45.790908473139815" lon="9.298898792165524"><ele>272.0</ele><time>2026-04-11T15:30:44.999Z</time></trkpt><trkpt lat="45.79110513142962" lon="9.299028661010855"><ele>271.0</ele><time>2026-04-11T15:30:45.999Z</time></trkpt><trkpt lat="45.791300153924546" lon="9.299158690906346"><ele>270.0</ele><time>2026-04-11T15:30:46.999Z</time></trkpt><trkpt lat="45.791495067286505" lon="9.29928992246011"><ele>270.0</ele><time>2026-04-11T15:30:47.999Z</time></trkpt><trkpt lat="45.791687701932645" lon="9.299420888176245"><ele>270.0</ele><time>2026-04-11T15:30:48.999Z</time></trkpt><trkpt lat="45.791879193605276" lon="9.299550864000388"><ele>270.0</ele><time>2026-04-11T15:30:49.999Z</time></trkpt><trkpt lat="45.79207031558727" lon="9.299680080630875"><ele>269.3333333333333</ele><time>2026-04-11T15:30:50.999Z</time></trkpt><trkpt lat="45.79226054655082" lon="9.299807663849942"><ele>268.66666666666663</ele><time>2026-04-11T15:30:51.999Z</time></trkpt><trkpt lat="45.79245086037693" lon="9.299935695539087"><ele>268.0</ele><time>2026-04-11T15:30:52.999Z</time></trkpt><trkpt lat="45.792639328258524" lon="9.300065257312381"><ele>270.66666666666663</ele><time>2026-04-11T15:30:53.999Z</time></trkpt><trkpt lat="45.79282474491013" lon="9.300198565127177"><ele>273.3333333333333</ele><time>2026-04-11T15:30:54.999Z</time></trkpt><trkpt lat="45.793006182297745" lon="9.300334758282977"><ele>276.0</ele><time>2026-04-11T15:30:55.999Z</time></trkpt><trkpt lat="45.79318310009144" lon="9.300476831168998"><ele>276.0</ele><time>2026-04-11T15:30:56.999Z</time></trkpt><trkpt lat="45.79335761761395" lon="9.300624431529362"><ele>276.0</ele><time>2026-04-11T15:30:57.999Z</time></trkpt><trkpt lat="45.79352947506184" lon="9.300781291037008"><ele>276.0</ele><time>2026-04-11T15:30:58.999Z</time></trkpt><trkpt lat="45.79369956329681" lon="9.30094432370392"><ele>276.0</ele><time>2026-04-11T15:30:59.999Z</time></trkpt><trkpt lat="45.793869910951976" lon="9.301110989440762"><ele>276.0</ele><time>2026-04-11T15:31:00.999Z</time></trkpt><trkpt lat="45.79404340172409" lon="9.301276321540431"><ele>276.0</ele><time>2026-04-11T15:31:01.999Z</time></trkpt><trkpt lat="45.79421934778557" lon="9.301440561643348"><ele>275.6666666666667</ele><time>2026-04-11T15:31:02.999Z</time></trkpt><trkpt lat="45.794395922156696" lon="9.301605962654564"><ele>275.33333333333337</ele><time>2026-04-11T15:31:03.999Z</time></trkpt><trkpt lat="45.79457365251586" lon="9.301772251300882"><ele>275.0</ele><time>2026-04-11T15:31:04.999Z</time></trkpt><trkpt lat="45.79475147357916" lon="9.30194100459877"><ele>275.0</ele><time>2026-04-11T15:31:05.999Z</time></trkpt><trkpt lat="45.79493012165272" lon="9.302112536117278"><ele>275.0</ele><time>2026-04-11T15:31:06.999Z</time></trkpt><trkpt lat="45.79511141619808" lon="9.30228508424259"><ele>275.0</ele><time>2026-04-11T15:31:07.999Z</time></trkpt><trkpt lat="45.795291611044796" lon="9.302457782099433"><ele>275.0</ele><time>2026-04-11T15:31:09Z</time></trkpt><trkpt lat="45.79547109577518" lon="9.30263164930281"><ele>275.0</ele><time>2026-04-11T15:31:10Z</time></trkpt><trkpt lat="45.795646093237046" lon="9.302799480332848"><ele>275.0</ele><time>2026-04-11T15:31:11Z</time></trkpt><trkpt lat="45.79581757476684" lon="9.302965187247542"><ele>275.6666666666667</ele><time>2026-04-11T15:31:12Z</time></trkpt><trkpt lat="45.79598966308205" lon="9.303129512068761"><ele>276.3333333333333</ele><time>2026-04-11T15:31:13Z</time></trkpt><trkpt lat="45.79616106169647" lon="9.303292863245597"><ele>277.0</ele><time>2026-04-11T15:31:14Z</time></trkpt><trkpt lat="45.796331526739415" lon="9.30345683909085"><ele>274.3333333333333</ele><time>2026-04-11T15:31:15Z</time></trkpt><trkpt lat="45.79650272500201" lon="9.303621418940086"><ele>271.6666666666667</ele><time>2026-04-11T15:31:16Z</time></trkpt><trkpt lat="45.796673899548736" lon="9.30378603145548"><ele>269.0</ele><time>2026-04-11T15:31:17Z</time></trkpt><trkpt lat="45.79684620862214" lon="9.303950701770072"><ele>268.33333333333337</ele><time>2026-04-11T15:31:18Z</time></trkpt><trkpt lat="45.79701806566852" lon="9.304116400890175"><ele>267.6666666666667</ele><time>2026-04-11T15:31:19Z</time></trkpt><trkpt lat="45.79718933431198" lon="9.304282508034674"><ele>267.0</ele><time>2026-04-11T15:31:20Z</time></trkpt><trkpt lat="45.79736015121128" lon="9.304449294684543"><ele>267.0</ele><time>2026-04-11T15:31:21Z</time></trkpt><trkpt lat="45.79753051887214" lon="9.304614496559946"><ele>267.0</ele><time>2026-04-11T15:31:22Z</time></trkpt><trkpt lat="45.79770199396082" lon="9.304778093832045"><ele>267.0</ele><time>2026-04-11T15:31:23Z</time></trkpt><trkpt lat="45.79787490682061" lon="9.304939198271526"><ele>266.0</ele><time>2026-04-11T15:31:24Z</time></trkpt><trkpt lat="45.79804645054665" lon="9.30510021175394"><ele>265.0</ele><time>2026-04-11T15:31:25Z</time></trkpt><trkpt lat="45.79821771664489" lon="9.30526172658417"><ele>264.0</ele><time>2026-04-11T15:31:26Z</time></trkpt><trkpt lat="45.79838943913418" lon="9.30542414288408"><ele>264.3333333333333</ele><time>2026-04-11T15:31:27Z</time></trkpt><trkpt lat="45.798557155426174" lon="9.30558315772763"><ele>264.66666666666663</ele><time>2026-04-11T15:31:28Z</time></trkpt><trkpt lat="45.79872018685803" lon="9.305736007316106"><ele>265.0</ele><time>2026-04-11T15:31:29Z</time></trkpt><trkpt lat="45.79888291393604" lon="9.305888010163052"><ele>265.0</ele><time>2026-04-11T15:31:30Z</time></trkpt><trkpt lat="45.79904847799199" lon="9.306039909369524"><ele>265.0</ele><time>2026-04-11T15:31:31Z</time></trkpt><trkpt lat="45.79921605579933" lon="9.306195863322106"><ele>265.0</ele><time>2026-04-11T15:31:32Z</time></trkpt><trkpt lat="45.799382554885476" lon="9.306365406098255"><ele>265.0</ele><time>2026-04-11T15:31:33Z</time></trkpt><trkpt lat="45.799545608482724" lon="9.30654937990571"><ele>265.0</ele><time>2026-04-11T15:31:34Z</time></trkpt><trkpt lat="45.79970888552004" lon="9.30673882156872"><ele>265.0</ele><time>2026-04-11T15:31:35Z</time></trkpt><trkpt lat="45.799875831758655" lon="9.30692528894381"><ele>265.0</ele><time>2026-04-11T15:31:36Z</time></trkpt><trkpt lat="45.80004886777397" lon="9.30710439779068"><ele>265.0</ele><time>2026-04-11T15:31:37Z</time></trkpt><trkpt lat="45.800225898975036" lon="9.307280743036179"><ele>265.0</ele><time>2026-04-11T15:31:38Z</time></trkpt><trkpt lat="45.8004041121679" lon="9.307457349142188"><ele>264.3333333333333</ele><time>2026-04-11T15:31:39Z</time></trkpt><trkpt lat="45.800584564862795" lon="9.30763140656378"><ele>263.6666666666667</ele><time>2026-04-11T15:31:40Z</time></trkpt><trkpt lat="45.80076534168819" lon="9.30780671320862"><ele>263.0</ele><time>2026-04-11T15:31:41Z</time></trkpt><trkpt lat="45.800946270613785" lon="9.307982305276429"><ele>263.0</ele><time>2026-04-11T15:31:42Z</time></trkpt><trkpt lat="45.80112840785258" lon="9.308158275603986"><ele>263.0</ele><time>2026-04-11T15:31:43Z</time></trkpt><trkpt lat="45.801310705338864" lon="9.30833539765405"><ele>263.0</ele><time>2026-04-11T15:31:44Z</time></trkpt><trkpt lat="45.80149098525767" lon="9.308514588505847"><ele>263.0</ele><time>2026-04-11T15:31:45Z</time></trkpt><trkpt lat="45.80167097903397" lon="9.308698171510498"><ele>263.0</ele><time>2026-04-11T15:31:46Z</time></trkpt><trkpt lat="45.801853259602694" lon="9.308877061699024"><ele>263.0</ele><time>2026-04-11T15:31:47Z</time></trkpt><trkpt lat="45.80203466162525" lon="9.30905409511565"><ele>263.33333333333337</ele><time>2026-04-11T15:31:48Z</time></trkpt><trkpt lat="45.80221698715854" lon="9.309228902799921"><ele>263.6666666666667</ele><time>2026-04-11T15:31:49Z</time></trkpt><trkpt lat="45.802401246593405" lon="9.309399521698655"><ele>264.0</ele><time>2026-04-11T15:31:50Z</time></trkpt><trkpt lat="45.80258848952352" lon="9.30956267681079"><ele>264.0</ele><time>2026-04-11T15:31:51Z</time></trkpt><trkpt lat="45.802777465566244" lon="9.309719605993136"><ele>264.0</ele><time>2026-04-11T15:31:51.999Z</time></trkpt><trkpt lat="45.80296721741266" lon="9.309873734494161"><ele>264.0</ele><time>2026-04-11T15:31:52.999Z</time></trkpt><trkpt lat="45.803155054042314" lon="9.31003002507862"><ele>264.3333333333333</ele><time>2026-04-11T15:31:53.999Z</time></trkpt><trkpt lat="45.803340279419444" lon="9.310189386574423"><ele>264.66666666666663</ele><time>2026-04-11T15:31:54.999Z</time></trkpt><trkpt lat="45.803524824159936" lon="9.310351389898956"><ele>265.0</ele><time>2026-04-11T15:31:55.999Z</time></trkpt><trkpt lat="45.8037084770778" lon="9.310515937467473"><ele>265.3333333333333</ele><time>2026-04-11T15:31:56.999Z</time></trkpt><trkpt lat="45.80388857152026" lon="9.310684196014792"><ele>265.6666666666667</ele><time>2026-04-11T15:31:57.999Z</time></trkpt><trkpt lat="45.804068010215644" lon="9.310855122693594"><ele>266.0</ele><time>2026-04-11T15:31:58.999Z</time></trkpt><trkpt lat="45.80424644650365" lon="9.311026834577529"><ele>266.0</ele><time>2026-04-11T15:31:59.999Z</time></trkpt><trkpt lat="45.80442432089829" lon="9.311198315188818"><ele>266.0</ele><time>2026-04-11T15:32:00.999Z</time></trkpt><trkpt lat="45.804603020139055" lon="9.311368008027502"><ele>266.0</ele><time>2026-04-11T15:32:01.999Z</time></trkpt><trkpt lat="45.80478164078617" lon="9.311536504128972"><ele>266.0</ele><time>2026-04-11T15:32:02.999Z</time></trkpt><trkpt lat="45.804959372548986" lon="9.311705667863775"><ele>266.0</ele><time>2026-04-11T15:32:03.999Z</time></trkpt><trkpt lat="45.80513726026864" lon="9.3118735265031"><ele>266.0</ele><time>2026-04-11T15:32:04.999Z</time></trkpt><trkpt lat="45.80531441083748" lon="9.31204153111071"><ele>265.6666666666667</ele><time>2026-04-11T15:32:05.999Z</time></trkpt><trkpt lat="45.80549011508849" lon="9.312210897318234"><ele>265.3333333333333</ele><time>2026-04-11T15:32:06.999Z</time></trkpt><trkpt lat="45.805666450307065" lon="9.312378723653206"><ele>265.0</ele><time>2026-04-11T15:32:07.999Z</time></trkpt><trkpt lat="45.80584245948605" lon="9.312545826150812"><ele>264.3333333333333</ele><time>2026-04-11T15:32:08.999Z</time></trkpt><trkpt lat="45.80601785794066" lon="9.31271467078421"><ele>263.6666666666667</ele><time>2026-04-11T15:32:09.999Z</time></trkpt><trkpt lat="45.8061937131391" lon="9.312881924634313"><ele>263.0</ele><time>2026-04-11T15:32:10.999Z</time></trkpt><trkpt lat="45.80637196058255" lon="9.313047443242652"><ele>263.33333333333337</ele><time>2026-04-11T15:32:11.999Z</time></trkpt><trkpt lat="45.80655134944157" lon="9.313210993490516"><ele>263.6666666666667</ele><time>2026-04-11T15:32:12.999Z</time></trkpt><trkpt lat="45.806732211048335" lon="9.313374071511511"><ele>264.0</ele><time>2026-04-11T15:32:13.999Z</time></trkpt><trkpt lat="45.80691491099546" lon="9.313535311609932"><ele>264.0</ele><time>2026-04-11T15:32:14.999Z</time></trkpt><trkpt lat="45.80709890871476" lon="9.31369591746349"><ele>264.0</ele><time>2026-04-11T15:32:15.999Z</time></trkpt><trkpt lat="45.807283308177794" lon="9.313858530687172"><ele>264.0</ele><time>2026-04-11T15:32:16.999Z</time></trkpt><trkpt lat="45.80746681309397" lon="9.314022399531604"><ele>264.0</ele><time>2026-04-11T15:32:17.999Z</time></trkpt><trkpt lat="45.807651635795374" lon="9.31418617944157"><ele>264.0</ele><time>2026-04-11T15:32:18.999Z</time></trkpt><trkpt lat="45.80783780868239" lon="9.31435106418375"><ele>264.0</ele><time>2026-04-11T15:32:19.999Z</time></trkpt><trkpt lat="45.808024938162596" lon="9.314515733407497"><ele>264.0</ele><time>2026-04-11T15:32:20.999Z</time></trkpt><trkpt lat="45.80821333343798" lon="9.314682010889932"><ele>264.0</ele><time>2026-04-11T15:32:21.999Z</time></trkpt><trkpt lat="45.808402755473445" lon="9.314847844919836"><ele>264.0</ele><time>2026-04-11T15:32:22.999Z</time></trkpt><trkpt lat="45.808594483924814" lon="9.315012911321862"><ele>262.0</ele><time>2026-04-11T15:32:23.999Z</time></trkpt><trkpt lat="45.80879026036892" lon="9.31518555452872"><ele>260.0</ele><time>2026-04-11T15:32:24.999Z</time></trkpt><trkpt lat="45.808985295616004" lon="9.315357715377033"><ele>260.0</ele><time>2026-04-11T15:32:25.999Z</time></trkpt><trkpt lat="45.809182260561364" lon="9.315528910105899"><ele>260.0</ele><time>2026-04-11T15:32:26.999Z</time></trkpt><trkpt lat="45.809380287024936" lon="9.315700157429402"><ele>254.0</ele><time>2026-04-11T15:32:27.999Z</time></trkpt><trkpt lat="45.809578883828785" lon="9.315871822902949"><ele>248.0</ele><time>2026-04-11T15:32:28.999Z</time></trkpt><trkpt lat="45.809777977051255" lon="9.316043330790295"><ele>248.0</ele><time>2026-04-11T15:32:29.999Z</time></trkpt><trkpt lat="45.80997573327471" lon="9.316210113764104"><ele>248.0</ele><time>2026-04-11T15:32:30.999Z</time></trkpt><trkpt lat="45.81017631512342" lon="9.316376337211134"><ele>245.0</ele><time>2026-04-11T15:32:31.999Z</time></trkpt><trkpt lat="45.810377052328555" lon="9.31654753124993"><ele>242.0</ele><time>2026-04-11T15:32:32.999Z</time></trkpt><trkpt lat="45.810574982588946" lon="9.31672639452619"><ele>242.0</ele><time>2026-04-11T15:32:33.999Z</time></trkpt><trkpt lat="45.81077093685996" lon="9.316909853089706"><ele>242.0</ele><time>2026-04-11T15:32:34.999Z</time></trkpt><trkpt lat="45.81096931151677" lon="9.317091162994394"><ele>240.5</ele><time>2026-04-11T15:32:35.999Z</time></trkpt><trkpt lat="45.811171373804704" lon="9.317267192479989"><ele>239.0</ele><time>2026-04-11T15:32:36.999Z</time></trkpt><trkpt lat="45.81137353602631" lon="9.317439981082345"><ele>239.0</ele><time>2026-04-11T15:32:37.999Z</time></trkpt><trkpt lat="45.81157413384238" lon="9.317612830430347"><ele>239.0</ele><time>2026-04-11T15:32:38.999Z</time></trkpt><trkpt lat="45.8117742388836" lon="9.317786948970005"><ele>238.5</ele><time>2026-04-11T15:32:39.999Z</time></trkpt><trkpt lat="45.81197360880595" lon="9.317963060888445"><ele>238.0</ele><time>2026-04-11T15:32:40.999Z</time></trkpt><trkpt lat="45.812172251093486" lon="9.318139934270274"><ele>238.0</ele><time>2026-04-11T15:32:41.999Z</time></trkpt><trkpt lat="45.81237046721439" lon="9.31831872423255"><ele>238.0</ele><time>2026-04-11T15:32:42.999Z</time></trkpt><trkpt lat="45.812569453334746" lon="9.318495497618427"><ele>243.0</ele><time>2026-04-11T15:32:43.999Z</time></trkpt><trkpt lat="45.81276947318591" lon="9.318672275928366"><ele>248.0</ele><time>2026-04-11T15:32:44.999Z</time></trkpt><trkpt lat="45.812970401298166" lon="9.31884714759248"><ele>244.0</ele><time>2026-04-11T15:32:45.999Z</time></trkpt><trkpt lat="45.81317034044953" lon="9.31902171612719"><ele>240.0</ele><time>2026-04-11T15:32:46.999Z</time></trkpt><trkpt lat="45.813370261732324" lon="9.319194408938424"><ele>240.5</ele><time>2026-04-11T15:32:47.999Z</time></trkpt><trkpt lat="45.81357152821357" lon="9.319365719812883"><ele>241.0</ele><time>2026-04-11T15:32:48.999Z</time></trkpt><trkpt lat="45.81377255811929" lon="9.31953471483282"><ele>241.0</ele><time>2026-04-11T15:32:49.999Z</time></trkpt><trkpt lat="45.813977335082186" lon="9.319698557813902"><ele>241.0</ele><time>2026-04-11T15:32:50.999Z</time></trkpt><trkpt lat="45.814183709419645" lon="9.319858143215969"><ele>238.5</ele><time>2026-04-11T15:32:51.999Z</time></trkpt><trkpt lat="45.814393686221145" lon="9.320012371907287"><ele>236.0</ele><time>2026-04-11T15:32:52.999Z</time></trkpt><trkpt lat="45.81460513306047" lon="9.32016156767803"><ele>236.0</ele><time>2026-04-11T15:32:53.999Z</time></trkpt><trkpt lat="45.81481925190367" lon="9.320303654278483"><ele>236.0</ele><time>2026-04-11T15:32:54.999Z</time></trkpt><trkpt lat="45.815035142577315" lon="9.320440919193315"><ele>233.0</ele><time>2026-04-11T15:32:55.999Z</time></trkpt><trkpt lat="45.81525240484161" lon="9.320569986070051"><ele>230.0</ele><time>2026-04-11T15:32:56.999Z</time></trkpt><trkpt lat="45.81547024344045" lon="9.320694816003686"><ele>230.0</ele><time>2026-04-11T15:32:57.999Z</time></trkpt><trkpt lat="45.81568810868117" lon="9.320815833844879"><ele>230.0</ele><time>2026-04-11T15:32:58.999Z</time></trkpt><trkpt lat="45.815907109060994" lon="9.32093488815463"><ele>229.5</ele><time>2026-04-11T15:32:59.999Z</time></trkpt><trkpt lat="45.816127134039554" lon="9.32105250779568"><ele>229.0</ele><time>2026-04-11T15:33:00.999Z</time></trkpt><trkpt lat="45.816347827076996" lon="9.321171160843557"><ele>229.0</ele><time>2026-04-11T15:33:01.999Z</time></trkpt><trkpt lat="45.816566518875156" lon="9.321290371275808"><ele>229.0</ele><time>2026-04-11T15:33:02.999Z</time></trkpt><trkpt lat="45.8167856750222" lon="9.321408734551657"><ele>227.5</ele><time>2026-04-11T15:33:03.999Z</time></trkpt><trkpt lat="45.81700372857293" lon="9.32152517161058"><ele>226.0</ele><time>2026-04-11T15:33:04.999Z</time></trkpt><trkpt lat="45.817222664007446" lon="9.321636602537023"><ele>226.0</ele><time>2026-04-11T15:33:05.999Z</time></trkpt><trkpt lat="45.817439761267266" lon="9.321746316063074"><ele>226.0</ele><time>2026-04-11T15:33:06.999Z</time></trkpt><trkpt lat="45.81764772547343" lon="9.321859486542591"><ele>227.0</ele><time>2026-04-11T15:33:07.999Z</time></trkpt><trkpt lat="45.817845652692554" lon="9.321970628715825"><ele>228.0</ele><time>2026-04-11T15:33:08.999Z</time></trkpt><trkpt lat="45.818037604492204" lon="9.322077177789321"><ele>229.0</ele><time>2026-04-11T15:33:09.999Z</time></trkpt><trkpt lat="45.81822228790601" lon="9.32218030665023"><ele>228.66666666666666</ele><time>2026-04-11T15:33:10.999Z</time></trkpt><trkpt lat="45.8184004918596" lon="9.322280135648908"><ele>228.33333333333331</ele><time>2026-04-11T15:33:11.999Z</time></trkpt><trkpt lat="45.81857833139644" lon="9.322374898787436"><ele>228.0</ele><time>2026-04-11T15:33:12.999Z</time></trkpt><trkpt lat="45.818763686882654" lon="9.322463915890303"><ele>229.0</ele><time>2026-04-11T15:33:13.999Z</time></trkpt><trkpt lat="45.81895555118039" lon="9.322561937018605"><ele>230.0</ele><time>2026-04-11T15:33:15Z</time></trkpt><trkpt lat="45.819152548790385" lon="9.32266685592693"><ele>231.0</ele><time>2026-04-11T15:33:16Z</time></trkpt><trkpt lat="45.81935147709413" lon="9.322783852358508"><ele>231.33333333333331</ele><time>2026-04-11T15:33:17Z</time></trkpt><trkpt lat="45.819553399245706" lon="9.322904077270449"><ele>231.66666666666666</ele><time>2026-04-11T15:33:18Z</time></trkpt><trkpt lat="45.81975853935853" lon="9.32302063536124"><ele>232.0</ele><time>2026-04-11T15:33:19Z</time></trkpt><trkpt lat="45.81996435187273" lon="9.323133897151525"><ele>230.0</ele><time>2026-04-11T15:33:20Z</time></trkpt><trkpt lat="45.82017401860661" lon="9.323246342199944"><ele>228.0</ele><time>2026-04-11T15:33:21Z</time></trkpt><trkpt lat="45.82038281473098" lon="9.323357583296916"><ele>226.0</ele><time>2026-04-11T15:33:22Z</time></trkpt><trkpt lat="45.82059030645107" lon="9.323467190608907"><ele>226.0</ele><time>2026-04-11T15:33:23Z</time></trkpt><trkpt lat="45.82079766206574" lon="9.323579244336134"><ele>226.0</ele><time>2026-04-11T15:33:24Z</time></trkpt><trkpt lat="45.82100556979082" lon="9.323691796507754"><ele>226.0</ele><time>2026-04-11T15:33:25Z</time></trkpt><trkpt lat="45.821214597659875" lon="9.323805573949391"><ele>225.66666666666666</ele><time>2026-04-11T15:33:26Z</time></trkpt><trkpt lat="45.82142402288503" lon="9.323917829743781"><ele>225.33333333333331</ele><time>2026-04-11T15:33:27Z</time></trkpt><trkpt lat="45.821634713005196" lon="9.324028661042524"><ele>225.0</ele><time>2026-04-11T15:33:28Z</time></trkpt><trkpt lat="45.821846564924186" lon="9.32414135788016"><ele>225.0</ele><time>2026-04-11T15:33:29Z</time></trkpt><trkpt lat="45.822053821540536" lon="9.324267493406406"><ele>225.0</ele><time>2026-04-11T15:33:30Z</time></trkpt><trkpt lat="45.82225696330815" lon="9.324409149401578"><ele>225.0</ele><time>2026-04-11T15:33:31Z</time></trkpt><trkpt lat="45.82245130774585" lon="9.324575038793217"><ele>225.0</ele><time>2026-04-11T15:33:32Z</time></trkpt><trkpt lat="45.82263715915282" lon="9.32475572610977"><ele>225.33333333333331</ele><time>2026-04-11T15:33:33Z</time></trkpt><trkpt lat="45.8228125026265" lon="9.32495522916819"><ele>225.66666666666666</ele><time>2026-04-11T15:33:34Z</time></trkpt><trkpt lat="45.82297745956514" lon="9.325168478697588"><ele>226.0</ele><time>2026-04-11T15:33:35Z</time></trkpt><trkpt lat="45.82313259672332" lon="9.325395217836201"><ele>226.0</ele><time>2026-04-11T15:33:36Z</time></trkpt><trkpt lat="45.82327923461869" lon="9.325632219011462"><ele>226.0</ele><time>2026-04-11T15:33:37Z</time></trkpt><trkpt lat="45.823414221185814" lon="9.32587988307091"><ele>226.0</ele><time>2026-04-11T15:33:38Z</time></trkpt><trkpt lat="45.823538364427705" lon="9.326139309314803"><ele>232.33333333333331</ele><time>2026-04-11T15:33:39Z</time></trkpt><trkpt lat="45.82364787253844" lon="9.326411771278067"><ele>238.66666666666669</ele><time>2026-04-11T15:33:40Z</time></trkpt><trkpt lat="45.82374493351306" lon="9.326694184989234"><ele>245.0</ele><time>2026-04-11T15:33:41Z</time></trkpt><trkpt lat="45.823830320847165" lon="9.326983374293784"><ele>243.33333333333334</ele><time>2026-04-11T15:33:42Z</time></trkpt><trkpt lat="45.82390475928279" lon="9.327277963413946"><ele>241.66666666666669</ele><time>2026-04-11T15:33:43Z</time></trkpt><trkpt lat="45.82396774014317" lon="9.32757696875458"><ele>240.0</ele><time>2026-04-11T15:33:44Z</time></trkpt><trkpt lat="45.82401567627328" lon="9.327880774385367"><ele>239.66666666666669</ele><time>2026-04-11T15:33:45Z</time></trkpt><trkpt lat="45.82405401548306" lon="9.328189383185668"><ele>239.33333333333334</ele><time>2026-04-11T15:33:46Z</time></trkpt><trkpt lat="45.82408314443766" lon="9.328500517420593"><ele>239.0</ele><time>2026-04-11T15:33:47Z</time></trkpt><trkpt lat="45.82411187039971" lon="9.328812897680455"><ele>238.0</ele><time>2026-04-11T15:33:48Z</time></trkpt><trkpt lat="45.82413780823205" lon="9.329127190055734"><ele>237.0</ele><time>2026-04-11T15:33:49Z</time></trkpt><trkpt lat="45.82416332133596" lon="9.329442940165537"><ele>236.0</ele><time>2026-04-11T15:33:50Z</time></trkpt><trkpt lat="45.824189617012415" lon="9.329757600388833"><ele>234.66666666666669</ele><time>2026-04-11T15:33:50.999Z</time></trkpt><trkpt lat="45.82421662055652" lon="9.330073910076614"><ele>233.33333333333331</ele><time>2026-04-11T15:33:51.999Z</time></trkpt><trkpt lat="45.82424300024289" lon="9.330389513300453"><ele>232.0</ele><time>2026-04-11T15:33:52.999Z</time></trkpt><trkpt lat="45.82426737814714" lon="9.330704581511162"><ele>231.0</ele><time>2026-04-11T15:33:53.999Z</time></trkpt><trkpt lat="45.82429277186325" lon="9.33102082759147"><ele>230.0</ele><time>2026-04-11T15:33:54.999Z</time></trkpt><trkpt lat="45.82431768946062" lon="9.331336411479446"><ele>229.0</ele><time>2026-04-11T15:33:55.999Z</time></trkpt><trkpt lat="45.82434387031656" lon="9.331650707724897"><ele>236.33333333333331</ele><time>2026-04-11T15:33:56.999Z</time></trkpt><trkpt lat="45.824370142773674" lon="9.331965327546236"><ele>243.66666666666669</ele><time>2026-04-11T15:33:57.999Z</time></trkpt><trkpt lat="45.82439644987874" lon="9.332279701209734"><ele>251.0</ele><time>2026-04-11T15:33:58.999Z</time></trkpt><trkpt lat="45.824419792964775" lon="9.332593124119946"><ele>251.0</ele><time>2026-04-11T15:33:59.999Z</time></trkpt><trkpt lat="45.82443855095257" lon="9.332908444344069"><ele>251.0</ele><time>2026-04-11T15:34:00.999Z</time></trkpt><trkpt lat="45.82445200638149" lon="9.333224270239151"><ele>251.0</ele><time>2026-04-11T15:34:01.999Z</time></trkpt><trkpt lat="45.82446309420366" lon="9.333539407722624"><ele>250.0</ele><time>2026-04-11T15:34:02.999Z</time></trkpt><trkpt lat="45.82446960356615" lon="9.333854733966957"><ele>249.0</ele><time>2026-04-11T15:34:03.999Z</time></trkpt><trkpt lat="45.82447515460735" lon="9.33416918366237"><ele>248.0</ele><time>2026-04-11T15:34:04.999Z</time></trkpt><trkpt lat="45.824477843214765" lon="9.334483409989172"><ele>247.66666666666669</ele><time>2026-04-11T15:34:05.999Z</time></trkpt><trkpt lat="45.82448017494759" lon="9.334798294546589"><ele>247.33333333333331</ele><time>2026-04-11T15:34:06.999Z</time></trkpt><trkpt lat="45.82448316362148" lon="9.335113028064372"><ele>247.0</ele><time>2026-04-11T15:34:07.999Z</time></trkpt><trkpt lat="45.82448385719565" lon="9.335427678923104"><ele>247.0</ele><time>2026-04-11T15:34:08.999Z</time></trkpt><trkpt lat="45.82448514387576" lon="9.33574206093217"><ele>247.0</ele><time>2026-04-11T15:34:09.999Z</time></trkpt><trkpt lat="45.82448933880021" lon="9.336055074173517"><ele>247.0</ele><time>2026-04-11T15:34:10.999Z</time></trkpt><trkpt lat="45.82449665322311" lon="9.336366427209493"><ele>246.0</ele><time>2026-04-11T15:34:11.999Z</time></trkpt><trkpt lat="45.82450726840444" lon="9.336676314467915"><ele>245.0</ele><time>2026-04-11T15:34:12.999Z</time></trkpt><trkpt lat="45.824520750801454" lon="9.336986216023448"><ele>244.0</ele><time>2026-04-11T15:34:13.999Z</time></trkpt><trkpt lat="45.82453658787946" lon="9.33729556883653"><ele>243.0</ele><time>2026-04-11T15:34:14.999Z</time></trkpt><trkpt lat="45.82455390337216" lon="9.33760477105602"><ele>242.0</ele><time>2026-04-11T15:34:15.999Z</time></trkpt><trkpt lat="45.82456990374395" lon="9.337912878149025"><ele>241.0</ele><time>2026-04-11T15:34:16.999Z</time></trkpt><trkpt lat="45.82458551627046" lon="9.338222041905597"><ele>240.0</ele><time>2026-04-11T15:34:17.999Z</time></trkpt><trkpt lat="45.82460173968533" lon="9.338532949681138"><ele>239.0</ele><time>2026-04-11T15:34:18.999Z</time></trkpt><trkpt lat="45.82461471638426" lon="9.338844209376827"><ele>238.0</ele><time>2026-04-11T15:34:19.999Z</time></trkpt><trkpt lat="45.82461707239588" lon="9.339157692729808"><ele>237.33333333333331</ele><time>2026-04-11T15:34:20.999Z</time></trkpt><trkpt lat="45.82461068848413" lon="9.339470753899956"><ele>236.66666666666669</ele><time>2026-04-11T15:34:21.999Z</time></trkpt><trkpt lat="45.824595518906335" lon="9.339783277857894"><ele>236.0</ele><time>2026-04-11T15:34:22.999Z</time></trkpt><trkpt lat="45.824575143430714" lon="9.340096038892298"><ele>236.66666666666669</ele><time>2026-04-11T15:34:23.999Z</time></trkpt><trkpt lat="45.824554823554585" lon="9.34040757029006"><ele>237.33333333333331</ele><time>2026-04-11T15:34:24.999Z</time></trkpt><trkpt lat="45.82453651468085" lon="9.340720310438371"><ele>238.0</ele><time>2026-04-11T15:34:25.999Z</time></trkpt><trkpt lat="45.824517517117314" lon="9.341032682415848"><ele>238.0</ele><time>2026-04-11T15:34:26.999Z</time></trkpt><trkpt lat="45.824495915426596" lon="9.341343772712792"><ele>238.0</ele><time>2026-04-11T15:34:27.999Z</time></trkpt><trkpt lat="45.82447512780235" lon="9.341655334507632"><ele>238.0</ele><time>2026-04-11T15:34:28.999Z</time></trkpt><trkpt lat="45.824454802479615" lon="9.34196838081301"><ele>239.66666666666666</ele><time>2026-04-11T15:34:29.999Z</time></trkpt><trkpt lat="45.824434831477824" lon="9.342280379522649"><ele>241.33333333333331</ele><time>2026-04-11T15:34:30.999Z</time></trkpt><trkpt lat="45.82441582410258" lon="9.342593367461651"><ele>243.0</ele><time>2026-04-11T15:34:31.999Z</time></trkpt><trkpt lat="45.82439684242978" lon="9.342907582317762"><ele>240.66666666666669</ele><time>2026-04-11T15:34:32.999Z</time></trkpt><trkpt lat="45.82437828280708" lon="9.343223770493399"><ele>238.33333333333334</ele><time>2026-04-11T15:34:33.999Z</time></trkpt><trkpt lat="45.82435901288317" lon="9.343541124418863"><ele>236.0</ele><time>2026-04-11T15:34:34.999Z</time></trkpt><trkpt lat="45.82433847090255" lon="9.343860968489114"><ele>232.5</ele><time>2026-04-11T15:34:35.999Z</time></trkpt><trkpt lat="45.82431744668084" lon="9.344181986478011"><ele>229.0</ele><time>2026-04-11T15:34:36.999Z</time></trkpt><trkpt lat="45.82429551072017" lon="9.34450537694798"><ele>227.33333333333331</ele><time>2026-04-11T15:34:37.999Z</time></trkpt><trkpt lat="45.82427406318036" lon="9.3448249046068"><ele>225.66666666666669</ele><time>2026-04-11T15:34:38.999Z</time></trkpt><trkpt lat="45.82425368063688" lon="9.345144664797681"><ele>224.0</ele><time>2026-04-11T15:34:39.999Z</time></trkpt><trkpt lat="45.82423388710513" lon="9.345464801303592"><ele>224.33333333333334</ele><time>2026-04-11T15:34:40.999Z</time></trkpt><trkpt lat="45.824218233445556" lon="9.345783170328902"><ele>224.66666666666669</ele><time>2026-04-11T15:34:41.999Z</time></trkpt><trkpt lat="45.82420868233975" lon="9.346101415557788"><ele>225.0</ele><time>2026-04-11T15:34:42.999Z</time></trkpt><trkpt lat="45.82420920537604" lon="9.346418463531041"><ele>225.33333333333331</ele><time>2026-04-11T15:34:43.999Z</time></trkpt><trkpt lat="45.82422056619902" lon="9.346735756140232"><ele>225.66666666666666</ele><time>2026-04-11T15:34:44.999Z</time></trkpt><trkpt lat="45.82424886486272" lon="9.347050375914833"><ele>226.0</ele><time>2026-04-11T15:34:45.999Z</time></trkpt><trkpt lat="45.824291573742336" lon="9.347361197248196"><ele>226.33333333333331</ele><time>2026-04-11T15:34:46.999Z</time></trkpt><trkpt lat="45.82434875888317" lon="9.347664252398175"><ele>226.66666666666669</ele><time>2026-04-11T15:34:47.999Z</time></trkpt><trkpt lat="45.8244232123969" lon="9.347959476858774"><ele>227.0</ele><time>2026-04-11T15:34:48.999Z</time></trkpt><trkpt lat="45.82451169078146" lon="9.348248039447178"><ele>227.0</ele><time>2026-04-11T15:34:49.999Z</time></trkpt><trkpt lat="45.82461446100119" lon="9.34852608443803"><ele>227.0</ele><time>2026-04-11T15:34:50.999Z</time></trkpt><trkpt lat="45.82473997002836" lon="9.348784869200387"><ele>227.0</ele><time>2026-04-11T15:34:51.999Z</time></trkpt><trkpt lat="45.82487940704161" lon="9.34902868480153"><ele>226.66666666666669</ele><time>2026-04-11T15:34:52.999Z</time></trkpt><trkpt lat="45.82503256268419" lon="9.349257314766005"><ele>226.33333333333331</ele><time>2026-04-11T15:34:53.999Z</time></trkpt><trkpt lat="45.825196768758794" lon="9.349471902486522"><ele>226.0</ele><time>2026-04-11T15:34:54.999Z</time></trkpt><trkpt lat="45.82536748288526" lon="9.34967493931869"><ele>228.33333333333331</ele><time>2026-04-11T15:34:55.999Z</time></trkpt><trkpt lat="45.8255484325229" lon="9.349863970227485"><ele>230.66666666666669</ele><time>2026-04-11T15:34:56.999Z</time></trkpt><trkpt lat="45.82573503667644" lon="9.350044012665693"><ele>233.0</ele><time>2026-04-11T15:34:57.999Z</time></trkpt><trkpt lat="45.82592706100761" lon="9.350219175739538"><ele>233.0</ele><time>2026-04-11T15:34:58.999Z</time></trkpt><trkpt lat="45.82612177544314" lon="9.35038896132286"><ele>233.0</ele><time>2026-04-11T15:34:59.999Z</time></trkpt><trkpt lat="45.82632192971622" lon="9.350551770568057"><ele>233.0</ele><time>2026-04-11T15:35:00.999Z</time></trkpt><trkpt lat="45.82652356663904" lon="9.350715438745201"><ele>233.0</ele><time>2026-04-11T15:35:01.999Z</time></trkpt><trkpt lat="45.82672473618952" lon="9.35088091837014"><ele>233.0</ele><time>2026-04-11T15:35:02.999Z</time></trkpt><trkpt lat="45.826923869151514" lon="9.351049345586842"><ele>233.0</ele><time>2026-04-11T15:35:03.999Z</time></trkpt><trkpt lat="45.82712343607456" lon="9.351217350085394"><ele>233.0</ele><time>2026-04-11T15:35:04.999Z</time></trkpt><trkpt lat="45.827324162498854" lon="9.351385647861"><ele>233.0</ele><time>2026-04-11T15:35:05.999Z</time></trkpt><trkpt lat="45.827525173090464" lon="9.35155466484639"><ele>231.5</ele><time>2026-04-11T15:35:06.999Z</time></trkpt><trkpt lat="45.827723826981305" lon="9.351728753072077"><ele>230.0</ele><time>2026-04-11T15:35:07.999Z</time></trkpt><trkpt lat="45.82791641402378" lon="9.351909611819883"><ele>230.0</ele><time>2026-04-11T15:35:08.999Z</time></trkpt><trkpt lat="45.828105293702755" lon="9.35209779405386"><ele>230.0</ele><time>2026-04-11T15:35:09.999Z</time></trkpt><trkpt lat="45.82828844862796" lon="9.35229806414123"><ele>231.5</ele><time>2026-04-11T15:35:10.999Z</time></trkpt><trkpt lat="45.828465346660614" lon="9.352509130219563"><ele>233.0</ele><time>2026-04-11T15:35:11.999Z</time></trkpt><trkpt lat="45.82863721621169" lon="9.352728119204539"><ele>233.5</ele><time>2026-04-11T15:35:12.999Z</time></trkpt><trkpt lat="45.82880230847534" lon="9.352956550404505"><ele>234.0</ele><time>2026-04-11T15:35:13.999Z</time></trkpt><trkpt lat="45.828959834402596" lon="9.353194184115363"><ele>236.5</ele><time>2026-04-11T15:35:14.999Z</time></trkpt><trkpt lat="45.82910841258954" lon="9.353445278271684"><ele>239.0</ele><time>2026-04-11T15:35:15.999Z</time></trkpt><trkpt lat="45.82924692694603" lon="9.353706843433955"><ele>241.5</ele><time>2026-04-11T15:35:16.999Z</time></trkpt><trkpt lat="45.829376541592424" lon="9.353978872038565"><ele>244.0</ele><time>2026-04-11T15:35:17.999Z</time></trkpt><trkpt lat="45.82950014808394" lon="9.354257481660062"><ele>244.0</ele><time>2026-04-11T15:35:18.999Z</time></trkpt><trkpt lat="45.82961497597594" lon="9.354545063670185"><ele>244.0</ele><time>2026-04-11T15:35:19.999Z</time></trkpt><trkpt lat="45.82972129482583" lon="9.354839826047504"><ele>250.0</ele><time>2026-04-11T15:35:21Z</time></trkpt><trkpt lat="45.82982236343363" lon="9.355138762595322"><ele>256.0</ele><time>2026-04-11T15:35:22Z</time></trkpt><trkpt lat="45.82992257092234" lon="9.355438537028059"><ele>261.5</ele><time>2026-04-11T15:35:23Z</time></trkpt><trkpt lat="45.83001957468101" lon="9.355735805677401"><ele>267.0</ele><time>2026-04-11T15:35:24Z</time></trkpt><trkpt lat="45.83011485849898" lon="9.356039189688016"><ele>271.0</ele><time>2026-04-11T15:35:25Z</time></trkpt><trkpt lat="45.83020739843713" lon="9.356344683977582"><ele>275.0</ele><time>2026-04-11T15:35:26Z</time></trkpt><trkpt lat="45.830295979995" lon="9.35665289010895"><ele>281.0</ele><time>2026-04-11T15:35:27Z</time></trkpt><trkpt lat="45.830383653497385" lon="9.356957298129851"><ele>287.0</ele><time>2026-04-11T15:35:28Z</time></trkpt><trkpt lat="45.83047262073135" lon="9.357253542774654"><ele>292.33333333333337</ele><time>2026-04-11T15:35:29Z</time></trkpt><trkpt lat="45.83056210040206" lon="9.35754486202116"><ele>297.6666666666667</ele><time>2026-04-11T15:35:30Z</time></trkpt><trkpt lat="45.830651083586694" lon="9.357834618612173"><ele>303.0</ele><time>2026-04-11T15:35:31Z</time></trkpt><trkpt lat="45.83072713692256" lon="9.358096358756022"><ele>311.3333333333333</ele><time>2026-04-11T15:35:32Z</time></trkpt><trkpt lat="45.83080954511026" lon="9.358376108398403"><ele>319.66666666666663</ele><time>2026-04-11T15:35:33Z</time></trkpt><trkpt lat="45.83089292976761" lon="9.358652053038032"><ele>328.0</ele><time>2026-04-11T15:35:34Z</time></trkpt><trkpt lat="45.83098418990229" lon="9.358931850081175"><ele>396.0</ele><time>2026-04-11T15:35:35.041Z</time></trkpt><trkpt lat="45.83125499415861" lon="9.35971643675612"><ele>405.0</ele><time>2026-04-11T15:36:43.888Z</time></trkpt><trkpt lat="45.8315847791866" lon="9.360774317822168"><ele>465.0</ele><time>2026-04-11T15:36:44.888Z</time></trkpt><trkpt lat="45.831913555488065" lon="9.361832848245694"><ele>498.0</ele><time>2026-04-11T15:36:45.888Z</time></trkpt><trkpt lat="45.83224388345592" lon="9.36289041253965"><ele>580.0</ele><time>2026-04-11T15:36:46.888Z</time></trkpt><trkpt lat="45.83257554262406" lon="9.363947112698519"><ele>570.0</ele><time>2026-04-11T15:36:47.888Z</time></trkpt><trkpt lat="45.832907377026935" lon="9.365003719535158"><ele>587.0</ele><time>2026-04-11T15:36:48.887Z</time></trkpt><trkpt lat="45.83323920145363" lon="9.366060467362527"><ele>583.0</ele><time>2026-04-11T15:36:49.888Z</time></trkpt><trkpt lat="45.83357060642133" lon="9.36711721035602"><ele>561.0</ele><time>2026-04-11T15:36:50.887Z</time></trkpt><trkpt lat="45.83390210940076" lon="9.368174050111033"><ele>551.0</ele><time>2026-04-11T15:36:51.887Z</time></trkpt><trkpt lat="45.83423071860134" lon="9.369232738369416"><ele>512.0</ele><time>2026-04-11T15:36:52.887Z</time></trkpt><trkpt lat="45.834560685069434" lon="9.370290563307252"><ele>511.0</ele><time>2026-04-11T15:36:53.887Z</time></trkpt><trkpt lat="45.834891076114396" lon="9.371348117151125"><ele>506.0</ele><time>2026-04-11T15:36:54.887Z</time></trkpt><trkpt lat="45.83522029060706" lon="9.372406432904429"><ele>528.0</ele><time>2026-04-11T15:36:55.887Z</time></trkpt><trkpt lat="45.83555456726554" lon="9.373462398934757"><ele>546.0</ele><time>2026-04-11T15:36:56.888Z</time></trkpt><trkpt lat="45.8358908682531" lon="9.374515285838704"><ele>625.0</ele><time>2026-04-11T15:36:57.887Z</time></trkpt><trkpt lat="45.8362273998016" lon="9.375568894579931"><ele>665.0</ele><time>2026-04-11T15:36:58.887Z</time></trkpt><trkpt lat="45.83655860267155" lon="9.376625894670344"><ele>682.0</ele><time>2026-04-11T15:36:59.887Z</time></trkpt><trkpt lat="45.83688134117975" lon="9.377688322793094"><ele>717.0</ele><time>2026-04-11T15:37:00.887Z</time></trkpt><trkpt lat="45.83721581898505" lon="9.378743277993792"><ele>750.0</ele><time>2026-04-11T15:37:01.887Z</time></trkpt><trkpt lat="45.83754210482918" lon="9.379803485675046"><ele>654.0</ele><time>2026-04-11T15:37:02.887Z</time></trkpt><trkpt lat="45.83786010873205" lon="9.380869424324807"><ele>601.0</ele><time>2026-04-11T15:37:03.888Z</time></trkpt><trkpt lat="45.83814632491706" lon="9.38195248695559"><ele>513.0</ele><time>2026-04-11T15:37:04.888Z</time></trkpt><trkpt lat="45.83838180738432" lon="9.383060264177573"><ele>466.0</ele><time>2026-04-11T15:37:05.887Z</time></trkpt><trkpt lat="45.8385751295963" lon="9.38418501802616"><ele>433.0</ele><time>2026-04-11T15:37:06.887Z</time></trkpt><trkpt lat="45.83872066223785" lon="9.38532428234385"><ele>376.0</ele><time>2026-04-11T15:37:07.887Z</time></trkpt><trkpt lat="45.83881844424371" lon="9.386475059503441"><ele>357.0</ele><time>2026-04-11T15:37:08.888Z</time></trkpt><trkpt lat="45.83886601156445" lon="9.387631748822352"><ele>337.0</ele><time>2026-04-11T15:37:09.889Z</time></trkpt><trkpt lat="45.83886301156989" lon="9.388789336222056"><ele>319.0</ele><time>2026-04-11T15:37:10.888Z</time></trkpt><trkpt lat="45.83881322174845" lon="9.389945316474064"><ele>312.0</ele><time>2026-04-11T15:37:11.888Z</time></trkpt><trkpt lat="45.83871819108698" lon="9.391094939744772"><ele>234.0</ele><time>2026-04-11T15:37:12.887Z</time></trkpt><trkpt lat="45.838608932563524" lon="9.392242847631595"><ele>215.0</ele><time>2026-04-11T15:37:13.887Z</time></trkpt><trkpt lat="45.83850138144586" lon="9.393393781919233"><ele>215.0</ele><time>2026-04-11T15:37:14.89Z</time></trkpt><trkpt lat="45.838435086876586" lon="9.39454496319465"><ele>210.5</ele><time>2026-04-11T15:37:15.887Z</time></trkpt><trkpt lat="45.83850015405652" lon="9.395173181772105"><ele>206.0</ele><time>2026-04-11T15:37:35.998Z</time></trkpt><trkpt lat="45.83851077941062" lon="9.395482575269076"><ele>205.33333333333334</ele><time>2026-04-11T15:37:36.998Z</time></trkpt><trkpt lat="45.838456676517296" lon="9.39574345821011"><ele>204.66666666666669</ele><time>2026-04-11T15:37:37.998Z</time></trkpt><trkpt lat="45.83846404954137" lon="9.396070708080257"><ele>204.0</ele><time>2026-04-11T15:37:38.998Z</time></trkpt><trkpt lat="45.83845211931152" lon="9.396385180829576"><ele>204.0</ele><time>2026-04-11T15:37:39.998Z</time></trkpt><trkpt lat="45.8384617500251" lon="9.396678291885449"><ele>204.0</ele><time>2026-04-11T15:37:40.998Z</time></trkpt><trkpt lat="45.83849647560422" lon="9.396967069400477"><ele>204.0</ele><time>2026-04-11T15:37:42Z</time></trkpt><trkpt lat="45.83852764165556" lon="9.397257831611377"><ele>202.66666666666669</ele><time>2026-04-11T15:37:43Z</time></trkpt><trkpt lat="45.83856491976796" lon="9.397547862986343"><ele>201.33333333333334</ele><time>2026-04-11T15:37:44Z</time></trkpt><trkpt lat="45.83861067090727" lon="9.397840894852141"><ele>200.0</ele><time>2026-04-11T15:37:45Z</time></trkpt><trkpt lat="45.83865261130152" lon="9.39813729125696"><ele>199.33333333333334</ele><time>2026-04-11T15:37:46Z</time></trkpt><trkpt lat="45.83868727416307" lon="9.398432386994854"><ele>198.66666666666669</ele><time>2026-04-11T15:37:47Z</time></trkpt><trkpt lat="45.83872380128243" lon="9.398725523991788"><ele>198.0</ele><time>2026-04-11T15:37:48Z</time></trkpt><trkpt lat="45.83876140978337" lon="9.399019098284265"><ele>198.0</ele><time>2026-04-11T15:37:49Z</time></trkpt><trkpt lat="45.83879873591344" lon="9.399315639853222"><ele>198.0</ele><time>2026-04-11T15:37:50Z</time></trkpt><trkpt lat="45.8388347318972" lon="9.399611938599907"><ele>198.0</ele><time>2026-04-11T15:37:51Z</time></trkpt><trkpt lat="45.83886596904281" lon="9.399896003691056"><ele>198.0</ele><time>2026-04-11T15:37:52Z</time></trkpt><trkpt lat="45.8388911430045" lon="9.40016584212589"><ele>198.0</ele><time>2026-04-11T15:37:53Z</time></trkpt><trkpt lat="45.83891320291011" lon="9.400425480127685"><ele>198.0</ele><time>2026-04-11T15:37:54Z</time></trkpt><trkpt lat="45.83893640224919" lon="9.400672618438774"><ele>198.33333333333331</ele><time>2026-04-11T15:37:55Z</time></trkpt><trkpt lat="45.83896183694558" lon="9.400921864290993"><ele>198.66666666666666</ele><time>2026-04-11T15:37:56Z</time></trkpt><trkpt lat="45.83898872044839" lon="9.401156305235988"><ele>199.0</ele><time>2026-04-11T15:37:57Z</time></trkpt><trkpt lat="45.83901786824399" lon="9.401378444938514"><ele>199.5</ele><time>2026-04-11T15:37:58Z</time></trkpt><trkpt lat="45.83904132999816" lon="9.4015809793529"><ele>200.0</ele><time>2026-04-11T15:37:59Z</time></trkpt><trkpt lat="45.839057001840416" lon="9.401763995036804"><ele>200.5</ele><time>2026-04-11T15:38:00Z</time></trkpt><trkpt lat="45.83906764568451" lon="9.40194056065292"><ele>201.0</ele><time>2026-04-11T15:38:01Z</time></trkpt><trkpt lat="45.83907561157281" lon="9.40210718426921"><ele>201.4</ele><time>2026-04-11T15:38:02Z</time></trkpt><trkpt lat="45.839075098505425" lon="9.402263605733442"><ele>201.8</ele><time>2026-04-11T15:38:03Z</time></trkpt><trkpt lat="45.839055263471856" lon="9.402414490497488"><ele>202.20000000000002</ele><time>2026-04-11T15:38:04Z</time></trkpt><trkpt lat="45.8390160361389" lon="9.4025569939948"><ele>202.60000000000002</ele><time>2026-04-11T15:38:05Z</time></trkpt><trkpt lat="45.83896454832646" lon="9.402692167459202"><ele>203.0</ele><time>2026-04-11T15:38:06Z</time></trkpt><trkpt lat="45.838903073499" lon="9.402822305790478"><ele>203.0</ele><time>2026-04-11T15:38:07Z</time></trkpt><trkpt lat="45.83883851916129" lon="9.402951520369411"><ele>203.0</ele><time>2026-04-11T15:38:07.999Z</time></trkpt><trkpt lat="45.83877879414802" lon="9.403087455958351"><ele>203.0</ele><time>2026-04-11T15:38:08.999Z</time></trkpt><trkpt lat="45.8387300771842" lon="9.403234940372057"><ele>203.0</ele><time>2026-04-11T15:38:09.999Z</time></trkpt><trkpt lat="45.838702400793764" lon="9.403384987921457"><ele>203.0</ele><time>2026-04-11T15:38:10.999Z</time></trkpt><trkpt lat="45.83869688875053" lon="9.403535073071382"><ele>202.83333333333334</ele><time>2026-04-11T15:38:11.999Z</time></trkpt><trkpt lat="45.83870774717526" lon="9.403676621178759"><ele>202.66666666666669</ele><time>2026-04-11T15:38:12.999Z</time></trkpt><trkpt lat="45.83873279852466" lon="9.40380358317214"><ele>202.5</ele><time>2026-04-11T15:38:13.999Z</time></trkpt><trkpt lat="45.838763960894816" lon="9.403918527586091"><ele>202.33333333333331</ele><time>2026-04-11T15:38:14.999Z</time></trkpt><trkpt lat="45.83880227226041" lon="9.404026352948534"><ele>202.16666666666666</ele><time>2026-04-11T15:38:15.999Z</time></trkpt><trkpt lat="45.838842502317114" lon="9.404129232917118"><ele>202.0</ele><time>2026-04-11T15:38:16.999Z</time></trkpt><trkpt lat="45.83888537501245" lon="9.404228493634092"><ele>201.99999999999997</ele><time>2026-04-11T15:38:17.999Z</time></trkpt><trkpt lat="45.83892670476907" lon="9.404320252684075"><ele>202.0</ele><time>2026-04-11T15:38:18.999Z</time></trkpt><trkpt lat="45.83896503247864" lon="9.404407035686864"><ele>202.0</ele><time>2026-04-11T15:38:19.999Z</time></trkpt><trkpt lat="45.83900089911737" lon="9.404486440511137"><ele>202.0</ele><time>2026-04-11T15:38:20.999Z</time></trkpt><trkpt lat="45.83903758473779" lon="9.40456751512505"><ele>201.99999999999997</ele><time>2026-04-11T15:38:21.999Z</time></trkpt><trkpt lat="45.83907532701404" lon="9.40464808045692"><ele>202.0</ele><time>2026-04-11T15:38:22.999Z</time></trkpt><trkpt lat="45.83916104005473" lon="9.404746059658654"><ele>201.99999999999997</ele><time>2026-04-11T15:38:24.999Z</time></trkpt><trkpt lat="45.83926299782362" lon="9.40484193929703"><ele>202.0</ele><time>2026-04-11T15:38:26.999Z</time></trkpt><trkpt lat="45.83931307054702" lon="9.404897436394998"><ele>202.0</ele><time>2026-04-11T15:38:27.999Z</time></trkpt><trkpt lat="45.83935307848654" lon="9.405033791764733"><ele>202.0</ele><time>2026-04-11T15:38:29.999Z</time></trkpt><trkpt lat="45.83937715344496" lon="9.405135860692326"><ele>201.99999999999997</ele><time>2026-04-11T15:38:32Z</time></trkpt><trkpt lat="45.839378351055814" lon="9.405232597369418"><ele>202.0</ele><time>2026-04-11T15:38:34Z</time></trkpt><trkpt lat="45.83933968292945" lon="9.405319084452733"><ele>202.0</ele><time>2026-04-11T15:38:38Z</time></trkpt><trkpt lat="45.83930975238661" lon="9.405431438273416"><ele>202.0</ele><time>2026-04-11T15:38:42Z</time></trkpt><trkpt lat="45.83929254672989" lon="9.405571135699438"><ele>202.0</ele><time>2026-04-11T15:38:44Z</time></trkpt><trkpt lat="45.83936539792626" lon="9.40571949806893"><ele>202.0</ele><time>2026-04-11T15:38:46Z</time></trkpt><trkpt lat="45.839446038855144" lon="9.405790641484746"><ele>202.0</ele><time>2026-04-11T15:38:48Z</time></trkpt><trkpt lat="45.839507956601" lon="9.405758014004258"><ele>201.99999999999997</ele><time>2026-04-11T15:38:50Z</time></trkpt><trkpt lat="45.83958351885078" lon="9.40575514551057"><ele>202.0</ele><time>2026-04-11T15:38:52Z</time></trkpt><trkpt lat="45.839662022328376" lon="9.405693666319117"><ele>202.0</ele><time>2026-04-11T15:38:54Z</time></trkpt><trkpt lat="45.839704467063655" lon="9.405604637612724"><ele>202.0</ele><time>2026-04-11T15:38:56Z</time></trkpt><trkpt lat="45.83971268706673" lon="9.405481690552218"><ele>201.99999999999997</ele><time>2026-04-11T15:38:59Z</time></trkpt><trkpt lat="45.839764647607865" lon="9.40537314181576"><ele>202.0</ele><time>2026-04-11T15:39:01Z</time></trkpt><trkpt lat="45.839822617840305" lon="9.405333812724976"><ele>202.42857142857142</ele><time>2026-04-11T15:39:02Z</time></trkpt><trkpt lat="45.83989048332496" lon="9.405296004100169"><ele>202.85714285714283</ele><time>2026-04-11T15:39:14Z</time></trkpt><trkpt lat="45.839975013734346" lon="9.405274938652427"><ele>203.28571428571428</ele><time>2026-04-11T15:39:16Z</time></trkpt><trkpt lat="45.84004357271728" lon="9.405257645897597"><ele>203.71428571428572</ele><time>2026-04-11T15:39:17Z</time></trkpt><trkpt lat="45.84011102866523" lon="9.405233421472195"><ele>204.14285714285714</ele><time>2026-04-11T15:39:18Z</time></trkpt><trkpt lat="45.840183661663154" lon="9.405209998173262"><ele>204.57142857142858</ele><time>2026-04-11T15:39:19Z</time></trkpt><trkpt lat="45.84025503403642" lon="9.405180920393928"><ele>205.0</ele><time>2026-04-11T15:39:20Z</time></trkpt><trkpt lat="45.84031939945978" lon="9.405145808173973"><ele>204.99999999999997</ele><time>2026-04-11T15:39:21Z</time></trkpt><trkpt lat="45.84038123310983" lon="9.405120675913835"><ele>205.0</ele><time>2026-04-11T15:39:22Z</time></trkpt><trkpt lat="45.84041177128126" lon="9.40494579173959"><ele>205.0</ele><time>2026-04-11T15:39:24Z</time></trkpt><trkpt lat="45.84040491300078" lon="9.40485035943323"><ele>205.0</ele><time>2026-04-11T15:39:26Z</time></trkpt><trkpt lat="45.84038458872374" lon="9.404761343586523"><ele>204.99999999999997</ele><time>2026-04-11T15:39:28Z</time></trkpt><trkpt lat="45.84035048955314" lon="9.404678749088452"><ele>205.0</ele><time>2026-04-11T15:39:29Z</time></trkpt><trkpt lat="45.840310333593436" lon="9.404568654428285"><ele>205.0</ele><time>2026-04-11T15:39:30Z</time></trkpt><trkpt lat="45.84024754645901" lon="9.404471704630687"><ele>205.0</ele><time>2026-04-11T15:39:31Z</time></trkpt><trkpt lat="45.84018301571576" lon="9.404357214724207"><ele>205.0</ele><time>2026-04-11T15:39:32Z</time></trkpt><trkpt lat="45.84011010204102" lon="9.404244126704127"><ele>205.0</ele><time>2026-04-11T15:39:33Z</time></trkpt><trkpt lat="45.84004941943508" lon="9.404114801100688"><ele>205.0</ele><time>2026-04-11T15:39:34Z</time></trkpt><trkpt lat="45.83998824647364" lon="9.403989512924566"><ele>205.25</ele><time>2026-04-11T15:39:35Z</time></trkpt><trkpt lat="45.83992271031189" lon="9.403856381527659"><ele>205.5</ele><time>2026-04-11T15:39:36Z</time></trkpt><trkpt lat="45.83985667073105" lon="9.403723780202588"><ele>205.75</ele><time>2026-04-11T15:39:37Z</time></trkpt><trkpt lat="45.83978750449468" lon="9.403592804627522"><ele>206.0</ele><time>2026-04-11T15:39:38Z</time></trkpt><trkpt lat="45.83972089712458" lon="9.403463900596151"><ele>205.60000000000002</ele><time>2026-04-11T15:39:39Z</time></trkpt><trkpt lat="45.83965905636449" lon="9.403337218141276"><ele>205.2</ele><time>2026-04-11T15:39:40Z</time></trkpt><trkpt lat="45.8395974764389" lon="9.403215160488012"><ele>204.8</ele><time>2026-04-11T15:39:40.999Z</time></trkpt><trkpt lat="45.8395372018169" lon="9.403095148038894"><ele>204.39999999999998</ele><time>2026-04-11T15:39:41.999Z</time></trkpt><trkpt lat="45.839481332745706" lon="9.4029840937212"><ele>204.0</ele><time>2026-04-11T15:39:42.999Z</time></trkpt><trkpt lat="45.839428400893134" lon="9.402872053711663"><ele>203.79999999999998</ele><time>2026-04-11T15:39:43.999Z</time></trkpt><trkpt lat="45.83938301228072" lon="9.40275066042466"><ele>203.6</ele><time>2026-04-11T15:39:44.999Z</time></trkpt><trkpt lat="45.83934669338896" lon="9.402626952512676"><ele>203.4</ele><time>2026-04-11T15:39:45.999Z</time></trkpt><trkpt lat="45.839319633085374" lon="9.40250280182331"><ele>203.2</ele><time>2026-04-11T15:39:47.001Z</time></trkpt><trkpt lat="45.83929758488807" lon="9.40237729118172"><ele>203.0</ele><time>2026-04-11T15:39:48.001Z</time></trkpt><trkpt lat="45.83927796823233" lon="9.402260713391303"><ele>202.60000000000002</ele><time>2026-04-11T15:39:49.001Z</time></trkpt><trkpt lat="45.83926126329201" lon="9.402160520065758"><ele>202.20000000000002</ele><time>2026-04-11T15:39:50.001Z</time></trkpt><trkpt lat="45.83923505116922" lon="9.402012563776466"><ele>201.8</ele><time>2026-04-11T15:39:52.001Z</time></trkpt><trkpt lat="45.83920537287176" lon="9.401829483222228"><ele>201.4</ele><time>2026-04-11T15:39:54.001Z</time></trkpt><trkpt lat="45.8391905285755" lon="9.40172179118684"><ele>201.0</ele><time>2026-04-11T15:39:55.001Z</time></trkpt><trkpt lat="45.83917597306152" lon="9.401605954870803"><ele>201.0</ele><time>2026-04-11T15:39:56.001Z</time></trkpt><trkpt lat="45.83916093891669" lon="9.401482833590704"><ele>201.0</ele><time>2026-04-11T15:39:57.001Z</time></trkpt><trkpt lat="45.83914589975203" lon="9.401356291393089"><ele>201.0</ele><time>2026-04-11T15:39:58.001Z</time></trkpt><trkpt lat="45.83912986185022" lon="9.401224337176348"><ele>201.0</ele><time>2026-04-11T15:39:59.001Z</time></trkpt><trkpt lat="45.8391119726876" lon="9.40108988318477"><ele>201.0</ele><time>2026-04-11T15:40:00.001Z</time></trkpt><trkpt lat="45.83909314329814" lon="9.400950194701084"><ele>200.60000000000002</ele><time>2026-04-11T15:40:01.001Z</time></trkpt><trkpt lat="45.83907527595195" lon="9.400808345690622"><ele>200.2</ele><time>2026-04-11T15:40:02.001Z</time></trkpt><trkpt lat="45.83905772455178" lon="9.400669089468817"><ele>199.8</ele><time>2026-04-11T15:40:03.001Z</time></trkpt><trkpt lat="45.83904040378344" lon="9.400534916325292"><ele>199.39999999999998</ele><time>2026-04-11T15:40:04.001Z</time></trkpt><trkpt lat="45.83902354852027" lon="9.400398193842916"><ele>199.0</ele><time>2026-04-11T15:40:05.001Z</time></trkpt><trkpt lat="45.839006347517895" lon="9.400258232943305"><ele>198.79999999999998</ele><time>2026-04-11T15:40:06.001Z</time></trkpt><trkpt lat="45.83898584978139" lon="9.400115593234947"><ele>198.6</ele><time>2026-04-11T15:40:07Z</time></trkpt><trkpt lat="45.83896646785088" lon="9.399968633025457"><ele>198.4</ele><time>2026-04-11T15:40:08Z</time></trkpt><trkpt lat="45.8389482231632" lon="9.399816460282418"><ele>198.2</ele><time>2026-04-11T15:40:09Z</time></trkpt><trkpt lat="45.838928945215535" lon="9.399661565567364"><ele>198.0</ele><time>2026-04-11T15:40:10Z</time></trkpt><trkpt lat="45.8389110051743" lon="9.399504424640579"><ele>198.0</ele><time>2026-04-11T15:40:11Z</time></trkpt><trkpt lat="45.83889132272137" lon="9.399343228632056"><ele>198.0</ele><time>2026-04-11T15:40:12Z</time></trkpt><trkpt lat="45.83887040918058" lon="9.399177141611453"><ele>198.0</ele><time>2026-04-11T15:40:13Z</time></trkpt><trkpt lat="45.83884990025967" lon="9.399006688258027"><ele>198.0</ele><time>2026-04-11T15:40:14Z</time></trkpt><trkpt lat="45.8388282903362" lon="9.398832141807391"><ele>198.0</ele><time>2026-04-11T15:40:15Z</time></trkpt><trkpt lat="45.838806267169424" lon="9.398656907986659"><ele>198.0</ele><time>2026-04-11T15:40:16Z</time></trkpt><trkpt lat="45.83878398356609" lon="9.39847906367797"><ele>198.0</ele><time>2026-04-11T15:40:17Z</time></trkpt><trkpt lat="45.838763680556234" lon="9.398304101053492"><ele>198.0</ele><time>2026-04-11T15:40:18Z</time></trkpt><trkpt lat="45.83874926821884" lon="9.398130429880812"><ele>198.5</ele><time>2026-04-11T15:40:19Z</time></trkpt><trkpt lat="45.83873525953692" lon="9.397957617175168"><ele>199.0</ele><time>2026-04-11T15:40:20Z</time></trkpt><trkpt lat="45.83872120441729" lon="9.397794129754937"><ele>199.5</ele><time>2026-04-11T15:40:21Z</time></trkpt><trkpt lat="45.83870892174286" lon="9.397639954771716"><ele>200.0</ele><time>2026-04-11T15:40:22Z</time></trkpt><trkpt lat="45.838695407513896" lon="9.397487992788648"><ele>200.0</ele><time>2026-04-11T15:40:23Z</time></trkpt><trkpt lat="45.838680340024524" lon="9.397341126577212"><ele>200.0</ele><time>2026-04-11T15:40:24Z</time></trkpt><trkpt lat="45.838672151288655" lon="9.397195572126543"><ele>200.0</ele><time>2026-04-11T15:40:25Z</time></trkpt><trkpt lat="45.83869113235157" lon="9.397053530019985"><ele>200.0</ele><time>2026-04-11T15:40:26Z</time></trkpt><trkpt lat="45.83874504325986" lon="9.396921463350635"><ele>200.0</ele><time>2026-04-11T15:40:27Z</time></trkpt><trkpt lat="45.83882345087799" lon="9.39681634218673"><ele>200.0</ele><time>2026-04-11T15:40:28Z</time></trkpt><trkpt lat="45.838932270426184" lon="9.396761473627276"><ele>200.0</ele><time>2026-04-11T15:40:29Z</time></trkpt><trkpt lat="45.83905052413516" lon="9.396754898341426"><ele>200.0</ele><time>2026-04-11T15:40:30Z</time></trkpt><trkpt lat="45.8391710949361" lon="9.396825492222025"><ele>200.0</ele><time>2026-04-11T15:40:31Z</time></trkpt><trkpt lat="45.83926020846597" lon="9.396938967204795"><ele>200.0</ele><time>2026-04-11T15:40:32Z</time></trkpt><trkpt lat="45.83930785413053" lon="9.397086673359858"><ele>200.0</ele><time>2026-04-11T15:40:33Z</time></trkpt><trkpt lat="45.839317769786234" lon="9.397243083150768"><ele>200.0</ele><time>2026-04-11T15:40:34Z</time></trkpt><trkpt lat="45.83929571563054" lon="9.397399847331895"><ele>200.0</ele><time>2026-04-11T15:40:35Z</time></trkpt><trkpt lat="45.83923706627315" lon="9.397537541787402"><ele>200.0</ele><time>2026-04-11T15:40:36Z</time></trkpt><trkpt lat="45.8391459340221" lon="9.397633008277912"><ele>200.0</ele><time>2026-04-11T15:40:37Z</time></trkpt><trkpt lat="45.83903573591974" lon="9.39768684257964"><ele>200.0</ele><time>2026-04-11T15:40:38Z</time></trkpt><trkpt lat="45.83891719204738" lon="9.397691188721167"><ele>200.0</ele><time>2026-04-11T15:40:39Z</time></trkpt><trkpt lat="45.83879767292275" lon="9.397621299824479"><ele>200.0</ele><time>2026-04-11T15:40:40Z</time></trkpt><trkpt lat="45.83870070451001" lon="9.397498365083685"><ele>200.0</ele><time>2026-04-11T15:40:41Z</time></trkpt><trkpt lat="45.83857332288929" lon="9.39739748900522"><ele>200.0</ele><time>2026-04-11T15:40:42Z</time></trkpt><trkpt lat="45.83846027508317" lon="9.397285165690528"><ele>200.0</ele><time>2026-04-11T15:40:43Z</time></trkpt><trkpt lat="45.83833873763996" lon="9.397179044966446"><ele>200.0</ele><time>2026-04-11T15:40:44Z</time></trkpt><trkpt lat="45.83824699563632" lon="9.397123882609552"><ele>201.0</ele><time>2026-04-11T15:40:45Z</time></trkpt><trkpt lat="45.838127566981086" lon="9.397114395525282"><ele>202.0</ele><time>2026-04-11T15:40:46Z</time></trkpt><trkpt lat="45.83799294668875" lon="9.397097927123024"><ele>203.0</ele><time>2026-04-11T15:40:47Z</time></trkpt><trkpt lat="45.83786569434579" lon="9.397081081654918"><ele>204.0</ele><time>2026-04-11T15:40:48Z</time></trkpt><trkpt lat="45.837733661755564" lon="9.397063603359605"><ele>203.5</ele><time>2026-04-11T15:40:49Z</time></trkpt><trkpt lat="45.83760780466849" lon="9.397047147617481"><ele>203.0</ele><time>2026-04-11T15:40:50Z</time></trkpt><trkpt lat="45.83748088688554" lon="9.397031095369483"><ele>202.5</ele><time>2026-04-11T15:40:51Z</time></trkpt><trkpt lat="45.83735668307052" lon="9.396993831896985"><ele>202.0</ele><time>2026-04-11T15:40:52Z</time></trkpt><trkpt lat="45.83723553660102" lon="9.396975197325695"><ele>202.0</ele><time>2026-04-11T15:40:53Z</time></trkpt><trkpt lat="45.83712577499475" lon="9.396919091774159"><ele>202.0</ele><time>2026-04-11T15:40:54Z</time></trkpt><trkpt lat="45.83701863713367" lon="9.396838177504957"><ele>202.0</ele><time>2026-04-11T15:40:55Z</time></trkpt><trkpt lat="45.83692021521275" lon="9.396720218024585"><ele>202.0</ele><time>2026-04-11T15:40:56Z</time></trkpt><trkpt lat="45.83683621700777" lon="9.396586122029259"><ele>202.0</ele><time>2026-04-11T15:40:57Z</time></trkpt><trkpt lat="45.83673600032211" lon="9.396508109690057"><ele>202.0</ele><time>2026-04-11T15:40:58Z</time></trkpt><trkpt lat="45.836689618686" lon="9.396318786043464"><ele>202.0</ele><time>2026-04-11T15:40:59Z</time></trkpt><trkpt lat="45.83663431599735" lon="9.396210449896518"><ele>202.0</ele><time>2026-04-11T15:41:00Z</time></trkpt><trkpt lat="45.836607314432925" lon="9.396107267910546"><ele>202.0</ele><time>2026-04-11T15:41:01Z</time></trkpt><trkpt lat="45.83656941137655" lon="9.396019861244438"><ele>201.99999999999997</ele><time>2026-04-11T15:41:02Z</time></trkpt><trkpt lat="45.836530505101656" lon="9.39593201909909"><ele>202.0</ele><time>2026-04-11T15:41:03Z</time></trkpt><trkpt lat="45.83648952668921" lon="9.395839498160859"><ele>202.0</ele><time>2026-04-11T15:41:04Z</time></trkpt><trkpt lat="45.83642997061273" lon="9.395746458587778"><ele>202.0</ele><time>2026-04-11T15:41:05Z</time></trkpt><trkpt lat="45.83639284581579" lon="9.395655919840744"><ele>201.99999999999997</ele><time>2026-04-11T15:41:06Z</time></trkpt><trkpt lat="45.8363578946114" lon="9.395572434698325"><ele>202.0</ele><time>2026-04-11T15:41:07Z</time></trkpt><trkpt lat="45.83632531543" lon="9.395480772579258"><ele>202.2</ele><time>2026-04-11T15:41:08Z</time></trkpt><trkpt lat="45.83627818508737" lon="9.395363687431459"><ele>202.39999999999998</ele><time>2026-04-11T15:41:09Z</time></trkpt><trkpt lat="45.836220440370866" lon="9.395240607852841"><ele>202.60000000000002</ele><time>2026-04-11T15:41:10Z</time></trkpt><trkpt lat="45.83616312219839" lon="9.395106649694819"><ele>202.8</ele><time>2026-04-11T15:41:11Z</time></trkpt><trkpt lat="45.836105573437784" lon="9.394965815049312"><ele>203.0</ele><time>2026-04-11T15:41:12Z</time></trkpt><trkpt lat="45.83604856771613" lon="9.394829417196247"><ele>203.00000000000003</ele><time>2026-04-11T15:41:13Z</time></trkpt><trkpt lat="45.83599523981782" lon="9.394709826400431"><ele>203.0</ele><time>2026-04-11T15:41:14Z</time></trkpt><trkpt lat="45.83594673946728" lon="9.394602789066116"><ele>203.0</ele><time>2026-04-11T15:41:15Z</time></trkpt><trkpt lat="45.835915692903214" lon="9.3944975386234"><ele>203.0</ele><time>2026-04-11T15:41:16Z</time></trkpt><trkpt lat="45.83587671877688" lon="9.394409034485793"><ele>203.00000000000003</ele><time>2026-04-11T15:41:17Z</time></trkpt><trkpt lat="45.83587918215275" lon="9.39431569048959"><ele>203.0</ele><time>2026-04-11T15:41:18Z</time></trkpt><trkpt lat="45.83591916996594" lon="9.394181928149552"><ele>203.2</ele><time>2026-04-11T15:41:20Z</time></trkpt><trkpt lat="45.83594364733259" lon="9.394070275755315"><ele>203.4</ele><time>2026-04-11T15:41:22Z</time></trkpt><trkpt lat="45.8359003559341" lon="9.393942522388121"><ele>203.6</ele><time>2026-04-11T15:41:25Z</time></trkpt><trkpt lat="45.835807126675455" lon="9.393912014898259"><ele>203.79999999999998</ele><time>2026-04-11T15:41:26Z</time></trkpt><trkpt lat="45.83573373553279" lon="9.393843253879105"><ele>204.0</ele><time>2026-04-11T15:41:27Z</time></trkpt><trkpt lat="45.83565507717818" lon="9.393786417612395"><ele>205.16666666666666</ele><time>2026-04-11T15:41:28Z</time></trkpt><trkpt lat="45.835580597221764" lon="9.393748385183814"><ele>206.33333333333331</ele><time>2026-04-11T15:41:29Z</time></trkpt><trkpt lat="45.835507459510126" lon="9.393725221616025"><ele>207.5</ele><time>2026-04-11T15:41:30Z</time></trkpt><trkpt lat="45.83543720091856" lon="9.393706483014467"><ele>208.66666666666666</ele><time>2026-04-11T15:41:31Z</time></trkpt><trkpt lat="45.83536628255477" lon="9.393692525341205"><ele>209.83333333333331</ele><time>2026-04-11T15:41:32Z</time></trkpt><trkpt lat="45.835288226085495" lon="9.393683084611302"><ele>211.0</ele><time>2026-04-11T15:41:33Z</time></trkpt><trkpt lat="45.8351970200753" lon="9.393674654396793"><ele>210.83333333333331</ele><time>2026-04-11T15:41:34Z</time></trkpt><trkpt lat="45.835103626671795" lon="9.393672678633004"><ele>210.66666666666666</ele><time>2026-04-11T15:41:35Z</time></trkpt><trkpt lat="45.83501327706514" lon="9.393676659816588"><ele>210.5</ele><time>2026-04-11T15:41:36Z</time></trkpt><trkpt lat="45.83493034826132" lon="9.39368548143658"><ele>210.33333333333331</ele><time>2026-04-11T15:41:37Z</time></trkpt><trkpt lat="45.8348476322238" lon="9.393696591026435"><ele>210.16666666666666</ele><time>2026-04-11T15:41:38Z</time></trkpt><trkpt lat="45.834761271230896" lon="9.393709975776547"><ele>210.0</ele><time>2026-04-11T15:41:38.999Z</time></trkpt><trkpt lat="45.83467430533151" lon="9.393724531816824"><ele>210.0</ele><time>2026-04-11T15:41:39.999Z</time></trkpt><trkpt lat="45.834587987143195" lon="9.3937366731789"><ele>210.0</ele><time>2026-04-11T15:41:40.999Z</time></trkpt><trkpt lat="45.83450354585464" lon="9.39375211734585"><ele>210.0</ele><time>2026-04-11T15:41:41.999Z</time></trkpt><trkpt lat="45.8344183608205" lon="9.393771587830102"><ele>210.0</ele><time>2026-04-11T15:41:42.999Z</time></trkpt><trkpt lat="45.834335190638484" lon="9.393784712180508"><ele>210.0</ele><time>2026-04-11T15:41:43.999Z</time></trkpt><trkpt lat="45.8342545058844" lon="9.393799349463023"><ele>210.0</ele><time>2026-04-11T15:41:44.999Z</time></trkpt><trkpt lat="45.834177729394185" lon="9.393815179089254"><ele>210.0</ele><time>2026-04-11T15:41:45.999Z</time></trkpt><trkpt lat="45.834102773720296" lon="9.393831376359412"><ele>210.0</ele><time>2026-04-11T15:41:46.999Z</time></trkpt><trkpt lat="45.834035950514874" lon="9.39384515654904"><ele>210.0</ele><time>2026-04-11T15:41:47.999Z</time></trkpt><trkpt lat="45.833916947021635" lon="9.393873091741904"><ele>210.0</ele><time>2026-04-11T15:41:49.999Z</time></trkpt><trkpt lat="45.83379622107277" lon="9.393895723506073"><ele>210.0</ele><time>2026-04-11T15:41:52.001Z</time></trkpt><trkpt lat="45.83370382628222" lon="9.39392513787728"><ele>208.75</ele><time>2026-04-11T15:41:54.001Z</time></trkpt><trkpt lat="45.83361424721579" lon="9.39406567652514"><ele>207.5</ele><time>2026-04-11T15:41:56.001Z</time></trkpt><trkpt lat="45.83354492045017" lon="9.394171828496669"><ele>206.25</ele><time>2026-04-11T15:41:57.001Z</time></trkpt><trkpt lat="45.8334424283137" lon="9.394276615759752"><ele>205.0</ele><time>2026-04-11T15:41:58.001Z</time></trkpt><trkpt lat="45.83331953940377" lon="9.394393216193722"><ele>205.0</ele><time>2026-04-11T15:41:59.001Z</time></trkpt><trkpt lat="45.833186355187934" lon="9.39451913375752"><ele>205.0</ele><time>2026-04-11T15:42:00.001Z</time></trkpt><trkpt lat="45.8330539911818" lon="9.394653986243195"><ele>205.0</ele><time>2026-04-11T15:42:01.001Z</time></trkpt><trkpt lat="45.83291488870368" lon="9.394785703070319"><ele>205.66666666666666</ele><time>2026-04-11T15:42:02.001Z</time></trkpt><trkpt lat="45.832767088929565" lon="9.394904263764465"><ele>206.33333333333331</ele><time>2026-04-11T15:42:03.001Z</time></trkpt><trkpt lat="45.83261521060974" lon="9.395006658022568"><ele>207.0</ele><time>2026-04-11T15:42:04.001Z</time></trkpt><trkpt lat="45.83246067620556" lon="9.395096022695798"><ele>207.0</ele><time>2026-04-11T15:42:05.001Z</time></trkpt><trkpt lat="45.83230630998942" lon="9.395172348944783"><ele>207.0</ele><time>2026-04-11T15:42:06.001Z</time></trkpt><trkpt lat="45.83215189225876" lon="9.395234651525767"><ele>207.0</ele><time>2026-04-11T15:42:07Z</time></trkpt><trkpt lat="45.831998867086966" lon="9.395282067727496"><ele>207.0</ele><time>2026-04-11T15:42:08Z</time></trkpt><trkpt lat="45.83184516748384" lon="9.395322325875831"><ele>207.0</ele><time>2026-04-11T15:42:09Z</time></trkpt><trkpt lat="45.831694430911085" lon="9.39535428377863"><ele>207.0</ele><time>2026-04-11T15:42:10Z</time></trkpt><trkpt lat="45.831544240368466" lon="9.395389404017031"><ele>207.33333333333331</ele><time>2026-04-11T15:42:11Z</time></trkpt><trkpt lat="45.831391976314016" lon="9.395425030649323"><ele>207.66666666666666</ele><time>2026-04-11T15:42:12Z</time></trkpt><trkpt lat="45.83124049992772" lon="9.395457328670666"><ele>208.0</ele><time>2026-04-11T15:42:13Z</time></trkpt><trkpt lat="45.83109157229442" lon="9.395480186642597"><ele>207.5</ele><time>2026-04-11T15:42:14Z</time></trkpt><trkpt lat="45.83094624113515" lon="9.395499326834384"><ele>207.0</ele><time>2026-04-11T15:42:15Z</time></trkpt><trkpt lat="45.83080348639179" lon="9.395521499629487"><ele>206.5</ele><time>2026-04-11T15:42:16Z</time></trkpt><trkpt lat="45.83066142338601" lon="9.39554537707402"><ele>206.0</ele><time>2026-04-11T15:42:17Z</time></trkpt><trkpt lat="45.8305198903658" lon="9.395572452044906"><ele>205.5</ele><time>2026-04-11T15:42:18Z</time></trkpt><trkpt lat="45.83037805083714" lon="9.39559764092699"><ele>205.0</ele><time>2026-04-11T15:42:19Z</time></trkpt><trkpt lat="45.83023775443518" lon="9.395621711803294"><ele>204.5</ele><time>2026-04-11T15:42:20Z</time></trkpt><trkpt lat="45.83009894589569" lon="9.395648095292223"><ele>204.0</ele><time>2026-04-11T15:42:21Z</time></trkpt><trkpt lat="45.8299617343035" lon="9.395675712319944"><ele>204.0</ele><time>2026-04-11T15:42:22Z</time></trkpt><trkpt lat="45.8298252191278" lon="9.395705865086661"><ele>204.0</ele><time>2026-04-11T15:42:23Z</time></trkpt><trkpt lat="45.82968810236042" lon="9.395737479053427"><ele>204.0</ele><time>2026-04-11T15:42:24Z</time></trkpt><trkpt lat="45.829550642924744" lon="9.39576843944641"><ele>204.0</ele><time>2026-04-11T15:42:25Z</time></trkpt><trkpt lat="45.829412967803236" lon="9.395798096626804"><ele>204.25</ele><time>2026-04-11T15:42:26Z</time></trkpt><trkpt lat="45.82927518850716" lon="9.395830401812283"><ele>204.5</ele><time>2026-04-11T15:42:27Z</time></trkpt><trkpt lat="45.8291349678588" lon="9.395857349201732"><ele>204.75</ele><time>2026-04-11T15:42:28Z</time></trkpt><trkpt lat="45.828993616457225" lon="9.395874634799156"><ele>205.0</ele><time>2026-04-11T15:42:29Z</time></trkpt><trkpt lat="45.828851143920474" lon="9.39588483446476"><ele>205.0</ele><time>2026-04-11T15:42:30Z</time></trkpt><trkpt lat="45.82870727655914" lon="9.395885528670583"><ele>205.0</ele><time>2026-04-11T15:42:31Z</time></trkpt><trkpt lat="45.82856463257317" lon="9.395885199238476"><ele>205.0</ele><time>2026-04-11T15:42:32Z</time></trkpt><trkpt lat="45.82842375657939" lon="9.39588028976861"><ele>205.0</ele><time>2026-04-11T15:42:33Z</time></trkpt><trkpt lat="45.828287486868746" lon="9.395865963514273"><ele>205.0</ele><time>2026-04-11T15:42:34Z</time></trkpt><trkpt lat="45.82815496796652" lon="9.39584608017327"><ele>205.0</ele><time>2026-04-11T15:42:35Z</time></trkpt><trkpt lat="45.828025391634704" lon="9.395823361389024"><ele>205.0</ele><time>2026-04-11T15:42:36Z</time></trkpt><trkpt lat="45.82789499023993" lon="9.395802946753488"><ele>205.0</ele><time>2026-04-11T15:42:37Z</time></trkpt><trkpt lat="45.82776756204672" lon="9.39578298258605"><ele>204.75</ele><time>2026-04-11T15:42:38Z</time></trkpt><trkpt lat="45.82764069499146" lon="9.395760221771"><ele>204.5</ele><time>2026-04-11T15:42:39Z</time></trkpt><trkpt lat="45.82751433723414" lon="9.395738644935525"><ele>204.25</ele><time>2026-04-11T15:42:40Z</time></trkpt><trkpt lat="45.82738831927916" lon="9.395718296318798"><ele>204.0</ele><time>2026-04-11T15:42:41Z</time></trkpt><trkpt lat="45.82726174730221" lon="9.395693433319874"><ele>204.0</ele><time>2026-04-11T15:42:42Z</time></trkpt><trkpt lat="45.82713424300865" lon="9.395670851047527"><ele>204.0</ele><time>2026-04-11T15:42:43Z</time></trkpt><trkpt lat="45.82700589633382" lon="9.395649413498623"><ele>204.0</ele><time>2026-04-11T15:42:44Z</time></trkpt><trkpt lat="45.826879449743736" lon="9.395626416445246"><ele>204.0</ele><time>2026-04-11T15:42:45Z</time></trkpt><trkpt lat="45.82675539519502" lon="9.395602671624049"><ele>204.25</ele><time>2026-04-11T15:42:46Z</time></trkpt><trkpt lat="45.82663378843867" lon="9.395578697913772"><ele>204.5</ele><time>2026-04-11T15:42:47Z</time></trkpt><trkpt lat="45.8265124861027" lon="9.395555246333977"><ele>204.75</ele><time>2026-04-11T15:42:48Z</time></trkpt><trkpt lat="45.82639194033789" lon="9.395529124503184"><ele>205.0</ele><time>2026-04-11T15:42:49Z</time></trkpt><trkpt lat="45.826272272392686" lon="9.395498050630056"><ele>205.5</ele><time>2026-04-11T15:42:50Z</time></trkpt><trkpt lat="45.826152445339304" lon="9.395472577902302"><ele>206.0</ele><time>2026-04-11T15:42:51Z</time></trkpt><trkpt lat="45.82603036675113" lon="9.39545043386361"><ele>206.5</ele><time>2026-04-11T15:42:52Z</time></trkpt><trkpt lat="45.82590673557159" lon="9.395428643430856"><ele>207.0</ele><time>2026-04-11T15:42:53Z</time></trkpt><trkpt lat="45.82578306172718" lon="9.395409152057129"><ele>207.0</ele><time>2026-04-11T15:42:54Z</time></trkpt><trkpt lat="45.82565764773912" lon="9.395389476758254"><ele>207.0</ele><time>2026-04-11T15:42:55Z</time></trkpt><trkpt lat="45.825533550190826" lon="9.39536960161039"><ele>207.0</ele><time>2026-04-11T15:42:56Z</time></trkpt><trkpt lat="45.82541106655665" lon="9.395347160158062"><ele>207.0</ele><time>2026-04-11T15:42:57Z</time></trkpt><trkpt lat="45.82529168446588" lon="9.39532416235597"><ele>207.0</ele><time>2026-04-11T15:42:58Z</time></trkpt><trkpt lat="45.825175101748165" lon="9.395305510800307"><ele>207.0</ele><time>2026-04-11T15:42:59Z</time></trkpt><trkpt lat="45.825056509028364" lon="9.395284539601574"><ele>207.0</ele><time>2026-04-11T15:43:00Z</time></trkpt><trkpt lat="45.82493800888798" lon="9.395264009968733"><ele>207.0</ele><time>2026-04-11T15:43:01Z</time></trkpt><trkpt lat="45.824826740836556" lon="9.39524506651832"><ele>206.5</ele><time>2026-04-11T15:43:02Z</time></trkpt><trkpt lat="45.82471814433882" lon="9.395228646428214"><ele>206.0</ele><time>2026-04-11T15:43:03Z</time></trkpt><trkpt lat="45.82460613198258" lon="9.395209520710496"><ele>205.5</ele><time>2026-04-11T15:43:04Z</time></trkpt><trkpt lat="45.824489874918584" lon="9.3951921316786"><ele>205.0</ele><time>2026-04-11T15:43:05Z</time></trkpt><trkpt lat="45.824370662597175" lon="9.395174195556523"><ele>205.0</ele><time>2026-04-11T15:43:06Z</time></trkpt><trkpt lat="45.82424772808049" lon="9.395152728084556"><ele>205.0</ele><time>2026-04-11T15:43:07Z</time></trkpt><trkpt lat="45.82412281373843" lon="9.395130010894189"><ele>205.0</ele><time>2026-04-11T15:43:08Z</time></trkpt><trkpt lat="45.82399568629767" lon="9.395105505090468"><ele>205.0</ele><time>2026-04-11T15:43:09Z</time></trkpt><trkpt lat="45.823866031737005" lon="9.395082202813427"><ele>205.0</ele><time>2026-04-11T15:43:10Z</time></trkpt><trkpt lat="45.823735208047836" lon="9.395059449328842"><ele>205.0</ele><time>2026-04-11T15:43:11Z</time></trkpt><trkpt lat="45.82360105001358" lon="9.395043558589396"><ele>205.0</ele><time>2026-04-11T15:43:12Z</time></trkpt><trkpt lat="45.82346703158677" lon="9.395035990688669"><ele>205.0</ele><time>2026-04-11T15:43:13Z</time></trkpt><trkpt lat="45.823330218689605" lon="9.395040155876751"><ele>204.75</ele><time>2026-04-11T15:43:14Z</time></trkpt><trkpt lat="45.8231926566654" lon="9.395046108011831"><ele>204.5</ele><time>2026-04-11T15:43:15Z</time></trkpt><trkpt lat="45.82305402880789" lon="9.395054160756402"><ele>204.25</ele><time>2026-04-11T15:43:16Z</time></trkpt><trkpt lat="45.8229189507996" lon="9.395061666578572"><ele>204.0</ele><time>2026-04-11T15:43:17Z</time></trkpt><trkpt lat="45.82278362397605" lon="9.395061053303554"><ele>204.25</ele><time>2026-04-11T15:43:18Z</time></trkpt><trkpt lat="45.82264765306997" lon="9.395050821511283"><ele>204.5</ele><time>2026-04-11T15:43:19Z</time></trkpt><trkpt lat="45.82251075223634" lon="9.39503301589095"><ele>204.75</ele><time>2026-04-11T15:43:20Z</time></trkpt><trkpt lat="45.822376494618744" lon="9.39501315353464"><ele>205.0</ele><time>2026-04-11T15:43:21Z</time></trkpt><trkpt lat="45.82227437892015" lon="9.394991889855977"><ele>205.0</ele><time>2026-04-11T15:43:22Z</time></trkpt><trkpt lat="45.822205135953325" lon="9.394984020819374"><ele>205.0</ele><time>2026-04-11T15:43:23Z</time></trkpt><trkpt lat="45.82214883933368" lon="9.394943060088455"><ele>205.0</ele><time>2026-04-11T15:43:24Z</time></trkpt><trkpt lat="45.82201949464994" lon="9.394921357103684"><ele>205.0</ele><time>2026-04-11T15:43:26Z</time></trkpt><trkpt lat="45.82193072691112" lon="9.394928855466993"><ele>205.0</ele><time>2026-04-11T15:43:27Z</time></trkpt><trkpt lat="45.82182853522069" lon="9.39491658808631"><ele>204.25</ele><time>2026-04-11T15:43:28Z</time></trkpt><trkpt lat="45.82171586116416" lon="9.39490794852108"><ele>203.5</ele><time>2026-04-11T15:43:29Z</time></trkpt><trkpt lat="45.82159420794684" lon="9.394902992738318"><ele>202.75</ele><time>2026-04-11T15:43:30Z</time></trkpt><trkpt lat="45.82147224009841" lon="9.394904052043238"><ele>202.0</ele><time>2026-04-11T15:43:31Z</time></trkpt><trkpt lat="45.82134798179273" lon="9.394912209054514"><ele>202.0</ele><time>2026-04-11T15:43:32Z</time></trkpt><trkpt lat="45.821220679734914" lon="9.394927781999488"><ele>202.0</ele><time>2026-04-11T15:43:33Z</time></trkpt><trkpt lat="45.82109186090776" lon="9.394951884815708"><ele>202.0</ele><time>2026-04-11T15:43:33.999Z</time></trkpt><trkpt lat="45.82096251266889" lon="9.394986890841428"><ele>202.0</ele><time>2026-04-11T15:43:34.999Z</time></trkpt><trkpt lat="45.82083330529147" lon="9.395028503521333"><ele>202.5</ele><time>2026-04-11T15:43:35.999Z</time></trkpt><trkpt lat="45.820703842501146" lon="9.395079867392315"><ele>203.0</ele><time>2026-04-11T15:43:36.999Z</time></trkpt><trkpt lat="45.820573116970685" lon="9.395139194476219"><ele>203.5</ele><time>2026-04-11T15:43:37.999Z</time></trkpt><trkpt lat="45.820441880829506" lon="9.395201787305798"><ele>204.0</ele><time>2026-04-11T15:43:38.999Z</time></trkpt><trkpt lat="45.82030918766546" lon="9.395267502564256"><ele>204.0</ele><time>2026-04-11T15:43:39.999Z</time></trkpt><trkpt lat="45.82017610805584" lon="9.395335239072388"><ele>204.0</ele><time>2026-04-11T15:43:40.999Z</time></trkpt><trkpt lat="45.820041809924895" lon="9.395404088453018"><ele>204.0</ele><time>2026-04-11T15:43:41.999Z</time></trkpt><trkpt lat="45.81990599590293" lon="9.395472753482291"><ele>204.0</ele><time>2026-04-11T15:43:42.999Z</time></trkpt><trkpt lat="45.819768370449204" lon="9.395544537703085"><ele>204.0</ele><time>2026-04-11T15:43:43.999Z</time></trkpt><trkpt lat="45.81963053820215" lon="9.395617788816097"><ele>204.0</ele><time>2026-04-11T15:43:44.999Z</time></trkpt><trkpt lat="45.819491802233316" lon="9.395690817992506"><ele>204.0</ele><time>2026-04-11T15:43:45.999Z</time></trkpt><trkpt lat="45.81935160297699" lon="9.395764031613464"><ele>204.0</ele><time>2026-04-11T15:43:46.999Z</time></trkpt><trkpt lat="45.8192104211211" lon="9.395838460660183"><ele>204.0</ele><time>2026-04-11T15:43:47.999Z</time></trkpt><trkpt lat="45.81906895806682" lon="9.395909904920863"><ele>204.0</ele><time>2026-04-11T15:43:48.999Z</time></trkpt><trkpt lat="45.81892637701338" lon="9.395980151275825"><ele>204.0</ele><time>2026-04-11T15:43:49.999Z</time></trkpt><trkpt lat="45.81878340409163" lon="9.396052346771748"><ele>204.0</ele><time>2026-04-11T15:43:50.999Z</time></trkpt><trkpt lat="45.81863930697026" lon="9.396124827868812"><ele>204.0</ele><time>2026-04-11T15:43:51.999Z</time></trkpt><trkpt lat="45.818496065184554" lon="9.396195465788272"><ele>204.0</ele><time>2026-04-11T15:43:52.999Z</time></trkpt><trkpt lat="45.81835211707056" lon="9.396266211771257"><ele>204.0</ele><time>2026-04-11T15:43:53.999Z</time></trkpt><trkpt lat="45.818208529644124" lon="9.39633746585337"><ele>204.0</ele><time>2026-04-11T15:43:54.999Z</time></trkpt><trkpt lat="45.81806425111159" lon="9.396409034447105"><ele>204.0</ele><time>2026-04-11T15:43:55.999Z</time></trkpt><trkpt lat="45.817920073514706" lon="9.39648136606181"><ele>204.0</ele><time>2026-04-11T15:43:56.999Z</time></trkpt><trkpt lat="45.81777623840683" lon="9.396553927170096"><ele>204.0</ele><time>2026-04-11T15:43:58Z</time></trkpt><trkpt lat="45.81763480154106" lon="9.3966268905144"><ele>204.0</ele><time>2026-04-11T15:43:59Z</time></trkpt><trkpt lat="45.817496277172886" lon="9.39670090924822"><ele>203.5</ele><time>2026-04-11T15:44:00Z</time></trkpt><trkpt lat="45.8173600233358" lon="9.396771710988743"><ele>203.0</ele><time>2026-04-11T15:44:01Z</time></trkpt><trkpt lat="45.81722597843857" lon="9.396840430708137"><ele>202.5</ele><time>2026-04-11T15:44:02Z</time></trkpt><trkpt lat="45.81709478033695" lon="9.396908604921865"><ele>202.0</ele><time>2026-04-11T15:44:03Z</time></trkpt><trkpt lat="45.816967825226946" lon="9.396973564479243"><ele>202.0</ele><time>2026-04-11T15:44:04Z</time></trkpt><trkpt lat="45.816842044686176" lon="9.39703614158453"><ele>202.0</ele><time>2026-04-11T15:44:05Z</time></trkpt><trkpt lat="45.81671475965766" lon="9.397101127246593"><ele>202.0</ele><time>2026-04-11T15:44:06Z</time></trkpt><trkpt lat="45.816585413535094" lon="9.397168091709535"><ele>202.0</ele><time>2026-04-11T15:44:07Z</time></trkpt><trkpt lat="45.816455597731085" lon="9.397234200793147"><ele>202.75</ele><time>2026-04-11T15:44:08Z</time></trkpt><trkpt lat="45.816323752756055" lon="9.397298736269725"><ele>203.5</ele><time>2026-04-11T15:44:09Z</time></trkpt><trkpt lat="45.81619112075629" lon="9.397363027858184"><ele>204.25</ele><time>2026-04-11T15:44:10Z</time></trkpt><trkpt lat="45.81605897298946" lon="9.397432926470023"><ele>205.0</ele><time>2026-04-11T15:44:11Z</time></trkpt><trkpt lat="45.81592881644722" lon="9.397500198106432"><ele>205.25</ele><time>2026-04-11T15:44:12Z</time></trkpt><trkpt lat="45.81579766995704" lon="9.397567007887842"><ele>205.5</ele><time>2026-04-11T15:44:13Z</time></trkpt><trkpt lat="45.8156699417409" lon="9.397634781402598"><ele>205.75</ele><time>2026-04-11T15:44:14Z</time></trkpt><trkpt lat="45.81554324121866" lon="9.39770219685443"><ele>206.0</ele><time>2026-04-11T15:44:15Z</time></trkpt><trkpt lat="45.81541702141497" lon="9.397768878135603"><ele>206.0</ele><time>2026-04-11T15:44:16Z</time></trkpt><trkpt lat="45.8152889591797" lon="9.397836840655957"><ele>206.0</ele><time>2026-04-11T15:44:17Z</time></trkpt><trkpt lat="45.81516081081715" lon="9.397901530049717"><ele>206.0</ele><time>2026-04-11T15:44:18Z</time></trkpt><trkpt lat="45.81503360440715" lon="9.397964850739966"><ele>206.0</ele><time>2026-04-11T15:44:19Z</time></trkpt><trkpt lat="45.81490718605551" lon="9.398027097895245"><ele>206.0</ele><time>2026-04-11T15:44:20Z</time></trkpt><trkpt lat="45.814780737550606" lon="9.398085790203655"><ele>206.0</ele><time>2026-04-11T15:44:21Z</time></trkpt><trkpt lat="45.814656320942" lon="9.398148073996287"><ele>206.0</ele><time>2026-04-11T15:44:22Z</time></trkpt><trkpt lat="45.81453054965428" lon="9.398207729981399"><ele>206.0</ele><time>2026-04-11T15:44:23Z</time></trkpt><trkpt lat="45.814408488283966" lon="9.398264823849326"><ele>206.5</ele><time>2026-04-11T15:44:24Z</time></trkpt><trkpt lat="45.81429011701422" lon="9.398319100197197"><ele>207.0</ele><time>2026-04-11T15:44:25Z</time></trkpt><trkpt lat="45.81417317561728" lon="9.398376369444478"><ele>207.5</ele><time>2026-04-11T15:44:26Z</time></trkpt><trkpt lat="45.81405665564104" lon="9.398436017351083"><ele>208.0</ele><time>2026-04-11T15:44:27Z</time></trkpt><trkpt lat="45.81394108943644" lon="9.398495915872886"><ele>208.0</ele><time>2026-04-11T15:44:28Z</time></trkpt><trkpt lat="45.81382823179129" lon="9.398554542847268"><ele>208.0</ele><time>2026-04-11T15:44:29Z</time></trkpt><trkpt lat="45.81371581894272" lon="9.398612329280631"><ele>208.0</ele><time>2026-04-11T15:44:30Z</time></trkpt><trkpt lat="45.813605180349576" lon="9.398667518842883"><ele>208.0</ele><time>2026-04-11T15:44:31Z</time></trkpt><trkpt lat="45.8135033428132" lon="9.398720341468579"><ele>207.99999999999997</ele><time>2026-04-11T15:44:32Z</time></trkpt><trkpt lat="45.81341131497815" lon="9.398767312556972"><ele>208.0</ele><time>2026-04-11T15:44:33Z</time></trkpt><trkpt lat="45.81332567081494" lon="9.398813193726706"><ele>208.0</ele><time>2026-04-11T15:44:34Z</time></trkpt><trkpt lat="45.813251068164284" lon="9.398854629117865"><ele>208.0</ele><time>2026-04-11T15:44:35Z</time></trkpt><trkpt lat="45.81318210674915" lon="9.398891928342055"><ele>207.99999999999997</ele><time>2026-04-11T15:44:36Z</time></trkpt><trkpt lat="45.81311786458205" lon="9.398925431004315"><ele>208.0</ele><time>2026-04-11T15:44:37Z</time></trkpt><trkpt lat="45.813055930633446" lon="9.39895358175091"><ele>207.7142857142857</ele><time>2026-04-11T15:44:38Z</time></trkpt><trkpt lat="45.81299468105165" lon="9.398978097959374"><ele>207.42857142857144</ele><time>2026-04-11T15:44:39Z</time></trkpt><trkpt lat="45.81292501846758" lon="9.399006008272545"><ele>207.14285714285714</ele><time>2026-04-11T15:44:40Z</time></trkpt><trkpt lat="45.81284998765602" lon="9.399027952663795"><ele>206.85714285714283</ele><time>2026-04-11T15:44:41Z</time></trkpt><trkpt lat="45.812773057295296" lon="9.399037521215947"><ele>206.57142857142856</ele><time>2026-04-11T15:44:42Z</time></trkpt><trkpt lat="45.81269343818863" lon="9.399036471724488"><ele>206.28571428571428</ele><time>2026-04-11T15:44:43Z</time></trkpt><trkpt lat="45.8126147922529" lon="9.399057898489694"><ele>206.0</ele><time>2026-04-11T15:44:44Z</time></trkpt><trkpt lat="45.81254517793862" lon="9.399127146194948"><ele>206.0</ele><time>2026-04-11T15:44:45Z</time></trkpt><trkpt lat="45.81248486227728" lon="9.399215777490975"><ele>206.0</ele><time>2026-04-11T15:44:46Z</time></trkpt><trkpt lat="45.8124081109649" lon="9.39929052440076"><ele>206.0</ele><time>2026-04-11T15:44:47Z</time></trkpt><trkpt lat="45.81231966024233" lon="9.399341533253267"><ele>206.0</ele><time>2026-04-11T15:44:48Z</time></trkpt><trkpt lat="45.812227572253725" lon="9.399380083180416"><ele>206.0</ele><time>2026-04-11T15:44:49Z</time></trkpt><trkpt lat="45.81213590277279" lon="9.399419573954564"><ele>206.0</ele><time>2026-04-11T15:44:50Z</time></trkpt><trkpt lat="45.81204113995788" lon="9.399466501522433"><ele>206.0</ele><time>2026-04-11T15:44:51Z</time></trkpt><trkpt lat="45.811939843249654" lon="9.399518709381889"><ele>206.0</ele><time>2026-04-11T15:44:52Z</time></trkpt><trkpt lat="45.81183907418191" lon="9.399572862950532"><ele>206.0</ele><time>2026-04-11T15:44:53Z</time></trkpt><trkpt lat="45.81173242691137" lon="9.399633290749257"><ele>206.0</ele><time>2026-04-11T15:44:54Z</time></trkpt><trkpt lat="45.811619404719266" lon="9.399692199704155"><ele>205.5</ele><time>2026-04-11T15:44:55Z</time></trkpt><trkpt lat="45.81150411570192" lon="9.399750611795028"><ele>205.0</ele><time>2026-04-11T15:44:56Z</time></trkpt><trkpt lat="45.811385369554955" lon="9.399810223019514"><ele>204.5</ele><time>2026-04-11T15:44:57Z</time></trkpt><trkpt lat="45.81126527818711" lon="9.399870725352121"><ele>204.0</ele><time>2026-04-11T15:44:58Z</time></trkpt><trkpt lat="45.81114653092671" lon="9.399930062874272"><ele>204.0</ele><time>2026-04-11T15:44:59Z</time></trkpt><trkpt lat="45.8110279871181" lon="9.399989255625536"><ele>204.0</ele><time>2026-04-11T15:45:00Z</time></trkpt><trkpt lat="45.810909902204045" lon="9.400050333118877"><ele>204.0</ele><time>2026-04-11T15:45:01Z</time></trkpt><trkpt lat="45.81079426771451" lon="9.40011109903656"><ele>204.0</ele><time>2026-04-11T15:45:02Z</time></trkpt><trkpt lat="45.8106851176355" lon="9.400165540812756"><ele>203.66666666666666</ele><time>2026-04-11T15:45:03Z</time></trkpt><trkpt lat="45.81058504183321" lon="9.4002142854"><ele>203.33333333333331</ele><time>2026-04-11T15:45:04Z</time></trkpt><trkpt lat="45.81049893528355" lon="9.400260306023494"><ele>203.0</ele><time>2026-04-11T15:45:05Z</time></trkpt><trkpt lat="45.810420248682966" lon="9.400304164472297"><ele>202.66666666666666</ele><time>2026-04-11T15:45:06Z</time></trkpt><trkpt lat="45.81034125867963" lon="9.400318336080701"><ele>202.33333333333331</ele><time>2026-04-11T15:45:07Z</time></trkpt><trkpt lat="45.810273439894814" lon="9.400377188264267"><ele>202.0</ele><time>2026-04-11T15:45:08Z</time></trkpt><trkpt lat="45.810199128095945" lon="9.400409152672928"><ele>201.99999999999997</ele><time>2026-04-11T15:45:09Z</time></trkpt><trkpt lat="45.81012657156041" lon="9.400442061297843"><ele>202.0</ele><time>2026-04-11T15:45:10Z</time></trkpt><trkpt lat="45.81006192099181" lon="9.400470037903792"><ele>202.0</ele><time>2026-04-11T15:45:11Z</time></trkpt><trkpt lat="45.80995895459861" lon="9.400526378348353"><ele>202.0</ele><time>2026-04-11T15:45:13Z</time></trkpt><trkpt lat="45.8098900124685" lon="9.40056199367822"><ele>201.99999999999997</ele><time>2026-04-11T15:45:15Z</time></trkpt><trkpt lat="45.809817017958224" lon="9.400602415805523"><ele>202.0</ele><time>2026-04-11T15:45:17Z</time></trkpt><trkpt lat="45.809687494583926" lon="9.400662302899867"><ele>201.99999999999997</ele><time>2026-04-11T15:45:19Z</time></trkpt><trkpt lat="45.80960738043777" lon="9.400699196550338"><ele>202.0</ele><time>2026-04-11T15:45:20Z</time></trkpt><trkpt lat="45.80952687559712" lon="9.400738123778957"><ele>202.0</ele><time>2026-04-11T15:45:21Z</time></trkpt><trkpt lat="45.80944836309232" lon="9.40077845612736"><ele>202.0</ele><time>2026-04-11T15:45:22Z</time></trkpt><trkpt lat="45.809368563291336" lon="9.400823321360095"><ele>201.99999999999997</ele><time>2026-04-11T15:45:23Z</time></trkpt><trkpt lat="45.80928628737847" lon="9.400868936519744"><ele>202.0</ele><time>2026-04-11T15:45:24Z</time></trkpt><trkpt lat="45.80920408257442" lon="9.40091061561529"><ele>201.99999999999997</ele><time>2026-04-11T15:45:25Z</time></trkpt><trkpt lat="45.809126305672656" lon="9.400952980280866"><ele>202.0</ele><time>2026-04-11T15:45:26Z</time></trkpt><trkpt lat="45.80905721082166" lon="9.400986158420958"><ele>202.0</ele><time>2026-04-11T15:45:27Z</time></trkpt><trkpt lat="45.80899701148901" lon="9.40101452248189"><ele>202.0</ele><time>2026-04-11T15:45:28Z</time></trkpt><trkpt lat="45.80889942085782" lon="9.40106712236729"><ele>201.99999999999997</ele><time>2026-04-11T15:45:30Z</time></trkpt><trkpt lat="45.80880284137043" lon="9.401093267093204"><ele>202.0</ele><time>2026-04-11T15:45:32Z</time></trkpt><trkpt lat="45.80870263292" lon="9.401144882628024"><ele>202.0</ele><time>2026-04-11T15:45:33.999Z</time></trkpt><trkpt lat="45.80864234997996" lon="9.401176216149182"><ele>202.0</ele><time>2026-04-11T15:45:34.999Z</time></trkpt><trkpt lat="45.808578899579295" lon="9.401209196019396"><ele>202.0</ele><time>2026-04-11T15:45:35.999Z</time></trkpt><trkpt lat="45.80852058720479" lon="9.40126461430857"><ele>202.0</ele><time>2026-04-11T15:45:36.999Z</time></trkpt><trkpt lat="45.80845757366465" lon="9.401295629441858"><ele>202.0</ele><time>2026-04-11T15:45:37.999Z</time></trkpt><trkpt lat="45.80839709571964" lon="9.401332573433065"><ele>202.0</ele><time>2026-04-11T15:45:38.999Z</time></trkpt><trkpt lat="45.808330157040025" lon="9.401349983463225"><ele>202.0</ele><time>2026-04-11T15:45:39.999Z</time></trkpt><trkpt lat="45.80826957243706" lon="9.401386354491171"><ele>201.83333333333331</ele><time>2026-04-11T15:45:40.999Z</time></trkpt><trkpt lat="45.808219226802535" lon="9.401460125041924"><ele>201.66666666666666</ele><time>2026-04-11T15:45:41.999Z</time></trkpt><trkpt lat="45.80815694265802" lon="9.401494818959282"><ele>201.5</ele><time>2026-04-11T15:45:42.999Z</time></trkpt><trkpt lat="45.80809205669639" lon="9.4015382157598"><ele>201.33333333333331</ele><time>2026-04-11T15:45:43.999Z</time></trkpt><trkpt lat="45.80803577679644" lon="9.401579264413915"><ele>201.16666666666666</ele><time>2026-04-11T15:45:44.999Z</time></trkpt><trkpt lat="45.80793854260234" lon="9.401661887787373"><ele>201.0</ele><time>2026-04-11T15:45:46.999Z</time></trkpt><trkpt lat="45.807844080996865" lon="9.401746407118283"><ele>201.0</ele><time>2026-04-11T15:45:48.999Z</time></trkpt><trkpt lat="45.807768754073805" lon="9.401818261620226"><ele>201.0</ele><time>2026-04-11T15:45:50.999Z</time></trkpt><trkpt lat="45.807706863133504" lon="9.401871636190933"><ele>201.0</ele><time>2026-04-11T15:45:52.999Z</time></trkpt><trkpt lat="45.807598984537016" lon="9.401905675660519"><ele>201.0</ele><time>2026-04-11T15:45:54.999Z</time></trkpt><trkpt lat="45.80753409175072" lon="9.401900035191998"><ele>201.0</ele><time>2026-04-11T15:45:55.999Z</time></trkpt><trkpt lat="45.80742977381972" lon="9.401908965345745"><ele>201.0</ele><time>2026-04-11T15:45:57.999Z</time></trkpt><trkpt lat="45.80737148545232" lon="9.402042208364115"><ele>201.16666666666666</ele><time>2026-04-11T15:45:59.999Z</time></trkpt><trkpt lat="45.80735741251553" lon="9.402136869081357"><ele>201.33333333333331</ele><time>2026-04-11T15:46:00.999Z</time></trkpt><trkpt lat="45.8073339539389" lon="9.402234538509669"><ele>201.5</ele><time>2026-04-11T15:46:01.999Z</time></trkpt><trkpt lat="45.80729261034478" lon="9.402318282000552"><ele>201.66666666666666</ele><time>2026-04-11T15:46:02.999Z</time></trkpt><trkpt lat="45.80723722329028" lon="9.40239283447887"><ele>201.83333333333331</ele><time>2026-04-11T15:46:04Z</time></trkpt><trkpt lat="45.80717005100759" lon="9.402454822757829"><ele>202.0</ele><time>2026-04-11T15:46:05Z</time></trkpt><trkpt lat="45.80709521169348" lon="9.40252007583321"><ele>201.99999999999997</ele><time>2026-04-11T15:46:06Z</time></trkpt><trkpt lat="45.80702135927961" lon="9.402593562619641"><ele>202.0</ele><time>2026-04-11T15:46:07Z</time></trkpt><trkpt lat="45.806950407124425" lon="9.40266283639112"><ele>202.0</ele><time>2026-04-11T15:46:08Z</time></trkpt><trkpt lat="45.80688146663125" lon="9.402730268160973"><ele>202.0</ele><time>2026-04-11T15:46:09Z</time></trkpt><trkpt lat="45.80681582036275" lon="9.402802795728691"><ele>201.99999999999997</ele><time>2026-04-11T15:46:10Z</time></trkpt><trkpt lat="45.80674639761542" lon="9.402878618254478"><ele>202.0</ele><time>2026-04-11T15:46:11Z</time></trkpt><trkpt lat="45.806671584208004" lon="9.402956182282773"><ele>202.0</ele><time>2026-04-11T15:46:12Z</time></trkpt><trkpt lat="45.806595332432714" lon="9.403032327385727"><ele>202.0</ele><time>2026-04-11T15:46:13Z</time></trkpt><trkpt lat="45.80651979326963" lon="9.403108214108546"><ele>202.0</ele><time>2026-04-11T15:46:14Z</time></trkpt><trkpt lat="45.8064420644679" lon="9.403185016876796"><ele>202.0</ele><time>2026-04-11T15:46:15Z</time></trkpt><trkpt lat="45.80636171192736" lon="9.40326321740863"><ele>202.0</ele><time>2026-04-11T15:46:16Z</time></trkpt><trkpt lat="45.80627976089424" lon="9.403342737118159"><ele>202.0</ele><time>2026-04-11T15:46:17Z</time></trkpt><trkpt lat="45.80619657893341" lon="9.403420620843095"><ele>202.0</ele><time>2026-04-11T15:46:18Z</time></trkpt><trkpt lat="45.806114368158916" lon="9.40350411493427"><ele>202.0</ele><time>2026-04-11T15:46:19Z</time></trkpt><trkpt lat="45.806029220383635" lon="9.403593383152208"><ele>202.0</ele><time>2026-04-11T15:46:20Z</time></trkpt><trkpt lat="45.8059385436271" lon="9.403688900467326"><ele>202.0</ele><time>2026-04-11T15:46:21Z</time></trkpt><trkpt lat="45.80584114050265" lon="9.403792235280976"><ele>202.0</ele><time>2026-04-11T15:46:22Z</time></trkpt><trkpt lat="45.80573995910213" lon="9.403896023551734"><ele>202.0</ele><time>2026-04-11T15:46:23Z</time></trkpt><trkpt lat="45.805639206840766" lon="9.403996016620534"><ele>202.0</ele><time>2026-04-11T15:46:24Z</time></trkpt><trkpt lat="45.805545637689406" lon="9.404090935750512"><ele>202.0</ele><time>2026-04-11T15:46:25Z</time></trkpt><trkpt lat="45.80545035127078" lon="9.404185287122448"><ele>202.0</ele><time>2026-04-11T15:46:26Z</time></trkpt><trkpt lat="45.805353224361944" lon="9.404278493409004"><ele>202.0</ele><time>2026-04-11T15:46:27Z</time></trkpt><trkpt lat="45.805254769983684" lon="9.4043741998431"><ele>202.0</ele><time>2026-04-11T15:46:28Z</time></trkpt><trkpt lat="45.8051553008653" lon="9.404474148282745"><ele>202.0</ele><time>2026-04-11T15:46:29Z</time></trkpt><trkpt lat="45.805056073154674" lon="9.40457482496092"><ele>201.5</ele><time>2026-04-11T15:46:30Z</time></trkpt><trkpt lat="45.80495636355819" lon="9.40467657369814"><ele>201.0</ele><time>2026-04-11T15:46:31Z</time></trkpt><trkpt lat="45.804859839516645" lon="9.404773021095679"><ele>200.5</ele><time>2026-04-11T15:46:32Z</time></trkpt><trkpt lat="45.80476462481292" lon="9.404869959238884"><ele>200.0</ele><time>2026-04-11T15:46:33Z</time></trkpt><trkpt lat="45.8046708666802" lon="9.404971679594059"><ele>200.0</ele><time>2026-04-11T15:46:34Z</time></trkpt><trkpt lat="45.80457799395889" lon="9.40507355197867"><ele>200.0</ele><time>2026-04-11T15:46:35Z</time></trkpt><trkpt lat="45.80448829102775" lon="9.405184330959882"><ele>200.0</ele><time>2026-04-11T15:46:36Z</time></trkpt><trkpt lat="45.80439798924612" lon="9.405290958088246"><ele>200.0</ele><time>2026-04-11T15:46:37Z</time></trkpt><trkpt lat="45.804297699604525" lon="9.40538525508268"><ele>200.75</ele><time>2026-04-11T15:46:38Z</time></trkpt><trkpt lat="45.80419142472253" lon="9.405474514308445"><ele>201.5</ele><time>2026-04-11T15:46:39Z</time></trkpt><trkpt lat="45.80408162856374" lon="9.405566505242865"><ele>202.25</ele><time>2026-04-11T15:46:40Z</time></trkpt><trkpt lat="45.80397029568216" lon="9.405669309889905"><ele>203.0</ele><time>2026-04-11T15:46:41Z</time></trkpt><trkpt lat="45.80385850478741" lon="9.40577748294699"><ele>203.0</ele><time>2026-04-11T15:46:42Z</time></trkpt><trkpt lat="45.803747668903775" lon="9.40589485926096"><ele>203.0</ele><time>2026-04-11T15:46:43Z</time></trkpt><trkpt lat="45.80363749411019" lon="9.40602253631665"><ele>203.0</ele><time>2026-04-11T15:46:44Z</time></trkpt><trkpt lat="45.80352971749245" lon="9.406154416891855"><ele>203.0</ele><time>2026-04-11T15:46:45Z</time></trkpt><trkpt lat="45.80342441194316" lon="9.40629338130534"><ele>204.25</ele><time>2026-04-11T15:46:46Z</time></trkpt><trkpt lat="45.80332319108514" lon="9.406435851185744"><ele>205.5</ele><time>2026-04-11T15:46:47Z</time></trkpt><trkpt lat="45.803220621093274" lon="9.406579237204626"><ele>206.75</ele><time>2026-04-11T15:46:48Z</time></trkpt><trkpt lat="45.80311716344459" lon="9.406722408665154"><ele>208.0</ele><time>2026-04-11T15:46:49Z</time></trkpt><trkpt lat="45.80301477649079" lon="9.406866463042777"><ele>208.0</ele><time>2026-04-11T15:46:50Z</time></trkpt><trkpt lat="45.802911939580426" lon="9.407012463203532"><ele>208.0</ele><time>2026-04-11T15:46:51Z</time></trkpt><trkpt lat="45.80280897190943" lon="9.407158139743569"><ele>208.0</ele><time>2026-04-11T15:46:52Z</time></trkpt><trkpt lat="45.80270624810363" lon="9.40730360701465"><ele>208.0</ele><time>2026-04-11T15:46:53Z</time></trkpt><trkpt lat="45.802603791220164" lon="9.40745080966537"><ele>210.0</ele><time>2026-04-11T15:46:54Z</time></trkpt><trkpt lat="45.80250286049816" lon="9.407599947101922"><ele>212.0</ele><time>2026-04-11T15:46:55Z</time></trkpt><trkpt lat="45.8024025623585" lon="9.407748559512099"><ele>214.0</ele><time>2026-04-11T15:46:56Z</time></trkpt><trkpt lat="45.80230190303181" lon="9.40789642871211"><ele>216.0</ele><time>2026-04-11T15:46:57Z</time></trkpt><trkpt lat="45.80220111287876" lon="9.408042554295758"><ele>216.0</ele><time>2026-04-11T15:46:58Z</time></trkpt><trkpt lat="45.80209928377128" lon="9.408186765355058"><ele>216.0</ele><time>2026-04-11T15:46:59Z</time></trkpt><trkpt lat="45.801995367793424" lon="9.408325600274223"><ele>216.0</ele><time>2026-04-11T15:47:00Z</time></trkpt><trkpt lat="45.801891281941046" lon="9.40846405276344"><ele>216.0</ele><time>2026-04-11T15:47:01Z</time></trkpt><trkpt lat="45.80178893868202" lon="9.408604323032389"><ele>216.5</ele><time>2026-04-11T15:47:02Z</time></trkpt><trkpt lat="45.80169239060901" lon="9.408742203352032"><ele>217.0</ele><time>2026-04-11T15:47:03Z</time></trkpt><trkpt lat="45.80159730109735" lon="9.40887388241808"><ele>217.5</ele><time>2026-04-11T15:47:04Z</time></trkpt><trkpt lat="45.8015002972957" lon="9.408995603296464"><ele>218.0</ele><time>2026-04-11T15:47:05Z</time></trkpt><trkpt lat="45.80140369879682" lon="9.409103688489937"><ele>218.0</ele><time>2026-04-11T15:47:06Z</time></trkpt><trkpt lat="45.80131004372637" lon="9.409199054342695"><ele>218.0</ele><time>2026-04-11T15:47:07Z</time></trkpt><trkpt lat="45.80122203415954" lon="9.409280575625687"><ele>218.0</ele><time>2026-04-11T15:47:08Z</time></trkpt><trkpt lat="45.80113947662577" lon="9.40934818794969"><ele>218.0</ele><time>2026-04-11T15:47:09Z</time></trkpt><trkpt lat="45.80106104293572" lon="9.409411800000257"><ele>218.0</ele><time>2026-04-11T15:47:10Z</time></trkpt><trkpt lat="45.80098454785813" lon="9.409469584940421"><ele>218.83333333333334</ele><time>2026-04-11T15:47:11Z</time></trkpt><trkpt lat="45.800908691412076" lon="9.409518674177237"><ele>219.66666666666669</ele><time>2026-04-11T15:47:12Z</time></trkpt><trkpt lat="45.80083073529299" lon="9.409560416901153"><ele>220.5</ele><time>2026-04-11T15:47:13Z</time></trkpt><trkpt lat="45.800746907204434" lon="9.40959222181647"><ele>221.33333333333331</ele><time>2026-04-11T15:47:14Z</time></trkpt><trkpt lat="45.80065848518138" lon="9.409609224554476"><ele>222.16666666666666</ele><time>2026-04-11T15:47:15Z</time></trkpt><trkpt lat="45.80056934658722" lon="9.409628016307641"><ele>223.0</ele><time>2026-04-11T15:47:16Z</time></trkpt><trkpt lat="45.800483789295235" lon="9.409687550680578"><ele>223.0</ele><time>2026-04-11T15:47:17Z</time></trkpt><trkpt lat="45.80039775790111" lon="9.409754920913915"><ele>223.0</ele><time>2026-04-11T15:47:18Z</time></trkpt><trkpt lat="45.80030666010999" lon="9.409814335869537"><ele>223.0</ele><time>2026-04-11T15:47:19Z</time></trkpt><trkpt lat="45.80020963179746" lon="9.409873269337854"><ele>223.0</ele><time>2026-04-11T15:47:20Z</time></trkpt><trkpt lat="45.8001074522534" lon="9.409925092973053"><ele>223.0</ele><time>2026-04-11T15:47:21Z</time></trkpt><trkpt lat="45.800000066809524" lon="9.409968736045737"><ele>223.25</ele><time>2026-04-11T15:47:22Z</time></trkpt><trkpt lat="45.799891196168346" lon="9.410016298508319"><ele>223.5</ele><time>2026-04-11T15:47:23Z</time></trkpt><trkpt lat="45.79977859231625" lon="9.410069098333544"><ele>223.75</ele><time>2026-04-11T15:47:24Z</time></trkpt><trkpt lat="45.79966584484007" lon="9.410123474577015"><ele>224.0</ele><time>2026-04-11T15:47:25Z</time></trkpt><trkpt lat="45.799553747443255" lon="9.4101777389182"><ele>224.0</ele><time>2026-04-11T15:47:26Z</time></trkpt><trkpt lat="45.79944056412453" lon="9.410232961967976"><ele>224.0</ele><time>2026-04-11T15:47:27Z</time></trkpt><trkpt lat="45.79932674659883" lon="9.410284326026282"><ele>224.0</ele><time>2026-04-11T15:47:28Z</time></trkpt><trkpt lat="45.79921416103507" lon="9.410334170556327"><ele>224.0</ele><time>2026-04-11T15:47:29Z</time></trkpt><trkpt lat="45.79910298145719" lon="9.41038598533667"><ele>223.79999999999998</ele><time>2026-04-11T15:47:30Z</time></trkpt><trkpt lat="45.79899245528961" lon="9.410440690831884"><ele>223.59999999999997</ele><time>2026-04-11T15:47:31Z</time></trkpt><trkpt lat="45.7988826376785" lon="9.410495315538972"><ele>223.4</ele><time>2026-04-11T15:47:32Z</time></trkpt><trkpt lat="45.798780163018414" lon="9.41053997750921"><ele>223.2</ele><time>2026-04-11T15:47:33Z</time></trkpt><trkpt lat="45.79869342188201" lon="9.410574182801922"><ele>223.0</ele><time>2026-04-11T15:47:33.999Z</time></trkpt><trkpt lat="45.7986173974165" lon="9.410597712403408"><ele>223.0</ele><time>2026-04-11T15:47:34.999Z</time></trkpt><trkpt lat="45.798547164809975" lon="9.410612667152742"><ele>223.0</ele><time>2026-04-11T15:47:35.999Z</time></trkpt><trkpt lat="45.798475965595394" lon="9.41061418209938"><ele>223.0</ele><time>2026-04-11T15:47:36.999Z</time></trkpt><trkpt lat="45.79841234219297" lon="9.410605161164705"><ele>223.0</ele><time>2026-04-11T15:47:37.999Z</time></trkpt><trkpt lat="45.79830515198308" lon="9.41060168931261"><ele>223.0</ele><time>2026-04-11T15:47:39.999Z</time></trkpt><trkpt lat="45.798249011225955" lon="9.410648366024208"><ele>223.0</ele><time>2026-04-11T15:47:40.999Z</time></trkpt><trkpt lat="45.798205097455984" lon="9.410718887588166"><ele>223.0</ele><time>2026-04-11T15:47:41.999Z</time></trkpt><trkpt lat="45.798158160029985" lon="9.41078928614276"><ele>223.66666666666666</ele><time>2026-04-11T15:47:42.999Z</time></trkpt><trkpt lat="45.798094122840176" lon="9.410835892845338"><ele>224.33333333333331</ele><time>2026-04-11T15:47:43.999Z</time></trkpt><trkpt lat="45.79803586271051" lon="9.410895472341883"><ele>225.0</ele><time>2026-04-11T15:47:44.999Z</time></trkpt><trkpt lat="45.797948154507445" lon="9.410923488786075"><ele>225.66666666666669</ele><time>2026-04-11T15:47:45.999Z</time></trkpt><trkpt lat="45.79786140673489" lon="9.41096784528255"><ele>226.33333333333334</ele><time>2026-04-11T15:47:46.999Z</time></trkpt><trkpt lat="45.79777438363467" lon="9.411006442117374"><ele>227.0</ele><time>2026-04-11T15:47:47.999Z</time></trkpt><trkpt lat="45.79768451119206" lon="9.411045455937879"><ele>228.0</ele><time>2026-04-11T15:47:48.999Z</time></trkpt><trkpt lat="45.797591997238136" lon="9.411086434736156"><ele>229.0</ele><time>2026-04-11T15:47:49.999Z</time></trkpt><trkpt lat="45.797495659501095" lon="9.411132384198092"><ele>230.0</ele><time>2026-04-11T15:47:50.999Z</time></trkpt><trkpt lat="45.79739265733537" lon="9.411180883532513"><ele>231.0</ele><time>2026-04-11T15:47:51.999Z</time></trkpt><trkpt lat="45.79728597847834" lon="9.411228243141887"><ele>232.0</ele><time>2026-04-11T15:47:52.999Z</time></trkpt><trkpt lat="45.797177022225874" lon="9.411280668324654"><ele>229.75</ele><time>2026-04-11T15:47:53.999Z</time></trkpt><trkpt lat="45.79706488602483" lon="9.411335707854905"><ele>227.5</ele><time>2026-04-11T15:47:54.999Z</time></trkpt><trkpt lat="45.796953331965135" lon="9.411388873166823"><ele>225.25</ele><time>2026-04-11T15:47:55.999Z</time></trkpt><trkpt lat="45.79683686836727" lon="9.41144097347331"><ele>223.0</ele><time>2026-04-11T15:47:56.999Z</time></trkpt><trkpt lat="45.79670837645805" lon="9.411494994565183"><ele>222.75</ele><time>2026-04-11T15:47:57.999Z</time></trkpt><trkpt lat="45.796571077978854" lon="9.411556958171051"><ele>222.5</ele><time>2026-04-11T15:47:58.999Z</time></trkpt><trkpt lat="45.796433825779125" lon="9.411621804426707"><ele>222.25</ele><time>2026-04-11T15:47:59.999Z</time></trkpt><trkpt lat="45.79629674244457" lon="9.411684585871754"><ele>222.0</ele><time>2026-04-11T15:48:00.999Z</time></trkpt><trkpt lat="45.796155625297956" lon="9.411749881197359"><ele>222.0</ele><time>2026-04-11T15:48:01.999Z</time></trkpt><trkpt lat="45.79601283838516" lon="9.411817517579621"><ele>222.0</ele><time>2026-04-11T15:48:02.999Z</time></trkpt><trkpt lat="45.79587111534704" lon="9.411884253553817"><ele>222.0</ele><time>2026-04-11T15:48:03.999Z</time></trkpt><trkpt lat="45.795729031608204" lon="9.411949842990575"><ele>222.0</ele><time>2026-04-11T15:48:04.999Z</time></trkpt><trkpt lat="45.79558786078432" lon="9.412015015628239"><ele>221.75</ele><time>2026-04-11T15:48:05.999Z</time></trkpt><trkpt lat="45.795445853587594" lon="9.412079597580021"><ele>221.5</ele><time>2026-04-11T15:48:06.999Z</time></trkpt><trkpt lat="45.79530586605973" lon="9.412143250293685"><ele>221.25</ele><time>2026-04-11T15:48:07.999Z</time></trkpt><trkpt lat="45.79516790262354" lon="9.41220321885407"><ele>221.0</ele><time>2026-04-11T15:48:09Z</time></trkpt><trkpt lat="45.79503216265656" lon="9.412259021182544"><ele>219.25</ele><time>2026-04-11T15:48:10Z</time></trkpt><trkpt lat="45.79490061086583" lon="9.412310416908683"><ele>217.5</ele><time>2026-04-11T15:48:11Z</time></trkpt><trkpt lat="45.794774278563075" lon="9.41235835754721"><ele>215.75</ele><time>2026-04-11T15:48:12Z</time></trkpt><trkpt lat="45.7946573804847" lon="9.41240676031757"><ele>214.0</ele><time>2026-04-11T15:48:13Z</time></trkpt><trkpt lat="45.79454665668293" lon="9.412458535496613"><ele>214.0</ele><time>2026-04-11T15:48:14Z</time></trkpt><trkpt lat="45.79444314387323" lon="9.412507615106142"><ele>213.99999999999997</ele><time>2026-04-11T15:48:15Z</time></trkpt><trkpt lat="45.79434478673265" lon="9.412555766382523"><ele>213.99999999999997</ele><time>2026-04-11T15:48:16Z</time></trkpt><trkpt lat="45.794252645885905" lon="9.412591765465084"><ele>214.0</ele><time>2026-04-11T15:48:17Z</time></trkpt><trkpt lat="45.794165656636615" lon="9.412598769345045"><ele>214.0</ele><time>2026-04-11T15:48:18Z</time></trkpt><trkpt lat="45.79408850081744" lon="9.41256614201887"><ele>213.79999999999998</ele><time>2026-04-11T15:48:19Z</time></trkpt><trkpt lat="45.79403413468741" lon="9.41249946022255"><ele>213.59999999999997</ele><time>2026-04-11T15:48:20Z</time></trkpt><trkpt lat="45.793998447026425" lon="9.412422113847608"><ele>213.4</ele><time>2026-04-11T15:48:21Z</time></trkpt><trkpt lat="45.793973994569924" lon="9.4123021621304"><ele>213.2</ele><time>2026-04-11T15:48:23Z</time></trkpt><trkpt lat="45.79411449156575" lon="9.412169069618491"><ele>213.0</ele><time>2026-04-11T15:48:24Z</time></trkpt><trkpt lat="45.79419904408783" lon="9.412106303037039"><ele>213.75</ele><time>2026-04-11T15:48:25Z</time></trkpt><trkpt lat="45.794290681669565" lon="9.412034276091534"><ele>214.5</ele><time>2026-04-11T15:48:26Z</time></trkpt><trkpt lat="45.79439379009141" lon="9.41195017583111"><ele>215.25</ele><time>2026-04-11T15:48:27Z</time></trkpt><trkpt lat="45.794513660978545" lon="9.411854777497402"><ele>216.0</ele><time>2026-04-11T15:48:28Z</time></trkpt><trkpt lat="45.79465383995699" lon="9.41172979277448"><ele>217.66666666666669</ele><time>2026-04-11T15:48:29Z</time></trkpt><trkpt lat="45.79480398607579" lon="9.411619557906903"><ele>219.33333333333334</ele><time>2026-04-11T15:48:30Z</time></trkpt><trkpt lat="45.794943170996746" lon="9.411500738250291"><ele>221.0</ele><time>2026-04-11T15:48:31Z</time></trkpt><trkpt lat="45.79506150543296" lon="9.411398769385427"><ele>222.0</ele><time>2026-04-11T15:48:32Z</time></trkpt><trkpt lat="45.7951604825765" lon="9.411308582825797"><ele>223.00000000000003</ele><time>2026-04-11T15:48:33Z</time></trkpt><trkpt lat="45.795258082455014" lon="9.41125779767337"><ele>224.00000000000003</ele><time>2026-04-11T15:48:34Z</time></trkpt><trkpt lat="45.795324835326426" lon="9.411204607803633"><ele>225.0</ele><time>2026-04-11T15:48:35Z</time></trkpt><trkpt lat="45.795386918749045" lon="9.411234472919379"><ele>226.0</ele><time>2026-04-11T15:48:36Z</time></trkpt><trkpt lat="45.79546086428487" lon="9.41131067067857"><ele>225.0</ele><time>2026-04-11T15:48:38Z</time></trkpt><trkpt lat="45.79550680199031" lon="9.411429393447781"><ele>224.00000000000003</ele><time>2026-04-11T15:48:40Z</time></trkpt><trkpt lat="45.79557749845035" lon="9.411572115753927"><ele>223.00000000000003</ele><time>2026-04-11T15:48:42Z</time></trkpt><trkpt lat="45.7956276926427" lon="9.41167122347068"><ele>222.0</ele><time>2026-04-11T15:48:43Z</time></trkpt><trkpt lat="45.795668594031156" lon="9.411791577702155"><ele>221.0</ele><time>2026-04-11T15:48:44Z</time></trkpt><trkpt lat="45.79568850811792" lon="9.41191543235139"><ele>221.00000000000003</ele><time>2026-04-11T15:48:45Z</time></trkpt><trkpt lat="45.79569009482335" lon="9.41203248997754"><ele>221.0</ele><time>2026-04-11T15:48:46Z</time></trkpt><trkpt lat="45.795672146808855" lon="9.412120392571286"><ele>221.0</ele><time>2026-04-11T15:48:47Z</time></trkpt><trkpt lat="45.79561939535128" lon="9.412201029497545"><ele>221.0</ele><time>2026-04-11T15:48:48Z</time></trkpt><trkpt lat="45.79555163398432" lon="9.4122855547255"><ele>221.00000000000003</ele><time>2026-04-11T15:48:50Z</time></trkpt><trkpt lat="45.79548155103384" lon="9.412315651293605"><ele>221.0</ele><time>2026-04-11T15:48:51Z</time></trkpt><trkpt lat="45.795402601569" lon="9.412335041380064"><ele>220.0</ele><time>2026-04-11T15:48:52Z</time></trkpt><trkpt lat="45.795325788829565" lon="9.412351344283396"><ele>219.00000000000003</ele><time>2026-04-11T15:48:53Z</time></trkpt><trkpt lat="45.795258007601795" lon="9.412386577685991"><ele>218.00000000000003</ele><time>2026-04-11T15:48:54Z</time></trkpt><trkpt lat="45.795196102655346" lon="9.412412004809912"><ele>217.0</ele><time>2026-04-11T15:48:55Z</time></trkpt><trkpt lat="45.79511924327534" lon="9.412528373143624"><ele>216.0</ele><time>2026-04-11T15:48:57Z</time></trkpt><trkpt lat="45.79515450393125" lon="9.41272296139691"><ele>216.0</ele><time>2026-04-11T15:48:59Z</time></trkpt><trkpt lat="45.795182406698295" lon="9.412825943664489"><ele>216.0</ele><time>2026-04-11T15:49:00Z</time></trkpt><trkpt lat="45.795208936067375" lon="9.412933810745132"><ele>216.0</ele><time>2026-04-11T15:49:01Z</time></trkpt><trkpt lat="45.79524144700805" lon="9.413036375203983"><ele>216.0</ele><time>2026-04-11T15:49:02Z</time></trkpt><trkpt lat="45.79527433099791" lon="9.41314255620326"><ele>216.0</ele><time>2026-04-11T15:49:03Z</time></trkpt><trkpt lat="45.79530666052799" lon="9.413243457142109"><ele>216.0</ele><time>2026-04-11T15:49:04Z</time></trkpt><trkpt lat="45.79533751332057" lon="9.413337586916738"><ele>215.4</ele><time>2026-04-11T15:49:05Z</time></trkpt><trkpt lat="45.79536703275389" lon="9.413421350179368"><ele>214.8</ele><time>2026-04-11T15:49:06Z</time></trkpt><trkpt lat="45.79542250717346" lon="9.41357613091541"><ele>214.20000000000002</ele><time>2026-04-11T15:49:08Z</time></trkpt><trkpt lat="45.795475257909544" lon="9.413707381066812"><ele>213.60000000000002</ele><time>2026-04-11T15:49:10Z</time></trkpt><trkpt lat="45.79549018021658" lon="9.413841186569154"><ele>213.0</ele><time>2026-04-11T15:49:12Z</time></trkpt><trkpt lat="45.79537104189043" lon="9.413881979287252"><ele>212.8</ele><time>2026-04-11T15:49:14Z</time></trkpt><trkpt lat="45.795305877863385" lon="9.41391051716752"><ele>212.60000000000002</ele><time>2026-04-11T15:49:15Z</time></trkpt><trkpt lat="45.79519555449161" lon="9.413958832170463"><ele>212.39999999999998</ele><time>2026-04-11T15:49:17Z</time></trkpt><trkpt lat="45.79510830359758" lon="9.41399704279204"><ele>212.2</ele><time>2026-04-11T15:49:19Z</time></trkpt><trkpt lat="45.79502050167364" lon="9.414037724569472"><ele>212.0</ele><time>2026-04-11T15:49:21Z</time></trkpt><trkpt lat="45.79494427539371" lon="9.414091578623209"><ele>212.0</ele><time>2026-04-11T15:49:23Z</time></trkpt><trkpt lat="45.7949104027878" lon="9.413978097893114"><ele>212.0</ele><time>2026-04-11T15:49:25Z</time></trkpt><trkpt lat="45.79487249759452" lon="9.413865809153622"><ele>212.0</ele><time>2026-04-11T15:49:27Z</time></trkpt><trkpt lat="45.79484041768501" lon="9.41378298534306"><ele>212.0</ele><time>2026-04-11T15:49:29Z</time></trkpt><trkpt lat="45.79462430022576" lon="9.4138650937524"><ele>208.0</ele><time>2026-04-11T15:49:37.999Z</time></trkpt><trkpt lat="45.79457363989257" lon="9.413796546611275"><ele>212.0</ele><time>2026-04-11T15:49:39.999Z</time></trkpt><trkpt lat="45.794539973510076" lon="9.413689658709433"><ele>212.0</ele><time>2026-04-11T15:49:41.999Z</time></trkpt><trkpt lat="45.7945259000566" lon="9.413600614164556"><ele>212.0</ele><time>2026-04-11T15:49:44.999Z</time></trkpt></trkseg></trk></gpx>